<?xml version="1.0" encoding="UTF-8" standalone="no" ?>
<gpx xmlns="http://www.topografix.com/GPX/1/1" xmlns:xsi="http://www.w3.org/2001/XMLSchema-instance" xsi:schemaLocation="http://www.topografix.com/GPX/1/1 http://www.topografix.com/GPX/1/1/gpx.xsd" version="1.1" creator="VisuGPX - https://www.visugpx.com">
  <metadata>
    <name>Le verre noie</name>
    <desc><![CDATA[Sortie dans un superbe paysage hivernal]]></desc>
  </metadata>
  <trk>
    <name><![CDATA[Rue Antoine Coysevox]]></name>
    <desc><![CDATA[]]></desc>
    <trkseg>
      <trkpt lat="47.51802" lon="6.7743">
        <ele>387</ele>
        <time>2015-01-25T08:09:56.220Z</time>
      </trkpt>
      <trkpt lat="47.51797" lon="6.77437">
        <ele>387</ele>
        <time>2015-01-25T08:09:57.270Z</time>
      </trkpt>
      <trkpt lat="47.51801" lon="6.77438">
        <ele>387</ele>
        <time>2015-01-25T08:09:58.275Z</time>
      </trkpt>
      <trkpt lat="47.51792" lon="6.77436">
        <ele>388</ele>
        <time>2015-01-25T08:09:59.282Z</time>
      </trkpt>
      <trkpt lat="47.51791" lon="6.77442">
        <ele>388</ele>
        <time>2015-01-25T08:10:00.287Z</time>
      </trkpt>
      <trkpt lat="47.51797" lon="6.77435">
        <ele>387</ele>
        <time>2015-01-25T08:10:01.303Z</time>
      </trkpt>
      <trkpt lat="47.51813" lon="6.77455">
        <ele>387</ele>
        <time>2015-01-25T08:10:02.286Z</time>
      </trkpt>
      <trkpt lat="47.51822" lon="6.7746">
        <ele>387</ele>
        <time>2015-01-25T08:10:03.298Z</time>
      </trkpt>
      <trkpt lat="47.51813" lon="6.77476">
        <ele>388</ele>
        <time>2015-01-25T08:10:04.295Z</time>
      </trkpt>
      <trkpt lat="47.51806" lon="6.77464">
        <ele>388</ele>
        <time>2015-01-25T08:10:05.294Z</time>
      </trkpt>
      <trkpt lat="47.51814" lon="6.77467">
        <ele>388</ele>
        <time>2015-01-25T08:10:06.286Z</time>
      </trkpt>
      <trkpt lat="47.51815" lon="6.77477">
        <ele>388</ele>
        <time>2015-01-25T08:10:07.287Z</time>
      </trkpt>
      <trkpt lat="47.51816" lon="6.77475">
        <ele>387</ele>
        <time>2015-01-25T08:10:08.287Z</time>
      </trkpt>
      <trkpt lat="47.51815" lon="6.77464">
        <ele>387</ele>
        <time>2015-01-25T08:10:09.291Z</time>
      </trkpt>
      <trkpt lat="47.51801" lon="6.77459">
        <ele>388</ele>
        <time>2015-01-25T08:10:10.000Z</time>
      </trkpt>
      <trkpt lat="47.51799" lon="6.77462">
        <ele>388</ele>
        <time>2015-01-25T08:10:17.000Z</time>
      </trkpt>
      <trkpt lat="47.51796" lon="6.77464">
        <ele>388</ele>
        <time>2015-01-25T08:10:18.000Z</time>
      </trkpt>
      <trkpt lat="47.51792" lon="6.77467">
        <ele>388</ele>
        <time>2015-01-25T08:10:23.000Z</time>
      </trkpt>
      <trkpt lat="47.51792" lon="6.77467">
        <ele>388</ele>
        <time>2015-01-25T08:10:24.000Z</time>
      </trkpt>
      <trkpt lat="47.51796" lon="6.77467">
        <ele>388</ele>
        <time>2015-01-25T08:10:30.000Z</time>
      </trkpt>
      <trkpt lat="47.51797" lon="6.77467">
        <ele>388</ele>
        <time>2015-01-25T08:10:31.000Z</time>
      </trkpt>
      <trkpt lat="47.51801" lon="6.77471">
        <ele>388</ele>
        <time>2015-01-25T08:10:39.000Z</time>
      </trkpt>
      <trkpt lat="47.51801" lon="6.77472">
        <ele>388</ele>
        <time>2015-01-25T08:10:40.000Z</time>
      </trkpt>
      <trkpt lat="47.51802" lon="6.77476">
        <ele>388</ele>
        <time>2015-01-25T08:10:43.000Z</time>
      </trkpt>
      <trkpt lat="47.51802" lon="6.77483">
        <ele>388</ele>
        <time>2015-01-25T08:10:46.000Z</time>
      </trkpt>
      <trkpt lat="47.51802" lon="6.77489">
        <ele>388</ele>
        <time>2015-01-25T08:10:51.000Z</time>
      </trkpt>
      <trkpt lat="47.51802" lon="6.77491">
        <ele>388</ele>
        <time>2015-01-25T08:10:52.000Z</time>
      </trkpt>
      <trkpt lat="47.51805" lon="6.77491">
        <ele>388</ele>
        <time>2015-01-25T08:11:43.000Z</time>
      </trkpt>
      <trkpt lat="47.51805" lon="6.77496">
        <ele>388</ele>
        <time>2015-01-25T08:11:46.000Z</time>
      </trkpt>
      <trkpt lat="47.51805" lon="6.77501">
        <ele>389</ele>
        <time>2015-01-25T08:13:43.000Z</time>
      </trkpt>
      <trkpt lat="47.51805" lon="6.77503">
        <ele>389</ele>
        <time>2015-01-25T08:13:46.000Z</time>
      </trkpt>
      <trkpt lat="47.51805" lon="6.77504">
        <ele>389</ele>
        <time>2015-01-25T08:17:04.000Z</time>
      </trkpt>
      <trkpt lat="47.51804" lon="6.77472">
        <ele>388</ele>
        <time>2015-01-25T08:17:05.000Z</time>
      </trkpt>
      <trkpt lat="47.51804" lon="6.77476">
        <ele>388</ele>
        <time>2015-01-25T08:17:07.000Z</time>
      </trkpt>
      <trkpt lat="47.51805" lon="6.77479">
        <ele>388</ele>
        <time>2015-01-25T08:17:08.000Z</time>
      </trkpt>
      <trkpt lat="47.51808" lon="6.77482">
        <ele>388</ele>
        <time>2015-01-25T08:17:11.000Z</time>
      </trkpt>
      <trkpt lat="47.5181" lon="6.77483">
        <ele>388</ele>
        <time>2015-01-25T08:17:12.000Z</time>
      </trkpt>
      <trkpt lat="47.51813" lon="6.77486">
        <ele>388</ele>
        <time>2015-01-25T08:17:15.000Z</time>
      </trkpt>
      <trkpt lat="47.51814" lon="6.77487">
        <ele>388</ele>
        <time>2015-01-25T08:17:16.000Z</time>
      </trkpt>
      <trkpt lat="47.51811" lon="6.7749">
        <ele>388</ele>
        <time>2015-01-25T08:17:19.000Z</time>
      </trkpt>
      <trkpt lat="47.51809" lon="6.77492">
        <ele>388</ele>
        <time>2015-01-25T08:17:20.000Z</time>
      </trkpt>
      <trkpt lat="47.51807" lon="6.77493">
        <ele>388</ele>
        <time>2015-01-25T08:17:21.000Z</time>
      </trkpt>
      <trkpt lat="47.51804" lon="6.77495">
        <ele>388</ele>
        <time>2015-01-25T08:17:22.000Z</time>
      </trkpt>
      <trkpt lat="47.51801" lon="6.77495">
        <ele>388</ele>
        <time>2015-01-25T08:17:23.000Z</time>
      </trkpt>
      <trkpt lat="47.51797" lon="6.77495">
        <ele>388</ele>
        <time>2015-01-25T08:17:24.000Z</time>
      </trkpt>
      <trkpt lat="47.51793" lon="6.77494">
        <ele>388</ele>
        <time>2015-01-25T08:17:25.000Z</time>
      </trkpt>
      <trkpt lat="47.5179" lon="6.77492">
        <ele>388</ele>
        <time>2015-01-25T08:17:26.000Z</time>
      </trkpt>
      <trkpt lat="47.51786" lon="6.7749">
        <ele>388</ele>
        <time>2015-01-25T08:17:27.000Z</time>
      </trkpt>
      <trkpt lat="47.51783" lon="6.77488">
        <ele>388</ele>
        <time>2015-01-25T08:17:28.000Z</time>
      </trkpt>
      <trkpt lat="47.5178" lon="6.77487">
        <ele>388</ele>
        <time>2015-01-25T08:17:29.000Z</time>
      </trkpt>
      <trkpt lat="47.51777" lon="6.77485">
        <ele>388</ele>
        <time>2015-01-25T08:17:30.000Z</time>
      </trkpt>
      <trkpt lat="47.51774" lon="6.77484">
        <ele>388</ele>
        <time>2015-01-25T08:17:31.000Z</time>
      </trkpt>
      <trkpt lat="47.51771" lon="6.77483">
        <ele>388</ele>
        <time>2015-01-25T08:17:32.000Z</time>
      </trkpt>
      <trkpt lat="47.51768" lon="6.77482">
        <ele>389</ele>
        <time>2015-01-25T08:17:33.000Z</time>
      </trkpt>
      <trkpt lat="47.51764" lon="6.7748">
        <ele>389</ele>
        <time>2015-01-25T08:17:34.000Z</time>
      </trkpt>
      <trkpt lat="47.51761" lon="6.77479">
        <ele>389</ele>
        <time>2015-01-25T08:17:35.000Z</time>
      </trkpt>
      <trkpt lat="47.51758" lon="6.77478">
        <ele>389</ele>
        <time>2015-01-25T08:17:36.000Z</time>
      </trkpt>
      <trkpt lat="47.51754" lon="6.77477">
        <ele>389</ele>
        <time>2015-01-25T08:17:37.000Z</time>
      </trkpt>
      <trkpt lat="47.51751" lon="6.77476">
        <ele>389</ele>
        <time>2015-01-25T08:17:38.000Z</time>
      </trkpt>
      <trkpt lat="47.51748" lon="6.77476">
        <ele>389</ele>
        <time>2015-01-25T08:17:39.000Z</time>
      </trkpt>
      <trkpt lat="47.51744" lon="6.77475">
        <ele>389</ele>
        <time>2015-01-25T08:17:40.000Z</time>
      </trkpt>
      <trkpt lat="47.51737" lon="6.77475">
        <ele>389</ele>
        <time>2015-01-25T08:17:42.000Z</time>
      </trkpt>
      <trkpt lat="47.51734" lon="6.77474">
        <ele>389</ele>
        <time>2015-01-25T08:17:43.000Z</time>
      </trkpt>
      <trkpt lat="47.51726" lon="6.77474">
        <ele>389</ele>
        <time>2015-01-25T08:17:46.000Z</time>
      </trkpt>
      <trkpt lat="47.51724" lon="6.77477">
        <ele>389</ele>
        <time>2015-01-25T08:17:47.000Z</time>
      </trkpt>
      <trkpt lat="47.51723" lon="6.77482">
        <ele>389</ele>
        <time>2015-01-25T08:17:48.000Z</time>
      </trkpt>
      <trkpt lat="47.51721" lon="6.77487">
        <ele>389</ele>
        <time>2015-01-25T08:17:49.000Z</time>
      </trkpt>
      <trkpt lat="47.5172" lon="6.77493">
        <ele>389</ele>
        <time>2015-01-25T08:17:50.000Z</time>
      </trkpt>
      <trkpt lat="47.51719" lon="6.77498">
        <ele>389</ele>
        <time>2015-01-25T08:17:51.000Z</time>
      </trkpt>
      <trkpt lat="47.51718" lon="6.77504">
        <ele>390</ele>
        <time>2015-01-25T08:17:52.000Z</time>
      </trkpt>
      <trkpt lat="47.51716" lon="6.77508">
        <ele>390</ele>
        <time>2015-01-25T08:17:52.999Z</time>
      </trkpt>
      <trkpt lat="47.51715" lon="6.77515">
        <ele>390</ele>
        <time>2015-01-25T08:17:54.000Z</time>
      </trkpt>
      <trkpt lat="47.51714" lon="6.7752">
        <ele>390</ele>
        <time>2015-01-25T08:17:55.000Z</time>
      </trkpt>
      <trkpt lat="47.51713" lon="6.77526">
        <ele>390</ele>
        <time>2015-01-25T08:17:55.999Z</time>
      </trkpt>
      <trkpt lat="47.51713" lon="6.77532">
        <ele>390</ele>
        <time>2015-01-25T08:17:57.000Z</time>
      </trkpt>
      <trkpt lat="47.51712" lon="6.77537">
        <ele>390</ele>
        <time>2015-01-25T08:17:57.999Z</time>
      </trkpt>
      <trkpt lat="47.51711" lon="6.77542">
        <ele>390</ele>
        <time>2015-01-25T08:17:59.000Z</time>
      </trkpt>
      <trkpt lat="47.5171" lon="6.77546">
        <ele>390</ele>
        <time>2015-01-25T08:18:00.000Z</time>
      </trkpt>
      <trkpt lat="47.51708" lon="6.77549">
        <ele>390</ele>
        <time>2015-01-25T08:18:01.000Z</time>
      </trkpt>
      <trkpt lat="47.51706" lon="6.7755">
        <ele>390</ele>
        <time>2015-01-25T08:18:02.000Z</time>
      </trkpt>
      <trkpt lat="47.51703" lon="6.7755">
        <ele>390</ele>
        <time>2015-01-25T08:18:03.000Z</time>
      </trkpt>
      <trkpt lat="47.517" lon="6.77548">
        <ele>390</ele>
        <time>2015-01-25T08:18:04.000Z</time>
      </trkpt>
      <trkpt lat="47.51697" lon="6.77545">
        <ele>390</ele>
        <time>2015-01-25T08:18:05.000Z</time>
      </trkpt>
      <trkpt lat="47.51694" lon="6.77542">
        <ele>390</ele>
        <time>2015-01-25T08:18:06.000Z</time>
      </trkpt>
      <trkpt lat="47.5169" lon="6.77538">
        <ele>390</ele>
        <time>2015-01-25T08:18:07.000Z</time>
      </trkpt>
      <trkpt lat="47.51687" lon="6.77534">
        <ele>390</ele>
        <time>2015-01-25T08:18:08.000Z</time>
      </trkpt>
      <trkpt lat="47.51683" lon="6.77525">
        <ele>390</ele>
        <time>2015-01-25T08:18:09.000Z</time>
      </trkpt>
      <trkpt lat="47.51679" lon="6.77521">
        <ele>390</ele>
        <time>2015-01-25T08:18:10.000Z</time>
      </trkpt>
      <trkpt lat="47.51676" lon="6.77517">
        <ele>389</ele>
        <time>2015-01-25T08:18:11.000Z</time>
      </trkpt>
      <trkpt lat="47.51672" lon="6.77513">
        <ele>389</ele>
        <time>2015-01-25T08:18:12.000Z</time>
      </trkpt>
      <trkpt lat="47.51669" lon="6.77509">
        <ele>389</ele>
        <time>2015-01-25T08:18:13.000Z</time>
      </trkpt>
      <trkpt lat="47.51666" lon="6.77505">
        <ele>389</ele>
        <time>2015-01-25T08:18:14.000Z</time>
      </trkpt>
      <trkpt lat="47.51662" lon="6.77501">
        <ele>389</ele>
        <time>2015-01-25T08:18:15.000Z</time>
      </trkpt>
      <trkpt lat="47.51658" lon="6.77497">
        <ele>388</ele>
        <time>2015-01-25T08:18:16.000Z</time>
      </trkpt>
      <trkpt lat="47.51655" lon="6.77492">
        <ele>388</ele>
        <time>2015-01-25T08:18:17.000Z</time>
      </trkpt>
      <trkpt lat="47.51651" lon="6.77488">
        <ele>387</ele>
        <time>2015-01-25T08:18:18.000Z</time>
      </trkpt>
      <trkpt lat="47.51647" lon="6.77483">
        <ele>387</ele>
        <time>2015-01-25T08:18:19.000Z</time>
      </trkpt>
      <trkpt lat="47.51643" lon="6.77479">
        <ele>387</ele>
        <time>2015-01-25T08:18:20.000Z</time>
      </trkpt>
      <trkpt lat="47.5164" lon="6.77474">
        <ele>386</ele>
        <time>2015-01-25T08:18:21.000Z</time>
      </trkpt>
      <trkpt lat="47.51636" lon="6.7747">
        <ele>386</ele>
        <time>2015-01-25T08:18:22.000Z</time>
      </trkpt>
      <trkpt lat="47.51633" lon="6.77465">
        <ele>386</ele>
        <time>2015-01-25T08:18:23.000Z</time>
      </trkpt>
      <trkpt lat="47.51629" lon="6.77461">
        <ele>386</ele>
        <time>2015-01-25T08:18:24.000Z</time>
      </trkpt>
      <trkpt lat="47.51626" lon="6.77457">
        <ele>386</ele>
        <time>2015-01-25T08:18:25.000Z</time>
      </trkpt>
      <trkpt lat="47.51622" lon="6.77453">
        <ele>386</ele>
        <time>2015-01-25T08:18:26.000Z</time>
      </trkpt>
      <trkpt lat="47.51618" lon="6.77449">
        <ele>385</ele>
        <time>2015-01-25T08:18:27.000Z</time>
      </trkpt>
      <trkpt lat="47.51615" lon="6.77445">
        <ele>385</ele>
        <time>2015-01-25T08:18:28.000Z</time>
      </trkpt>
      <trkpt lat="47.51612" lon="6.77442">
        <ele>385</ele>
        <time>2015-01-25T08:18:29.000Z</time>
      </trkpt>
      <trkpt lat="47.5161" lon="6.77439">
        <ele>385</ele>
        <time>2015-01-25T08:18:30.000Z</time>
      </trkpt>
      <trkpt lat="47.51608" lon="6.77436">
        <ele>385</ele>
        <time>2015-01-25T08:18:31.000Z</time>
      </trkpt>
      <trkpt lat="47.51605" lon="6.77433">
        <ele>385</ele>
        <time>2015-01-25T08:18:32.000Z</time>
      </trkpt>
      <trkpt lat="47.51603" lon="6.77429">
        <ele>385</ele>
        <time>2015-01-25T08:18:33.000Z</time>
      </trkpt>
      <trkpt lat="47.516" lon="6.77426">
        <ele>384</ele>
        <time>2015-01-25T08:18:34.000Z</time>
      </trkpt>
      <trkpt lat="47.51597" lon="6.77422">
        <ele>384</ele>
        <time>2015-01-25T08:18:35.000Z</time>
      </trkpt>
      <trkpt lat="47.51594" lon="6.77419">
        <ele>384</ele>
        <time>2015-01-25T08:18:36.000Z</time>
      </trkpt>
      <trkpt lat="47.51592" lon="6.77417">
        <ele>383</ele>
        <time>2015-01-25T08:18:37.000Z</time>
      </trkpt>
      <trkpt lat="47.5159" lon="6.77414">
        <ele>383</ele>
        <time>2015-01-25T08:18:38.000Z</time>
      </trkpt>
      <trkpt lat="47.51587" lon="6.77411">
        <ele>383</ele>
        <time>2015-01-25T08:18:39.000Z</time>
      </trkpt>
      <trkpt lat="47.51585" lon="6.77408">
        <ele>383</ele>
        <time>2015-01-25T08:18:40.000Z</time>
      </trkpt>
      <trkpt lat="47.51582" lon="6.77404">
        <ele>382</ele>
        <time>2015-01-25T08:18:41.000Z</time>
      </trkpt>
      <trkpt lat="47.51579" lon="6.77401">
        <ele>382</ele>
        <time>2015-01-25T08:18:42.000Z</time>
      </trkpt>
      <trkpt lat="47.51575" lon="6.77397">
        <ele>382</ele>
        <time>2015-01-25T08:18:43.000Z</time>
      </trkpt>
      <trkpt lat="47.51571" lon="6.77392">
        <ele>381</ele>
        <time>2015-01-25T08:18:44.000Z</time>
      </trkpt>
      <trkpt lat="47.51561" lon="6.77379">
        <ele>381</ele>
        <time>2015-01-25T08:18:47.000Z</time>
      </trkpt>
      <trkpt lat="47.51558" lon="6.77375">
        <ele>381</ele>
        <time>2015-01-25T08:18:48.000Z</time>
      </trkpt>
      <trkpt lat="47.51554" lon="6.77371">
        <ele>381</ele>
        <time>2015-01-25T08:18:49.000Z</time>
      </trkpt>
      <trkpt lat="47.51551" lon="6.77367">
        <ele>381</ele>
        <time>2015-01-25T08:18:50.000Z</time>
      </trkpt>
      <trkpt lat="47.51547" lon="6.77363">
        <ele>380</ele>
        <time>2015-01-25T08:18:51.000Z</time>
      </trkpt>
      <trkpt lat="47.51544" lon="6.77359">
        <ele>380</ele>
        <time>2015-01-25T08:18:52.000Z</time>
      </trkpt>
      <trkpt lat="47.5154" lon="6.77354">
        <ele>380</ele>
        <time>2015-01-25T08:18:53.000Z</time>
      </trkpt>
      <trkpt lat="47.51537" lon="6.7735">
        <ele>380</ele>
        <time>2015-01-25T08:18:54.000Z</time>
      </trkpt>
      <trkpt lat="47.51533" lon="6.77346">
        <ele>380</ele>
        <time>2015-01-25T08:18:55.000Z</time>
      </trkpt>
      <trkpt lat="47.5153" lon="6.77342">
        <ele>380</ele>
        <time>2015-01-25T08:18:56.000Z</time>
      </trkpt>
      <trkpt lat="47.51526" lon="6.77338">
        <ele>380</ele>
        <time>2015-01-25T08:18:57.000Z</time>
      </trkpt>
      <trkpt lat="47.51523" lon="6.77333">
        <ele>378</ele>
        <time>2015-01-25T08:18:58.000Z</time>
      </trkpt>
      <trkpt lat="47.51519" lon="6.77328">
        <ele>378</ele>
        <time>2015-01-25T08:18:59.000Z</time>
      </trkpt>
      <trkpt lat="47.51514" lon="6.77324">
        <ele>378</ele>
        <time>2015-01-25T08:19:00.000Z</time>
      </trkpt>
      <trkpt lat="47.5151" lon="6.77319">
        <ele>378</ele>
        <time>2015-01-25T08:19:01.000Z</time>
      </trkpt>
      <trkpt lat="47.51506" lon="6.77313">
        <ele>378</ele>
        <time>2015-01-25T08:19:02.000Z</time>
      </trkpt>
      <trkpt lat="47.51502" lon="6.77307">
        <ele>378</ele>
        <time>2015-01-25T08:19:03.000Z</time>
      </trkpt>
      <trkpt lat="47.51498" lon="6.77301">
        <ele>377</ele>
        <time>2015-01-25T08:19:04.000Z</time>
      </trkpt>
      <trkpt lat="47.51495" lon="6.77295">
        <ele>377</ele>
        <time>2015-01-25T08:19:05.000Z</time>
      </trkpt>
      <trkpt lat="47.51493" lon="6.77287">
        <ele>377</ele>
        <time>2015-01-25T08:19:06.000Z</time>
      </trkpt>
      <trkpt lat="47.51491" lon="6.77279">
        <ele>377</ele>
        <time>2015-01-25T08:19:07.000Z</time>
      </trkpt>
      <trkpt lat="47.5149" lon="6.77271">
        <ele>377</ele>
        <time>2015-01-25T08:19:08.000Z</time>
      </trkpt>
      <trkpt lat="47.5149" lon="6.77264">
        <ele>376</ele>
        <time>2015-01-25T08:19:09.000Z</time>
      </trkpt>
      <trkpt lat="47.51489" lon="6.77256">
        <ele>376</ele>
        <time>2015-01-25T08:19:10.000Z</time>
      </trkpt>
      <trkpt lat="47.51488" lon="6.77248">
        <ele>376</ele>
        <time>2015-01-25T08:19:11.000Z</time>
      </trkpt>
      <trkpt lat="47.51488" lon="6.7724">
        <ele>376</ele>
        <time>2015-01-25T08:19:12.000Z</time>
      </trkpt>
      <trkpt lat="47.51487" lon="6.77233">
        <ele>375</ele>
        <time>2015-01-25T08:19:13.000Z</time>
      </trkpt>
      <trkpt lat="47.51486" lon="6.77226">
        <ele>375</ele>
        <time>2015-01-25T08:19:14.000Z</time>
      </trkpt>
      <trkpt lat="47.51485" lon="6.7722">
        <ele>375</ele>
        <time>2015-01-25T08:19:15.000Z</time>
      </trkpt>
      <trkpt lat="47.51483" lon="6.77214">
        <ele>375</ele>
        <time>2015-01-25T08:19:16.000Z</time>
      </trkpt>
      <trkpt lat="47.51479" lon="6.7721">
        <ele>375</ele>
        <time>2015-01-25T08:19:17.000Z</time>
      </trkpt>
      <trkpt lat="47.51474" lon="6.77208">
        <ele>375</ele>
        <time>2015-01-25T08:19:18.000Z</time>
      </trkpt>
      <trkpt lat="47.5147" lon="6.77208">
        <ele>375</ele>
        <time>2015-01-25T08:19:19.000Z</time>
      </trkpt>
      <trkpt lat="47.51464" lon="6.77208">
        <ele>375</ele>
        <time>2015-01-25T08:19:20.000Z</time>
      </trkpt>
      <trkpt lat="47.51459" lon="6.7721">
        <ele>375</ele>
        <time>2015-01-25T08:19:21.000Z</time>
      </trkpt>
      <trkpt lat="47.51454" lon="6.77211">
        <ele>375</ele>
        <time>2015-01-25T08:19:22.000Z</time>
      </trkpt>
      <trkpt lat="47.51448" lon="6.77214">
        <ele>375</ele>
        <time>2015-01-25T08:19:23.000Z</time>
      </trkpt>
      <trkpt lat="47.51442" lon="6.77217">
        <ele>375</ele>
        <time>2015-01-25T08:19:24.000Z</time>
      </trkpt>
      <trkpt lat="47.51437" lon="6.77219">
        <ele>375</ele>
        <time>2015-01-25T08:19:25.000Z</time>
      </trkpt>
      <trkpt lat="47.51431" lon="6.77222">
        <ele>375</ele>
        <time>2015-01-25T08:19:26.000Z</time>
      </trkpt>
      <trkpt lat="47.51426" lon="6.77225">
        <ele>375</ele>
        <time>2015-01-25T08:19:27.000Z</time>
      </trkpt>
      <trkpt lat="47.5142" lon="6.77228">
        <ele>375</ele>
        <time>2015-01-25T08:19:28.000Z</time>
      </trkpt>
      <trkpt lat="47.51415" lon="6.77231">
        <ele>376</ele>
        <time>2015-01-25T08:19:29.000Z</time>
      </trkpt>
      <trkpt lat="47.5141" lon="6.77234">
        <ele>376</ele>
        <time>2015-01-25T08:19:30.000Z</time>
      </trkpt>
      <trkpt lat="47.51406" lon="6.77236">
        <ele>376</ele>
        <time>2015-01-25T08:19:31.000Z</time>
      </trkpt>
      <trkpt lat="47.51401" lon="6.77239">
        <ele>376</ele>
        <time>2015-01-25T08:19:32.000Z</time>
      </trkpt>
      <trkpt lat="47.51396" lon="6.77241">
        <ele>376</ele>
        <time>2015-01-25T08:19:33.000Z</time>
      </trkpt>
      <trkpt lat="47.51392" lon="6.77244">
        <ele>376</ele>
        <time>2015-01-25T08:19:34.000Z</time>
      </trkpt>
      <trkpt lat="47.51388" lon="6.77247">
        <ele>376</ele>
        <time>2015-01-25T08:19:35.000Z</time>
      </trkpt>
      <trkpt lat="47.51384" lon="6.77249">
        <ele>376</ele>
        <time>2015-01-25T08:19:36.000Z</time>
      </trkpt>
      <trkpt lat="47.5138" lon="6.77252">
        <ele>377</ele>
        <time>2015-01-25T08:19:37.000Z</time>
      </trkpt>
      <trkpt lat="47.51377" lon="6.77254">
        <ele>377</ele>
        <time>2015-01-25T08:19:38.000Z</time>
      </trkpt>
      <trkpt lat="47.51373" lon="6.77257">
        <ele>378</ele>
        <time>2015-01-25T08:19:39.000Z</time>
      </trkpt>
      <trkpt lat="47.5137" lon="6.77259">
        <ele>378</ele>
        <time>2015-01-25T08:19:40.000Z</time>
      </trkpt>
      <trkpt lat="47.51366" lon="6.77262">
        <ele>378</ele>
        <time>2015-01-25T08:19:41.000Z</time>
      </trkpt>
      <trkpt lat="47.51363" lon="6.77265">
        <ele>378</ele>
        <time>2015-01-25T08:19:42.000Z</time>
      </trkpt>
      <trkpt lat="47.5136" lon="6.77267">
        <ele>378</ele>
        <time>2015-01-25T08:19:43.000Z</time>
      </trkpt>
      <trkpt lat="47.51353" lon="6.77272">
        <ele>378</ele>
        <time>2015-01-25T08:19:45.173Z</time>
      </trkpt>
      <trkpt lat="47.51343" lon="6.7728">
        <ele>378</ele>
        <time>2015-01-25T08:19:49.000Z</time>
      </trkpt>
      <trkpt lat="47.5134" lon="6.77282">
        <ele>378</ele>
        <time>2015-01-25T08:19:50.000Z</time>
      </trkpt>
      <trkpt lat="47.51337" lon="6.77284">
        <ele>378</ele>
        <time>2015-01-25T08:19:51.000Z</time>
      </trkpt>
      <trkpt lat="47.51333" lon="6.77284">
        <ele>378</ele>
        <time>2015-01-25T08:19:52.000Z</time>
      </trkpt>
      <trkpt lat="47.51329" lon="6.77286">
        <ele>378</ele>
        <time>2015-01-25T08:19:53.000Z</time>
      </trkpt>
      <trkpt lat="47.51325" lon="6.77287">
        <ele>378</ele>
        <time>2015-01-25T08:19:54.000Z</time>
      </trkpt>
      <trkpt lat="47.51322" lon="6.77289">
        <ele>378</ele>
        <time>2015-01-25T08:19:55.000Z</time>
      </trkpt>
      <trkpt lat="47.51318" lon="6.77291">
        <ele>378</ele>
        <time>2015-01-25T08:19:56.000Z</time>
      </trkpt>
      <trkpt lat="47.51315" lon="6.77292">
        <ele>377</ele>
        <time>2015-01-25T08:19:57.001Z</time>
      </trkpt>
      <trkpt lat="47.51312" lon="6.77292">
        <ele>377</ele>
        <time>2015-01-25T08:19:58.000Z</time>
      </trkpt>
      <trkpt lat="47.51308" lon="6.77291">
        <ele>377</ele>
        <time>2015-01-25T08:19:59.000Z</time>
      </trkpt>
      <trkpt lat="47.51305" lon="6.77289">
        <ele>377</ele>
        <time>2015-01-25T08:20:00.000Z</time>
      </trkpt>
      <trkpt lat="47.51301" lon="6.77287">
        <ele>377</ele>
        <time>2015-01-25T08:20:01.000Z</time>
      </trkpt>
      <trkpt lat="47.51298" lon="6.77285">
        <ele>377</ele>
        <time>2015-01-25T08:20:02.000Z</time>
      </trkpt>
      <trkpt lat="47.51294" lon="6.77283">
        <ele>377</ele>
        <time>2015-01-25T08:20:03.000Z</time>
      </trkpt>
      <trkpt lat="47.51291" lon="6.77281">
        <ele>377</ele>
        <time>2015-01-25T08:20:04.000Z</time>
      </trkpt>
      <trkpt lat="47.51287" lon="6.77279">
        <ele>377</ele>
        <time>2015-01-25T08:20:05.000Z</time>
      </trkpt>
      <trkpt lat="47.51283" lon="6.77277">
        <ele>377</ele>
        <time>2015-01-25T08:20:06.000Z</time>
      </trkpt>
      <trkpt lat="47.5128" lon="6.77274">
        <ele>377</ele>
        <time>2015-01-25T08:20:07.000Z</time>
      </trkpt>
      <trkpt lat="47.51276" lon="6.77272">
        <ele>377</ele>
        <time>2015-01-25T08:20:08.000Z</time>
      </trkpt>
      <trkpt lat="47.51273" lon="6.7727">
        <ele>377</ele>
        <time>2015-01-25T08:20:09.000Z</time>
      </trkpt>
      <trkpt lat="47.51269" lon="6.77268">
        <ele>377</ele>
        <time>2015-01-25T08:20:10.000Z</time>
      </trkpt>
      <trkpt lat="47.51266" lon="6.77265">
        <ele>377</ele>
        <time>2015-01-25T08:20:11.000Z</time>
      </trkpt>
      <trkpt lat="47.51263" lon="6.77262">
        <ele>378</ele>
        <time>2015-01-25T08:20:12.000Z</time>
      </trkpt>
      <trkpt lat="47.5126" lon="6.77258">
        <ele>378</ele>
        <time>2015-01-25T08:20:13.000Z</time>
      </trkpt>
      <trkpt lat="47.51257" lon="6.77254">
        <ele>378</ele>
        <time>2015-01-25T08:20:14.000Z</time>
      </trkpt>
      <trkpt lat="47.51254" lon="6.7725">
        <ele>379</ele>
        <time>2015-01-25T08:20:15.000Z</time>
      </trkpt>
      <trkpt lat="47.51251" lon="6.77245">
        <ele>379</ele>
        <time>2015-01-25T08:20:16.000Z</time>
      </trkpt>
      <trkpt lat="47.51249" lon="6.7724">
        <ele>378</ele>
        <time>2015-01-25T08:20:17.000Z</time>
      </trkpt>
      <trkpt lat="47.51246" lon="6.77235">
        <ele>377</ele>
        <time>2015-01-25T08:20:18.000Z</time>
      </trkpt>
      <trkpt lat="47.51244" lon="6.7723">
        <ele>377</ele>
        <time>2015-01-25T08:20:19.000Z</time>
      </trkpt>
      <trkpt lat="47.51242" lon="6.7722">
        <ele>376</ele>
        <time>2015-01-25T08:20:20.000Z</time>
      </trkpt>
      <trkpt lat="47.5124" lon="6.77215">
        <ele>376</ele>
        <time>2015-01-25T08:20:21.000Z</time>
      </trkpt>
      <trkpt lat="47.51238" lon="6.77211">
        <ele>376</ele>
        <time>2015-01-25T08:20:22.000Z</time>
      </trkpt>
      <trkpt lat="47.51236" lon="6.77207">
        <ele>376</ele>
        <time>2015-01-25T08:20:23.000Z</time>
      </trkpt>
      <trkpt lat="47.51234" lon="6.77204">
        <ele>376</ele>
        <time>2015-01-25T08:20:24.000Z</time>
      </trkpt>
      <trkpt lat="47.51232" lon="6.77198">
        <ele>376</ele>
        <time>2015-01-25T08:20:25.000Z</time>
      </trkpt>
      <trkpt lat="47.51229" lon="6.77194">
        <ele>376</ele>
        <time>2015-01-25T08:20:26.000Z</time>
      </trkpt>
      <trkpt lat="47.51227" lon="6.77189">
        <ele>376</ele>
        <time>2015-01-25T08:20:27.000Z</time>
      </trkpt>
      <trkpt lat="47.51225" lon="6.77183">
        <ele>376</ele>
        <time>2015-01-25T08:20:28.000Z</time>
      </trkpt>
      <trkpt lat="47.51222" lon="6.77178">
        <ele>376</ele>
        <time>2015-01-25T08:20:29.000Z</time>
      </trkpt>
      <trkpt lat="47.5122" lon="6.77173">
        <ele>376</ele>
        <time>2015-01-25T08:20:30.000Z</time>
      </trkpt>
      <trkpt lat="47.51218" lon="6.77167">
        <ele>376</ele>
        <time>2015-01-25T08:20:31.000Z</time>
      </trkpt>
      <trkpt lat="47.51215" lon="6.77162">
        <ele>378</ele>
        <time>2015-01-25T08:20:32.000Z</time>
      </trkpt>
      <trkpt lat="47.51212" lon="6.77156">
        <ele>378</ele>
        <time>2015-01-25T08:20:33.000Z</time>
      </trkpt>
      <trkpt lat="47.51209" lon="6.7715">
        <ele>378</ele>
        <time>2015-01-25T08:20:34.000Z</time>
      </trkpt>
      <trkpt lat="47.51206" lon="6.77144">
        <ele>378</ele>
        <time>2015-01-25T08:20:35.000Z</time>
      </trkpt>
      <trkpt lat="47.51204" lon="6.77138">
        <ele>378</ele>
        <time>2015-01-25T08:20:36.000Z</time>
      </trkpt>
      <trkpt lat="47.51201" lon="6.77132">
        <ele>378</ele>
        <time>2015-01-25T08:20:37.000Z</time>
      </trkpt>
      <trkpt lat="47.51198" lon="6.77127">
        <ele>378</ele>
        <time>2015-01-25T08:20:38.000Z</time>
      </trkpt>
      <trkpt lat="47.51194" lon="6.7712">
        <ele>378</ele>
        <time>2015-01-25T08:20:39.000Z</time>
      </trkpt>
      <trkpt lat="47.51191" lon="6.77114">
        <ele>378</ele>
        <time>2015-01-25T08:20:40.000Z</time>
      </trkpt>
      <trkpt lat="47.51188" lon="6.77108">
        <ele>378</ele>
        <time>2015-01-25T08:20:41.000Z</time>
      </trkpt>
      <trkpt lat="47.51185" lon="6.77103">
        <ele>378</ele>
        <time>2015-01-25T08:20:42.000Z</time>
      </trkpt>
      <trkpt lat="47.51182" lon="6.77096">
        <ele>378</ele>
        <time>2015-01-25T08:20:43.000Z</time>
      </trkpt>
      <trkpt lat="47.51175" lon="6.77085">
        <ele>378</ele>
        <time>2015-01-25T08:20:44.843Z</time>
      </trkpt>
      <trkpt lat="47.51172" lon="6.7708">
        <ele>377</ele>
        <time>2015-01-25T08:20:46.000Z</time>
      </trkpt>
      <trkpt lat="47.51167" lon="6.77074">
        <ele>377</ele>
        <time>2015-01-25T08:20:47.000Z</time>
      </trkpt>
      <trkpt lat="47.51163" lon="6.77069">
        <ele>377</ele>
        <time>2015-01-25T08:20:48.000Z</time>
      </trkpt>
      <trkpt lat="47.51159" lon="6.77065">
        <ele>376</ele>
        <time>2015-01-25T08:20:49.000Z</time>
      </trkpt>
      <trkpt lat="47.51154" lon="6.77061">
        <ele>376</ele>
        <time>2015-01-25T08:20:50.000Z</time>
      </trkpt>
      <trkpt lat="47.5115" lon="6.77057">
        <ele>376</ele>
        <time>2015-01-25T08:20:50.999Z</time>
      </trkpt>
      <trkpt lat="47.51144" lon="6.77053">
        <ele>376</ele>
        <time>2015-01-25T08:20:52.000Z</time>
      </trkpt>
      <trkpt lat="47.51139" lon="6.77049">
        <ele>376</ele>
        <time>2015-01-25T08:20:53.002Z</time>
      </trkpt>
      <trkpt lat="47.51135" lon="6.77045">
        <ele>375</ele>
        <time>2015-01-25T08:20:54.000Z</time>
      </trkpt>
      <trkpt lat="47.5113" lon="6.7704">
        <ele>375</ele>
        <time>2015-01-25T08:20:55.000Z</time>
      </trkpt>
      <trkpt lat="47.51125" lon="6.77036">
        <ele>375</ele>
        <time>2015-01-25T08:20:56.000Z</time>
      </trkpt>
      <trkpt lat="47.5112" lon="6.7703">
        <ele>375</ele>
        <time>2015-01-25T08:20:57.000Z</time>
      </trkpt>
      <trkpt lat="47.51115" lon="6.77026">
        <ele>375</ele>
        <time>2015-01-25T08:20:58.000Z</time>
      </trkpt>
      <trkpt lat="47.5111" lon="6.77021">
        <ele>375</ele>
        <time>2015-01-25T08:20:59.000Z</time>
      </trkpt>
      <trkpt lat="47.51105" lon="6.77016">
        <ele>375</ele>
        <time>2015-01-25T08:21:00.000Z</time>
      </trkpt>
      <trkpt lat="47.511" lon="6.77011">
        <ele>375</ele>
        <time>2015-01-25T08:21:01.000Z</time>
      </trkpt>
      <trkpt lat="47.51095" lon="6.77007">
        <ele>375</ele>
        <time>2015-01-25T08:21:02.000Z</time>
      </trkpt>
      <trkpt lat="47.5109" lon="6.77003">
        <ele>375</ele>
        <time>2015-01-25T08:21:03.000Z</time>
      </trkpt>
      <trkpt lat="47.51085" lon="6.77">
        <ele>375</ele>
        <time>2015-01-25T08:21:04.000Z</time>
      </trkpt>
      <trkpt lat="47.51081" lon="6.76995">
        <ele>375</ele>
        <time>2015-01-25T08:21:05.000Z</time>
      </trkpt>
      <trkpt lat="47.51076" lon="6.76991">
        <ele>375</ele>
        <time>2015-01-25T08:21:06.000Z</time>
      </trkpt>
      <trkpt lat="47.51071" lon="6.76987">
        <ele>375</ele>
        <time>2015-01-25T08:21:07.000Z</time>
      </trkpt>
      <trkpt lat="47.51067" lon="6.76983">
        <ele>375</ele>
        <time>2015-01-25T08:21:08.000Z</time>
      </trkpt>
      <trkpt lat="47.51062" lon="6.76979">
        <ele>375</ele>
        <time>2015-01-25T08:21:09.000Z</time>
      </trkpt>
      <trkpt lat="47.51057" lon="6.76974">
        <ele>375</ele>
        <time>2015-01-25T08:21:10.000Z</time>
      </trkpt>
      <trkpt lat="47.51053" lon="6.76971">
        <ele>375</ele>
        <time>2015-01-25T08:21:11.000Z</time>
      </trkpt>
      <trkpt lat="47.51048" lon="6.76967">
        <ele>375</ele>
        <time>2015-01-25T08:21:12.000Z</time>
      </trkpt>
      <trkpt lat="47.51044" lon="6.76963">
        <ele>375</ele>
        <time>2015-01-25T08:21:13.000Z</time>
      </trkpt>
      <trkpt lat="47.5104" lon="6.76959">
        <ele>375</ele>
        <time>2015-01-25T08:21:14.000Z</time>
      </trkpt>
      <trkpt lat="47.51036" lon="6.76955">
        <ele>375</ele>
        <time>2015-01-25T08:21:15.000Z</time>
      </trkpt>
      <trkpt lat="47.51032" lon="6.76951">
        <ele>375</ele>
        <time>2015-01-25T08:21:16.000Z</time>
      </trkpt>
      <trkpt lat="47.51027" lon="6.76948">
        <ele>375</ele>
        <time>2015-01-25T08:21:17.000Z</time>
      </trkpt>
      <trkpt lat="47.51023" lon="6.76944">
        <ele>375</ele>
        <time>2015-01-25T08:21:18.000Z</time>
      </trkpt>
      <trkpt lat="47.51019" lon="6.76941">
        <ele>375</ele>
        <time>2015-01-25T08:21:19.000Z</time>
      </trkpt>
      <trkpt lat="47.51015" lon="6.76938">
        <ele>375</ele>
        <time>2015-01-25T08:21:20.000Z</time>
      </trkpt>
      <trkpt lat="47.51011" lon="6.76935">
        <ele>375</ele>
        <time>2015-01-25T08:21:21.000Z</time>
      </trkpt>
      <trkpt lat="47.51006" lon="6.76932">
        <ele>375</ele>
        <time>2015-01-25T08:21:22.000Z</time>
      </trkpt>
      <trkpt lat="47.51003" lon="6.76927">
        <ele>376</ele>
        <time>2015-01-25T08:21:23.000Z</time>
      </trkpt>
      <trkpt lat="47.51" lon="6.76922">
        <ele>375</ele>
        <time>2015-01-25T08:21:24.000Z</time>
      </trkpt>
      <trkpt lat="47.50998" lon="6.76918">
        <ele>376</ele>
        <time>2015-01-25T08:21:25.000Z</time>
      </trkpt>
      <trkpt lat="47.50998" lon="6.76914">
        <ele>376</ele>
        <time>2015-01-25T08:21:26.000Z</time>
      </trkpt>
      <trkpt lat="47.50999" lon="6.7691">
        <ele>376</ele>
        <time>2015-01-25T08:21:27.000Z</time>
      </trkpt>
      <trkpt lat="47.50998" lon="6.76907">
        <ele>376</ele>
        <time>2015-01-25T08:21:28.000Z</time>
      </trkpt>
      <trkpt lat="47.50995" lon="6.76904">
        <ele>377</ele>
        <time>2015-01-25T08:21:29.000Z</time>
      </trkpt>
      <trkpt lat="47.50992" lon="6.76903">
        <ele>377</ele>
        <time>2015-01-25T08:21:30.000Z</time>
      </trkpt>
      <trkpt lat="47.50989" lon="6.76902">
        <ele>377</ele>
        <time>2015-01-25T08:21:31.000Z</time>
      </trkpt>
      <trkpt lat="47.50985" lon="6.76901">
        <ele>377</ele>
        <time>2015-01-25T08:21:32.000Z</time>
      </trkpt>
      <trkpt lat="47.50981" lon="6.769">
        <ele>377</ele>
        <time>2015-01-25T08:21:33.000Z</time>
      </trkpt>
      <trkpt lat="47.50977" lon="6.769">
        <ele>377</ele>
        <time>2015-01-25T08:21:34.000Z</time>
      </trkpt>
      <trkpt lat="47.50973" lon="6.76899">
        <ele>377</ele>
        <time>2015-01-25T08:21:35.000Z</time>
      </trkpt>
      <trkpt lat="47.50969" lon="6.76898">
        <ele>377</ele>
        <time>2015-01-25T08:21:36.000Z</time>
      </trkpt>
      <trkpt lat="47.50966" lon="6.76896">
        <ele>377</ele>
        <time>2015-01-25T08:21:37.000Z</time>
      </trkpt>
      <trkpt lat="47.50962" lon="6.76893">
        <ele>377</ele>
        <time>2015-01-25T08:21:38.000Z</time>
      </trkpt>
      <trkpt lat="47.50959" lon="6.7689">
        <ele>377</ele>
        <time>2015-01-25T08:21:39.000Z</time>
      </trkpt>
      <trkpt lat="47.50956" lon="6.76887">
        <ele>377</ele>
        <time>2015-01-25T08:21:40.000Z</time>
      </trkpt>
      <trkpt lat="47.50954" lon="6.76883">
        <ele>378</ele>
        <time>2015-01-25T08:21:41.000Z</time>
      </trkpt>
      <trkpt lat="47.50951" lon="6.7688">
        <ele>378</ele>
        <time>2015-01-25T08:21:42.000Z</time>
      </trkpt>
      <trkpt lat="47.50949" lon="6.76877">
        <ele>378</ele>
        <time>2015-01-25T08:21:43.000Z</time>
      </trkpt>
      <trkpt lat="47.50941" lon="6.76865">
        <ele>378</ele>
        <time>2015-01-25T08:21:46.000Z</time>
      </trkpt>
      <trkpt lat="47.50938" lon="6.76861">
        <ele>378</ele>
        <time>2015-01-25T08:21:47.000Z</time>
      </trkpt>
      <trkpt lat="47.50935" lon="6.76857">
        <ele>378</ele>
        <time>2015-01-25T08:21:48.000Z</time>
      </trkpt>
      <trkpt lat="47.50932" lon="6.76853">
        <ele>378</ele>
        <time>2015-01-25T08:21:49.000Z</time>
      </trkpt>
      <trkpt lat="47.5093" lon="6.76848">
        <ele>379</ele>
        <time>2015-01-25T08:21:50.000Z</time>
      </trkpt>
      <trkpt lat="47.50928" lon="6.76844">
        <ele>379</ele>
        <time>2015-01-25T08:21:51.000Z</time>
      </trkpt>
      <trkpt lat="47.50926" lon="6.76839">
        <ele>379</ele>
        <time>2015-01-25T08:21:52.000Z</time>
      </trkpt>
      <trkpt lat="47.50924" lon="6.76835">
        <ele>379</ele>
        <time>2015-01-25T08:21:53.000Z</time>
      </trkpt>
      <trkpt lat="47.50922" lon="6.7683">
        <ele>379</ele>
        <time>2015-01-25T08:21:54.000Z</time>
      </trkpt>
      <trkpt lat="47.5092" lon="6.76825">
        <ele>379</ele>
        <time>2015-01-25T08:21:55.000Z</time>
      </trkpt>
      <trkpt lat="47.50918" lon="6.76819">
        <ele>379</ele>
        <time>2015-01-25T08:21:56.000Z</time>
      </trkpt>
      <trkpt lat="47.50916" lon="6.76814">
        <ele>381</ele>
        <time>2015-01-25T08:21:57.000Z</time>
      </trkpt>
      <trkpt lat="47.50915" lon="6.7681">
        <ele>381</ele>
        <time>2015-01-25T08:21:58.000Z</time>
      </trkpt>
      <trkpt lat="47.50913" lon="6.76805">
        <ele>381</ele>
        <time>2015-01-25T08:21:59.000Z</time>
      </trkpt>
      <trkpt lat="47.50911" lon="6.76801">
        <ele>381</ele>
        <time>2015-01-25T08:22:00.000Z</time>
      </trkpt>
      <trkpt lat="47.50909" lon="6.76798">
        <ele>381</ele>
        <time>2015-01-25T08:22:01.000Z</time>
      </trkpt>
      <trkpt lat="47.50908" lon="6.76794">
        <ele>381</ele>
        <time>2015-01-25T08:22:02.000Z</time>
      </trkpt>
      <trkpt lat="47.50906" lon="6.7679">
        <ele>381</ele>
        <time>2015-01-25T08:22:03.000Z</time>
      </trkpt>
      <trkpt lat="47.50905" lon="6.76786">
        <ele>381</ele>
        <time>2015-01-25T08:22:04.000Z</time>
      </trkpt>
      <trkpt lat="47.50904" lon="6.76781">
        <ele>381</ele>
        <time>2015-01-25T08:22:05.000Z</time>
      </trkpt>
      <trkpt lat="47.50902" lon="6.76777">
        <ele>381</ele>
        <time>2015-01-25T08:22:06.000Z</time>
      </trkpt>
      <trkpt lat="47.509" lon="6.76772">
        <ele>381</ele>
        <time>2015-01-25T08:22:07.000Z</time>
      </trkpt>
      <trkpt lat="47.50899" lon="6.76767">
        <ele>380</ele>
        <time>2015-01-25T08:22:08.000Z</time>
      </trkpt>
      <trkpt lat="47.50897" lon="6.76762">
        <ele>380</ele>
        <time>2015-01-25T08:22:09.000Z</time>
      </trkpt>
      <trkpt lat="47.50896" lon="6.76757">
        <ele>380</ele>
        <time>2015-01-25T08:22:10.000Z</time>
      </trkpt>
      <trkpt lat="47.50894" lon="6.76752">
        <ele>380</ele>
        <time>2015-01-25T08:22:11.000Z</time>
      </trkpt>
      <trkpt lat="47.50893" lon="6.76747">
        <ele>381</ele>
        <time>2015-01-25T08:22:12.000Z</time>
      </trkpt>
      <trkpt lat="47.50891" lon="6.76742">
        <ele>382</ele>
        <time>2015-01-25T08:22:13.000Z</time>
      </trkpt>
      <trkpt lat="47.5089" lon="6.76737">
        <ele>382</ele>
        <time>2015-01-25T08:22:14.000Z</time>
      </trkpt>
      <trkpt lat="47.50889" lon="6.76733">
        <ele>382</ele>
        <time>2015-01-25T08:22:15.000Z</time>
      </trkpt>
      <trkpt lat="47.50888" lon="6.76728">
        <ele>382</ele>
        <time>2015-01-25T08:22:16.000Z</time>
      </trkpt>
      <trkpt lat="47.50886" lon="6.76723">
        <ele>382</ele>
        <time>2015-01-25T08:22:17.000Z</time>
      </trkpt>
      <trkpt lat="47.50885" lon="6.76719">
        <ele>383</ele>
        <time>2015-01-25T08:22:18.000Z</time>
      </trkpt>
      <trkpt lat="47.50883" lon="6.76714">
        <ele>383</ele>
        <time>2015-01-25T08:22:19.000Z</time>
      </trkpt>
      <trkpt lat="47.50882" lon="6.7671">
        <ele>383</ele>
        <time>2015-01-25T08:22:20.000Z</time>
      </trkpt>
      <trkpt lat="47.5088" lon="6.76705">
        <ele>383</ele>
        <time>2015-01-25T08:22:21.000Z</time>
      </trkpt>
      <trkpt lat="47.50878" lon="6.76701">
        <ele>383</ele>
        <time>2015-01-25T08:22:22.000Z</time>
      </trkpt>
      <trkpt lat="47.50877" lon="6.76696">
        <ele>383</ele>
        <time>2015-01-25T08:22:23.000Z</time>
      </trkpt>
      <trkpt lat="47.50875" lon="6.76692">
        <ele>383</ele>
        <time>2015-01-25T08:22:24.000Z</time>
      </trkpt>
      <trkpt lat="47.50873" lon="6.76688">
        <ele>384</ele>
        <time>2015-01-25T08:22:25.000Z</time>
      </trkpt>
      <trkpt lat="47.50871" lon="6.76684">
        <ele>384</ele>
        <time>2015-01-25T08:22:26.000Z</time>
      </trkpt>
      <trkpt lat="47.50869" lon="6.7668">
        <ele>384</ele>
        <time>2015-01-25T08:22:27.000Z</time>
      </trkpt>
      <trkpt lat="47.50868" lon="6.76676">
        <ele>384</ele>
        <time>2015-01-25T08:22:28.000Z</time>
      </trkpt>
      <trkpt lat="47.50866" lon="6.76672">
        <ele>384</ele>
        <time>2015-01-25T08:22:29.000Z</time>
      </trkpt>
      <trkpt lat="47.50864" lon="6.76668">
        <ele>385</ele>
        <time>2015-01-25T08:22:30.000Z</time>
      </trkpt>
      <trkpt lat="47.50862" lon="6.76664">
        <ele>386</ele>
        <time>2015-01-25T08:22:31.000Z</time>
      </trkpt>
      <trkpt lat="47.50861" lon="6.7666">
        <ele>386</ele>
        <time>2015-01-25T08:22:32.000Z</time>
      </trkpt>
      <trkpt lat="47.50859" lon="6.76656">
        <ele>387</ele>
        <time>2015-01-25T08:22:33.000Z</time>
      </trkpt>
      <trkpt lat="47.50857" lon="6.76652">
        <ele>387</ele>
        <time>2015-01-25T08:22:34.000Z</time>
      </trkpt>
      <trkpt lat="47.50856" lon="6.76648">
        <ele>387</ele>
        <time>2015-01-25T08:22:35.000Z</time>
      </trkpt>
      <trkpt lat="47.50854" lon="6.76644">
        <ele>387</ele>
        <time>2015-01-25T08:22:36.000Z</time>
      </trkpt>
      <trkpt lat="47.50853" lon="6.76641">
        <ele>387</ele>
        <time>2015-01-25T08:22:37.000Z</time>
      </trkpt>
      <trkpt lat="47.50851" lon="6.76637">
        <ele>387</ele>
        <time>2015-01-25T08:22:38.000Z</time>
      </trkpt>
      <trkpt lat="47.50849" lon="6.76634">
        <ele>387</ele>
        <time>2015-01-25T08:22:39.000Z</time>
      </trkpt>
      <trkpt lat="47.50848" lon="6.7663">
        <ele>387</ele>
        <time>2015-01-25T08:22:40.000Z</time>
      </trkpt>
      <trkpt lat="47.50846" lon="6.76627">
        <ele>387</ele>
        <time>2015-01-25T08:22:41.000Z</time>
      </trkpt>
      <trkpt lat="47.50844" lon="6.76623">
        <ele>387</ele>
        <time>2015-01-25T08:22:42.000Z</time>
      </trkpt>
      <trkpt lat="47.50843" lon="6.7662">
        <ele>387</ele>
        <time>2015-01-25T08:22:43.000Z</time>
      </trkpt>
      <trkpt lat="47.50842" lon="6.76616">
        <ele>387</ele>
        <time>2015-01-25T08:22:44.000Z</time>
      </trkpt>
      <trkpt lat="47.50832" lon="6.7659">
        <ele>389</ele>
        <time>2015-01-25T08:22:52.000Z</time>
      </trkpt>
      <trkpt lat="47.50827" lon="6.76591">
        <ele>390</ele>
        <time>2015-01-25T08:22:54.000Z</time>
      </trkpt>
      <trkpt lat="47.50825" lon="6.76593">
        <ele>390</ele>
        <time>2015-01-25T08:22:55.000Z</time>
      </trkpt>
      <trkpt lat="47.50822" lon="6.76594">
        <ele>390</ele>
        <time>2015-01-25T08:22:56.000Z</time>
      </trkpt>
      <trkpt lat="47.5082" lon="6.76593">
        <ele>390</ele>
        <time>2015-01-25T08:22:57.000Z</time>
      </trkpt>
      <trkpt lat="47.50817" lon="6.76589">
        <ele>390</ele>
        <time>2015-01-25T08:22:59.000Z</time>
      </trkpt>
      <trkpt lat="47.50815" lon="6.76586">
        <ele>390</ele>
        <time>2015-01-25T08:23:00.000Z</time>
      </trkpt>
      <trkpt lat="47.50813" lon="6.76585">
        <ele>390</ele>
        <time>2015-01-25T08:23:01.000Z</time>
      </trkpt>
      <trkpt lat="47.5081" lon="6.76585">
        <ele>390</ele>
        <time>2015-01-25T08:23:02.000Z</time>
      </trkpt>
      <trkpt lat="47.50808" lon="6.76585">
        <ele>390</ele>
        <time>2015-01-25T08:23:03.000Z</time>
      </trkpt>
      <trkpt lat="47.50805" lon="6.76588">
        <ele>390</ele>
        <time>2015-01-25T08:23:04.000Z</time>
      </trkpt>
      <trkpt lat="47.50802" lon="6.76589">
        <ele>391</ele>
        <time>2015-01-25T08:23:05.000Z</time>
      </trkpt>
      <trkpt lat="47.508" lon="6.7659">
        <ele>391</ele>
        <time>2015-01-25T08:23:06.000Z</time>
      </trkpt>
      <trkpt lat="47.50796" lon="6.76591">
        <ele>391</ele>
        <time>2015-01-25T08:23:08.000Z</time>
      </trkpt>
      <trkpt lat="47.50794" lon="6.76592">
        <ele>391</ele>
        <time>2015-01-25T08:23:09.000Z</time>
      </trkpt>
      <trkpt lat="47.50792" lon="6.76593">
        <ele>391</ele>
        <time>2015-01-25T08:23:10.000Z</time>
      </trkpt>
      <trkpt lat="47.50789" lon="6.76593">
        <ele>391</ele>
        <time>2015-01-25T08:23:11.000Z</time>
      </trkpt>
      <trkpt lat="47.50785" lon="6.76594">
        <ele>391</ele>
        <time>2015-01-25T08:23:12.000Z</time>
      </trkpt>
      <trkpt lat="47.50782" lon="6.76595">
        <ele>391</ele>
        <time>2015-01-25T08:23:13.000Z</time>
      </trkpt>
      <trkpt lat="47.50779" lon="6.76596">
        <ele>392</ele>
        <time>2015-01-25T08:23:14.000Z</time>
      </trkpt>
      <trkpt lat="47.50776" lon="6.76597">
        <ele>392</ele>
        <time>2015-01-25T08:23:15.000Z</time>
      </trkpt>
      <trkpt lat="47.50773" lon="6.76596">
        <ele>392</ele>
        <time>2015-01-25T08:23:16.000Z</time>
      </trkpt>
      <trkpt lat="47.5077" lon="6.76596">
        <ele>392</ele>
        <time>2015-01-25T08:23:17.000Z</time>
      </trkpt>
      <trkpt lat="47.50767" lon="6.76596">
        <ele>392</ele>
        <time>2015-01-25T08:23:18.000Z</time>
      </trkpt>
      <trkpt lat="47.50764" lon="6.76596">
        <ele>392</ele>
        <time>2015-01-25T08:23:19.000Z</time>
      </trkpt>
      <trkpt lat="47.50761" lon="6.76596">
        <ele>392</ele>
        <time>2015-01-25T08:23:20.000Z</time>
      </trkpt>
      <trkpt lat="47.50758" lon="6.76596">
        <ele>392</ele>
        <time>2015-01-25T08:23:21.000Z</time>
      </trkpt>
      <trkpt lat="47.50755" lon="6.76597">
        <ele>393</ele>
        <time>2015-01-25T08:23:22.000Z</time>
      </trkpt>
      <trkpt lat="47.50752" lon="6.76597">
        <ele>393</ele>
        <time>2015-01-25T08:23:23.000Z</time>
      </trkpt>
      <trkpt lat="47.50749" lon="6.76597">
        <ele>394</ele>
        <time>2015-01-25T08:23:24.000Z</time>
      </trkpt>
      <trkpt lat="47.50746" lon="6.76596">
        <ele>394</ele>
        <time>2015-01-25T08:23:25.000Z</time>
      </trkpt>
      <trkpt lat="47.50743" lon="6.76596">
        <ele>394</ele>
        <time>2015-01-25T08:23:26.000Z</time>
      </trkpt>
      <trkpt lat="47.5074" lon="6.76595">
        <ele>394</ele>
        <time>2015-01-25T08:23:27.000Z</time>
      </trkpt>
      <trkpt lat="47.50737" lon="6.76595">
        <ele>394</ele>
        <time>2015-01-25T08:23:28.000Z</time>
      </trkpt>
      <trkpt lat="47.50734" lon="6.76594">
        <ele>394</ele>
        <time>2015-01-25T08:23:29.000Z</time>
      </trkpt>
      <trkpt lat="47.50731" lon="6.76594">
        <ele>394</ele>
        <time>2015-01-25T08:23:30.000Z</time>
      </trkpt>
      <trkpt lat="47.50728" lon="6.76593">
        <ele>394</ele>
        <time>2015-01-25T08:23:31.000Z</time>
      </trkpt>
      <trkpt lat="47.50725" lon="6.76592">
        <ele>394</ele>
        <time>2015-01-25T08:23:32.000Z</time>
      </trkpt>
      <trkpt lat="47.50722" lon="6.76592">
        <ele>394</ele>
        <time>2015-01-25T08:23:33.000Z</time>
      </trkpt>
      <trkpt lat="47.50719" lon="6.76591">
        <ele>394</ele>
        <time>2015-01-25T08:23:34.000Z</time>
      </trkpt>
      <trkpt lat="47.50716" lon="6.76591">
        <ele>394</ele>
        <time>2015-01-25T08:23:35.000Z</time>
      </trkpt>
      <trkpt lat="47.50713" lon="6.76591">
        <ele>395</ele>
        <time>2015-01-25T08:23:36.000Z</time>
      </trkpt>
      <trkpt lat="47.5071" lon="6.7659">
        <ele>395</ele>
        <time>2015-01-25T08:23:37.000Z</time>
      </trkpt>
      <trkpt lat="47.50707" lon="6.7659">
        <ele>395</ele>
        <time>2015-01-25T08:23:38.000Z</time>
      </trkpt>
      <trkpt lat="47.50704" lon="6.7659">
        <ele>395</ele>
        <time>2015-01-25T08:23:39.000Z</time>
      </trkpt>
      <trkpt lat="47.50701" lon="6.7659">
        <ele>395</ele>
        <time>2015-01-25T08:23:40.000Z</time>
      </trkpt>
      <trkpt lat="47.50698" lon="6.7659">
        <ele>395</ele>
        <time>2015-01-25T08:23:41.000Z</time>
      </trkpt>
      <trkpt lat="47.50695" lon="6.7659">
        <ele>395</ele>
        <time>2015-01-25T08:23:42.000Z</time>
      </trkpt>
      <trkpt lat="47.50693" lon="6.76591">
        <ele>395</ele>
        <time>2015-01-25T08:23:43.000Z</time>
      </trkpt>
      <trkpt lat="47.50684" lon="6.76591">
        <ele>396</ele>
        <time>2015-01-25T08:23:46.000Z</time>
      </trkpt>
      <trkpt lat="47.50682" lon="6.76591">
        <ele>396</ele>
        <time>2015-01-25T08:23:47.000Z</time>
      </trkpt>
      <trkpt lat="47.50679" lon="6.76591">
        <ele>396</ele>
        <time>2015-01-25T08:23:48.000Z</time>
      </trkpt>
      <trkpt lat="47.50676" lon="6.76592">
        <ele>396</ele>
        <time>2015-01-25T08:23:49.000Z</time>
      </trkpt>
      <trkpt lat="47.50673" lon="6.76593">
        <ele>396</ele>
        <time>2015-01-25T08:23:50.000Z</time>
      </trkpt>
      <trkpt lat="47.50671" lon="6.76593">
        <ele>396</ele>
        <time>2015-01-25T08:23:50.999Z</time>
      </trkpt>
      <trkpt lat="47.50668" lon="6.76595">
        <ele>396</ele>
        <time>2015-01-25T08:23:52.000Z</time>
      </trkpt>
      <trkpt lat="47.50665" lon="6.76596">
        <ele>397</ele>
        <time>2015-01-25T08:23:53.000Z</time>
      </trkpt>
      <trkpt lat="47.50663" lon="6.76596">
        <ele>397</ele>
        <time>2015-01-25T08:23:54.000Z</time>
      </trkpt>
      <trkpt lat="47.50661" lon="6.76597">
        <ele>397</ele>
        <time>2015-01-25T08:23:55.000Z</time>
      </trkpt>
      <trkpt lat="47.50658" lon="6.76597">
        <ele>397</ele>
        <time>2015-01-25T08:23:56.000Z</time>
      </trkpt>
      <trkpt lat="47.50656" lon="6.76598">
        <ele>397</ele>
        <time>2015-01-25T08:23:57.000Z</time>
      </trkpt>
      <trkpt lat="47.50653" lon="6.76599">
        <ele>397</ele>
        <time>2015-01-25T08:23:58.000Z</time>
      </trkpt>
      <trkpt lat="47.50651" lon="6.766">
        <ele>397</ele>
        <time>2015-01-25T08:23:59.000Z</time>
      </trkpt>
      <trkpt lat="47.50648" lon="6.76601">
        <ele>397</ele>
        <time>2015-01-25T08:24:00.000Z</time>
      </trkpt>
      <trkpt lat="47.50644" lon="6.76603">
        <ele>397</ele>
        <time>2015-01-25T08:24:01.999Z</time>
      </trkpt>
      <trkpt lat="47.50643" lon="6.76602">
        <ele>397</ele>
        <time>2015-01-25T08:24:03.000Z</time>
      </trkpt>
      <trkpt lat="47.5064" lon="6.76602">
        <ele>397</ele>
        <time>2015-01-25T08:24:05.000Z</time>
      </trkpt>
      <trkpt lat="47.50638" lon="6.76604">
        <ele>397</ele>
        <time>2015-01-25T08:24:06.000Z</time>
      </trkpt>
      <trkpt lat="47.50636" lon="6.76605">
        <ele>397</ele>
        <time>2015-01-25T08:24:07.001Z</time>
      </trkpt>
      <trkpt lat="47.50634" lon="6.76607">
        <ele>397</ele>
        <time>2015-01-25T08:24:08.000Z</time>
      </trkpt>
      <trkpt lat="47.50632" lon="6.76609">
        <ele>397</ele>
        <time>2015-01-25T08:24:09.000Z</time>
      </trkpt>
      <trkpt lat="47.5063" lon="6.7661">
        <ele>397</ele>
        <time>2015-01-25T08:24:10.000Z</time>
      </trkpt>
      <trkpt lat="47.50628" lon="6.76612">
        <ele>397</ele>
        <time>2015-01-25T08:24:11.000Z</time>
      </trkpt>
      <trkpt lat="47.50625" lon="6.76613">
        <ele>397</ele>
        <time>2015-01-25T08:24:12.001Z</time>
      </trkpt>
      <trkpt lat="47.50623" lon="6.76616">
        <ele>397</ele>
        <time>2015-01-25T08:24:13.000Z</time>
      </trkpt>
      <trkpt lat="47.5062" lon="6.76618">
        <ele>397</ele>
        <time>2015-01-25T08:24:14.000Z</time>
      </trkpt>
      <trkpt lat="47.50618" lon="6.7662">
        <ele>397</ele>
        <time>2015-01-25T08:24:15.000Z</time>
      </trkpt>
      <trkpt lat="47.50615" lon="6.76622">
        <ele>397</ele>
        <time>2015-01-25T08:24:16.000Z</time>
      </trkpt>
      <trkpt lat="47.50612" lon="6.76623">
        <ele>397</ele>
        <time>2015-01-25T08:24:17.000Z</time>
      </trkpt>
      <trkpt lat="47.5061" lon="6.76625">
        <ele>397</ele>
        <time>2015-01-25T08:24:18.000Z</time>
      </trkpt>
      <trkpt lat="47.50607" lon="6.76626">
        <ele>398</ele>
        <time>2015-01-25T08:24:19.000Z</time>
      </trkpt>
      <trkpt lat="47.50605" lon="6.76627">
        <ele>398</ele>
        <time>2015-01-25T08:24:20.000Z</time>
      </trkpt>
      <trkpt lat="47.50602" lon="6.76628">
        <ele>398</ele>
        <time>2015-01-25T08:24:21.000Z</time>
      </trkpt>
      <trkpt lat="47.50599" lon="6.76628">
        <ele>398</ele>
        <time>2015-01-25T08:24:22.000Z</time>
      </trkpt>
      <trkpt lat="47.50597" lon="6.76629">
        <ele>398</ele>
        <time>2015-01-25T08:24:23.000Z</time>
      </trkpt>
      <trkpt lat="47.50594" lon="6.7663">
        <ele>398</ele>
        <time>2015-01-25T08:24:24.000Z</time>
      </trkpt>
      <trkpt lat="47.50592" lon="6.7663">
        <ele>398</ele>
        <time>2015-01-25T08:24:25.000Z</time>
      </trkpt>
      <trkpt lat="47.5059" lon="6.7663">
        <ele>398</ele>
        <time>2015-01-25T08:24:26.000Z</time>
      </trkpt>
      <trkpt lat="47.50587" lon="6.7663">
        <ele>398</ele>
        <time>2015-01-25T08:24:27.000Z</time>
      </trkpt>
      <trkpt lat="47.50585" lon="6.76631">
        <ele>398</ele>
        <time>2015-01-25T08:24:28.000Z</time>
      </trkpt>
      <trkpt lat="47.50582" lon="6.76631">
        <ele>399</ele>
        <time>2015-01-25T08:24:29.000Z</time>
      </trkpt>
      <trkpt lat="47.5058" lon="6.76631">
        <ele>399</ele>
        <time>2015-01-25T08:24:30.000Z</time>
      </trkpt>
      <trkpt lat="47.50578" lon="6.76632">
        <ele>399</ele>
        <time>2015-01-25T08:24:31.000Z</time>
      </trkpt>
      <trkpt lat="47.50576" lon="6.76633">
        <ele>399</ele>
        <time>2015-01-25T08:24:32.000Z</time>
      </trkpt>
      <trkpt lat="47.50571" lon="6.76634">
        <ele>399</ele>
        <time>2015-01-25T08:24:34.000Z</time>
      </trkpt>
      <trkpt lat="47.50569" lon="6.76635">
        <ele>399</ele>
        <time>2015-01-25T08:24:35.000Z</time>
      </trkpt>
      <trkpt lat="47.50567" lon="6.76636">
        <ele>399</ele>
        <time>2015-01-25T08:24:36.000Z</time>
      </trkpt>
      <trkpt lat="47.50565" lon="6.76636">
        <ele>399</ele>
        <time>2015-01-25T08:24:37.000Z</time>
      </trkpt>
      <trkpt lat="47.50562" lon="6.76637">
        <ele>399</ele>
        <time>2015-01-25T08:24:38.000Z</time>
      </trkpt>
      <trkpt lat="47.5056" lon="6.76637">
        <ele>399</ele>
        <time>2015-01-25T08:24:39.000Z</time>
      </trkpt>
      <trkpt lat="47.50557" lon="6.76638">
        <ele>399</ele>
        <time>2015-01-25T08:24:40.000Z</time>
      </trkpt>
      <trkpt lat="47.50554" lon="6.76638">
        <ele>399</ele>
        <time>2015-01-25T08:24:41.000Z</time>
      </trkpt>
      <trkpt lat="47.50551" lon="6.76638">
        <ele>399</ele>
        <time>2015-01-25T08:24:42.000Z</time>
      </trkpt>
      <trkpt lat="47.50548" lon="6.76639">
        <ele>399</ele>
        <time>2015-01-25T08:24:43.000Z</time>
      </trkpt>
      <trkpt lat="47.5052" lon="6.76645">
        <ele>399</ele>
        <time>2015-01-25T08:24:52.000Z</time>
      </trkpt>
      <trkpt lat="47.50517" lon="6.76645">
        <ele>399</ele>
        <time>2015-01-25T08:24:53.000Z</time>
      </trkpt>
      <trkpt lat="47.50514" lon="6.76646">
        <ele>399</ele>
        <time>2015-01-25T08:24:54.000Z</time>
      </trkpt>
      <trkpt lat="47.5051" lon="6.76648">
        <ele>399</ele>
        <time>2015-01-25T08:24:55.000Z</time>
      </trkpt>
      <trkpt lat="47.50507" lon="6.76649">
        <ele>399</ele>
        <time>2015-01-25T08:24:56.000Z</time>
      </trkpt>
      <trkpt lat="47.50503" lon="6.76651">
        <ele>399</ele>
        <time>2015-01-25T08:24:57.000Z</time>
      </trkpt>
      <trkpt lat="47.505" lon="6.76652">
        <ele>399</ele>
        <time>2015-01-25T08:24:58.000Z</time>
      </trkpt>
      <trkpt lat="47.50496" lon="6.76653">
        <ele>399</ele>
        <time>2015-01-25T08:24:59.000Z</time>
      </trkpt>
      <trkpt lat="47.50493" lon="6.76655">
        <ele>399</ele>
        <time>2015-01-25T08:25:00.000Z</time>
      </trkpt>
      <trkpt lat="47.50489" lon="6.76656">
        <ele>399</ele>
        <time>2015-01-25T08:25:01.000Z</time>
      </trkpt>
      <trkpt lat="47.50486" lon="6.76658">
        <ele>399</ele>
        <time>2015-01-25T08:25:02.000Z</time>
      </trkpt>
      <trkpt lat="47.50482" lon="6.76659">
        <ele>399</ele>
        <time>2015-01-25T08:25:02.999Z</time>
      </trkpt>
      <trkpt lat="47.50478" lon="6.76661">
        <ele>399</ele>
        <time>2015-01-25T08:25:04.000Z</time>
      </trkpt>
      <trkpt lat="47.50475" lon="6.76662">
        <ele>398</ele>
        <time>2015-01-25T08:25:05.000Z</time>
      </trkpt>
      <trkpt lat="47.50471" lon="6.76664">
        <ele>398</ele>
        <time>2015-01-25T08:25:06.000Z</time>
      </trkpt>
      <trkpt lat="47.50468" lon="6.76665">
        <ele>398</ele>
        <time>2015-01-25T08:25:07.000Z</time>
      </trkpt>
      <trkpt lat="47.50464" lon="6.76666">
        <ele>398</ele>
        <time>2015-01-25T08:25:08.000Z</time>
      </trkpt>
      <trkpt lat="47.50461" lon="6.76668">
        <ele>397</ele>
        <time>2015-01-25T08:25:09.000Z</time>
      </trkpt>
      <trkpt lat="47.50458" lon="6.7667">
        <ele>397</ele>
        <time>2015-01-25T08:25:10.000Z</time>
      </trkpt>
      <trkpt lat="47.50454" lon="6.76671">
        <ele>397</ele>
        <time>2015-01-25T08:25:11.000Z</time>
      </trkpt>
      <trkpt lat="47.50451" lon="6.76673">
        <ele>397</ele>
        <time>2015-01-25T08:25:12.000Z</time>
      </trkpt>
      <trkpt lat="47.50448" lon="6.76674">
        <ele>397</ele>
        <time>2015-01-25T08:25:13.000Z</time>
      </trkpt>
      <trkpt lat="47.50444" lon="6.76676">
        <ele>397</ele>
        <time>2015-01-25T08:25:14.000Z</time>
      </trkpt>
      <trkpt lat="47.50441" lon="6.76677">
        <ele>397</ele>
        <time>2015-01-25T08:25:15.000Z</time>
      </trkpt>
      <trkpt lat="47.50438" lon="6.76678">
        <ele>397</ele>
        <time>2015-01-25T08:25:16.000Z</time>
      </trkpt>
      <trkpt lat="47.50435" lon="6.76679">
        <ele>397</ele>
        <time>2015-01-25T08:25:17.000Z</time>
      </trkpt>
      <trkpt lat="47.50432" lon="6.7668">
        <ele>397</ele>
        <time>2015-01-25T08:25:18.000Z</time>
      </trkpt>
      <trkpt lat="47.50429" lon="6.76682">
        <ele>397</ele>
        <time>2015-01-25T08:25:19.000Z</time>
      </trkpt>
      <trkpt lat="47.50426" lon="6.76683">
        <ele>397</ele>
        <time>2015-01-25T08:25:20.000Z</time>
      </trkpt>
      <trkpt lat="47.50423" lon="6.76684">
        <ele>397</ele>
        <time>2015-01-25T08:25:21.000Z</time>
      </trkpt>
      <trkpt lat="47.5042" lon="6.76686">
        <ele>397</ele>
        <time>2015-01-25T08:25:22.000Z</time>
      </trkpt>
      <trkpt lat="47.50417" lon="6.76687">
        <ele>397</ele>
        <time>2015-01-25T08:25:23.000Z</time>
      </trkpt>
      <trkpt lat="47.50414" lon="6.76688">
        <ele>397</ele>
        <time>2015-01-25T08:25:24.000Z</time>
      </trkpt>
      <trkpt lat="47.50412" lon="6.7669">
        <ele>397</ele>
        <time>2015-01-25T08:25:25.000Z</time>
      </trkpt>
      <trkpt lat="47.50409" lon="6.76692">
        <ele>397</ele>
        <time>2015-01-25T08:25:26.000Z</time>
      </trkpt>
      <trkpt lat="47.50407" lon="6.76693">
        <ele>397</ele>
        <time>2015-01-25T08:25:27.000Z</time>
      </trkpt>
      <trkpt lat="47.50405" lon="6.76694">
        <ele>397</ele>
        <time>2015-01-25T08:25:28.000Z</time>
      </trkpt>
      <trkpt lat="47.50401" lon="6.76695">
        <ele>397</ele>
        <time>2015-01-25T08:25:30.000Z</time>
      </trkpt>
      <trkpt lat="47.50398" lon="6.76695">
        <ele>397</ele>
        <time>2015-01-25T08:25:31.000Z</time>
      </trkpt>
      <trkpt lat="47.50395" lon="6.76697">
        <ele>397</ele>
        <time>2015-01-25T08:25:33.000Z</time>
      </trkpt>
      <trkpt lat="47.50392" lon="6.76698">
        <ele>397</ele>
        <time>2015-01-25T08:25:34.000Z</time>
      </trkpt>
      <trkpt lat="47.5039" lon="6.76699">
        <ele>397</ele>
        <time>2015-01-25T08:25:35.000Z</time>
      </trkpt>
      <trkpt lat="47.50388" lon="6.767">
        <ele>397</ele>
        <time>2015-01-25T08:25:36.000Z</time>
      </trkpt>
      <trkpt lat="47.50385" lon="6.76701">
        <ele>397</ele>
        <time>2015-01-25T08:25:37.000Z</time>
      </trkpt>
      <trkpt lat="47.50383" lon="6.76702">
        <ele>397</ele>
        <time>2015-01-25T08:25:38.000Z</time>
      </trkpt>
      <trkpt lat="47.5038" lon="6.76703">
        <ele>397</ele>
        <time>2015-01-25T08:25:39.000Z</time>
      </trkpt>
      <trkpt lat="47.50378" lon="6.76704">
        <ele>397</ele>
        <time>2015-01-25T08:25:40.000Z</time>
      </trkpt>
      <trkpt lat="47.50375" lon="6.76705">
        <ele>397</ele>
        <time>2015-01-25T08:25:41.000Z</time>
      </trkpt>
      <trkpt lat="47.50372" lon="6.76706">
        <ele>397</ele>
        <time>2015-01-25T08:25:42.000Z</time>
      </trkpt>
      <trkpt lat="47.50369" lon="6.76707">
        <ele>397</ele>
        <time>2015-01-25T08:25:43.000Z</time>
      </trkpt>
      <trkpt lat="47.50367" lon="6.76707">
        <ele>397</ele>
        <time>2015-01-25T08:25:44.000Z</time>
      </trkpt>
      <trkpt lat="47.50358" lon="6.7671">
        <ele>398</ele>
        <time>2015-01-25T08:25:47.000Z</time>
      </trkpt>
      <trkpt lat="47.50355" lon="6.76711">
        <ele>398</ele>
        <time>2015-01-25T08:25:48.000Z</time>
      </trkpt>
      <trkpt lat="47.50352" lon="6.76712">
        <ele>398</ele>
        <time>2015-01-25T08:25:49.000Z</time>
      </trkpt>
      <trkpt lat="47.50349" lon="6.76713">
        <ele>398</ele>
        <time>2015-01-25T08:25:50.000Z</time>
      </trkpt>
      <trkpt lat="47.50346" lon="6.76715">
        <ele>398</ele>
        <time>2015-01-25T08:25:51.000Z</time>
      </trkpt>
      <trkpt lat="47.50343" lon="6.76717">
        <ele>398</ele>
        <time>2015-01-25T08:25:52.000Z</time>
      </trkpt>
      <trkpt lat="47.5034" lon="6.76718">
        <ele>398</ele>
        <time>2015-01-25T08:25:53.000Z</time>
      </trkpt>
      <trkpt lat="47.50337" lon="6.7672">
        <ele>398</ele>
        <time>2015-01-25T08:25:54.000Z</time>
      </trkpt>
      <trkpt lat="47.50333" lon="6.76722">
        <ele>398</ele>
        <time>2015-01-25T08:25:55.000Z</time>
      </trkpt>
      <trkpt lat="47.5033" lon="6.76724">
        <ele>398</ele>
        <time>2015-01-25T08:25:56.000Z</time>
      </trkpt>
      <trkpt lat="47.50327" lon="6.76726">
        <ele>398</ele>
        <time>2015-01-25T08:25:57.036Z</time>
      </trkpt>
      <trkpt lat="47.50324" lon="6.76726">
        <ele>398</ele>
        <time>2015-01-25T08:25:58.000Z</time>
      </trkpt>
      <trkpt lat="47.50321" lon="6.76727">
        <ele>398</ele>
        <time>2015-01-25T08:25:59.000Z</time>
      </trkpt>
      <trkpt lat="47.50318" lon="6.76728">
        <ele>398</ele>
        <time>2015-01-25T08:26:00.000Z</time>
      </trkpt>
      <trkpt lat="47.50315" lon="6.76729">
        <ele>398</ele>
        <time>2015-01-25T08:26:01.000Z</time>
      </trkpt>
      <trkpt lat="47.50312" lon="6.76731">
        <ele>398</ele>
        <time>2015-01-25T08:26:01.999Z</time>
      </trkpt>
      <trkpt lat="47.50309" lon="6.76732">
        <ele>398</ele>
        <time>2015-01-25T08:26:03.000Z</time>
      </trkpt>
      <trkpt lat="47.50306" lon="6.76733">
        <ele>398</ele>
        <time>2015-01-25T08:26:03.999Z</time>
      </trkpt>
      <trkpt lat="47.50303" lon="6.76733">
        <ele>398</ele>
        <time>2015-01-25T08:26:05.000Z</time>
      </trkpt>
      <trkpt lat="47.503" lon="6.76734">
        <ele>399</ele>
        <time>2015-01-25T08:26:06.039Z</time>
      </trkpt>
      <trkpt lat="47.50297" lon="6.76735">
        <ele>399</ele>
        <time>2015-01-25T08:26:07.000Z</time>
      </trkpt>
      <trkpt lat="47.50294" lon="6.76736">
        <ele>399</ele>
        <time>2015-01-25T08:26:08.000Z</time>
      </trkpt>
      <trkpt lat="47.50291" lon="6.76737">
        <ele>399</ele>
        <time>2015-01-25T08:26:09.034Z</time>
      </trkpt>
      <trkpt lat="47.50289" lon="6.76737">
        <ele>399</ele>
        <time>2015-01-25T08:26:10.000Z</time>
      </trkpt>
      <trkpt lat="47.50286" lon="6.76737">
        <ele>399</ele>
        <time>2015-01-25T08:26:11.034Z</time>
      </trkpt>
      <trkpt lat="47.50283" lon="6.76736">
        <ele>399</ele>
        <time>2015-01-25T08:26:12.000Z</time>
      </trkpt>
      <trkpt lat="47.5028" lon="6.76736">
        <ele>399</ele>
        <time>2015-01-25T08:26:13.000Z</time>
      </trkpt>
      <trkpt lat="47.50277" lon="6.76736">
        <ele>399</ele>
        <time>2015-01-25T08:26:14.000Z</time>
      </trkpt>
      <trkpt lat="47.50274" lon="6.76736">
        <ele>399</ele>
        <time>2015-01-25T08:26:15.000Z</time>
      </trkpt>
      <trkpt lat="47.50271" lon="6.76737">
        <ele>399</ele>
        <time>2015-01-25T08:26:16.000Z</time>
      </trkpt>
      <trkpt lat="47.50268" lon="6.76738">
        <ele>399</ele>
        <time>2015-01-25T08:26:17.000Z</time>
      </trkpt>
      <trkpt lat="47.50266" lon="6.76739">
        <ele>399</ele>
        <time>2015-01-25T08:26:17.999Z</time>
      </trkpt>
      <trkpt lat="47.50263" lon="6.7674">
        <ele>399</ele>
        <time>2015-01-25T08:26:19.000Z</time>
      </trkpt>
      <trkpt lat="47.5026" lon="6.76741">
        <ele>399</ele>
        <time>2015-01-25T08:26:19.999Z</time>
      </trkpt>
      <trkpt lat="47.50257" lon="6.76742">
        <ele>399</ele>
        <time>2015-01-25T08:26:21.000Z</time>
      </trkpt>
      <trkpt lat="47.50255" lon="6.76742">
        <ele>400</ele>
        <time>2015-01-25T08:26:22.000Z</time>
      </trkpt>
      <trkpt lat="47.50252" lon="6.76742">
        <ele>400</ele>
        <time>2015-01-25T08:26:23.000Z</time>
      </trkpt>
      <trkpt lat="47.5025" lon="6.76742">
        <ele>401</ele>
        <time>2015-01-25T08:26:24.000Z</time>
      </trkpt>
      <trkpt lat="47.50247" lon="6.76742">
        <ele>401</ele>
        <time>2015-01-25T08:26:25.033Z</time>
      </trkpt>
      <trkpt lat="47.50244" lon="6.76739">
        <ele>401</ele>
        <time>2015-01-25T08:26:27.034Z</time>
      </trkpt>
      <trkpt lat="47.50243" lon="6.76735">
        <ele>401</ele>
        <time>2015-01-25T08:26:28.000Z</time>
      </trkpt>
      <trkpt lat="47.50241" lon="6.7673">
        <ele>401</ele>
        <time>2015-01-25T08:26:30.000Z</time>
      </trkpt>
      <trkpt lat="47.50239" lon="6.76727">
        <ele>401</ele>
        <time>2015-01-25T08:26:31.000Z</time>
      </trkpt>
      <trkpt lat="47.50238" lon="6.76724">
        <ele>401</ele>
        <time>2015-01-25T08:26:32.000Z</time>
      </trkpt>
      <trkpt lat="47.50236" lon="6.76722">
        <ele>401</ele>
        <time>2015-01-25T08:26:33.000Z</time>
      </trkpt>
      <trkpt lat="47.50235" lon="6.76718">
        <ele>401</ele>
        <time>2015-01-25T08:26:34.000Z</time>
      </trkpt>
      <trkpt lat="47.50234" lon="6.76715">
        <ele>402</ele>
        <time>2015-01-25T08:26:35.000Z</time>
      </trkpt>
      <trkpt lat="47.50233" lon="6.76712">
        <ele>402</ele>
        <time>2015-01-25T08:26:36.000Z</time>
      </trkpt>
      <trkpt lat="47.50231" lon="6.76709">
        <ele>402</ele>
        <time>2015-01-25T08:26:37.000Z</time>
      </trkpt>
      <trkpt lat="47.5023" lon="6.76706">
        <ele>402</ele>
        <time>2015-01-25T08:26:38.000Z</time>
      </trkpt>
      <trkpt lat="47.50229" lon="6.76702">
        <ele>402</ele>
        <time>2015-01-25T08:26:39.000Z</time>
      </trkpt>
      <trkpt lat="47.50228" lon="6.76698">
        <ele>402</ele>
        <time>2015-01-25T08:26:40.000Z</time>
      </trkpt>
      <trkpt lat="47.50226" lon="6.76695">
        <ele>402</ele>
        <time>2015-01-25T08:26:41.000Z</time>
      </trkpt>
      <trkpt lat="47.50225" lon="6.76691">
        <ele>401</ele>
        <time>2015-01-25T08:26:42.000Z</time>
      </trkpt>
      <trkpt lat="47.50224" lon="6.76687">
        <ele>401</ele>
        <time>2015-01-25T08:26:43.000Z</time>
      </trkpt>
      <trkpt lat="47.50222" lon="6.76676">
        <ele>401</ele>
        <time>2015-01-25T08:26:46.000Z</time>
      </trkpt>
      <trkpt lat="47.50221" lon="6.76672">
        <ele>401</ele>
        <time>2015-01-25T08:26:47.000Z</time>
      </trkpt>
      <trkpt lat="47.50219" lon="6.76668">
        <ele>401</ele>
        <time>2015-01-25T08:26:48.000Z</time>
      </trkpt>
      <trkpt lat="47.50218" lon="6.76664">
        <ele>401</ele>
        <time>2015-01-25T08:26:49.000Z</time>
      </trkpt>
      <trkpt lat="47.50216" lon="6.7666">
        <ele>401</ele>
        <time>2015-01-25T08:26:50.000Z</time>
      </trkpt>
      <trkpt lat="47.50214" lon="6.76656">
        <ele>402</ele>
        <time>2015-01-25T08:26:51.000Z</time>
      </trkpt>
      <trkpt lat="47.50213" lon="6.76652">
        <ele>402</ele>
        <time>2015-01-25T08:26:52.000Z</time>
      </trkpt>
      <trkpt lat="47.50212" lon="6.76648">
        <ele>402</ele>
        <time>2015-01-25T08:26:53.000Z</time>
      </trkpt>
      <trkpt lat="47.50211" lon="6.76644">
        <ele>402</ele>
        <time>2015-01-25T08:26:54.000Z</time>
      </trkpt>
      <trkpt lat="47.5021" lon="6.7664">
        <ele>402</ele>
        <time>2015-01-25T08:26:55.000Z</time>
      </trkpt>
      <trkpt lat="47.50209" lon="6.76636">
        <ele>402</ele>
        <time>2015-01-25T08:26:56.000Z</time>
      </trkpt>
      <trkpt lat="47.50209" lon="6.76632">
        <ele>402</ele>
        <time>2015-01-25T08:26:57.000Z</time>
      </trkpt>
      <trkpt lat="47.50208" lon="6.76627">
        <ele>402</ele>
        <time>2015-01-25T08:26:58.000Z</time>
      </trkpt>
      <trkpt lat="47.50207" lon="6.76623">
        <ele>402</ele>
        <time>2015-01-25T08:26:59.000Z</time>
      </trkpt>
      <trkpt lat="47.50205" lon="6.76619">
        <ele>402</ele>
        <time>2015-01-25T08:27:00.000Z</time>
      </trkpt>
      <trkpt lat="47.50204" lon="6.76614">
        <ele>402</ele>
        <time>2015-01-25T08:27:01.000Z</time>
      </trkpt>
      <trkpt lat="47.50202" lon="6.7661">
        <ele>402</ele>
        <time>2015-01-25T08:27:02.000Z</time>
      </trkpt>
      <trkpt lat="47.50201" lon="6.76605">
        <ele>403</ele>
        <time>2015-01-25T08:27:03.000Z</time>
      </trkpt>
      <trkpt lat="47.50201" lon="6.76601">
        <ele>403</ele>
        <time>2015-01-25T08:27:04.000Z</time>
      </trkpt>
      <trkpt lat="47.502" lon="6.76595">
        <ele>403</ele>
        <time>2015-01-25T08:27:06.000Z</time>
      </trkpt>
      <trkpt lat="47.502" lon="6.76593">
        <ele>403</ele>
        <time>2015-01-25T08:27:07.000Z</time>
      </trkpt>
      <trkpt lat="47.50199" lon="6.76587">
        <ele>403</ele>
        <time>2015-01-25T08:27:10.000Z</time>
      </trkpt>
      <trkpt lat="47.50199" lon="6.76585">
        <ele>403</ele>
        <time>2015-01-25T08:27:11.000Z</time>
      </trkpt>
      <trkpt lat="47.50198" lon="6.7658">
        <ele>402</ele>
        <time>2015-01-25T08:27:13.000Z</time>
      </trkpt>
      <trkpt lat="47.502" lon="6.76578">
        <ele>402</ele>
        <time>2015-01-25T08:27:14.000Z</time>
      </trkpt>
      <trkpt lat="47.50202" lon="6.76576">
        <ele>402</ele>
        <time>2015-01-25T08:27:15.000Z</time>
      </trkpt>
      <trkpt lat="47.50205" lon="6.76575">
        <ele>402</ele>
        <time>2015-01-25T08:27:16.000Z</time>
      </trkpt>
      <trkpt lat="47.50208" lon="6.76575">
        <ele>401</ele>
        <time>2015-01-25T08:27:17.000Z</time>
      </trkpt>
      <trkpt lat="47.50211" lon="6.76575">
        <ele>401</ele>
        <time>2015-01-25T08:27:18.000Z</time>
      </trkpt>
      <trkpt lat="47.50214" lon="6.76575">
        <ele>401</ele>
        <time>2015-01-25T08:27:19.000Z</time>
      </trkpt>
      <trkpt lat="47.50216" lon="6.76575">
        <ele>401</ele>
        <time>2015-01-25T08:27:20.000Z</time>
      </trkpt>
      <trkpt lat="47.50221" lon="6.76576">
        <ele>400</ele>
        <time>2015-01-25T08:27:22.000Z</time>
      </trkpt>
      <trkpt lat="47.50223" lon="6.76575">
        <ele>400</ele>
        <time>2015-01-25T08:27:23.000Z</time>
      </trkpt>
      <trkpt lat="47.50225" lon="6.76573">
        <ele>400</ele>
        <time>2015-01-25T08:27:24.000Z</time>
      </trkpt>
      <trkpt lat="47.50227" lon="6.76571">
        <ele>400</ele>
        <time>2015-01-25T08:27:25.000Z</time>
      </trkpt>
      <trkpt lat="47.50229" lon="6.76567">
        <ele>400</ele>
        <time>2015-01-25T08:27:26.000Z</time>
      </trkpt>
      <trkpt lat="47.50229" lon="6.76562">
        <ele>400</ele>
        <time>2015-01-25T08:27:27.000Z</time>
      </trkpt>
      <trkpt lat="47.50228" lon="6.76556">
        <ele>400</ele>
        <time>2015-01-25T08:27:28.000Z</time>
      </trkpt>
      <trkpt lat="47.50222" lon="6.7654">
        <ele>400</ele>
        <time>2015-01-25T08:27:29.000Z</time>
      </trkpt>
      <trkpt lat="47.50221" lon="6.76533">
        <ele>400</ele>
        <time>2015-01-25T08:27:30.000Z</time>
      </trkpt>
      <trkpt lat="47.5022" lon="6.76525">
        <ele>399</ele>
        <time>2015-01-25T08:27:31.000Z</time>
      </trkpt>
      <trkpt lat="47.50219" lon="6.76519">
        <ele>399</ele>
        <time>2015-01-25T08:27:32.000Z</time>
      </trkpt>
      <trkpt lat="47.50219" lon="6.76515">
        <ele>399</ele>
        <time>2015-01-25T08:27:33.000Z</time>
      </trkpt>
      <trkpt lat="47.50219" lon="6.76512">
        <ele>399</ele>
        <time>2015-01-25T08:27:34.000Z</time>
      </trkpt>
      <trkpt lat="47.50217" lon="6.76509">
        <ele>399</ele>
        <time>2015-01-25T08:27:35.000Z</time>
      </trkpt>
      <trkpt lat="47.50214" lon="6.76504">
        <ele>399</ele>
        <time>2015-01-25T08:27:36.000Z</time>
      </trkpt>
      <trkpt lat="47.50212" lon="6.76499">
        <ele>396</ele>
        <time>2015-01-25T08:27:37.000Z</time>
      </trkpt>
      <trkpt lat="47.50211" lon="6.76493">
        <ele>396</ele>
        <time>2015-01-25T08:27:38.000Z</time>
      </trkpt>
      <trkpt lat="47.50209" lon="6.76486">
        <ele>396</ele>
        <time>2015-01-25T08:27:39.000Z</time>
      </trkpt>
      <trkpt lat="47.50207" lon="6.76478">
        <ele>396</ele>
        <time>2015-01-25T08:27:40.000Z</time>
      </trkpt>
      <trkpt lat="47.50206" lon="6.76471">
        <ele>396</ele>
        <time>2015-01-25T08:27:41.000Z</time>
      </trkpt>
      <trkpt lat="47.50203" lon="6.76462">
        <ele>396</ele>
        <time>2015-01-25T08:27:42.000Z</time>
      </trkpt>
      <trkpt lat="47.502" lon="6.76454">
        <ele>396</ele>
        <time>2015-01-25T08:27:43.000Z</time>
      </trkpt>
      <trkpt lat="47.50199" lon="6.76446">
        <ele>396</ele>
        <time>2015-01-25T08:27:44.000Z</time>
      </trkpt>
      <trkpt lat="47.5019" lon="6.76398">
        <ele>392</ele>
        <time>2015-01-25T08:27:52.000Z</time>
      </trkpt>
      <trkpt lat="47.50186" lon="6.76388">
        <ele>391</ele>
        <time>2015-01-25T08:27:53.000Z</time>
      </trkpt>
      <trkpt lat="47.50184" lon="6.7638">
        <ele>391</ele>
        <time>2015-01-25T08:27:54.000Z</time>
      </trkpt>
      <trkpt lat="47.50182" lon="6.76373">
        <ele>391</ele>
        <time>2015-01-25T08:27:55.000Z</time>
      </trkpt>
      <trkpt lat="47.50181" lon="6.76367">
        <ele>390</ele>
        <time>2015-01-25T08:27:56.000Z</time>
      </trkpt>
      <trkpt lat="47.50179" lon="6.76361">
        <ele>390</ele>
        <time>2015-01-25T08:27:57.000Z</time>
      </trkpt>
      <trkpt lat="47.50177" lon="6.76354">
        <ele>390</ele>
        <time>2015-01-25T08:27:58.000Z</time>
      </trkpt>
      <trkpt lat="47.50174" lon="6.76348">
        <ele>390</ele>
        <time>2015-01-25T08:27:59.000Z</time>
      </trkpt>
      <trkpt lat="47.50171" lon="6.76343">
        <ele>390</ele>
        <time>2015-01-25T08:28:00.000Z</time>
      </trkpt>
      <trkpt lat="47.50169" lon="6.76336">
        <ele>391</ele>
        <time>2015-01-25T08:28:01.000Z</time>
      </trkpt>
      <trkpt lat="47.50167" lon="6.7633">
        <ele>390</ele>
        <time>2015-01-25T08:28:02.000Z</time>
      </trkpt>
      <trkpt lat="47.50166" lon="6.76324">
        <ele>393</ele>
        <time>2015-01-25T08:28:03.000Z</time>
      </trkpt>
      <trkpt lat="47.50165" lon="6.76318">
        <ele>394</ele>
        <time>2015-01-25T08:28:04.000Z</time>
      </trkpt>
      <trkpt lat="47.50163" lon="6.76311">
        <ele>394</ele>
        <time>2015-01-25T08:28:05.000Z</time>
      </trkpt>
      <trkpt lat="47.50161" lon="6.76304">
        <ele>394</ele>
        <time>2015-01-25T08:28:06.000Z</time>
      </trkpt>
      <trkpt lat="47.5016" lon="6.76296">
        <ele>394</ele>
        <time>2015-01-25T08:28:07.000Z</time>
      </trkpt>
      <trkpt lat="47.50158" lon="6.76289">
        <ele>394</ele>
        <time>2015-01-25T08:28:08.000Z</time>
      </trkpt>
      <trkpt lat="47.50157" lon="6.76283">
        <ele>394</ele>
        <time>2015-01-25T08:28:09.000Z</time>
      </trkpt>
      <trkpt lat="47.50156" lon="6.76277">
        <ele>393</ele>
        <time>2015-01-25T08:28:10.000Z</time>
      </trkpt>
      <trkpt lat="47.50157" lon="6.7627">
        <ele>392</ele>
        <time>2015-01-25T08:28:11.000Z</time>
      </trkpt>
      <trkpt lat="47.50156" lon="6.76264">
        <ele>392</ele>
        <time>2015-01-25T08:28:12.000Z</time>
      </trkpt>
      <trkpt lat="47.50157" lon="6.76259">
        <ele>391</ele>
        <time>2015-01-25T08:28:13.000Z</time>
      </trkpt>
      <trkpt lat="47.50155" lon="6.76251">
        <ele>390</ele>
        <time>2015-01-25T08:28:14.000Z</time>
      </trkpt>
      <trkpt lat="47.50154" lon="6.76244">
        <ele>388</ele>
        <time>2015-01-25T08:28:15.000Z</time>
      </trkpt>
      <trkpt lat="47.50151" lon="6.76238">
        <ele>389</ele>
        <time>2015-01-25T08:28:16.000Z</time>
      </trkpt>
      <trkpt lat="47.5015" lon="6.76227">
        <ele>389</ele>
        <time>2015-01-25T08:28:17.000Z</time>
      </trkpt>
      <trkpt lat="47.50148" lon="6.76219">
        <ele>389</ele>
        <time>2015-01-25T08:28:18.000Z</time>
      </trkpt>
      <trkpt lat="47.50146" lon="6.7621">
        <ele>389</ele>
        <time>2015-01-25T08:28:19.000Z</time>
      </trkpt>
      <trkpt lat="47.50144" lon="6.762">
        <ele>388</ele>
        <time>2015-01-25T08:28:20.000Z</time>
      </trkpt>
      <trkpt lat="47.50143" lon="6.76191">
        <ele>387</ele>
        <time>2015-01-25T08:28:21.000Z</time>
      </trkpt>
      <trkpt lat="47.50143" lon="6.76184">
        <ele>387</ele>
        <time>2015-01-25T08:28:22.000Z</time>
      </trkpt>
      <trkpt lat="47.50142" lon="6.76177">
        <ele>386</ele>
        <time>2015-01-25T08:28:23.000Z</time>
      </trkpt>
      <trkpt lat="47.50141" lon="6.76172">
        <ele>386</ele>
        <time>2015-01-25T08:28:24.000Z</time>
      </trkpt>
      <trkpt lat="47.50141" lon="6.76165">
        <ele>382</ele>
        <time>2015-01-25T08:28:25.000Z</time>
      </trkpt>
      <trkpt lat="47.50135" lon="6.76156">
        <ele>383</ele>
        <time>2015-01-25T08:28:26.000Z</time>
      </trkpt>
      <trkpt lat="47.50134" lon="6.76148">
        <ele>383</ele>
        <time>2015-01-25T08:28:27.000Z</time>
      </trkpt>
      <trkpt lat="47.50133" lon="6.76143">
        <ele>384</ele>
        <time>2015-01-25T08:28:28.000Z</time>
      </trkpt>
      <trkpt lat="47.50132" lon="6.76136">
        <ele>384</ele>
        <time>2015-01-25T08:28:29.000Z</time>
      </trkpt>
      <trkpt lat="47.50131" lon="6.76128">
        <ele>383</ele>
        <time>2015-01-25T08:28:30.000Z</time>
      </trkpt>
      <trkpt lat="47.50131" lon="6.76122">
        <ele>383</ele>
        <time>2015-01-25T08:28:31.000Z</time>
      </trkpt>
      <trkpt lat="47.5013" lon="6.76114">
        <ele>383</ele>
        <time>2015-01-25T08:28:32.000Z</time>
      </trkpt>
      <trkpt lat="47.5013" lon="6.76106">
        <ele>383</ele>
        <time>2015-01-25T08:28:33.000Z</time>
      </trkpt>
      <trkpt lat="47.50128" lon="6.76099">
        <ele>383</ele>
        <time>2015-01-25T08:28:34.000Z</time>
      </trkpt>
      <trkpt lat="47.50128" lon="6.7609">
        <ele>383</ele>
        <time>2015-01-25T08:28:35.000Z</time>
      </trkpt>
      <trkpt lat="47.50125" lon="6.76075">
        <ele>380</ele>
        <time>2015-01-25T08:28:36.000Z</time>
      </trkpt>
      <trkpt lat="47.50121" lon="6.76063">
        <ele>380</ele>
        <time>2015-01-25T08:28:37.000Z</time>
      </trkpt>
      <trkpt lat="47.50121" lon="6.76051">
        <ele>379</ele>
        <time>2015-01-25T08:28:38.000Z</time>
      </trkpt>
      <trkpt lat="47.50119" lon="6.7604">
        <ele>379</ele>
        <time>2015-01-25T08:28:39.000Z</time>
      </trkpt>
      <trkpt lat="47.50117" lon="6.76029">
        <ele>379</ele>
        <time>2015-01-25T08:28:40.000Z</time>
      </trkpt>
      <trkpt lat="47.50116" lon="6.76018">
        <ele>378</ele>
        <time>2015-01-25T08:28:41.000Z</time>
      </trkpt>
      <trkpt lat="47.50113" lon="6.7601">
        <ele>378</ele>
        <time>2015-01-25T08:28:42.000Z</time>
      </trkpt>
      <trkpt lat="47.50111" lon="6.76001">
        <ele>378</ele>
        <time>2015-01-25T08:28:43.000Z</time>
      </trkpt>
      <trkpt lat="47.50108" lon="6.75993">
        <ele>375</ele>
        <time>2015-01-25T08:28:44.000Z</time>
      </trkpt>
      <trkpt lat="47.50105" lon="6.75986">
        <ele>375</ele>
        <time>2015-01-25T08:28:45.000Z</time>
      </trkpt>
      <trkpt lat="47.501" lon="6.75973">
        <ele>374</ele>
        <time>2015-01-25T08:28:47.000Z</time>
      </trkpt>
      <trkpt lat="47.50099" lon="6.75967">
        <ele>374</ele>
        <time>2015-01-25T08:28:48.000Z</time>
      </trkpt>
      <trkpt lat="47.50095" lon="6.7596">
        <ele>374</ele>
        <time>2015-01-25T08:28:49.000Z</time>
      </trkpt>
      <trkpt lat="47.5009" lon="6.75952">
        <ele>373</ele>
        <time>2015-01-25T08:28:50.000Z</time>
      </trkpt>
      <trkpt lat="47.50087" lon="6.75946">
        <ele>373</ele>
        <time>2015-01-25T08:28:51.000Z</time>
      </trkpt>
      <trkpt lat="47.50084" lon="6.7594">
        <ele>373</ele>
        <time>2015-01-25T08:28:52.000Z</time>
      </trkpt>
      <trkpt lat="47.50082" lon="6.75935">
        <ele>377</ele>
        <time>2015-01-25T08:28:53.000Z</time>
      </trkpt>
      <trkpt lat="47.50079" lon="6.75928">
        <ele>376</ele>
        <time>2015-01-25T08:28:54.000Z</time>
      </trkpt>
      <trkpt lat="47.50073" lon="6.7592">
        <ele>376</ele>
        <time>2015-01-25T08:28:55.000Z</time>
      </trkpt>
      <trkpt lat="47.50069" lon="6.75913">
        <ele>375</ele>
        <time>2015-01-25T08:28:56.000Z</time>
      </trkpt>
      <trkpt lat="47.50066" lon="6.75907">
        <ele>375</ele>
        <time>2015-01-25T08:28:57.000Z</time>
      </trkpt>
      <trkpt lat="47.50061" lon="6.75902">
        <ele>375</ele>
        <time>2015-01-25T08:28:58.000Z</time>
      </trkpt>
      <trkpt lat="47.50059" lon="6.75896">
        <ele>375</ele>
        <time>2015-01-25T08:28:59.000Z</time>
      </trkpt>
      <trkpt lat="47.50056" lon="6.7589">
        <ele>376</ele>
        <time>2015-01-25T08:29:00.000Z</time>
      </trkpt>
      <trkpt lat="47.50055" lon="6.75884">
        <ele>376</ele>
        <time>2015-01-25T08:29:01.000Z</time>
      </trkpt>
      <trkpt lat="47.50052" lon="6.75878">
        <ele>376</ele>
        <time>2015-01-25T08:29:02.000Z</time>
      </trkpt>
      <trkpt lat="47.5005" lon="6.75872">
        <ele>376</ele>
        <time>2015-01-25T08:29:02.999Z</time>
      </trkpt>
      <trkpt lat="47.50048" lon="6.75866">
        <ele>376</ele>
        <time>2015-01-25T08:29:04.000Z</time>
      </trkpt>
      <trkpt lat="47.50045" lon="6.75861">
        <ele>376</ele>
        <time>2015-01-25T08:29:05.000Z</time>
      </trkpt>
      <trkpt lat="47.50042" lon="6.75857">
        <ele>376</ele>
        <time>2015-01-25T08:29:06.000Z</time>
      </trkpt>
      <trkpt lat="47.50038" lon="6.7585">
        <ele>376</ele>
        <time>2015-01-25T08:29:07.000Z</time>
      </trkpt>
      <trkpt lat="47.50033" lon="6.75845">
        <ele>376</ele>
        <time>2015-01-25T08:29:08.000Z</time>
      </trkpt>
      <trkpt lat="47.50029" lon="6.75839">
        <ele>377</ele>
        <time>2015-01-25T08:29:09.000Z</time>
      </trkpt>
      <trkpt lat="47.50025" lon="6.75833">
        <ele>376</ele>
        <time>2015-01-25T08:29:10.000Z</time>
      </trkpt>
      <trkpt lat="47.50023" lon="6.75828">
        <ele>376</ele>
        <time>2015-01-25T08:29:11.000Z</time>
      </trkpt>
      <trkpt lat="47.50021" lon="6.75822">
        <ele>376</ele>
        <time>2015-01-25T08:29:12.000Z</time>
      </trkpt>
      <trkpt lat="47.50018" lon="6.75814">
        <ele>376</ele>
        <time>2015-01-25T08:29:13.000Z</time>
      </trkpt>
      <trkpt lat="47.50014" lon="6.75808">
        <ele>376</ele>
        <time>2015-01-25T08:29:14.000Z</time>
      </trkpt>
      <trkpt lat="47.50009" lon="6.758">
        <ele>376</ele>
        <time>2015-01-25T08:29:15.000Z</time>
      </trkpt>
      <trkpt lat="47.50006" lon="6.75797">
        <ele>376</ele>
        <time>2015-01-25T08:29:16.000Z</time>
      </trkpt>
      <trkpt lat="47.5" lon="6.75788">
        <ele>375</ele>
        <time>2015-01-25T08:29:17.000Z</time>
      </trkpt>
      <trkpt lat="47.49994" lon="6.75778">
        <ele>375</ele>
        <time>2015-01-25T08:29:18.000Z</time>
      </trkpt>
      <trkpt lat="47.49985" lon="6.75767">
        <ele>375</ele>
        <time>2015-01-25T08:29:19.000Z</time>
      </trkpt>
      <trkpt lat="47.49978" lon="6.75759">
        <ele>375</ele>
        <time>2015-01-25T08:29:20.000Z</time>
      </trkpt>
      <trkpt lat="47.49971" lon="6.7575">
        <ele>374</ele>
        <time>2015-01-25T08:29:21.000Z</time>
      </trkpt>
      <trkpt lat="47.49966" lon="6.75744">
        <ele>372</ele>
        <time>2015-01-25T08:29:22.000Z</time>
      </trkpt>
      <trkpt lat="47.49961" lon="6.75736">
        <ele>371</ele>
        <time>2015-01-25T08:29:23.000Z</time>
      </trkpt>
      <trkpt lat="47.49954" lon="6.75729">
        <ele>371</ele>
        <time>2015-01-25T08:29:24.000Z</time>
      </trkpt>
      <trkpt lat="47.49947" lon="6.75721">
        <ele>370</ele>
        <time>2015-01-25T08:29:25.000Z</time>
      </trkpt>
      <trkpt lat="47.49942" lon="6.75714">
        <ele>370</ele>
        <time>2015-01-25T08:29:26.000Z</time>
      </trkpt>
      <trkpt lat="47.49939" lon="6.75711">
        <ele>370</ele>
        <time>2015-01-25T08:29:27.000Z</time>
      </trkpt>
      <trkpt lat="47.49933" lon="6.75709">
        <ele>370</ele>
        <time>2015-01-25T08:29:28.000Z</time>
      </trkpt>
      <trkpt lat="47.49925" lon="6.75709">
        <ele>370</ele>
        <time>2015-01-25T08:29:29.000Z</time>
      </trkpt>
      <trkpt lat="47.49918" lon="6.75708">
        <ele>370</ele>
        <time>2015-01-25T08:29:30.000Z</time>
      </trkpt>
      <trkpt lat="47.49912" lon="6.75707">
        <ele>365</ele>
        <time>2015-01-25T08:29:31.000Z</time>
      </trkpt>
      <trkpt lat="47.49905" lon="6.75708">
        <ele>364</ele>
        <time>2015-01-25T08:29:32.000Z</time>
      </trkpt>
      <trkpt lat="47.49895" lon="6.75706">
        <ele>364</ele>
        <time>2015-01-25T08:29:33.000Z</time>
      </trkpt>
      <trkpt lat="47.49887" lon="6.75705">
        <ele>363</ele>
        <time>2015-01-25T08:29:34.000Z</time>
      </trkpt>
      <trkpt lat="47.49878" lon="6.75702">
        <ele>363</ele>
        <time>2015-01-25T08:29:35.000Z</time>
      </trkpt>
      <trkpt lat="47.4987" lon="6.75703">
        <ele>362</ele>
        <time>2015-01-25T08:29:36.000Z</time>
      </trkpt>
      <trkpt lat="47.49862" lon="6.75705">
        <ele>361</ele>
        <time>2015-01-25T08:29:37.000Z</time>
      </trkpt>
      <trkpt lat="47.49855" lon="6.75707">
        <ele>361</ele>
        <time>2015-01-25T08:29:38.000Z</time>
      </trkpt>
      <trkpt lat="47.49848" lon="6.75708">
        <ele>361</ele>
        <time>2015-01-25T08:29:39.000Z</time>
      </trkpt>
      <trkpt lat="47.49841" lon="6.7571">
        <ele>361</ele>
        <time>2015-01-25T08:29:40.000Z</time>
      </trkpt>
      <trkpt lat="47.49835" lon="6.75712">
        <ele>360</ele>
        <time>2015-01-25T08:29:41.000Z</time>
      </trkpt>
      <trkpt lat="47.49828" lon="6.75717">
        <ele>353</ele>
        <time>2015-01-25T08:29:42.000Z</time>
      </trkpt>
      <trkpt lat="47.49821" lon="6.75719">
        <ele>353</ele>
        <time>2015-01-25T08:29:43.000Z</time>
      </trkpt>
      <trkpt lat="47.49816" lon="6.75721">
        <ele>353</ele>
        <time>2015-01-25T08:29:44.000Z</time>
      </trkpt>
      <trkpt lat="47.4981" lon="6.75724">
        <ele>353</ele>
        <time>2015-01-25T08:29:45.000Z</time>
      </trkpt>
      <trkpt lat="47.49751" lon="6.75739">
        <ele>351</ele>
        <time>2015-01-25T08:29:53.000Z</time>
      </trkpt>
      <trkpt lat="47.49743" lon="6.7574">
        <ele>347</ele>
        <time>2015-01-25T08:29:54.000Z</time>
      </trkpt>
      <trkpt lat="47.49735" lon="6.75744">
        <ele>346</ele>
        <time>2015-01-25T08:29:55.000Z</time>
      </trkpt>
      <trkpt lat="47.49728" lon="6.75747">
        <ele>345</ele>
        <time>2015-01-25T08:29:56.000Z</time>
      </trkpt>
      <trkpt lat="47.49721" lon="6.7575">
        <ele>352</ele>
        <time>2015-01-25T08:29:57.000Z</time>
      </trkpt>
      <trkpt lat="47.49712" lon="6.75751">
        <ele>352</ele>
        <time>2015-01-25T08:29:58.000Z</time>
      </trkpt>
      <trkpt lat="47.49706" lon="6.75753">
        <ele>352</ele>
        <time>2015-01-25T08:29:59.000Z</time>
      </trkpt>
      <trkpt lat="47.49698" lon="6.75755">
        <ele>351</ele>
        <time>2015-01-25T08:30:00.000Z</time>
      </trkpt>
      <trkpt lat="47.49692" lon="6.75757">
        <ele>351</ele>
        <time>2015-01-25T08:30:01.000Z</time>
      </trkpt>
      <trkpt lat="47.49686" lon="6.7576">
        <ele>350</ele>
        <time>2015-01-25T08:30:02.000Z</time>
      </trkpt>
      <trkpt lat="47.49681" lon="6.75759">
        <ele>349</ele>
        <time>2015-01-25T08:30:03.000Z</time>
      </trkpt>
      <trkpt lat="47.49675" lon="6.7576">
        <ele>348</ele>
        <time>2015-01-25T08:30:04.000Z</time>
      </trkpt>
      <trkpt lat="47.49669" lon="6.75761">
        <ele>348</ele>
        <time>2015-01-25T08:30:05.000Z</time>
      </trkpt>
      <trkpt lat="47.49662" lon="6.75761">
        <ele>345</ele>
        <time>2015-01-25T08:30:06.000Z</time>
      </trkpt>
      <trkpt lat="47.49655" lon="6.75754">
        <ele>345</ele>
        <time>2015-01-25T08:30:07.000Z</time>
      </trkpt>
      <trkpt lat="47.49649" lon="6.75752">
        <ele>345</ele>
        <time>2015-01-25T08:30:08.000Z</time>
      </trkpt>
      <trkpt lat="47.49641" lon="6.75749">
        <ele>336</ele>
        <time>2015-01-25T08:30:09.000Z</time>
      </trkpt>
      <trkpt lat="47.49635" lon="6.75748">
        <ele>335</ele>
        <time>2015-01-25T08:30:10.000Z</time>
      </trkpt>
      <trkpt lat="47.49629" lon="6.75746">
        <ele>335</ele>
        <time>2015-01-25T08:30:11.000Z</time>
      </trkpt>
      <trkpt lat="47.49622" lon="6.75747">
        <ele>334</ele>
        <time>2015-01-25T08:30:12.000Z</time>
      </trkpt>
      <trkpt lat="47.49615" lon="6.75747">
        <ele>334</ele>
        <time>2015-01-25T08:30:13.000Z</time>
      </trkpt>
      <trkpt lat="47.4961" lon="6.75744">
        <ele>333</ele>
        <time>2015-01-25T08:30:14.000Z</time>
      </trkpt>
      <trkpt lat="47.49604" lon="6.75745">
        <ele>333</ele>
        <time>2015-01-25T08:30:15.000Z</time>
      </trkpt>
      <trkpt lat="47.49599" lon="6.75745">
        <ele>333</ele>
        <time>2015-01-25T08:30:16.000Z</time>
      </trkpt>
      <trkpt lat="47.49592" lon="6.75747">
        <ele>333</ele>
        <time>2015-01-25T08:30:17.000Z</time>
      </trkpt>
      <trkpt lat="47.49586" lon="6.75746">
        <ele>334</ele>
        <time>2015-01-25T08:30:18.000Z</time>
      </trkpt>
      <trkpt lat="47.4958" lon="6.75744">
        <ele>332</ele>
        <time>2015-01-25T08:30:19.000Z</time>
      </trkpt>
      <trkpt lat="47.49576" lon="6.75743">
        <ele>331</ele>
        <time>2015-01-25T08:30:20.000Z</time>
      </trkpt>
      <trkpt lat="47.49572" lon="6.75738">
        <ele>329</ele>
        <time>2015-01-25T08:30:21.000Z</time>
      </trkpt>
      <trkpt lat="47.49568" lon="6.75735">
        <ele>329</ele>
        <time>2015-01-25T08:30:22.000Z</time>
      </trkpt>
      <trkpt lat="47.49565" lon="6.75731">
        <ele>328</ele>
        <time>2015-01-25T08:30:23.000Z</time>
      </trkpt>
      <trkpt lat="47.49566" lon="6.75726">
        <ele>327</ele>
        <time>2015-01-25T08:30:34.000Z</time>
      </trkpt>
      <trkpt lat="47.49569" lon="6.75724">
        <ele>327</ele>
        <time>2015-01-25T08:30:35.000Z</time>
      </trkpt>
      <trkpt lat="47.49572" lon="6.75723">
        <ele>327</ele>
        <time>2015-01-25T08:30:36.000Z</time>
      </trkpt>
      <trkpt lat="47.49575" lon="6.75721">
        <ele>327</ele>
        <time>2015-01-25T08:30:37.000Z</time>
      </trkpt>
      <trkpt lat="47.49579" lon="6.75719">
        <ele>327</ele>
        <time>2015-01-25T08:30:38.000Z</time>
      </trkpt>
      <trkpt lat="47.49583" lon="6.75716">
        <ele>327</ele>
        <time>2015-01-25T08:30:39.000Z</time>
      </trkpt>
      <trkpt lat="47.49586" lon="6.75713">
        <ele>331</ele>
        <time>2015-01-25T08:30:40.000Z</time>
      </trkpt>
      <trkpt lat="47.49589" lon="6.75709">
        <ele>330</ele>
        <time>2015-01-25T08:30:41.000Z</time>
      </trkpt>
      <trkpt lat="47.49592" lon="6.75704">
        <ele>330</ele>
        <time>2015-01-25T08:30:42.000Z</time>
      </trkpt>
      <trkpt lat="47.49594" lon="6.75699">
        <ele>329</ele>
        <time>2015-01-25T08:30:43.000Z</time>
      </trkpt>
      <trkpt lat="47.49595" lon="6.75692">
        <ele>328</ele>
        <time>2015-01-25T08:30:44.000Z</time>
      </trkpt>
      <trkpt lat="47.49597" lon="6.75675">
        <ele>326</ele>
        <time>2015-01-25T08:30:47.000Z</time>
      </trkpt>
      <trkpt lat="47.49591" lon="6.7567">
        <ele>324</ele>
        <time>2015-01-25T08:30:48.000Z</time>
      </trkpt>
      <trkpt lat="47.49588" lon="6.75664">
        <ele>321</ele>
        <time>2015-01-25T08:30:49.000Z</time>
      </trkpt>
      <trkpt lat="47.49584" lon="6.7566">
        <ele>321</ele>
        <time>2015-01-25T08:30:50.000Z</time>
      </trkpt>
      <trkpt lat="47.49577" lon="6.75659">
        <ele>321</ele>
        <time>2015-01-25T08:30:51.000Z</time>
      </trkpt>
      <trkpt lat="47.49572" lon="6.75662">
        <ele>321</ele>
        <time>2015-01-25T08:30:52.000Z</time>
      </trkpt>
      <trkpt lat="47.49567" lon="6.75666">
        <ele>321</ele>
        <time>2015-01-25T08:30:53.000Z</time>
      </trkpt>
      <trkpt lat="47.49562" lon="6.75672">
        <ele>323</ele>
        <time>2015-01-25T08:30:54.000Z</time>
      </trkpt>
      <trkpt lat="47.49558" lon="6.75678">
        <ele>324</ele>
        <time>2015-01-25T08:30:55.000Z</time>
      </trkpt>
      <trkpt lat="47.49554" lon="6.75683">
        <ele>324</ele>
        <time>2015-01-25T08:30:56.000Z</time>
      </trkpt>
      <trkpt lat="47.4955" lon="6.75689">
        <ele>324</ele>
        <time>2015-01-25T08:30:57.000Z</time>
      </trkpt>
      <trkpt lat="47.49546" lon="6.75695">
        <ele>324</ele>
        <time>2015-01-25T08:30:58.000Z</time>
      </trkpt>
      <trkpt lat="47.49542" lon="6.757">
        <ele>325</ele>
        <time>2015-01-25T08:30:59.000Z</time>
      </trkpt>
      <trkpt lat="47.49537" lon="6.75704">
        <ele>325</ele>
        <time>2015-01-25T08:31:00.000Z</time>
      </trkpt>
      <trkpt lat="47.49534" lon="6.75709">
        <ele>325</ele>
        <time>2015-01-25T08:31:01.000Z</time>
      </trkpt>
      <trkpt lat="47.4953" lon="6.75714">
        <ele>325</ele>
        <time>2015-01-25T08:31:02.000Z</time>
      </trkpt>
      <trkpt lat="47.49526" lon="6.75718">
        <ele>325</ele>
        <time>2015-01-25T08:31:03.000Z</time>
      </trkpt>
      <trkpt lat="47.49522" lon="6.7572">
        <ele>325</ele>
        <time>2015-01-25T08:31:04.000Z</time>
      </trkpt>
      <trkpt lat="47.49519" lon="6.75723">
        <ele>325</ele>
        <time>2015-01-25T08:31:05.000Z</time>
      </trkpt>
      <trkpt lat="47.49516" lon="6.75725">
        <ele>325</ele>
        <time>2015-01-25T08:31:06.000Z</time>
      </trkpt>
      <trkpt lat="47.49513" lon="6.75727">
        <ele>325</ele>
        <time>2015-01-25T08:31:07.000Z</time>
      </trkpt>
      <trkpt lat="47.49509" lon="6.75728">
        <ele>325</ele>
        <time>2015-01-25T08:31:08.000Z</time>
      </trkpt>
      <trkpt lat="47.49505" lon="6.75731">
        <ele>325</ele>
        <time>2015-01-25T08:31:09.000Z</time>
      </trkpt>
      <trkpt lat="47.49501" lon="6.75732">
        <ele>324</ele>
        <time>2015-01-25T08:31:10.000Z</time>
      </trkpt>
      <trkpt lat="47.49497" lon="6.75734">
        <ele>323</ele>
        <time>2015-01-25T08:31:11.000Z</time>
      </trkpt>
      <trkpt lat="47.49493" lon="6.75736">
        <ele>323</ele>
        <time>2015-01-25T08:31:12.000Z</time>
      </trkpt>
      <trkpt lat="47.49488" lon="6.75738">
        <ele>322</ele>
        <time>2015-01-25T08:31:13.000Z</time>
      </trkpt>
      <trkpt lat="47.49484" lon="6.75739">
        <ele>322</ele>
        <time>2015-01-25T08:31:14.000Z</time>
      </trkpt>
      <trkpt lat="47.4948" lon="6.75739">
        <ele>322</ele>
        <time>2015-01-25T08:31:15.000Z</time>
      </trkpt>
      <trkpt lat="47.49477" lon="6.75736">
        <ele>322</ele>
        <time>2015-01-25T08:31:16.000Z</time>
      </trkpt>
      <trkpt lat="47.49474" lon="6.75732">
        <ele>322</ele>
        <time>2015-01-25T08:31:17.000Z</time>
      </trkpt>
      <trkpt lat="47.49472" lon="6.75727">
        <ele>322</ele>
        <time>2015-01-25T08:31:18.000Z</time>
      </trkpt>
      <trkpt lat="47.4947" lon="6.7572">
        <ele>321</ele>
        <time>2015-01-25T08:31:19.000Z</time>
      </trkpt>
      <trkpt lat="47.49469" lon="6.75714">
        <ele>321</ele>
        <time>2015-01-25T08:31:20.000Z</time>
      </trkpt>
      <trkpt lat="47.49468" lon="6.75708">
        <ele>321</ele>
        <time>2015-01-25T08:31:21.000Z</time>
      </trkpt>
      <trkpt lat="47.49466" lon="6.75702">
        <ele>321</ele>
        <time>2015-01-25T08:31:22.000Z</time>
      </trkpt>
      <trkpt lat="47.49464" lon="6.75697">
        <ele>321</ele>
        <time>2015-01-25T08:31:23.000Z</time>
      </trkpt>
      <trkpt lat="47.49462" lon="6.75693">
        <ele>321</ele>
        <time>2015-01-25T08:31:24.000Z</time>
      </trkpt>
      <trkpt lat="47.49458" lon="6.7569">
        <ele>321</ele>
        <time>2015-01-25T08:31:25.000Z</time>
      </trkpt>
      <trkpt lat="47.49455" lon="6.75687">
        <ele>321</ele>
        <time>2015-01-25T08:31:25.999Z</time>
      </trkpt>
      <trkpt lat="47.4945" lon="6.75691">
        <ele>321</ele>
        <time>2015-01-25T08:31:27.000Z</time>
      </trkpt>
      <trkpt lat="47.49446" lon="6.75693">
        <ele>321</ele>
        <time>2015-01-25T08:31:28.000Z</time>
      </trkpt>
      <trkpt lat="47.49443" lon="6.75694">
        <ele>321</ele>
        <time>2015-01-25T08:31:29.000Z</time>
      </trkpt>
      <trkpt lat="47.4944" lon="6.75695">
        <ele>321</ele>
        <time>2015-01-25T08:31:30.000Z</time>
      </trkpt>
      <trkpt lat="47.49437" lon="6.75692">
        <ele>320</ele>
        <time>2015-01-25T08:31:31.000Z</time>
      </trkpt>
      <trkpt lat="47.49435" lon="6.75687">
        <ele>320</ele>
        <time>2015-01-25T08:31:32.000Z</time>
      </trkpt>
      <trkpt lat="47.49433" lon="6.75681">
        <ele>320</ele>
        <time>2015-01-25T08:31:33.000Z</time>
      </trkpt>
      <trkpt lat="47.49432" lon="6.75674">
        <ele>320</ele>
        <time>2015-01-25T08:31:34.000Z</time>
      </trkpt>
      <trkpt lat="47.4943" lon="6.75669">
        <ele>320</ele>
        <time>2015-01-25T08:31:35.000Z</time>
      </trkpt>
      <trkpt lat="47.49428" lon="6.75667">
        <ele>320</ele>
        <time>2015-01-25T08:31:36.000Z</time>
      </trkpt>
      <trkpt lat="47.49425" lon="6.75667">
        <ele>319</ele>
        <time>2015-01-25T08:31:37.000Z</time>
      </trkpt>
      <trkpt lat="47.49422" lon="6.75669">
        <ele>319</ele>
        <time>2015-01-25T08:31:38.000Z</time>
      </trkpt>
      <trkpt lat="47.49418" lon="6.75672">
        <ele>319</ele>
        <time>2015-01-25T08:31:39.000Z</time>
      </trkpt>
      <trkpt lat="47.49413" lon="6.7568">
        <ele>319</ele>
        <time>2015-01-25T08:31:40.000Z</time>
      </trkpt>
      <trkpt lat="47.49408" lon="6.75683">
        <ele>319</ele>
        <time>2015-01-25T08:31:41.000Z</time>
      </trkpt>
      <trkpt lat="47.49403" lon="6.75686">
        <ele>319</ele>
        <time>2015-01-25T08:31:42.000Z</time>
      </trkpt>
      <trkpt lat="47.49398" lon="6.75688">
        <ele>319</ele>
        <time>2015-01-25T08:31:43.000Z</time>
      </trkpt>
      <trkpt lat="47.49394" lon="6.75692">
        <ele>319</ele>
        <time>2015-01-25T08:31:44.000Z</time>
      </trkpt>
      <trkpt lat="47.4937" lon="6.75708">
        <ele>319</ele>
        <time>2015-01-25T08:31:52.000Z</time>
      </trkpt>
      <trkpt lat="47.49366" lon="6.7571">
        <ele>319</ele>
        <time>2015-01-25T08:31:54.000Z</time>
      </trkpt>
      <trkpt lat="47.49363" lon="6.75711">
        <ele>319</ele>
        <time>2015-01-25T08:31:55.000Z</time>
      </trkpt>
      <trkpt lat="47.49359" lon="6.75712">
        <ele>319</ele>
        <time>2015-01-25T08:31:56.000Z</time>
      </trkpt>
      <trkpt lat="47.49354" lon="6.75715">
        <ele>319</ele>
        <time>2015-01-25T08:31:57.000Z</time>
      </trkpt>
      <trkpt lat="47.49349" lon="6.75719">
        <ele>319</ele>
        <time>2015-01-25T08:31:58.000Z</time>
      </trkpt>
      <trkpt lat="47.49344" lon="6.75721">
        <ele>318</ele>
        <time>2015-01-25T08:31:59.000Z</time>
      </trkpt>
      <trkpt lat="47.49338" lon="6.75723">
        <ele>318</ele>
        <time>2015-01-25T08:32:00.000Z</time>
      </trkpt>
      <trkpt lat="47.49332" lon="6.75726">
        <ele>319</ele>
        <time>2015-01-25T08:32:01.000Z</time>
      </trkpt>
      <trkpt lat="47.49328" lon="6.75728">
        <ele>319</ele>
        <time>2015-01-25T08:32:02.000Z</time>
      </trkpt>
      <trkpt lat="47.49322" lon="6.75734">
        <ele>319</ele>
        <time>2015-01-25T08:32:03.000Z</time>
      </trkpt>
      <trkpt lat="47.49317" lon="6.75739">
        <ele>319</ele>
        <time>2015-01-25T08:32:04.000Z</time>
      </trkpt>
      <trkpt lat="47.49313" lon="6.75744">
        <ele>319</ele>
        <time>2015-01-25T08:32:05.000Z</time>
      </trkpt>
      <trkpt lat="47.49308" lon="6.75749">
        <ele>319</ele>
        <time>2015-01-25T08:32:06.000Z</time>
      </trkpt>
      <trkpt lat="47.49303" lon="6.75757">
        <ele>318</ele>
        <time>2015-01-25T08:32:07.000Z</time>
      </trkpt>
      <trkpt lat="47.49299" lon="6.75762">
        <ele>318</ele>
        <time>2015-01-25T08:32:08.000Z</time>
      </trkpt>
      <trkpt lat="47.49295" lon="6.75766">
        <ele>318</ele>
        <time>2015-01-25T08:32:09.000Z</time>
      </trkpt>
      <trkpt lat="47.4929" lon="6.7577">
        <ele>318</ele>
        <time>2015-01-25T08:32:10.000Z</time>
      </trkpt>
      <trkpt lat="47.49286" lon="6.75775">
        <ele>318</ele>
        <time>2015-01-25T08:32:11.000Z</time>
      </trkpt>
      <trkpt lat="47.49282" lon="6.75779">
        <ele>318</ele>
        <time>2015-01-25T08:32:12.000Z</time>
      </trkpt>
      <trkpt lat="47.49278" lon="6.75785">
        <ele>318</ele>
        <time>2015-01-25T08:32:13.000Z</time>
      </trkpt>
      <trkpt lat="47.49273" lon="6.75793">
        <ele>318</ele>
        <time>2015-01-25T08:32:14.000Z</time>
      </trkpt>
      <trkpt lat="47.4927" lon="6.75797">
        <ele>317</ele>
        <time>2015-01-25T08:32:15.000Z</time>
      </trkpt>
      <trkpt lat="47.49266" lon="6.75802">
        <ele>317</ele>
        <time>2015-01-25T08:32:16.000Z</time>
      </trkpt>
      <trkpt lat="47.49262" lon="6.75809">
        <ele>316</ele>
        <time>2015-01-25T08:32:17.000Z</time>
      </trkpt>
      <trkpt lat="47.49257" lon="6.75816">
        <ele>316</ele>
        <time>2015-01-25T08:32:18.000Z</time>
      </trkpt>
      <trkpt lat="47.49253" lon="6.75821">
        <ele>315</ele>
        <time>2015-01-25T08:32:19.000Z</time>
      </trkpt>
      <trkpt lat="47.49249" lon="6.75826">
        <ele>316</ele>
        <time>2015-01-25T08:32:20.000Z</time>
      </trkpt>
      <trkpt lat="47.49245" lon="6.7583">
        <ele>315</ele>
        <time>2015-01-25T08:32:21.000Z</time>
      </trkpt>
      <trkpt lat="47.49242" lon="6.75837">
        <ele>315</ele>
        <time>2015-01-25T08:32:22.000Z</time>
      </trkpt>
      <trkpt lat="47.49237" lon="6.75842">
        <ele>316</ele>
        <time>2015-01-25T08:32:23.000Z</time>
      </trkpt>
      <trkpt lat="47.49235" lon="6.75849">
        <ele>317</ele>
        <time>2015-01-25T08:32:24.000Z</time>
      </trkpt>
      <trkpt lat="47.49231" lon="6.75856">
        <ele>318</ele>
        <time>2015-01-25T08:32:25.000Z</time>
      </trkpt>
      <trkpt lat="47.49228" lon="6.75862">
        <ele>318</ele>
        <time>2015-01-25T08:32:26.000Z</time>
      </trkpt>
      <trkpt lat="47.49224" lon="6.75869">
        <ele>318</ele>
        <time>2015-01-25T08:32:27.000Z</time>
      </trkpt>
      <trkpt lat="47.49221" lon="6.75875">
        <ele>319</ele>
        <time>2015-01-25T08:32:28.000Z</time>
      </trkpt>
      <trkpt lat="47.49217" lon="6.75882">
        <ele>319</ele>
        <time>2015-01-25T08:32:29.000Z</time>
      </trkpt>
      <trkpt lat="47.49214" lon="6.7589">
        <ele>319</ele>
        <time>2015-01-25T08:32:30.000Z</time>
      </trkpt>
      <trkpt lat="47.49211" lon="6.75896">
        <ele>319</ele>
        <time>2015-01-25T08:32:31.000Z</time>
      </trkpt>
      <trkpt lat="47.49209" lon="6.75902">
        <ele>319</ele>
        <time>2015-01-25T08:32:32.000Z</time>
      </trkpt>
      <trkpt lat="47.49205" lon="6.75907">
        <ele>320</ele>
        <time>2015-01-25T08:32:33.000Z</time>
      </trkpt>
      <trkpt lat="47.49202" lon="6.75913">
        <ele>320</ele>
        <time>2015-01-25T08:32:34.000Z</time>
      </trkpt>
      <trkpt lat="47.49199" lon="6.75919">
        <ele>320</ele>
        <time>2015-01-25T08:32:35.000Z</time>
      </trkpt>
      <trkpt lat="47.49196" lon="6.75925">
        <ele>321</ele>
        <time>2015-01-25T08:32:36.000Z</time>
      </trkpt>
      <trkpt lat="47.49193" lon="6.75932">
        <ele>321</ele>
        <time>2015-01-25T08:32:37.000Z</time>
      </trkpt>
      <trkpt lat="47.49189" lon="6.75938">
        <ele>321</ele>
        <time>2015-01-25T08:32:38.000Z</time>
      </trkpt>
      <trkpt lat="47.49186" lon="6.75946">
        <ele>321</ele>
        <time>2015-01-25T08:32:39.000Z</time>
      </trkpt>
      <trkpt lat="47.49183" lon="6.75953">
        <ele>321</ele>
        <time>2015-01-25T08:32:40.000Z</time>
      </trkpt>
      <trkpt lat="47.4918" lon="6.75958">
        <ele>320</ele>
        <time>2015-01-25T08:32:41.000Z</time>
      </trkpt>
      <trkpt lat="47.49177" lon="6.75965">
        <ele>320</ele>
        <time>2015-01-25T08:32:42.000Z</time>
      </trkpt>
      <trkpt lat="47.49175" lon="6.7597">
        <ele>320</ele>
        <time>2015-01-25T08:32:43.000Z</time>
      </trkpt>
      <trkpt lat="47.49171" lon="6.75977">
        <ele>320</ele>
        <time>2015-01-25T08:32:44.000Z</time>
      </trkpt>
      <trkpt lat="47.49168" lon="6.75985">
        <ele>320</ele>
        <time>2015-01-25T08:32:45.000Z</time>
      </trkpt>
      <trkpt lat="47.4916" lon="6.76002">
        <ele>321</ele>
        <time>2015-01-25T08:32:48.000Z</time>
      </trkpt>
      <trkpt lat="47.49156" lon="6.76008">
        <ele>321</ele>
        <time>2015-01-25T08:32:49.000Z</time>
      </trkpt>
      <trkpt lat="47.49154" lon="6.76015">
        <ele>322</ele>
        <time>2015-01-25T08:32:50.000Z</time>
      </trkpt>
      <trkpt lat="47.49151" lon="6.76023">
        <ele>323</ele>
        <time>2015-01-25T08:32:51.000Z</time>
      </trkpt>
      <trkpt lat="47.49148" lon="6.76033">
        <ele>323</ele>
        <time>2015-01-25T08:32:52.000Z</time>
      </trkpt>
      <trkpt lat="47.49146" lon="6.76042">
        <ele>323</ele>
        <time>2015-01-25T08:32:53.000Z</time>
      </trkpt>
      <trkpt lat="47.49142" lon="6.76049">
        <ele>323</ele>
        <time>2015-01-25T08:32:54.000Z</time>
      </trkpt>
      <trkpt lat="47.49141" lon="6.76059">
        <ele>323</ele>
        <time>2015-01-25T08:32:55.000Z</time>
      </trkpt>
      <trkpt lat="47.49139" lon="6.76067">
        <ele>323</ele>
        <time>2015-01-25T08:32:56.000Z</time>
      </trkpt>
      <trkpt lat="47.49136" lon="6.76076">
        <ele>323</ele>
        <time>2015-01-25T08:32:57.000Z</time>
      </trkpt>
      <trkpt lat="47.49133" lon="6.76085">
        <ele>322</ele>
        <time>2015-01-25T08:32:58.000Z</time>
      </trkpt>
      <trkpt lat="47.49132" lon="6.76094">
        <ele>322</ele>
        <time>2015-01-25T08:32:59.000Z</time>
      </trkpt>
      <trkpt lat="47.49131" lon="6.76103">
        <ele>322</ele>
        <time>2015-01-25T08:33:00.000Z</time>
      </trkpt>
      <trkpt lat="47.49129" lon="6.76111">
        <ele>322</ele>
        <time>2015-01-25T08:33:01.000Z</time>
      </trkpt>
      <trkpt lat="47.49128" lon="6.76119">
        <ele>322</ele>
        <time>2015-01-25T08:33:02.000Z</time>
      </trkpt>
      <trkpt lat="47.49126" lon="6.76125">
        <ele>322</ele>
        <time>2015-01-25T08:33:03.000Z</time>
      </trkpt>
      <trkpt lat="47.49124" lon="6.76133">
        <ele>322</ele>
        <time>2015-01-25T08:33:04.000Z</time>
      </trkpt>
      <trkpt lat="47.49122" lon="6.76139">
        <ele>322</ele>
        <time>2015-01-25T08:33:05.000Z</time>
      </trkpt>
      <trkpt lat="47.49121" lon="6.76145">
        <ele>322</ele>
        <time>2015-01-25T08:33:06.000Z</time>
      </trkpt>
      <trkpt lat="47.49118" lon="6.76153">
        <ele>322</ele>
        <time>2015-01-25T08:33:07.000Z</time>
      </trkpt>
      <trkpt lat="47.49117" lon="6.76161">
        <ele>322</ele>
        <time>2015-01-25T08:33:08.000Z</time>
      </trkpt>
      <trkpt lat="47.49116" lon="6.76166">
        <ele>322</ele>
        <time>2015-01-25T08:33:09.000Z</time>
      </trkpt>
      <trkpt lat="47.49115" lon="6.76175">
        <ele>322</ele>
        <time>2015-01-25T08:33:10.000Z</time>
      </trkpt>
      <trkpt lat="47.49115" lon="6.76182">
        <ele>322</ele>
        <time>2015-01-25T08:33:11.000Z</time>
      </trkpt>
      <trkpt lat="47.49114" lon="6.76189">
        <ele>322</ele>
        <time>2015-01-25T08:33:12.000Z</time>
      </trkpt>
      <trkpt lat="47.49114" lon="6.76199">
        <ele>321</ele>
        <time>2015-01-25T08:33:13.000Z</time>
      </trkpt>
      <trkpt lat="47.49111" lon="6.76207">
        <ele>322</ele>
        <time>2015-01-25T08:33:14.000Z</time>
      </trkpt>
      <trkpt lat="47.49111" lon="6.76217">
        <ele>322</ele>
        <time>2015-01-25T08:33:15.000Z</time>
      </trkpt>
      <trkpt lat="47.49111" lon="6.76228">
        <ele>322</ele>
        <time>2015-01-25T08:33:16.000Z</time>
      </trkpt>
      <trkpt lat="47.49111" lon="6.76238">
        <ele>322</ele>
        <time>2015-01-25T08:33:17.000Z</time>
      </trkpt>
      <trkpt lat="47.49111" lon="6.76247">
        <ele>322</ele>
        <time>2015-01-25T08:33:18.000Z</time>
      </trkpt>
      <trkpt lat="47.4911" lon="6.76256">
        <ele>321</ele>
        <time>2015-01-25T08:33:19.000Z</time>
      </trkpt>
      <trkpt lat="47.4911" lon="6.76265">
        <ele>321</ele>
        <time>2015-01-25T08:33:20.000Z</time>
      </trkpt>
      <trkpt lat="47.49108" lon="6.76271">
        <ele>321</ele>
        <time>2015-01-25T08:33:21.000Z</time>
      </trkpt>
      <trkpt lat="47.49108" lon="6.76278">
        <ele>321</ele>
        <time>2015-01-25T08:33:22.000Z</time>
      </trkpt>
      <trkpt lat="47.49108" lon="6.76283">
        <ele>321</ele>
        <time>2015-01-25T08:33:23.000Z</time>
      </trkpt>
      <trkpt lat="47.49107" lon="6.76289">
        <ele>320</ele>
        <time>2015-01-25T08:33:24.000Z</time>
      </trkpt>
      <trkpt lat="47.49106" lon="6.76295">
        <ele>320</ele>
        <time>2015-01-25T08:33:25.000Z</time>
      </trkpt>
      <trkpt lat="47.49106" lon="6.76303">
        <ele>320</ele>
        <time>2015-01-25T08:33:26.000Z</time>
      </trkpt>
      <trkpt lat="47.49105" lon="6.76312">
        <ele>320</ele>
        <time>2015-01-25T08:33:27.000Z</time>
      </trkpt>
      <trkpt lat="47.49104" lon="6.76319">
        <ele>321</ele>
        <time>2015-01-25T08:33:28.000Z</time>
      </trkpt>
      <trkpt lat="47.49105" lon="6.76326">
        <ele>321</ele>
        <time>2015-01-25T08:33:29.000Z</time>
      </trkpt>
      <trkpt lat="47.49105" lon="6.76335">
        <ele>320</ele>
        <time>2015-01-25T08:33:30.000Z</time>
      </trkpt>
      <trkpt lat="47.49106" lon="6.76345">
        <ele>320</ele>
        <time>2015-01-25T08:33:31.000Z</time>
      </trkpt>
      <trkpt lat="47.49105" lon="6.76353">
        <ele>319</ele>
        <time>2015-01-25T08:33:32.000Z</time>
      </trkpt>
      <trkpt lat="47.49105" lon="6.76363">
        <ele>319</ele>
        <time>2015-01-25T08:33:33.000Z</time>
      </trkpt>
      <trkpt lat="47.49106" lon="6.76372">
        <ele>319</ele>
        <time>2015-01-25T08:33:34.000Z</time>
      </trkpt>
      <trkpt lat="47.49106" lon="6.76378">
        <ele>319</ele>
        <time>2015-01-25T08:33:35.000Z</time>
      </trkpt>
      <trkpt lat="47.49105" lon="6.76386">
        <ele>319</ele>
        <time>2015-01-25T08:33:36.000Z</time>
      </trkpt>
      <trkpt lat="47.49107" lon="6.76396">
        <ele>319</ele>
        <time>2015-01-25T08:33:37.000Z</time>
      </trkpt>
      <trkpt lat="47.49107" lon="6.76404">
        <ele>319</ele>
        <time>2015-01-25T08:33:38.000Z</time>
      </trkpt>
      <trkpt lat="47.49108" lon="6.76415">
        <ele>319</ele>
        <time>2015-01-25T08:33:39.000Z</time>
      </trkpt>
      <trkpt lat="47.4911" lon="6.76425">
        <ele>318</ele>
        <time>2015-01-25T08:33:40.000Z</time>
      </trkpt>
      <trkpt lat="47.49109" lon="6.76434">
        <ele>318</ele>
        <time>2015-01-25T08:33:41.000Z</time>
      </trkpt>
      <trkpt lat="47.49107" lon="6.76441">
        <ele>318</ele>
        <time>2015-01-25T08:33:42.000Z</time>
      </trkpt>
      <trkpt lat="47.49107" lon="6.76451">
        <ele>318</ele>
        <time>2015-01-25T08:33:43.000Z</time>
      </trkpt>
      <trkpt lat="47.49106" lon="6.76471">
        <ele>318</ele>
        <time>2015-01-25T08:33:46.000Z</time>
      </trkpt>
      <trkpt lat="47.49105" lon="6.76477">
        <ele>318</ele>
        <time>2015-01-25T08:33:47.000Z</time>
      </trkpt>
      <trkpt lat="47.49106" lon="6.76484">
        <ele>318</ele>
        <time>2015-01-25T08:33:48.000Z</time>
      </trkpt>
      <trkpt lat="47.49107" lon="6.76491">
        <ele>318</ele>
        <time>2015-01-25T08:33:49.000Z</time>
      </trkpt>
      <trkpt lat="47.4911" lon="6.76499">
        <ele>318</ele>
        <time>2015-01-25T08:33:50.000Z</time>
      </trkpt>
      <trkpt lat="47.49114" lon="6.76506">
        <ele>317</ele>
        <time>2015-01-25T08:33:51.000Z</time>
      </trkpt>
      <trkpt lat="47.49118" lon="6.76512">
        <ele>317</ele>
        <time>2015-01-25T08:33:52.000Z</time>
      </trkpt>
      <trkpt lat="47.49123" lon="6.76517">
        <ele>316</ele>
        <time>2015-01-25T08:33:53.000Z</time>
      </trkpt>
      <trkpt lat="47.4913" lon="6.76516">
        <ele>316</ele>
        <time>2015-01-25T08:33:54.000Z</time>
      </trkpt>
      <trkpt lat="47.49135" lon="6.76518">
        <ele>316</ele>
        <time>2015-01-25T08:33:55.000Z</time>
      </trkpt>
      <trkpt lat="47.49141" lon="6.76516">
        <ele>315</ele>
        <time>2015-01-25T08:33:56.000Z</time>
      </trkpt>
      <trkpt lat="47.49145" lon="6.76513">
        <ele>315</ele>
        <time>2015-01-25T08:33:57.000Z</time>
      </trkpt>
      <trkpt lat="47.4915" lon="6.76509">
        <ele>315</ele>
        <time>2015-01-25T08:33:58.000Z</time>
      </trkpt>
      <trkpt lat="47.49154" lon="6.76507">
        <ele>314</ele>
        <time>2015-01-25T08:33:59.000Z</time>
      </trkpt>
      <trkpt lat="47.49158" lon="6.76504">
        <ele>314</ele>
        <time>2015-01-25T08:34:00.000Z</time>
      </trkpt>
      <trkpt lat="47.49162" lon="6.76503">
        <ele>314</ele>
        <time>2015-01-25T08:34:01.000Z</time>
      </trkpt>
      <trkpt lat="47.49165" lon="6.76501">
        <ele>313</ele>
        <time>2015-01-25T08:34:02.000Z</time>
      </trkpt>
      <trkpt lat="47.49167" lon="6.76499">
        <ele>313</ele>
        <time>2015-01-25T08:34:03.000Z</time>
      </trkpt>
      <trkpt lat="47.4917" lon="6.76498">
        <ele>314</ele>
        <time>2015-01-25T08:34:04.000Z</time>
      </trkpt>
      <trkpt lat="47.49172" lon="6.76495">
        <ele>314</ele>
        <time>2015-01-25T08:34:05.000Z</time>
      </trkpt>
      <trkpt lat="47.49175" lon="6.76499">
        <ele>314</ele>
        <time>2015-01-25T08:34:37.000Z</time>
      </trkpt>
      <trkpt lat="47.49175" lon="6.76499">
        <ele>314</ele>
        <time>2015-01-25T08:34:38.000Z</time>
      </trkpt>
      <trkpt lat="47.49171" lon="6.76502">
        <ele>314</ele>
        <time>2015-01-25T08:36:00.000Z</time>
      </trkpt>
      <trkpt lat="47.4917" lon="6.76504">
        <ele>314</ele>
        <time>2015-01-25T08:36:01.000Z</time>
      </trkpt>
      <trkpt lat="47.49168" lon="6.76506">
        <ele>314</ele>
        <time>2015-01-25T08:36:02.000Z</time>
      </trkpt>
      <trkpt lat="47.49166" lon="6.76508">
        <ele>314</ele>
        <time>2015-01-25T08:36:03.000Z</time>
      </trkpt>
      <trkpt lat="47.49164" lon="6.7651">
        <ele>314</ele>
        <time>2015-01-25T08:36:04.000Z</time>
      </trkpt>
      <trkpt lat="47.49161" lon="6.76512">
        <ele>314</ele>
        <time>2015-01-25T08:36:05.000Z</time>
      </trkpt>
      <trkpt lat="47.49157" lon="6.76513">
        <ele>314</ele>
        <time>2015-01-25T08:36:06.000Z</time>
      </trkpt>
      <trkpt lat="47.49153" lon="6.76515">
        <ele>315</ele>
        <time>2015-01-25T08:36:07.000Z</time>
      </trkpt>
      <trkpt lat="47.49149" lon="6.76516">
        <ele>315</ele>
        <time>2015-01-25T08:36:08.000Z</time>
      </trkpt>
      <trkpt lat="47.49144" lon="6.76517">
        <ele>315</ele>
        <time>2015-01-25T08:36:09.000Z</time>
      </trkpt>
      <trkpt lat="47.4914" lon="6.76518">
        <ele>315</ele>
        <time>2015-01-25T08:36:10.000Z</time>
      </trkpt>
      <trkpt lat="47.49136" lon="6.76519">
        <ele>315</ele>
        <time>2015-01-25T08:36:11.000Z</time>
      </trkpt>
      <trkpt lat="47.49132" lon="6.76518">
        <ele>316</ele>
        <time>2015-01-25T08:36:12.000Z</time>
      </trkpt>
      <trkpt lat="47.49128" lon="6.76518">
        <ele>316</ele>
        <time>2015-01-25T08:36:13.000Z</time>
      </trkpt>
      <trkpt lat="47.49125" lon="6.76516">
        <ele>316</ele>
        <time>2015-01-25T08:36:14.000Z</time>
      </trkpt>
      <trkpt lat="47.49121" lon="6.76514">
        <ele>316</ele>
        <time>2015-01-25T08:36:15.000Z</time>
      </trkpt>
      <trkpt lat="47.49119" lon="6.7651">
        <ele>317</ele>
        <time>2015-01-25T08:36:16.000Z</time>
      </trkpt>
      <trkpt lat="47.49118" lon="6.76506">
        <ele>317</ele>
        <time>2015-01-25T08:36:17.000Z</time>
      </trkpt>
      <trkpt lat="47.49118" lon="6.76501">
        <ele>317</ele>
        <time>2015-01-25T08:36:18.000Z</time>
      </trkpt>
      <trkpt lat="47.49118" lon="6.76496">
        <ele>317</ele>
        <time>2015-01-25T08:36:19.000Z</time>
      </trkpt>
      <trkpt lat="47.49119" lon="6.7649">
        <ele>317</ele>
        <time>2015-01-25T08:36:20.000Z</time>
      </trkpt>
      <trkpt lat="47.4912" lon="6.76485">
        <ele>317</ele>
        <time>2015-01-25T08:36:21.000Z</time>
      </trkpt>
      <trkpt lat="47.49122" lon="6.7648">
        <ele>317</ele>
        <time>2015-01-25T08:36:22.000Z</time>
      </trkpt>
      <trkpt lat="47.49123" lon="6.76475">
        <ele>317</ele>
        <time>2015-01-25T08:36:23.000Z</time>
      </trkpt>
      <trkpt lat="47.49123" lon="6.76469">
        <ele>317</ele>
        <time>2015-01-25T08:36:24.000Z</time>
      </trkpt>
      <trkpt lat="47.49124" lon="6.76464">
        <ele>317</ele>
        <time>2015-01-25T08:36:25.000Z</time>
      </trkpt>
      <trkpt lat="47.49124" lon="6.76459">
        <ele>317</ele>
        <time>2015-01-25T08:36:26.000Z</time>
      </trkpt>
      <trkpt lat="47.49125" lon="6.76454">
        <ele>317</ele>
        <time>2015-01-25T08:36:27.000Z</time>
      </trkpt>
      <trkpt lat="47.49125" lon="6.76449">
        <ele>317</ele>
        <time>2015-01-25T08:36:28.000Z</time>
      </trkpt>
      <trkpt lat="47.49125" lon="6.76444">
        <ele>317</ele>
        <time>2015-01-25T08:36:29.000Z</time>
      </trkpt>
      <trkpt lat="47.49125" lon="6.7644">
        <ele>317</ele>
        <time>2015-01-25T08:36:30.000Z</time>
      </trkpt>
      <trkpt lat="47.49126" lon="6.76436">
        <ele>317</ele>
        <time>2015-01-25T08:36:31.000Z</time>
      </trkpt>
      <trkpt lat="47.49126" lon="6.76433">
        <ele>317</ele>
        <time>2015-01-25T08:36:32.000Z</time>
      </trkpt>
      <trkpt lat="47.49126" lon="6.76429">
        <ele>317</ele>
        <time>2015-01-25T08:36:33.000Z</time>
      </trkpt>
      <trkpt lat="47.49126" lon="6.76424">
        <ele>317</ele>
        <time>2015-01-25T08:36:35.000Z</time>
      </trkpt>
      <trkpt lat="47.49126" lon="6.76422">
        <ele>317</ele>
        <time>2015-01-25T08:36:36.000Z</time>
      </trkpt>
      <trkpt lat="47.49123" lon="6.76422">
        <ele>317</ele>
        <time>2015-01-25T08:36:38.000Z</time>
      </trkpt>
      <trkpt lat="47.4912" lon="6.76423">
        <ele>317</ele>
        <time>2015-01-25T08:36:39.000Z</time>
      </trkpt>
      <trkpt lat="47.49116" lon="6.76423">
        <ele>318</ele>
        <time>2015-01-25T08:36:41.000Z</time>
      </trkpt>
      <trkpt lat="47.49114" lon="6.76423">
        <ele>318</ele>
        <time>2015-01-25T08:36:42.000Z</time>
      </trkpt>
      <trkpt lat="47.4911" lon="6.76422">
        <ele>318</ele>
        <time>2015-01-25T08:36:44.000Z</time>
      </trkpt>
      <trkpt lat="47.4911" lon="6.76404">
        <ele>319</ele>
        <time>2015-01-25T08:36:52.000Z</time>
      </trkpt>
      <trkpt lat="47.49111" lon="6.764">
        <ele>318</ele>
        <time>2015-01-25T08:36:54.000Z</time>
      </trkpt>
      <trkpt lat="47.49111" lon="6.76396">
        <ele>318</ele>
        <time>2015-01-25T08:36:55.000Z</time>
      </trkpt>
      <trkpt lat="47.49112" lon="6.76392">
        <ele>318</ele>
        <time>2015-01-25T08:36:56.000Z</time>
      </trkpt>
      <trkpt lat="47.49112" lon="6.76388">
        <ele>318</ele>
        <time>2015-01-25T08:36:57.000Z</time>
      </trkpt>
      <trkpt lat="47.49111" lon="6.76384">
        <ele>318</ele>
        <time>2015-01-25T08:36:58.000Z</time>
      </trkpt>
      <trkpt lat="47.49111" lon="6.7638">
        <ele>318</ele>
        <time>2015-01-25T08:36:59.000Z</time>
      </trkpt>
      <trkpt lat="47.4911" lon="6.76376">
        <ele>318</ele>
        <time>2015-01-25T08:37:00.000Z</time>
      </trkpt>
      <trkpt lat="47.4911" lon="6.76371">
        <ele>319</ele>
        <time>2015-01-25T08:37:01.000Z</time>
      </trkpt>
      <trkpt lat="47.49109" lon="6.76367">
        <ele>319</ele>
        <time>2015-01-25T08:37:02.000Z</time>
      </trkpt>
      <trkpt lat="47.49109" lon="6.76364">
        <ele>319</ele>
        <time>2015-01-25T08:37:03.000Z</time>
      </trkpt>
      <trkpt lat="47.49108" lon="6.76358">
        <ele>319</ele>
        <time>2015-01-25T08:37:05.000Z</time>
      </trkpt>
      <trkpt lat="47.49107" lon="6.76355">
        <ele>319</ele>
        <time>2015-01-25T08:37:06.000Z</time>
      </trkpt>
      <trkpt lat="47.49106" lon="6.76351">
        <ele>319</ele>
        <time>2015-01-25T08:37:07.000Z</time>
      </trkpt>
      <trkpt lat="47.49106" lon="6.76348">
        <ele>319</ele>
        <time>2015-01-25T08:37:08.000Z</time>
      </trkpt>
      <trkpt lat="47.49105" lon="6.76344">
        <ele>320</ele>
        <time>2015-01-25T08:37:09.000Z</time>
      </trkpt>
      <trkpt lat="47.49105" lon="6.76341">
        <ele>320</ele>
        <time>2015-01-25T08:37:10.000Z</time>
      </trkpt>
      <trkpt lat="47.49105" lon="6.76337">
        <ele>320</ele>
        <time>2015-01-25T08:37:11.000Z</time>
      </trkpt>
      <trkpt lat="47.49105" lon="6.76332">
        <ele>321</ele>
        <time>2015-01-25T08:37:12.000Z</time>
      </trkpt>
      <trkpt lat="47.49105" lon="6.76328">
        <ele>321</ele>
        <time>2015-01-25T08:37:13.000Z</time>
      </trkpt>
      <trkpt lat="47.49106" lon="6.76325">
        <ele>321</ele>
        <time>2015-01-25T08:37:14.000Z</time>
      </trkpt>
      <trkpt lat="47.49106" lon="6.76319">
        <ele>321</ele>
        <time>2015-01-25T08:37:16.000Z</time>
      </trkpt>
      <trkpt lat="47.49106" lon="6.76316">
        <ele>321</ele>
        <time>2015-01-25T08:37:17.000Z</time>
      </trkpt>
      <trkpt lat="47.49105" lon="6.7631">
        <ele>320</ele>
        <time>2015-01-25T08:37:19.000Z</time>
      </trkpt>
      <trkpt lat="47.49105" lon="6.76307">
        <ele>320</ele>
        <time>2015-01-25T08:37:20.000Z</time>
      </trkpt>
      <trkpt lat="47.49105" lon="6.76303">
        <ele>320</ele>
        <time>2015-01-25T08:37:21.000Z</time>
      </trkpt>
      <trkpt lat="47.49104" lon="6.76299">
        <ele>321</ele>
        <time>2015-01-25T08:37:22.000Z</time>
      </trkpt>
      <trkpt lat="47.49103" lon="6.76295">
        <ele>321</ele>
        <time>2015-01-25T08:37:23.000Z</time>
      </trkpt>
      <trkpt lat="47.49102" lon="6.7629">
        <ele>321</ele>
        <time>2015-01-25T08:37:24.000Z</time>
      </trkpt>
      <trkpt lat="47.49101" lon="6.76286">
        <ele>321</ele>
        <time>2015-01-25T08:37:25.000Z</time>
      </trkpt>
      <trkpt lat="47.49101" lon="6.76282">
        <ele>321</ele>
        <time>2015-01-25T08:37:26.000Z</time>
      </trkpt>
      <trkpt lat="47.49101" lon="6.76279">
        <ele>321</ele>
        <time>2015-01-25T08:37:27.000Z</time>
      </trkpt>
      <trkpt lat="47.49101" lon="6.76275">
        <ele>321</ele>
        <time>2015-01-25T08:37:28.000Z</time>
      </trkpt>
      <trkpt lat="47.49101" lon="6.76271">
        <ele>321</ele>
        <time>2015-01-25T08:37:29.000Z</time>
      </trkpt>
      <trkpt lat="47.49102" lon="6.76266">
        <ele>322</ele>
        <time>2015-01-25T08:37:30.000Z</time>
      </trkpt>
      <trkpt lat="47.49102" lon="6.76262">
        <ele>322</ele>
        <time>2015-01-25T08:37:31.000Z</time>
      </trkpt>
      <trkpt lat="47.49102" lon="6.76257">
        <ele>322</ele>
        <time>2015-01-25T08:37:32.000Z</time>
      </trkpt>
      <trkpt lat="47.49102" lon="6.76253">
        <ele>322</ele>
        <time>2015-01-25T08:37:33.000Z</time>
      </trkpt>
      <trkpt lat="47.49102" lon="6.76249">
        <ele>323</ele>
        <time>2015-01-25T08:37:34.000Z</time>
      </trkpt>
      <trkpt lat="47.49102" lon="6.76244">
        <ele>323</ele>
        <time>2015-01-25T08:37:35.000Z</time>
      </trkpt>
      <trkpt lat="47.49102" lon="6.7624">
        <ele>323</ele>
        <time>2015-01-25T08:37:36.000Z</time>
      </trkpt>
      <trkpt lat="47.49102" lon="6.76236">
        <ele>322</ele>
        <time>2015-01-25T08:37:37.000Z</time>
      </trkpt>
      <trkpt lat="47.49102" lon="6.7623">
        <ele>322</ele>
        <time>2015-01-25T08:37:38.000Z</time>
      </trkpt>
      <trkpt lat="47.49102" lon="6.76225">
        <ele>322</ele>
        <time>2015-01-25T08:37:39.000Z</time>
      </trkpt>
      <trkpt lat="47.49103" lon="6.76219">
        <ele>322</ele>
        <time>2015-01-25T08:37:40.000Z</time>
      </trkpt>
      <trkpt lat="47.49103" lon="6.76213">
        <ele>322</ele>
        <time>2015-01-25T08:37:41.000Z</time>
      </trkpt>
      <trkpt lat="47.49103" lon="6.7621">
        <ele>322</ele>
        <time>2015-01-25T08:37:41.999Z</time>
      </trkpt>
      <trkpt lat="47.49104" lon="6.76204">
        <ele>322</ele>
        <time>2015-01-25T08:37:43.000Z</time>
      </trkpt>
      <trkpt lat="47.49103" lon="6.76172">
        <ele>322</ele>
        <time>2015-01-25T08:37:50.793Z</time>
      </trkpt>
      <trkpt lat="47.49102" lon="6.76168">
        <ele>322</ele>
        <time>2015-01-25T08:37:52.000Z</time>
      </trkpt>
      <trkpt lat="47.49103" lon="6.76164">
        <ele>323</ele>
        <time>2015-01-25T08:37:53.000Z</time>
      </trkpt>
      <trkpt lat="47.49103" lon="6.7616">
        <ele>323</ele>
        <time>2015-01-25T08:37:54.000Z</time>
      </trkpt>
      <trkpt lat="47.49103" lon="6.76156">
        <ele>323</ele>
        <time>2015-01-25T08:37:55.000Z</time>
      </trkpt>
      <trkpt lat="47.49103" lon="6.76152">
        <ele>323</ele>
        <time>2015-01-25T08:37:56.000Z</time>
      </trkpt>
      <trkpt lat="47.49104" lon="6.76148">
        <ele>323</ele>
        <time>2015-01-25T08:37:57.000Z</time>
      </trkpt>
      <trkpt lat="47.49104" lon="6.76143">
        <ele>323</ele>
        <time>2015-01-25T08:37:58.000Z</time>
      </trkpt>
      <trkpt lat="47.49104" lon="6.76137">
        <ele>323</ele>
        <time>2015-01-25T08:37:59.000Z</time>
      </trkpt>
      <trkpt lat="47.49104" lon="6.76132">
        <ele>323</ele>
        <time>2015-01-25T08:38:00.000Z</time>
      </trkpt>
      <trkpt lat="47.49104" lon="6.76127">
        <ele>323</ele>
        <time>2015-01-25T08:38:01.000Z</time>
      </trkpt>
      <trkpt lat="47.49104" lon="6.76122">
        <ele>323</ele>
        <time>2015-01-25T08:38:02.000Z</time>
      </trkpt>
      <trkpt lat="47.49104" lon="6.76118">
        <ele>323</ele>
        <time>2015-01-25T08:38:03.000Z</time>
      </trkpt>
      <trkpt lat="47.49103" lon="6.76114">
        <ele>323</ele>
        <time>2015-01-25T08:38:04.000Z</time>
      </trkpt>
      <trkpt lat="47.49102" lon="6.7611">
        <ele>324</ele>
        <time>2015-01-25T08:38:05.000Z</time>
      </trkpt>
      <trkpt lat="47.49102" lon="6.76106">
        <ele>324</ele>
        <time>2015-01-25T08:38:06.000Z</time>
      </trkpt>
      <trkpt lat="47.49101" lon="6.76101">
        <ele>324</ele>
        <time>2015-01-25T08:38:07.000Z</time>
      </trkpt>
      <trkpt lat="47.49101" lon="6.76096">
        <ele>325</ele>
        <time>2015-01-25T08:38:08.000Z</time>
      </trkpt>
      <trkpt lat="47.49101" lon="6.7609">
        <ele>325</ele>
        <time>2015-01-25T08:38:09.000Z</time>
      </trkpt>
      <trkpt lat="47.49101" lon="6.76085">
        <ele>325</ele>
        <time>2015-01-25T08:38:10.000Z</time>
      </trkpt>
      <trkpt lat="47.49102" lon="6.76081">
        <ele>326</ele>
        <time>2015-01-25T08:38:11.000Z</time>
      </trkpt>
      <trkpt lat="47.49102" lon="6.76076">
        <ele>326</ele>
        <time>2015-01-25T08:38:12.000Z</time>
      </trkpt>
      <trkpt lat="47.49103" lon="6.76072">
        <ele>326</ele>
        <time>2015-01-25T08:38:13.000Z</time>
      </trkpt>
      <trkpt lat="47.49104" lon="6.76068">
        <ele>326</ele>
        <time>2015-01-25T08:38:14.000Z</time>
      </trkpt>
      <trkpt lat="47.49105" lon="6.76064">
        <ele>326</ele>
        <time>2015-01-25T08:38:15.000Z</time>
      </trkpt>
      <trkpt lat="47.49106" lon="6.76059">
        <ele>326</ele>
        <time>2015-01-25T08:38:16.000Z</time>
      </trkpt>
      <trkpt lat="47.49106" lon="6.76054">
        <ele>326</ele>
        <time>2015-01-25T08:38:17.000Z</time>
      </trkpt>
      <trkpt lat="47.49107" lon="6.76049">
        <ele>326</ele>
        <time>2015-01-25T08:38:18.000Z</time>
      </trkpt>
      <trkpt lat="47.49109" lon="6.76043">
        <ele>326</ele>
        <time>2015-01-25T08:38:19.000Z</time>
      </trkpt>
      <trkpt lat="47.4911" lon="6.76037">
        <ele>326</ele>
        <time>2015-01-25T08:38:20.000Z</time>
      </trkpt>
      <trkpt lat="47.49112" lon="6.76031">
        <ele>326</ele>
        <time>2015-01-25T08:38:21.000Z</time>
      </trkpt>
      <trkpt lat="47.49113" lon="6.76026">
        <ele>326</ele>
        <time>2015-01-25T08:38:22.000Z</time>
      </trkpt>
      <trkpt lat="47.49115" lon="6.7602">
        <ele>326</ele>
        <time>2015-01-25T08:38:23.000Z</time>
      </trkpt>
      <trkpt lat="47.49117" lon="6.76016">
        <ele>326</ele>
        <time>2015-01-25T08:38:24.000Z</time>
      </trkpt>
      <trkpt lat="47.49118" lon="6.76012">
        <ele>326</ele>
        <time>2015-01-25T08:38:25.000Z</time>
      </trkpt>
      <trkpt lat="47.4912" lon="6.76008">
        <ele>326</ele>
        <time>2015-01-25T08:38:26.000Z</time>
      </trkpt>
      <trkpt lat="47.49122" lon="6.76005">
        <ele>325</ele>
        <time>2015-01-25T08:38:27.000Z</time>
      </trkpt>
      <trkpt lat="47.49124" lon="6.76002">
        <ele>325</ele>
        <time>2015-01-25T08:38:28.000Z</time>
      </trkpt>
      <trkpt lat="47.49126" lon="6.75999">
        <ele>327</ele>
        <time>2015-01-25T08:38:29.000Z</time>
      </trkpt>
      <trkpt lat="47.49128" lon="6.75996">
        <ele>327</ele>
        <time>2015-01-25T08:38:30.000Z</time>
      </trkpt>
      <trkpt lat="47.49129" lon="6.75993">
        <ele>327</ele>
        <time>2015-01-25T08:38:31.000Z</time>
      </trkpt>
      <trkpt lat="47.4913" lon="6.7599">
        <ele>327</ele>
        <time>2015-01-25T08:38:32.000Z</time>
      </trkpt>
      <trkpt lat="47.49132" lon="6.75986">
        <ele>327</ele>
        <time>2015-01-25T08:38:33.000Z</time>
      </trkpt>
      <trkpt lat="47.49133" lon="6.75982">
        <ele>327</ele>
        <time>2015-01-25T08:38:34.000Z</time>
      </trkpt>
      <trkpt lat="47.49134" lon="6.75978">
        <ele>327</ele>
        <time>2015-01-25T08:38:35.000Z</time>
      </trkpt>
      <trkpt lat="47.49135" lon="6.75974">
        <ele>327</ele>
        <time>2015-01-25T08:38:36.000Z</time>
      </trkpt>
      <trkpt lat="47.49136" lon="6.75969">
        <ele>327</ele>
        <time>2015-01-25T08:38:37.000Z</time>
      </trkpt>
      <trkpt lat="47.49137" lon="6.75965">
        <ele>327</ele>
        <time>2015-01-25T08:38:38.000Z</time>
      </trkpt>
      <trkpt lat="47.49137" lon="6.7596">
        <ele>327</ele>
        <time>2015-01-25T08:38:39.000Z</time>
      </trkpt>
      <trkpt lat="47.49138" lon="6.75956">
        <ele>327</ele>
        <time>2015-01-25T08:38:40.000Z</time>
      </trkpt>
      <trkpt lat="47.49139" lon="6.75952">
        <ele>327</ele>
        <time>2015-01-25T08:38:41.000Z</time>
      </trkpt>
      <trkpt lat="47.4914" lon="6.75947">
        <ele>327</ele>
        <time>2015-01-25T08:38:42.000Z</time>
      </trkpt>
      <trkpt lat="47.49141" lon="6.75943">
        <ele>327</ele>
        <time>2015-01-25T08:38:43.000Z</time>
      </trkpt>
      <trkpt lat="47.49148" lon="6.75906">
        <ele>329</ele>
        <time>2015-01-25T08:38:50.888Z</time>
      </trkpt>
      <trkpt lat="47.49149" lon="6.759">
        <ele>329</ele>
        <time>2015-01-25T08:38:52.000Z</time>
      </trkpt>
      <trkpt lat="47.4915" lon="6.75896">
        <ele>329</ele>
        <time>2015-01-25T08:38:53.000Z</time>
      </trkpt>
      <trkpt lat="47.49151" lon="6.75891">
        <ele>330</ele>
        <time>2015-01-25T08:38:54.000Z</time>
      </trkpt>
      <trkpt lat="47.49152" lon="6.75885">
        <ele>330</ele>
        <time>2015-01-25T08:38:55.000Z</time>
      </trkpt>
      <trkpt lat="47.49154" lon="6.7588">
        <ele>330</ele>
        <time>2015-01-25T08:38:56.000Z</time>
      </trkpt>
      <trkpt lat="47.49156" lon="6.75874">
        <ele>330</ele>
        <time>2015-01-25T08:38:57.000Z</time>
      </trkpt>
      <trkpt lat="47.49158" lon="6.75869">
        <ele>330</ele>
        <time>2015-01-25T08:38:58.000Z</time>
      </trkpt>
      <trkpt lat="47.4916" lon="6.75863">
        <ele>330</ele>
        <time>2015-01-25T08:38:59.000Z</time>
      </trkpt>
      <trkpt lat="47.49163" lon="6.75858">
        <ele>330</ele>
        <time>2015-01-25T08:39:00.000Z</time>
      </trkpt>
      <trkpt lat="47.49165" lon="6.75852">
        <ele>329</ele>
        <time>2015-01-25T08:39:01.000Z</time>
      </trkpt>
      <trkpt lat="47.49167" lon="6.75847">
        <ele>323</ele>
        <time>2015-01-25T08:39:02.000Z</time>
      </trkpt>
      <trkpt lat="47.49169" lon="6.75841">
        <ele>324</ele>
        <time>2015-01-25T08:39:03.000Z</time>
      </trkpt>
      <trkpt lat="47.4917" lon="6.75836">
        <ele>325</ele>
        <time>2015-01-25T08:39:04.000Z</time>
      </trkpt>
      <trkpt lat="47.49172" lon="6.75831">
        <ele>325</ele>
        <time>2015-01-25T08:39:05.000Z</time>
      </trkpt>
      <trkpt lat="47.49174" lon="6.75825">
        <ele>325</ele>
        <time>2015-01-25T08:39:06.000Z</time>
      </trkpt>
      <trkpt lat="47.49176" lon="6.75819">
        <ele>325</ele>
        <time>2015-01-25T08:39:07.000Z</time>
      </trkpt>
      <trkpt lat="47.49177" lon="6.75812">
        <ele>325</ele>
        <time>2015-01-25T08:39:08.000Z</time>
      </trkpt>
      <trkpt lat="47.49179" lon="6.75806">
        <ele>325</ele>
        <time>2015-01-25T08:39:09.000Z</time>
      </trkpt>
      <trkpt lat="47.49182" lon="6.758">
        <ele>325</ele>
        <time>2015-01-25T08:39:10.000Z</time>
      </trkpt>
      <trkpt lat="47.49184" lon="6.75794">
        <ele>325</ele>
        <time>2015-01-25T08:39:11.000Z</time>
      </trkpt>
      <trkpt lat="47.49186" lon="6.75788">
        <ele>325</ele>
        <time>2015-01-25T08:39:12.000Z</time>
      </trkpt>
      <trkpt lat="47.49188" lon="6.75783">
        <ele>326</ele>
        <time>2015-01-25T08:39:13.000Z</time>
      </trkpt>
      <trkpt lat="47.4919" lon="6.75777">
        <ele>326</ele>
        <time>2015-01-25T08:39:14.000Z</time>
      </trkpt>
      <trkpt lat="47.49193" lon="6.75771">
        <ele>326</ele>
        <time>2015-01-25T08:39:15.000Z</time>
      </trkpt>
      <trkpt lat="47.49195" lon="6.75766">
        <ele>326</ele>
        <time>2015-01-25T08:39:16.000Z</time>
      </trkpt>
      <trkpt lat="47.49198" lon="6.7576">
        <ele>326</ele>
        <time>2015-01-25T08:39:17.000Z</time>
      </trkpt>
      <trkpt lat="47.492" lon="6.75755">
        <ele>326</ele>
        <time>2015-01-25T08:39:18.000Z</time>
      </trkpt>
      <trkpt lat="47.49202" lon="6.75751">
        <ele>326</ele>
        <time>2015-01-25T08:39:19.000Z</time>
      </trkpt>
      <trkpt lat="47.49204" lon="6.75746">
        <ele>330</ele>
        <time>2015-01-25T08:39:20.000Z</time>
      </trkpt>
      <trkpt lat="47.49206" lon="6.75742">
        <ele>330</ele>
        <time>2015-01-25T08:39:21.000Z</time>
      </trkpt>
      <trkpt lat="47.49207" lon="6.75738">
        <ele>330</ele>
        <time>2015-01-25T08:39:22.000Z</time>
      </trkpt>
      <trkpt lat="47.49209" lon="6.75734">
        <ele>330</ele>
        <time>2015-01-25T08:39:23.000Z</time>
      </trkpt>
      <trkpt lat="47.4921" lon="6.75731">
        <ele>330</ele>
        <time>2015-01-25T08:39:24.000Z</time>
      </trkpt>
      <trkpt lat="47.49212" lon="6.75725">
        <ele>330</ele>
        <time>2015-01-25T08:39:26.000Z</time>
      </trkpt>
      <trkpt lat="47.49212" lon="6.75722">
        <ele>330</ele>
        <time>2015-01-25T08:39:27.000Z</time>
      </trkpt>
      <trkpt lat="47.49213" lon="6.75717">
        <ele>330</ele>
        <time>2015-01-25T08:39:28.000Z</time>
      </trkpt>
      <trkpt lat="47.49214" lon="6.75713">
        <ele>330</ele>
        <time>2015-01-25T08:39:29.000Z</time>
      </trkpt>
      <trkpt lat="47.49216" lon="6.75709">
        <ele>330</ele>
        <time>2015-01-25T08:39:30.000Z</time>
      </trkpt>
      <trkpt lat="47.49217" lon="6.75705">
        <ele>330</ele>
        <time>2015-01-25T08:39:31.000Z</time>
      </trkpt>
      <trkpt lat="47.49219" lon="6.75702">
        <ele>330</ele>
        <time>2015-01-25T08:39:32.000Z</time>
      </trkpt>
      <trkpt lat="47.49221" lon="6.75698">
        <ele>330</ele>
        <time>2015-01-25T08:39:33.000Z</time>
      </trkpt>
      <trkpt lat="47.49222" lon="6.75695">
        <ele>330</ele>
        <time>2015-01-25T08:39:34.000Z</time>
      </trkpt>
      <trkpt lat="47.49223" lon="6.75691">
        <ele>330</ele>
        <time>2015-01-25T08:39:35.000Z</time>
      </trkpt>
      <trkpt lat="47.49224" lon="6.75687">
        <ele>330</ele>
        <time>2015-01-25T08:39:36.000Z</time>
      </trkpt>
      <trkpt lat="47.49225" lon="6.75683">
        <ele>330</ele>
        <time>2015-01-25T08:39:37.000Z</time>
      </trkpt>
      <trkpt lat="47.49226" lon="6.75679">
        <ele>329</ele>
        <time>2015-01-25T08:39:38.000Z</time>
      </trkpt>
      <trkpt lat="47.49226" lon="6.75675">
        <ele>329</ele>
        <time>2015-01-25T08:39:39.000Z</time>
      </trkpt>
      <trkpt lat="47.49227" lon="6.75671">
        <ele>329</ele>
        <time>2015-01-25T08:39:40.000Z</time>
      </trkpt>
      <trkpt lat="47.49228" lon="6.75668">
        <ele>329</ele>
        <time>2015-01-25T08:39:41.000Z</time>
      </trkpt>
      <trkpt lat="47.4923" lon="6.75663">
        <ele>333</ele>
        <time>2015-01-25T08:39:42.000Z</time>
      </trkpt>
      <trkpt lat="47.49231" lon="6.75659">
        <ele>333</ele>
        <time>2015-01-25T08:39:43.000Z</time>
      </trkpt>
      <trkpt lat="47.49237" lon="6.75648">
        <ele>333</ele>
        <time>2015-01-25T08:39:46.000Z</time>
      </trkpt>
      <trkpt lat="47.49239" lon="6.75646">
        <ele>333</ele>
        <time>2015-01-25T08:39:47.000Z</time>
      </trkpt>
      <trkpt lat="47.4924" lon="6.75642">
        <ele>334</ele>
        <time>2015-01-25T08:39:48.000Z</time>
      </trkpt>
      <trkpt lat="47.49241" lon="6.75637">
        <ele>334</ele>
        <time>2015-01-25T08:39:49.000Z</time>
      </trkpt>
      <trkpt lat="47.49242" lon="6.75632">
        <ele>335</ele>
        <time>2015-01-25T08:39:50.000Z</time>
      </trkpt>
      <trkpt lat="47.49244" lon="6.75626">
        <ele>336</ele>
        <time>2015-01-25T08:39:51.000Z</time>
      </trkpt>
      <trkpt lat="47.49245" lon="6.7562">
        <ele>336</ele>
        <time>2015-01-25T08:39:52.000Z</time>
      </trkpt>
      <trkpt lat="47.49246" lon="6.75614">
        <ele>336</ele>
        <time>2015-01-25T08:39:53.000Z</time>
      </trkpt>
      <trkpt lat="47.49248" lon="6.75608">
        <ele>336</ele>
        <time>2015-01-25T08:39:54.000Z</time>
      </trkpt>
      <trkpt lat="47.49249" lon="6.75603">
        <ele>336</ele>
        <time>2015-01-25T08:39:55.000Z</time>
      </trkpt>
      <trkpt lat="47.49251" lon="6.75596">
        <ele>329</ele>
        <time>2015-01-25T08:39:56.000Z</time>
      </trkpt>
      <trkpt lat="47.49252" lon="6.7559">
        <ele>331</ele>
        <time>2015-01-25T08:39:57.000Z</time>
      </trkpt>
      <trkpt lat="47.49253" lon="6.75583">
        <ele>332</ele>
        <time>2015-01-25T08:39:58.000Z</time>
      </trkpt>
      <trkpt lat="47.49254" lon="6.75577">
        <ele>332</ele>
        <time>2015-01-25T08:39:59.000Z</time>
      </trkpt>
      <trkpt lat="47.49255" lon="6.7557">
        <ele>331</ele>
        <time>2015-01-25T08:40:00.000Z</time>
      </trkpt>
      <trkpt lat="47.49256" lon="6.75564">
        <ele>331</ele>
        <time>2015-01-25T08:40:01.000Z</time>
      </trkpt>
      <trkpt lat="47.49256" lon="6.75558">
        <ele>331</ele>
        <time>2015-01-25T08:40:02.000Z</time>
      </trkpt>
      <trkpt lat="47.49257" lon="6.75552">
        <ele>331</ele>
        <time>2015-01-25T08:40:03.000Z</time>
      </trkpt>
      <trkpt lat="47.49258" lon="6.75547">
        <ele>331</ele>
        <time>2015-01-25T08:40:04.000Z</time>
      </trkpt>
      <trkpt lat="47.49258" lon="6.75541">
        <ele>331</ele>
        <time>2015-01-25T08:40:05.000Z</time>
      </trkpt>
      <trkpt lat="47.49259" lon="6.75536">
        <ele>332</ele>
        <time>2015-01-25T08:40:06.000Z</time>
      </trkpt>
      <trkpt lat="47.49261" lon="6.75531">
        <ele>332</ele>
        <time>2015-01-25T08:40:07.000Z</time>
      </trkpt>
      <trkpt lat="47.49262" lon="6.75526">
        <ele>332</ele>
        <time>2015-01-25T08:40:08.000Z</time>
      </trkpt>
      <trkpt lat="47.49263" lon="6.7552">
        <ele>333</ele>
        <time>2015-01-25T08:40:09.000Z</time>
      </trkpt>
      <trkpt lat="47.49263" lon="6.75515">
        <ele>334</ele>
        <time>2015-01-25T08:40:10.000Z</time>
      </trkpt>
      <trkpt lat="47.49264" lon="6.7551">
        <ele>334</ele>
        <time>2015-01-25T08:40:11.000Z</time>
      </trkpt>
      <trkpt lat="47.49264" lon="6.75504">
        <ele>335</ele>
        <time>2015-01-25T08:40:12.000Z</time>
      </trkpt>
      <trkpt lat="47.49264" lon="6.75498">
        <ele>337</ele>
        <time>2015-01-25T08:40:13.000Z</time>
      </trkpt>
      <trkpt lat="47.49264" lon="6.75492">
        <ele>337</ele>
        <time>2015-01-25T08:40:14.000Z</time>
      </trkpt>
      <trkpt lat="47.49264" lon="6.75487">
        <ele>337</ele>
        <time>2015-01-25T08:40:15.000Z</time>
      </trkpt>
      <trkpt lat="47.49264" lon="6.75482">
        <ele>337</ele>
        <time>2015-01-25T08:40:16.000Z</time>
      </trkpt>
      <trkpt lat="47.49264" lon="6.75476">
        <ele>336</ele>
        <time>2015-01-25T08:40:17.000Z</time>
      </trkpt>
      <trkpt lat="47.49265" lon="6.75472">
        <ele>336</ele>
        <time>2015-01-25T08:40:18.000Z</time>
      </trkpt>
      <trkpt lat="47.49266" lon="6.75467">
        <ele>336</ele>
        <time>2015-01-25T08:40:19.000Z</time>
      </trkpt>
      <trkpt lat="47.49267" lon="6.75463">
        <ele>336</ele>
        <time>2015-01-25T08:40:20.000Z</time>
      </trkpt>
      <trkpt lat="47.49269" lon="6.75459">
        <ele>336</ele>
        <time>2015-01-25T08:40:21.000Z</time>
      </trkpt>
      <trkpt lat="47.49269" lon="6.75456">
        <ele>337</ele>
        <time>2015-01-25T08:40:22.000Z</time>
      </trkpt>
      <trkpt lat="47.49271" lon="6.7545">
        <ele>337</ele>
        <time>2015-01-25T08:40:24.000Z</time>
      </trkpt>
      <trkpt lat="47.49272" lon="6.75447">
        <ele>337</ele>
        <time>2015-01-25T08:40:25.000Z</time>
      </trkpt>
      <trkpt lat="47.49273" lon="6.75445">
        <ele>337</ele>
        <time>2015-01-25T08:40:26.000Z</time>
      </trkpt>
      <trkpt lat="47.49275" lon="6.75442">
        <ele>337</ele>
        <time>2015-01-25T08:40:27.000Z</time>
      </trkpt>
      <trkpt lat="47.49276" lon="6.75439">
        <ele>337</ele>
        <time>2015-01-25T08:40:28.000Z</time>
      </trkpt>
      <trkpt lat="47.49277" lon="6.75436">
        <ele>337</ele>
        <time>2015-01-25T08:40:29.000Z</time>
      </trkpt>
      <trkpt lat="47.49277" lon="6.75432">
        <ele>337</ele>
        <time>2015-01-25T08:40:30.000Z</time>
      </trkpt>
      <trkpt lat="47.49277" lon="6.75428">
        <ele>337</ele>
        <time>2015-01-25T08:40:31.000Z</time>
      </trkpt>
      <trkpt lat="47.49277" lon="6.75424">
        <ele>338</ele>
        <time>2015-01-25T08:40:32.000Z</time>
      </trkpt>
      <trkpt lat="47.49277" lon="6.75421">
        <ele>338</ele>
        <time>2015-01-25T08:40:33.000Z</time>
      </trkpt>
      <trkpt lat="47.49277" lon="6.75417">
        <ele>338</ele>
        <time>2015-01-25T08:40:34.000Z</time>
      </trkpt>
      <trkpt lat="47.49276" lon="6.75414">
        <ele>340</ele>
        <time>2015-01-25T08:40:35.000Z</time>
      </trkpt>
      <trkpt lat="47.49275" lon="6.7541">
        <ele>340</ele>
        <time>2015-01-25T08:40:36.000Z</time>
      </trkpt>
      <trkpt lat="47.49274" lon="6.75407">
        <ele>340</ele>
        <time>2015-01-25T08:40:37.000Z</time>
      </trkpt>
      <trkpt lat="47.49275" lon="6.75401">
        <ele>340</ele>
        <time>2015-01-25T08:40:39.000Z</time>
      </trkpt>
      <trkpt lat="47.49276" lon="6.754">
        <ele>340</ele>
        <time>2015-01-25T08:40:40.000Z</time>
      </trkpt>
      <trkpt lat="47.4928" lon="6.75399">
        <ele>339</ele>
        <time>2015-01-25T08:40:42.000Z</time>
      </trkpt>
      <trkpt lat="47.49281" lon="6.75399">
        <ele>339</ele>
        <time>2015-01-25T08:40:43.000Z</time>
      </trkpt>
      <trkpt lat="47.49282" lon="6.75398">
        <ele>339</ele>
        <time>2015-01-25T08:40:44.000Z</time>
      </trkpt>
      <trkpt lat="47.49284" lon="6.7538">
        <ele>339</ele>
        <time>2015-01-25T08:40:52.000Z</time>
      </trkpt>
      <trkpt lat="47.49285" lon="6.75377">
        <ele>339</ele>
        <time>2015-01-25T08:40:53.000Z</time>
      </trkpt>
      <trkpt lat="47.49286" lon="6.75373">
        <ele>339</ele>
        <time>2015-01-25T08:40:54.000Z</time>
      </trkpt>
      <trkpt lat="47.49287" lon="6.75368">
        <ele>339</ele>
        <time>2015-01-25T08:40:55.000Z</time>
      </trkpt>
      <trkpt lat="47.49287" lon="6.75364">
        <ele>339</ele>
        <time>2015-01-25T08:40:56.000Z</time>
      </trkpt>
      <trkpt lat="47.49288" lon="6.75359">
        <ele>339</ele>
        <time>2015-01-25T08:40:57.000Z</time>
      </trkpt>
      <trkpt lat="47.49288" lon="6.75355">
        <ele>339</ele>
        <time>2015-01-25T08:40:58.000Z</time>
      </trkpt>
      <trkpt lat="47.49289" lon="6.75352">
        <ele>339</ele>
        <time>2015-01-25T08:40:59.000Z</time>
      </trkpt>
      <trkpt lat="47.49289" lon="6.75349">
        <ele>339</ele>
        <time>2015-01-25T08:41:00.000Z</time>
      </trkpt>
      <trkpt lat="47.4929" lon="6.75343">
        <ele>339</ele>
        <time>2015-01-25T08:41:02.000Z</time>
      </trkpt>
      <trkpt lat="47.4929" lon="6.7534">
        <ele>339</ele>
        <time>2015-01-25T08:41:03.000Z</time>
      </trkpt>
      <trkpt lat="47.4929" lon="6.75334">
        <ele>339</ele>
        <time>2015-01-25T08:41:05.000Z</time>
      </trkpt>
      <trkpt lat="47.4929" lon="6.7533">
        <ele>340</ele>
        <time>2015-01-25T08:41:06.000Z</time>
      </trkpt>
      <trkpt lat="47.4929" lon="6.75326">
        <ele>340</ele>
        <time>2015-01-25T08:41:07.000Z</time>
      </trkpt>
      <trkpt lat="47.4929" lon="6.75322">
        <ele>340</ele>
        <time>2015-01-25T08:41:08.000Z</time>
      </trkpt>
      <trkpt lat="47.4929" lon="6.75316">
        <ele>340</ele>
        <time>2015-01-25T08:41:10.000Z</time>
      </trkpt>
      <trkpt lat="47.4929" lon="6.75313">
        <ele>340</ele>
        <time>2015-01-25T08:41:11.000Z</time>
      </trkpt>
      <trkpt lat="47.49291" lon="6.75307">
        <ele>340</ele>
        <time>2015-01-25T08:41:13.000Z</time>
      </trkpt>
      <trkpt lat="47.49291" lon="6.75304">
        <ele>340</ele>
        <time>2015-01-25T08:41:14.000Z</time>
      </trkpt>
      <trkpt lat="47.49291" lon="6.75299">
        <ele>340</ele>
        <time>2015-01-25T08:41:16.000Z</time>
      </trkpt>
      <trkpt lat="47.49291" lon="6.75297">
        <ele>340</ele>
        <time>2015-01-25T08:41:17.000Z</time>
      </trkpt>
      <trkpt lat="47.49292" lon="6.75291">
        <ele>340</ele>
        <time>2015-01-25T08:41:19.000Z</time>
      </trkpt>
      <trkpt lat="47.49293" lon="6.75289">
        <ele>340</ele>
        <time>2015-01-25T08:41:20.000Z</time>
      </trkpt>
      <trkpt lat="47.49293" lon="6.75283">
        <ele>340</ele>
        <time>2015-01-25T08:41:22.000Z</time>
      </trkpt>
      <trkpt lat="47.49293" lon="6.75279">
        <ele>340</ele>
        <time>2015-01-25T08:41:23.000Z</time>
      </trkpt>
      <trkpt lat="47.49293" lon="6.75273">
        <ele>340</ele>
        <time>2015-01-25T08:41:25.000Z</time>
      </trkpt>
      <trkpt lat="47.49293" lon="6.7527">
        <ele>340</ele>
        <time>2015-01-25T08:41:26.000Z</time>
      </trkpt>
      <trkpt lat="47.49294" lon="6.75264">
        <ele>340</ele>
        <time>2015-01-25T08:41:28.000Z</time>
      </trkpt>
      <trkpt lat="47.49294" lon="6.75261">
        <ele>340</ele>
        <time>2015-01-25T08:41:29.000Z</time>
      </trkpt>
      <trkpt lat="47.49294" lon="6.75255">
        <ele>340</ele>
        <time>2015-01-25T08:41:31.000Z</time>
      </trkpt>
      <trkpt lat="47.49294" lon="6.75253">
        <ele>340</ele>
        <time>2015-01-25T08:41:32.000Z</time>
      </trkpt>
      <trkpt lat="47.49294" lon="6.75248">
        <ele>342</ele>
        <time>2015-01-25T08:41:34.000Z</time>
      </trkpt>
      <trkpt lat="47.49295" lon="6.75245">
        <ele>342</ele>
        <time>2015-01-25T08:41:35.000Z</time>
      </trkpt>
      <trkpt lat="47.49295" lon="6.7524">
        <ele>342</ele>
        <time>2015-01-25T08:41:37.000Z</time>
      </trkpt>
      <trkpt lat="47.49296" lon="6.75238">
        <ele>342</ele>
        <time>2015-01-25T08:41:38.000Z</time>
      </trkpt>
      <trkpt lat="47.49296" lon="6.75234">
        <ele>342</ele>
        <time>2015-01-25T08:41:39.000Z</time>
      </trkpt>
      <trkpt lat="47.49297" lon="6.7523">
        <ele>342</ele>
        <time>2015-01-25T08:41:40.000Z</time>
      </trkpt>
      <trkpt lat="47.49297" lon="6.75227">
        <ele>342</ele>
        <time>2015-01-25T08:41:41.000Z</time>
      </trkpt>
      <trkpt lat="47.49298" lon="6.75223">
        <ele>342</ele>
        <time>2015-01-25T08:41:42.000Z</time>
      </trkpt>
      <trkpt lat="47.49298" lon="6.7522">
        <ele>342</ele>
        <time>2015-01-25T08:41:43.000Z</time>
      </trkpt>
      <trkpt lat="47.493" lon="6.7521">
        <ele>342</ele>
        <time>2015-01-25T08:41:46.000Z</time>
      </trkpt>
      <trkpt lat="47.49302" lon="6.75206">
        <ele>342</ele>
        <time>2015-01-25T08:41:48.000Z</time>
      </trkpt>
      <trkpt lat="47.49303" lon="6.75205">
        <ele>342</ele>
        <time>2015-01-25T08:41:49.000Z</time>
      </trkpt>
      <trkpt lat="47.49305" lon="6.75199">
        <ele>342</ele>
        <time>2015-01-25T08:41:52.000Z</time>
      </trkpt>
      <trkpt lat="47.49305" lon="6.75197">
        <ele>342</ele>
        <time>2015-01-25T08:41:53.000Z</time>
      </trkpt>
      <trkpt lat="47.49305" lon="6.7519">
        <ele>342</ele>
        <time>2015-01-25T08:41:55.000Z</time>
      </trkpt>
      <trkpt lat="47.49305" lon="6.75187">
        <ele>342</ele>
        <time>2015-01-25T08:41:56.000Z</time>
      </trkpt>
      <trkpt lat="47.49305" lon="6.75183">
        <ele>342</ele>
        <time>2015-01-25T08:41:57.000Z</time>
      </trkpt>
      <trkpt lat="47.49305" lon="6.75179">
        <ele>342</ele>
        <time>2015-01-25T08:41:58.000Z</time>
      </trkpt>
      <trkpt lat="47.49304" lon="6.75175">
        <ele>342</ele>
        <time>2015-01-25T08:41:59.000Z</time>
      </trkpt>
      <trkpt lat="47.49304" lon="6.75171">
        <ele>342</ele>
        <time>2015-01-25T08:42:00.000Z</time>
      </trkpt>
      <trkpt lat="47.49304" lon="6.75167">
        <ele>342</ele>
        <time>2015-01-25T08:42:01.000Z</time>
      </trkpt>
      <trkpt lat="47.49303" lon="6.75162">
        <ele>345</ele>
        <time>2015-01-25T08:42:02.000Z</time>
      </trkpt>
      <trkpt lat="47.49303" lon="6.75158">
        <ele>345</ele>
        <time>2015-01-25T08:42:03.000Z</time>
      </trkpt>
      <trkpt lat="47.49302" lon="6.75154">
        <ele>345</ele>
        <time>2015-01-25T08:42:04.000Z</time>
      </trkpt>
      <trkpt lat="47.49302" lon="6.7515">
        <ele>345</ele>
        <time>2015-01-25T08:42:05.000Z</time>
      </trkpt>
      <trkpt lat="47.49302" lon="6.75146">
        <ele>345</ele>
        <time>2015-01-25T08:42:06.000Z</time>
      </trkpt>
      <trkpt lat="47.49301" lon="6.75141">
        <ele>346</ele>
        <time>2015-01-25T08:42:07.000Z</time>
      </trkpt>
      <trkpt lat="47.493" lon="6.75137">
        <ele>346</ele>
        <time>2015-01-25T08:42:08.000Z</time>
      </trkpt>
      <trkpt lat="47.493" lon="6.75133">
        <ele>346</ele>
        <time>2015-01-25T08:42:09.000Z</time>
      </trkpt>
      <trkpt lat="47.49299" lon="6.75128">
        <ele>346</ele>
        <time>2015-01-25T08:42:10.000Z</time>
      </trkpt>
      <trkpt lat="47.49299" lon="6.75124">
        <ele>346</ele>
        <time>2015-01-25T08:42:11.000Z</time>
      </trkpt>
      <trkpt lat="47.49299" lon="6.7512">
        <ele>346</ele>
        <time>2015-01-25T08:42:12.000Z</time>
      </trkpt>
      <trkpt lat="47.49299" lon="6.75117">
        <ele>346</ele>
        <time>2015-01-25T08:42:13.000Z</time>
      </trkpt>
      <trkpt lat="47.493" lon="6.75113">
        <ele>346</ele>
        <time>2015-01-25T08:42:14.000Z</time>
      </trkpt>
      <trkpt lat="47.49301" lon="6.75109">
        <ele>346</ele>
        <time>2015-01-25T08:42:15.000Z</time>
      </trkpt>
      <trkpt lat="47.49302" lon="6.75105">
        <ele>346</ele>
        <time>2015-01-25T08:42:16.000Z</time>
      </trkpt>
      <trkpt lat="47.49303" lon="6.75102">
        <ele>346</ele>
        <time>2015-01-25T08:42:17.000Z</time>
      </trkpt>
      <trkpt lat="47.49304" lon="6.75099">
        <ele>346</ele>
        <time>2015-01-25T08:42:18.000Z</time>
      </trkpt>
      <trkpt lat="47.49306" lon="6.75096">
        <ele>345</ele>
        <time>2015-01-25T08:42:19.000Z</time>
      </trkpt>
      <trkpt lat="47.49308" lon="6.75093">
        <ele>345</ele>
        <time>2015-01-25T08:42:20.000Z</time>
      </trkpt>
      <trkpt lat="47.4931" lon="6.7509">
        <ele>344</ele>
        <time>2015-01-25T08:42:21.000Z</time>
      </trkpt>
      <trkpt lat="47.49313" lon="6.75086">
        <ele>344</ele>
        <time>2015-01-25T08:42:22.000Z</time>
      </trkpt>
      <trkpt lat="47.49315" lon="6.75083">
        <ele>345</ele>
        <time>2015-01-25T08:42:23.000Z</time>
      </trkpt>
      <trkpt lat="47.49317" lon="6.7508">
        <ele>344</ele>
        <time>2015-01-25T08:42:24.000Z</time>
      </trkpt>
      <trkpt lat="47.49319" lon="6.75077">
        <ele>344</ele>
        <time>2015-01-25T08:42:25.000Z</time>
      </trkpt>
      <trkpt lat="47.49321" lon="6.75075">
        <ele>344</ele>
        <time>2015-01-25T08:42:26.000Z</time>
      </trkpt>
      <trkpt lat="47.49324" lon="6.75073">
        <ele>343</ele>
        <time>2015-01-25T08:42:27.000Z</time>
      </trkpt>
      <trkpt lat="47.49327" lon="6.75071">
        <ele>343</ele>
        <time>2015-01-25T08:42:28.000Z</time>
      </trkpt>
      <trkpt lat="47.49329" lon="6.75069">
        <ele>343</ele>
        <time>2015-01-25T08:42:29.000Z</time>
      </trkpt>
      <trkpt lat="47.49332" lon="6.75067">
        <ele>344</ele>
        <time>2015-01-25T08:42:30.000Z</time>
      </trkpt>
      <trkpt lat="47.49333" lon="6.75064">
        <ele>338</ele>
        <time>2015-01-25T08:42:31.000Z</time>
      </trkpt>
      <trkpt lat="47.49335" lon="6.75061">
        <ele>338</ele>
        <time>2015-01-25T08:42:32.000Z</time>
      </trkpt>
      <trkpt lat="47.49335" lon="6.75057">
        <ele>338</ele>
        <time>2015-01-25T08:42:33.000Z</time>
      </trkpt>
      <trkpt lat="47.49336" lon="6.75053">
        <ele>339</ele>
        <time>2015-01-25T08:42:34.000Z</time>
      </trkpt>
      <trkpt lat="47.49336" lon="6.75048">
        <ele>339</ele>
        <time>2015-01-25T08:42:35.000Z</time>
      </trkpt>
      <trkpt lat="47.49336" lon="6.75043">
        <ele>339</ele>
        <time>2015-01-25T08:42:36.000Z</time>
      </trkpt>
      <trkpt lat="47.49337" lon="6.75038">
        <ele>339</ele>
        <time>2015-01-25T08:42:37.000Z</time>
      </trkpt>
      <trkpt lat="47.49337" lon="6.75035">
        <ele>339</ele>
        <time>2015-01-25T08:42:38.000Z</time>
      </trkpt>
      <trkpt lat="47.49338" lon="6.75029">
        <ele>340</ele>
        <time>2015-01-25T08:42:40.000Z</time>
      </trkpt>
      <trkpt lat="47.49338" lon="6.75026">
        <ele>340</ele>
        <time>2015-01-25T08:42:41.000Z</time>
      </trkpt>
      <trkpt lat="47.49338" lon="6.7502">
        <ele>340</ele>
        <time>2015-01-25T08:42:43.000Z</time>
      </trkpt>
      <trkpt lat="47.49338" lon="6.75017">
        <ele>340</ele>
        <time>2015-01-25T08:42:44.000Z</time>
      </trkpt>
      <trkpt lat="47.49339" lon="6.75">
        <ele>342</ele>
        <time>2015-01-25T08:42:52.000Z</time>
      </trkpt>
      <trkpt lat="47.49339" lon="6.74994">
        <ele>342</ele>
        <time>2015-01-25T08:42:55.000Z</time>
      </trkpt>
      <trkpt lat="47.49338" lon="6.74991">
        <ele>342</ele>
        <time>2015-01-25T08:42:56.000Z</time>
      </trkpt>
      <trkpt lat="47.49337" lon="6.74985">
        <ele>342</ele>
        <time>2015-01-25T08:42:58.000Z</time>
      </trkpt>
      <trkpt lat="47.49337" lon="6.74982">
        <ele>342</ele>
        <time>2015-01-25T08:42:59.000Z</time>
      </trkpt>
      <trkpt lat="47.49336" lon="6.74976">
        <ele>342</ele>
        <time>2015-01-25T08:43:01.000Z</time>
      </trkpt>
      <trkpt lat="47.49335" lon="6.74973">
        <ele>342</ele>
        <time>2015-01-25T08:43:02.000Z</time>
      </trkpt>
      <trkpt lat="47.49335" lon="6.74967">
        <ele>342</ele>
        <time>2015-01-25T08:43:04.000Z</time>
      </trkpt>
      <trkpt lat="47.49335" lon="6.74964">
        <ele>342</ele>
        <time>2015-01-25T08:43:05.000Z</time>
      </trkpt>
      <trkpt lat="47.49336" lon="6.74959">
        <ele>342</ele>
        <time>2015-01-25T08:43:07.000Z</time>
      </trkpt>
      <trkpt lat="47.49336" lon="6.74956">
        <ele>342</ele>
        <time>2015-01-25T08:43:08.000Z</time>
      </trkpt>
      <trkpt lat="47.49337" lon="6.7495">
        <ele>342</ele>
        <time>2015-01-25T08:43:10.000Z</time>
      </trkpt>
      <trkpt lat="47.49338" lon="6.74947">
        <ele>343</ele>
        <time>2015-01-25T08:43:11.000Z</time>
      </trkpt>
      <trkpt lat="47.49338" lon="6.74941">
        <ele>343</ele>
        <time>2015-01-25T08:43:13.000Z</time>
      </trkpt>
      <trkpt lat="47.49337" lon="6.74938">
        <ele>343</ele>
        <time>2015-01-25T08:43:14.000Z</time>
      </trkpt>
      <trkpt lat="47.49337" lon="6.74935">
        <ele>344</ele>
        <time>2015-01-25T08:43:15.000Z</time>
      </trkpt>
      <trkpt lat="47.49337" lon="6.74931">
        <ele>344</ele>
        <time>2015-01-25T08:43:16.000Z</time>
      </trkpt>
      <trkpt lat="47.49337" lon="6.74925">
        <ele>346</ele>
        <time>2015-01-25T08:43:18.000Z</time>
      </trkpt>
      <trkpt lat="47.49337" lon="6.74922">
        <ele>346</ele>
        <time>2015-01-25T08:43:19.000Z</time>
      </trkpt>
      <trkpt lat="47.49337" lon="6.74916">
        <ele>347</ele>
        <time>2015-01-25T08:43:21.000Z</time>
      </trkpt>
      <trkpt lat="47.49337" lon="6.74913">
        <ele>347</ele>
        <time>2015-01-25T08:43:22.000Z</time>
      </trkpt>
      <trkpt lat="47.49338" lon="6.74908">
        <ele>346</ele>
        <time>2015-01-25T08:43:24.000Z</time>
      </trkpt>
      <trkpt lat="47.49339" lon="6.74905">
        <ele>345</ele>
        <time>2015-01-25T08:43:25.000Z</time>
      </trkpt>
      <trkpt lat="47.4934" lon="6.74899">
        <ele>345</ele>
        <time>2015-01-25T08:43:28.000Z</time>
      </trkpt>
      <trkpt lat="47.4934" lon="6.74897">
        <ele>344</ele>
        <time>2015-01-25T08:43:29.000Z</time>
      </trkpt>
      <trkpt lat="47.4934" lon="6.74892">
        <ele>344</ele>
        <time>2015-01-25T08:43:31.000Z</time>
      </trkpt>
      <trkpt lat="47.4934" lon="6.74889">
        <ele>344</ele>
        <time>2015-01-25T08:43:32.000Z</time>
      </trkpt>
      <trkpt lat="47.4934" lon="6.74883">
        <ele>344</ele>
        <time>2015-01-25T08:43:34.000Z</time>
      </trkpt>
      <trkpt lat="47.4934" lon="6.74879">
        <ele>344</ele>
        <time>2015-01-25T08:43:35.000Z</time>
      </trkpt>
      <trkpt lat="47.4934" lon="6.74873">
        <ele>344</ele>
        <time>2015-01-25T08:43:37.000Z</time>
      </trkpt>
      <trkpt lat="47.4934" lon="6.7487">
        <ele>344</ele>
        <time>2015-01-25T08:43:38.000Z</time>
      </trkpt>
      <trkpt lat="47.4934" lon="6.74865">
        <ele>344</ele>
        <time>2015-01-25T08:43:40.000Z</time>
      </trkpt>
      <trkpt lat="47.4934" lon="6.74862">
        <ele>344</ele>
        <time>2015-01-25T08:43:41.000Z</time>
      </trkpt>
      <trkpt lat="47.4934" lon="6.74857">
        <ele>344</ele>
        <time>2015-01-25T08:43:43.000Z</time>
      </trkpt>
      <trkpt lat="47.4934" lon="6.74854">
        <ele>345</ele>
        <time>2015-01-25T08:43:44.000Z</time>
      </trkpt>
      <trkpt lat="47.4934" lon="6.74851">
        <ele>345</ele>
        <time>2015-01-25T08:43:45.000Z</time>
      </trkpt>
      <trkpt lat="47.4934" lon="6.74843">
        <ele>346</ele>
        <time>2015-01-25T08:43:48.000Z</time>
      </trkpt>
      <trkpt lat="47.49341" lon="6.74837">
        <ele>347</ele>
        <time>2015-01-25T08:43:50.000Z</time>
      </trkpt>
      <trkpt lat="47.49341" lon="6.74834">
        <ele>347</ele>
        <time>2015-01-25T08:43:51.000Z</time>
      </trkpt>
      <trkpt lat="47.49342" lon="6.74828">
        <ele>347</ele>
        <time>2015-01-25T08:43:53.000Z</time>
      </trkpt>
      <trkpt lat="47.49342" lon="6.74825">
        <ele>347</ele>
        <time>2015-01-25T08:43:54.000Z</time>
      </trkpt>
      <trkpt lat="47.49343" lon="6.7482">
        <ele>347</ele>
        <time>2015-01-25T08:43:56.000Z</time>
      </trkpt>
      <trkpt lat="47.49343" lon="6.74817">
        <ele>347</ele>
        <time>2015-01-25T08:43:57.000Z</time>
      </trkpt>
      <trkpt lat="47.49344" lon="6.74812">
        <ele>346</ele>
        <time>2015-01-25T08:43:59.000Z</time>
      </trkpt>
      <trkpt lat="47.49344" lon="6.74809">
        <ele>346</ele>
        <time>2015-01-25T08:44:00.000Z</time>
      </trkpt>
      <trkpt lat="47.49345" lon="6.74802">
        <ele>346</ele>
        <time>2015-01-25T08:44:02.000Z</time>
      </trkpt>
      <trkpt lat="47.49345" lon="6.74799">
        <ele>346</ele>
        <time>2015-01-25T08:44:03.000Z</time>
      </trkpt>
      <trkpt lat="47.49345" lon="6.74793">
        <ele>346</ele>
        <time>2015-01-25T08:44:05.000Z</time>
      </trkpt>
      <trkpt lat="47.49345" lon="6.7479">
        <ele>347</ele>
        <time>2015-01-25T08:44:06.000Z</time>
      </trkpt>
      <trkpt lat="47.49344" lon="6.74785">
        <ele>347</ele>
        <time>2015-01-25T08:44:08.000Z</time>
      </trkpt>
      <trkpt lat="47.49344" lon="6.74781">
        <ele>347</ele>
        <time>2015-01-25T08:44:09.000Z</time>
      </trkpt>
      <trkpt lat="47.49344" lon="6.74777">
        <ele>348</ele>
        <time>2015-01-25T08:44:10.000Z</time>
      </trkpt>
      <trkpt lat="47.49344" lon="6.74774">
        <ele>348</ele>
        <time>2015-01-25T08:44:11.000Z</time>
      </trkpt>
      <trkpt lat="47.49345" lon="6.74768">
        <ele>349</ele>
        <time>2015-01-25T08:44:13.000Z</time>
      </trkpt>
      <trkpt lat="47.49345" lon="6.74765">
        <ele>349</ele>
        <time>2015-01-25T08:44:14.000Z</time>
      </trkpt>
      <trkpt lat="47.49346" lon="6.7476">
        <ele>349</ele>
        <time>2015-01-25T08:44:16.000Z</time>
      </trkpt>
      <trkpt lat="47.49346" lon="6.74757">
        <ele>350</ele>
        <time>2015-01-25T08:44:17.000Z</time>
      </trkpt>
      <trkpt lat="47.49345" lon="6.7475">
        <ele>352</ele>
        <time>2015-01-25T08:44:19.000Z</time>
      </trkpt>
      <trkpt lat="47.49345" lon="6.74747">
        <ele>352</ele>
        <time>2015-01-25T08:44:20.000Z</time>
      </trkpt>
      <trkpt lat="47.49344" lon="6.74741">
        <ele>352</ele>
        <time>2015-01-25T08:44:22.000Z</time>
      </trkpt>
      <trkpt lat="47.49343" lon="6.74738">
        <ele>352</ele>
        <time>2015-01-25T08:44:23.000Z</time>
      </trkpt>
      <trkpt lat="47.49343" lon="6.74733">
        <ele>351</ele>
        <time>2015-01-25T08:44:26.000Z</time>
      </trkpt>
      <trkpt lat="47.49343" lon="6.74731">
        <ele>351</ele>
        <time>2015-01-25T08:44:27.000Z</time>
      </trkpt>
      <trkpt lat="47.49344" lon="6.74726">
        <ele>351</ele>
        <time>2015-01-25T08:44:29.000Z</time>
      </trkpt>
      <trkpt lat="47.49345" lon="6.74723">
        <ele>351</ele>
        <time>2015-01-25T08:44:30.000Z</time>
      </trkpt>
      <trkpt lat="47.49346" lon="6.7472">
        <ele>351</ele>
        <time>2015-01-25T08:44:31.000Z</time>
      </trkpt>
      <trkpt lat="47.49347" lon="6.74717">
        <ele>351</ele>
        <time>2015-01-25T08:44:32.000Z</time>
      </trkpt>
      <trkpt lat="47.49349" lon="6.74711">
        <ele>351</ele>
        <time>2015-01-25T08:44:34.000Z</time>
      </trkpt>
      <trkpt lat="47.49349" lon="6.74709">
        <ele>351</ele>
        <time>2015-01-25T08:44:35.000Z</time>
      </trkpt>
      <trkpt lat="47.49349" lon="6.74704">
        <ele>351</ele>
        <time>2015-01-25T08:44:37.000Z</time>
      </trkpt>
      <trkpt lat="47.49349" lon="6.74702">
        <ele>351</ele>
        <time>2015-01-25T08:44:38.000Z</time>
      </trkpt>
      <trkpt lat="47.49349" lon="6.74697">
        <ele>352</ele>
        <time>2015-01-25T08:44:40.000Z</time>
      </trkpt>
      <trkpt lat="47.49349" lon="6.74694">
        <ele>352</ele>
        <time>2015-01-25T08:44:41.000Z</time>
      </trkpt>
      <trkpt lat="47.4935" lon="6.74688">
        <ele>352</ele>
        <time>2015-01-25T08:44:43.000Z</time>
      </trkpt>
      <trkpt lat="47.4935" lon="6.74685">
        <ele>353</ele>
        <time>2015-01-25T08:44:44.000Z</time>
      </trkpt>
      <trkpt lat="47.4935" lon="6.74678">
        <ele>354</ele>
        <time>2015-01-25T08:44:47.000Z</time>
      </trkpt>
      <trkpt lat="47.49349" lon="6.74672">
        <ele>354</ele>
        <time>2015-01-25T08:44:49.000Z</time>
      </trkpt>
      <trkpt lat="47.49349" lon="6.74669">
        <ele>354</ele>
        <time>2015-01-25T08:44:50.000Z</time>
      </trkpt>
      <trkpt lat="47.49348" lon="6.74662">
        <ele>355</ele>
        <time>2015-01-25T08:44:52.000Z</time>
      </trkpt>
      <trkpt lat="47.49348" lon="6.74659">
        <ele>355</ele>
        <time>2015-01-25T08:44:53.000Z</time>
      </trkpt>
      <trkpt lat="47.49349" lon="6.74656">
        <ele>355</ele>
        <time>2015-01-25T08:44:54.000Z</time>
      </trkpt>
      <trkpt lat="47.49349" lon="6.74652">
        <ele>355</ele>
        <time>2015-01-25T08:44:55.000Z</time>
      </trkpt>
      <trkpt lat="47.49349" lon="6.74645">
        <ele>354</ele>
        <time>2015-01-25T08:44:57.000Z</time>
      </trkpt>
      <trkpt lat="47.49349" lon="6.74642">
        <ele>354</ele>
        <time>2015-01-25T08:44:58.000Z</time>
      </trkpt>
      <trkpt lat="47.49349" lon="6.74636">
        <ele>353</ele>
        <time>2015-01-25T08:45:00.000Z</time>
      </trkpt>
      <trkpt lat="47.49349" lon="6.74634">
        <ele>353</ele>
        <time>2015-01-25T08:45:01.000Z</time>
      </trkpt>
      <trkpt lat="47.49349" lon="6.74629">
        <ele>353</ele>
        <time>2015-01-25T08:45:03.000Z</time>
      </trkpt>
      <trkpt lat="47.49349" lon="6.74627">
        <ele>353</ele>
        <time>2015-01-25T08:45:04.047Z</time>
      </trkpt>
      <trkpt lat="47.4935" lon="6.74622">
        <ele>353</ele>
        <time>2015-01-25T08:45:06.000Z</time>
      </trkpt>
      <trkpt lat="47.4935" lon="6.74619">
        <ele>353</ele>
        <time>2015-01-25T08:45:07.000Z</time>
      </trkpt>
      <trkpt lat="47.49351" lon="6.74613">
        <ele>353</ele>
        <time>2015-01-25T08:45:09.000Z</time>
      </trkpt>
      <trkpt lat="47.49351" lon="6.74609">
        <ele>353</ele>
        <time>2015-01-25T08:45:10.000Z</time>
      </trkpt>
      <trkpt lat="47.49351" lon="6.74605">
        <ele>354</ele>
        <time>2015-01-25T08:45:11.000Z</time>
      </trkpt>
      <trkpt lat="47.49351" lon="6.74602">
        <ele>354</ele>
        <time>2015-01-25T08:45:12.000Z</time>
      </trkpt>
      <trkpt lat="47.49351" lon="6.74598">
        <ele>354</ele>
        <time>2015-01-25T08:45:13.000Z</time>
      </trkpt>
      <trkpt lat="47.49352" lon="6.74595">
        <ele>354</ele>
        <time>2015-01-25T08:45:14.000Z</time>
      </trkpt>
      <trkpt lat="47.49352" lon="6.74591">
        <ele>355</ele>
        <time>2015-01-25T08:45:15.000Z</time>
      </trkpt>
      <trkpt lat="47.49352" lon="6.74587">
        <ele>355</ele>
        <time>2015-01-25T08:45:16.000Z</time>
      </trkpt>
      <trkpt lat="47.49352" lon="6.74584">
        <ele>355</ele>
        <time>2015-01-25T08:45:17.000Z</time>
      </trkpt>
      <trkpt lat="47.49352" lon="6.7458">
        <ele>356</ele>
        <time>2015-01-25T08:45:18.000Z</time>
      </trkpt>
      <trkpt lat="47.49353" lon="6.74575">
        <ele>356</ele>
        <time>2015-01-25T08:45:20.000Z</time>
      </trkpt>
      <trkpt lat="47.49353" lon="6.74573">
        <ele>355</ele>
        <time>2015-01-25T08:45:21.000Z</time>
      </trkpt>
      <trkpt lat="47.49354" lon="6.74567">
        <ele>355</ele>
        <time>2015-01-25T08:45:23.000Z</time>
      </trkpt>
      <trkpt lat="47.49355" lon="6.74564">
        <ele>355</ele>
        <time>2015-01-25T08:45:24.000Z</time>
      </trkpt>
      <trkpt lat="47.49355" lon="6.74561">
        <ele>355</ele>
        <time>2015-01-25T08:45:25.000Z</time>
      </trkpt>
      <trkpt lat="47.49356" lon="6.74557">
        <ele>355</ele>
        <time>2015-01-25T08:45:26.000Z</time>
      </trkpt>
      <trkpt lat="47.49357" lon="6.74551">
        <ele>354</ele>
        <time>2015-01-25T08:45:28.000Z</time>
      </trkpt>
      <trkpt lat="47.49357" lon="6.74548">
        <ele>354</ele>
        <time>2015-01-25T08:45:29.000Z</time>
      </trkpt>
      <trkpt lat="47.49357" lon="6.74544">
        <ele>354</ele>
        <time>2015-01-25T08:45:30.000Z</time>
      </trkpt>
      <trkpt lat="47.49357" lon="6.74541">
        <ele>354</ele>
        <time>2015-01-25T08:45:31.000Z</time>
      </trkpt>
      <trkpt lat="47.49358" lon="6.74537">
        <ele>355</ele>
        <time>2015-01-25T08:45:32.000Z</time>
      </trkpt>
      <trkpt lat="47.49358" lon="6.74533">
        <ele>355</ele>
        <time>2015-01-25T08:45:33.000Z</time>
      </trkpt>
      <trkpt lat="47.49358" lon="6.74527">
        <ele>355</ele>
        <time>2015-01-25T08:45:35.000Z</time>
      </trkpt>
      <trkpt lat="47.49358" lon="6.74524">
        <ele>355</ele>
        <time>2015-01-25T08:45:36.000Z</time>
      </trkpt>
      <trkpt lat="47.49358" lon="6.74519">
        <ele>355</ele>
        <time>2015-01-25T08:45:38.000Z</time>
      </trkpt>
      <trkpt lat="47.49358" lon="6.74517">
        <ele>355</ele>
        <time>2015-01-25T08:45:39.000Z</time>
      </trkpt>
      <trkpt lat="47.49358" lon="6.74512">
        <ele>356</ele>
        <time>2015-01-25T08:45:41.000Z</time>
      </trkpt>
      <trkpt lat="47.49358" lon="6.74509">
        <ele>356</ele>
        <time>2015-01-25T08:45:42.000Z</time>
      </trkpt>
      <trkpt lat="47.49358" lon="6.74503">
        <ele>356</ele>
        <time>2015-01-25T08:45:44.000Z</time>
      </trkpt>
      <trkpt lat="47.49357" lon="6.74495">
        <ele>357</ele>
        <time>2015-01-25T08:45:47.000Z</time>
      </trkpt>
      <trkpt lat="47.49357" lon="6.74489">
        <ele>357</ele>
        <time>2015-01-25T08:45:49.000Z</time>
      </trkpt>
      <trkpt lat="47.49357" lon="6.74486">
        <ele>357</ele>
        <time>2015-01-25T08:45:50.000Z</time>
      </trkpt>
      <trkpt lat="47.49356" lon="6.74483">
        <ele>357</ele>
        <time>2015-01-25T08:45:51.000Z</time>
      </trkpt>
      <trkpt lat="47.49356" lon="6.7448">
        <ele>357</ele>
        <time>2015-01-25T08:45:52.000Z</time>
      </trkpt>
      <trkpt lat="47.49355" lon="6.74473">
        <ele>357</ele>
        <time>2015-01-25T08:45:54.000Z</time>
      </trkpt>
      <trkpt lat="47.49354" lon="6.74471">
        <ele>357</ele>
        <time>2015-01-25T08:45:55.000Z</time>
      </trkpt>
      <trkpt lat="47.49353" lon="6.74466">
        <ele>357</ele>
        <time>2015-01-25T08:45:57.000Z</time>
      </trkpt>
      <trkpt lat="47.49352" lon="6.74464">
        <ele>357</ele>
        <time>2015-01-25T08:45:58.000Z</time>
      </trkpt>
      <trkpt lat="47.49352" lon="6.74459">
        <ele>357</ele>
        <time>2015-01-25T08:46:00.000Z</time>
      </trkpt>
      <trkpt lat="47.49352" lon="6.74456">
        <ele>357</ele>
        <time>2015-01-25T08:46:01.000Z</time>
      </trkpt>
      <trkpt lat="47.49352" lon="6.74451">
        <ele>357</ele>
        <time>2015-01-25T08:46:03.000Z</time>
      </trkpt>
      <trkpt lat="47.49352" lon="6.74447">
        <ele>357</ele>
        <time>2015-01-25T08:46:04.000Z</time>
      </trkpt>
      <trkpt lat="47.49352" lon="6.74443">
        <ele>357</ele>
        <time>2015-01-25T08:46:05.000Z</time>
      </trkpt>
      <trkpt lat="47.49352" lon="6.74438">
        <ele>358</ele>
        <time>2015-01-25T08:46:06.000Z</time>
      </trkpt>
      <trkpt lat="47.49352" lon="6.74434">
        <ele>358</ele>
        <time>2015-01-25T08:46:07.000Z</time>
      </trkpt>
      <trkpt lat="47.49352" lon="6.7443">
        <ele>358</ele>
        <time>2015-01-25T08:46:08.000Z</time>
      </trkpt>
      <trkpt lat="47.49352" lon="6.74426">
        <ele>359</ele>
        <time>2015-01-25T08:46:09.000Z</time>
      </trkpt>
      <trkpt lat="47.49352" lon="6.74423">
        <ele>359</ele>
        <time>2015-01-25T08:46:10.000Z</time>
      </trkpt>
      <trkpt lat="47.49352" lon="6.74416">
        <ele>359</ele>
        <time>2015-01-25T08:46:12.000Z</time>
      </trkpt>
      <trkpt lat="47.49352" lon="6.74413">
        <ele>359</ele>
        <time>2015-01-25T08:46:13.000Z</time>
      </trkpt>
      <trkpt lat="47.49351" lon="6.74408">
        <ele>359</ele>
        <time>2015-01-25T08:46:15.000Z</time>
      </trkpt>
      <trkpt lat="47.49351" lon="6.74405">
        <ele>359</ele>
        <time>2015-01-25T08:46:16.000Z</time>
      </trkpt>
      <trkpt lat="47.49351" lon="6.74399">
        <ele>359</ele>
        <time>2015-01-25T08:46:18.000Z</time>
      </trkpt>
      <trkpt lat="47.49351" lon="6.74397">
        <ele>359</ele>
        <time>2015-01-25T08:46:19.000Z</time>
      </trkpt>
      <trkpt lat="47.49352" lon="6.74392">
        <ele>358</ele>
        <time>2015-01-25T08:46:22.000Z</time>
      </trkpt>
      <trkpt lat="47.49352" lon="6.7439">
        <ele>358</ele>
        <time>2015-01-25T08:46:23.000Z</time>
      </trkpt>
      <trkpt lat="47.49355" lon="6.74386">
        <ele>358</ele>
        <time>2015-01-25T08:46:27.000Z</time>
      </trkpt>
      <trkpt lat="47.49356" lon="6.74385">
        <ele>358</ele>
        <time>2015-01-25T08:46:28.000Z</time>
      </trkpt>
      <trkpt lat="47.49358" lon="6.7438">
        <ele>357</ele>
        <time>2015-01-25T08:46:31.000Z</time>
      </trkpt>
      <trkpt lat="47.49358" lon="6.74377">
        <ele>357</ele>
        <time>2015-01-25T08:46:32.000Z</time>
      </trkpt>
      <trkpt lat="47.49359" lon="6.74371">
        <ele>357</ele>
        <time>2015-01-25T08:46:34.000Z</time>
      </trkpt>
      <trkpt lat="47.49359" lon="6.74369">
        <ele>358</ele>
        <time>2015-01-25T08:46:35.000Z</time>
      </trkpt>
      <trkpt lat="47.49359" lon="6.74363">
        <ele>358</ele>
        <time>2015-01-25T08:46:37.000Z</time>
      </trkpt>
      <trkpt lat="47.49358" lon="6.74359">
        <ele>358</ele>
        <time>2015-01-25T08:46:38.000Z</time>
      </trkpt>
      <trkpt lat="47.49358" lon="6.74353">
        <ele>358</ele>
        <time>2015-01-25T08:46:40.000Z</time>
      </trkpt>
      <trkpt lat="47.49358" lon="6.7435">
        <ele>359</ele>
        <time>2015-01-25T08:46:41.000Z</time>
      </trkpt>
      <trkpt lat="47.49358" lon="6.74344">
        <ele>359</ele>
        <time>2015-01-25T08:46:43.000Z</time>
      </trkpt>
      <trkpt lat="47.49358" lon="6.74341">
        <ele>359</ele>
        <time>2015-01-25T08:46:44.000Z</time>
      </trkpt>
      <trkpt lat="47.49359" lon="6.74339">
        <ele>359</ele>
        <time>2015-01-25T08:46:45.000Z</time>
      </trkpt>
      <trkpt lat="47.49359" lon="6.74331">
        <ele>360</ele>
        <time>2015-01-25T08:46:48.000Z</time>
      </trkpt>
      <trkpt lat="47.49359" lon="6.74326">
        <ele>360</ele>
        <time>2015-01-25T08:46:50.000Z</time>
      </trkpt>
      <trkpt lat="47.49359" lon="6.74324">
        <ele>359</ele>
        <time>2015-01-25T08:46:51.000Z</time>
      </trkpt>
      <trkpt lat="47.49359" lon="6.74318">
        <ele>359</ele>
        <time>2015-01-25T08:46:53.000Z</time>
      </trkpt>
      <trkpt lat="47.49359" lon="6.74316">
        <ele>359</ele>
        <time>2015-01-25T08:46:54.000Z</time>
      </trkpt>
      <trkpt lat="47.4936" lon="6.74311">
        <ele>359</ele>
        <time>2015-01-25T08:46:56.000Z</time>
      </trkpt>
      <trkpt lat="47.4936" lon="6.74308">
        <ele>359</ele>
        <time>2015-01-25T08:46:57.000Z</time>
      </trkpt>
      <trkpt lat="47.4936" lon="6.74303">
        <ele>359</ele>
        <time>2015-01-25T08:46:59.000Z</time>
      </trkpt>
      <trkpt lat="47.4936" lon="6.74301">
        <ele>359</ele>
        <time>2015-01-25T08:47:00.000Z</time>
      </trkpt>
      <trkpt lat="47.4936" lon="6.74298">
        <ele>359</ele>
        <time>2015-01-25T08:47:01.000Z</time>
      </trkpt>
      <trkpt lat="47.49361" lon="6.74294">
        <ele>358</ele>
        <time>2015-01-25T08:47:02.000Z</time>
      </trkpt>
      <trkpt lat="47.49362" lon="6.7429">
        <ele>358</ele>
        <time>2015-01-25T08:47:03.000Z</time>
      </trkpt>
      <trkpt lat="47.49362" lon="6.74286">
        <ele>358</ele>
        <time>2015-01-25T08:47:04.000Z</time>
      </trkpt>
      <trkpt lat="47.49363" lon="6.7428">
        <ele>358</ele>
        <time>2015-01-25T08:47:06.000Z</time>
      </trkpt>
      <trkpt lat="47.49364" lon="6.74277">
        <ele>358</ele>
        <time>2015-01-25T08:47:07.000Z</time>
      </trkpt>
      <trkpt lat="47.49366" lon="6.74272">
        <ele>358</ele>
        <time>2015-01-25T08:47:09.000Z</time>
      </trkpt>
      <trkpt lat="47.49366" lon="6.74269">
        <ele>358</ele>
        <time>2015-01-25T08:47:10.000Z</time>
      </trkpt>
      <trkpt lat="47.49367" lon="6.74264">
        <ele>358</ele>
        <time>2015-01-25T08:47:12.000Z</time>
      </trkpt>
      <trkpt lat="47.49367" lon="6.74262">
        <ele>358</ele>
        <time>2015-01-25T08:47:13.000Z</time>
      </trkpt>
      <trkpt lat="47.49369" lon="6.74257">
        <ele>358</ele>
        <time>2015-01-25T08:47:15.000Z</time>
      </trkpt>
      <trkpt lat="47.4937" lon="6.74254">
        <ele>358</ele>
        <time>2015-01-25T08:47:16.000Z</time>
      </trkpt>
      <trkpt lat="47.4937" lon="6.74251">
        <ele>358</ele>
        <time>2015-01-25T08:47:17.000Z</time>
      </trkpt>
      <trkpt lat="47.49371" lon="6.74247">
        <ele>358</ele>
        <time>2015-01-25T08:47:18.000Z</time>
      </trkpt>
      <trkpt lat="47.49374" lon="6.74242">
        <ele>358</ele>
        <time>2015-01-25T08:47:20.000Z</time>
      </trkpt>
      <trkpt lat="47.49375" lon="6.7424">
        <ele>357</ele>
        <time>2015-01-25T08:47:21.000Z</time>
      </trkpt>
      <trkpt lat="47.49378" lon="6.74235">
        <ele>357</ele>
        <time>2015-01-25T08:47:23.000Z</time>
      </trkpt>
      <trkpt lat="47.49379" lon="6.74232">
        <ele>357</ele>
        <time>2015-01-25T08:47:24.000Z</time>
      </trkpt>
      <trkpt lat="47.4938" lon="6.74225">
        <ele>357</ele>
        <time>2015-01-25T08:47:31.000Z</time>
      </trkpt>
      <trkpt lat="47.49379" lon="6.74225">
        <ele>357</ele>
        <time>2015-01-25T08:47:32.000Z</time>
      </trkpt>
      <trkpt lat="47.49379" lon="6.7422">
        <ele>357</ele>
        <time>2015-01-25T08:49:37.000Z</time>
      </trkpt>
      <trkpt lat="47.4938" lon="6.74217">
        <ele>357</ele>
        <time>2015-01-25T08:49:38.000Z</time>
      </trkpt>
      <trkpt lat="47.4938" lon="6.74214">
        <ele>357</ele>
        <time>2015-01-25T08:49:39.000Z</time>
      </trkpt>
      <trkpt lat="47.49381" lon="6.7421">
        <ele>357</ele>
        <time>2015-01-25T08:49:40.000Z</time>
      </trkpt>
      <trkpt lat="47.49381" lon="6.74205">
        <ele>357</ele>
        <time>2015-01-25T08:49:41.000Z</time>
      </trkpt>
      <trkpt lat="47.49382" lon="6.742">
        <ele>357</ele>
        <time>2015-01-25T08:49:42.000Z</time>
      </trkpt>
      <trkpt lat="47.49382" lon="6.74193">
        <ele>357</ele>
        <time>2015-01-25T08:49:43.000Z</time>
      </trkpt>
      <trkpt lat="47.49384" lon="6.74181">
        <ele>356</ele>
        <time>2015-01-25T08:49:44.000Z</time>
      </trkpt>
      <trkpt lat="47.49387" lon="6.74161">
        <ele>355</ele>
        <time>2015-01-25T08:49:47.000Z</time>
      </trkpt>
      <trkpt lat="47.49388" lon="6.74154">
        <ele>355</ele>
        <time>2015-01-25T08:49:48.000Z</time>
      </trkpt>
      <trkpt lat="47.4939" lon="6.74148">
        <ele>355</ele>
        <time>2015-01-25T08:49:49.000Z</time>
      </trkpt>
      <trkpt lat="47.49393" lon="6.74139">
        <ele>355</ele>
        <time>2015-01-25T08:49:50.000Z</time>
      </trkpt>
      <trkpt lat="47.49395" lon="6.74129">
        <ele>355</ele>
        <time>2015-01-25T08:49:51.000Z</time>
      </trkpt>
      <trkpt lat="47.49396" lon="6.74122">
        <ele>355</ele>
        <time>2015-01-25T08:49:52.000Z</time>
      </trkpt>
      <trkpt lat="47.49398" lon="6.74115">
        <ele>355</ele>
        <time>2015-01-25T08:49:53.000Z</time>
      </trkpt>
      <trkpt lat="47.49399" lon="6.74107">
        <ele>354</ele>
        <time>2015-01-25T08:49:54.000Z</time>
      </trkpt>
      <trkpt lat="47.49399" lon="6.74099">
        <ele>353</ele>
        <time>2015-01-25T08:49:55.000Z</time>
      </trkpt>
      <trkpt lat="47.49401" lon="6.74093">
        <ele>353</ele>
        <time>2015-01-25T08:49:56.000Z</time>
      </trkpt>
      <trkpt lat="47.49404" lon="6.74083">
        <ele>351</ele>
        <time>2015-01-25T08:49:57.000Z</time>
      </trkpt>
      <trkpt lat="47.49407" lon="6.74074">
        <ele>351</ele>
        <time>2015-01-25T08:49:58.000Z</time>
      </trkpt>
      <trkpt lat="47.49408" lon="6.74065">
        <ele>352</ele>
        <time>2015-01-25T08:49:59.000Z</time>
      </trkpt>
      <trkpt lat="47.4941" lon="6.74056">
        <ele>353</ele>
        <time>2015-01-25T08:50:00.000Z</time>
      </trkpt>
      <trkpt lat="47.49413" lon="6.74048">
        <ele>353</ele>
        <time>2015-01-25T08:50:01.000Z</time>
      </trkpt>
      <trkpt lat="47.49415" lon="6.74042">
        <ele>353</ele>
        <time>2015-01-25T08:50:02.000Z</time>
      </trkpt>
      <trkpt lat="47.49417" lon="6.74035">
        <ele>353</ele>
        <time>2015-01-25T08:50:03.000Z</time>
      </trkpt>
      <trkpt lat="47.49419" lon="6.74029">
        <ele>350</ele>
        <time>2015-01-25T08:50:04.000Z</time>
      </trkpt>
      <trkpt lat="47.4942" lon="6.74022">
        <ele>350</ele>
        <time>2015-01-25T08:50:05.000Z</time>
      </trkpt>
      <trkpt lat="47.49421" lon="6.74014">
        <ele>350</ele>
        <time>2015-01-25T08:50:06.000Z</time>
      </trkpt>
      <trkpt lat="47.4942" lon="6.74008">
        <ele>349</ele>
        <time>2015-01-25T08:50:07.000Z</time>
      </trkpt>
      <trkpt lat="47.49421" lon="6.74001">
        <ele>349</ele>
        <time>2015-01-25T08:50:08.000Z</time>
      </trkpt>
      <trkpt lat="47.49421" lon="6.73994">
        <ele>349</ele>
        <time>2015-01-25T08:50:09.000Z</time>
      </trkpt>
      <trkpt lat="47.49421" lon="6.73989">
        <ele>348</ele>
        <time>2015-01-25T08:50:10.000Z</time>
      </trkpt>
      <trkpt lat="47.49421" lon="6.73984">
        <ele>348</ele>
        <time>2015-01-25T08:50:11.000Z</time>
      </trkpt>
      <trkpt lat="47.49424" lon="6.73977">
        <ele>348</ele>
        <time>2015-01-25T08:50:12.000Z</time>
      </trkpt>
      <trkpt lat="47.49425" lon="6.73972">
        <ele>348</ele>
        <time>2015-01-25T08:50:13.000Z</time>
      </trkpt>
      <trkpt lat="47.49425" lon="6.73967">
        <ele>347</ele>
        <time>2015-01-25T08:50:14.000Z</time>
      </trkpt>
      <trkpt lat="47.49426" lon="6.73963">
        <ele>347</ele>
        <time>2015-01-25T08:50:15.000Z</time>
      </trkpt>
      <trkpt lat="47.49426" lon="6.73959">
        <ele>347</ele>
        <time>2015-01-25T08:50:16.000Z</time>
      </trkpt>
      <trkpt lat="47.49426" lon="6.73955">
        <ele>347</ele>
        <time>2015-01-25T08:50:17.000Z</time>
      </trkpt>
      <trkpt lat="47.49427" lon="6.7395">
        <ele>347</ele>
        <time>2015-01-25T08:50:18.000Z</time>
      </trkpt>
      <trkpt lat="47.49427" lon="6.73945">
        <ele>347</ele>
        <time>2015-01-25T08:50:19.000Z</time>
      </trkpt>
      <trkpt lat="47.49427" lon="6.73939">
        <ele>347</ele>
        <time>2015-01-25T08:50:20.000Z</time>
      </trkpt>
      <trkpt lat="47.49427" lon="6.73934">
        <ele>346</ele>
        <time>2015-01-25T08:50:21.000Z</time>
      </trkpt>
      <trkpt lat="47.49427" lon="6.73929">
        <ele>346</ele>
        <time>2015-01-25T08:50:22.000Z</time>
      </trkpt>
      <trkpt lat="47.49427" lon="6.73924">
        <ele>346</ele>
        <time>2015-01-25T08:50:23.000Z</time>
      </trkpt>
      <trkpt lat="47.49427" lon="6.73919">
        <ele>346</ele>
        <time>2015-01-25T08:50:24.000Z</time>
      </trkpt>
      <trkpt lat="47.49428" lon="6.73913">
        <ele>344</ele>
        <time>2015-01-25T08:50:25.000Z</time>
      </trkpt>
      <trkpt lat="47.49428" lon="6.73907">
        <ele>344</ele>
        <time>2015-01-25T08:50:26.000Z</time>
      </trkpt>
      <trkpt lat="47.49429" lon="6.73901">
        <ele>344</ele>
        <time>2015-01-25T08:50:27.000Z</time>
      </trkpt>
      <trkpt lat="47.49429" lon="6.73895">
        <ele>343</ele>
        <time>2015-01-25T08:50:28.000Z</time>
      </trkpt>
      <trkpt lat="47.49429" lon="6.73888">
        <ele>343</ele>
        <time>2015-01-25T08:50:29.000Z</time>
      </trkpt>
      <trkpt lat="47.49428" lon="6.73883">
        <ele>343</ele>
        <time>2015-01-25T08:50:30.000Z</time>
      </trkpt>
      <trkpt lat="47.49428" lon="6.73877">
        <ele>342</ele>
        <time>2015-01-25T08:50:31.000Z</time>
      </trkpt>
      <trkpt lat="47.49428" lon="6.73872">
        <ele>342</ele>
        <time>2015-01-25T08:50:32.000Z</time>
      </trkpt>
      <trkpt lat="47.49428" lon="6.73866">
        <ele>342</ele>
        <time>2015-01-25T08:50:33.000Z</time>
      </trkpt>
      <trkpt lat="47.49428" lon="6.73861">
        <ele>342</ele>
        <time>2015-01-25T08:50:34.000Z</time>
      </trkpt>
      <trkpt lat="47.49428" lon="6.73855">
        <ele>342</ele>
        <time>2015-01-25T08:50:35.000Z</time>
      </trkpt>
      <trkpt lat="47.49429" lon="6.7385">
        <ele>342</ele>
        <time>2015-01-25T08:50:36.000Z</time>
      </trkpt>
      <trkpt lat="47.49429" lon="6.73845">
        <ele>342</ele>
        <time>2015-01-25T08:50:37.000Z</time>
      </trkpt>
      <trkpt lat="47.49431" lon="6.73841">
        <ele>342</ele>
        <time>2015-01-25T08:50:38.000Z</time>
      </trkpt>
      <trkpt lat="47.49432" lon="6.73838">
        <ele>342</ele>
        <time>2015-01-25T08:50:39.000Z</time>
      </trkpt>
      <trkpt lat="47.49432" lon="6.73835">
        <ele>342</ele>
        <time>2015-01-25T08:50:40.000Z</time>
      </trkpt>
      <trkpt lat="47.49434" lon="6.73828">
        <ele>341</ele>
        <time>2015-01-25T08:50:42.000Z</time>
      </trkpt>
      <trkpt lat="47.49434" lon="6.73825">
        <ele>341</ele>
        <time>2015-01-25T08:50:43.000Z</time>
      </trkpt>
      <trkpt lat="47.49435" lon="6.73821">
        <ele>341</ele>
        <time>2015-01-25T08:50:44.000Z</time>
      </trkpt>
      <trkpt lat="47.49436" lon="6.7381">
        <ele>340</ele>
        <time>2015-01-25T08:50:47.000Z</time>
      </trkpt>
      <trkpt lat="47.49437" lon="6.73807">
        <ele>340</ele>
        <time>2015-01-25T08:50:48.000Z</time>
      </trkpt>
      <trkpt lat="47.49437" lon="6.73804">
        <ele>340</ele>
        <time>2015-01-25T08:50:49.000Z</time>
      </trkpt>
      <trkpt lat="47.49438" lon="6.738">
        <ele>340</ele>
        <time>2015-01-25T08:50:50.000Z</time>
      </trkpt>
      <trkpt lat="47.49439" lon="6.73797">
        <ele>340</ele>
        <time>2015-01-25T08:50:51.000Z</time>
      </trkpt>
      <trkpt lat="47.49439" lon="6.73794">
        <ele>340</ele>
        <time>2015-01-25T08:50:51.998Z</time>
      </trkpt>
      <trkpt lat="47.49441" lon="6.73791">
        <ele>339</ele>
        <time>2015-01-25T08:50:53.000Z</time>
      </trkpt>
      <trkpt lat="47.49442" lon="6.73788">
        <ele>339</ele>
        <time>2015-01-25T08:50:53.998Z</time>
      </trkpt>
      <trkpt lat="47.49445" lon="6.73785">
        <ele>339</ele>
        <time>2015-01-25T08:50:55.000Z</time>
      </trkpt>
      <trkpt lat="47.49447" lon="6.73782">
        <ele>339</ele>
        <time>2015-01-25T08:50:56.000Z</time>
      </trkpt>
      <trkpt lat="47.49448" lon="6.73779">
        <ele>339</ele>
        <time>2015-01-25T08:50:57.000Z</time>
      </trkpt>
      <trkpt lat="47.4945" lon="6.73776">
        <ele>339</ele>
        <time>2015-01-25T08:50:58.000Z</time>
      </trkpt>
      <trkpt lat="47.49452" lon="6.73773">
        <ele>339</ele>
        <time>2015-01-25T08:50:58.998Z</time>
      </trkpt>
      <trkpt lat="47.49454" lon="6.7377">
        <ele>339</ele>
        <time>2015-01-25T08:51:00.000Z</time>
      </trkpt>
      <trkpt lat="47.49456" lon="6.73767">
        <ele>338</ele>
        <time>2015-01-25T08:51:00.998Z</time>
      </trkpt>
      <trkpt lat="47.49456" lon="6.73763">
        <ele>338</ele>
        <time>2015-01-25T08:51:02.000Z</time>
      </trkpt>
      <trkpt lat="47.49458" lon="6.7376">
        <ele>338</ele>
        <time>2015-01-25T08:51:02.998Z</time>
      </trkpt>
      <trkpt lat="47.49461" lon="6.73756">
        <ele>338</ele>
        <time>2015-01-25T08:51:06.000Z</time>
      </trkpt>
      <trkpt lat="47.49462" lon="6.73755">
        <ele>338</ele>
        <time>2015-01-25T08:51:07.000Z</time>
      </trkpt>
      <trkpt lat="47.49465" lon="6.73752">
        <ele>337</ele>
        <time>2015-01-25T08:51:09.998Z</time>
      </trkpt>
      <trkpt lat="47.49465" lon="6.7375">
        <ele>337</ele>
        <time>2015-01-25T08:51:11.000Z</time>
      </trkpt>
      <trkpt lat="47.49467" lon="6.73746">
        <ele>337</ele>
        <time>2015-01-25T08:51:14.000Z</time>
      </trkpt>
      <trkpt lat="47.49468" lon="6.73744">
        <ele>337</ele>
        <time>2015-01-25T08:51:15.000Z</time>
      </trkpt>
      <trkpt lat="47.4947" lon="6.73739">
        <ele>337</ele>
        <time>2015-01-25T08:51:17.000Z</time>
      </trkpt>
      <trkpt lat="47.49471" lon="6.73736">
        <ele>337</ele>
        <time>2015-01-25T08:51:18.000Z</time>
      </trkpt>
      <trkpt lat="47.49472" lon="6.73733">
        <ele>337</ele>
        <time>2015-01-25T08:51:19.000Z</time>
      </trkpt>
      <trkpt lat="47.49473" lon="6.7373">
        <ele>337</ele>
        <time>2015-01-25T08:51:19.998Z</time>
      </trkpt>
      <trkpt lat="47.49474" lon="6.73724">
        <ele>337</ele>
        <time>2015-01-25T08:51:21.000Z</time>
      </trkpt>
      <trkpt lat="47.49475" lon="6.73721">
        <ele>337</ele>
        <time>2015-01-25T08:51:21.998Z</time>
      </trkpt>
      <trkpt lat="47.49477" lon="6.73715">
        <ele>337</ele>
        <time>2015-01-25T08:51:23.000Z</time>
      </trkpt>
      <trkpt lat="47.49478" lon="6.73712">
        <ele>337</ele>
        <time>2015-01-25T08:51:23.999Z</time>
      </trkpt>
      <trkpt lat="47.49476" lon="6.73707">
        <ele>337</ele>
        <time>2015-01-25T08:51:28.022Z</time>
      </trkpt>
      <trkpt lat="47.49475" lon="6.73706">
        <ele>337</ele>
        <time>2015-01-25T08:51:29.000Z</time>
      </trkpt>
      <trkpt lat="47.49476" lon="6.737">
        <ele>337</ele>
        <time>2015-01-25T08:51:47.000Z</time>
      </trkpt>
      <trkpt lat="47.49477" lon="6.73697">
        <ele>337</ele>
        <time>2015-01-25T08:51:48.000Z</time>
      </trkpt>
      <trkpt lat="47.49478" lon="6.73693">
        <ele>337</ele>
        <time>2015-01-25T08:51:49.000Z</time>
      </trkpt>
      <trkpt lat="47.4948" lon="6.73688">
        <ele>336</ele>
        <time>2015-01-25T08:51:50.000Z</time>
      </trkpt>
      <trkpt lat="47.49482" lon="6.73683">
        <ele>336</ele>
        <time>2015-01-25T08:51:51.000Z</time>
      </trkpt>
      <trkpt lat="47.49484" lon="6.73678">
        <ele>335</ele>
        <time>2015-01-25T08:51:52.000Z</time>
      </trkpt>
      <trkpt lat="47.49486" lon="6.73672">
        <ele>334</ele>
        <time>2015-01-25T08:51:53.000Z</time>
      </trkpt>
      <trkpt lat="47.49488" lon="6.73667">
        <ele>334</ele>
        <time>2015-01-25T08:51:54.000Z</time>
      </trkpt>
      <trkpt lat="47.49491" lon="6.73662">
        <ele>334</ele>
        <time>2015-01-25T08:51:55.000Z</time>
      </trkpt>
      <trkpt lat="47.49493" lon="6.73657">
        <ele>334</ele>
        <time>2015-01-25T08:51:56.000Z</time>
      </trkpt>
      <trkpt lat="47.49495" lon="6.73652">
        <ele>335</ele>
        <time>2015-01-25T08:51:57.000Z</time>
      </trkpt>
      <trkpt lat="47.49497" lon="6.73648">
        <ele>335</ele>
        <time>2015-01-25T08:51:58.000Z</time>
      </trkpt>
      <trkpt lat="47.495" lon="6.73643">
        <ele>336</ele>
        <time>2015-01-25T08:51:59.000Z</time>
      </trkpt>
      <trkpt lat="47.49502" lon="6.73638">
        <ele>332</ele>
        <time>2015-01-25T08:52:00.000Z</time>
      </trkpt>
      <trkpt lat="47.49504" lon="6.73634">
        <ele>332</ele>
        <time>2015-01-25T08:52:01.000Z</time>
      </trkpt>
      <trkpt lat="47.49507" lon="6.7363">
        <ele>332</ele>
        <time>2015-01-25T08:52:02.000Z</time>
      </trkpt>
      <trkpt lat="47.4951" lon="6.73626">
        <ele>332</ele>
        <time>2015-01-25T08:52:03.000Z</time>
      </trkpt>
      <trkpt lat="47.49513" lon="6.73623">
        <ele>332</ele>
        <time>2015-01-25T08:52:04.000Z</time>
      </trkpt>
      <trkpt lat="47.49515" lon="6.73619">
        <ele>332</ele>
        <time>2015-01-25T08:52:05.000Z</time>
      </trkpt>
      <trkpt lat="47.49518" lon="6.73616">
        <ele>332</ele>
        <time>2015-01-25T08:52:06.000Z</time>
      </trkpt>
      <trkpt lat="47.49521" lon="6.73612">
        <ele>332</ele>
        <time>2015-01-25T08:52:07.000Z</time>
      </trkpt>
      <trkpt lat="47.49524" lon="6.73609">
        <ele>332</ele>
        <time>2015-01-25T08:52:08.000Z</time>
      </trkpt>
      <trkpt lat="47.49526" lon="6.73605">
        <ele>332</ele>
        <time>2015-01-25T08:52:09.000Z</time>
      </trkpt>
      <trkpt lat="47.49529" lon="6.73601">
        <ele>332</ele>
        <time>2015-01-25T08:52:10.000Z</time>
      </trkpt>
      <trkpt lat="47.49532" lon="6.73597">
        <ele>332</ele>
        <time>2015-01-25T08:52:11.000Z</time>
      </trkpt>
      <trkpt lat="47.49535" lon="6.73594">
        <ele>332</ele>
        <time>2015-01-25T08:52:12.000Z</time>
      </trkpt>
      <trkpt lat="47.49539" lon="6.7359">
        <ele>332</ele>
        <time>2015-01-25T08:52:13.000Z</time>
      </trkpt>
      <trkpt lat="47.49543" lon="6.73587">
        <ele>332</ele>
        <time>2015-01-25T08:52:14.000Z</time>
      </trkpt>
      <trkpt lat="47.49546" lon="6.73584">
        <ele>332</ele>
        <time>2015-01-25T08:52:15.000Z</time>
      </trkpt>
      <trkpt lat="47.4955" lon="6.73581">
        <ele>333</ele>
        <time>2015-01-25T08:52:16.000Z</time>
      </trkpt>
      <trkpt lat="47.49553" lon="6.73578">
        <ele>333</ele>
        <time>2015-01-25T08:52:17.000Z</time>
      </trkpt>
      <trkpt lat="47.49557" lon="6.73575">
        <ele>333</ele>
        <time>2015-01-25T08:52:18.000Z</time>
      </trkpt>
      <trkpt lat="47.4956" lon="6.73571">
        <ele>333</ele>
        <time>2015-01-25T08:52:19.000Z</time>
      </trkpt>
      <trkpt lat="47.49564" lon="6.73568">
        <ele>333</ele>
        <time>2015-01-25T08:52:20.000Z</time>
      </trkpt>
      <trkpt lat="47.49567" lon="6.73565">
        <ele>333</ele>
        <time>2015-01-25T08:52:21.000Z</time>
      </trkpt>
      <trkpt lat="47.49571" lon="6.73562">
        <ele>333</ele>
        <time>2015-01-25T08:52:22.000Z</time>
      </trkpt>
      <trkpt lat="47.49574" lon="6.73558">
        <ele>333</ele>
        <time>2015-01-25T08:52:23.008Z</time>
      </trkpt>
      <trkpt lat="47.49578" lon="6.73555">
        <ele>333</ele>
        <time>2015-01-25T08:52:24.000Z</time>
      </trkpt>
      <trkpt lat="47.49581" lon="6.73552">
        <ele>333</ele>
        <time>2015-01-25T08:52:25.000Z</time>
      </trkpt>
      <trkpt lat="47.49584" lon="6.73549">
        <ele>331</ele>
        <time>2015-01-25T08:52:26.000Z</time>
      </trkpt>
      <trkpt lat="47.49588" lon="6.73546">
        <ele>331</ele>
        <time>2015-01-25T08:52:27.000Z</time>
      </trkpt>
      <trkpt lat="47.49591" lon="6.73543">
        <ele>331</ele>
        <time>2015-01-25T08:52:28.000Z</time>
      </trkpt>
      <trkpt lat="47.49594" lon="6.7354">
        <ele>332</ele>
        <time>2015-01-25T08:52:29.000Z</time>
      </trkpt>
      <trkpt lat="47.49597" lon="6.73537">
        <ele>332</ele>
        <time>2015-01-25T08:52:30.000Z</time>
      </trkpt>
      <trkpt lat="47.496" lon="6.73533">
        <ele>332</ele>
        <time>2015-01-25T08:52:31.000Z</time>
      </trkpt>
      <trkpt lat="47.49603" lon="6.7353">
        <ele>332</ele>
        <time>2015-01-25T08:52:32.000Z</time>
      </trkpt>
      <trkpt lat="47.49606" lon="6.73526">
        <ele>332</ele>
        <time>2015-01-25T08:52:33.000Z</time>
      </trkpt>
      <trkpt lat="47.49609" lon="6.73522">
        <ele>332</ele>
        <time>2015-01-25T08:52:34.000Z</time>
      </trkpt>
      <trkpt lat="47.49612" lon="6.73519">
        <ele>332</ele>
        <time>2015-01-25T08:52:35.000Z</time>
      </trkpt>
      <trkpt lat="47.49615" lon="6.73516">
        <ele>332</ele>
        <time>2015-01-25T08:52:36.000Z</time>
      </trkpt>
      <trkpt lat="47.49618" lon="6.73513">
        <ele>332</ele>
        <time>2015-01-25T08:52:37.000Z</time>
      </trkpt>
      <trkpt lat="47.49621" lon="6.73509">
        <ele>332</ele>
        <time>2015-01-25T08:52:38.000Z</time>
      </trkpt>
      <trkpt lat="47.49624" lon="6.73506">
        <ele>332</ele>
        <time>2015-01-25T08:52:39.000Z</time>
      </trkpt>
      <trkpt lat="47.49627" lon="6.73502">
        <ele>332</ele>
        <time>2015-01-25T08:52:40.000Z</time>
      </trkpt>
      <trkpt lat="47.4963" lon="6.73499">
        <ele>333</ele>
        <time>2015-01-25T08:52:41.000Z</time>
      </trkpt>
      <trkpt lat="47.49633" lon="6.73495">
        <ele>333</ele>
        <time>2015-01-25T08:52:42.000Z</time>
      </trkpt>
      <trkpt lat="47.49635" lon="6.73491">
        <ele>333</ele>
        <time>2015-01-25T08:52:43.000Z</time>
      </trkpt>
      <trkpt lat="47.49638" lon="6.73487">
        <ele>333</ele>
        <time>2015-01-25T08:52:44.000Z</time>
      </trkpt>
      <trkpt lat="47.49645" lon="6.73477">
        <ele>333</ele>
        <time>2015-01-25T08:52:47.000Z</time>
      </trkpt>
      <trkpt lat="47.49647" lon="6.73474">
        <ele>333</ele>
        <time>2015-01-25T08:52:48.000Z</time>
      </trkpt>
      <trkpt lat="47.4965" lon="6.73471">
        <ele>333</ele>
        <time>2015-01-25T08:52:49.000Z</time>
      </trkpt>
      <trkpt lat="47.49652" lon="6.73468">
        <ele>334</ele>
        <time>2015-01-25T08:52:50.000Z</time>
      </trkpt>
      <trkpt lat="47.49654" lon="6.73465">
        <ele>334</ele>
        <time>2015-01-25T08:52:51.000Z</time>
      </trkpt>
      <trkpt lat="47.49657" lon="6.73462">
        <ele>334</ele>
        <time>2015-01-25T08:52:52.000Z</time>
      </trkpt>
      <trkpt lat="47.4966" lon="6.73458">
        <ele>334</ele>
        <time>2015-01-25T08:52:53.000Z</time>
      </trkpt>
      <trkpt lat="47.49662" lon="6.73455">
        <ele>334</ele>
        <time>2015-01-25T08:52:54.000Z</time>
      </trkpt>
      <trkpt lat="47.49665" lon="6.73451">
        <ele>334</ele>
        <time>2015-01-25T08:52:55.000Z</time>
      </trkpt>
      <trkpt lat="47.49667" lon="6.73448">
        <ele>333</ele>
        <time>2015-01-25T08:52:56.000Z</time>
      </trkpt>
      <trkpt lat="47.4967" lon="6.73444">
        <ele>333</ele>
        <time>2015-01-25T08:52:57.000Z</time>
      </trkpt>
      <trkpt lat="47.49673" lon="6.73441">
        <ele>333</ele>
        <time>2015-01-25T08:52:58.000Z</time>
      </trkpt>
      <trkpt lat="47.49676" lon="6.73437">
        <ele>333</ele>
        <time>2015-01-25T08:52:59.000Z</time>
      </trkpt>
      <trkpt lat="47.49678" lon="6.73434">
        <ele>333</ele>
        <time>2015-01-25T08:53:00.000Z</time>
      </trkpt>
      <trkpt lat="47.49681" lon="6.7343">
        <ele>333</ele>
        <time>2015-01-25T08:53:01.000Z</time>
      </trkpt>
      <trkpt lat="47.49684" lon="6.73426">
        <ele>333</ele>
        <time>2015-01-25T08:53:02.000Z</time>
      </trkpt>
      <trkpt lat="47.49686" lon="6.73422">
        <ele>333</ele>
        <time>2015-01-25T08:53:03.000Z</time>
      </trkpt>
      <trkpt lat="47.49689" lon="6.73418">
        <ele>333</ele>
        <time>2015-01-25T08:53:04.000Z</time>
      </trkpt>
      <trkpt lat="47.49691" lon="6.73414">
        <ele>334</ele>
        <time>2015-01-25T08:53:05.000Z</time>
      </trkpt>
      <trkpt lat="47.49693" lon="6.7341">
        <ele>334</ele>
        <time>2015-01-25T08:53:06.000Z</time>
      </trkpt>
      <trkpt lat="47.49696" lon="6.73405">
        <ele>334</ele>
        <time>2015-01-25T08:53:07.000Z</time>
      </trkpt>
      <trkpt lat="47.49698" lon="6.73401">
        <ele>334</ele>
        <time>2015-01-25T08:53:08.000Z</time>
      </trkpt>
      <trkpt lat="47.49701" lon="6.73398">
        <ele>334</ele>
        <time>2015-01-25T08:53:09.000Z</time>
      </trkpt>
      <trkpt lat="47.49704" lon="6.73395">
        <ele>334</ele>
        <time>2015-01-25T08:53:10.000Z</time>
      </trkpt>
      <trkpt lat="47.49707" lon="6.73391">
        <ele>334</ele>
        <time>2015-01-25T08:53:11.000Z</time>
      </trkpt>
      <trkpt lat="47.4971" lon="6.73387">
        <ele>334</ele>
        <time>2015-01-25T08:53:12.000Z</time>
      </trkpt>
      <trkpt lat="47.49712" lon="6.73384">
        <ele>334</ele>
        <time>2015-01-25T08:53:13.000Z</time>
      </trkpt>
      <trkpt lat="47.49715" lon="6.7338">
        <ele>334</ele>
        <time>2015-01-25T08:53:14.000Z</time>
      </trkpt>
      <trkpt lat="47.49717" lon="6.73376">
        <ele>334</ele>
        <time>2015-01-25T08:53:15.000Z</time>
      </trkpt>
      <trkpt lat="47.4972" lon="6.73372">
        <ele>334</ele>
        <time>2015-01-25T08:53:16.000Z</time>
      </trkpt>
      <trkpt lat="47.49723" lon="6.73369">
        <ele>334</ele>
        <time>2015-01-25T08:53:17.000Z</time>
      </trkpt>
      <trkpt lat="47.49725" lon="6.73365">
        <ele>334</ele>
        <time>2015-01-25T08:53:18.000Z</time>
      </trkpt>
      <trkpt lat="47.49728" lon="6.73361">
        <ele>334</ele>
        <time>2015-01-25T08:53:19.000Z</time>
      </trkpt>
      <trkpt lat="47.49731" lon="6.73357">
        <ele>334</ele>
        <time>2015-01-25T08:53:20.000Z</time>
      </trkpt>
      <trkpt lat="47.49733" lon="6.73353">
        <ele>333</ele>
        <time>2015-01-25T08:53:21.000Z</time>
      </trkpt>
      <trkpt lat="47.49736" lon="6.73349">
        <ele>333</ele>
        <time>2015-01-25T08:53:22.000Z</time>
      </trkpt>
      <trkpt lat="47.49738" lon="6.73345">
        <ele>333</ele>
        <time>2015-01-25T08:53:23.000Z</time>
      </trkpt>
      <trkpt lat="47.49741" lon="6.73341">
        <ele>333</ele>
        <time>2015-01-25T08:53:24.000Z</time>
      </trkpt>
      <trkpt lat="47.49744" lon="6.73337">
        <ele>333</ele>
        <time>2015-01-25T08:53:25.000Z</time>
      </trkpt>
      <trkpt lat="47.49746" lon="6.73333">
        <ele>333</ele>
        <time>2015-01-25T08:53:25.998Z</time>
      </trkpt>
      <trkpt lat="47.49749" lon="6.7333">
        <ele>333</ele>
        <time>2015-01-25T08:53:27.000Z</time>
      </trkpt>
      <trkpt lat="47.49752" lon="6.73326">
        <ele>333</ele>
        <time>2015-01-25T08:53:28.000Z</time>
      </trkpt>
      <trkpt lat="47.49754" lon="6.73322">
        <ele>333</ele>
        <time>2015-01-25T08:53:29.000Z</time>
      </trkpt>
      <trkpt lat="47.49757" lon="6.73317">
        <ele>333</ele>
        <time>2015-01-25T08:53:30.000Z</time>
      </trkpt>
      <trkpt lat="47.49759" lon="6.73313">
        <ele>333</ele>
        <time>2015-01-25T08:53:31.000Z</time>
      </trkpt>
      <trkpt lat="47.49762" lon="6.73309">
        <ele>333</ele>
        <time>2015-01-25T08:53:32.000Z</time>
      </trkpt>
      <trkpt lat="47.49764" lon="6.73305">
        <ele>334</ele>
        <time>2015-01-25T08:53:33.000Z</time>
      </trkpt>
      <trkpt lat="47.49767" lon="6.73301">
        <ele>334</ele>
        <time>2015-01-25T08:53:34.000Z</time>
      </trkpt>
      <trkpt lat="47.49769" lon="6.73297">
        <ele>334</ele>
        <time>2015-01-25T08:53:35.000Z</time>
      </trkpt>
      <trkpt lat="47.49772" lon="6.73293">
        <ele>334</ele>
        <time>2015-01-25T08:53:36.000Z</time>
      </trkpt>
      <trkpt lat="47.49774" lon="6.73289">
        <ele>334</ele>
        <time>2015-01-25T08:53:37.000Z</time>
      </trkpt>
      <trkpt lat="47.49776" lon="6.73285">
        <ele>334</ele>
        <time>2015-01-25T08:53:38.000Z</time>
      </trkpt>
      <trkpt lat="47.49778" lon="6.73281">
        <ele>334</ele>
        <time>2015-01-25T08:53:39.000Z</time>
      </trkpt>
      <trkpt lat="47.49781" lon="6.73277">
        <ele>334</ele>
        <time>2015-01-25T08:53:40.000Z</time>
      </trkpt>
      <trkpt lat="47.49783" lon="6.73273">
        <ele>335</ele>
        <time>2015-01-25T08:53:41.000Z</time>
      </trkpt>
      <trkpt lat="47.49785" lon="6.73269">
        <ele>335</ele>
        <time>2015-01-25T08:53:42.000Z</time>
      </trkpt>
      <trkpt lat="47.49787" lon="6.73265">
        <ele>335</ele>
        <time>2015-01-25T08:53:43.000Z</time>
      </trkpt>
      <trkpt lat="47.49789" lon="6.7326">
        <ele>335</ele>
        <time>2015-01-25T08:53:44.000Z</time>
      </trkpt>
      <trkpt lat="47.49802" lon="6.73228">
        <ele>337</ele>
        <time>2015-01-25T08:53:52.000Z</time>
      </trkpt>
      <trkpt lat="47.49804" lon="6.73224">
        <ele>337</ele>
        <time>2015-01-25T08:53:53.000Z</time>
      </trkpt>
      <trkpt lat="47.49805" lon="6.73219">
        <ele>337</ele>
        <time>2015-01-25T08:53:54.000Z</time>
      </trkpt>
      <trkpt lat="47.49807" lon="6.73214">
        <ele>337</ele>
        <time>2015-01-25T08:53:55.000Z</time>
      </trkpt>
      <trkpt lat="47.49808" lon="6.73209">
        <ele>337</ele>
        <time>2015-01-25T08:53:56.000Z</time>
      </trkpt>
      <trkpt lat="47.4981" lon="6.73203">
        <ele>337</ele>
        <time>2015-01-25T08:53:57.000Z</time>
      </trkpt>
      <trkpt lat="47.49811" lon="6.73198">
        <ele>337</ele>
        <time>2015-01-25T08:53:58.000Z</time>
      </trkpt>
      <trkpt lat="47.49813" lon="6.73194">
        <ele>337</ele>
        <time>2015-01-25T08:53:58.999Z</time>
      </trkpt>
      <trkpt lat="47.49814" lon="6.73189">
        <ele>337</ele>
        <time>2015-01-25T08:54:00.000Z</time>
      </trkpt>
      <trkpt lat="47.49815" lon="6.73184">
        <ele>337</ele>
        <time>2015-01-25T08:54:01.000Z</time>
      </trkpt>
      <trkpt lat="47.49817" lon="6.73179">
        <ele>337</ele>
        <time>2015-01-25T08:54:02.000Z</time>
      </trkpt>
      <trkpt lat="47.49818" lon="6.73175">
        <ele>337</ele>
        <time>2015-01-25T08:54:03.000Z</time>
      </trkpt>
      <trkpt lat="47.49819" lon="6.73171">
        <ele>337</ele>
        <time>2015-01-25T08:54:04.000Z</time>
      </trkpt>
      <trkpt lat="47.49821" lon="6.73167">
        <ele>337</ele>
        <time>2015-01-25T08:54:05.000Z</time>
      </trkpt>
      <trkpt lat="47.49822" lon="6.73163">
        <ele>338</ele>
        <time>2015-01-25T08:54:06.000Z</time>
      </trkpt>
      <trkpt lat="47.49823" lon="6.73159">
        <ele>338</ele>
        <time>2015-01-25T08:54:07.000Z</time>
      </trkpt>
      <trkpt lat="47.49824" lon="6.73154">
        <ele>338</ele>
        <time>2015-01-25T08:54:08.000Z</time>
      </trkpt>
      <trkpt lat="47.49825" lon="6.73149">
        <ele>338</ele>
        <time>2015-01-25T08:54:09.000Z</time>
      </trkpt>
      <trkpt lat="47.49825" lon="6.73145">
        <ele>338</ele>
        <time>2015-01-25T08:54:10.000Z</time>
      </trkpt>
      <trkpt lat="47.49827" lon="6.7314">
        <ele>339</ele>
        <time>2015-01-25T08:54:11.000Z</time>
      </trkpt>
      <trkpt lat="47.49828" lon="6.73136">
        <ele>339</ele>
        <time>2015-01-25T08:54:12.000Z</time>
      </trkpt>
      <trkpt lat="47.49829" lon="6.73132">
        <ele>339</ele>
        <time>2015-01-25T08:54:13.000Z</time>
      </trkpt>
      <trkpt lat="47.4983" lon="6.73127">
        <ele>339</ele>
        <time>2015-01-25T08:54:14.000Z</time>
      </trkpt>
      <trkpt lat="47.49831" lon="6.73123">
        <ele>339</ele>
        <time>2015-01-25T08:54:15.000Z</time>
      </trkpt>
      <trkpt lat="47.49832" lon="6.73118">
        <ele>339</ele>
        <time>2015-01-25T08:54:16.000Z</time>
      </trkpt>
      <trkpt lat="47.49832" lon="6.73114">
        <ele>339</ele>
        <time>2015-01-25T08:54:17.000Z</time>
      </trkpt>
      <trkpt lat="47.49833" lon="6.73109">
        <ele>339</ele>
        <time>2015-01-25T08:54:18.000Z</time>
      </trkpt>
      <trkpt lat="47.49834" lon="6.73105">
        <ele>339</ele>
        <time>2015-01-25T08:54:19.000Z</time>
      </trkpt>
      <trkpt lat="47.49835" lon="6.73101">
        <ele>339</ele>
        <time>2015-01-25T08:54:20.000Z</time>
      </trkpt>
      <trkpt lat="47.49836" lon="6.73097">
        <ele>339</ele>
        <time>2015-01-25T08:54:21.000Z</time>
      </trkpt>
      <trkpt lat="47.49837" lon="6.73093">
        <ele>339</ele>
        <time>2015-01-25T08:54:22.000Z</time>
      </trkpt>
      <trkpt lat="47.49839" lon="6.73089">
        <ele>339</ele>
        <time>2015-01-25T08:54:23.000Z</time>
      </trkpt>
      <trkpt lat="47.4984" lon="6.73084">
        <ele>339</ele>
        <time>2015-01-25T08:54:24.000Z</time>
      </trkpt>
      <trkpt lat="47.49841" lon="6.7308">
        <ele>340</ele>
        <time>2015-01-25T08:54:25.000Z</time>
      </trkpt>
      <trkpt lat="47.49843" lon="6.73076">
        <ele>340</ele>
        <time>2015-01-25T08:54:26.000Z</time>
      </trkpt>
      <trkpt lat="47.49844" lon="6.73072">
        <ele>340</ele>
        <time>2015-01-25T08:54:27.000Z</time>
      </trkpt>
      <trkpt lat="47.49846" lon="6.73068">
        <ele>340</ele>
        <time>2015-01-25T08:54:28.000Z</time>
      </trkpt>
      <trkpt lat="47.49847" lon="6.73063">
        <ele>340</ele>
        <time>2015-01-25T08:54:29.000Z</time>
      </trkpt>
      <trkpt lat="47.49849" lon="6.73059">
        <ele>340</ele>
        <time>2015-01-25T08:54:30.000Z</time>
      </trkpt>
      <trkpt lat="47.49851" lon="6.73054">
        <ele>340</ele>
        <time>2015-01-25T08:54:31.000Z</time>
      </trkpt>
      <trkpt lat="47.49852" lon="6.7305">
        <ele>340</ele>
        <time>2015-01-25T08:54:32.000Z</time>
      </trkpt>
      <trkpt lat="47.49854" lon="6.73045">
        <ele>340</ele>
        <time>2015-01-25T08:54:33.000Z</time>
      </trkpt>
      <trkpt lat="47.49856" lon="6.7304">
        <ele>340</ele>
        <time>2015-01-25T08:54:34.000Z</time>
      </trkpt>
      <trkpt lat="47.49858" lon="6.73036">
        <ele>340</ele>
        <time>2015-01-25T08:54:35.000Z</time>
      </trkpt>
      <trkpt lat="47.49859" lon="6.73031">
        <ele>340</ele>
        <time>2015-01-25T08:54:36.000Z</time>
      </trkpt>
      <trkpt lat="47.49861" lon="6.73027">
        <ele>341</ele>
        <time>2015-01-25T08:54:37.000Z</time>
      </trkpt>
      <trkpt lat="47.49862" lon="6.73022">
        <ele>341</ele>
        <time>2015-01-25T08:54:38.000Z</time>
      </trkpt>
      <trkpt lat="47.49863" lon="6.73018">
        <ele>341</ele>
        <time>2015-01-25T08:54:39.000Z</time>
      </trkpt>
      <trkpt lat="47.49865" lon="6.73014">
        <ele>341</ele>
        <time>2015-01-25T08:54:40.000Z</time>
      </trkpt>
      <trkpt lat="47.49867" lon="6.73011">
        <ele>341</ele>
        <time>2015-01-25T08:54:41.000Z</time>
      </trkpt>
      <trkpt lat="47.49869" lon="6.73007">
        <ele>341</ele>
        <time>2015-01-25T08:54:42.000Z</time>
      </trkpt>
      <trkpt lat="47.49871" lon="6.73002">
        <ele>341</ele>
        <time>2015-01-25T08:54:43.000Z</time>
      </trkpt>
      <trkpt lat="47.49873" lon="6.72998">
        <ele>342</ele>
        <time>2015-01-25T08:54:44.000Z</time>
      </trkpt>
      <trkpt lat="47.49878" lon="6.72984">
        <ele>342</ele>
        <time>2015-01-25T08:54:47.000Z</time>
      </trkpt>
      <trkpt lat="47.4988" lon="6.7298">
        <ele>342</ele>
        <time>2015-01-25T08:54:48.000Z</time>
      </trkpt>
      <trkpt lat="47.49881" lon="6.72976">
        <ele>342</ele>
        <time>2015-01-25T08:54:49.000Z</time>
      </trkpt>
      <trkpt lat="47.49882" lon="6.72972">
        <ele>342</ele>
        <time>2015-01-25T08:54:50.000Z</time>
      </trkpt>
      <trkpt lat="47.49884" lon="6.72968">
        <ele>342</ele>
        <time>2015-01-25T08:54:51.000Z</time>
      </trkpt>
      <trkpt lat="47.49885" lon="6.72964">
        <ele>342</ele>
        <time>2015-01-25T08:54:52.000Z</time>
      </trkpt>
      <trkpt lat="47.49887" lon="6.7296">
        <ele>342</ele>
        <time>2015-01-25T08:54:53.000Z</time>
      </trkpt>
      <trkpt lat="47.49888" lon="6.72956">
        <ele>342</ele>
        <time>2015-01-25T08:54:54.000Z</time>
      </trkpt>
      <trkpt lat="47.4989" lon="6.72952">
        <ele>342</ele>
        <time>2015-01-25T08:54:55.000Z</time>
      </trkpt>
      <trkpt lat="47.49892" lon="6.7295">
        <ele>342</ele>
        <time>2015-01-25T08:54:56.000Z</time>
      </trkpt>
      <trkpt lat="47.49894" lon="6.72948">
        <ele>342</ele>
        <time>2015-01-25T08:54:57.000Z</time>
      </trkpt>
      <trkpt lat="47.49898" lon="6.72946">
        <ele>342</ele>
        <time>2015-01-25T08:54:59.000Z</time>
      </trkpt>
      <trkpt lat="47.499" lon="6.72947">
        <ele>342</ele>
        <time>2015-01-25T08:55:00.000Z</time>
      </trkpt>
      <trkpt lat="47.49903" lon="6.72948">
        <ele>342</ele>
        <time>2015-01-25T08:55:02.000Z</time>
      </trkpt>
      <trkpt lat="47.49905" lon="6.7295">
        <ele>341</ele>
        <time>2015-01-25T08:55:03.000Z</time>
      </trkpt>
      <trkpt lat="47.49908" lon="6.72953">
        <ele>341</ele>
        <time>2015-01-25T08:55:06.000Z</time>
      </trkpt>
      <trkpt lat="47.49908" lon="6.72954">
        <ele>341</ele>
        <time>2015-01-25T08:55:07.000Z</time>
      </trkpt>
      <trkpt lat="47.49912" lon="6.72957">
        <ele>341</ele>
        <time>2015-01-25T08:55:44.000Z</time>
      </trkpt>
      <trkpt lat="47.49933" lon="6.72963">
        <ele>339</ele>
        <time>2015-01-25T08:55:52.000Z</time>
      </trkpt>
      <trkpt lat="47.49937" lon="6.72964">
        <ele>339</ele>
        <time>2015-01-25T08:55:53.000Z</time>
      </trkpt>
      <trkpt lat="47.49941" lon="6.72965">
        <ele>339</ele>
        <time>2015-01-25T08:55:54.000Z</time>
      </trkpt>
      <trkpt lat="47.49945" lon="6.72966">
        <ele>339</ele>
        <time>2015-01-25T08:55:55.000Z</time>
      </trkpt>
      <trkpt lat="47.49949" lon="6.72966">
        <ele>339</ele>
        <time>2015-01-25T08:55:56.000Z</time>
      </trkpt>
      <trkpt lat="47.49954" lon="6.72967">
        <ele>339</ele>
        <time>2015-01-25T08:55:57.000Z</time>
      </trkpt>
      <trkpt lat="47.49958" lon="6.72967">
        <ele>339</ele>
        <time>2015-01-25T08:55:58.000Z</time>
      </trkpt>
      <trkpt lat="47.49962" lon="6.72967">
        <ele>339</ele>
        <time>2015-01-25T08:55:59.000Z</time>
      </trkpt>
      <trkpt lat="47.49965" lon="6.72968">
        <ele>339</ele>
        <time>2015-01-25T08:56:00.000Z</time>
      </trkpt>
      <trkpt lat="47.49968" lon="6.72969">
        <ele>339</ele>
        <time>2015-01-25T08:56:01.000Z</time>
      </trkpt>
      <trkpt lat="47.49971" lon="6.7297">
        <ele>338</ele>
        <time>2015-01-25T08:56:02.000Z</time>
      </trkpt>
      <trkpt lat="47.49974" lon="6.72972">
        <ele>338</ele>
        <time>2015-01-25T08:56:03.000Z</time>
      </trkpt>
      <trkpt lat="47.49976" lon="6.72974">
        <ele>338</ele>
        <time>2015-01-25T08:56:04.000Z</time>
      </trkpt>
      <trkpt lat="47.49979" lon="6.72977">
        <ele>338</ele>
        <time>2015-01-25T08:56:05.000Z</time>
      </trkpt>
      <trkpt lat="47.49981" lon="6.72981">
        <ele>338</ele>
        <time>2015-01-25T08:56:06.000Z</time>
      </trkpt>
      <trkpt lat="47.49983" lon="6.72986">
        <ele>338</ele>
        <time>2015-01-25T08:56:07.000Z</time>
      </trkpt>
      <trkpt lat="47.49985" lon="6.72992">
        <ele>338</ele>
        <time>2015-01-25T08:56:08.000Z</time>
      </trkpt>
      <trkpt lat="47.49987" lon="6.72998">
        <ele>338</ele>
        <time>2015-01-25T08:56:09.000Z</time>
      </trkpt>
      <trkpt lat="47.4999" lon="6.73004">
        <ele>337</ele>
        <time>2015-01-25T08:56:10.000Z</time>
      </trkpt>
      <trkpt lat="47.49992" lon="6.7301">
        <ele>337</ele>
        <time>2015-01-25T08:56:11.000Z</time>
      </trkpt>
      <trkpt lat="47.49994" lon="6.73015">
        <ele>337</ele>
        <time>2015-01-25T08:56:12.000Z</time>
      </trkpt>
      <trkpt lat="47.49997" lon="6.7302">
        <ele>337</ele>
        <time>2015-01-25T08:56:13.000Z</time>
      </trkpt>
      <trkpt lat="47.5" lon="6.73025">
        <ele>337</ele>
        <time>2015-01-25T08:56:14.000Z</time>
      </trkpt>
      <trkpt lat="47.50003" lon="6.73029">
        <ele>337</ele>
        <time>2015-01-25T08:56:15.000Z</time>
      </trkpt>
      <trkpt lat="47.50006" lon="6.73034">
        <ele>337</ele>
        <time>2015-01-25T08:56:16.000Z</time>
      </trkpt>
      <trkpt lat="47.50009" lon="6.73038">
        <ele>337</ele>
        <time>2015-01-25T08:56:17.000Z</time>
      </trkpt>
      <trkpt lat="47.50012" lon="6.73042">
        <ele>337</ele>
        <time>2015-01-25T08:56:18.000Z</time>
      </trkpt>
      <trkpt lat="47.50016" lon="6.73046">
        <ele>337</ele>
        <time>2015-01-25T08:56:19.000Z</time>
      </trkpt>
      <trkpt lat="47.50019" lon="6.7305">
        <ele>337</ele>
        <time>2015-01-25T08:56:20.000Z</time>
      </trkpt>
      <trkpt lat="47.50022" lon="6.73053">
        <ele>337</ele>
        <time>2015-01-25T08:56:21.000Z</time>
      </trkpt>
      <trkpt lat="47.50026" lon="6.73057">
        <ele>337</ele>
        <time>2015-01-25T08:56:22.000Z</time>
      </trkpt>
      <trkpt lat="47.50029" lon="6.73061">
        <ele>337</ele>
        <time>2015-01-25T08:56:23.000Z</time>
      </trkpt>
      <trkpt lat="47.50032" lon="6.73064">
        <ele>337</ele>
        <time>2015-01-25T08:56:24.000Z</time>
      </trkpt>
      <trkpt lat="47.50036" lon="6.73067">
        <ele>337</ele>
        <time>2015-01-25T08:56:25.000Z</time>
      </trkpt>
      <trkpt lat="47.5004" lon="6.7307">
        <ele>337</ele>
        <time>2015-01-25T08:56:26.000Z</time>
      </trkpt>
      <trkpt lat="47.50044" lon="6.73073">
        <ele>337</ele>
        <time>2015-01-25T08:56:27.000Z</time>
      </trkpt>
      <trkpt lat="47.50047" lon="6.73075">
        <ele>337</ele>
        <time>2015-01-25T08:56:28.000Z</time>
      </trkpt>
      <trkpt lat="47.50051" lon="6.73078">
        <ele>337</ele>
        <time>2015-01-25T08:56:29.000Z</time>
      </trkpt>
      <trkpt lat="47.50055" lon="6.73081">
        <ele>337</ele>
        <time>2015-01-25T08:56:30.000Z</time>
      </trkpt>
      <trkpt lat="47.50058" lon="6.73085">
        <ele>337</ele>
        <time>2015-01-25T08:56:31.000Z</time>
      </trkpt>
      <trkpt lat="47.50061" lon="6.73089">
        <ele>337</ele>
        <time>2015-01-25T08:56:32.000Z</time>
      </trkpt>
      <trkpt lat="47.50065" lon="6.73092">
        <ele>337</ele>
        <time>2015-01-25T08:56:33.000Z</time>
      </trkpt>
      <trkpt lat="47.50069" lon="6.73096">
        <ele>337</ele>
        <time>2015-01-25T08:56:34.000Z</time>
      </trkpt>
      <trkpt lat="47.50072" lon="6.73099">
        <ele>337</ele>
        <time>2015-01-25T08:56:35.000Z</time>
      </trkpt>
      <trkpt lat="47.50076" lon="6.73103">
        <ele>337</ele>
        <time>2015-01-25T08:56:36.000Z</time>
      </trkpt>
      <trkpt lat="47.5008" lon="6.73106">
        <ele>337</ele>
        <time>2015-01-25T08:56:37.000Z</time>
      </trkpt>
      <trkpt lat="47.50084" lon="6.73109">
        <ele>339</ele>
        <time>2015-01-25T08:56:38.000Z</time>
      </trkpt>
      <trkpt lat="47.50088" lon="6.73112">
        <ele>339</ele>
        <time>2015-01-25T08:56:39.000Z</time>
      </trkpt>
      <trkpt lat="47.50092" lon="6.73114">
        <ele>339</ele>
        <time>2015-01-25T08:56:40.000Z</time>
      </trkpt>
      <trkpt lat="47.50096" lon="6.73115">
        <ele>339</ele>
        <time>2015-01-25T08:56:41.000Z</time>
      </trkpt>
      <trkpt lat="47.501" lon="6.73117">
        <ele>339</ele>
        <time>2015-01-25T08:56:42.000Z</time>
      </trkpt>
      <trkpt lat="47.50104" lon="6.73117">
        <ele>339</ele>
        <time>2015-01-25T08:56:43.000Z</time>
      </trkpt>
      <trkpt lat="47.50108" lon="6.73118">
        <ele>339</ele>
        <time>2015-01-25T08:56:44.000Z</time>
      </trkpt>
      <trkpt lat="47.50133" lon="6.7312">
        <ele>340</ele>
        <time>2015-01-25T08:56:52.000Z</time>
      </trkpt>
      <trkpt lat="47.50136" lon="6.7312">
        <ele>340</ele>
        <time>2015-01-25T08:56:53.000Z</time>
      </trkpt>
      <trkpt lat="47.50139" lon="6.7312">
        <ele>340</ele>
        <time>2015-01-25T08:56:54.000Z</time>
      </trkpt>
      <trkpt lat="47.50143" lon="6.73121">
        <ele>340</ele>
        <time>2015-01-25T08:56:55.000Z</time>
      </trkpt>
      <trkpt lat="47.50146" lon="6.73121">
        <ele>340</ele>
        <time>2015-01-25T08:56:56.000Z</time>
      </trkpt>
      <trkpt lat="47.5015" lon="6.73121">
        <ele>340</ele>
        <time>2015-01-25T08:56:57.000Z</time>
      </trkpt>
      <trkpt lat="47.50153" lon="6.73122">
        <ele>340</ele>
        <time>2015-01-25T08:56:58.000Z</time>
      </trkpt>
      <trkpt lat="47.50156" lon="6.73123">
        <ele>340</ele>
        <time>2015-01-25T08:56:59.000Z</time>
      </trkpt>
      <trkpt lat="47.50158" lon="6.73125">
        <ele>340</ele>
        <time>2015-01-25T08:57:00.000Z</time>
      </trkpt>
      <trkpt lat="47.50161" lon="6.73127">
        <ele>340</ele>
        <time>2015-01-25T08:57:01.000Z</time>
      </trkpt>
      <trkpt lat="47.50163" lon="6.7313">
        <ele>340</ele>
        <time>2015-01-25T08:57:02.000Z</time>
      </trkpt>
      <trkpt lat="47.50165" lon="6.73134">
        <ele>340</ele>
        <time>2015-01-25T08:57:04.000Z</time>
      </trkpt>
      <trkpt lat="47.50166" lon="6.73136">
        <ele>340</ele>
        <time>2015-01-25T08:57:05.000Z</time>
      </trkpt>
      <trkpt lat="47.5017" lon="6.73138">
        <ele>341</ele>
        <time>2015-01-25T08:57:07.000Z</time>
      </trkpt>
      <trkpt lat="47.50172" lon="6.73138">
        <ele>341</ele>
        <time>2015-01-25T08:57:08.000Z</time>
      </trkpt>
      <trkpt lat="47.50175" lon="6.73138">
        <ele>341</ele>
        <time>2015-01-25T08:57:09.000Z</time>
      </trkpt>
      <trkpt lat="47.50177" lon="6.73137">
        <ele>341</ele>
        <time>2015-01-25T08:57:10.000Z</time>
      </trkpt>
      <trkpt lat="47.5018" lon="6.73137">
        <ele>341</ele>
        <time>2015-01-25T08:57:11.000Z</time>
      </trkpt>
      <trkpt lat="47.50182" lon="6.73137">
        <ele>341</ele>
        <time>2015-01-25T08:57:12.000Z</time>
      </trkpt>
      <trkpt lat="47.50185" lon="6.73136">
        <ele>341</ele>
        <time>2015-01-25T08:57:14.000Z</time>
      </trkpt>
      <trkpt lat="47.50186" lon="6.73135">
        <ele>341</ele>
        <time>2015-01-25T08:57:15.000Z</time>
      </trkpt>
      <trkpt lat="47.50189" lon="6.73131">
        <ele>341</ele>
        <time>2015-01-25T08:58:04.000Z</time>
      </trkpt>
      <trkpt lat="47.5019" lon="6.7313">
        <ele>341</ele>
        <time>2015-01-25T08:58:05.000Z</time>
      </trkpt>
      <trkpt lat="47.50194" lon="6.73129">
        <ele>341</ele>
        <time>2015-01-25T09:01:35.000Z</time>
      </trkpt>
      <trkpt lat="47.50194" lon="6.73129">
        <ele>341</ele>
        <time>2015-01-25T09:01:36.000Z</time>
      </trkpt>
      <trkpt lat="47.50193" lon="6.73124">
        <ele>341</ele>
        <time>2015-01-25T09:02:41.000Z</time>
      </trkpt>
      <trkpt lat="47.50193" lon="6.73122">
        <ele>341</ele>
        <time>2015-01-25T09:02:42.000Z</time>
      </trkpt>
      <trkpt lat="47.50195" lon="6.73117">
        <ele>341</ele>
        <time>2015-01-25T09:02:44.000Z</time>
      </trkpt>
      <trkpt lat="47.50199" lon="6.73106">
        <ele>341</ele>
        <time>2015-01-25T09:02:47.000Z</time>
      </trkpt>
      <trkpt lat="47.50201" lon="6.73102">
        <ele>341</ele>
        <time>2015-01-25T09:02:48.000Z</time>
      </trkpt>
      <trkpt lat="47.50203" lon="6.73098">
        <ele>341</ele>
        <time>2015-01-25T09:02:49.000Z</time>
      </trkpt>
      <trkpt lat="47.50205" lon="6.73093">
        <ele>341</ele>
        <time>2015-01-25T09:02:50.000Z</time>
      </trkpt>
      <trkpt lat="47.50207" lon="6.73089">
        <ele>341</ele>
        <time>2015-01-25T09:02:51.000Z</time>
      </trkpt>
      <trkpt lat="47.50209" lon="6.73084">
        <ele>341</ele>
        <time>2015-01-25T09:02:52.000Z</time>
      </trkpt>
      <trkpt lat="47.50211" lon="6.7308">
        <ele>341</ele>
        <time>2015-01-25T09:02:53.000Z</time>
      </trkpt>
      <trkpt lat="47.50213" lon="6.73075">
        <ele>341</ele>
        <time>2015-01-25T09:02:54.000Z</time>
      </trkpt>
      <trkpt lat="47.50215" lon="6.73071">
        <ele>341</ele>
        <time>2015-01-25T09:02:55.000Z</time>
      </trkpt>
      <trkpt lat="47.50217" lon="6.73066">
        <ele>341</ele>
        <time>2015-01-25T09:02:56.000Z</time>
      </trkpt>
      <trkpt lat="47.50219" lon="6.7306">
        <ele>341</ele>
        <time>2015-01-25T09:02:57.000Z</time>
      </trkpt>
      <trkpt lat="47.50221" lon="6.73054">
        <ele>341</ele>
        <time>2015-01-25T09:02:58.000Z</time>
      </trkpt>
      <trkpt lat="47.50224" lon="6.73045">
        <ele>341</ele>
        <time>2015-01-25T09:02:59.000Z</time>
      </trkpt>
      <trkpt lat="47.50226" lon="6.73038">
        <ele>341</ele>
        <time>2015-01-25T09:03:00.000Z</time>
      </trkpt>
      <trkpt lat="47.50229" lon="6.73033">
        <ele>341</ele>
        <time>2015-01-25T09:03:01.000Z</time>
      </trkpt>
      <trkpt lat="47.50231" lon="6.73028">
        <ele>341</ele>
        <time>2015-01-25T09:03:02.000Z</time>
      </trkpt>
      <trkpt lat="47.50234" lon="6.73022">
        <ele>341</ele>
        <time>2015-01-25T09:03:03.000Z</time>
      </trkpt>
      <trkpt lat="47.50235" lon="6.73016">
        <ele>341</ele>
        <time>2015-01-25T09:03:04.000Z</time>
      </trkpt>
      <trkpt lat="47.50237" lon="6.73011">
        <ele>341</ele>
        <time>2015-01-25T09:03:05.000Z</time>
      </trkpt>
      <trkpt lat="47.50239" lon="6.73005">
        <ele>341</ele>
        <time>2015-01-25T09:03:06.000Z</time>
      </trkpt>
      <trkpt lat="47.50242" lon="6.72999">
        <ele>341</ele>
        <time>2015-01-25T09:03:07.000Z</time>
      </trkpt>
      <trkpt lat="47.50245" lon="6.72992">
        <ele>341</ele>
        <time>2015-01-25T09:03:08.000Z</time>
      </trkpt>
      <trkpt lat="47.50247" lon="6.72987">
        <ele>341</ele>
        <time>2015-01-25T09:03:09.000Z</time>
      </trkpt>
      <trkpt lat="47.5025" lon="6.72982">
        <ele>340</ele>
        <time>2015-01-25T09:03:10.000Z</time>
      </trkpt>
      <trkpt lat="47.50252" lon="6.72975">
        <ele>341</ele>
        <time>2015-01-25T09:03:11.000Z</time>
      </trkpt>
      <trkpt lat="47.50255" lon="6.72969">
        <ele>342</ele>
        <time>2015-01-25T09:03:12.000Z</time>
      </trkpt>
      <trkpt lat="47.50257" lon="6.72965">
        <ele>342</ele>
        <time>2015-01-25T09:03:13.000Z</time>
      </trkpt>
      <trkpt lat="47.5026" lon="6.7296">
        <ele>342</ele>
        <time>2015-01-25T09:03:14.000Z</time>
      </trkpt>
      <trkpt lat="47.50261" lon="6.72955">
        <ele>341</ele>
        <time>2015-01-25T09:03:15.000Z</time>
      </trkpt>
      <trkpt lat="47.50263" lon="6.72949">
        <ele>341</ele>
        <time>2015-01-25T09:03:16.000Z</time>
      </trkpt>
      <trkpt lat="47.50264" lon="6.72945">
        <ele>341</ele>
        <time>2015-01-25T09:03:17.000Z</time>
      </trkpt>
      <trkpt lat="47.50265" lon="6.72942">
        <ele>341</ele>
        <time>2015-01-25T09:03:18.000Z</time>
      </trkpt>
      <trkpt lat="47.50267" lon="6.72938">
        <ele>341</ele>
        <time>2015-01-25T09:03:19.000Z</time>
      </trkpt>
      <trkpt lat="47.50269" lon="6.72934">
        <ele>341</ele>
        <time>2015-01-25T09:03:20.000Z</time>
      </trkpt>
      <trkpt lat="47.50271" lon="6.7293">
        <ele>341</ele>
        <time>2015-01-25T09:03:21.000Z</time>
      </trkpt>
      <trkpt lat="47.50272" lon="6.72926">
        <ele>341</ele>
        <time>2015-01-25T09:03:22.000Z</time>
      </trkpt>
      <trkpt lat="47.50274" lon="6.72922">
        <ele>341</ele>
        <time>2015-01-25T09:03:23.000Z</time>
      </trkpt>
      <trkpt lat="47.50276" lon="6.72918">
        <ele>341</ele>
        <time>2015-01-25T09:03:24.000Z</time>
      </trkpt>
      <trkpt lat="47.50277" lon="6.72913">
        <ele>341</ele>
        <time>2015-01-25T09:03:25.000Z</time>
      </trkpt>
      <trkpt lat="47.50279" lon="6.72909">
        <ele>341</ele>
        <time>2015-01-25T09:03:26.000Z</time>
      </trkpt>
      <trkpt lat="47.50281" lon="6.72905">
        <ele>341</ele>
        <time>2015-01-25T09:03:27.000Z</time>
      </trkpt>
      <trkpt lat="47.50283" lon="6.72903">
        <ele>341</ele>
        <time>2015-01-25T09:03:28.000Z</time>
      </trkpt>
      <trkpt lat="47.50287" lon="6.72902">
        <ele>341</ele>
        <time>2015-01-25T09:03:29.000Z</time>
      </trkpt>
      <trkpt lat="47.50294" lon="6.72907">
        <ele>342</ele>
        <time>2015-01-25T09:03:30.000Z</time>
      </trkpt>
      <trkpt lat="47.50299" lon="6.72907">
        <ele>342</ele>
        <time>2015-01-25T09:03:31.000Z</time>
      </trkpt>
      <trkpt lat="47.50303" lon="6.72908">
        <ele>342</ele>
        <time>2015-01-25T09:03:32.000Z</time>
      </trkpt>
      <trkpt lat="47.50307" lon="6.72908">
        <ele>342</ele>
        <time>2015-01-25T09:03:33.000Z</time>
      </trkpt>
      <trkpt lat="47.5031" lon="6.72909">
        <ele>342</ele>
        <time>2015-01-25T09:03:34.000Z</time>
      </trkpt>
      <trkpt lat="47.50312" lon="6.7291">
        <ele>342</ele>
        <time>2015-01-25T09:03:35.000Z</time>
      </trkpt>
      <trkpt lat="47.50316" lon="6.72911">
        <ele>342</ele>
        <time>2015-01-25T09:03:36.000Z</time>
      </trkpt>
      <trkpt lat="47.50319" lon="6.72911">
        <ele>342</ele>
        <time>2015-01-25T09:03:37.000Z</time>
      </trkpt>
      <trkpt lat="47.50323" lon="6.72911">
        <ele>342</ele>
        <time>2015-01-25T09:03:38.000Z</time>
      </trkpt>
      <trkpt lat="47.50326" lon="6.72911">
        <ele>343</ele>
        <time>2015-01-25T09:03:39.000Z</time>
      </trkpt>
      <trkpt lat="47.50329" lon="6.72912">
        <ele>343</ele>
        <time>2015-01-25T09:03:40.000Z</time>
      </trkpt>
      <trkpt lat="47.50332" lon="6.72913">
        <ele>343</ele>
        <time>2015-01-25T09:03:41.000Z</time>
      </trkpt>
      <trkpt lat="47.50335" lon="6.72914">
        <ele>343</ele>
        <time>2015-01-25T09:03:42.000Z</time>
      </trkpt>
      <trkpt lat="47.50338" lon="6.72914">
        <ele>344</ele>
        <time>2015-01-25T09:03:43.000Z</time>
      </trkpt>
      <trkpt lat="47.50342" lon="6.72915">
        <ele>344</ele>
        <time>2015-01-25T09:03:44.000Z</time>
      </trkpt>
      <trkpt lat="47.5036" lon="6.7292">
        <ele>345</ele>
        <time>2015-01-25T09:03:52.000Z</time>
      </trkpt>
      <trkpt lat="47.50364" lon="6.72922">
        <ele>346</ele>
        <time>2015-01-25T09:03:54.000Z</time>
      </trkpt>
      <trkpt lat="47.50367" lon="6.72922">
        <ele>346</ele>
        <time>2015-01-25T09:03:55.000Z</time>
      </trkpt>
      <trkpt lat="47.50369" lon="6.72923">
        <ele>346</ele>
        <time>2015-01-25T09:03:56.000Z</time>
      </trkpt>
      <trkpt lat="47.50372" lon="6.72924">
        <ele>346</ele>
        <time>2015-01-25T09:03:57.000Z</time>
      </trkpt>
      <trkpt lat="47.50374" lon="6.72925">
        <ele>346</ele>
        <time>2015-01-25T09:03:58.000Z</time>
      </trkpt>
      <trkpt lat="47.50377" lon="6.72926">
        <ele>346</ele>
        <time>2015-01-25T09:03:59.000Z</time>
      </trkpt>
      <trkpt lat="47.5038" lon="6.72927">
        <ele>346</ele>
        <time>2015-01-25T09:04:00.000Z</time>
      </trkpt>
      <trkpt lat="47.50383" lon="6.72928">
        <ele>347</ele>
        <time>2015-01-25T09:04:01.000Z</time>
      </trkpt>
      <trkpt lat="47.50386" lon="6.72928">
        <ele>347</ele>
        <time>2015-01-25T09:04:02.000Z</time>
      </trkpt>
      <trkpt lat="47.50389" lon="6.72929">
        <ele>347</ele>
        <time>2015-01-25T09:04:03.000Z</time>
      </trkpt>
      <trkpt lat="47.50392" lon="6.72929">
        <ele>347</ele>
        <time>2015-01-25T09:04:04.000Z</time>
      </trkpt>
      <trkpt lat="47.50395" lon="6.7293">
        <ele>347</ele>
        <time>2015-01-25T09:04:05.000Z</time>
      </trkpt>
      <trkpt lat="47.50398" lon="6.72931">
        <ele>347</ele>
        <time>2015-01-25T09:04:06.000Z</time>
      </trkpt>
      <trkpt lat="47.50401" lon="6.72931">
        <ele>347</ele>
        <time>2015-01-25T09:04:07.000Z</time>
      </trkpt>
      <trkpt lat="47.50404" lon="6.72932">
        <ele>347</ele>
        <time>2015-01-25T09:04:08.000Z</time>
      </trkpt>
      <trkpt lat="47.50406" lon="6.72933">
        <ele>348</ele>
        <time>2015-01-25T09:04:09.000Z</time>
      </trkpt>
      <trkpt lat="47.50409" lon="6.72933">
        <ele>348</ele>
        <time>2015-01-25T09:04:10.000Z</time>
      </trkpt>
      <trkpt lat="47.50411" lon="6.72934">
        <ele>348</ele>
        <time>2015-01-25T09:04:11.000Z</time>
      </trkpt>
      <trkpt lat="47.50414" lon="6.72935">
        <ele>348</ele>
        <time>2015-01-25T09:04:12.000Z</time>
      </trkpt>
      <trkpt lat="47.50416" lon="6.72935">
        <ele>348</ele>
        <time>2015-01-25T09:04:13.000Z</time>
      </trkpt>
      <trkpt lat="47.50419" lon="6.72936">
        <ele>351</ele>
        <time>2015-01-25T09:04:14.000Z</time>
      </trkpt>
      <trkpt lat="47.50421" lon="6.72936">
        <ele>351</ele>
        <time>2015-01-25T09:04:15.000Z</time>
      </trkpt>
      <trkpt lat="47.50424" lon="6.72937">
        <ele>351</ele>
        <time>2015-01-25T09:04:16.000Z</time>
      </trkpt>
      <trkpt lat="47.50426" lon="6.72938">
        <ele>352</ele>
        <time>2015-01-25T09:04:17.000Z</time>
      </trkpt>
      <trkpt lat="47.50429" lon="6.72938">
        <ele>352</ele>
        <time>2015-01-25T09:04:18.000Z</time>
      </trkpt>
      <trkpt lat="47.50431" lon="6.72939">
        <ele>352</ele>
        <time>2015-01-25T09:04:19.000Z</time>
      </trkpt>
      <trkpt lat="47.50435" lon="6.7294">
        <ele>352</ele>
        <time>2015-01-25T09:04:21.000Z</time>
      </trkpt>
      <trkpt lat="47.50437" lon="6.72941">
        <ele>352</ele>
        <time>2015-01-25T09:04:22.000Z</time>
      </trkpt>
      <trkpt lat="47.50439" lon="6.72941">
        <ele>352</ele>
        <time>2015-01-25T09:04:23.000Z</time>
      </trkpt>
      <trkpt lat="47.50442" lon="6.72942">
        <ele>352</ele>
        <time>2015-01-25T09:04:24.000Z</time>
      </trkpt>
      <trkpt lat="47.50444" lon="6.72942">
        <ele>353</ele>
        <time>2015-01-25T09:04:25.000Z</time>
      </trkpt>
      <trkpt lat="47.50446" lon="6.72942">
        <ele>353</ele>
        <time>2015-01-25T09:04:26.000Z</time>
      </trkpt>
      <trkpt lat="47.5045" lon="6.72942">
        <ele>353</ele>
        <time>2015-01-25T09:04:28.000Z</time>
      </trkpt>
      <trkpt lat="47.50453" lon="6.72942">
        <ele>353</ele>
        <time>2015-01-25T09:04:29.000Z</time>
      </trkpt>
      <trkpt lat="47.50457" lon="6.7294">
        <ele>353</ele>
        <time>2015-01-25T09:04:31.000Z</time>
      </trkpt>
      <trkpt lat="47.50459" lon="6.72938">
        <ele>353</ele>
        <time>2015-01-25T09:04:32.000Z</time>
      </trkpt>
      <trkpt lat="47.5046" lon="6.72936">
        <ele>354</ele>
        <time>2015-01-25T09:04:33.000Z</time>
      </trkpt>
      <trkpt lat="47.50462" lon="6.72934">
        <ele>354</ele>
        <time>2015-01-25T09:04:34.000Z</time>
      </trkpt>
      <trkpt lat="47.50464" lon="6.72932">
        <ele>354</ele>
        <time>2015-01-25T09:04:35.000Z</time>
      </trkpt>
      <trkpt lat="47.50466" lon="6.7293">
        <ele>354</ele>
        <time>2015-01-25T09:04:36.000Z</time>
      </trkpt>
      <trkpt lat="47.50467" lon="6.72928">
        <ele>354</ele>
        <time>2015-01-25T09:04:37.000Z</time>
      </trkpt>
      <trkpt lat="47.50469" lon="6.72925">
        <ele>354</ele>
        <time>2015-01-25T09:04:38.000Z</time>
      </trkpt>
      <trkpt lat="47.50471" lon="6.72922">
        <ele>354</ele>
        <time>2015-01-25T09:04:39.000Z</time>
      </trkpt>
      <trkpt lat="47.50473" lon="6.72919">
        <ele>354</ele>
        <time>2015-01-25T09:04:40.000Z</time>
      </trkpt>
      <trkpt lat="47.50475" lon="6.72914">
        <ele>354</ele>
        <time>2015-01-25T09:04:42.000Z</time>
      </trkpt>
      <trkpt lat="47.50476" lon="6.72912">
        <ele>354</ele>
        <time>2015-01-25T09:04:43.000Z</time>
      </trkpt>
      <trkpt lat="47.50478" lon="6.72909">
        <ele>354</ele>
        <time>2015-01-25T09:04:44.000Z</time>
      </trkpt>
      <trkpt lat="47.50491" lon="6.72893">
        <ele>354</ele>
        <time>2015-01-25T09:04:52.000Z</time>
      </trkpt>
      <trkpt lat="47.50494" lon="6.72889">
        <ele>354</ele>
        <time>2015-01-25T09:04:54.000Z</time>
      </trkpt>
      <trkpt lat="47.50496" lon="6.72887">
        <ele>354</ele>
        <time>2015-01-25T09:04:55.000Z</time>
      </trkpt>
      <trkpt lat="47.50498" lon="6.72885">
        <ele>354</ele>
        <time>2015-01-25T09:04:56.000Z</time>
      </trkpt>
      <trkpt lat="47.505" lon="6.72883">
        <ele>354</ele>
        <time>2015-01-25T09:04:57.000Z</time>
      </trkpt>
      <trkpt lat="47.50503" lon="6.72881">
        <ele>362</ele>
        <time>2015-01-25T09:04:59.000Z</time>
      </trkpt>
      <trkpt lat="47.50505" lon="6.72879">
        <ele>362</ele>
        <time>2015-01-25T09:05:00.000Z</time>
      </trkpt>
      <trkpt lat="47.50509" lon="6.72877">
        <ele>363</ele>
        <time>2015-01-25T09:05:02.000Z</time>
      </trkpt>
      <trkpt lat="47.50511" lon="6.72876">
        <ele>363</ele>
        <time>2015-01-25T09:05:03.000Z</time>
      </trkpt>
      <trkpt lat="47.50515" lon="6.72874">
        <ele>363</ele>
        <time>2015-01-25T09:05:05.000Z</time>
      </trkpt>
      <trkpt lat="47.50516" lon="6.72872">
        <ele>363</ele>
        <time>2015-01-25T09:05:06.000Z</time>
      </trkpt>
      <trkpt lat="47.5052" lon="6.72869">
        <ele>363</ele>
        <time>2015-01-25T09:05:08.000Z</time>
      </trkpt>
      <trkpt lat="47.50523" lon="6.72867">
        <ele>364</ele>
        <time>2015-01-25T09:05:09.000Z</time>
      </trkpt>
      <trkpt lat="47.50525" lon="6.72865">
        <ele>364</ele>
        <time>2015-01-25T09:05:10.000Z</time>
      </trkpt>
      <trkpt lat="47.50527" lon="6.72862">
        <ele>364</ele>
        <time>2015-01-25T09:05:11.000Z</time>
      </trkpt>
      <trkpt lat="47.50529" lon="6.72859">
        <ele>364</ele>
        <time>2015-01-25T09:05:12.000Z</time>
      </trkpt>
      <trkpt lat="47.50532" lon="6.72857">
        <ele>364</ele>
        <time>2015-01-25T09:05:13.000Z</time>
      </trkpt>
      <trkpt lat="47.50534" lon="6.72855">
        <ele>364</ele>
        <time>2015-01-25T09:05:14.000Z</time>
      </trkpt>
      <trkpt lat="47.50535" lon="6.72853">
        <ele>364</ele>
        <time>2015-01-25T09:05:15.000Z</time>
      </trkpt>
      <trkpt lat="47.50539" lon="6.7285">
        <ele>365</ele>
        <time>2015-01-25T09:05:17.000Z</time>
      </trkpt>
      <trkpt lat="47.50541" lon="6.72848">
        <ele>365</ele>
        <time>2015-01-25T09:05:18.000Z</time>
      </trkpt>
      <trkpt lat="47.50544" lon="6.72846">
        <ele>365</ele>
        <time>2015-01-25T09:05:20.000Z</time>
      </trkpt>
      <trkpt lat="47.50546" lon="6.72845">
        <ele>366</ele>
        <time>2015-01-25T09:05:21.000Z</time>
      </trkpt>
      <trkpt lat="47.5055" lon="6.72843">
        <ele>366</ele>
        <time>2015-01-25T09:05:23.000Z</time>
      </trkpt>
      <trkpt lat="47.50552" lon="6.72842">
        <ele>366</ele>
        <time>2015-01-25T09:05:24.000Z</time>
      </trkpt>
      <trkpt lat="47.50555" lon="6.72841">
        <ele>367</ele>
        <time>2015-01-25T09:05:26.000Z</time>
      </trkpt>
      <trkpt lat="47.50557" lon="6.7284">
        <ele>367</ele>
        <time>2015-01-25T09:05:27.000Z</time>
      </trkpt>
      <trkpt lat="47.5056" lon="6.72838">
        <ele>367</ele>
        <time>2015-01-25T09:05:29.000Z</time>
      </trkpt>
      <trkpt lat="47.50562" lon="6.72838">
        <ele>367</ele>
        <time>2015-01-25T09:05:30.000Z</time>
      </trkpt>
      <trkpt lat="47.50565" lon="6.72834">
        <ele>368</ele>
        <time>2015-01-25T09:05:33.000Z</time>
      </trkpt>
      <trkpt lat="47.50566" lon="6.72833">
        <ele>367</ele>
        <time>2015-01-25T09:05:34.000Z</time>
      </trkpt>
      <trkpt lat="47.5057" lon="6.7283">
        <ele>368</ele>
        <time>2015-01-25T09:05:38.000Z</time>
      </trkpt>
      <trkpt lat="47.50571" lon="6.72829">
        <ele>368</ele>
        <time>2015-01-25T09:05:39.000Z</time>
      </trkpt>
      <trkpt lat="47.50575" lon="6.72827">
        <ele>368</ele>
        <time>2015-01-25T09:05:43.000Z</time>
      </trkpt>
      <trkpt lat="47.50576" lon="6.72826">
        <ele>368</ele>
        <time>2015-01-25T09:05:44.000Z</time>
      </trkpt>
      <trkpt lat="47.50585" lon="6.72821">
        <ele>374</ele>
        <time>2015-01-25T09:05:52.000Z</time>
      </trkpt>
      <trkpt lat="47.50589" lon="6.7282">
        <ele>375</ele>
        <time>2015-01-25T09:05:57.000Z</time>
      </trkpt>
      <trkpt lat="47.5059" lon="6.7282">
        <ele>375</ele>
        <time>2015-01-25T09:05:58.000Z</time>
      </trkpt>
      <trkpt lat="47.50593" lon="6.72819">
        <ele>375</ele>
        <time>2015-01-25T09:06:00.000Z</time>
      </trkpt>
      <trkpt lat="47.50594" lon="6.72818">
        <ele>376</ele>
        <time>2015-01-25T09:06:01.000Z</time>
      </trkpt>
      <trkpt lat="47.50597" lon="6.72815">
        <ele>376</ele>
        <time>2015-01-25T09:06:03.000Z</time>
      </trkpt>
      <trkpt lat="47.50598" lon="6.72814">
        <ele>376</ele>
        <time>2015-01-25T09:06:04.000Z</time>
      </trkpt>
      <trkpt lat="47.50601" lon="6.72811">
        <ele>377</ele>
        <time>2015-01-25T09:06:06.000Z</time>
      </trkpt>
      <trkpt lat="47.50603" lon="6.72809">
        <ele>377</ele>
        <time>2015-01-25T09:06:07.000Z</time>
      </trkpt>
      <trkpt lat="47.50605" lon="6.72807">
        <ele>377</ele>
        <time>2015-01-25T09:06:08.000Z</time>
      </trkpt>
      <trkpt lat="47.50607" lon="6.72805">
        <ele>378</ele>
        <time>2015-01-25T09:06:09.000Z</time>
      </trkpt>
      <trkpt lat="47.5061" lon="6.72802">
        <ele>378</ele>
        <time>2015-01-25T09:06:11.000Z</time>
      </trkpt>
      <trkpt lat="47.50612" lon="6.728">
        <ele>378</ele>
        <time>2015-01-25T09:06:12.000Z</time>
      </trkpt>
      <trkpt lat="47.50616" lon="6.72797">
        <ele>379</ele>
        <time>2015-01-25T09:06:14.000Z</time>
      </trkpt>
      <trkpt lat="47.50617" lon="6.72795">
        <ele>379</ele>
        <time>2015-01-25T09:06:15.000Z</time>
      </trkpt>
      <trkpt lat="47.5062" lon="6.72791">
        <ele>379</ele>
        <time>2015-01-25T09:06:17.000Z</time>
      </trkpt>
      <trkpt lat="47.50622" lon="6.72789">
        <ele>379</ele>
        <time>2015-01-25T09:06:18.000Z</time>
      </trkpt>
      <trkpt lat="47.50626" lon="6.72786">
        <ele>380</ele>
        <time>2015-01-25T09:06:20.000Z</time>
      </trkpt>
      <trkpt lat="47.50628" lon="6.72785">
        <ele>380</ele>
        <time>2015-01-25T09:06:21.000Z</time>
      </trkpt>
      <trkpt lat="47.5063" lon="6.72784">
        <ele>380</ele>
        <time>2015-01-25T09:06:22.000Z</time>
      </trkpt>
      <trkpt lat="47.50632" lon="6.72783">
        <ele>380</ele>
        <time>2015-01-25T09:06:23.000Z</time>
      </trkpt>
      <trkpt lat="47.50636" lon="6.7278">
        <ele>381</ele>
        <time>2015-01-25T09:06:25.000Z</time>
      </trkpt>
      <trkpt lat="47.50638" lon="6.72778">
        <ele>381</ele>
        <time>2015-01-25T09:06:26.000Z</time>
      </trkpt>
      <trkpt lat="47.50641" lon="6.72775">
        <ele>382</ele>
        <time>2015-01-25T09:06:28.000Z</time>
      </trkpt>
      <trkpt lat="47.50642" lon="6.72773">
        <ele>382</ele>
        <time>2015-01-25T09:06:29.000Z</time>
      </trkpt>
      <trkpt lat="47.50646" lon="6.7277">
        <ele>382</ele>
        <time>2015-01-25T09:06:31.000Z</time>
      </trkpt>
      <trkpt lat="47.50648" lon="6.72769">
        <ele>383</ele>
        <time>2015-01-25T09:06:32.000Z</time>
      </trkpt>
      <trkpt lat="47.5065" lon="6.72766">
        <ele>383</ele>
        <time>2015-01-25T09:06:33.000Z</time>
      </trkpt>
      <trkpt lat="47.50653" lon="6.72764">
        <ele>384</ele>
        <time>2015-01-25T09:06:34.000Z</time>
      </trkpt>
      <trkpt lat="47.50655" lon="6.72762">
        <ele>384</ele>
        <time>2015-01-25T09:06:35.000Z</time>
      </trkpt>
      <trkpt lat="47.50657" lon="6.7276">
        <ele>385</ele>
        <time>2015-01-25T09:06:36.000Z</time>
      </trkpt>
      <trkpt lat="47.50659" lon="6.72758">
        <ele>385</ele>
        <time>2015-01-25T09:06:37.000Z</time>
      </trkpt>
      <trkpt lat="47.50661" lon="6.72756">
        <ele>386</ele>
        <time>2015-01-25T09:06:38.000Z</time>
      </trkpt>
      <trkpt lat="47.50665" lon="6.72753">
        <ele>387</ele>
        <time>2015-01-25T09:06:40.000Z</time>
      </trkpt>
      <trkpt lat="47.50667" lon="6.72751">
        <ele>388</ele>
        <time>2015-01-25T09:06:41.000Z</time>
      </trkpt>
      <trkpt lat="47.50669" lon="6.72749">
        <ele>388</ele>
        <time>2015-01-25T09:06:42.000Z</time>
      </trkpt>
      <trkpt lat="47.50671" lon="6.72746">
        <ele>389</ele>
        <time>2015-01-25T09:06:43.000Z</time>
      </trkpt>
      <trkpt lat="47.50673" lon="6.72744">
        <ele>389</ele>
        <time>2015-01-25T09:06:44.000Z</time>
      </trkpt>
      <trkpt lat="47.50677" lon="6.72737">
        <ele>390</ele>
        <time>2015-01-25T09:06:47.000Z</time>
      </trkpt>
      <trkpt lat="47.5068" lon="6.72732">
        <ele>390</ele>
        <time>2015-01-25T09:06:49.000Z</time>
      </trkpt>
      <trkpt lat="47.50681" lon="6.72729">
        <ele>390</ele>
        <time>2015-01-25T09:06:50.000Z</time>
      </trkpt>
      <trkpt lat="47.50683" lon="6.72727">
        <ele>391</ele>
        <time>2015-01-25T09:06:51.000Z</time>
      </trkpt>
      <trkpt lat="47.50685" lon="6.72725">
        <ele>391</ele>
        <time>2015-01-25T09:06:52.000Z</time>
      </trkpt>
      <trkpt lat="47.50687" lon="6.72724">
        <ele>391</ele>
        <time>2015-01-25T09:06:53.000Z</time>
      </trkpt>
      <trkpt lat="47.50689" lon="6.72722">
        <ele>391</ele>
        <time>2015-01-25T09:06:54.000Z</time>
      </trkpt>
      <trkpt lat="47.50693" lon="6.72719">
        <ele>391</ele>
        <time>2015-01-25T09:06:56.000Z</time>
      </trkpt>
      <trkpt lat="47.50694" lon="6.72717">
        <ele>391</ele>
        <time>2015-01-25T09:06:57.000Z</time>
      </trkpt>
      <trkpt lat="47.50698" lon="6.72714">
        <ele>392</ele>
        <time>2015-01-25T09:06:59.000Z</time>
      </trkpt>
      <trkpt lat="47.507" lon="6.72712">
        <ele>392</ele>
        <time>2015-01-25T09:07:00.000Z</time>
      </trkpt>
      <trkpt lat="47.50702" lon="6.72711">
        <ele>392</ele>
        <time>2015-01-25T09:07:01.000Z</time>
      </trkpt>
      <trkpt lat="47.50704" lon="6.72709">
        <ele>392</ele>
        <time>2015-01-25T09:07:02.000Z</time>
      </trkpt>
      <trkpt lat="47.50708" lon="6.72706">
        <ele>392</ele>
        <time>2015-01-25T09:07:04.000Z</time>
      </trkpt>
      <trkpt lat="47.50709" lon="6.72704">
        <ele>392</ele>
        <time>2015-01-25T09:07:05.000Z</time>
      </trkpt>
      <trkpt lat="47.50712" lon="6.72701">
        <ele>392</ele>
        <time>2015-01-25T09:07:07.000Z</time>
      </trkpt>
      <trkpt lat="47.50713" lon="6.72699">
        <ele>392</ele>
        <time>2015-01-25T09:07:08.000Z</time>
      </trkpt>
      <trkpt lat="47.50716" lon="6.72694">
        <ele>392</ele>
        <time>2015-01-25T09:07:10.000Z</time>
      </trkpt>
      <trkpt lat="47.50717" lon="6.72692">
        <ele>393</ele>
        <time>2015-01-25T09:07:11.000Z</time>
      </trkpt>
      <trkpt lat="47.5072" lon="6.72687">
        <ele>393</ele>
        <time>2015-01-25T09:07:13.000Z</time>
      </trkpt>
      <trkpt lat="47.50722" lon="6.72685">
        <ele>393</ele>
        <time>2015-01-25T09:07:14.000Z</time>
      </trkpt>
      <trkpt lat="47.50723" lon="6.72682">
        <ele>393</ele>
        <time>2015-01-25T09:07:15.000Z</time>
      </trkpt>
      <trkpt lat="47.50725" lon="6.7268">
        <ele>393</ele>
        <time>2015-01-25T09:07:16.000Z</time>
      </trkpt>
      <trkpt lat="47.50728" lon="6.72678">
        <ele>394</ele>
        <time>2015-01-25T09:07:17.000Z</time>
      </trkpt>
      <trkpt lat="47.5073" lon="6.72675">
        <ele>394</ele>
        <time>2015-01-25T09:07:18.000Z</time>
      </trkpt>
      <trkpt lat="47.50732" lon="6.72672">
        <ele>394</ele>
        <time>2015-01-25T09:07:19.000Z</time>
      </trkpt>
      <trkpt lat="47.50734" lon="6.72669">
        <ele>394</ele>
        <time>2015-01-25T09:07:20.000Z</time>
      </trkpt>
      <trkpt lat="47.50737" lon="6.72666">
        <ele>392</ele>
        <time>2015-01-25T09:07:21.000Z</time>
      </trkpt>
      <trkpt lat="47.50739" lon="6.72663">
        <ele>392</ele>
        <time>2015-01-25T09:07:22.000Z</time>
      </trkpt>
      <trkpt lat="47.50741" lon="6.7266">
        <ele>393</ele>
        <time>2015-01-25T09:07:23.000Z</time>
      </trkpt>
      <trkpt lat="47.50744" lon="6.72658">
        <ele>393</ele>
        <time>2015-01-25T09:07:24.000Z</time>
      </trkpt>
      <trkpt lat="47.50747" lon="6.72655">
        <ele>392</ele>
        <time>2015-01-25T09:07:25.000Z</time>
      </trkpt>
      <trkpt lat="47.50749" lon="6.72652">
        <ele>392</ele>
        <time>2015-01-25T09:07:26.000Z</time>
      </trkpt>
      <trkpt lat="47.50752" lon="6.7265">
        <ele>398</ele>
        <time>2015-01-25T09:07:27.000Z</time>
      </trkpt>
      <trkpt lat="47.50754" lon="6.72647">
        <ele>399</ele>
        <time>2015-01-25T09:07:28.000Z</time>
      </trkpt>
      <trkpt lat="47.50757" lon="6.72645">
        <ele>399</ele>
        <time>2015-01-25T09:07:29.000Z</time>
      </trkpt>
      <trkpt lat="47.50759" lon="6.72643">
        <ele>399</ele>
        <time>2015-01-25T09:07:30.000Z</time>
      </trkpt>
      <trkpt lat="47.50761" lon="6.7264">
        <ele>399</ele>
        <time>2015-01-25T09:07:31.000Z</time>
      </trkpt>
      <trkpt lat="47.50763" lon="6.72638">
        <ele>399</ele>
        <time>2015-01-25T09:07:32.000Z</time>
      </trkpt>
      <trkpt lat="47.50764" lon="6.72635">
        <ele>399</ele>
        <time>2015-01-25T09:07:33.000Z</time>
      </trkpt>
      <trkpt lat="47.50766" lon="6.72632">
        <ele>399</ele>
        <time>2015-01-25T09:07:34.000Z</time>
      </trkpt>
      <trkpt lat="47.50768" lon="6.7263">
        <ele>399</ele>
        <time>2015-01-25T09:07:35.000Z</time>
      </trkpt>
      <trkpt lat="47.5077" lon="6.72627">
        <ele>399</ele>
        <time>2015-01-25T09:07:36.000Z</time>
      </trkpt>
      <trkpt lat="47.50772" lon="6.72624">
        <ele>399</ele>
        <time>2015-01-25T09:07:37.000Z</time>
      </trkpt>
      <trkpt lat="47.50774" lon="6.72621">
        <ele>399</ele>
        <time>2015-01-25T09:07:38.000Z</time>
      </trkpt>
      <trkpt lat="47.50775" lon="6.72618">
        <ele>399</ele>
        <time>2015-01-25T09:07:39.000Z</time>
      </trkpt>
      <trkpt lat="47.50777" lon="6.72615">
        <ele>399</ele>
        <time>2015-01-25T09:07:40.000Z</time>
      </trkpt>
      <trkpt lat="47.50779" lon="6.72612">
        <ele>399</ele>
        <time>2015-01-25T09:07:41.000Z</time>
      </trkpt>
      <trkpt lat="47.50782" lon="6.72609">
        <ele>399</ele>
        <time>2015-01-25T09:07:42.000Z</time>
      </trkpt>
      <trkpt lat="47.50784" lon="6.72606">
        <ele>399</ele>
        <time>2015-01-25T09:07:43.000Z</time>
      </trkpt>
      <trkpt lat="47.50786" lon="6.72603">
        <ele>399</ele>
        <time>2015-01-25T09:07:44.000Z</time>
      </trkpt>
      <trkpt lat="47.50801" lon="6.72585">
        <ele>400</ele>
        <time>2015-01-25T09:07:52.000Z</time>
      </trkpt>
      <trkpt lat="47.50804" lon="6.72583">
        <ele>394</ele>
        <time>2015-01-25T09:07:54.000Z</time>
      </trkpt>
      <trkpt lat="47.50806" lon="6.72582">
        <ele>394</ele>
        <time>2015-01-25T09:07:55.000Z</time>
      </trkpt>
      <trkpt lat="47.50808" lon="6.7258">
        <ele>394</ele>
        <time>2015-01-25T09:07:56.000Z</time>
      </trkpt>
      <trkpt lat="47.5081" lon="6.72579">
        <ele>395</ele>
        <time>2015-01-25T09:07:57.000Z</time>
      </trkpt>
      <trkpt lat="47.50813" lon="6.72577">
        <ele>395</ele>
        <time>2015-01-25T09:07:58.000Z</time>
      </trkpt>
      <trkpt lat="47.50815" lon="6.72575">
        <ele>395</ele>
        <time>2015-01-25T09:07:59.000Z</time>
      </trkpt>
      <trkpt lat="47.50817" lon="6.72573">
        <ele>396</ele>
        <time>2015-01-25T09:08:00.000Z</time>
      </trkpt>
      <trkpt lat="47.50821" lon="6.72571">
        <ele>396</ele>
        <time>2015-01-25T09:08:01.000Z</time>
      </trkpt>
      <trkpt lat="47.50824" lon="6.72569">
        <ele>396</ele>
        <time>2015-01-25T09:08:02.000Z</time>
      </trkpt>
      <trkpt lat="47.50827" lon="6.72567">
        <ele>396</ele>
        <time>2015-01-25T09:08:03.000Z</time>
      </trkpt>
      <trkpt lat="47.50831" lon="6.72566">
        <ele>396</ele>
        <time>2015-01-25T09:08:04.000Z</time>
      </trkpt>
      <trkpt lat="47.50834" lon="6.72564">
        <ele>403</ele>
        <time>2015-01-25T09:08:05.000Z</time>
      </trkpt>
      <trkpt lat="47.50836" lon="6.72562">
        <ele>403</ele>
        <time>2015-01-25T09:08:06.000Z</time>
      </trkpt>
      <trkpt lat="47.50839" lon="6.7256">
        <ele>403</ele>
        <time>2015-01-25T09:08:07.000Z</time>
      </trkpt>
      <trkpt lat="47.50841" lon="6.72558">
        <ele>403</ele>
        <time>2015-01-25T09:08:08.000Z</time>
      </trkpt>
      <trkpt lat="47.50844" lon="6.72557">
        <ele>403</ele>
        <time>2015-01-25T09:08:09.000Z</time>
      </trkpt>
      <trkpt lat="47.50846" lon="6.72555">
        <ele>403</ele>
        <time>2015-01-25T09:08:10.000Z</time>
      </trkpt>
      <trkpt lat="47.50849" lon="6.72554">
        <ele>403</ele>
        <time>2015-01-25T09:08:11.000Z</time>
      </trkpt>
      <trkpt lat="47.50852" lon="6.72553">
        <ele>403</ele>
        <time>2015-01-25T09:08:12.000Z</time>
      </trkpt>
      <trkpt lat="47.50854" lon="6.72552">
        <ele>403</ele>
        <time>2015-01-25T09:08:13.000Z</time>
      </trkpt>
      <trkpt lat="47.50856" lon="6.72551">
        <ele>403</ele>
        <time>2015-01-25T09:08:14.000Z</time>
      </trkpt>
      <trkpt lat="47.50858" lon="6.7255">
        <ele>404</ele>
        <time>2015-01-25T09:08:15.000Z</time>
      </trkpt>
      <trkpt lat="47.50862" lon="6.72548">
        <ele>404</ele>
        <time>2015-01-25T09:08:17.000Z</time>
      </trkpt>
      <trkpt lat="47.50864" lon="6.72548">
        <ele>404</ele>
        <time>2015-01-25T09:08:18.000Z</time>
      </trkpt>
      <trkpt lat="47.50868" lon="6.72546">
        <ele>404</ele>
        <time>2015-01-25T09:08:20.000Z</time>
      </trkpt>
      <trkpt lat="47.50869" lon="6.72546">
        <ele>404</ele>
        <time>2015-01-25T09:08:21.000Z</time>
      </trkpt>
      <trkpt lat="47.50873" lon="6.72545">
        <ele>405</ele>
        <time>2015-01-25T09:08:23.000Z</time>
      </trkpt>
      <trkpt lat="47.50875" lon="6.72545">
        <ele>405</ele>
        <time>2015-01-25T09:08:24.000Z</time>
      </trkpt>
      <trkpt lat="47.50878" lon="6.72544">
        <ele>405</ele>
        <time>2015-01-25T09:08:26.000Z</time>
      </trkpt>
      <trkpt lat="47.5088" lon="6.72543">
        <ele>405</ele>
        <time>2015-01-25T09:08:27.000Z</time>
      </trkpt>
      <trkpt lat="47.50883" lon="6.72542">
        <ele>405</ele>
        <time>2015-01-25T09:08:29.000Z</time>
      </trkpt>
      <trkpt lat="47.50884" lon="6.72542">
        <ele>405</ele>
        <time>2015-01-25T09:08:30.000Z</time>
      </trkpt>
      <trkpt lat="47.50887" lon="6.72539">
        <ele>406</ele>
        <time>2015-01-25T09:08:32.000Z</time>
      </trkpt>
      <trkpt lat="47.50889" lon="6.72538">
        <ele>406</ele>
        <time>2015-01-25T09:08:33.000Z</time>
      </trkpt>
      <trkpt lat="47.50892" lon="6.72535">
        <ele>406</ele>
        <time>2015-01-25T09:08:36.000Z</time>
      </trkpt>
      <trkpt lat="47.50894" lon="6.72534">
        <ele>406</ele>
        <time>2015-01-25T09:08:37.000Z</time>
      </trkpt>
      <trkpt lat="47.50897" lon="6.72532">
        <ele>406</ele>
        <time>2015-01-25T09:08:39.000Z</time>
      </trkpt>
      <trkpt lat="47.50899" lon="6.72532">
        <ele>406</ele>
        <time>2015-01-25T09:08:40.000Z</time>
      </trkpt>
      <trkpt lat="47.50902" lon="6.7253">
        <ele>406</ele>
        <time>2015-01-25T09:08:42.000Z</time>
      </trkpt>
      <trkpt lat="47.50904" lon="6.72529">
        <ele>406</ele>
        <time>2015-01-25T09:08:43.000Z</time>
      </trkpt>
      <trkpt lat="47.50906" lon="6.72529">
        <ele>406</ele>
        <time>2015-01-25T09:08:44.000Z</time>
      </trkpt>
      <trkpt lat="47.5091" lon="6.72529">
        <ele>406</ele>
        <time>2015-01-25T09:08:47.000Z</time>
      </trkpt>
      <trkpt lat="47.50913" lon="6.72529">
        <ele>406</ele>
        <time>2015-01-25T09:08:49.000Z</time>
      </trkpt>
      <trkpt lat="47.50915" lon="6.72528">
        <ele>406</ele>
        <time>2015-01-25T09:08:50.000Z</time>
      </trkpt>
      <trkpt lat="47.50917" lon="6.72528">
        <ele>414</ele>
        <time>2015-01-25T09:08:51.000Z</time>
      </trkpt>
      <trkpt lat="47.5092" lon="6.72527">
        <ele>414</ele>
        <time>2015-01-25T09:08:52.000Z</time>
      </trkpt>
      <trkpt lat="47.50922" lon="6.72526">
        <ele>413</ele>
        <time>2015-01-25T09:08:53.000Z</time>
      </trkpt>
      <trkpt lat="47.50924" lon="6.72525">
        <ele>413</ele>
        <time>2015-01-25T09:08:54.000Z</time>
      </trkpt>
      <trkpt lat="47.50928" lon="6.72523">
        <ele>413</ele>
        <time>2015-01-25T09:08:56.000Z</time>
      </trkpt>
      <trkpt lat="47.5093" lon="6.72523">
        <ele>413</ele>
        <time>2015-01-25T09:08:57.000Z</time>
      </trkpt>
      <trkpt lat="47.50933" lon="6.72524">
        <ele>414</ele>
        <time>2015-01-25T09:08:59.000Z</time>
      </trkpt>
      <trkpt lat="47.50934" lon="6.72525">
        <ele>414</ele>
        <time>2015-01-25T09:09:00.000Z</time>
      </trkpt>
      <trkpt lat="47.50938" lon="6.72525">
        <ele>414</ele>
        <time>2015-01-25T09:09:02.000Z</time>
      </trkpt>
      <trkpt lat="47.50939" lon="6.72525">
        <ele>414</ele>
        <time>2015-01-25T09:09:03.000Z</time>
      </trkpt>
      <trkpt lat="47.50944" lon="6.72524">
        <ele>415</ele>
        <time>2015-01-25T09:09:05.000Z</time>
      </trkpt>
      <trkpt lat="47.50946" lon="6.72523">
        <ele>415</ele>
        <time>2015-01-25T09:09:06.000Z</time>
      </trkpt>
      <trkpt lat="47.50948" lon="6.72523">
        <ele>415</ele>
        <time>2015-01-25T09:09:07.000Z</time>
      </trkpt>
      <trkpt lat="47.5095" lon="6.72522">
        <ele>415</ele>
        <time>2015-01-25T09:09:08.000Z</time>
      </trkpt>
      <trkpt lat="47.50954" lon="6.72521">
        <ele>415</ele>
        <time>2015-01-25T09:09:10.000Z</time>
      </trkpt>
      <trkpt lat="47.50956" lon="6.7252">
        <ele>415</ele>
        <time>2015-01-25T09:09:11.000Z</time>
      </trkpt>
      <trkpt lat="47.50959" lon="6.72519">
        <ele>416</ele>
        <time>2015-01-25T09:09:13.000Z</time>
      </trkpt>
      <trkpt lat="47.5096" lon="6.72519">
        <ele>416</ele>
        <time>2015-01-25T09:09:14.000Z</time>
      </trkpt>
      <trkpt lat="47.50963" lon="6.72517">
        <ele>416</ele>
        <time>2015-01-25T09:09:16.000Z</time>
      </trkpt>
      <trkpt lat="47.50965" lon="6.72516">
        <ele>416</ele>
        <time>2015-01-25T09:09:17.000Z</time>
      </trkpt>
      <trkpt lat="47.50969" lon="6.72514">
        <ele>416</ele>
        <time>2015-01-25T09:09:19.000Z</time>
      </trkpt>
      <trkpt lat="47.50971" lon="6.72514">
        <ele>416</ele>
        <time>2015-01-25T09:09:20.000Z</time>
      </trkpt>
      <trkpt lat="47.50975" lon="6.72512">
        <ele>416</ele>
        <time>2015-01-25T09:09:22.000Z</time>
      </trkpt>
      <trkpt lat="47.50977" lon="6.72511">
        <ele>416</ele>
        <time>2015-01-25T09:09:23.000Z</time>
      </trkpt>
      <trkpt lat="47.5098" lon="6.7251">
        <ele>417</ele>
        <time>2015-01-25T09:09:25.000Z</time>
      </trkpt>
      <trkpt lat="47.50981" lon="6.72509">
        <ele>417</ele>
        <time>2015-01-25T09:09:26.000Z</time>
      </trkpt>
      <trkpt lat="47.50985" lon="6.7251">
        <ele>417</ele>
        <time>2015-01-25T09:09:28.000Z</time>
      </trkpt>
      <trkpt lat="47.50986" lon="6.7251">
        <ele>417</ele>
        <time>2015-01-25T09:09:29.000Z</time>
      </trkpt>
      <trkpt lat="47.50991" lon="6.72509">
        <ele>417</ele>
        <time>2015-01-25T09:09:32.000Z</time>
      </trkpt>
      <trkpt lat="47.50992" lon="6.72509">
        <ele>417</ele>
        <time>2015-01-25T09:09:33.000Z</time>
      </trkpt>
      <trkpt lat="47.50995" lon="6.72508">
        <ele>417</ele>
        <time>2015-01-25T09:09:36.000Z</time>
      </trkpt>
      <trkpt lat="47.50997" lon="6.72508">
        <ele>417</ele>
        <time>2015-01-25T09:09:37.000Z</time>
      </trkpt>
      <trkpt lat="47.51" lon="6.72509">
        <ele>420</ele>
        <time>2015-01-25T09:09:39.000Z</time>
      </trkpt>
      <trkpt lat="47.51002" lon="6.72509">
        <ele>420</ele>
        <time>2015-01-25T09:09:40.000Z</time>
      </trkpt>
      <trkpt lat="47.51005" lon="6.7251">
        <ele>420</ele>
        <time>2015-01-25T09:09:42.000Z</time>
      </trkpt>
      <trkpt lat="47.51006" lon="6.72511">
        <ele>420</ele>
        <time>2015-01-25T09:09:43.000Z</time>
      </trkpt>
      <trkpt lat="47.51008" lon="6.72511">
        <ele>421</ele>
        <time>2015-01-25T09:09:44.000Z</time>
      </trkpt>
      <trkpt lat="47.51016" lon="6.72512">
        <ele>422</ele>
        <time>2015-01-25T09:09:52.000Z</time>
      </trkpt>
      <trkpt lat="47.5102" lon="6.72512">
        <ele>422</ele>
        <time>2015-01-25T09:09:55.000Z</time>
      </trkpt>
      <trkpt lat="47.51021" lon="6.72512">
        <ele>423</ele>
        <time>2015-01-25T09:09:56.000Z</time>
      </trkpt>
      <trkpt lat="47.51025" lon="6.72513">
        <ele>423</ele>
        <time>2015-01-25T09:09:59.000Z</time>
      </trkpt>
      <trkpt lat="47.51026" lon="6.72513">
        <ele>423</ele>
        <time>2015-01-25T09:10:00.000Z</time>
      </trkpt>
      <trkpt lat="47.51029" lon="6.72514">
        <ele>424</ele>
        <time>2015-01-25T09:10:03.000Z</time>
      </trkpt>
      <trkpt lat="47.5103" lon="6.72515">
        <ele>424</ele>
        <time>2015-01-25T09:10:04.000Z</time>
      </trkpt>
      <trkpt lat="47.51033" lon="6.72516">
        <ele>424</ele>
        <time>2015-01-25T09:10:06.000Z</time>
      </trkpt>
      <trkpt lat="47.51034" lon="6.72517">
        <ele>424</ele>
        <time>2015-01-25T09:10:07.000Z</time>
      </trkpt>
      <trkpt lat="47.51038" lon="6.72517">
        <ele>425</ele>
        <time>2015-01-25T09:10:09.000Z</time>
      </trkpt>
      <trkpt lat="47.51039" lon="6.72517">
        <ele>425</ele>
        <time>2015-01-25T09:10:10.000Z</time>
      </trkpt>
      <trkpt lat="47.51042" lon="6.72517">
        <ele>425</ele>
        <time>2015-01-25T09:10:12.000Z</time>
      </trkpt>
      <trkpt lat="47.51044" lon="6.72517">
        <ele>425</ele>
        <time>2015-01-25T09:10:13.000Z</time>
      </trkpt>
      <trkpt lat="47.51047" lon="6.72518">
        <ele>426</ele>
        <time>2015-01-25T09:10:16.000Z</time>
      </trkpt>
      <trkpt lat="47.51048" lon="6.72519">
        <ele>426</ele>
        <time>2015-01-25T09:10:17.000Z</time>
      </trkpt>
      <trkpt lat="47.51052" lon="6.72519">
        <ele>426</ele>
        <time>2015-01-25T09:10:20.000Z</time>
      </trkpt>
      <trkpt lat="47.51053" lon="6.72519">
        <ele>426</ele>
        <time>2015-01-25T09:10:21.000Z</time>
      </trkpt>
      <trkpt lat="47.51057" lon="6.7252">
        <ele>426</ele>
        <time>2015-01-25T09:10:25.000Z</time>
      </trkpt>
      <trkpt lat="47.51058" lon="6.7252">
        <ele>427</ele>
        <time>2015-01-25T09:10:26.000Z</time>
      </trkpt>
      <trkpt lat="47.51061" lon="6.72521">
        <ele>427</ele>
        <time>2015-01-25T09:10:28.000Z</time>
      </trkpt>
      <trkpt lat="47.51063" lon="6.72521">
        <ele>427</ele>
        <time>2015-01-25T09:10:29.000Z</time>
      </trkpt>
      <trkpt lat="47.51067" lon="6.72521">
        <ele>427</ele>
        <time>2015-01-25T09:10:31.000Z</time>
      </trkpt>
      <trkpt lat="47.51069" lon="6.7252">
        <ele>427</ele>
        <time>2015-01-25T09:10:32.000Z</time>
      </trkpt>
      <trkpt lat="47.51073" lon="6.7252">
        <ele>428</ele>
        <time>2015-01-25T09:10:34.000Z</time>
      </trkpt>
      <trkpt lat="47.51074" lon="6.7252">
        <ele>428</ele>
        <time>2015-01-25T09:10:35.000Z</time>
      </trkpt>
      <trkpt lat="47.51078" lon="6.72523">
        <ele>428</ele>
        <time>2015-01-25T09:10:39.000Z</time>
      </trkpt>
      <trkpt lat="47.51079" lon="6.72523">
        <ele>428</ele>
        <time>2015-01-25T09:10:40.000Z</time>
      </trkpt>
      <trkpt lat="47.51083" lon="6.72524">
        <ele>428</ele>
        <time>2015-01-25T09:10:43.000Z</time>
      </trkpt>
      <trkpt lat="47.51084" lon="6.72524">
        <ele>431</ele>
        <time>2015-01-25T09:10:44.000Z</time>
      </trkpt>
      <trkpt lat="47.51095" lon="6.72528">
        <ele>431</ele>
        <time>2015-01-25T09:10:52.000Z</time>
      </trkpt>
      <trkpt lat="47.51091" lon="6.72528">
        <ele>431</ele>
        <time>2015-01-25T09:11:06.000Z</time>
      </trkpt>
      <trkpt lat="47.5109" lon="6.7253">
        <ele>431</ele>
        <time>2015-01-25T09:11:07.000Z</time>
      </trkpt>
      <trkpt lat="47.51092" lon="6.72528">
        <ele>431</ele>
        <time>2015-01-25T09:11:44.000Z</time>
      </trkpt>
      <trkpt lat="47.51105" lon="6.72532">
        <ele>431</ele>
        <time>2015-01-25T09:11:52.000Z</time>
      </trkpt>
      <trkpt lat="47.51109" lon="6.72534">
        <ele>431</ele>
        <time>2015-01-25T09:11:55.000Z</time>
      </trkpt>
      <trkpt lat="47.5111" lon="6.72535">
        <ele>431</ele>
        <time>2015-01-25T09:11:56.000Z</time>
      </trkpt>
      <trkpt lat="47.51114" lon="6.72536">
        <ele>431</ele>
        <time>2015-01-25T09:11:58.000Z</time>
      </trkpt>
      <trkpt lat="47.51116" lon="6.72536">
        <ele>431</ele>
        <time>2015-01-25T09:11:59.000Z</time>
      </trkpt>
      <trkpt lat="47.5112" lon="6.72538">
        <ele>431</ele>
        <time>2015-01-25T09:12:01.000Z</time>
      </trkpt>
      <trkpt lat="47.51121" lon="6.72539">
        <ele>431</ele>
        <time>2015-01-25T09:12:02.000Z</time>
      </trkpt>
      <trkpt lat="47.51125" lon="6.72541">
        <ele>431</ele>
        <time>2015-01-25T09:12:04.000Z</time>
      </trkpt>
      <trkpt lat="47.51127" lon="6.72542">
        <ele>430</ele>
        <time>2015-01-25T09:12:05.000Z</time>
      </trkpt>
      <trkpt lat="47.5113" lon="6.72544">
        <ele>430</ele>
        <time>2015-01-25T09:12:07.000Z</time>
      </trkpt>
      <trkpt lat="47.51132" lon="6.72545">
        <ele>430</ele>
        <time>2015-01-25T09:12:08.000Z</time>
      </trkpt>
      <trkpt lat="47.51135" lon="6.72546">
        <ele>430</ele>
        <time>2015-01-25T09:12:10.000Z</time>
      </trkpt>
      <trkpt lat="47.51137" lon="6.72546">
        <ele>430</ele>
        <time>2015-01-25T09:12:11.000Z</time>
      </trkpt>
      <trkpt lat="47.51141" lon="6.72547">
        <ele>430</ele>
        <time>2015-01-25T09:12:13.000Z</time>
      </trkpt>
      <trkpt lat="47.51143" lon="6.72548">
        <ele>430</ele>
        <time>2015-01-25T09:12:14.000Z</time>
      </trkpt>
      <trkpt lat="47.51146" lon="6.72549">
        <ele>430</ele>
        <time>2015-01-25T09:12:16.000Z</time>
      </trkpt>
      <trkpt lat="47.51148" lon="6.7255">
        <ele>430</ele>
        <time>2015-01-25T09:12:17.000Z</time>
      </trkpt>
      <trkpt lat="47.51152" lon="6.72551">
        <ele>430</ele>
        <time>2015-01-25T09:12:19.000Z</time>
      </trkpt>
      <trkpt lat="47.51154" lon="6.72552">
        <ele>430</ele>
        <time>2015-01-25T09:12:20.000Z</time>
      </trkpt>
      <trkpt lat="47.51156" lon="6.72552">
        <ele>430</ele>
        <time>2015-01-25T09:12:21.000Z</time>
      </trkpt>
      <trkpt lat="47.51158" lon="6.72552">
        <ele>430</ele>
        <time>2015-01-25T09:12:22.000Z</time>
      </trkpt>
      <trkpt lat="47.51162" lon="6.72553">
        <ele>430</ele>
        <time>2015-01-25T09:12:24.000Z</time>
      </trkpt>
      <trkpt lat="47.51164" lon="6.72554">
        <ele>430</ele>
        <time>2015-01-25T09:12:25.000Z</time>
      </trkpt>
      <trkpt lat="47.51167" lon="6.72553">
        <ele>430</ele>
        <time>2015-01-25T09:12:27.000Z</time>
      </trkpt>
      <trkpt lat="47.51169" lon="6.72554">
        <ele>430</ele>
        <time>2015-01-25T09:12:28.000Z</time>
      </trkpt>
      <trkpt lat="47.51172" lon="6.72554">
        <ele>430</ele>
        <time>2015-01-25T09:12:30.000Z</time>
      </trkpt>
      <trkpt lat="47.51173" lon="6.72555">
        <ele>430</ele>
        <time>2015-01-25T09:12:31.000Z</time>
      </trkpt>
      <trkpt lat="47.51176" lon="6.72558">
        <ele>430</ele>
        <time>2015-01-25T09:12:34.000Z</time>
      </trkpt>
      <trkpt lat="47.51177" lon="6.72559">
        <ele>430</ele>
        <time>2015-01-25T09:12:35.000Z</time>
      </trkpt>
      <trkpt lat="47.5118" lon="6.72562">
        <ele>430</ele>
        <time>2015-01-25T09:12:38.000Z</time>
      </trkpt>
      <trkpt lat="47.51181" lon="6.72563">
        <ele>430</ele>
        <time>2015-01-25T09:12:39.000Z</time>
      </trkpt>
      <trkpt lat="47.51185" lon="6.72564">
        <ele>430</ele>
        <time>2015-01-25T09:12:41.000Z</time>
      </trkpt>
      <trkpt lat="47.51187" lon="6.72565">
        <ele>430</ele>
        <time>2015-01-25T09:12:42.000Z</time>
      </trkpt>
      <trkpt lat="47.51191" lon="6.72567">
        <ele>430</ele>
        <time>2015-01-25T09:12:44.000Z</time>
      </trkpt>
      <trkpt lat="47.51195" lon="6.72569">
        <ele>430</ele>
        <time>2015-01-25T09:12:47.000Z</time>
      </trkpt>
      <trkpt lat="47.51199" lon="6.7257">
        <ele>430</ele>
        <time>2015-01-25T09:12:49.000Z</time>
      </trkpt>
      <trkpt lat="47.51201" lon="6.7257">
        <ele>430</ele>
        <time>2015-01-25T09:12:50.000Z</time>
      </trkpt>
      <trkpt lat="47.51204" lon="6.72571">
        <ele>429</ele>
        <time>2015-01-25T09:12:52.000Z</time>
      </trkpt>
      <trkpt lat="47.51206" lon="6.72572">
        <ele>429</ele>
        <time>2015-01-25T09:12:53.000Z</time>
      </trkpt>
      <trkpt lat="47.5121" lon="6.72573">
        <ele>429</ele>
        <time>2015-01-25T09:12:55.000Z</time>
      </trkpt>
      <trkpt lat="47.51212" lon="6.72574">
        <ele>429</ele>
        <time>2015-01-25T09:12:56.000Z</time>
      </trkpt>
      <trkpt lat="47.51215" lon="6.72576">
        <ele>429</ele>
        <time>2015-01-25T09:12:58.000Z</time>
      </trkpt>
      <trkpt lat="47.51217" lon="6.72576">
        <ele>429</ele>
        <time>2015-01-25T09:12:59.000Z</time>
      </trkpt>
      <trkpt lat="47.51219" lon="6.72577">
        <ele>429</ele>
        <time>2015-01-25T09:13:00.000Z</time>
      </trkpt>
      <trkpt lat="47.51221" lon="6.72578">
        <ele>429</ele>
        <time>2015-01-25T09:13:01.000Z</time>
      </trkpt>
      <trkpt lat="47.51223" lon="6.72578">
        <ele>429</ele>
        <time>2015-01-25T09:13:02.000Z</time>
      </trkpt>
      <trkpt lat="47.51226" lon="6.72578">
        <ele>429</ele>
        <time>2015-01-25T09:13:03.000Z</time>
      </trkpt>
      <trkpt lat="47.51228" lon="6.72578">
        <ele>429</ele>
        <time>2015-01-25T09:13:04.000Z</time>
      </trkpt>
      <trkpt lat="47.51231" lon="6.72578">
        <ele>428</ele>
        <time>2015-01-25T09:13:05.000Z</time>
      </trkpt>
      <trkpt lat="47.51235" lon="6.72578">
        <ele>428</ele>
        <time>2015-01-25T09:13:07.000Z</time>
      </trkpt>
      <trkpt lat="47.51237" lon="6.72578">
        <ele>428</ele>
        <time>2015-01-25T09:13:08.000Z</time>
      </trkpt>
      <trkpt lat="47.51241" lon="6.72578">
        <ele>428</ele>
        <time>2015-01-25T09:13:10.000Z</time>
      </trkpt>
      <trkpt lat="47.51242" lon="6.72578">
        <ele>427</ele>
        <time>2015-01-25T09:13:11.000Z</time>
      </trkpt>
      <trkpt lat="47.51246" lon="6.72579">
        <ele>427</ele>
        <time>2015-01-25T09:13:13.000Z</time>
      </trkpt>
      <trkpt lat="47.51247" lon="6.72579">
        <ele>427</ele>
        <time>2015-01-25T09:13:14.000Z</time>
      </trkpt>
      <trkpt lat="47.51251" lon="6.72579">
        <ele>426</ele>
        <time>2015-01-25T09:13:16.000Z</time>
      </trkpt>
      <trkpt lat="47.51253" lon="6.72578">
        <ele>426</ele>
        <time>2015-01-25T09:13:17.000Z</time>
      </trkpt>
      <trkpt lat="47.51257" lon="6.72578">
        <ele>427</ele>
        <time>2015-01-25T09:13:19.000Z</time>
      </trkpt>
      <trkpt lat="47.51259" lon="6.72579">
        <ele>427</ele>
        <time>2015-01-25T09:13:20.000Z</time>
      </trkpt>
      <trkpt lat="47.51263" lon="6.7258">
        <ele>427</ele>
        <time>2015-01-25T09:13:22.000Z</time>
      </trkpt>
      <trkpt lat="47.51264" lon="6.72581">
        <ele>427</ele>
        <time>2015-01-25T09:13:23.000Z</time>
      </trkpt>
      <trkpt lat="47.51267" lon="6.72582">
        <ele>427</ele>
        <time>2015-01-25T09:13:25.000Z</time>
      </trkpt>
      <trkpt lat="47.5127" lon="6.72582">
        <ele>427</ele>
        <time>2015-01-25T09:13:26.000Z</time>
      </trkpt>
      <trkpt lat="47.51272" lon="6.72583">
        <ele>427</ele>
        <time>2015-01-25T09:13:27.000Z</time>
      </trkpt>
      <trkpt lat="47.51274" lon="6.72585">
        <ele>424</ele>
        <time>2015-01-25T09:13:28.000Z</time>
      </trkpt>
      <trkpt lat="47.51276" lon="6.72586">
        <ele>424</ele>
        <time>2015-01-25T09:13:29.000Z</time>
      </trkpt>
      <trkpt lat="47.51279" lon="6.72587">
        <ele>424</ele>
        <time>2015-01-25T09:13:30.000Z</time>
      </trkpt>
      <trkpt lat="47.51282" lon="6.72589">
        <ele>424</ele>
        <time>2015-01-25T09:13:31.000Z</time>
      </trkpt>
      <trkpt lat="47.51284" lon="6.7259">
        <ele>424</ele>
        <time>2015-01-25T09:13:32.000Z</time>
      </trkpt>
      <trkpt lat="47.51286" lon="6.7259">
        <ele>424</ele>
        <time>2015-01-25T09:13:33.000Z</time>
      </trkpt>
      <trkpt lat="47.51289" lon="6.72591">
        <ele>424</ele>
        <time>2015-01-25T09:13:34.000Z</time>
      </trkpt>
      <trkpt lat="47.51292" lon="6.72594">
        <ele>424</ele>
        <time>2015-01-25T09:13:36.000Z</time>
      </trkpt>
      <trkpt lat="47.51294" lon="6.72595">
        <ele>424</ele>
        <time>2015-01-25T09:13:37.000Z</time>
      </trkpt>
      <trkpt lat="47.51298" lon="6.72598">
        <ele>424</ele>
        <time>2015-01-25T09:13:39.000Z</time>
      </trkpt>
      <trkpt lat="47.51299" lon="6.72598">
        <ele>424</ele>
        <time>2015-01-25T09:13:40.000Z</time>
      </trkpt>
      <trkpt lat="47.51302" lon="6.72599">
        <ele>424</ele>
        <time>2015-01-25T09:13:42.000Z</time>
      </trkpt>
      <trkpt lat="47.51304" lon="6.726">
        <ele>423</ele>
        <time>2015-01-25T09:13:43.000Z</time>
      </trkpt>
      <trkpt lat="47.51305" lon="6.72601">
        <ele>423</ele>
        <time>2015-01-25T09:13:44.000Z</time>
      </trkpt>
      <trkpt lat="47.5131" lon="6.72601">
        <ele>423</ele>
        <time>2015-01-25T09:13:47.000Z</time>
      </trkpt>
      <trkpt lat="47.51314" lon="6.72602">
        <ele>423</ele>
        <time>2015-01-25T09:13:49.000Z</time>
      </trkpt>
      <trkpt lat="47.51316" lon="6.72603">
        <ele>423</ele>
        <time>2015-01-25T09:13:50.000Z</time>
      </trkpt>
      <trkpt lat="47.51318" lon="6.72605">
        <ele>423</ele>
        <time>2015-01-25T09:13:51.000Z</time>
      </trkpt>
      <trkpt lat="47.51319" lon="6.72609">
        <ele>423</ele>
        <time>2015-01-25T09:13:52.000Z</time>
      </trkpt>
      <trkpt lat="47.5132" lon="6.72613">
        <ele>423</ele>
        <time>2015-01-25T09:13:53.000Z</time>
      </trkpt>
      <trkpt lat="47.51322" lon="6.72616">
        <ele>423</ele>
        <time>2015-01-25T09:13:54.000Z</time>
      </trkpt>
      <trkpt lat="47.51323" lon="6.7262">
        <ele>423</ele>
        <time>2015-01-25T09:13:55.000Z</time>
      </trkpt>
      <trkpt lat="47.51324" lon="6.72622">
        <ele>423</ele>
        <time>2015-01-25T09:13:56.000Z</time>
      </trkpt>
      <trkpt lat="47.51328" lon="6.72625">
        <ele>423</ele>
        <time>2015-01-25T09:13:58.000Z</time>
      </trkpt>
      <trkpt lat="47.51329" lon="6.72626">
        <ele>423</ele>
        <time>2015-01-25T09:13:59.000Z</time>
      </trkpt>
      <trkpt lat="47.51333" lon="6.72627">
        <ele>423</ele>
        <time>2015-01-25T09:14:01.000Z</time>
      </trkpt>
      <trkpt lat="47.51335" lon="6.72628">
        <ele>426</ele>
        <time>2015-01-25T09:14:02.000Z</time>
      </trkpt>
      <trkpt lat="47.51339" lon="6.72629">
        <ele>426</ele>
        <time>2015-01-25T09:14:04.000Z</time>
      </trkpt>
      <trkpt lat="47.51342" lon="6.7263">
        <ele>426</ele>
        <time>2015-01-25T09:14:05.000Z</time>
      </trkpt>
      <trkpt lat="47.51344" lon="6.72631">
        <ele>426</ele>
        <time>2015-01-25T09:14:06.000Z</time>
      </trkpt>
      <trkpt lat="47.51347" lon="6.72632">
        <ele>426</ele>
        <time>2015-01-25T09:14:07.000Z</time>
      </trkpt>
      <trkpt lat="47.51351" lon="6.72632">
        <ele>426</ele>
        <time>2015-01-25T09:14:09.000Z</time>
      </trkpt>
      <trkpt lat="47.51353" lon="6.72632">
        <ele>426</ele>
        <time>2015-01-25T09:14:10.000Z</time>
      </trkpt>
      <trkpt lat="47.51357" lon="6.72631">
        <ele>426</ele>
        <time>2015-01-25T09:14:12.000Z</time>
      </trkpt>
      <trkpt lat="47.51359" lon="6.7263">
        <ele>426</ele>
        <time>2015-01-25T09:14:13.000Z</time>
      </trkpt>
      <trkpt lat="47.51362" lon="6.7263">
        <ele>426</ele>
        <time>2015-01-25T09:14:14.000Z</time>
      </trkpt>
      <trkpt lat="47.51364" lon="6.72629">
        <ele>426</ele>
        <time>2015-01-25T09:14:15.000Z</time>
      </trkpt>
      <trkpt lat="47.51368" lon="6.72628">
        <ele>426</ele>
        <time>2015-01-25T09:14:17.000Z</time>
      </trkpt>
      <trkpt lat="47.51369" lon="6.72627">
        <ele>427</ele>
        <time>2015-01-25T09:14:18.000Z</time>
      </trkpt>
      <trkpt lat="47.51372" lon="6.72626">
        <ele>427</ele>
        <time>2015-01-25T09:14:20.000Z</time>
      </trkpt>
      <trkpt lat="47.51374" lon="6.72626">
        <ele>427</ele>
        <time>2015-01-25T09:14:21.000Z</time>
      </trkpt>
      <trkpt lat="47.51377" lon="6.72623">
        <ele>427</ele>
        <time>2015-01-25T09:14:23.000Z</time>
      </trkpt>
      <trkpt lat="47.51378" lon="6.7262">
        <ele>427</ele>
        <time>2015-01-25T09:14:24.000Z</time>
      </trkpt>
      <trkpt lat="47.51378" lon="6.72616">
        <ele>427</ele>
        <time>2015-01-25T09:14:25.000Z</time>
      </trkpt>
      <trkpt lat="47.51378" lon="6.72613">
        <ele>427</ele>
        <time>2015-01-25T09:14:26.000Z</time>
      </trkpt>
      <trkpt lat="47.51379" lon="6.72609">
        <ele>427</ele>
        <time>2015-01-25T09:14:27.000Z</time>
      </trkpt>
      <trkpt lat="47.51379" lon="6.72605">
        <ele>427</ele>
        <time>2015-01-25T09:14:28.000Z</time>
      </trkpt>
      <trkpt lat="47.51378" lon="6.72602">
        <ele>427</ele>
        <time>2015-01-25T09:14:29.000Z</time>
      </trkpt>
      <trkpt lat="47.51378" lon="6.72599">
        <ele>427</ele>
        <time>2015-01-25T09:14:30.000Z</time>
      </trkpt>
      <trkpt lat="47.51377" lon="6.72595">
        <ele>427</ele>
        <time>2015-01-25T09:14:31.000Z</time>
      </trkpt>
      <trkpt lat="47.51376" lon="6.72592">
        <ele>427</ele>
        <time>2015-01-25T09:14:32.000Z</time>
      </trkpt>
      <trkpt lat="47.51376" lon="6.72588">
        <ele>427</ele>
        <time>2015-01-25T09:14:33.000Z</time>
      </trkpt>
      <trkpt lat="47.51376" lon="6.72585">
        <ele>427</ele>
        <time>2015-01-25T09:14:34.000Z</time>
      </trkpt>
      <trkpt lat="47.51376" lon="6.72581">
        <ele>427</ele>
        <time>2015-01-25T09:14:35.000Z</time>
      </trkpt>
      <trkpt lat="47.51376" lon="6.72578">
        <ele>427</ele>
        <time>2015-01-25T09:14:36.000Z</time>
      </trkpt>
      <trkpt lat="47.51376" lon="6.72574">
        <ele>427</ele>
        <time>2015-01-25T09:14:37.000Z</time>
      </trkpt>
      <trkpt lat="47.51377" lon="6.72571">
        <ele>427</ele>
        <time>2015-01-25T09:14:38.000Z</time>
      </trkpt>
      <trkpt lat="47.51377" lon="6.72567">
        <ele>427</ele>
        <time>2015-01-25T09:14:39.000Z</time>
      </trkpt>
      <trkpt lat="47.51378" lon="6.72563">
        <ele>427</ele>
        <time>2015-01-25T09:14:40.000Z</time>
      </trkpt>
      <trkpt lat="47.51378" lon="6.7256">
        <ele>427</ele>
        <time>2015-01-25T09:14:41.000Z</time>
      </trkpt>
      <trkpt lat="47.51378" lon="6.72556">
        <ele>427</ele>
        <time>2015-01-25T09:14:42.000Z</time>
      </trkpt>
      <trkpt lat="47.51378" lon="6.72551">
        <ele>427</ele>
        <time>2015-01-25T09:14:44.000Z</time>
      </trkpt>
      <trkpt lat="47.51378" lon="6.72533">
        <ele>427</ele>
        <time>2015-01-25T09:14:52.000Z</time>
      </trkpt>
      <trkpt lat="47.51377" lon="6.72528">
        <ele>427</ele>
        <time>2015-01-25T09:14:54.000Z</time>
      </trkpt>
      <trkpt lat="47.51377" lon="6.72525">
        <ele>427</ele>
        <time>2015-01-25T09:14:55.000Z</time>
      </trkpt>
      <trkpt lat="47.51376" lon="6.72521">
        <ele>427</ele>
        <time>2015-01-25T09:14:56.000Z</time>
      </trkpt>
      <trkpt lat="47.51376" lon="6.72517">
        <ele>427</ele>
        <time>2015-01-25T09:14:57.000Z</time>
      </trkpt>
      <trkpt lat="47.51375" lon="6.72513">
        <ele>426</ele>
        <time>2015-01-25T09:14:58.000Z</time>
      </trkpt>
      <trkpt lat="47.51374" lon="6.7251">
        <ele>426</ele>
        <time>2015-01-25T09:14:59.000Z</time>
      </trkpt>
      <trkpt lat="47.51374" lon="6.72503">
        <ele>426</ele>
        <time>2015-01-25T09:15:01.000Z</time>
      </trkpt>
      <trkpt lat="47.51374" lon="6.725">
        <ele>426</ele>
        <time>2015-01-25T09:15:02.000Z</time>
      </trkpt>
      <trkpt lat="47.51373" lon="6.72497">
        <ele>427</ele>
        <time>2015-01-25T09:15:03.000Z</time>
      </trkpt>
      <trkpt lat="47.51373" lon="6.72493">
        <ele>427</ele>
        <time>2015-01-25T09:15:04.000Z</time>
      </trkpt>
      <trkpt lat="47.51372" lon="6.72487">
        <ele>427</ele>
        <time>2015-01-25T09:15:06.000Z</time>
      </trkpt>
      <trkpt lat="47.51371" lon="6.72484">
        <ele>427</ele>
        <time>2015-01-25T09:15:07.000Z</time>
      </trkpt>
      <trkpt lat="47.5137" lon="6.72477">
        <ele>427</ele>
        <time>2015-01-25T09:15:09.000Z</time>
      </trkpt>
      <trkpt lat="47.5137" lon="6.72474">
        <ele>427</ele>
        <time>2015-01-25T09:15:10.000Z</time>
      </trkpt>
      <trkpt lat="47.5137" lon="6.72469">
        <ele>427</ele>
        <time>2015-01-25T09:15:12.000Z</time>
      </trkpt>
      <trkpt lat="47.5137" lon="6.72466">
        <ele>427</ele>
        <time>2015-01-25T09:15:13.000Z</time>
      </trkpt>
      <trkpt lat="47.5137" lon="6.72461">
        <ele>427</ele>
        <time>2015-01-25T09:15:15.000Z</time>
      </trkpt>
      <trkpt lat="47.51369" lon="6.72459">
        <ele>427</ele>
        <time>2015-01-25T09:15:16.000Z</time>
      </trkpt>
      <trkpt lat="47.51369" lon="6.72453">
        <ele>427</ele>
        <time>2015-01-25T09:15:19.000Z</time>
      </trkpt>
      <trkpt lat="47.51369" lon="6.72451">
        <ele>427</ele>
        <time>2015-01-25T09:15:20.000Z</time>
      </trkpt>
      <trkpt lat="47.51371" lon="6.72446">
        <ele>427</ele>
        <time>2015-01-25T09:15:25.000Z</time>
      </trkpt>
      <trkpt lat="47.51372" lon="6.72445">
        <ele>427</ele>
        <time>2015-01-25T09:15:26.000Z</time>
      </trkpt>
      <trkpt lat="47.51376" lon="6.72445">
        <ele>427</ele>
        <time>2015-01-25T09:15:28.000Z</time>
      </trkpt>
      <trkpt lat="47.51378" lon="6.72444">
        <ele>427</ele>
        <time>2015-01-25T09:15:29.000Z</time>
      </trkpt>
      <trkpt lat="47.51381" lon="6.72444">
        <ele>427</ele>
        <time>2015-01-25T09:15:30.000Z</time>
      </trkpt>
      <trkpt lat="47.51383" lon="6.72443">
        <ele>427</ele>
        <time>2015-01-25T09:15:31.000Z</time>
      </trkpt>
      <trkpt lat="47.51387" lon="6.72441">
        <ele>426</ele>
        <time>2015-01-25T09:15:33.000Z</time>
      </trkpt>
      <trkpt lat="47.51389" lon="6.72441">
        <ele>426</ele>
        <time>2015-01-25T09:15:34.000Z</time>
      </trkpt>
      <trkpt lat="47.51392" lon="6.7244">
        <ele>426</ele>
        <time>2015-01-25T09:15:36.000Z</time>
      </trkpt>
      <trkpt lat="47.51394" lon="6.7244">
        <ele>426</ele>
        <time>2015-01-25T09:15:37.000Z</time>
      </trkpt>
      <trkpt lat="47.51397" lon="6.72439">
        <ele>426</ele>
        <time>2015-01-25T09:15:38.000Z</time>
      </trkpt>
      <trkpt lat="47.51399" lon="6.72438">
        <ele>425</ele>
        <time>2015-01-25T09:15:39.000Z</time>
      </trkpt>
      <trkpt lat="47.51402" lon="6.72437">
        <ele>425</ele>
        <time>2015-01-25T09:15:40.000Z</time>
      </trkpt>
      <trkpt lat="47.51405" lon="6.72436">
        <ele>425</ele>
        <time>2015-01-25T09:15:41.000Z</time>
      </trkpt>
      <trkpt lat="47.51408" lon="6.72435">
        <ele>425</ele>
        <time>2015-01-25T09:15:42.000Z</time>
      </trkpt>
      <trkpt lat="47.51411" lon="6.72434">
        <ele>424</ele>
        <time>2015-01-25T09:15:43.000Z</time>
      </trkpt>
      <trkpt lat="47.51413" lon="6.72433">
        <ele>424</ele>
        <time>2015-01-25T09:15:44.000Z</time>
      </trkpt>
      <trkpt lat="47.51421" lon="6.72428">
        <ele>421</ele>
        <time>2015-01-25T09:15:47.000Z</time>
      </trkpt>
      <trkpt lat="47.51423" lon="6.72426">
        <ele>421</ele>
        <time>2015-01-25T09:15:48.000Z</time>
      </trkpt>
      <trkpt lat="47.51425" lon="6.72425">
        <ele>421</ele>
        <time>2015-01-25T09:15:49.000Z</time>
      </trkpt>
      <trkpt lat="47.5143" lon="6.72424">
        <ele>421</ele>
        <time>2015-01-25T09:15:51.000Z</time>
      </trkpt>
      <trkpt lat="47.51432" lon="6.72423">
        <ele>421</ele>
        <time>2015-01-25T09:15:52.000Z</time>
      </trkpt>
      <trkpt lat="47.51436" lon="6.72422">
        <ele>421</ele>
        <time>2015-01-25T09:15:54.000Z</time>
      </trkpt>
      <trkpt lat="47.51438" lon="6.72422">
        <ele>421</ele>
        <time>2015-01-25T09:15:55.000Z</time>
      </trkpt>
      <trkpt lat="47.51441" lon="6.72422">
        <ele>421</ele>
        <time>2015-01-25T09:15:57.000Z</time>
      </trkpt>
      <trkpt lat="47.51442" lon="6.72421">
        <ele>421</ele>
        <time>2015-01-25T09:15:58.000Z</time>
      </trkpt>
      <trkpt lat="47.51446" lon="6.7242">
        <ele>421</ele>
        <time>2015-01-25T09:16:00.000Z</time>
      </trkpt>
      <trkpt lat="47.51448" lon="6.7242">
        <ele>421</ele>
        <time>2015-01-25T09:16:01.000Z</time>
      </trkpt>
      <trkpt lat="47.51451" lon="6.72419">
        <ele>421</ele>
        <time>2015-01-25T09:16:02.000Z</time>
      </trkpt>
      <trkpt lat="47.51453" lon="6.72418">
        <ele>420</ele>
        <time>2015-01-25T09:16:03.000Z</time>
      </trkpt>
      <trkpt lat="47.51456" lon="6.72418">
        <ele>420</ele>
        <time>2015-01-25T09:16:04.000Z</time>
      </trkpt>
      <trkpt lat="47.51458" lon="6.72417">
        <ele>420</ele>
        <time>2015-01-25T09:16:05.000Z</time>
      </trkpt>
      <trkpt lat="47.51462" lon="6.72417">
        <ele>420</ele>
        <time>2015-01-25T09:16:07.000Z</time>
      </trkpt>
      <trkpt lat="47.51464" lon="6.72418">
        <ele>420</ele>
        <time>2015-01-25T09:16:08.000Z</time>
      </trkpt>
      <trkpt lat="47.51468" lon="6.72418">
        <ele>420</ele>
        <time>2015-01-25T09:16:11.000Z</time>
      </trkpt>
      <trkpt lat="47.5147" lon="6.72418">
        <ele>419</ele>
        <time>2015-01-25T09:16:12.000Z</time>
      </trkpt>
      <trkpt lat="47.51473" lon="6.72418">
        <ele>419</ele>
        <time>2015-01-25T09:16:13.000Z</time>
      </trkpt>
      <trkpt lat="47.51475" lon="6.72417">
        <ele>419</ele>
        <time>2015-01-25T09:16:14.000Z</time>
      </trkpt>
      <trkpt lat="47.51479" lon="6.72416">
        <ele>415</ele>
        <time>2015-01-25T09:16:16.000Z</time>
      </trkpt>
      <trkpt lat="47.51481" lon="6.72415">
        <ele>415</ele>
        <time>2015-01-25T09:16:17.000Z</time>
      </trkpt>
      <trkpt lat="47.51484" lon="6.72414">
        <ele>415</ele>
        <time>2015-01-25T09:16:19.000Z</time>
      </trkpt>
      <trkpt lat="47.51486" lon="6.72414">
        <ele>415</ele>
        <time>2015-01-25T09:16:20.000Z</time>
      </trkpt>
      <trkpt lat="47.51489" lon="6.7241">
        <ele>415</ele>
        <time>2015-01-25T09:16:24.000Z</time>
      </trkpt>
      <trkpt lat="47.5149" lon="6.72409">
        <ele>415</ele>
        <time>2015-01-25T09:16:25.000Z</time>
      </trkpt>
      <trkpt lat="47.5149" lon="6.72404">
        <ele>415</ele>
        <time>2015-01-25T09:16:28.000Z</time>
      </trkpt>
      <trkpt lat="47.5149" lon="6.72402">
        <ele>415</ele>
        <time>2015-01-25T09:16:29.000Z</time>
      </trkpt>
      <trkpt lat="47.51489" lon="6.72397">
        <ele>414</ele>
        <time>2015-01-25T09:16:31.000Z</time>
      </trkpt>
      <trkpt lat="47.51488" lon="6.72395">
        <ele>414</ele>
        <time>2015-01-25T09:16:32.000Z</time>
      </trkpt>
      <trkpt lat="47.51487" lon="6.72389">
        <ele>414</ele>
        <time>2015-01-25T09:16:34.000Z</time>
      </trkpt>
      <trkpt lat="47.51487" lon="6.72387">
        <ele>414</ele>
        <time>2015-01-25T09:16:35.000Z</time>
      </trkpt>
      <trkpt lat="47.51485" lon="6.7238">
        <ele>414</ele>
        <time>2015-01-25T09:16:37.000Z</time>
      </trkpt>
      <trkpt lat="47.51484" lon="6.72377">
        <ele>413</ele>
        <time>2015-01-25T09:16:38.000Z</time>
      </trkpt>
      <trkpt lat="47.51484" lon="6.72373">
        <ele>413</ele>
        <time>2015-01-25T09:16:39.000Z</time>
      </trkpt>
      <trkpt lat="47.51483" lon="6.72369">
        <ele>413</ele>
        <time>2015-01-25T09:16:40.000Z</time>
      </trkpt>
      <trkpt lat="47.51482" lon="6.72365">
        <ele>413</ele>
        <time>2015-01-25T09:16:41.000Z</time>
      </trkpt>
      <trkpt lat="47.5148" lon="6.72361">
        <ele>413</ele>
        <time>2015-01-25T09:16:42.000Z</time>
      </trkpt>
      <trkpt lat="47.5148" lon="6.72357">
        <ele>412</ele>
        <time>2015-01-25T09:16:43.000Z</time>
      </trkpt>
      <trkpt lat="47.51479" lon="6.72353">
        <ele>412</ele>
        <time>2015-01-25T09:16:44.000Z</time>
      </trkpt>
      <trkpt lat="47.51478" lon="6.72349">
        <ele>412</ele>
        <time>2015-01-25T09:16:45.000Z</time>
      </trkpt>
      <trkpt lat="47.51476" lon="6.72321">
        <ele>407</ele>
        <time>2015-01-25T09:16:53.000Z</time>
      </trkpt>
      <trkpt lat="47.51476" lon="6.72315">
        <ele>407</ele>
        <time>2015-01-25T09:16:55.000Z</time>
      </trkpt>
      <trkpt lat="47.51476" lon="6.72312">
        <ele>407</ele>
        <time>2015-01-25T09:16:56.000Z</time>
      </trkpt>
      <trkpt lat="47.51477" lon="6.72307">
        <ele>407</ele>
        <time>2015-01-25T09:16:58.000Z</time>
      </trkpt>
      <trkpt lat="47.51478" lon="6.72304">
        <ele>407</ele>
        <time>2015-01-25T09:16:59.000Z</time>
      </trkpt>
      <trkpt lat="47.51481" lon="6.72299">
        <ele>407</ele>
        <time>2015-01-25T09:17:01.000Z</time>
      </trkpt>
      <trkpt lat="47.51483" lon="6.72297">
        <ele>406</ele>
        <time>2015-01-25T09:17:02.000Z</time>
      </trkpt>
      <trkpt lat="47.51485" lon="6.72295">
        <ele>406</ele>
        <time>2015-01-25T09:17:03.000Z</time>
      </trkpt>
      <trkpt lat="47.51487" lon="6.72294">
        <ele>406</ele>
        <time>2015-01-25T09:17:04.000Z</time>
      </trkpt>
      <trkpt lat="47.5149" lon="6.72292">
        <ele>406</ele>
        <time>2015-01-25T09:17:05.000Z</time>
      </trkpt>
      <trkpt lat="47.51493" lon="6.72292">
        <ele>406</ele>
        <time>2015-01-25T09:17:06.000Z</time>
      </trkpt>
      <trkpt lat="47.51497" lon="6.72291">
        <ele>406</ele>
        <time>2015-01-25T09:17:07.000Z</time>
      </trkpt>
      <trkpt lat="47.515" lon="6.72291">
        <ele>401</ele>
        <time>2015-01-25T09:17:08.000Z</time>
      </trkpt>
      <trkpt lat="47.51505" lon="6.7229">
        <ele>401</ele>
        <time>2015-01-25T09:17:09.000Z</time>
      </trkpt>
      <trkpt lat="47.5151" lon="6.72288">
        <ele>401</ele>
        <time>2015-01-25T09:17:10.000Z</time>
      </trkpt>
      <trkpt lat="47.51515" lon="6.72286">
        <ele>400</ele>
        <time>2015-01-25T09:17:11.000Z</time>
      </trkpt>
      <trkpt lat="47.5152" lon="6.72284">
        <ele>400</ele>
        <time>2015-01-25T09:17:12.000Z</time>
      </trkpt>
      <trkpt lat="47.51525" lon="6.72281">
        <ele>400</ele>
        <time>2015-01-25T09:17:13.000Z</time>
      </trkpt>
      <trkpt lat="47.5153" lon="6.72279">
        <ele>400</ele>
        <time>2015-01-25T09:17:14.000Z</time>
      </trkpt>
      <trkpt lat="47.51535" lon="6.72277">
        <ele>399</ele>
        <time>2015-01-25T09:17:15.000Z</time>
      </trkpt>
      <trkpt lat="47.5154" lon="6.72275">
        <ele>399</ele>
        <time>2015-01-25T09:17:16.000Z</time>
      </trkpt>
      <trkpt lat="47.51544" lon="6.72274">
        <ele>399</ele>
        <time>2015-01-25T09:17:17.000Z</time>
      </trkpt>
      <trkpt lat="47.51549" lon="6.72272">
        <ele>398</ele>
        <time>2015-01-25T09:17:18.000Z</time>
      </trkpt>
      <trkpt lat="47.51553" lon="6.7227">
        <ele>398</ele>
        <time>2015-01-25T09:17:19.000Z</time>
      </trkpt>
      <trkpt lat="47.51558" lon="6.72268">
        <ele>398</ele>
        <time>2015-01-25T09:17:20.000Z</time>
      </trkpt>
      <trkpt lat="47.51562" lon="6.72266">
        <ele>397</ele>
        <time>2015-01-25T09:17:21.000Z</time>
      </trkpt>
      <trkpt lat="47.51571" lon="6.72261">
        <ele>396</ele>
        <time>2015-01-25T09:17:22.000Z</time>
      </trkpt>
      <trkpt lat="47.51577" lon="6.72258">
        <ele>395</ele>
        <time>2015-01-25T09:17:23.000Z</time>
      </trkpt>
      <trkpt lat="47.51584" lon="6.72256">
        <ele>393</ele>
        <time>2015-01-25T09:17:24.000Z</time>
      </trkpt>
      <trkpt lat="47.51591" lon="6.72254">
        <ele>393</ele>
        <time>2015-01-25T09:17:25.000Z</time>
      </trkpt>
      <trkpt lat="47.51597" lon="6.72251">
        <ele>393</ele>
        <time>2015-01-25T09:17:26.000Z</time>
      </trkpt>
      <trkpt lat="47.51604" lon="6.72248">
        <ele>392</ele>
        <time>2015-01-25T09:17:27.000Z</time>
      </trkpt>
      <trkpt lat="47.51612" lon="6.72243">
        <ele>392</ele>
        <time>2015-01-25T09:17:28.000Z</time>
      </trkpt>
      <trkpt lat="47.51621" lon="6.72237">
        <ele>392</ele>
        <time>2015-01-25T09:17:29.000Z</time>
      </trkpt>
      <trkpt lat="47.51628" lon="6.72234">
        <ele>392</ele>
        <time>2015-01-25T09:17:30.000Z</time>
      </trkpt>
      <trkpt lat="47.51636" lon="6.72231">
        <ele>392</ele>
        <time>2015-01-25T09:17:31.000Z</time>
      </trkpt>
      <trkpt lat="47.51644" lon="6.72231">
        <ele>392</ele>
        <time>2015-01-25T09:17:32.000Z</time>
      </trkpt>
      <trkpt lat="47.51654" lon="6.7223">
        <ele>392</ele>
        <time>2015-01-25T09:17:33.000Z</time>
      </trkpt>
      <trkpt lat="47.51663" lon="6.72228">
        <ele>392</ele>
        <time>2015-01-25T09:17:34.000Z</time>
      </trkpt>
      <trkpt lat="47.5167" lon="6.72224">
        <ele>391</ele>
        <time>2015-01-25T09:17:35.000Z</time>
      </trkpt>
      <trkpt lat="47.51678" lon="6.72221">
        <ele>391</ele>
        <time>2015-01-25T09:17:36.000Z</time>
      </trkpt>
      <trkpt lat="47.51686" lon="6.72215">
        <ele>391</ele>
        <time>2015-01-25T09:17:37.000Z</time>
      </trkpt>
      <trkpt lat="47.51693" lon="6.72211">
        <ele>391</ele>
        <time>2015-01-25T09:17:38.000Z</time>
      </trkpt>
      <trkpt lat="47.517" lon="6.72209">
        <ele>391</ele>
        <time>2015-01-25T09:17:39.000Z</time>
      </trkpt>
      <trkpt lat="47.51706" lon="6.72208">
        <ele>391</ele>
        <time>2015-01-25T09:17:40.000Z</time>
      </trkpt>
      <trkpt lat="47.51712" lon="6.72205">
        <ele>391</ele>
        <time>2015-01-25T09:17:41.000Z</time>
      </trkpt>
      <trkpt lat="47.51719" lon="6.72208">
        <ele>391</ele>
        <time>2015-01-25T09:17:42.000Z</time>
      </trkpt>
      <trkpt lat="47.51725" lon="6.72207">
        <ele>391</ele>
        <time>2015-01-25T09:17:43.000Z</time>
      </trkpt>
      <trkpt lat="47.51732" lon="6.72207">
        <ele>391</ele>
        <time>2015-01-25T09:17:44.000Z</time>
      </trkpt>
      <trkpt lat="47.51786" lon="6.7222">
        <ele>389</ele>
        <time>2015-01-25T09:17:52.000Z</time>
      </trkpt>
      <trkpt lat="47.51794" lon="6.72221">
        <ele>388</ele>
        <time>2015-01-25T09:17:53.000Z</time>
      </trkpt>
      <trkpt lat="47.51802" lon="6.7222">
        <ele>388</ele>
        <time>2015-01-25T09:17:54.000Z</time>
      </trkpt>
      <trkpt lat="47.51809" lon="6.72221">
        <ele>388</ele>
        <time>2015-01-25T09:17:55.000Z</time>
      </trkpt>
      <trkpt lat="47.51817" lon="6.72223">
        <ele>387</ele>
        <time>2015-01-25T09:17:56.000Z</time>
      </trkpt>
      <trkpt lat="47.51826" lon="6.72227">
        <ele>387</ele>
        <time>2015-01-25T09:17:57.000Z</time>
      </trkpt>
      <trkpt lat="47.51834" lon="6.7223">
        <ele>384</ele>
        <time>2015-01-25T09:17:58.000Z</time>
      </trkpt>
      <trkpt lat="47.5184" lon="6.72229">
        <ele>384</ele>
        <time>2015-01-25T09:17:59.000Z</time>
      </trkpt>
      <trkpt lat="47.51847" lon="6.72229">
        <ele>384</ele>
        <time>2015-01-25T09:18:00.000Z</time>
      </trkpt>
      <trkpt lat="47.51852" lon="6.7223">
        <ele>384</ele>
        <time>2015-01-25T09:18:01.000Z</time>
      </trkpt>
      <trkpt lat="47.51855" lon="6.7223">
        <ele>384</ele>
        <time>2015-01-25T09:18:02.000Z</time>
      </trkpt>
      <trkpt lat="47.51858" lon="6.72229">
        <ele>384</ele>
        <time>2015-01-25T09:18:03.000Z</time>
      </trkpt>
      <trkpt lat="47.51861" lon="6.72232">
        <ele>384</ele>
        <time>2015-01-25T09:18:05.000Z</time>
      </trkpt>
      <trkpt lat="47.51863" lon="6.72232">
        <ele>384</ele>
        <time>2015-01-25T09:18:06.000Z</time>
      </trkpt>
      <trkpt lat="47.51866" lon="6.72228">
        <ele>384</ele>
        <time>2015-01-25T09:18:08.000Z</time>
      </trkpt>
      <trkpt lat="47.51869" lon="6.72227">
        <ele>383</ele>
        <time>2015-01-25T09:18:09.000Z</time>
      </trkpt>
      <trkpt lat="47.51871" lon="6.72226">
        <ele>383</ele>
        <time>2015-01-25T09:18:10.000Z</time>
      </trkpt>
      <trkpt lat="47.51873" lon="6.72226">
        <ele>383</ele>
        <time>2015-01-25T09:18:11.000Z</time>
      </trkpt>
      <trkpt lat="47.51875" lon="6.72225">
        <ele>383</ele>
        <time>2015-01-25T09:18:12.000Z</time>
      </trkpt>
      <trkpt lat="47.51878" lon="6.72225">
        <ele>383</ele>
        <time>2015-01-25T09:18:13.000Z</time>
      </trkpt>
      <trkpt lat="47.51881" lon="6.72225">
        <ele>383</ele>
        <time>2015-01-25T09:18:14.000Z</time>
      </trkpt>
      <trkpt lat="47.51883" lon="6.72224">
        <ele>383</ele>
        <time>2015-01-25T09:18:15.000Z</time>
      </trkpt>
      <trkpt lat="47.51887" lon="6.72223">
        <ele>383</ele>
        <time>2015-01-25T09:18:17.000Z</time>
      </trkpt>
      <trkpt lat="47.51888" lon="6.72224">
        <ele>383</ele>
        <time>2015-01-25T09:18:18.000Z</time>
      </trkpt>
      <trkpt lat="47.5189" lon="6.72226">
        <ele>383</ele>
        <time>2015-01-25T09:18:20.000Z</time>
      </trkpt>
      <trkpt lat="47.51892" lon="6.72227">
        <ele>383</ele>
        <time>2015-01-25T09:18:21.000Z</time>
      </trkpt>
      <trkpt lat="47.51895" lon="6.72229">
        <ele>383</ele>
        <time>2015-01-25T09:18:23.000Z</time>
      </trkpt>
      <trkpt lat="47.51897" lon="6.72229">
        <ele>383</ele>
        <time>2015-01-25T09:18:24.000Z</time>
      </trkpt>
      <trkpt lat="47.519" lon="6.72229">
        <ele>383</ele>
        <time>2015-01-25T09:18:26.000Z</time>
      </trkpt>
      <trkpt lat="47.51902" lon="6.7223">
        <ele>383</ele>
        <time>2015-01-25T09:18:27.000Z</time>
      </trkpt>
      <trkpt lat="47.51906" lon="6.72229">
        <ele>383</ele>
        <time>2015-01-25T09:18:29.000Z</time>
      </trkpt>
      <trkpt lat="47.51908" lon="6.72228">
        <ele>383</ele>
        <time>2015-01-25T09:18:30.000Z</time>
      </trkpt>
      <trkpt lat="47.5191" lon="6.72227">
        <ele>383</ele>
        <time>2015-01-25T09:18:31.000Z</time>
      </trkpt>
      <trkpt lat="47.51912" lon="6.72226">
        <ele>383</ele>
        <time>2015-01-25T09:18:32.000Z</time>
      </trkpt>
      <trkpt lat="47.51915" lon="6.72225">
        <ele>383</ele>
        <time>2015-01-25T09:18:33.000Z</time>
      </trkpt>
      <trkpt lat="47.51917" lon="6.72223">
        <ele>382</ele>
        <time>2015-01-25T09:18:34.000Z</time>
      </trkpt>
      <trkpt lat="47.51919" lon="6.72222">
        <ele>382</ele>
        <time>2015-01-25T09:18:35.000Z</time>
      </trkpt>
      <trkpt lat="47.51921" lon="6.72221">
        <ele>382</ele>
        <time>2015-01-25T09:18:36.000Z</time>
      </trkpt>
      <trkpt lat="47.51925" lon="6.7222">
        <ele>382</ele>
        <time>2015-01-25T09:18:38.000Z</time>
      </trkpt>
      <trkpt lat="47.51927" lon="6.7222">
        <ele>382</ele>
        <time>2015-01-25T09:18:39.000Z</time>
      </trkpt>
      <trkpt lat="47.51931" lon="6.7222">
        <ele>382</ele>
        <time>2015-01-25T09:18:42.000Z</time>
      </trkpt>
      <trkpt lat="47.51932" lon="6.7222">
        <ele>382</ele>
        <time>2015-01-25T09:18:43.000Z</time>
      </trkpt>
      <trkpt lat="47.51935" lon="6.72222">
        <ele>382</ele>
        <time>2015-01-25T09:18:49.000Z</time>
      </trkpt>
      <trkpt lat="47.51936" lon="6.72222">
        <ele>382</ele>
        <time>2015-01-25T09:18:50.000Z</time>
      </trkpt>
      <trkpt lat="47.5194" lon="6.72222">
        <ele>382</ele>
        <time>2015-01-25T09:18:52.000Z</time>
      </trkpt>
      <trkpt lat="47.51942" lon="6.72222">
        <ele>382</ele>
        <time>2015-01-25T09:18:53.000Z</time>
      </trkpt>
      <trkpt lat="47.51945" lon="6.72222">
        <ele>382</ele>
        <time>2015-01-25T09:18:55.000Z</time>
      </trkpt>
      <trkpt lat="47.51947" lon="6.72222">
        <ele>382</ele>
        <time>2015-01-25T09:18:56.000Z</time>
      </trkpt>
      <trkpt lat="47.51951" lon="6.72223">
        <ele>382</ele>
        <time>2015-01-25T09:18:58.000Z</time>
      </trkpt>
      <trkpt lat="47.51952" lon="6.72224">
        <ele>382</ele>
        <time>2015-01-25T09:18:59.000Z</time>
      </trkpt>
      <trkpt lat="47.51955" lon="6.72226">
        <ele>382</ele>
        <time>2015-01-25T09:19:01.000Z</time>
      </trkpt>
      <trkpt lat="47.51957" lon="6.72226">
        <ele>382</ele>
        <time>2015-01-25T09:19:02.000Z</time>
      </trkpt>
      <trkpt lat="47.51961" lon="6.72226">
        <ele>382</ele>
        <time>2015-01-25T09:19:05.000Z</time>
      </trkpt>
      <trkpt lat="47.51962" lon="6.72226">
        <ele>382</ele>
        <time>2015-01-25T09:19:06.000Z</time>
      </trkpt>
      <trkpt lat="47.51965" lon="6.72227">
        <ele>382</ele>
        <time>2015-01-25T09:19:08.000Z</time>
      </trkpt>
      <trkpt lat="47.51967" lon="6.72227">
        <ele>382</ele>
        <time>2015-01-25T09:19:09.000Z</time>
      </trkpt>
      <trkpt lat="47.5197" lon="6.72228">
        <ele>382</ele>
        <time>2015-01-25T09:19:11.000Z</time>
      </trkpt>
      <trkpt lat="47.51971" lon="6.72228">
        <ele>382</ele>
        <time>2015-01-25T09:19:12.000Z</time>
      </trkpt>
      <trkpt lat="47.51974" lon="6.7223">
        <ele>382</ele>
        <time>2015-01-25T09:19:14.000Z</time>
      </trkpt>
      <trkpt lat="47.51976" lon="6.7223">
        <ele>382</ele>
        <time>2015-01-25T09:19:15.000Z</time>
      </trkpt>
      <trkpt lat="47.51979" lon="6.72229">
        <ele>382</ele>
        <time>2015-01-25T09:19:17.000Z</time>
      </trkpt>
      <trkpt lat="47.51981" lon="6.72229">
        <ele>382</ele>
        <time>2015-01-25T09:19:18.000Z</time>
      </trkpt>
      <trkpt lat="47.51985" lon="6.72227">
        <ele>382</ele>
        <time>2015-01-25T09:19:20.000Z</time>
      </trkpt>
      <trkpt lat="47.51986" lon="6.72227">
        <ele>382</ele>
        <time>2015-01-25T09:19:21.000Z</time>
      </trkpt>
      <trkpt lat="47.51989" lon="6.72225">
        <ele>382</ele>
        <time>2015-01-25T09:19:23.000Z</time>
      </trkpt>
      <trkpt lat="47.51991" lon="6.72223">
        <ele>382</ele>
        <time>2015-01-25T09:19:24.000Z</time>
      </trkpt>
      <trkpt lat="47.51993" lon="6.72219">
        <ele>383</ele>
        <time>2015-01-25T09:19:26.000Z</time>
      </trkpt>
      <trkpt lat="47.51994" lon="6.72218">
        <ele>383</ele>
        <time>2015-01-25T09:19:27.000Z</time>
      </trkpt>
      <trkpt lat="47.51996" lon="6.72214">
        <ele>383</ele>
        <time>2015-01-25T09:19:29.000Z</time>
      </trkpt>
      <trkpt lat="47.51997" lon="6.72211">
        <ele>383</ele>
        <time>2015-01-25T09:19:30.000Z</time>
      </trkpt>
      <trkpt lat="47.51998" lon="6.72206">
        <ele>383</ele>
        <time>2015-01-25T09:19:32.000Z</time>
      </trkpt>
      <trkpt lat="47.51999" lon="6.72205">
        <ele>383</ele>
        <time>2015-01-25T09:19:33.000Z</time>
      </trkpt>
      <trkpt lat="47.51999" lon="6.722">
        <ele>384</ele>
        <time>2015-01-25T09:19:36.000Z</time>
      </trkpt>
      <trkpt lat="47.52" lon="6.72198">
        <ele>384</ele>
        <time>2015-01-25T09:19:37.000Z</time>
      </trkpt>
      <trkpt lat="47.52002" lon="6.72194">
        <ele>385</ele>
        <time>2015-01-25T09:19:39.000Z</time>
      </trkpt>
      <trkpt lat="47.52002" lon="6.72192">
        <ele>385</ele>
        <time>2015-01-25T09:19:40.000Z</time>
      </trkpt>
      <trkpt lat="47.52005" lon="6.72187">
        <ele>385</ele>
        <time>2015-01-25T09:19:43.000Z</time>
      </trkpt>
      <trkpt lat="47.52005" lon="6.72185">
        <ele>385</ele>
        <time>2015-01-25T09:19:44.000Z</time>
      </trkpt>
      <trkpt lat="47.52006" lon="6.72178">
        <ele>386</ele>
        <time>2015-01-25T09:19:48.000Z</time>
      </trkpt>
      <trkpt lat="47.52007" lon="6.72177">
        <ele>386</ele>
        <time>2015-01-25T09:19:49.000Z</time>
      </trkpt>
      <trkpt lat="47.5201" lon="6.72174">
        <ele>386</ele>
        <time>2015-01-25T09:19:51.000Z</time>
      </trkpt>
      <trkpt lat="47.52011" lon="6.72172">
        <ele>386</ele>
        <time>2015-01-25T09:19:52.000Z</time>
      </trkpt>
      <trkpt lat="47.52013" lon="6.72167">
        <ele>386</ele>
        <time>2015-01-25T09:19:54.000Z</time>
      </trkpt>
      <trkpt lat="47.52014" lon="6.72165">
        <ele>388</ele>
        <time>2015-01-25T09:19:55.000Z</time>
      </trkpt>
      <trkpt lat="47.52015" lon="6.7216">
        <ele>388</ele>
        <time>2015-01-25T09:19:58.000Z</time>
      </trkpt>
      <trkpt lat="47.52016" lon="6.72159">
        <ele>388</ele>
        <time>2015-01-25T09:19:59.000Z</time>
      </trkpt>
      <trkpt lat="47.52019" lon="6.72155">
        <ele>389</ele>
        <time>2015-01-25T09:20:02.000Z</time>
      </trkpt>
      <trkpt lat="47.52021" lon="6.72153">
        <ele>389</ele>
        <time>2015-01-25T09:20:03.000Z</time>
      </trkpt>
      <trkpt lat="47.52023" lon="6.72149">
        <ele>389</ele>
        <time>2015-01-25T09:20:05.000Z</time>
      </trkpt>
      <trkpt lat="47.52024" lon="6.72147">
        <ele>389</ele>
        <time>2015-01-25T09:20:06.000Z</time>
      </trkpt>
      <trkpt lat="47.52026" lon="6.72143">
        <ele>389</ele>
        <time>2015-01-25T09:20:08.000Z</time>
      </trkpt>
      <trkpt lat="47.52026" lon="6.72141">
        <ele>389</ele>
        <time>2015-01-25T09:20:09.000Z</time>
      </trkpt>
      <trkpt lat="47.52027" lon="6.72137">
        <ele>390</ele>
        <time>2015-01-25T09:20:11.000Z</time>
      </trkpt>
      <trkpt lat="47.52028" lon="6.72134">
        <ele>390</ele>
        <time>2015-01-25T09:20:12.000Z</time>
      </trkpt>
      <trkpt lat="47.5203" lon="6.72129">
        <ele>390</ele>
        <time>2015-01-25T09:20:14.000Z</time>
      </trkpt>
      <trkpt lat="47.52031" lon="6.72126">
        <ele>390</ele>
        <time>2015-01-25T09:20:15.000Z</time>
      </trkpt>
      <trkpt lat="47.52032" lon="6.72121">
        <ele>390</ele>
        <time>2015-01-25T09:20:17.000Z</time>
      </trkpt>
      <trkpt lat="47.52033" lon="6.72119">
        <ele>390</ele>
        <time>2015-01-25T09:20:18.000Z</time>
      </trkpt>
      <trkpt lat="47.52034" lon="6.72113">
        <ele>390</ele>
        <time>2015-01-25T09:20:21.000Z</time>
      </trkpt>
      <trkpt lat="47.52034" lon="6.7211">
        <ele>390</ele>
        <time>2015-01-25T09:20:22.000Z</time>
      </trkpt>
      <trkpt lat="47.52035" lon="6.72104">
        <ele>391</ele>
        <time>2015-01-25T09:20:24.000Z</time>
      </trkpt>
      <trkpt lat="47.52035" lon="6.72101">
        <ele>391</ele>
        <time>2015-01-25T09:20:25.000Z</time>
      </trkpt>
      <trkpt lat="47.52035" lon="6.72095">
        <ele>391</ele>
        <time>2015-01-25T09:20:27.000Z</time>
      </trkpt>
      <trkpt lat="47.52036" lon="6.72093">
        <ele>391</ele>
        <time>2015-01-25T09:20:28.000Z</time>
      </trkpt>
      <trkpt lat="47.52037" lon="6.72088">
        <ele>391</ele>
        <time>2015-01-25T09:20:30.000Z</time>
      </trkpt>
      <trkpt lat="47.52038" lon="6.72086">
        <ele>391</ele>
        <time>2015-01-25T09:20:31.000Z</time>
      </trkpt>
      <trkpt lat="47.52038" lon="6.72081">
        <ele>394</ele>
        <time>2015-01-25T09:20:33.000Z</time>
      </trkpt>
      <trkpt lat="47.52039" lon="6.72079">
        <ele>394</ele>
        <time>2015-01-25T09:20:34.000Z</time>
      </trkpt>
      <trkpt lat="47.52039" lon="6.72074">
        <ele>394</ele>
        <time>2015-01-25T09:20:36.000Z</time>
      </trkpt>
      <trkpt lat="47.5204" lon="6.72071">
        <ele>394</ele>
        <time>2015-01-25T09:20:37.000Z</time>
      </trkpt>
      <trkpt lat="47.52041" lon="6.72066">
        <ele>394</ele>
        <time>2015-01-25T09:20:39.000Z</time>
      </trkpt>
      <trkpt lat="47.52041" lon="6.72064">
        <ele>394</ele>
        <time>2015-01-25T09:20:40.000Z</time>
      </trkpt>
      <trkpt lat="47.52043" lon="6.72059">
        <ele>394</ele>
        <time>2015-01-25T09:20:42.000Z</time>
      </trkpt>
      <trkpt lat="47.52043" lon="6.72057">
        <ele>394</ele>
        <time>2015-01-25T09:20:43.000Z</time>
      </trkpt>
      <trkpt lat="47.52044" lon="6.72055">
        <ele>394</ele>
        <time>2015-01-25T09:20:44.000Z</time>
      </trkpt>
      <trkpt lat="47.52045" lon="6.72048">
        <ele>395</ele>
        <time>2015-01-25T09:20:47.000Z</time>
      </trkpt>
      <trkpt lat="47.52046" lon="6.72041">
        <ele>395</ele>
        <time>2015-01-25T09:20:50.000Z</time>
      </trkpt>
      <trkpt lat="47.52046" lon="6.72039">
        <ele>395</ele>
        <time>2015-01-25T09:20:51.000Z</time>
      </trkpt>
      <trkpt lat="47.52046" lon="6.72034">
        <ele>395</ele>
        <time>2015-01-25T09:20:54.000Z</time>
      </trkpt>
      <trkpt lat="47.52046" lon="6.72032">
        <ele>395</ele>
        <time>2015-01-25T09:20:55.000Z</time>
      </trkpt>
      <trkpt lat="47.52046" lon="6.72027">
        <ele>395</ele>
        <time>2015-01-25T09:20:57.000Z</time>
      </trkpt>
      <trkpt lat="47.52046" lon="6.72024">
        <ele>395</ele>
        <time>2015-01-25T09:20:58.000Z</time>
      </trkpt>
      <trkpt lat="47.52046" lon="6.72018">
        <ele>395</ele>
        <time>2015-01-25T09:21:00.000Z</time>
      </trkpt>
      <trkpt lat="47.52046" lon="6.72016">
        <ele>396</ele>
        <time>2015-01-25T09:21:01.000Z</time>
      </trkpt>
      <trkpt lat="47.52046" lon="6.72009">
        <ele>396</ele>
        <time>2015-01-25T09:21:03.000Z</time>
      </trkpt>
      <trkpt lat="47.52046" lon="6.72006">
        <ele>396</ele>
        <time>2015-01-25T09:21:04.000Z</time>
      </trkpt>
      <trkpt lat="47.52045" lon="6.72002">
        <ele>396</ele>
        <time>2015-01-25T09:21:05.000Z</time>
      </trkpt>
      <trkpt lat="47.52045" lon="6.71999">
        <ele>398</ele>
        <time>2015-01-25T09:21:06.000Z</time>
      </trkpt>
      <trkpt lat="47.52044" lon="6.71992">
        <ele>398</ele>
        <time>2015-01-25T09:21:08.000Z</time>
      </trkpt>
      <trkpt lat="47.52044" lon="6.71989">
        <ele>398</ele>
        <time>2015-01-25T09:21:09.000Z</time>
      </trkpt>
      <trkpt lat="47.52043" lon="6.71983">
        <ele>398</ele>
        <time>2015-01-25T09:21:11.000Z</time>
      </trkpt>
      <trkpt lat="47.52043" lon="6.7198">
        <ele>398</ele>
        <time>2015-01-25T09:21:12.000Z</time>
      </trkpt>
      <trkpt lat="47.52043" lon="6.71975">
        <ele>398</ele>
        <time>2015-01-25T09:21:14.000Z</time>
      </trkpt>
      <trkpt lat="47.52042" lon="6.71973">
        <ele>398</ele>
        <time>2015-01-25T09:21:15.000Z</time>
      </trkpt>
      <trkpt lat="47.52041" lon="6.71968">
        <ele>398</ele>
        <time>2015-01-25T09:21:17.000Z</time>
      </trkpt>
      <trkpt lat="47.52041" lon="6.71966">
        <ele>398</ele>
        <time>2015-01-25T09:21:18.000Z</time>
      </trkpt>
      <trkpt lat="47.5204" lon="6.71961">
        <ele>398</ele>
        <time>2015-01-25T09:21:20.000Z</time>
      </trkpt>
      <trkpt lat="47.5204" lon="6.71959">
        <ele>398</ele>
        <time>2015-01-25T09:21:21.000Z</time>
      </trkpt>
      <trkpt lat="47.52039" lon="6.71954">
        <ele>398</ele>
        <time>2015-01-25T09:21:23.000Z</time>
      </trkpt>
      <trkpt lat="47.52039" lon="6.71951">
        <ele>398</ele>
        <time>2015-01-25T09:21:24.000Z</time>
      </trkpt>
      <trkpt lat="47.52039" lon="6.71947">
        <ele>398</ele>
        <time>2015-01-25T09:21:26.000Z</time>
      </trkpt>
      <trkpt lat="47.52039" lon="6.71944">
        <ele>398</ele>
        <time>2015-01-25T09:21:27.000Z</time>
      </trkpt>
      <trkpt lat="47.5204" lon="6.7194">
        <ele>398</ele>
        <time>2015-01-25T09:21:29.000Z</time>
      </trkpt>
      <trkpt lat="47.5204" lon="6.71937">
        <ele>398</ele>
        <time>2015-01-25T09:21:30.000Z</time>
      </trkpt>
      <trkpt lat="47.52041" lon="6.71932">
        <ele>398</ele>
        <time>2015-01-25T09:21:33.000Z</time>
      </trkpt>
      <trkpt lat="47.52041" lon="6.71931">
        <ele>398</ele>
        <time>2015-01-25T09:21:34.000Z</time>
      </trkpt>
      <trkpt lat="47.52043" lon="6.71926">
        <ele>398</ele>
        <time>2015-01-25T09:21:43.000Z</time>
      </trkpt>
      <trkpt lat="47.52043" lon="6.71924">
        <ele>398</ele>
        <time>2015-01-25T09:21:44.000Z</time>
      </trkpt>
      <trkpt lat="47.52045" lon="6.71919">
        <ele>398</ele>
        <time>2015-01-25T09:21:47.000Z</time>
      </trkpt>
      <trkpt lat="47.52045" lon="6.71917">
        <ele>399</ele>
        <time>2015-01-25T09:21:48.000Z</time>
      </trkpt>
      <trkpt lat="47.52046" lon="6.71912">
        <ele>399</ele>
        <time>2015-01-25T09:21:50.000Z</time>
      </trkpt>
      <trkpt lat="47.52046" lon="6.71909">
        <ele>399</ele>
        <time>2015-01-25T09:21:51.000Z</time>
      </trkpt>
      <trkpt lat="47.52047" lon="6.71904">
        <ele>399</ele>
        <time>2015-01-25T09:21:53.000Z</time>
      </trkpt>
      <trkpt lat="47.52047" lon="6.71901">
        <ele>399</ele>
        <time>2015-01-25T09:21:54.000Z</time>
      </trkpt>
      <trkpt lat="47.52047" lon="6.71895">
        <ele>399</ele>
        <time>2015-01-25T09:21:56.000Z</time>
      </trkpt>
      <trkpt lat="47.52047" lon="6.71892">
        <ele>399</ele>
        <time>2015-01-25T09:21:57.000Z</time>
      </trkpt>
      <trkpt lat="47.52047" lon="6.71887">
        <ele>399</ele>
        <time>2015-01-25T09:21:59.000Z</time>
      </trkpt>
      <trkpt lat="47.52047" lon="6.71884">
        <ele>399</ele>
        <time>2015-01-25T09:22:00.000Z</time>
      </trkpt>
      <trkpt lat="47.52046" lon="6.71879">
        <ele>399</ele>
        <time>2015-01-25T09:22:02.000Z</time>
      </trkpt>
      <trkpt lat="47.52046" lon="6.71877">
        <ele>399</ele>
        <time>2015-01-25T09:22:03.000Z</time>
      </trkpt>
      <trkpt lat="47.52047" lon="6.71873">
        <ele>399</ele>
        <time>2015-01-25T09:22:05.000Z</time>
      </trkpt>
      <trkpt lat="47.52047" lon="6.7187">
        <ele>399</ele>
        <time>2015-01-25T09:22:06.000Z</time>
      </trkpt>
      <trkpt lat="47.52048" lon="6.71865">
        <ele>399</ele>
        <time>2015-01-25T09:22:08.000Z</time>
      </trkpt>
      <trkpt lat="47.52048" lon="6.71863">
        <ele>399</ele>
        <time>2015-01-25T09:22:09.000Z</time>
      </trkpt>
      <trkpt lat="47.52048" lon="6.71858">
        <ele>400</ele>
        <time>2015-01-25T09:22:11.000Z</time>
      </trkpt>
      <trkpt lat="47.52048" lon="6.71856">
        <ele>400</ele>
        <time>2015-01-25T09:22:12.000Z</time>
      </trkpt>
      <trkpt lat="47.52047" lon="6.71852">
        <ele>400</ele>
        <time>2015-01-25T09:22:14.000Z</time>
      </trkpt>
      <trkpt lat="47.52046" lon="6.7185">
        <ele>400</ele>
        <time>2015-01-25T09:22:15.000Z</time>
      </trkpt>
      <trkpt lat="47.52045" lon="6.71844">
        <ele>400</ele>
        <time>2015-01-25T09:22:18.000Z</time>
      </trkpt>
      <trkpt lat="47.52045" lon="6.71843">
        <ele>400</ele>
        <time>2015-01-25T09:22:19.000Z</time>
      </trkpt>
      <trkpt lat="47.52045" lon="6.71837">
        <ele>400</ele>
        <time>2015-01-25T09:22:22.000Z</time>
      </trkpt>
      <trkpt lat="47.52045" lon="6.71835">
        <ele>400</ele>
        <time>2015-01-25T09:22:23.000Z</time>
      </trkpt>
      <trkpt lat="47.52046" lon="6.71831">
        <ele>402</ele>
        <time>2015-01-25T09:22:25.000Z</time>
      </trkpt>
      <trkpt lat="47.52046" lon="6.71829">
        <ele>402</ele>
        <time>2015-01-25T09:22:26.000Z</time>
      </trkpt>
      <trkpt lat="47.52045" lon="6.71823">
        <ele>402</ele>
        <time>2015-01-25T09:22:28.000Z</time>
      </trkpt>
      <trkpt lat="47.52045" lon="6.71821">
        <ele>402</ele>
        <time>2015-01-25T09:22:29.000Z</time>
      </trkpt>
      <trkpt lat="47.52044" lon="6.71816">
        <ele>403</ele>
        <time>2015-01-25T09:22:31.000Z</time>
      </trkpt>
      <trkpt lat="47.52043" lon="6.71813">
        <ele>403</ele>
        <time>2015-01-25T09:22:32.000Z</time>
      </trkpt>
      <trkpt lat="47.52043" lon="6.71807">
        <ele>403</ele>
        <time>2015-01-25T09:22:34.000Z</time>
      </trkpt>
      <trkpt lat="47.52044" lon="6.71804">
        <ele>403</ele>
        <time>2015-01-25T09:22:35.000Z</time>
      </trkpt>
      <trkpt lat="47.52044" lon="6.71798">
        <ele>403</ele>
        <time>2015-01-25T09:22:37.000Z</time>
      </trkpt>
      <trkpt lat="47.52044" lon="6.71794">
        <ele>403</ele>
        <time>2015-01-25T09:22:38.000Z</time>
      </trkpt>
      <trkpt lat="47.52044" lon="6.71789">
        <ele>404</ele>
        <time>2015-01-25T09:22:40.000Z</time>
      </trkpt>
      <trkpt lat="47.52043" lon="6.71786">
        <ele>404</ele>
        <time>2015-01-25T09:22:41.000Z</time>
      </trkpt>
      <trkpt lat="47.52044" lon="6.71781">
        <ele>404</ele>
        <time>2015-01-25T09:22:43.000Z</time>
      </trkpt>
      <trkpt lat="47.52044" lon="6.71779">
        <ele>404</ele>
        <time>2015-01-25T09:22:44.000Z</time>
      </trkpt>
      <trkpt lat="47.52045" lon="6.71774">
        <ele>404</ele>
        <time>2015-01-25T09:22:47.000Z</time>
      </trkpt>
      <trkpt lat="47.52045" lon="6.71772">
        <ele>404</ele>
        <time>2015-01-25T09:22:48.000Z</time>
      </trkpt>
      <trkpt lat="47.52048" lon="6.71767">
        <ele>404</ele>
        <time>2015-01-25T09:22:51.000Z</time>
      </trkpt>
      <trkpt lat="47.52048" lon="6.71765">
        <ele>404</ele>
        <time>2015-01-25T09:22:52.000Z</time>
      </trkpt>
      <trkpt lat="47.5205" lon="6.71759">
        <ele>404</ele>
        <time>2015-01-25T09:22:56.000Z</time>
      </trkpt>
      <trkpt lat="47.5205" lon="6.71758">
        <ele>404</ele>
        <time>2015-01-25T09:22:57.000Z</time>
      </trkpt>
      <trkpt lat="47.5205" lon="6.71753">
        <ele>404</ele>
        <time>2015-01-25T09:23:00.000Z</time>
      </trkpt>
      <trkpt lat="47.5205" lon="6.71751">
        <ele>404</ele>
        <time>2015-01-25T09:23:01.000Z</time>
      </trkpt>
      <trkpt lat="47.5205" lon="6.71746">
        <ele>408</ele>
        <time>2015-01-25T09:23:03.000Z</time>
      </trkpt>
      <trkpt lat="47.5205" lon="6.71743">
        <ele>408</ele>
        <time>2015-01-25T09:23:04.000Z</time>
      </trkpt>
      <trkpt lat="47.52051" lon="6.71737">
        <ele>408</ele>
        <time>2015-01-25T09:23:06.000Z</time>
      </trkpt>
      <trkpt lat="47.52053" lon="6.71734">
        <ele>408</ele>
        <time>2015-01-25T09:23:07.000Z</time>
      </trkpt>
      <trkpt lat="47.52054" lon="6.71728">
        <ele>408</ele>
        <time>2015-01-25T09:23:09.000Z</time>
      </trkpt>
      <trkpt lat="47.52055" lon="6.71725">
        <ele>409</ele>
        <time>2015-01-25T09:23:10.000Z</time>
      </trkpt>
      <trkpt lat="47.52056" lon="6.7172">
        <ele>409</ele>
        <time>2015-01-25T09:23:12.041Z</time>
      </trkpt>
      <trkpt lat="47.52057" lon="6.71718">
        <ele>409</ele>
        <time>2015-01-25T09:23:13.000Z</time>
      </trkpt>
      <trkpt lat="47.52059" lon="6.71712">
        <ele>409</ele>
        <time>2015-01-25T09:23:16.000Z</time>
      </trkpt>
      <trkpt lat="47.52059" lon="6.7171">
        <ele>409</ele>
        <time>2015-01-25T09:23:17.000Z</time>
      </trkpt>
      <trkpt lat="47.52061" lon="6.71705">
        <ele>409</ele>
        <time>2015-01-25T09:23:21.000Z</time>
      </trkpt>
      <trkpt lat="47.52062" lon="6.71704">
        <ele>409</ele>
        <time>2015-01-25T09:23:22.000Z</time>
      </trkpt>
      <trkpt lat="47.52064" lon="6.717">
        <ele>410</ele>
        <time>2015-01-25T09:23:26.000Z</time>
      </trkpt>
      <trkpt lat="47.52065" lon="6.71698">
        <ele>410</ele>
        <time>2015-01-25T09:23:27.000Z</time>
      </trkpt>
      <trkpt lat="47.52067" lon="6.71694">
        <ele>410</ele>
        <time>2015-01-25T09:23:30.000Z</time>
      </trkpt>
      <trkpt lat="47.52068" lon="6.71693">
        <ele>410</ele>
        <time>2015-01-25T09:23:31.000Z</time>
      </trkpt>
      <trkpt lat="47.5207" lon="6.71689">
        <ele>410</ele>
        <time>2015-01-25T09:23:34.998Z</time>
      </trkpt>
      <trkpt lat="47.52071" lon="6.71687">
        <ele>410</ele>
        <time>2015-01-25T09:23:36.000Z</time>
      </trkpt>
      <trkpt lat="47.52073" lon="6.71682">
        <ele>410</ele>
        <time>2015-01-25T09:23:40.000Z</time>
      </trkpt>
      <trkpt lat="47.52073" lon="6.71681">
        <ele>410</ele>
        <time>2015-01-25T09:23:41.000Z</time>
      </trkpt>
      <trkpt lat="47.52073" lon="6.71674">
        <ele>411</ele>
        <time>2015-01-25T09:23:56.000Z</time>
      </trkpt>
      <trkpt lat="47.52074" lon="6.71674">
        <ele>411</ele>
        <time>2015-01-25T09:23:57.000Z</time>
      </trkpt>
      <trkpt lat="47.52077" lon="6.7167">
        <ele>411</ele>
        <time>2015-01-25T09:24:01.000Z</time>
      </trkpt>
      <trkpt lat="47.52077" lon="6.71669">
        <ele>411</ele>
        <time>2015-01-25T09:24:02.000Z</time>
      </trkpt>
      <trkpt lat="47.52079" lon="6.71664">
        <ele>412</ele>
        <time>2015-01-25T09:26:18.000Z</time>
      </trkpt>
      <trkpt lat="47.52079" lon="6.71663">
        <ele>412</ele>
        <time>2015-01-25T09:26:19.000Z</time>
      </trkpt>
      <trkpt lat="47.52082" lon="6.71658">
        <ele>412</ele>
        <time>2015-01-25T09:26:21.000Z</time>
      </trkpt>
      <trkpt lat="47.52084" lon="6.71656">
        <ele>408</ele>
        <time>2015-01-25T09:26:22.000Z</time>
      </trkpt>
      <trkpt lat="47.52087" lon="6.71652">
        <ele>407</ele>
        <time>2015-01-25T09:26:23.000Z</time>
      </trkpt>
      <trkpt lat="47.52089" lon="6.71649">
        <ele>407</ele>
        <time>2015-01-25T09:26:24.000Z</time>
      </trkpt>
      <trkpt lat="47.52092" lon="6.71646">
        <ele>406</ele>
        <time>2015-01-25T09:26:25.000Z</time>
      </trkpt>
      <trkpt lat="47.52095" lon="6.71642">
        <ele>406</ele>
        <time>2015-01-25T09:26:26.000Z</time>
      </trkpt>
      <trkpt lat="47.52098" lon="6.71639">
        <ele>405</ele>
        <time>2015-01-25T09:26:27.000Z</time>
      </trkpt>
      <trkpt lat="47.52101" lon="6.71635">
        <ele>405</ele>
        <time>2015-01-25T09:26:28.000Z</time>
      </trkpt>
      <trkpt lat="47.52104" lon="6.71631">
        <ele>404</ele>
        <time>2015-01-25T09:26:29.000Z</time>
      </trkpt>
      <trkpt lat="47.52107" lon="6.71627">
        <ele>404</ele>
        <time>2015-01-25T09:26:30.000Z</time>
      </trkpt>
      <trkpt lat="47.5211" lon="6.71622">
        <ele>404</ele>
        <time>2015-01-25T09:26:31.000Z</time>
      </trkpt>
      <trkpt lat="47.52114" lon="6.71618">
        <ele>404</ele>
        <time>2015-01-25T09:26:32.000Z</time>
      </trkpt>
      <trkpt lat="47.52117" lon="6.71613">
        <ele>403</ele>
        <time>2015-01-25T09:26:33.000Z</time>
      </trkpt>
      <trkpt lat="47.5212" lon="6.71609">
        <ele>403</ele>
        <time>2015-01-25T09:26:34.000Z</time>
      </trkpt>
      <trkpt lat="47.52123" lon="6.71605">
        <ele>403</ele>
        <time>2015-01-25T09:26:35.000Z</time>
      </trkpt>
      <trkpt lat="47.52126" lon="6.71601">
        <ele>402</ele>
        <time>2015-01-25T09:26:36.000Z</time>
      </trkpt>
      <trkpt lat="47.5213" lon="6.71598">
        <ele>402</ele>
        <time>2015-01-25T09:26:37.000Z</time>
      </trkpt>
      <trkpt lat="47.52133" lon="6.71595">
        <ele>401</ele>
        <time>2015-01-25T09:26:38.000Z</time>
      </trkpt>
      <trkpt lat="47.5214" lon="6.71599">
        <ele>401</ele>
        <time>2015-01-25T09:26:39.000Z</time>
      </trkpt>
      <trkpt lat="47.52145" lon="6.71598">
        <ele>400</ele>
        <time>2015-01-25T09:26:40.000Z</time>
      </trkpt>
      <trkpt lat="47.5215" lon="6.71598">
        <ele>399</ele>
        <time>2015-01-25T09:26:41.000Z</time>
      </trkpt>
      <trkpt lat="47.52155" lon="6.71595">
        <ele>398</ele>
        <time>2015-01-25T09:26:42.000Z</time>
      </trkpt>
      <trkpt lat="47.52159" lon="6.71593">
        <ele>398</ele>
        <time>2015-01-25T09:26:43.000Z</time>
      </trkpt>
      <trkpt lat="47.52163" lon="6.71586">
        <ele>396</ele>
        <time>2015-01-25T09:26:44.000Z</time>
      </trkpt>
      <trkpt lat="47.5217" lon="6.71536">
        <ele>391</ele>
        <time>2015-01-25T09:26:52.000Z</time>
      </trkpt>
      <trkpt lat="47.5217" lon="6.71529">
        <ele>391</ele>
        <time>2015-01-25T09:26:53.000Z</time>
      </trkpt>
      <trkpt lat="47.5217" lon="6.71523">
        <ele>392</ele>
        <time>2015-01-25T09:26:54.000Z</time>
      </trkpt>
      <trkpt lat="47.52169" lon="6.71516">
        <ele>392</ele>
        <time>2015-01-25T09:26:55.000Z</time>
      </trkpt>
      <trkpt lat="47.52169" lon="6.7151">
        <ele>392</ele>
        <time>2015-01-25T09:26:56.000Z</time>
      </trkpt>
      <trkpt lat="47.52169" lon="6.71504">
        <ele>393</ele>
        <time>2015-01-25T09:26:57.000Z</time>
      </trkpt>
      <trkpt lat="47.52169" lon="6.71498">
        <ele>393</ele>
        <time>2015-01-25T09:26:58.000Z</time>
      </trkpt>
      <trkpt lat="47.52168" lon="6.71492">
        <ele>392</ele>
        <time>2015-01-25T09:26:59.000Z</time>
      </trkpt>
      <trkpt lat="47.52168" lon="6.71485">
        <ele>390</ele>
        <time>2015-01-25T09:27:00.000Z</time>
      </trkpt>
      <trkpt lat="47.52167" lon="6.71479">
        <ele>390</ele>
        <time>2015-01-25T09:27:01.000Z</time>
      </trkpt>
      <trkpt lat="47.52166" lon="6.71473">
        <ele>394</ele>
        <time>2015-01-25T09:27:02.000Z</time>
      </trkpt>
      <trkpt lat="47.52166" lon="6.71467">
        <ele>394</ele>
        <time>2015-01-25T09:27:03.000Z</time>
      </trkpt>
      <trkpt lat="47.52165" lon="6.71461">
        <ele>394</ele>
        <time>2015-01-25T09:27:04.000Z</time>
      </trkpt>
      <trkpt lat="47.52165" lon="6.71454">
        <ele>393</ele>
        <time>2015-01-25T09:27:05.000Z</time>
      </trkpt>
      <trkpt lat="47.52164" lon="6.71447">
        <ele>393</ele>
        <time>2015-01-25T09:27:06.000Z</time>
      </trkpt>
      <trkpt lat="47.52164" lon="6.71439">
        <ele>392</ele>
        <time>2015-01-25T09:27:07.000Z</time>
      </trkpt>
      <trkpt lat="47.52162" lon="6.71433">
        <ele>391</ele>
        <time>2015-01-25T09:27:08.000Z</time>
      </trkpt>
      <trkpt lat="47.52161" lon="6.71427">
        <ele>390</ele>
        <time>2015-01-25T09:27:09.000Z</time>
      </trkpt>
      <trkpt lat="47.5216" lon="6.71421">
        <ele>389</ele>
        <time>2015-01-25T09:27:10.000Z</time>
      </trkpt>
      <trkpt lat="47.52158" lon="6.71415">
        <ele>388</ele>
        <time>2015-01-25T09:27:11.000Z</time>
      </trkpt>
      <trkpt lat="47.52157" lon="6.71408">
        <ele>388</ele>
        <time>2015-01-25T09:27:12.000Z</time>
      </trkpt>
      <trkpt lat="47.52154" lon="6.71402">
        <ele>388</ele>
        <time>2015-01-25T09:27:13.000Z</time>
      </trkpt>
      <trkpt lat="47.52152" lon="6.71397">
        <ele>388</ele>
        <time>2015-01-25T09:27:14.000Z</time>
      </trkpt>
      <trkpt lat="47.52151" lon="6.71392">
        <ele>388</ele>
        <time>2015-01-25T09:27:15.000Z</time>
      </trkpt>
      <trkpt lat="47.52151" lon="6.71386">
        <ele>388</ele>
        <time>2015-01-25T09:27:16.000Z</time>
      </trkpt>
      <trkpt lat="47.52151" lon="6.71381">
        <ele>388</ele>
        <time>2015-01-25T09:27:17.000Z</time>
      </trkpt>
      <trkpt lat="47.5215" lon="6.71377">
        <ele>388</ele>
        <time>2015-01-25T09:27:18.000Z</time>
      </trkpt>
      <trkpt lat="47.52149" lon="6.71374">
        <ele>388</ele>
        <time>2015-01-25T09:27:19.000Z</time>
      </trkpt>
      <trkpt lat="47.52148" lon="6.71369">
        <ele>388</ele>
        <time>2015-01-25T09:27:20.000Z</time>
      </trkpt>
      <trkpt lat="47.52146" lon="6.71365">
        <ele>388</ele>
        <time>2015-01-25T09:27:21.000Z</time>
      </trkpt>
      <trkpt lat="47.52147" lon="6.71359">
        <ele>387</ele>
        <time>2015-01-25T09:27:23.000Z</time>
      </trkpt>
      <trkpt lat="47.52147" lon="6.71355">
        <ele>387</ele>
        <time>2015-01-25T09:27:24.000Z</time>
      </trkpt>
      <trkpt lat="47.52148" lon="6.71352">
        <ele>387</ele>
        <time>2015-01-25T09:27:25.000Z</time>
      </trkpt>
      <trkpt lat="47.52148" lon="6.71349">
        <ele>387</ele>
        <time>2015-01-25T09:27:26.000Z</time>
      </trkpt>
      <trkpt lat="47.52149" lon="6.71345">
        <ele>386</ele>
        <time>2015-01-25T09:27:27.000Z</time>
      </trkpt>
      <trkpt lat="47.52151" lon="6.71341">
        <ele>386</ele>
        <time>2015-01-25T09:27:28.000Z</time>
      </trkpt>
      <trkpt lat="47.52153" lon="6.71337">
        <ele>385</ele>
        <time>2015-01-25T09:27:29.000Z</time>
      </trkpt>
      <trkpt lat="47.52155" lon="6.71334">
        <ele>385</ele>
        <time>2015-01-25T09:27:30.000Z</time>
      </trkpt>
      <trkpt lat="47.52158" lon="6.7133">
        <ele>383</ele>
        <time>2015-01-25T09:27:31.000Z</time>
      </trkpt>
      <trkpt lat="47.5216" lon="6.71326">
        <ele>383</ele>
        <time>2015-01-25T09:27:32.000Z</time>
      </trkpt>
      <trkpt lat="47.52163" lon="6.71322">
        <ele>383</ele>
        <time>2015-01-25T09:27:33.000Z</time>
      </trkpt>
      <trkpt lat="47.52166" lon="6.71319">
        <ele>383</ele>
        <time>2015-01-25T09:27:34.000Z</time>
      </trkpt>
      <trkpt lat="47.52169" lon="6.71315">
        <ele>379</ele>
        <time>2015-01-25T09:27:35.000Z</time>
      </trkpt>
      <trkpt lat="47.52173" lon="6.71311">
        <ele>379</ele>
        <time>2015-01-25T09:27:36.000Z</time>
      </trkpt>
      <trkpt lat="47.52176" lon="6.71308">
        <ele>378</ele>
        <time>2015-01-25T09:27:37.000Z</time>
      </trkpt>
      <trkpt lat="47.5218" lon="6.71305">
        <ele>378</ele>
        <time>2015-01-25T09:27:38.000Z</time>
      </trkpt>
      <trkpt lat="47.52184" lon="6.71302">
        <ele>378</ele>
        <time>2015-01-25T09:27:39.000Z</time>
      </trkpt>
      <trkpt lat="47.52188" lon="6.71299">
        <ele>377</ele>
        <time>2015-01-25T09:27:40.000Z</time>
      </trkpt>
      <trkpt lat="47.52192" lon="6.71296">
        <ele>377</ele>
        <time>2015-01-25T09:27:41.000Z</time>
      </trkpt>
      <trkpt lat="47.52196" lon="6.71293">
        <ele>377</ele>
        <time>2015-01-25T09:27:42.000Z</time>
      </trkpt>
      <trkpt lat="47.522" lon="6.7129">
        <ele>377</ele>
        <time>2015-01-25T09:27:43.000Z</time>
      </trkpt>
      <trkpt lat="47.52203" lon="6.71287">
        <ele>376</ele>
        <time>2015-01-25T09:27:44.000Z</time>
      </trkpt>
      <trkpt lat="47.52213" lon="6.71278">
        <ele>376</ele>
        <time>2015-01-25T09:27:47.000Z</time>
      </trkpt>
      <trkpt lat="47.52218" lon="6.71273">
        <ele>375</ele>
        <time>2015-01-25T09:27:48.000Z</time>
      </trkpt>
      <trkpt lat="47.52221" lon="6.7127">
        <ele>375</ele>
        <time>2015-01-25T09:27:49.000Z</time>
      </trkpt>
      <trkpt lat="47.52225" lon="6.71267">
        <ele>375</ele>
        <time>2015-01-25T09:27:50.000Z</time>
      </trkpt>
      <trkpt lat="47.52229" lon="6.71264">
        <ele>374</ele>
        <time>2015-01-25T09:27:51.000Z</time>
      </trkpt>
      <trkpt lat="47.52233" lon="6.71261">
        <ele>374</ele>
        <time>2015-01-25T09:27:52.000Z</time>
      </trkpt>
      <trkpt lat="47.52237" lon="6.71257">
        <ele>373</ele>
        <time>2015-01-25T09:27:53.000Z</time>
      </trkpt>
      <trkpt lat="47.5224" lon="6.71254">
        <ele>373</ele>
        <time>2015-01-25T09:27:54.000Z</time>
      </trkpt>
      <trkpt lat="47.52244" lon="6.71251">
        <ele>372</ele>
        <time>2015-01-25T09:27:55.000Z</time>
      </trkpt>
      <trkpt lat="47.52248" lon="6.71247">
        <ele>371</ele>
        <time>2015-01-25T09:27:56.000Z</time>
      </trkpt>
      <trkpt lat="47.52251" lon="6.71245">
        <ele>370</ele>
        <time>2015-01-25T09:27:57.000Z</time>
      </trkpt>
      <trkpt lat="47.52255" lon="6.71242">
        <ele>370</ele>
        <time>2015-01-25T09:27:58.000Z</time>
      </trkpt>
      <trkpt lat="47.52257" lon="6.71239">
        <ele>369</ele>
        <time>2015-01-25T09:27:59.000Z</time>
      </trkpt>
      <trkpt lat="47.52261" lon="6.71238">
        <ele>369</ele>
        <time>2015-01-25T09:28:00.000Z</time>
      </trkpt>
      <trkpt lat="47.52265" lon="6.71236">
        <ele>369</ele>
        <time>2015-01-25T09:28:01.000Z</time>
      </trkpt>
      <trkpt lat="47.52269" lon="6.71233">
        <ele>369</ele>
        <time>2015-01-25T09:28:02.000Z</time>
      </trkpt>
      <trkpt lat="47.52273" lon="6.71231">
        <ele>368</ele>
        <time>2015-01-25T09:28:03.000Z</time>
      </trkpt>
      <trkpt lat="47.52277" lon="6.71228">
        <ele>368</ele>
        <time>2015-01-25T09:28:04.000Z</time>
      </trkpt>
      <trkpt lat="47.52281" lon="6.71224">
        <ele>368</ele>
        <time>2015-01-25T09:28:05.000Z</time>
      </trkpt>
      <trkpt lat="47.52285" lon="6.7122">
        <ele>368</ele>
        <time>2015-01-25T09:28:06.000Z</time>
      </trkpt>
      <trkpt lat="47.52289" lon="6.71215">
        <ele>368</ele>
        <time>2015-01-25T09:28:07.000Z</time>
      </trkpt>
      <trkpt lat="47.52293" lon="6.71211">
        <ele>368</ele>
        <time>2015-01-25T09:28:08.000Z</time>
      </trkpt>
      <trkpt lat="47.52296" lon="6.71206">
        <ele>367</ele>
        <time>2015-01-25T09:28:09.000Z</time>
      </trkpt>
      <trkpt lat="47.523" lon="6.712">
        <ele>367</ele>
        <time>2015-01-25T09:28:10.000Z</time>
      </trkpt>
      <trkpt lat="47.52303" lon="6.71194">
        <ele>367</ele>
        <time>2015-01-25T09:28:11.000Z</time>
      </trkpt>
      <trkpt lat="47.52307" lon="6.71189">
        <ele>367</ele>
        <time>2015-01-25T09:28:12.000Z</time>
      </trkpt>
      <trkpt lat="47.5231" lon="6.71185">
        <ele>367</ele>
        <time>2015-01-25T09:28:13.000Z</time>
      </trkpt>
      <trkpt lat="47.52314" lon="6.71179">
        <ele>367</ele>
        <time>2015-01-25T09:28:14.000Z</time>
      </trkpt>
      <trkpt lat="47.52318" lon="6.71175">
        <ele>367</ele>
        <time>2015-01-25T09:28:15.000Z</time>
      </trkpt>
      <trkpt lat="47.52322" lon="6.71171">
        <ele>367</ele>
        <time>2015-01-25T09:28:16.000Z</time>
      </trkpt>
      <trkpt lat="47.52326" lon="6.71167">
        <ele>367</ele>
        <time>2015-01-25T09:28:17.000Z</time>
      </trkpt>
      <trkpt lat="47.5233" lon="6.71165">
        <ele>367</ele>
        <time>2015-01-25T09:28:18.000Z</time>
      </trkpt>
      <trkpt lat="47.52334" lon="6.71165">
        <ele>367</ele>
        <time>2015-01-25T09:28:19.000Z</time>
      </trkpt>
      <trkpt lat="47.52338" lon="6.71165">
        <ele>367</ele>
        <time>2015-01-25T09:28:20.000Z</time>
      </trkpt>
      <trkpt lat="47.52341" lon="6.71166">
        <ele>367</ele>
        <time>2015-01-25T09:28:21.000Z</time>
      </trkpt>
      <trkpt lat="47.52344" lon="6.71168">
        <ele>366</ele>
        <time>2015-01-25T09:28:22.000Z</time>
      </trkpt>
      <trkpt lat="47.52348" lon="6.7117">
        <ele>366</ele>
        <time>2015-01-25T09:28:23.000Z</time>
      </trkpt>
      <trkpt lat="47.52351" lon="6.71172">
        <ele>365</ele>
        <time>2015-01-25T09:28:24.000Z</time>
      </trkpt>
      <trkpt lat="47.52354" lon="6.71176">
        <ele>365</ele>
        <time>2015-01-25T09:28:25.000Z</time>
      </trkpt>
      <trkpt lat="47.52357" lon="6.71179">
        <ele>365</ele>
        <time>2015-01-25T09:28:26.000Z</time>
      </trkpt>
      <trkpt lat="47.52361" lon="6.71182">
        <ele>365</ele>
        <time>2015-01-25T09:28:27.000Z</time>
      </trkpt>
      <trkpt lat="47.52366" lon="6.71185">
        <ele>365</ele>
        <time>2015-01-25T09:28:28.000Z</time>
      </trkpt>
      <trkpt lat="47.52371" lon="6.71187">
        <ele>364</ele>
        <time>2015-01-25T09:28:29.000Z</time>
      </trkpt>
      <trkpt lat="47.52376" lon="6.71189">
        <ele>364</ele>
        <time>2015-01-25T09:28:30.000Z</time>
      </trkpt>
      <trkpt lat="47.52382" lon="6.71191">
        <ele>364</ele>
        <time>2015-01-25T09:28:31.000Z</time>
      </trkpt>
      <trkpt lat="47.52388" lon="6.71191">
        <ele>364</ele>
        <time>2015-01-25T09:28:32.000Z</time>
      </trkpt>
      <trkpt lat="47.52395" lon="6.7119">
        <ele>364</ele>
        <time>2015-01-25T09:28:33.000Z</time>
      </trkpt>
      <trkpt lat="47.52402" lon="6.71189">
        <ele>364</ele>
        <time>2015-01-25T09:28:34.000Z</time>
      </trkpt>
      <trkpt lat="47.52409" lon="6.71188">
        <ele>363</ele>
        <time>2015-01-25T09:28:35.000Z</time>
      </trkpt>
      <trkpt lat="47.52416" lon="6.71187">
        <ele>363</ele>
        <time>2015-01-25T09:28:36.000Z</time>
      </trkpt>
      <trkpt lat="47.52422" lon="6.71186">
        <ele>362</ele>
        <time>2015-01-25T09:28:37.000Z</time>
      </trkpt>
      <trkpt lat="47.52429" lon="6.71184">
        <ele>361</ele>
        <time>2015-01-25T09:28:38.000Z</time>
      </trkpt>
      <trkpt lat="47.52436" lon="6.71184">
        <ele>361</ele>
        <time>2015-01-25T09:28:39.000Z</time>
      </trkpt>
      <trkpt lat="47.52442" lon="6.71183">
        <ele>361</ele>
        <time>2015-01-25T09:28:40.000Z</time>
      </trkpt>
      <trkpt lat="47.52448" lon="6.71183">
        <ele>361</ele>
        <time>2015-01-25T09:28:41.000Z</time>
      </trkpt>
      <trkpt lat="47.52455" lon="6.71183">
        <ele>361</ele>
        <time>2015-01-25T09:28:42.000Z</time>
      </trkpt>
      <trkpt lat="47.52461" lon="6.71182">
        <ele>361</ele>
        <time>2015-01-25T09:28:43.000Z</time>
      </trkpt>
      <trkpt lat="47.52467" lon="6.71183">
        <ele>361</ele>
        <time>2015-01-25T09:28:44.000Z</time>
      </trkpt>
      <trkpt lat="47.52473" lon="6.71184">
        <ele>361</ele>
        <time>2015-01-25T09:28:45.000Z</time>
      </trkpt>
      <trkpt lat="47.52508" lon="6.71223">
        <ele>360</ele>
        <time>2015-01-25T09:28:53.000Z</time>
      </trkpt>
      <trkpt lat="47.52513" lon="6.71227">
        <ele>360</ele>
        <time>2015-01-25T09:28:54.000Z</time>
      </trkpt>
      <trkpt lat="47.52517" lon="6.7123">
        <ele>360</ele>
        <time>2015-01-25T09:28:55.000Z</time>
      </trkpt>
      <trkpt lat="47.52522" lon="6.71233">
        <ele>360</ele>
        <time>2015-01-25T09:28:56.000Z</time>
      </trkpt>
      <trkpt lat="47.52527" lon="6.71237">
        <ele>360</ele>
        <time>2015-01-25T09:28:57.000Z</time>
      </trkpt>
      <trkpt lat="47.52532" lon="6.7124">
        <ele>360</ele>
        <time>2015-01-25T09:28:58.000Z</time>
      </trkpt>
      <trkpt lat="47.52538" lon="6.71244">
        <ele>360</ele>
        <time>2015-01-25T09:28:59.000Z</time>
      </trkpt>
      <trkpt lat="47.52544" lon="6.71247">
        <ele>361</ele>
        <time>2015-01-25T09:29:00.000Z</time>
      </trkpt>
      <trkpt lat="47.5255" lon="6.7125">
        <ele>361</ele>
        <time>2015-01-25T09:29:01.000Z</time>
      </trkpt>
      <trkpt lat="47.52556" lon="6.71252">
        <ele>362</ele>
        <time>2015-01-25T09:29:02.000Z</time>
      </trkpt>
      <trkpt lat="47.52562" lon="6.71254">
        <ele>362</ele>
        <time>2015-01-25T09:29:03.000Z</time>
      </trkpt>
      <trkpt lat="47.52568" lon="6.71256">
        <ele>362</ele>
        <time>2015-01-25T09:29:04.000Z</time>
      </trkpt>
      <trkpt lat="47.52574" lon="6.71259">
        <ele>362</ele>
        <time>2015-01-25T09:29:05.000Z</time>
      </trkpt>
      <trkpt lat="47.5258" lon="6.71261">
        <ele>362</ele>
        <time>2015-01-25T09:29:06.000Z</time>
      </trkpt>
      <trkpt lat="47.52586" lon="6.71262">
        <ele>363</ele>
        <time>2015-01-25T09:29:07.000Z</time>
      </trkpt>
      <trkpt lat="47.52592" lon="6.71264">
        <ele>364</ele>
        <time>2015-01-25T09:29:08.000Z</time>
      </trkpt>
      <trkpt lat="47.52598" lon="6.71266">
        <ele>364</ele>
        <time>2015-01-25T09:29:09.000Z</time>
      </trkpt>
      <trkpt lat="47.52605" lon="6.71267">
        <ele>364</ele>
        <time>2015-01-25T09:29:10.000Z</time>
      </trkpt>
      <trkpt lat="47.52612" lon="6.71268">
        <ele>364</ele>
        <time>2015-01-25T09:29:11.000Z</time>
      </trkpt>
      <trkpt lat="47.52618" lon="6.71269">
        <ele>364</ele>
        <time>2015-01-25T09:29:12.000Z</time>
      </trkpt>
      <trkpt lat="47.52624" lon="6.7127">
        <ele>364</ele>
        <time>2015-01-25T09:29:13.000Z</time>
      </trkpt>
      <trkpt lat="47.5263" lon="6.71273">
        <ele>364</ele>
        <time>2015-01-25T09:29:14.000Z</time>
      </trkpt>
      <trkpt lat="47.52636" lon="6.71275">
        <ele>364</ele>
        <time>2015-01-25T09:29:15.000Z</time>
      </trkpt>
      <trkpt lat="47.52643" lon="6.71277">
        <ele>364</ele>
        <time>2015-01-25T09:29:16.000Z</time>
      </trkpt>
      <trkpt lat="47.52649" lon="6.7128">
        <ele>364</ele>
        <time>2015-01-25T09:29:17.000Z</time>
      </trkpt>
      <trkpt lat="47.52655" lon="6.71281">
        <ele>364</ele>
        <time>2015-01-25T09:29:18.000Z</time>
      </trkpt>
      <trkpt lat="47.52661" lon="6.71281">
        <ele>364</ele>
        <time>2015-01-25T09:29:19.000Z</time>
      </trkpt>
      <trkpt lat="47.52667" lon="6.71281">
        <ele>364</ele>
        <time>2015-01-25T09:29:20.000Z</time>
      </trkpt>
      <trkpt lat="47.52673" lon="6.7128">
        <ele>364</ele>
        <time>2015-01-25T09:29:21.000Z</time>
      </trkpt>
      <trkpt lat="47.52678" lon="6.71282">
        <ele>365</ele>
        <time>2015-01-25T09:29:22.000Z</time>
      </trkpt>
      <trkpt lat="47.52684" lon="6.71283">
        <ele>365</ele>
        <time>2015-01-25T09:29:23.000Z</time>
      </trkpt>
      <trkpt lat="47.52689" lon="6.71284">
        <ele>365</ele>
        <time>2015-01-25T09:29:24.000Z</time>
      </trkpt>
      <trkpt lat="47.52694" lon="6.71284">
        <ele>365</ele>
        <time>2015-01-25T09:29:25.000Z</time>
      </trkpt>
      <trkpt lat="47.52699" lon="6.71283">
        <ele>365</ele>
        <time>2015-01-25T09:29:26.000Z</time>
      </trkpt>
      <trkpt lat="47.52702" lon="6.7128">
        <ele>365</ele>
        <time>2015-01-25T09:29:27.000Z</time>
      </trkpt>
      <trkpt lat="47.52706" lon="6.71274">
        <ele>364</ele>
        <time>2015-01-25T09:29:28.000Z</time>
      </trkpt>
      <trkpt lat="47.52707" lon="6.71268">
        <ele>364</ele>
        <time>2015-01-25T09:29:29.000Z</time>
      </trkpt>
      <trkpt lat="47.52708" lon="6.71262">
        <ele>364</ele>
        <time>2015-01-25T09:29:30.000Z</time>
      </trkpt>
      <trkpt lat="47.52706" lon="6.71255">
        <ele>364</ele>
        <time>2015-01-25T09:29:31.000Z</time>
      </trkpt>
      <trkpt lat="47.52706" lon="6.71252">
        <ele>364</ele>
        <time>2015-01-25T09:29:32.000Z</time>
      </trkpt>
      <trkpt lat="47.52706" lon="6.71248">
        <ele>361</ele>
        <time>2015-01-25T09:29:33.000Z</time>
      </trkpt>
      <trkpt lat="47.52708" lon="6.71245">
        <ele>361</ele>
        <time>2015-01-25T09:29:35.000Z</time>
      </trkpt>
      <trkpt lat="47.52708" lon="6.71242">
        <ele>361</ele>
        <time>2015-01-25T09:29:36.000Z</time>
      </trkpt>
      <trkpt lat="47.52709" lon="6.71236">
        <ele>361</ele>
        <time>2015-01-25T09:29:38.000Z</time>
      </trkpt>
      <trkpt lat="47.52709" lon="6.71233">
        <ele>361</ele>
        <time>2015-01-25T09:29:39.000Z</time>
      </trkpt>
      <trkpt lat="47.52709" lon="6.71227">
        <ele>361</ele>
        <time>2015-01-25T09:29:41.000Z</time>
      </trkpt>
      <trkpt lat="47.52709" lon="6.71225">
        <ele>361</ele>
        <time>2015-01-25T09:29:42.000Z</time>
      </trkpt>
      <trkpt lat="47.52709" lon="6.71222">
        <ele>361</ele>
        <time>2015-01-25T09:29:44.000Z</time>
      </trkpt>
      <trkpt lat="47.52711" lon="6.71215">
        <ele>361</ele>
        <time>2015-01-25T09:29:52.000Z</time>
      </trkpt>
      <trkpt lat="47.52715" lon="6.71214">
        <ele>361</ele>
        <time>2015-01-25T09:30:03.000Z</time>
      </trkpt>
      <trkpt lat="47.52716" lon="6.71213">
        <ele>361</ele>
        <time>2015-01-25T09:30:04.000Z</time>
      </trkpt>
      <trkpt lat="47.52719" lon="6.7121">
        <ele>361</ele>
        <time>2015-01-25T09:30:06.000Z</time>
      </trkpt>
      <trkpt lat="47.52721" lon="6.71208">
        <ele>361</ele>
        <time>2015-01-25T09:30:07.000Z</time>
      </trkpt>
      <trkpt lat="47.52723" lon="6.71205">
        <ele>361</ele>
        <time>2015-01-25T09:30:08.000Z</time>
      </trkpt>
      <trkpt lat="47.52725" lon="6.71203">
        <ele>361</ele>
        <time>2015-01-25T09:30:09.000Z</time>
      </trkpt>
      <trkpt lat="47.52726" lon="6.712">
        <ele>361</ele>
        <time>2015-01-25T09:30:10.000Z</time>
      </trkpt>
      <trkpt lat="47.52728" lon="6.71198">
        <ele>361</ele>
        <time>2015-01-25T09:30:11.000Z</time>
      </trkpt>
      <trkpt lat="47.5273" lon="6.71196">
        <ele>361</ele>
        <time>2015-01-25T09:30:12.000Z</time>
      </trkpt>
      <trkpt lat="47.52732" lon="6.71193">
        <ele>361</ele>
        <time>2015-01-25T09:30:13.000Z</time>
      </trkpt>
      <trkpt lat="47.52734" lon="6.71191">
        <ele>361</ele>
        <time>2015-01-25T09:30:14.000Z</time>
      </trkpt>
      <trkpt lat="47.52736" lon="6.71188">
        <ele>361</ele>
        <time>2015-01-25T09:30:15.000Z</time>
      </trkpt>
      <trkpt lat="47.52738" lon="6.71185">
        <ele>360</ele>
        <time>2015-01-25T09:30:16.000Z</time>
      </trkpt>
      <trkpt lat="47.52741" lon="6.7118">
        <ele>360</ele>
        <time>2015-01-25T09:30:17.000Z</time>
      </trkpt>
      <trkpt lat="47.52742" lon="6.71176">
        <ele>360</ele>
        <time>2015-01-25T09:30:18.000Z</time>
      </trkpt>
      <trkpt lat="47.52744" lon="6.7117">
        <ele>360</ele>
        <time>2015-01-25T09:30:19.000Z</time>
      </trkpt>
      <trkpt lat="47.52744" lon="6.71165">
        <ele>360</ele>
        <time>2015-01-25T09:30:20.000Z</time>
      </trkpt>
      <trkpt lat="47.52744" lon="6.71159">
        <ele>360</ele>
        <time>2015-01-25T09:30:21.000Z</time>
      </trkpt>
      <trkpt lat="47.52744" lon="6.71153">
        <ele>360</ele>
        <time>2015-01-25T09:30:22.000Z</time>
      </trkpt>
      <trkpt lat="47.52738" lon="6.71128">
        <ele>360</ele>
        <time>2015-01-25T09:30:23.000Z</time>
      </trkpt>
      <trkpt lat="47.52739" lon="6.71115">
        <ele>359</ele>
        <time>2015-01-25T09:30:24.000Z</time>
      </trkpt>
      <trkpt lat="47.52737" lon="6.71103">
        <ele>359</ele>
        <time>2015-01-25T09:30:25.000Z</time>
      </trkpt>
      <trkpt lat="47.52735" lon="6.71091">
        <ele>358</ele>
        <time>2015-01-25T09:30:26.000Z</time>
      </trkpt>
      <trkpt lat="47.52735" lon="6.7108">
        <ele>358</ele>
        <time>2015-01-25T09:30:27.000Z</time>
      </trkpt>
      <trkpt lat="47.52735" lon="6.7107">
        <ele>358</ele>
        <time>2015-01-25T09:30:28.000Z</time>
      </trkpt>
      <trkpt lat="47.52739" lon="6.7106">
        <ele>359</ele>
        <time>2015-01-25T09:30:29.000Z</time>
      </trkpt>
      <trkpt lat="47.52741" lon="6.71052">
        <ele>359</ele>
        <time>2015-01-25T09:30:30.000Z</time>
      </trkpt>
      <trkpt lat="47.52741" lon="6.71046">
        <ele>359</ele>
        <time>2015-01-25T09:30:31.000Z</time>
      </trkpt>
      <trkpt lat="47.5274" lon="6.7104">
        <ele>359</ele>
        <time>2015-01-25T09:30:32.000Z</time>
      </trkpt>
      <trkpt lat="47.52739" lon="6.71035">
        <ele>359</ele>
        <time>2015-01-25T09:30:33.000Z</time>
      </trkpt>
      <trkpt lat="47.52738" lon="6.71028">
        <ele>359</ele>
        <time>2015-01-25T09:30:34.000Z</time>
      </trkpt>
      <trkpt lat="47.52737" lon="6.71023">
        <ele>358</ele>
        <time>2015-01-25T09:30:35.000Z</time>
      </trkpt>
      <trkpt lat="47.52736" lon="6.71018">
        <ele>358</ele>
        <time>2015-01-25T09:30:36.000Z</time>
      </trkpt>
      <trkpt lat="47.52734" lon="6.71012">
        <ele>358</ele>
        <time>2015-01-25T09:30:37.000Z</time>
      </trkpt>
      <trkpt lat="47.52733" lon="6.71007">
        <ele>358</ele>
        <time>2015-01-25T09:30:38.000Z</time>
      </trkpt>
      <trkpt lat="47.52732" lon="6.71001">
        <ele>358</ele>
        <time>2015-01-25T09:30:39.000Z</time>
      </trkpt>
      <trkpt lat="47.5273" lon="6.70996">
        <ele>358</ele>
        <time>2015-01-25T09:30:40.000Z</time>
      </trkpt>
      <trkpt lat="47.5273" lon="6.70991">
        <ele>359</ele>
        <time>2015-01-25T09:30:41.000Z</time>
      </trkpt>
      <trkpt lat="47.52729" lon="6.70986">
        <ele>359</ele>
        <time>2015-01-25T09:30:42.000Z</time>
      </trkpt>
      <trkpt lat="47.52729" lon="6.7098">
        <ele>360</ele>
        <time>2015-01-25T09:30:43.000Z</time>
      </trkpt>
      <trkpt lat="47.52729" lon="6.70975">
        <ele>360</ele>
        <time>2015-01-25T09:30:44.000Z</time>
      </trkpt>
      <trkpt lat="47.52729" lon="6.70959">
        <ele>360</ele>
        <time>2015-01-25T09:30:47.000Z</time>
      </trkpt>
      <trkpt lat="47.52729" lon="6.70954">
        <ele>360</ele>
        <time>2015-01-25T09:30:48.000Z</time>
      </trkpt>
      <trkpt lat="47.5273" lon="6.70949">
        <ele>360</ele>
        <time>2015-01-25T09:30:49.000Z</time>
      </trkpt>
      <trkpt lat="47.52731" lon="6.70945">
        <ele>360</ele>
        <time>2015-01-25T09:30:50.000Z</time>
      </trkpt>
      <trkpt lat="47.52731" lon="6.7094">
        <ele>359</ele>
        <time>2015-01-25T09:30:51.000Z</time>
      </trkpt>
      <trkpt lat="47.52732" lon="6.70935">
        <ele>359</ele>
        <time>2015-01-25T09:30:52.000Z</time>
      </trkpt>
      <trkpt lat="47.52733" lon="6.70931">
        <ele>358</ele>
        <time>2015-01-25T09:30:53.000Z</time>
      </trkpt>
      <trkpt lat="47.52734" lon="6.70926">
        <ele>358</ele>
        <time>2015-01-25T09:30:54.000Z</time>
      </trkpt>
      <trkpt lat="47.52735" lon="6.70921">
        <ele>357</ele>
        <time>2015-01-25T09:30:55.000Z</time>
      </trkpt>
      <trkpt lat="47.52736" lon="6.70915">
        <ele>357</ele>
        <time>2015-01-25T09:30:56.000Z</time>
      </trkpt>
      <trkpt lat="47.52737" lon="6.7091">
        <ele>357</ele>
        <time>2015-01-25T09:30:57.000Z</time>
      </trkpt>
      <trkpt lat="47.52739" lon="6.70905">
        <ele>357</ele>
        <time>2015-01-25T09:30:58.000Z</time>
      </trkpt>
      <trkpt lat="47.5274" lon="6.70899">
        <ele>358</ele>
        <time>2015-01-25T09:30:59.000Z</time>
      </trkpt>
      <trkpt lat="47.52742" lon="6.70894">
        <ele>358</ele>
        <time>2015-01-25T09:31:00.000Z</time>
      </trkpt>
      <trkpt lat="47.52743" lon="6.70889">
        <ele>359</ele>
        <time>2015-01-25T09:31:01.000Z</time>
      </trkpt>
      <trkpt lat="47.52744" lon="6.70883">
        <ele>359</ele>
        <time>2015-01-25T09:31:02.000Z</time>
      </trkpt>
      <trkpt lat="47.52744" lon="6.70878">
        <ele>359</ele>
        <time>2015-01-25T09:31:03.000Z</time>
      </trkpt>
      <trkpt lat="47.52745" lon="6.70872">
        <ele>359</ele>
        <time>2015-01-25T09:31:04.000Z</time>
      </trkpt>
      <trkpt lat="47.52746" lon="6.70867">
        <ele>359</ele>
        <time>2015-01-25T09:31:05.000Z</time>
      </trkpt>
      <trkpt lat="47.52746" lon="6.70861">
        <ele>359</ele>
        <time>2015-01-25T09:31:06.000Z</time>
      </trkpt>
      <trkpt lat="47.52747" lon="6.70855">
        <ele>358</ele>
        <time>2015-01-25T09:31:07.000Z</time>
      </trkpt>
      <trkpt lat="47.52747" lon="6.7085">
        <ele>358</ele>
        <time>2015-01-25T09:31:08.000Z</time>
      </trkpt>
      <trkpt lat="47.52748" lon="6.70844">
        <ele>357</ele>
        <time>2015-01-25T09:31:09.000Z</time>
      </trkpt>
      <trkpt lat="47.52748" lon="6.70839">
        <ele>355</ele>
        <time>2015-01-25T09:31:10.000Z</time>
      </trkpt>
      <trkpt lat="47.52748" lon="6.70833">
        <ele>354</ele>
        <time>2015-01-25T09:31:11.000Z</time>
      </trkpt>
      <trkpt lat="47.52748" lon="6.70828">
        <ele>355</ele>
        <time>2015-01-25T09:31:12.000Z</time>
      </trkpt>
      <trkpt lat="47.52749" lon="6.70823">
        <ele>357</ele>
        <time>2015-01-25T09:31:13.000Z</time>
      </trkpt>
      <trkpt lat="47.52749" lon="6.70818">
        <ele>359</ele>
        <time>2015-01-25T09:31:14.000Z</time>
      </trkpt>
      <trkpt lat="47.52749" lon="6.70813">
        <ele>360</ele>
        <time>2015-01-25T09:31:15.000Z</time>
      </trkpt>
      <trkpt lat="47.52749" lon="6.70808">
        <ele>360</ele>
        <time>2015-01-25T09:31:16.000Z</time>
      </trkpt>
      <trkpt lat="47.52749" lon="6.70803">
        <ele>361</ele>
        <time>2015-01-25T09:31:17.000Z</time>
      </trkpt>
      <trkpt lat="47.52749" lon="6.70799">
        <ele>361</ele>
        <time>2015-01-25T09:31:18.000Z</time>
      </trkpt>
      <trkpt lat="47.5275" lon="6.70794">
        <ele>355</ele>
        <time>2015-01-25T09:31:19.000Z</time>
      </trkpt>
      <trkpt lat="47.52751" lon="6.70789">
        <ele>355</ele>
        <time>2015-01-25T09:31:20.000Z</time>
      </trkpt>
      <trkpt lat="47.52752" lon="6.70784">
        <ele>355</ele>
        <time>2015-01-25T09:31:21.000Z</time>
      </trkpt>
      <trkpt lat="47.52753" lon="6.7078">
        <ele>355</ele>
        <time>2015-01-25T09:31:22.000Z</time>
      </trkpt>
      <trkpt lat="47.52754" lon="6.70775">
        <ele>355</ele>
        <time>2015-01-25T09:31:23.000Z</time>
      </trkpt>
      <trkpt lat="47.52755" lon="6.7077">
        <ele>355</ele>
        <time>2015-01-25T09:31:24.000Z</time>
      </trkpt>
      <trkpt lat="47.52756" lon="6.70766">
        <ele>355</ele>
        <time>2015-01-25T09:31:25.000Z</time>
      </trkpt>
      <trkpt lat="47.52757" lon="6.70761">
        <ele>355</ele>
        <time>2015-01-25T09:31:26.000Z</time>
      </trkpt>
      <trkpt lat="47.52758" lon="6.70756">
        <ele>356</ele>
        <time>2015-01-25T09:31:27.000Z</time>
      </trkpt>
      <trkpt lat="47.52759" lon="6.70751">
        <ele>356</ele>
        <time>2015-01-25T09:31:28.000Z</time>
      </trkpt>
      <trkpt lat="47.5276" lon="6.70746">
        <ele>355</ele>
        <time>2015-01-25T09:31:29.000Z</time>
      </trkpt>
      <trkpt lat="47.52761" lon="6.7074">
        <ele>355</ele>
        <time>2015-01-25T09:31:30.000Z</time>
      </trkpt>
      <trkpt lat="47.52762" lon="6.70735">
        <ele>355</ele>
        <time>2015-01-25T09:31:31.000Z</time>
      </trkpt>
      <trkpt lat="47.52762" lon="6.70731">
        <ele>355</ele>
        <time>2015-01-25T09:31:32.000Z</time>
      </trkpt>
      <trkpt lat="47.52763" lon="6.70725">
        <ele>354</ele>
        <time>2015-01-25T09:31:33.000Z</time>
      </trkpt>
      <trkpt lat="47.52764" lon="6.7072">
        <ele>354</ele>
        <time>2015-01-25T09:31:34.000Z</time>
      </trkpt>
      <trkpt lat="47.52765" lon="6.70715">
        <ele>354</ele>
        <time>2015-01-25T09:31:35.000Z</time>
      </trkpt>
      <trkpt lat="47.52765" lon="6.7071">
        <ele>354</ele>
        <time>2015-01-25T09:31:36.000Z</time>
      </trkpt>
      <trkpt lat="47.52766" lon="6.70705">
        <ele>354</ele>
        <time>2015-01-25T09:31:37.000Z</time>
      </trkpt>
      <trkpt lat="47.52767" lon="6.70701">
        <ele>354</ele>
        <time>2015-01-25T09:31:38.000Z</time>
      </trkpt>
      <trkpt lat="47.52767" lon="6.70696">
        <ele>354</ele>
        <time>2015-01-25T09:31:39.000Z</time>
      </trkpt>
      <trkpt lat="47.52768" lon="6.70691">
        <ele>354</ele>
        <time>2015-01-25T09:31:40.000Z</time>
      </trkpt>
      <trkpt lat="47.52768" lon="6.70686">
        <ele>354</ele>
        <time>2015-01-25T09:31:41.000Z</time>
      </trkpt>
      <trkpt lat="47.52768" lon="6.70681">
        <ele>354</ele>
        <time>2015-01-25T09:31:42.000Z</time>
      </trkpt>
      <trkpt lat="47.52768" lon="6.70676">
        <ele>354</ele>
        <time>2015-01-25T09:31:43.000Z</time>
      </trkpt>
      <trkpt lat="47.52768" lon="6.70671">
        <ele>354</ele>
        <time>2015-01-25T09:31:44.000Z</time>
      </trkpt>
      <trkpt lat="47.52769" lon="6.70666">
        <ele>352</ele>
        <time>2015-01-25T09:31:45.000Z</time>
      </trkpt>
      <trkpt lat="47.52766" lon="6.70629">
        <ele>351</ele>
        <time>2015-01-25T09:31:53.000Z</time>
      </trkpt>
      <trkpt lat="47.52765" lon="6.70623">
        <ele>351</ele>
        <time>2015-01-25T09:31:55.000Z</time>
      </trkpt>
      <trkpt lat="47.52765" lon="6.70621">
        <ele>351</ele>
        <time>2015-01-25T09:31:56.000Z</time>
      </trkpt>
      <trkpt lat="47.52767" lon="6.70616">
        <ele>351</ele>
        <time>2015-01-25T09:31:59.000Z</time>
      </trkpt>
      <trkpt lat="47.52767" lon="6.70615">
        <ele>351</ele>
        <time>2015-01-25T09:32:00.000Z</time>
      </trkpt>
      <trkpt lat="47.5277" lon="6.70613">
        <ele>351</ele>
        <time>2015-01-25T09:32:03.000Z</time>
      </trkpt>
      <trkpt lat="47.52772" lon="6.70613">
        <ele>351</ele>
        <time>2015-01-25T09:32:04.000Z</time>
      </trkpt>
      <trkpt lat="47.52776" lon="6.70613">
        <ele>351</ele>
        <time>2015-01-25T09:32:08.000Z</time>
      </trkpt>
      <trkpt lat="47.52777" lon="6.70612">
        <ele>351</ele>
        <time>2015-01-25T09:32:09.000Z</time>
      </trkpt>
      <trkpt lat="47.5278" lon="6.70613">
        <ele>351</ele>
        <time>2015-01-25T09:32:16.000Z</time>
      </trkpt>
      <trkpt lat="47.52782" lon="6.70613">
        <ele>351</ele>
        <time>2015-01-25T09:32:17.000Z</time>
      </trkpt>
      <trkpt lat="47.52785" lon="6.70609">
        <ele>351</ele>
        <time>2015-01-25T09:32:19.000Z</time>
      </trkpt>
      <trkpt lat="47.52786" lon="6.70606">
        <ele>351</ele>
        <time>2015-01-25T09:32:20.000Z</time>
      </trkpt>
      <trkpt lat="47.52787" lon="6.70603">
        <ele>350</ele>
        <time>2015-01-25T09:32:21.000Z</time>
      </trkpt>
      <trkpt lat="47.52789" lon="6.70599">
        <ele>350</ele>
        <time>2015-01-25T09:32:22.000Z</time>
      </trkpt>
      <trkpt lat="47.5279" lon="6.70594">
        <ele>350</ele>
        <time>2015-01-25T09:32:23.000Z</time>
      </trkpt>
      <trkpt lat="47.5279" lon="6.70589">
        <ele>350</ele>
        <time>2015-01-25T09:32:24.000Z</time>
      </trkpt>
      <trkpt lat="47.52791" lon="6.70584">
        <ele>350</ele>
        <time>2015-01-25T09:32:25.000Z</time>
      </trkpt>
      <trkpt lat="47.52791" lon="6.7058">
        <ele>348</ele>
        <time>2015-01-25T09:32:26.000Z</time>
      </trkpt>
      <trkpt lat="47.52791" lon="6.70575">
        <ele>348</ele>
        <time>2015-01-25T09:32:28.000Z</time>
      </trkpt>
      <trkpt lat="47.52792" lon="6.70573">
        <ele>348</ele>
        <time>2015-01-25T09:32:29.000Z</time>
      </trkpt>
      <trkpt lat="47.52793" lon="6.70569">
        <ele>348</ele>
        <time>2015-01-25T09:32:31.000Z</time>
      </trkpt>
      <trkpt lat="47.52793" lon="6.70566">
        <ele>348</ele>
        <time>2015-01-25T09:32:32.000Z</time>
      </trkpt>
      <trkpt lat="47.52791" lon="6.70571">
        <ele>348</ele>
        <time>2015-01-25T09:32:54.000Z</time>
      </trkpt>
      <trkpt lat="47.5279" lon="6.70572">
        <ele>348</ele>
        <time>2015-01-25T09:32:55.000Z</time>
      </trkpt>
      <trkpt lat="47.52789" lon="6.70577">
        <ele>348</ele>
        <time>2015-01-25T09:32:58.000Z</time>
      </trkpt>
      <trkpt lat="47.52788" lon="6.70579">
        <ele>348</ele>
        <time>2015-01-25T09:32:59.000Z</time>
      </trkpt>
      <trkpt lat="47.52787" lon="6.70584">
        <ele>350</ele>
        <time>2015-01-25T09:33:01.000Z</time>
      </trkpt>
      <trkpt lat="47.52786" lon="6.70586">
        <ele>350</ele>
        <time>2015-01-25T09:33:02.000Z</time>
      </trkpt>
      <trkpt lat="47.52784" lon="6.70589">
        <ele>350</ele>
        <time>2015-01-25T09:33:04.000Z</time>
      </trkpt>
      <trkpt lat="47.52783" lon="6.7059">
        <ele>350</ele>
        <time>2015-01-25T09:33:05.000Z</time>
      </trkpt>
      <trkpt lat="47.52781" lon="6.70592">
        <ele>350</ele>
        <time>2015-01-25T09:33:06.000Z</time>
      </trkpt>
      <trkpt lat="47.52779" lon="6.70594">
        <ele>350</ele>
        <time>2015-01-25T09:33:07.000Z</time>
      </trkpt>
      <trkpt lat="47.52776" lon="6.70596">
        <ele>350</ele>
        <time>2015-01-25T09:33:08.000Z</time>
      </trkpt>
      <trkpt lat="47.52773" lon="6.70597">
        <ele>350</ele>
        <time>2015-01-25T09:33:09.000Z</time>
      </trkpt>
      <trkpt lat="47.52769" lon="6.70597">
        <ele>350</ele>
        <time>2015-01-25T09:33:10.000Z</time>
      </trkpt>
      <trkpt lat="47.52766" lon="6.70596">
        <ele>350</ele>
        <time>2015-01-25T09:33:11.000Z</time>
      </trkpt>
      <trkpt lat="47.52763" lon="6.70594">
        <ele>350</ele>
        <time>2015-01-25T09:33:12.000Z</time>
      </trkpt>
      <trkpt lat="47.52761" lon="6.70592">
        <ele>349</ele>
        <time>2015-01-25T09:33:13.000Z</time>
      </trkpt>
      <trkpt lat="47.52758" lon="6.70589">
        <ele>349</ele>
        <time>2015-01-25T09:33:15.000Z</time>
      </trkpt>
      <trkpt lat="47.52757" lon="6.70589">
        <ele>349</ele>
        <time>2015-01-25T09:33:16.000Z</time>
      </trkpt>
      <trkpt lat="47.52757" lon="6.70595">
        <ele>349</ele>
        <time>2015-01-25T09:33:23.000Z</time>
      </trkpt>
      <trkpt lat="47.52759" lon="6.70595">
        <ele>349</ele>
        <time>2015-01-25T09:33:24.000Z</time>
      </trkpt>
      <trkpt lat="47.52763" lon="6.70596">
        <ele>350</ele>
        <time>2015-01-25T09:33:26.000Z</time>
      </trkpt>
      <trkpt lat="47.52765" lon="6.70596">
        <ele>350</ele>
        <time>2015-01-25T09:33:27.000Z</time>
      </trkpt>
      <trkpt lat="47.52768" lon="6.70596">
        <ele>350</ele>
        <time>2015-01-25T09:33:29.000Z</time>
      </trkpt>
      <trkpt lat="47.5277" lon="6.70597">
        <ele>350</ele>
        <time>2015-01-25T09:33:30.000Z</time>
      </trkpt>
      <trkpt lat="47.52772" lon="6.70597">
        <ele>350</ele>
        <time>2015-01-25T09:33:31.000Z</time>
      </trkpt>
      <trkpt lat="47.52774" lon="6.70597">
        <ele>350</ele>
        <time>2015-01-25T09:33:32.000Z</time>
      </trkpt>
      <trkpt lat="47.52777" lon="6.70598">
        <ele>350</ele>
        <time>2015-01-25T09:33:33.000Z</time>
      </trkpt>
      <trkpt lat="47.5278" lon="6.70597">
        <ele>350</ele>
        <time>2015-01-25T09:33:34.000Z</time>
      </trkpt>
      <trkpt lat="47.52782" lon="6.70595">
        <ele>350</ele>
        <time>2015-01-25T09:33:35.000Z</time>
      </trkpt>
      <trkpt lat="47.52784" lon="6.70594">
        <ele>350</ele>
        <time>2015-01-25T09:33:36.000Z</time>
      </trkpt>
      <trkpt lat="47.52786" lon="6.70592">
        <ele>350</ele>
        <time>2015-01-25T09:33:37.000Z</time>
      </trkpt>
      <trkpt lat="47.52787" lon="6.70588">
        <ele>350</ele>
        <time>2015-01-25T09:33:38.000Z</time>
      </trkpt>
      <trkpt lat="47.52788" lon="6.70584">
        <ele>350</ele>
        <time>2015-01-25T09:33:39.000Z</time>
      </trkpt>
      <trkpt lat="47.52788" lon="6.7058">
        <ele>348</ele>
        <time>2015-01-25T09:33:40.000Z</time>
      </trkpt>
      <trkpt lat="47.52788" lon="6.70575">
        <ele>348</ele>
        <time>2015-01-25T09:33:41.000Z</time>
      </trkpt>
      <trkpt lat="47.52788" lon="6.7057">
        <ele>348</ele>
        <time>2015-01-25T09:33:42.000Z</time>
      </trkpt>
      <trkpt lat="47.52788" lon="6.70565">
        <ele>348</ele>
        <time>2015-01-25T09:33:56.000Z</time>
      </trkpt>
      <trkpt lat="47.52789" lon="6.70563">
        <ele>348</ele>
        <time>2015-01-25T09:33:57.000Z</time>
      </trkpt>
      <trkpt lat="47.52792" lon="6.7056">
        <ele>348</ele>
        <time>2015-01-25T09:34:08.000Z</time>
      </trkpt>
      <trkpt lat="47.52793" lon="6.70559">
        <ele>348</ele>
        <time>2015-01-25T09:34:09.000Z</time>
      </trkpt>
      <trkpt lat="47.52796" lon="6.70558">
        <ele>348</ele>
        <time>2015-01-25T09:34:44.000Z</time>
      </trkpt>
      <trkpt lat="47.52799" lon="6.70558">
        <ele>348</ele>
        <time>2015-01-25T09:34:47.000Z</time>
      </trkpt>
      <trkpt lat="47.52801" lon="6.70564">
        <ele>348</ele>
        <time>2015-01-25T09:34:50.000Z</time>
      </trkpt>
      <trkpt lat="47.52801" lon="6.70565">
        <ele>348</ele>
        <time>2015-01-25T09:34:51.000Z</time>
      </trkpt>
      <trkpt lat="47.52804" lon="6.7057">
        <ele>349</ele>
        <time>2015-01-25T09:34:53.000Z</time>
      </trkpt>
      <trkpt lat="47.52805" lon="6.70571">
        <ele>349</ele>
        <time>2015-01-25T09:34:54.000Z</time>
      </trkpt>
      <trkpt lat="47.52809" lon="6.70574">
        <ele>349</ele>
        <time>2015-01-25T09:34:56.000Z</time>
      </trkpt>
      <trkpt lat="47.52811" lon="6.70574">
        <ele>349</ele>
        <time>2015-01-25T09:34:57.000Z</time>
      </trkpt>
      <trkpt lat="47.52815" lon="6.70574">
        <ele>349</ele>
        <time>2015-01-25T09:35:00.000Z</time>
      </trkpt>
      <trkpt lat="47.52816" lon="6.70574">
        <ele>349</ele>
        <time>2015-01-25T09:35:01.000Z</time>
      </trkpt>
      <trkpt lat="47.5282" lon="6.70575">
        <ele>349</ele>
        <time>2015-01-25T09:35:03.000Z</time>
      </trkpt>
      <trkpt lat="47.52822" lon="6.70576">
        <ele>349</ele>
        <time>2015-01-25T09:35:04.000Z</time>
      </trkpt>
      <trkpt lat="47.52825" lon="6.70577">
        <ele>349</ele>
        <time>2015-01-25T09:35:06.000Z</time>
      </trkpt>
      <trkpt lat="47.52827" lon="6.70578">
        <ele>349</ele>
        <time>2015-01-25T09:35:07.000Z</time>
      </trkpt>
      <trkpt lat="47.5283" lon="6.70581">
        <ele>350</ele>
        <time>2015-01-25T09:35:11.000Z</time>
      </trkpt>
      <trkpt lat="47.5283" lon="6.70582">
        <ele>350</ele>
        <time>2015-01-25T09:35:12.000Z</time>
      </trkpt>
      <trkpt lat="47.52834" lon="6.70584">
        <ele>350</ele>
        <time>2015-01-25T09:35:16.000Z</time>
      </trkpt>
      <trkpt lat="47.52835" lon="6.70584">
        <ele>351</ele>
        <time>2015-01-25T09:35:17.000Z</time>
      </trkpt>
      <trkpt lat="47.52838" lon="6.70584">
        <ele>352</ele>
        <time>2015-01-25T09:35:19.000Z</time>
      </trkpt>
      <trkpt lat="47.5284" lon="6.70583">
        <ele>352</ele>
        <time>2015-01-25T09:35:20.000Z</time>
      </trkpt>
      <trkpt lat="47.52842" lon="6.7058">
        <ele>352</ele>
        <time>2015-01-25T09:35:22.000Z</time>
      </trkpt>
      <trkpt lat="47.52843" lon="6.70578">
        <ele>353</ele>
        <time>2015-01-25T09:35:23.000Z</time>
      </trkpt>
      <trkpt lat="47.52844" lon="6.70572">
        <ele>353</ele>
        <time>2015-01-25T09:35:26.000Z</time>
      </trkpt>
      <trkpt lat="47.52845" lon="6.7057">
        <ele>354</ele>
        <time>2015-01-25T09:35:27.000Z</time>
      </trkpt>
      <trkpt lat="47.52846" lon="6.70565">
        <ele>354</ele>
        <time>2015-01-25T09:35:30.000Z</time>
      </trkpt>
      <trkpt lat="47.52846" lon="6.70563">
        <ele>354</ele>
        <time>2015-01-25T09:35:31.000Z</time>
      </trkpt>
      <trkpt lat="47.52847" lon="6.70558">
        <ele>355</ele>
        <time>2015-01-25T09:35:33.000Z</time>
      </trkpt>
      <trkpt lat="47.52847" lon="6.70555">
        <ele>355</ele>
        <time>2015-01-25T09:35:34.000Z</time>
      </trkpt>
      <trkpt lat="47.52847" lon="6.70551">
        <ele>355</ele>
        <time>2015-01-25T09:35:35.000Z</time>
      </trkpt>
      <trkpt lat="47.52847" lon="6.70547">
        <ele>355</ele>
        <time>2015-01-25T09:35:36.000Z</time>
      </trkpt>
      <trkpt lat="47.52848" lon="6.70542">
        <ele>355</ele>
        <time>2015-01-25T09:35:37.000Z</time>
      </trkpt>
      <trkpt lat="47.52848" lon="6.70538">
        <ele>355</ele>
        <time>2015-01-25T09:35:38.000Z</time>
      </trkpt>
      <trkpt lat="47.52848" lon="6.70533">
        <ele>355</ele>
        <time>2015-01-25T09:35:39.000Z</time>
      </trkpt>
      <trkpt lat="47.52848" lon="6.70529">
        <ele>354</ele>
        <time>2015-01-25T09:35:40.000Z</time>
      </trkpt>
      <trkpt lat="47.52849" lon="6.70524">
        <ele>354</ele>
        <time>2015-01-25T09:35:41.000Z</time>
      </trkpt>
      <trkpt lat="47.52849" lon="6.7052">
        <ele>354</ele>
        <time>2015-01-25T09:35:42.000Z</time>
      </trkpt>
      <trkpt lat="47.52849" lon="6.70515">
        <ele>354</ele>
        <time>2015-01-25T09:35:43.000Z</time>
      </trkpt>
      <trkpt lat="47.52849" lon="6.70511">
        <ele>353</ele>
        <time>2015-01-25T09:35:44.000Z</time>
      </trkpt>
      <trkpt lat="47.52845" lon="6.70483">
        <ele>351</ele>
        <time>2015-01-25T09:35:52.000Z</time>
      </trkpt>
      <trkpt lat="47.52843" lon="6.70478">
        <ele>351</ele>
        <time>2015-01-25T09:35:54.000Z</time>
      </trkpt>
      <trkpt lat="47.52841" lon="6.70474">
        <ele>351</ele>
        <time>2015-01-25T09:35:55.000Z</time>
      </trkpt>
      <trkpt lat="47.5284" lon="6.70471">
        <ele>351</ele>
        <time>2015-01-25T09:35:56.000Z</time>
      </trkpt>
      <trkpt lat="47.52839" lon="6.70467">
        <ele>351</ele>
        <time>2015-01-25T09:35:57.000Z</time>
      </trkpt>
      <trkpt lat="47.52838" lon="6.70464">
        <ele>351</ele>
        <time>2015-01-25T09:35:58.000Z</time>
      </trkpt>
      <trkpt lat="47.52837" lon="6.70461">
        <ele>351</ele>
        <time>2015-01-25T09:35:59.000Z</time>
      </trkpt>
      <trkpt lat="47.52837" lon="6.70455">
        <ele>350</ele>
        <time>2015-01-25T09:36:01.000Z</time>
      </trkpt>
      <trkpt lat="47.52837" lon="6.70453">
        <ele>350</ele>
        <time>2015-01-25T09:36:02.000Z</time>
      </trkpt>
      <trkpt lat="47.52839" lon="6.70449">
        <ele>350</ele>
        <time>2015-01-25T09:36:04.000Z</time>
      </trkpt>
      <trkpt lat="47.52839" lon="6.70447">
        <ele>350</ele>
        <time>2015-01-25T09:36:05.000Z</time>
      </trkpt>
      <trkpt lat="47.52842" lon="6.70445">
        <ele>350</ele>
        <time>2015-01-25T09:36:09.000Z</time>
      </trkpt>
      <trkpt lat="47.52843" lon="6.70444">
        <ele>350</ele>
        <time>2015-01-25T09:36:10.000Z</time>
      </trkpt>
      <trkpt lat="47.52847" lon="6.70443">
        <ele>350</ele>
        <time>2015-01-25T09:36:15.000Z</time>
      </trkpt>
      <trkpt lat="47.52848" lon="6.70443">
        <ele>350</ele>
        <time>2015-01-25T09:36:16.000Z</time>
      </trkpt>
      <trkpt lat="47.52852" lon="6.70444">
        <ele>350</ele>
        <time>2015-01-25T09:36:20.000Z</time>
      </trkpt>
      <trkpt lat="47.52853" lon="6.70444">
        <ele>350</ele>
        <time>2015-01-25T09:36:21.000Z</time>
      </trkpt>
      <trkpt lat="47.52857" lon="6.70444">
        <ele>351</ele>
        <time>2015-01-25T09:36:23.000Z</time>
      </trkpt>
      <trkpt lat="47.52859" lon="6.70445">
        <ele>351</ele>
        <time>2015-01-25T09:36:24.000Z</time>
      </trkpt>
      <trkpt lat="47.52863" lon="6.70447">
        <ele>351</ele>
        <time>2015-01-25T09:36:26.000Z</time>
      </trkpt>
      <trkpt lat="47.52864" lon="6.70447">
        <ele>351</ele>
        <time>2015-01-25T09:36:27.000Z</time>
      </trkpt>
      <trkpt lat="47.52867" lon="6.70449">
        <ele>351</ele>
        <time>2015-01-25T09:36:29.000Z</time>
      </trkpt>
      <trkpt lat="47.52869" lon="6.7045">
        <ele>352</ele>
        <time>2015-01-25T09:36:30.000Z</time>
      </trkpt>
      <trkpt lat="47.52872" lon="6.70452">
        <ele>352</ele>
        <time>2015-01-25T09:36:33.000Z</time>
      </trkpt>
      <trkpt lat="47.52874" lon="6.70452">
        <ele>352</ele>
        <time>2015-01-25T09:36:34.000Z</time>
      </trkpt>
      <trkpt lat="47.52877" lon="6.70453">
        <ele>352</ele>
        <time>2015-01-25T09:36:37.000Z</time>
      </trkpt>
      <trkpt lat="47.52878" lon="6.70453">
        <ele>352</ele>
        <time>2015-01-25T09:36:38.000Z</time>
      </trkpt>
      <trkpt lat="47.52882" lon="6.7045">
        <ele>352</ele>
        <time>2015-01-25T09:36:43.000Z</time>
      </trkpt>
      <trkpt lat="47.52883" lon="6.7045">
        <ele>352</ele>
        <time>2015-01-25T09:36:44.000Z</time>
      </trkpt>
      <trkpt lat="47.52887" lon="6.70447">
        <ele>352</ele>
        <time>2015-01-25T09:37:04.000Z</time>
      </trkpt>
      <trkpt lat="47.52887" lon="6.70447">
        <ele>352</ele>
        <time>2015-01-25T09:37:05.000Z</time>
      </trkpt>
      <trkpt lat="47.52891" lon="6.70449">
        <ele>353</ele>
        <time>2015-01-25T09:37:08.000Z</time>
      </trkpt>
      <trkpt lat="47.52893" lon="6.70449">
        <ele>353</ele>
        <time>2015-01-25T09:37:09.000Z</time>
      </trkpt>
      <trkpt lat="47.52895" lon="6.7045">
        <ele>353</ele>
        <time>2015-01-25T09:37:10.000Z</time>
      </trkpt>
      <trkpt lat="47.52897" lon="6.70452">
        <ele>353</ele>
        <time>2015-01-25T09:37:11.000Z</time>
      </trkpt>
      <trkpt lat="47.52901" lon="6.70453">
        <ele>353</ele>
        <time>2015-01-25T09:37:13.000Z</time>
      </trkpt>
      <trkpt lat="47.52903" lon="6.70453">
        <ele>353</ele>
        <time>2015-01-25T09:37:14.000Z</time>
      </trkpt>
      <trkpt lat="47.52908" lon="6.70454">
        <ele>354</ele>
        <time>2015-01-25T09:37:16.000Z</time>
      </trkpt>
      <trkpt lat="47.5291" lon="6.70455">
        <ele>354</ele>
        <time>2015-01-25T09:37:17.000Z</time>
      </trkpt>
      <trkpt lat="47.52912" lon="6.70455">
        <ele>354</ele>
        <time>2015-01-25T09:37:18.000Z</time>
      </trkpt>
      <trkpt lat="47.52914" lon="6.70456">
        <ele>354</ele>
        <time>2015-01-25T09:37:19.000Z</time>
      </trkpt>
      <trkpt lat="47.52917" lon="6.70457">
        <ele>354</ele>
        <time>2015-01-25T09:37:20.000Z</time>
      </trkpt>
      <trkpt lat="47.52919" lon="6.70457">
        <ele>361</ele>
        <time>2015-01-25T09:37:21.000Z</time>
      </trkpt>
      <trkpt lat="47.52923" lon="6.70458">
        <ele>361</ele>
        <time>2015-01-25T09:37:23.000Z</time>
      </trkpt>
      <trkpt lat="47.52926" lon="6.70459">
        <ele>361</ele>
        <time>2015-01-25T09:37:24.000Z</time>
      </trkpt>
      <trkpt lat="47.52928" lon="6.7046">
        <ele>361</ele>
        <time>2015-01-25T09:37:25.000Z</time>
      </trkpt>
      <trkpt lat="47.52931" lon="6.7046">
        <ele>361</ele>
        <time>2015-01-25T09:37:26.000Z</time>
      </trkpt>
      <trkpt lat="47.52934" lon="6.7046">
        <ele>361</ele>
        <time>2015-01-25T09:37:27.000Z</time>
      </trkpt>
      <trkpt lat="47.52936" lon="6.7046">
        <ele>362</ele>
        <time>2015-01-25T09:37:28.000Z</time>
      </trkpt>
      <trkpt lat="47.5294" lon="6.70459">
        <ele>362</ele>
        <time>2015-01-25T09:37:30.000Z</time>
      </trkpt>
      <trkpt lat="47.52942" lon="6.70459">
        <ele>362</ele>
        <time>2015-01-25T09:37:31.000Z</time>
      </trkpt>
      <trkpt lat="47.52946" lon="6.7046">
        <ele>362</ele>
        <time>2015-01-25T09:37:33.000Z</time>
      </trkpt>
      <trkpt lat="47.52947" lon="6.7046">
        <ele>362</ele>
        <time>2015-01-25T09:37:34.000Z</time>
      </trkpt>
      <trkpt lat="47.52951" lon="6.70461">
        <ele>363</ele>
        <time>2015-01-25T09:37:36.000Z</time>
      </trkpt>
      <trkpt lat="47.52952" lon="6.70461">
        <ele>363</ele>
        <time>2015-01-25T09:37:37.000Z</time>
      </trkpt>
      <trkpt lat="47.52956" lon="6.70463">
        <ele>363</ele>
        <time>2015-01-25T09:37:40.000Z</time>
      </trkpt>
      <trkpt lat="47.52957" lon="6.70463">
        <ele>363</ele>
        <time>2015-01-25T09:37:41.000Z</time>
      </trkpt>
      <trkpt lat="47.52961" lon="6.70463">
        <ele>363</ele>
        <time>2015-01-25T09:37:44.000Z</time>
      </trkpt>
      <trkpt lat="47.52965" lon="6.70463">
        <ele>364</ele>
        <time>2015-01-25T09:37:47.000Z</time>
      </trkpt>
      <trkpt lat="47.52968" lon="6.70464">
        <ele>364</ele>
        <time>2015-01-25T09:37:50.000Z</time>
      </trkpt>
      <trkpt lat="47.5297" lon="6.70464">
        <ele>364</ele>
        <time>2015-01-25T09:37:51.000Z</time>
      </trkpt>
      <trkpt lat="47.52973" lon="6.70464">
        <ele>364</ele>
        <time>2015-01-25T09:37:53.000Z</time>
      </trkpt>
      <trkpt lat="47.52974" lon="6.70464">
        <ele>364</ele>
        <time>2015-01-25T09:37:54.000Z</time>
      </trkpt>
      <trkpt lat="47.52978" lon="6.70465">
        <ele>365</ele>
        <time>2015-01-25T09:37:56.000Z</time>
      </trkpt>
      <trkpt lat="47.5298" lon="6.70466">
        <ele>365</ele>
        <time>2015-01-25T09:37:57.000Z</time>
      </trkpt>
      <trkpt lat="47.52984" lon="6.70468">
        <ele>365</ele>
        <time>2015-01-25T09:38:00.000Z</time>
      </trkpt>
      <trkpt lat="47.52985" lon="6.70468">
        <ele>365</ele>
        <time>2015-01-25T09:38:01.000Z</time>
      </trkpt>
      <trkpt lat="47.52989" lon="6.70468">
        <ele>366</ele>
        <time>2015-01-25T09:38:04.000Z</time>
      </trkpt>
      <trkpt lat="47.52991" lon="6.70468">
        <ele>366</ele>
        <time>2015-01-25T09:38:05.000Z</time>
      </trkpt>
      <trkpt lat="47.52994" lon="6.7047">
        <ele>366</ele>
        <time>2015-01-25T09:38:08.000Z</time>
      </trkpt>
      <trkpt lat="47.52996" lon="6.70471">
        <ele>366</ele>
        <time>2015-01-25T09:38:09.000Z</time>
      </trkpt>
      <trkpt lat="47.52999" lon="6.70473">
        <ele>367</ele>
        <time>2015-01-25T09:38:12.000Z</time>
      </trkpt>
      <trkpt lat="47.53" lon="6.70473">
        <ele>367</ele>
        <time>2015-01-25T09:38:13.000Z</time>
      </trkpt>
      <trkpt lat="47.53004" lon="6.70475">
        <ele>375</ele>
        <time>2015-01-25T09:38:17.000Z</time>
      </trkpt>
      <trkpt lat="47.53005" lon="6.70475">
        <ele>375</ele>
        <time>2015-01-25T09:38:18.000Z</time>
      </trkpt>
      <trkpt lat="47.53009" lon="6.70473">
        <ele>375</ele>
        <time>2015-01-25T09:38:42.000Z</time>
      </trkpt>
      <trkpt lat="47.5301" lon="6.70472">
        <ele>375</ele>
        <time>2015-01-25T09:38:43.000Z</time>
      </trkpt>
      <trkpt lat="47.53012" lon="6.70471">
        <ele>375</ele>
        <time>2015-01-25T09:38:44.000Z</time>
      </trkpt>
      <trkpt lat="47.53018" lon="6.70476">
        <ele>376</ele>
        <time>2015-01-25T09:38:52.000Z</time>
      </trkpt>
      <trkpt lat="47.53021" lon="6.7048">
        <ele>376</ele>
        <time>2015-01-25T09:38:57.000Z</time>
      </trkpt>
      <trkpt lat="47.53022" lon="6.7048">
        <ele>376</ele>
        <time>2015-01-25T09:38:58.000Z</time>
      </trkpt>
      <trkpt lat="47.53025" lon="6.70481">
        <ele>376</ele>
        <time>2015-01-25T09:39:02.000Z</time>
      </trkpt>
      <trkpt lat="47.53026" lon="6.70482">
        <ele>377</ele>
        <time>2015-01-25T09:39:03.000Z</time>
      </trkpt>
      <trkpt lat="47.5303" lon="6.70485">
        <ele>377</ele>
        <time>2015-01-25T09:39:09.000Z</time>
      </trkpt>
      <trkpt lat="47.5303" lon="6.70486">
        <ele>377</ele>
        <time>2015-01-25T09:39:10.000Z</time>
      </trkpt>
      <trkpt lat="47.53033" lon="6.70489">
        <ele>377</ele>
        <time>2015-01-25T09:39:17.000Z</time>
      </trkpt>
      <trkpt lat="47.53034" lon="6.70489">
        <ele>378</ele>
        <time>2015-01-25T09:39:18.000Z</time>
      </trkpt>
      <trkpt lat="47.53038" lon="6.70489">
        <ele>378</ele>
        <time>2015-01-25T09:39:22.000Z</time>
      </trkpt>
      <trkpt lat="47.53039" lon="6.70489">
        <ele>378</ele>
        <time>2015-01-25T09:39:23.000Z</time>
      </trkpt>
      <trkpt lat="47.53043" lon="6.70489">
        <ele>379</ele>
        <time>2015-01-25T09:39:27.000Z</time>
      </trkpt>
      <trkpt lat="47.53044" lon="6.70489">
        <ele>379</ele>
        <time>2015-01-25T09:39:28.000Z</time>
      </trkpt>
      <trkpt lat="47.53048" lon="6.7049">
        <ele>380</ele>
        <time>2015-01-25T09:39:34.000Z</time>
      </trkpt>
      <trkpt lat="47.53049" lon="6.7049">
        <ele>380</ele>
        <time>2015-01-25T09:39:35.000Z</time>
      </trkpt>
      <trkpt lat="47.53052" lon="6.70489">
        <ele>380</ele>
        <time>2015-01-25T09:39:38.000Z</time>
      </trkpt>
      <trkpt lat="47.53054" lon="6.70489">
        <ele>380</ele>
        <time>2015-01-25T09:39:39.000Z</time>
      </trkpt>
      <trkpt lat="47.53058" lon="6.70491">
        <ele>381</ele>
        <time>2015-01-25T09:40:03.000Z</time>
      </trkpt>
      <trkpt lat="47.53058" lon="6.70492">
        <ele>381</ele>
        <time>2015-01-25T09:40:04.000Z</time>
      </trkpt>
      <trkpt lat="47.53061" lon="6.70493">
        <ele>382</ele>
        <time>2015-01-25T09:40:06.000Z</time>
      </trkpt>
      <trkpt lat="47.53063" lon="6.70495">
        <ele>383</ele>
        <time>2015-01-25T09:40:07.000Z</time>
      </trkpt>
      <trkpt lat="47.53067" lon="6.70497">
        <ele>384</ele>
        <time>2015-01-25T09:40:09.000Z</time>
      </trkpt>
      <trkpt lat="47.53069" lon="6.70497">
        <ele>384</ele>
        <time>2015-01-25T09:40:10.000Z</time>
      </trkpt>
      <trkpt lat="47.53073" lon="6.70497">
        <ele>386</ele>
        <time>2015-01-25T09:40:14.000Z</time>
      </trkpt>
      <trkpt lat="47.53074" lon="6.70498">
        <ele>386</ele>
        <time>2015-01-25T09:40:15.000Z</time>
      </trkpt>
      <trkpt lat="47.53078" lon="6.70499">
        <ele>387</ele>
        <time>2015-01-25T09:40:18.000Z</time>
      </trkpt>
      <trkpt lat="47.53079" lon="6.705">
        <ele>388</ele>
        <time>2015-01-25T09:40:19.000Z</time>
      </trkpt>
      <trkpt lat="47.53083" lon="6.70501">
        <ele>390</ele>
        <time>2015-01-25T09:40:32.000Z</time>
      </trkpt>
      <trkpt lat="47.53084" lon="6.705">
        <ele>390</ele>
        <time>2015-01-25T09:40:33.000Z</time>
      </trkpt>
      <trkpt lat="47.53087" lon="6.70497">
        <ele>390</ele>
        <time>2015-01-25T09:40:35.000Z</time>
      </trkpt>
      <trkpt lat="47.53089" lon="6.70496">
        <ele>391</ele>
        <time>2015-01-25T09:40:36.000Z</time>
      </trkpt>
      <trkpt lat="47.53093" lon="6.70493">
        <ele>391</ele>
        <time>2015-01-25T09:40:38.000Z</time>
      </trkpt>
      <trkpt lat="47.53095" lon="6.70491">
        <ele>391</ele>
        <time>2015-01-25T09:40:39.000Z</time>
      </trkpt>
      <trkpt lat="47.53098" lon="6.70488">
        <ele>391</ele>
        <time>2015-01-25T09:40:41.000Z</time>
      </trkpt>
      <trkpt lat="47.531" lon="6.70486">
        <ele>391</ele>
        <time>2015-01-25T09:40:42.000Z</time>
      </trkpt>
      <trkpt lat="47.53102" lon="6.70484">
        <ele>392</ele>
        <time>2015-01-25T09:40:44.000Z</time>
      </trkpt>
      <trkpt lat="47.53111" lon="6.70483">
        <ele>392</ele>
        <time>2015-01-25T09:40:52.000Z</time>
      </trkpt>
      <trkpt lat="47.53115" lon="6.70482">
        <ele>393</ele>
        <time>2015-01-25T09:40:55.000Z</time>
      </trkpt>
      <trkpt lat="47.53117" lon="6.70482">
        <ele>393</ele>
        <time>2015-01-25T09:40:56.000Z</time>
      </trkpt>
      <trkpt lat="47.5312" lon="6.7048">
        <ele>393</ele>
        <time>2015-01-25T09:40:59.000Z</time>
      </trkpt>
      <trkpt lat="47.53121" lon="6.70479">
        <ele>393</ele>
        <time>2015-01-25T09:41:00.000Z</time>
      </trkpt>
      <trkpt lat="47.53124" lon="6.70476">
        <ele>393</ele>
        <time>2015-01-25T09:41:02.000Z</time>
      </trkpt>
      <trkpt lat="47.53126" lon="6.70475">
        <ele>393</ele>
        <time>2015-01-25T09:41:03.000Z</time>
      </trkpt>
      <trkpt lat="47.5313" lon="6.70475">
        <ele>394</ele>
        <time>2015-01-25T09:41:05.000Z</time>
      </trkpt>
      <trkpt lat="47.53131" lon="6.70474">
        <ele>394</ele>
        <time>2015-01-25T09:41:06.000Z</time>
      </trkpt>
      <trkpt lat="47.53136" lon="6.70472">
        <ele>394</ele>
        <time>2015-01-25T09:41:09.000Z</time>
      </trkpt>
      <trkpt lat="47.53137" lon="6.70471">
        <ele>394</ele>
        <time>2015-01-25T09:41:10.000Z</time>
      </trkpt>
      <trkpt lat="47.5314" lon="6.70468">
        <ele>394</ele>
        <time>2015-01-25T09:41:13.000Z</time>
      </trkpt>
      <trkpt lat="47.53141" lon="6.70467">
        <ele>394</ele>
        <time>2015-01-25T09:41:14.000Z</time>
      </trkpt>
      <trkpt lat="47.53145" lon="6.70465">
        <ele>394</ele>
        <time>2015-01-25T09:41:16.000Z</time>
      </trkpt>
      <trkpt lat="47.53146" lon="6.70463">
        <ele>394</ele>
        <time>2015-01-25T09:41:17.000Z</time>
      </trkpt>
      <trkpt lat="47.53149" lon="6.7046">
        <ele>394</ele>
        <time>2015-01-25T09:41:19.000Z</time>
      </trkpt>
      <trkpt lat="47.53151" lon="6.70459">
        <ele>394</ele>
        <time>2015-01-25T09:41:20.000Z</time>
      </trkpt>
      <trkpt lat="47.53155" lon="6.70455">
        <ele>394</ele>
        <time>2015-01-25T09:41:22.000Z</time>
      </trkpt>
      <trkpt lat="47.53156" lon="6.70454">
        <ele>394</ele>
        <time>2015-01-25T09:41:23.000Z</time>
      </trkpt>
      <trkpt lat="47.53159" lon="6.70451">
        <ele>395</ele>
        <time>2015-01-25T09:41:25.000Z</time>
      </trkpt>
      <trkpt lat="47.53161" lon="6.70449">
        <ele>395</ele>
        <time>2015-01-25T09:41:26.000Z</time>
      </trkpt>
      <trkpt lat="47.53164" lon="6.70446">
        <ele>395</ele>
        <time>2015-01-25T09:41:28.000Z</time>
      </trkpt>
      <trkpt lat="47.53166" lon="6.70445">
        <ele>395</ele>
        <time>2015-01-25T09:41:29.000Z</time>
      </trkpt>
      <trkpt lat="47.53169" lon="6.70442">
        <ele>401</ele>
        <time>2015-01-25T09:41:31.000Z</time>
      </trkpt>
      <trkpt lat="47.53171" lon="6.70441">
        <ele>401</ele>
        <time>2015-01-25T09:41:32.000Z</time>
      </trkpt>
      <trkpt lat="47.53174" lon="6.70439">
        <ele>401</ele>
        <time>2015-01-25T09:41:34.000Z</time>
      </trkpt>
      <trkpt lat="47.53176" lon="6.70437">
        <ele>401</ele>
        <time>2015-01-25T09:41:35.000Z</time>
      </trkpt>
      <trkpt lat="47.53179" lon="6.70435">
        <ele>401</ele>
        <time>2015-01-25T09:41:37.000Z</time>
      </trkpt>
      <trkpt lat="47.53181" lon="6.70434">
        <ele>401</ele>
        <time>2015-01-25T09:41:38.000Z</time>
      </trkpt>
      <trkpt lat="47.53183" lon="6.70431">
        <ele>401</ele>
        <time>2015-01-25T09:41:40.000Z</time>
      </trkpt>
      <trkpt lat="47.53184" lon="6.7043">
        <ele>401</ele>
        <time>2015-01-25T09:41:41.000Z</time>
      </trkpt>
      <trkpt lat="47.53188" lon="6.70429">
        <ele>401</ele>
        <time>2015-01-25T09:41:44.000Z</time>
      </trkpt>
      <trkpt lat="47.53191" lon="6.70429">
        <ele>401</ele>
        <time>2015-01-25T09:41:47.000Z</time>
      </trkpt>
      <trkpt lat="47.53194" lon="6.70426">
        <ele>402</ele>
        <time>2015-01-25T09:41:50.000Z</time>
      </trkpt>
      <trkpt lat="47.53195" lon="6.70426">
        <ele>402</ele>
        <time>2015-01-25T09:41:51.000Z</time>
      </trkpt>
      <trkpt lat="47.53199" lon="6.70423">
        <ele>402</ele>
        <time>2015-01-25T09:41:53.000Z</time>
      </trkpt>
      <trkpt lat="47.532" lon="6.70422">
        <ele>402</ele>
        <time>2015-01-25T09:41:54.000Z</time>
      </trkpt>
      <trkpt lat="47.53204" lon="6.70419">
        <ele>402</ele>
        <time>2015-01-25T09:41:56.000Z</time>
      </trkpt>
      <trkpt lat="47.53205" lon="6.70418">
        <ele>403</ele>
        <time>2015-01-25T09:41:57.000Z</time>
      </trkpt>
      <trkpt lat="47.53209" lon="6.70417">
        <ele>403</ele>
        <time>2015-01-25T09:41:59.000Z</time>
      </trkpt>
      <trkpt lat="47.53211" lon="6.70416">
        <ele>398</ele>
        <time>2015-01-25T09:42:00.000Z</time>
      </trkpt>
      <trkpt lat="47.53214" lon="6.70415">
        <ele>398</ele>
        <time>2015-01-25T09:42:02.000Z</time>
      </trkpt>
      <trkpt lat="47.53216" lon="6.70414">
        <ele>398</ele>
        <time>2015-01-25T09:42:03.000Z</time>
      </trkpt>
      <trkpt lat="47.53219" lon="6.70412">
        <ele>399</ele>
        <time>2015-01-25T09:42:05.000Z</time>
      </trkpt>
      <trkpt lat="47.53221" lon="6.7041">
        <ele>399</ele>
        <time>2015-01-25T09:42:06.000Z</time>
      </trkpt>
      <trkpt lat="47.53225" lon="6.70407">
        <ele>399</ele>
        <time>2015-01-25T09:42:08.000Z</time>
      </trkpt>
      <trkpt lat="47.53227" lon="6.70406">
        <ele>400</ele>
        <time>2015-01-25T09:42:09.000Z</time>
      </trkpt>
      <trkpt lat="47.5323" lon="6.70404">
        <ele>400</ele>
        <time>2015-01-25T09:42:10.000Z</time>
      </trkpt>
      <trkpt lat="47.53232" lon="6.70402">
        <ele>400</ele>
        <time>2015-01-25T09:42:11.000Z</time>
      </trkpt>
      <trkpt lat="47.53234" lon="6.70401">
        <ele>400</ele>
        <time>2015-01-25T09:42:12.000Z</time>
      </trkpt>
      <trkpt lat="47.53236" lon="6.70399">
        <ele>400</ele>
        <time>2015-01-25T09:42:13.000Z</time>
      </trkpt>
      <trkpt lat="47.5324" lon="6.70397">
        <ele>400</ele>
        <time>2015-01-25T09:42:15.000Z</time>
      </trkpt>
      <trkpt lat="47.53241" lon="6.70396">
        <ele>400</ele>
        <time>2015-01-25T09:42:16.000Z</time>
      </trkpt>
      <trkpt lat="47.53245" lon="6.70394">
        <ele>400</ele>
        <time>2015-01-25T09:42:18.000Z</time>
      </trkpt>
      <trkpt lat="47.53246" lon="6.70393">
        <ele>400</ele>
        <time>2015-01-25T09:42:19.000Z</time>
      </trkpt>
      <trkpt lat="47.5325" lon="6.70392">
        <ele>400</ele>
        <time>2015-01-25T09:42:21.000Z</time>
      </trkpt>
      <trkpt lat="47.53251" lon="6.70391">
        <ele>404</ele>
        <time>2015-01-25T09:42:22.000Z</time>
      </trkpt>
      <trkpt lat="47.53255" lon="6.7039">
        <ele>404</ele>
        <time>2015-01-25T09:42:25.000Z</time>
      </trkpt>
      <trkpt lat="47.53256" lon="6.7039">
        <ele>404</ele>
        <time>2015-01-25T09:42:26.000Z</time>
      </trkpt>
      <trkpt lat="47.5326" lon="6.70395">
        <ele>404</ele>
        <time>2015-01-25T09:43:12.000Z</time>
      </trkpt>
      <trkpt lat="47.53261" lon="6.70394">
        <ele>404</ele>
        <time>2015-01-25T09:43:13.000Z</time>
      </trkpt>
      <trkpt lat="47.53264" lon="6.70392">
        <ele>404</ele>
        <time>2015-01-25T09:43:15.000Z</time>
      </trkpt>
      <trkpt lat="47.53266" lon="6.70391">
        <ele>404</ele>
        <time>2015-01-25T09:43:16.000Z</time>
      </trkpt>
      <trkpt lat="47.53269" lon="6.7039">
        <ele>404</ele>
        <time>2015-01-25T09:43:18.000Z</time>
      </trkpt>
      <trkpt lat="47.53271" lon="6.7039">
        <ele>404</ele>
        <time>2015-01-25T09:43:19.000Z</time>
      </trkpt>
      <trkpt lat="47.53275" lon="6.70388">
        <ele>404</ele>
        <time>2015-01-25T09:43:21.000Z</time>
      </trkpt>
      <trkpt lat="47.53277" lon="6.70388">
        <ele>404</ele>
        <time>2015-01-25T09:43:22.000Z</time>
      </trkpt>
      <trkpt lat="47.53281" lon="6.70386">
        <ele>404</ele>
        <time>2015-01-25T09:43:24.000Z</time>
      </trkpt>
      <trkpt lat="47.53282" lon="6.70386">
        <ele>404</ele>
        <time>2015-01-25T09:43:25.000Z</time>
      </trkpt>
      <trkpt lat="47.53286" lon="6.70385">
        <ele>404</ele>
        <time>2015-01-25T09:43:27.000Z</time>
      </trkpt>
      <trkpt lat="47.53287" lon="6.70384">
        <ele>404</ele>
        <time>2015-01-25T09:43:28.000Z</time>
      </trkpt>
      <trkpt lat="47.5329" lon="6.70381">
        <ele>404</ele>
        <time>2015-01-25T09:43:41.000Z</time>
      </trkpt>
      <trkpt lat="47.53291" lon="6.7038">
        <ele>403</ele>
        <time>2015-01-25T09:43:42.000Z</time>
      </trkpt>
      <trkpt lat="47.53292" lon="6.70378">
        <ele>403</ele>
        <time>2015-01-25T09:44:12.000Z</time>
      </trkpt>
      <trkpt lat="47.53292" lon="6.70371">
        <ele>403</ele>
        <time>2015-01-25T09:44:13.000Z</time>
      </trkpt>
      <trkpt lat="47.53293" lon="6.70367">
        <ele>403</ele>
        <time>2015-01-25T09:44:14.000Z</time>
      </trkpt>
      <trkpt lat="47.53293" lon="6.70362">
        <ele>403</ele>
        <time>2015-01-25T09:44:15.000Z</time>
      </trkpt>
      <trkpt lat="47.53294" lon="6.70357">
        <ele>402</ele>
        <time>2015-01-25T09:44:16.000Z</time>
      </trkpt>
      <trkpt lat="47.53295" lon="6.70353">
        <ele>402</ele>
        <time>2015-01-25T09:44:17.000Z</time>
      </trkpt>
      <trkpt lat="47.53295" lon="6.70349">
        <ele>402</ele>
        <time>2015-01-25T09:44:18.000Z</time>
      </trkpt>
      <trkpt lat="47.53297" lon="6.70344">
        <ele>402</ele>
        <time>2015-01-25T09:44:19.000Z</time>
      </trkpt>
      <trkpt lat="47.53298" lon="6.70339">
        <ele>402</ele>
        <time>2015-01-25T09:44:20.000Z</time>
      </trkpt>
      <trkpt lat="47.53299" lon="6.70333">
        <ele>395</ele>
        <time>2015-01-25T09:44:21.000Z</time>
      </trkpt>
      <trkpt lat="47.533" lon="6.70326">
        <ele>395</ele>
        <time>2015-01-25T09:44:22.000Z</time>
      </trkpt>
      <trkpt lat="47.53302" lon="6.70318">
        <ele>395</ele>
        <time>2015-01-25T09:44:23.000Z</time>
      </trkpt>
      <trkpt lat="47.53309" lon="6.70296">
        <ele>393</ele>
        <time>2015-01-25T09:44:24.000Z</time>
      </trkpt>
      <trkpt lat="47.5331" lon="6.70285">
        <ele>392</ele>
        <time>2015-01-25T09:44:25.000Z</time>
      </trkpt>
      <trkpt lat="47.53311" lon="6.70277">
        <ele>391</ele>
        <time>2015-01-25T09:44:26.000Z</time>
      </trkpt>
      <trkpt lat="47.53312" lon="6.70266">
        <ele>390</ele>
        <time>2015-01-25T09:44:27.000Z</time>
      </trkpt>
      <trkpt lat="47.53315" lon="6.70255">
        <ele>390</ele>
        <time>2015-01-25T09:44:28.000Z</time>
      </trkpt>
      <trkpt lat="47.53317" lon="6.70246">
        <ele>384</ele>
        <time>2015-01-25T09:44:29.000Z</time>
      </trkpt>
      <trkpt lat="47.53318" lon="6.70238">
        <ele>383</ele>
        <time>2015-01-25T09:44:30.000Z</time>
      </trkpt>
      <trkpt lat="47.53319" lon="6.70233">
        <ele>383</ele>
        <time>2015-01-25T09:44:31.000Z</time>
      </trkpt>
      <trkpt lat="47.5332" lon="6.7023">
        <ele>382</ele>
        <time>2015-01-25T09:44:32.000Z</time>
      </trkpt>
      <trkpt lat="47.53321" lon="6.70227">
        <ele>382</ele>
        <time>2015-01-25T09:44:33.000Z</time>
      </trkpt>
      <trkpt lat="47.53323" lon="6.70223">
        <ele>381</ele>
        <time>2015-01-25T09:44:34.000Z</time>
      </trkpt>
      <trkpt lat="47.53325" lon="6.70216">
        <ele>381</ele>
        <time>2015-01-25T09:44:35.000Z</time>
      </trkpt>
      <trkpt lat="47.53326" lon="6.70206">
        <ele>379</ele>
        <time>2015-01-25T09:44:36.000Z</time>
      </trkpt>
      <trkpt lat="47.53326" lon="6.70197">
        <ele>379</ele>
        <time>2015-01-25T09:44:37.000Z</time>
      </trkpt>
      <trkpt lat="47.53326" lon="6.7019">
        <ele>378</ele>
        <time>2015-01-25T09:44:38.000Z</time>
      </trkpt>
      <trkpt lat="47.53327" lon="6.70185">
        <ele>377</ele>
        <time>2015-01-25T09:44:42.000Z</time>
      </trkpt>
      <trkpt lat="47.53327" lon="6.70183">
        <ele>377</ele>
        <time>2015-01-25T09:44:43.000Z</time>
      </trkpt>
      <trkpt lat="47.53326" lon="6.7018">
        <ele>377</ele>
        <time>2015-01-25T09:44:44.000Z</time>
      </trkpt>
      <trkpt lat="47.53328" lon="6.70164">
        <ele>374</ele>
        <time>2015-01-25T09:44:52.000Z</time>
      </trkpt>
      <trkpt lat="47.53326" lon="6.70159">
        <ele>373</ele>
        <time>2015-01-25T09:44:54.000Z</time>
      </trkpt>
      <trkpt lat="47.53326" lon="6.70157">
        <ele>373</ele>
        <time>2015-01-25T09:44:55.000Z</time>
      </trkpt>
      <trkpt lat="47.53326" lon="6.70152">
        <ele>372</ele>
        <time>2015-01-25T09:44:57.000Z</time>
      </trkpt>
      <trkpt lat="47.53326" lon="6.7015">
        <ele>372</ele>
        <time>2015-01-25T09:44:58.000Z</time>
      </trkpt>
      <trkpt lat="47.53326" lon="6.70143">
        <ele>371</ele>
        <time>2015-01-25T09:45:00.000Z</time>
      </trkpt>
      <trkpt lat="47.53326" lon="6.7014">
        <ele>371</ele>
        <time>2015-01-25T09:45:01.000Z</time>
      </trkpt>
      <trkpt lat="47.53326" lon="6.70135">
        <ele>371</ele>
        <time>2015-01-25T09:45:02.000Z</time>
      </trkpt>
      <trkpt lat="47.53326" lon="6.7013">
        <ele>370</ele>
        <time>2015-01-25T09:45:03.000Z</time>
      </trkpt>
      <trkpt lat="47.53326" lon="6.70125">
        <ele>370</ele>
        <time>2015-01-25T09:45:04.000Z</time>
      </trkpt>
      <trkpt lat="47.53326" lon="6.70119">
        <ele>370</ele>
        <time>2015-01-25T09:45:05.000Z</time>
      </trkpt>
      <trkpt lat="47.53326" lon="6.70113">
        <ele>369</ele>
        <time>2015-01-25T09:45:06.000Z</time>
      </trkpt>
      <trkpt lat="47.53326" lon="6.70107">
        <ele>369</ele>
        <time>2015-01-25T09:45:07.000Z</time>
      </trkpt>
      <trkpt lat="47.53326" lon="6.70101">
        <ele>369</ele>
        <time>2015-01-25T09:45:08.000Z</time>
      </trkpt>
      <trkpt lat="47.53327" lon="6.70096">
        <ele>368</ele>
        <time>2015-01-25T09:45:09.000Z</time>
      </trkpt>
      <trkpt lat="47.53327" lon="6.70091">
        <ele>368</ele>
        <time>2015-01-25T09:45:10.000Z</time>
      </trkpt>
      <trkpt lat="47.53327" lon="6.70086">
        <ele>368</ele>
        <time>2015-01-25T09:45:11.000Z</time>
      </trkpt>
      <trkpt lat="47.53327" lon="6.70082">
        <ele>367</ele>
        <time>2015-01-25T09:45:12.000Z</time>
      </trkpt>
      <trkpt lat="47.53327" lon="6.70079">
        <ele>366</ele>
        <time>2015-01-25T09:45:13.000Z</time>
      </trkpt>
      <trkpt lat="47.53327" lon="6.70073">
        <ele>366</ele>
        <time>2015-01-25T09:45:15.000Z</time>
      </trkpt>
      <trkpt lat="47.53327" lon="6.70069">
        <ele>366</ele>
        <time>2015-01-25T09:45:16.000Z</time>
      </trkpt>
      <trkpt lat="47.53329" lon="6.70065">
        <ele>366</ele>
        <time>2015-01-25T09:45:17.000Z</time>
      </trkpt>
      <trkpt lat="47.5333" lon="6.70061">
        <ele>366</ele>
        <time>2015-01-25T09:45:18.000Z</time>
      </trkpt>
      <trkpt lat="47.53331" lon="6.70057">
        <ele>366</ele>
        <time>2015-01-25T09:45:19.000Z</time>
      </trkpt>
      <trkpt lat="47.53331" lon="6.70054">
        <ele>366</ele>
        <time>2015-01-25T09:45:20.000Z</time>
      </trkpt>
      <trkpt lat="47.53328" lon="6.7005">
        <ele>365</ele>
        <time>2015-01-25T09:45:22.000Z</time>
      </trkpt>
      <trkpt lat="47.53326" lon="6.70048">
        <ele>365</ele>
        <time>2015-01-25T09:45:23.000Z</time>
      </trkpt>
      <trkpt lat="47.53323" lon="6.70045">
        <ele>365</ele>
        <time>2015-01-25T09:45:25.000Z</time>
      </trkpt>
      <trkpt lat="47.53321" lon="6.70043">
        <ele>365</ele>
        <time>2015-01-25T09:45:26.000Z</time>
      </trkpt>
      <trkpt lat="47.5332" lon="6.7004">
        <ele>365</ele>
        <time>2015-01-25T09:45:27.000Z</time>
      </trkpt>
      <trkpt lat="47.53319" lon="6.70036">
        <ele>365</ele>
        <time>2015-01-25T09:45:28.000Z</time>
      </trkpt>
      <trkpt lat="47.53318" lon="6.70032">
        <ele>365</ele>
        <time>2015-01-25T09:45:29.000Z</time>
      </trkpt>
      <trkpt lat="47.53317" lon="6.70027">
        <ele>365</ele>
        <time>2015-01-25T09:45:30.000Z</time>
      </trkpt>
      <trkpt lat="47.53315" lon="6.70021">
        <ele>365</ele>
        <time>2015-01-25T09:45:31.000Z</time>
      </trkpt>
      <trkpt lat="47.53314" lon="6.70016">
        <ele>365</ele>
        <time>2015-01-25T09:45:32.000Z</time>
      </trkpt>
      <trkpt lat="47.53313" lon="6.70011">
        <ele>365</ele>
        <time>2015-01-25T09:45:33.000Z</time>
      </trkpt>
      <trkpt lat="47.53312" lon="6.70005">
        <ele>364</ele>
        <time>2015-01-25T09:45:34.000Z</time>
      </trkpt>
      <trkpt lat="47.5331" lon="6.7">
        <ele>362</ele>
        <time>2015-01-25T09:45:35.000Z</time>
      </trkpt>
      <trkpt lat="47.53309" lon="6.69994">
        <ele>362</ele>
        <time>2015-01-25T09:45:36.000Z</time>
      </trkpt>
      <trkpt lat="47.53308" lon="6.69989">
        <ele>362</ele>
        <time>2015-01-25T09:45:37.000Z</time>
      </trkpt>
      <trkpt lat="47.53307" lon="6.69984">
        <ele>361</ele>
        <time>2015-01-25T09:45:38.000Z</time>
      </trkpt>
      <trkpt lat="47.53306" lon="6.6998">
        <ele>361</ele>
        <time>2015-01-25T09:45:39.000Z</time>
      </trkpt>
      <trkpt lat="47.53306" lon="6.69977">
        <ele>361</ele>
        <time>2015-01-25T09:45:40.000Z</time>
      </trkpt>
      <trkpt lat="47.53306" lon="6.69972">
        <ele>361</ele>
        <time>2015-01-25T09:45:42.000Z</time>
      </trkpt>
      <trkpt lat="47.53306" lon="6.69969">
        <ele>361</ele>
        <time>2015-01-25T09:45:43.000Z</time>
      </trkpt>
      <trkpt lat="47.53306" lon="6.69967">
        <ele>361</ele>
        <time>2015-01-25T09:45:44.000Z</time>
      </trkpt>
      <trkpt lat="47.53307" lon="6.69962">
        <ele>360</ele>
        <time>2015-01-25T09:45:47.000Z</time>
      </trkpt>
      <trkpt lat="47.5331" lon="6.69957">
        <ele>360</ele>
        <time>2015-01-25T09:45:50.000Z</time>
      </trkpt>
      <trkpt lat="47.53311" lon="6.69956">
        <ele>360</ele>
        <time>2015-01-25T09:45:51.000Z</time>
      </trkpt>
      <trkpt lat="47.53313" lon="6.69951">
        <ele>360</ele>
        <time>2015-01-25T09:45:54.000Z</time>
      </trkpt>
      <trkpt lat="47.53314" lon="6.6995">
        <ele>360</ele>
        <time>2015-01-25T09:45:55.000Z</time>
      </trkpt>
      <trkpt lat="47.53316" lon="6.69946">
        <ele>360</ele>
        <time>2015-01-25T09:45:57.000Z</time>
      </trkpt>
      <trkpt lat="47.53317" lon="6.69944">
        <ele>360</ele>
        <time>2015-01-25T09:45:58.000Z</time>
      </trkpt>
      <trkpt lat="47.53319" lon="6.69939">
        <ele>360</ele>
        <time>2015-01-25T09:46:00.000Z</time>
      </trkpt>
      <trkpt lat="47.5332" lon="6.69936">
        <ele>360</ele>
        <time>2015-01-25T09:46:01.000Z</time>
      </trkpt>
      <trkpt lat="47.53322" lon="6.69932">
        <ele>359</ele>
        <time>2015-01-25T09:46:03.000Z</time>
      </trkpt>
      <trkpt lat="47.53324" lon="6.6993">
        <ele>359</ele>
        <time>2015-01-25T09:46:04.000Z</time>
      </trkpt>
      <trkpt lat="47.53327" lon="6.69927">
        <ele>359</ele>
        <time>2015-01-25T09:46:06.000Z</time>
      </trkpt>
      <trkpt lat="47.53328" lon="6.69925">
        <ele>359</ele>
        <time>2015-01-25T09:46:07.000Z</time>
      </trkpt>
      <trkpt lat="47.53331" lon="6.69921">
        <ele>359</ele>
        <time>2015-01-25T09:46:09.000Z</time>
      </trkpt>
      <trkpt lat="47.53333" lon="6.69919">
        <ele>359</ele>
        <time>2015-01-25T09:46:10.000Z</time>
      </trkpt>
      <trkpt lat="47.53334" lon="6.69916">
        <ele>359</ele>
        <time>2015-01-25T09:46:11.000Z</time>
      </trkpt>
      <trkpt lat="47.53335" lon="6.69911">
        <ele>359</ele>
        <time>2015-01-25T09:46:12.000Z</time>
      </trkpt>
      <trkpt lat="47.53337" lon="6.69906">
        <ele>358</ele>
        <time>2015-01-25T09:46:13.000Z</time>
      </trkpt>
      <trkpt lat="47.53338" lon="6.69901">
        <ele>358</ele>
        <time>2015-01-25T09:46:14.000Z</time>
      </trkpt>
      <trkpt lat="47.5334" lon="6.69896">
        <ele>358</ele>
        <time>2015-01-25T09:46:15.000Z</time>
      </trkpt>
      <trkpt lat="47.53341" lon="6.69891">
        <ele>358</ele>
        <time>2015-01-25T09:46:16.000Z</time>
      </trkpt>
      <trkpt lat="47.53343" lon="6.69887">
        <ele>357</ele>
        <time>2015-01-25T09:46:17.000Z</time>
      </trkpt>
      <trkpt lat="47.53344" lon="6.69883">
        <ele>357</ele>
        <time>2015-01-25T09:46:18.000Z</time>
      </trkpt>
      <trkpt lat="47.53345" lon="6.69878">
        <ele>357</ele>
        <time>2015-01-25T09:46:19.000Z</time>
      </trkpt>
      <trkpt lat="47.53346" lon="6.69873">
        <ele>357</ele>
        <time>2015-01-25T09:46:20.000Z</time>
      </trkpt>
      <trkpt lat="47.53347" lon="6.69866">
        <ele>356</ele>
        <time>2015-01-25T09:46:21.000Z</time>
      </trkpt>
      <trkpt lat="47.53348" lon="6.6986">
        <ele>356</ele>
        <time>2015-01-25T09:46:22.000Z</time>
      </trkpt>
      <trkpt lat="47.53348" lon="6.69854">
        <ele>355</ele>
        <time>2015-01-25T09:46:23.000Z</time>
      </trkpt>
      <trkpt lat="47.53348" lon="6.69848">
        <ele>355</ele>
        <time>2015-01-25T09:46:24.000Z</time>
      </trkpt>
      <trkpt lat="47.53348" lon="6.69841">
        <ele>354</ele>
        <time>2015-01-25T09:46:25.000Z</time>
      </trkpt>
      <trkpt lat="47.53347" lon="6.69836">
        <ele>354</ele>
        <time>2015-01-25T09:46:26.000Z</time>
      </trkpt>
      <trkpt lat="47.53347" lon="6.6983">
        <ele>350</ele>
        <time>2015-01-25T09:46:27.000Z</time>
      </trkpt>
      <trkpt lat="47.53345" lon="6.69824">
        <ele>350</ele>
        <time>2015-01-25T09:46:28.000Z</time>
      </trkpt>
      <trkpt lat="47.53344" lon="6.69819">
        <ele>350</ele>
        <time>2015-01-25T09:46:29.000Z</time>
      </trkpt>
      <trkpt lat="47.53344" lon="6.69814">
        <ele>350</ele>
        <time>2015-01-25T09:46:30.000Z</time>
      </trkpt>
      <trkpt lat="47.53343" lon="6.6981">
        <ele>350</ele>
        <time>2015-01-25T09:46:31.000Z</time>
      </trkpt>
      <trkpt lat="47.53343" lon="6.69806">
        <ele>350</ele>
        <time>2015-01-25T09:46:32.000Z</time>
      </trkpt>
      <trkpt lat="47.53341" lon="6.69801">
        <ele>349</ele>
        <time>2015-01-25T09:46:34.000Z</time>
      </trkpt>
      <trkpt lat="47.53341" lon="6.69797">
        <ele>349</ele>
        <time>2015-01-25T09:46:35.000Z</time>
      </trkpt>
      <trkpt lat="47.5334" lon="6.69793">
        <ele>349</ele>
        <time>2015-01-25T09:46:36.000Z</time>
      </trkpt>
      <trkpt lat="47.5334" lon="6.69788">
        <ele>349</ele>
        <time>2015-01-25T09:46:37.000Z</time>
      </trkpt>
      <trkpt lat="47.53339" lon="6.69782">
        <ele>348</ele>
        <time>2015-01-25T09:46:38.000Z</time>
      </trkpt>
      <trkpt lat="47.53338" lon="6.69775">
        <ele>348</ele>
        <time>2015-01-25T09:46:39.000Z</time>
      </trkpt>
      <trkpt lat="47.53337" lon="6.69769">
        <ele>347</ele>
        <time>2015-01-25T09:46:40.000Z</time>
      </trkpt>
      <trkpt lat="47.53336" lon="6.69763">
        <ele>347</ele>
        <time>2015-01-25T09:46:41.000Z</time>
      </trkpt>
      <trkpt lat="47.53335" lon="6.69757">
        <ele>346</ele>
        <time>2015-01-25T09:46:42.000Z</time>
      </trkpt>
      <trkpt lat="47.53335" lon="6.69752">
        <ele>345</ele>
        <time>2015-01-25T09:46:43.000Z</time>
      </trkpt>
      <trkpt lat="47.53334" lon="6.69746">
        <ele>345</ele>
        <time>2015-01-25T09:46:44.000Z</time>
      </trkpt>
      <trkpt lat="47.53326" lon="6.69699">
        <ele>346</ele>
        <time>2015-01-25T09:46:52.000Z</time>
      </trkpt>
      <trkpt lat="47.53325" lon="6.69693">
        <ele>345</ele>
        <time>2015-01-25T09:46:53.000Z</time>
      </trkpt>
      <trkpt lat="47.53324" lon="6.69687">
        <ele>345</ele>
        <time>2015-01-25T09:46:54.000Z</time>
      </trkpt>
      <trkpt lat="47.53323" lon="6.69681">
        <ele>345</ele>
        <time>2015-01-25T09:46:55.000Z</time>
      </trkpt>
      <trkpt lat="47.53322" lon="6.69675">
        <ele>345</ele>
        <time>2015-01-25T09:46:56.000Z</time>
      </trkpt>
      <trkpt lat="47.53322" lon="6.69669">
        <ele>345</ele>
        <time>2015-01-25T09:46:57.000Z</time>
      </trkpt>
      <trkpt lat="47.53321" lon="6.69664">
        <ele>345</ele>
        <time>2015-01-25T09:46:58.000Z</time>
      </trkpt>
      <trkpt lat="47.5332" lon="6.69658">
        <ele>345</ele>
        <time>2015-01-25T09:46:59.000Z</time>
      </trkpt>
      <trkpt lat="47.53319" lon="6.69653">
        <ele>346</ele>
        <time>2015-01-25T09:47:00.000Z</time>
      </trkpt>
      <trkpt lat="47.53319" lon="6.69648">
        <ele>346</ele>
        <time>2015-01-25T09:47:01.000Z</time>
      </trkpt>
      <trkpt lat="47.53318" lon="6.69642">
        <ele>346</ele>
        <time>2015-01-25T09:47:02.000Z</time>
      </trkpt>
      <trkpt lat="47.53318" lon="6.69637">
        <ele>346</ele>
        <time>2015-01-25T09:47:03.000Z</time>
      </trkpt>
      <trkpt lat="47.53317" lon="6.69631">
        <ele>346</ele>
        <time>2015-01-25T09:47:04.000Z</time>
      </trkpt>
      <trkpt lat="47.53316" lon="6.69625">
        <ele>346</ele>
        <time>2015-01-25T09:47:05.000Z</time>
      </trkpt>
      <trkpt lat="47.53316" lon="6.69619">
        <ele>346</ele>
        <time>2015-01-25T09:47:06.000Z</time>
      </trkpt>
      <trkpt lat="47.53315" lon="6.69613">
        <ele>346</ele>
        <time>2015-01-25T09:47:07.000Z</time>
      </trkpt>
      <trkpt lat="47.53314" lon="6.69608">
        <ele>346</ele>
        <time>2015-01-25T09:47:08.000Z</time>
      </trkpt>
      <trkpt lat="47.53313" lon="6.69602">
        <ele>346</ele>
        <time>2015-01-25T09:47:09.000Z</time>
      </trkpt>
      <trkpt lat="47.53312" lon="6.69596">
        <ele>346</ele>
        <time>2015-01-25T09:47:10.000Z</time>
      </trkpt>
      <trkpt lat="47.53311" lon="6.69591">
        <ele>346</ele>
        <time>2015-01-25T09:47:11.000Z</time>
      </trkpt>
      <trkpt lat="47.5331" lon="6.69585">
        <ele>346</ele>
        <time>2015-01-25T09:47:12.000Z</time>
      </trkpt>
      <trkpt lat="47.53309" lon="6.6958">
        <ele>345</ele>
        <time>2015-01-25T09:47:13.000Z</time>
      </trkpt>
      <trkpt lat="47.53308" lon="6.69574">
        <ele>345</ele>
        <time>2015-01-25T09:47:14.000Z</time>
      </trkpt>
      <trkpt lat="47.53308" lon="6.69568">
        <ele>345</ele>
        <time>2015-01-25T09:47:15.000Z</time>
      </trkpt>
      <trkpt lat="47.53307" lon="6.69563">
        <ele>346</ele>
        <time>2015-01-25T09:47:16.000Z</time>
      </trkpt>
      <trkpt lat="47.53306" lon="6.69557">
        <ele>346</ele>
        <time>2015-01-25T09:47:17.000Z</time>
      </trkpt>
      <trkpt lat="47.53305" lon="6.69552">
        <ele>346</ele>
        <time>2015-01-25T09:47:18.000Z</time>
      </trkpt>
      <trkpt lat="47.53305" lon="6.69548">
        <ele>346</ele>
        <time>2015-01-25T09:47:19.000Z</time>
      </trkpt>
      <trkpt lat="47.53304" lon="6.69543">
        <ele>346</ele>
        <time>2015-01-25T09:47:20.000Z</time>
      </trkpt>
      <trkpt lat="47.53304" lon="6.69539">
        <ele>345</ele>
        <time>2015-01-25T09:47:21.000Z</time>
      </trkpt>
      <trkpt lat="47.53303" lon="6.69536">
        <ele>345</ele>
        <time>2015-01-25T09:47:22.000Z</time>
      </trkpt>
      <trkpt lat="47.53303" lon="6.69532">
        <ele>345</ele>
        <time>2015-01-25T09:47:23.000Z</time>
      </trkpt>
      <trkpt lat="47.53302" lon="6.69529">
        <ele>345</ele>
        <time>2015-01-25T09:47:24.000Z</time>
      </trkpt>
      <trkpt lat="47.533" lon="6.69526">
        <ele>345</ele>
        <time>2015-01-25T09:47:25.000Z</time>
      </trkpt>
      <trkpt lat="47.53298" lon="6.69524">
        <ele>345</ele>
        <time>2015-01-25T09:47:26.000Z</time>
      </trkpt>
      <trkpt lat="47.53295" lon="6.69522">
        <ele>345</ele>
        <time>2015-01-25T09:47:27.000Z</time>
      </trkpt>
      <trkpt lat="47.53292" lon="6.69521">
        <ele>345</ele>
        <time>2015-01-25T09:47:28.000Z</time>
      </trkpt>
      <trkpt lat="47.53288" lon="6.6952">
        <ele>346</ele>
        <time>2015-01-25T09:47:29.000Z</time>
      </trkpt>
      <trkpt lat="47.53284" lon="6.69521">
        <ele>346</ele>
        <time>2015-01-25T09:47:30.000Z</time>
      </trkpt>
      <trkpt lat="47.53279" lon="6.69521">
        <ele>346</ele>
        <time>2015-01-25T09:47:31.000Z</time>
      </trkpt>
      <trkpt lat="47.53276" lon="6.69522">
        <ele>346</ele>
        <time>2015-01-25T09:47:32.000Z</time>
      </trkpt>
      <trkpt lat="47.53272" lon="6.69522">
        <ele>346</ele>
        <time>2015-01-25T09:47:33.000Z</time>
      </trkpt>
      <trkpt lat="47.53268" lon="6.69522">
        <ele>346</ele>
        <time>2015-01-25T09:47:34.000Z</time>
      </trkpt>
      <trkpt lat="47.53264" lon="6.69523">
        <ele>346</ele>
        <time>2015-01-25T09:47:35.000Z</time>
      </trkpt>
      <trkpt lat="47.5326" lon="6.69523">
        <ele>346</ele>
        <time>2015-01-25T09:47:36.000Z</time>
      </trkpt>
      <trkpt lat="47.53257" lon="6.69523">
        <ele>346</ele>
        <time>2015-01-25T09:47:37.000Z</time>
      </trkpt>
      <trkpt lat="47.53253" lon="6.69524">
        <ele>346</ele>
        <time>2015-01-25T09:47:38.000Z</time>
      </trkpt>
      <trkpt lat="47.5325" lon="6.69525">
        <ele>348</ele>
        <time>2015-01-25T09:47:39.000Z</time>
      </trkpt>
      <trkpt lat="47.53246" lon="6.69526">
        <ele>348</ele>
        <time>2015-01-25T09:47:40.000Z</time>
      </trkpt>
      <trkpt lat="47.53243" lon="6.69526">
        <ele>348</ele>
        <time>2015-01-25T09:47:41.000Z</time>
      </trkpt>
      <trkpt lat="47.5324" lon="6.69527">
        <ele>348</ele>
        <time>2015-01-25T09:47:42.000Z</time>
      </trkpt>
      <trkpt lat="47.53236" lon="6.69528">
        <ele>349</ele>
        <time>2015-01-25T09:47:43.000Z</time>
      </trkpt>
      <trkpt lat="47.53233" lon="6.69529">
        <ele>349</ele>
        <time>2015-01-25T09:47:44.000Z</time>
      </trkpt>
      <trkpt lat="47.53224" lon="6.69531">
        <ele>349</ele>
        <time>2015-01-25T09:47:47.000Z</time>
      </trkpt>
      <trkpt lat="47.53221" lon="6.69532">
        <ele>349</ele>
        <time>2015-01-25T09:47:48.000Z</time>
      </trkpt>
      <trkpt lat="47.53218" lon="6.69533">
        <ele>349</ele>
        <time>2015-01-25T09:47:49.000Z</time>
      </trkpt>
      <trkpt lat="47.53215" lon="6.69533">
        <ele>349</ele>
        <time>2015-01-25T09:47:50.000Z</time>
      </trkpt>
      <trkpt lat="47.53212" lon="6.69534">
        <ele>350</ele>
        <time>2015-01-25T09:47:51.000Z</time>
      </trkpt>
      <trkpt lat="47.53209" lon="6.69535">
        <ele>350</ele>
        <time>2015-01-25T09:47:52.000Z</time>
      </trkpt>
      <trkpt lat="47.53206" lon="6.69537">
        <ele>350</ele>
        <time>2015-01-25T09:47:53.000Z</time>
      </trkpt>
      <trkpt lat="47.53203" lon="6.69537">
        <ele>350</ele>
        <time>2015-01-25T09:47:54.000Z</time>
      </trkpt>
      <trkpt lat="47.53199" lon="6.69538">
        <ele>350</ele>
        <time>2015-01-25T09:47:55.000Z</time>
      </trkpt>
      <trkpt lat="47.53196" lon="6.69539">
        <ele>350</ele>
        <time>2015-01-25T09:47:56.000Z</time>
      </trkpt>
      <trkpt lat="47.53193" lon="6.69539">
        <ele>350</ele>
        <time>2015-01-25T09:47:57.000Z</time>
      </trkpt>
      <trkpt lat="47.53189" lon="6.69541">
        <ele>350</ele>
        <time>2015-01-25T09:47:58.000Z</time>
      </trkpt>
      <trkpt lat="47.53186" lon="6.69542">
        <ele>351</ele>
        <time>2015-01-25T09:47:59.000Z</time>
      </trkpt>
      <trkpt lat="47.53183" lon="6.69543">
        <ele>351</ele>
        <time>2015-01-25T09:48:00.000Z</time>
      </trkpt>
      <trkpt lat="47.5318" lon="6.69545">
        <ele>351</ele>
        <time>2015-01-25T09:48:01.000Z</time>
      </trkpt>
      <trkpt lat="47.53177" lon="6.69546">
        <ele>351</ele>
        <time>2015-01-25T09:48:02.000Z</time>
      </trkpt>
      <trkpt lat="47.53173" lon="6.69546">
        <ele>351</ele>
        <time>2015-01-25T09:48:03.000Z</time>
      </trkpt>
      <trkpt lat="47.5317" lon="6.69547">
        <ele>351</ele>
        <time>2015-01-25T09:48:04.000Z</time>
      </trkpt>
      <trkpt lat="47.53166" lon="6.69548">
        <ele>354</ele>
        <time>2015-01-25T09:48:05.000Z</time>
      </trkpt>
      <trkpt lat="47.53163" lon="6.69548">
        <ele>354</ele>
        <time>2015-01-25T09:48:06.000Z</time>
      </trkpt>
      <trkpt lat="47.5316" lon="6.69547">
        <ele>354</ele>
        <time>2015-01-25T09:48:07.000Z</time>
      </trkpt>
      <trkpt lat="47.53157" lon="6.69547">
        <ele>354</ele>
        <time>2015-01-25T09:48:08.000Z</time>
      </trkpt>
      <trkpt lat="47.53154" lon="6.69547">
        <ele>354</ele>
        <time>2015-01-25T09:48:09.000Z</time>
      </trkpt>
      <trkpt lat="47.53151" lon="6.69547">
        <ele>354</ele>
        <time>2015-01-25T09:48:10.000Z</time>
      </trkpt>
      <trkpt lat="47.53147" lon="6.69547">
        <ele>354</ele>
        <time>2015-01-25T09:48:11.000Z</time>
      </trkpt>
      <trkpt lat="47.53144" lon="6.69547">
        <ele>354</ele>
        <time>2015-01-25T09:48:12.000Z</time>
      </trkpt>
      <trkpt lat="47.53141" lon="6.69546">
        <ele>354</ele>
        <time>2015-01-25T09:48:13.000Z</time>
      </trkpt>
      <trkpt lat="47.53138" lon="6.69546">
        <ele>354</ele>
        <time>2015-01-25T09:48:14.000Z</time>
      </trkpt>
      <trkpt lat="47.53135" lon="6.69546">
        <ele>354</ele>
        <time>2015-01-25T09:48:15.000Z</time>
      </trkpt>
      <trkpt lat="47.53132" lon="6.69542">
        <ele>353</ele>
        <time>2015-01-25T09:48:17.000Z</time>
      </trkpt>
      <trkpt lat="47.53132" lon="6.69538">
        <ele>353</ele>
        <time>2015-01-25T09:48:18.000Z</time>
      </trkpt>
      <trkpt lat="47.53132" lon="6.69534">
        <ele>353</ele>
        <time>2015-01-25T09:48:19.000Z</time>
      </trkpt>
      <trkpt lat="47.53133" lon="6.6953">
        <ele>353</ele>
        <time>2015-01-25T09:48:20.000Z</time>
      </trkpt>
      <trkpt lat="47.53133" lon="6.69526">
        <ele>353</ele>
        <time>2015-01-25T09:48:21.000Z</time>
      </trkpt>
      <trkpt lat="47.53134" lon="6.69523">
        <ele>352</ele>
        <time>2015-01-25T09:48:22.000Z</time>
      </trkpt>
      <trkpt lat="47.53135" lon="6.69517">
        <ele>352</ele>
        <time>2015-01-25T09:48:24.000Z</time>
      </trkpt>
      <trkpt lat="47.53135" lon="6.69514">
        <ele>352</ele>
        <time>2015-01-25T09:48:25.000Z</time>
      </trkpt>
      <trkpt lat="47.53136" lon="6.69511">
        <ele>352</ele>
        <time>2015-01-25T09:48:26.000Z</time>
      </trkpt>
      <trkpt lat="47.53136" lon="6.69507">
        <ele>352</ele>
        <time>2015-01-25T09:48:27.000Z</time>
      </trkpt>
      <trkpt lat="47.53136" lon="6.69503">
        <ele>351</ele>
        <time>2015-01-25T09:48:28.000Z</time>
      </trkpt>
      <trkpt lat="47.53136" lon="6.69499">
        <ele>348</ele>
        <time>2015-01-25T09:48:29.000Z</time>
      </trkpt>
      <trkpt lat="47.53135" lon="6.69496">
        <ele>348</ele>
        <time>2015-01-25T09:48:30.000Z</time>
      </trkpt>
      <trkpt lat="47.53135" lon="6.69492">
        <ele>348</ele>
        <time>2015-01-25T09:48:31.000Z</time>
      </trkpt>
      <trkpt lat="47.53135" lon="6.69489">
        <ele>348</ele>
        <time>2015-01-25T09:48:32.000Z</time>
      </trkpt>
      <trkpt lat="47.53136" lon="6.69485">
        <ele>348</ele>
        <time>2015-01-25T09:48:33.000Z</time>
      </trkpt>
      <trkpt lat="47.53136" lon="6.69481">
        <ele>348</ele>
        <time>2015-01-25T09:48:34.000Z</time>
      </trkpt>
      <trkpt lat="47.53136" lon="6.69478">
        <ele>348</ele>
        <time>2015-01-25T09:48:35.000Z</time>
      </trkpt>
      <trkpt lat="47.53136" lon="6.69474">
        <ele>348</ele>
        <time>2015-01-25T09:48:36.000Z</time>
      </trkpt>
      <trkpt lat="47.53136" lon="6.69471">
        <ele>348</ele>
        <time>2015-01-25T09:48:37.000Z</time>
      </trkpt>
      <trkpt lat="47.53136" lon="6.69468">
        <ele>348</ele>
        <time>2015-01-25T09:48:38.000Z</time>
      </trkpt>
      <trkpt lat="47.53136" lon="6.69464">
        <ele>348</ele>
        <time>2015-01-25T09:48:39.000Z</time>
      </trkpt>
      <trkpt lat="47.53136" lon="6.6946">
        <ele>348</ele>
        <time>2015-01-25T09:48:40.000Z</time>
      </trkpt>
      <trkpt lat="47.53136" lon="6.69456">
        <ele>348</ele>
        <time>2015-01-25T09:48:41.000Z</time>
      </trkpt>
      <trkpt lat="47.53134" lon="6.6945">
        <ele>348</ele>
        <time>2015-01-25T09:48:43.000Z</time>
      </trkpt>
      <trkpt lat="47.53134" lon="6.69447">
        <ele>348</ele>
        <time>2015-01-25T09:48:44.000Z</time>
      </trkpt>
      <trkpt lat="47.53132" lon="6.69437">
        <ele>348</ele>
        <time>2015-01-25T09:48:47.000Z</time>
      </trkpt>
      <trkpt lat="47.53132" lon="6.69434">
        <ele>348</ele>
        <time>2015-01-25T09:48:48.000Z</time>
      </trkpt>
      <trkpt lat="47.53132" lon="6.6943">
        <ele>348</ele>
        <time>2015-01-25T09:48:49.000Z</time>
      </trkpt>
      <trkpt lat="47.53131" lon="6.69427">
        <ele>348</ele>
        <time>2015-01-25T09:48:50.000Z</time>
      </trkpt>
      <trkpt lat="47.53131" lon="6.69423">
        <ele>348</ele>
        <time>2015-01-25T09:48:51.000Z</time>
      </trkpt>
      <trkpt lat="47.53131" lon="6.6942">
        <ele>348</ele>
        <time>2015-01-25T09:48:52.000Z</time>
      </trkpt>
      <trkpt lat="47.5313" lon="6.69416">
        <ele>348</ele>
        <time>2015-01-25T09:48:53.000Z</time>
      </trkpt>
      <trkpt lat="47.53129" lon="6.69413">
        <ele>348</ele>
        <time>2015-01-25T09:48:54.000Z</time>
      </trkpt>
      <trkpt lat="47.53128" lon="6.69409">
        <ele>348</ele>
        <time>2015-01-25T09:48:55.000Z</time>
      </trkpt>
      <trkpt lat="47.53127" lon="6.69404">
        <ele>348</ele>
        <time>2015-01-25T09:48:56.000Z</time>
      </trkpt>
      <trkpt lat="47.53126" lon="6.694">
        <ele>348</ele>
        <time>2015-01-25T09:48:57.000Z</time>
      </trkpt>
      <trkpt lat="47.53126" lon="6.69395">
        <ele>348</ele>
        <time>2015-01-25T09:48:58.000Z</time>
      </trkpt>
      <trkpt lat="47.53126" lon="6.69391">
        <ele>348</ele>
        <time>2015-01-25T09:48:59.000Z</time>
      </trkpt>
      <trkpt lat="47.53126" lon="6.69387">
        <ele>348</ele>
        <time>2015-01-25T09:49:00.000Z</time>
      </trkpt>
      <trkpt lat="47.53126" lon="6.69384">
        <ele>348</ele>
        <time>2015-01-25T09:49:01.000Z</time>
      </trkpt>
      <trkpt lat="47.53126" lon="6.6938">
        <ele>348</ele>
        <time>2015-01-25T09:49:02.000Z</time>
      </trkpt>
      <trkpt lat="47.53126" lon="6.69377">
        <ele>348</ele>
        <time>2015-01-25T09:49:03.000Z</time>
      </trkpt>
      <trkpt lat="47.53126" lon="6.69373">
        <ele>349</ele>
        <time>2015-01-25T09:49:04.038Z</time>
      </trkpt>
      <trkpt lat="47.53126" lon="6.6937">
        <ele>349</ele>
        <time>2015-01-25T09:49:05.000Z</time>
      </trkpt>
      <trkpt lat="47.53126" lon="6.69366">
        <ele>349</ele>
        <time>2015-01-25T09:49:06.000Z</time>
      </trkpt>
      <trkpt lat="47.53126" lon="6.69363">
        <ele>349</ele>
        <time>2015-01-25T09:49:07.000Z</time>
      </trkpt>
      <trkpt lat="47.53125" lon="6.69359">
        <ele>349</ele>
        <time>2015-01-25T09:49:08.000Z</time>
      </trkpt>
      <trkpt lat="47.53125" lon="6.69356">
        <ele>349</ele>
        <time>2015-01-25T09:49:09.000Z</time>
      </trkpt>
      <trkpt lat="47.53126" lon="6.69352">
        <ele>349</ele>
        <time>2015-01-25T09:49:10.000Z</time>
      </trkpt>
      <trkpt lat="47.53126" lon="6.69349">
        <ele>349</ele>
        <time>2015-01-25T09:49:11.000Z</time>
      </trkpt>
      <trkpt lat="47.53126" lon="6.69345">
        <ele>349</ele>
        <time>2015-01-25T09:49:12.000Z</time>
      </trkpt>
      <trkpt lat="47.53126" lon="6.69341">
        <ele>349</ele>
        <time>2015-01-25T09:49:13.000Z</time>
      </trkpt>
      <trkpt lat="47.53126" lon="6.69337">
        <ele>349</ele>
        <time>2015-01-25T09:49:14.000Z</time>
      </trkpt>
      <trkpt lat="47.53126" lon="6.69332">
        <ele>350</ele>
        <time>2015-01-25T09:49:15.000Z</time>
      </trkpt>
      <trkpt lat="47.53127" lon="6.69328">
        <ele>350</ele>
        <time>2015-01-25T09:49:16.000Z</time>
      </trkpt>
      <trkpt lat="47.53128" lon="6.69324">
        <ele>350</ele>
        <time>2015-01-25T09:49:17.000Z</time>
      </trkpt>
      <trkpt lat="47.53128" lon="6.6932">
        <ele>350</ele>
        <time>2015-01-25T09:49:18.000Z</time>
      </trkpt>
      <trkpt lat="47.53128" lon="6.69316">
        <ele>350</ele>
        <time>2015-01-25T09:49:19.000Z</time>
      </trkpt>
      <trkpt lat="47.53128" lon="6.69313">
        <ele>350</ele>
        <time>2015-01-25T09:49:20.000Z</time>
      </trkpt>
      <trkpt lat="47.53127" lon="6.69309">
        <ele>350</ele>
        <time>2015-01-25T09:49:21.000Z</time>
      </trkpt>
      <trkpt lat="47.53127" lon="6.69305">
        <ele>350</ele>
        <time>2015-01-25T09:49:22.000Z</time>
      </trkpt>
      <trkpt lat="47.53126" lon="6.69301">
        <ele>350</ele>
        <time>2015-01-25T09:49:23.000Z</time>
      </trkpt>
      <trkpt lat="47.53126" lon="6.69297">
        <ele>350</ele>
        <time>2015-01-25T09:49:24.000Z</time>
      </trkpt>
      <trkpt lat="47.53126" lon="6.69294">
        <ele>350</ele>
        <time>2015-01-25T09:49:25.000Z</time>
      </trkpt>
      <trkpt lat="47.53125" lon="6.6929">
        <ele>351</ele>
        <time>2015-01-25T09:49:26.000Z</time>
      </trkpt>
      <trkpt lat="47.53125" lon="6.69287">
        <ele>351</ele>
        <time>2015-01-25T09:49:27.000Z</time>
      </trkpt>
      <trkpt lat="47.53125" lon="6.69283">
        <ele>351</ele>
        <time>2015-01-25T09:49:28.000Z</time>
      </trkpt>
      <trkpt lat="47.53125" lon="6.6928">
        <ele>351</ele>
        <time>2015-01-25T09:49:29.000Z</time>
      </trkpt>
      <trkpt lat="47.53125" lon="6.69276">
        <ele>351</ele>
        <time>2015-01-25T09:49:30.000Z</time>
      </trkpt>
      <trkpt lat="47.53124" lon="6.69273">
        <ele>351</ele>
        <time>2015-01-25T09:49:31.000Z</time>
      </trkpt>
      <trkpt lat="47.53124" lon="6.6927">
        <ele>351</ele>
        <time>2015-01-25T09:49:32.000Z</time>
      </trkpt>
      <trkpt lat="47.53124" lon="6.69266">
        <ele>351</ele>
        <time>2015-01-25T09:49:33.000Z</time>
      </trkpt>
      <trkpt lat="47.53124" lon="6.69263">
        <ele>351</ele>
        <time>2015-01-25T09:49:34.000Z</time>
      </trkpt>
      <trkpt lat="47.53124" lon="6.69259">
        <ele>351</ele>
        <time>2015-01-25T09:49:35.000Z</time>
      </trkpt>
      <trkpt lat="47.53124" lon="6.69253">
        <ele>351</ele>
        <time>2015-01-25T09:49:37.000Z</time>
      </trkpt>
      <trkpt lat="47.53125" lon="6.69249">
        <ele>352</ele>
        <time>2015-01-25T09:49:38.000Z</time>
      </trkpt>
      <trkpt lat="47.53125" lon="6.69243">
        <ele>352</ele>
        <time>2015-01-25T09:49:40.000Z</time>
      </trkpt>
      <trkpt lat="47.53125" lon="6.6924">
        <ele>353</ele>
        <time>2015-01-25T09:49:41.000Z</time>
      </trkpt>
      <trkpt lat="47.53125" lon="6.69233">
        <ele>353</ele>
        <time>2015-01-25T09:49:43.000Z</time>
      </trkpt>
      <trkpt lat="47.53124" lon="6.6923">
        <ele>353</ele>
        <time>2015-01-25T09:49:44.000Z</time>
      </trkpt>
      <trkpt lat="47.53123" lon="6.69227">
        <ele>353</ele>
        <time>2015-01-25T09:49:45.000Z</time>
      </trkpt>
      <trkpt lat="47.53122" lon="6.69219">
        <ele>353</ele>
        <time>2015-01-25T09:49:48.000Z</time>
      </trkpt>
      <trkpt lat="47.53122" lon="6.69213">
        <ele>353</ele>
        <time>2015-01-25T09:49:51.000Z</time>
      </trkpt>
      <trkpt lat="47.53123" lon="6.6921">
        <ele>353</ele>
        <time>2015-01-25T09:49:52.000Z</time>
      </trkpt>
      <trkpt lat="47.53123" lon="6.69204">
        <ele>353</ele>
        <time>2015-01-25T09:49:54.000Z</time>
      </trkpt>
      <trkpt lat="47.53123" lon="6.69202">
        <ele>353</ele>
        <time>2015-01-25T09:49:55.000Z</time>
      </trkpt>
      <trkpt lat="47.53123" lon="6.69196">
        <ele>353</ele>
        <time>2015-01-25T09:49:57.000Z</time>
      </trkpt>
      <trkpt lat="47.53123" lon="6.69193">
        <ele>353</ele>
        <time>2015-01-25T09:49:58.000Z</time>
      </trkpt>
      <trkpt lat="47.53122" lon="6.69187">
        <ele>353</ele>
        <time>2015-01-25T09:50:00.000Z</time>
      </trkpt>
      <trkpt lat="47.53122" lon="6.69184">
        <ele>353</ele>
        <time>2015-01-25T09:50:01.000Z</time>
      </trkpt>
      <trkpt lat="47.53121" lon="6.69178">
        <ele>353</ele>
        <time>2015-01-25T09:50:03.000Z</time>
      </trkpt>
      <trkpt lat="47.53121" lon="6.69175">
        <ele>353</ele>
        <time>2015-01-25T09:50:04.000Z</time>
      </trkpt>
      <trkpt lat="47.53121" lon="6.6917">
        <ele>354</ele>
        <time>2015-01-25T09:50:06.000Z</time>
      </trkpt>
      <trkpt lat="47.53121" lon="6.69167">
        <ele>354</ele>
        <time>2015-01-25T09:50:07.000Z</time>
      </trkpt>
      <trkpt lat="47.5312" lon="6.69162">
        <ele>356</ele>
        <time>2015-01-25T09:50:09.000Z</time>
      </trkpt>
      <trkpt lat="47.5312" lon="6.69159">
        <ele>356</ele>
        <time>2015-01-25T09:50:10.000Z</time>
      </trkpt>
      <trkpt lat="47.53119" lon="6.69154">
        <ele>356</ele>
        <time>2015-01-25T09:50:12.000Z</time>
      </trkpt>
      <trkpt lat="47.53119" lon="6.69151">
        <ele>356</ele>
        <time>2015-01-25T09:50:13.000Z</time>
      </trkpt>
      <trkpt lat="47.53119" lon="6.69146">
        <ele>356</ele>
        <time>2015-01-25T09:50:15.000Z</time>
      </trkpt>
      <trkpt lat="47.53119" lon="6.69143">
        <ele>356</ele>
        <time>2015-01-25T09:50:16.000Z</time>
      </trkpt>
      <trkpt lat="47.53118" lon="6.69138">
        <ele>356</ele>
        <time>2015-01-25T09:50:18.000Z</time>
      </trkpt>
      <trkpt lat="47.53118" lon="6.69136">
        <ele>356</ele>
        <time>2015-01-25T09:50:19.000Z</time>
      </trkpt>
      <trkpt lat="47.53117" lon="6.6913">
        <ele>356</ele>
        <time>2015-01-25T09:50:21.000Z</time>
      </trkpt>
      <trkpt lat="47.53117" lon="6.69128">
        <ele>356</ele>
        <time>2015-01-25T09:50:22.000Z</time>
      </trkpt>
      <trkpt lat="47.53116" lon="6.69122">
        <ele>356</ele>
        <time>2015-01-25T09:50:24.000Z</time>
      </trkpt>
      <trkpt lat="47.53116" lon="6.69119">
        <ele>356</ele>
        <time>2015-01-25T09:50:25.000Z</time>
      </trkpt>
      <trkpt lat="47.53115" lon="6.69114">
        <ele>356</ele>
        <time>2015-01-25T09:50:27.000Z</time>
      </trkpt>
      <trkpt lat="47.53115" lon="6.69111">
        <ele>357</ele>
        <time>2015-01-25T09:50:28.000Z</time>
      </trkpt>
      <trkpt lat="47.53114" lon="6.69106">
        <ele>357</ele>
        <time>2015-01-25T09:50:30.000Z</time>
      </trkpt>
      <trkpt lat="47.53113" lon="6.69104">
        <ele>357</ele>
        <time>2015-01-25T09:50:31.000Z</time>
      </trkpt>
      <trkpt lat="47.53113" lon="6.69099">
        <ele>357</ele>
        <time>2015-01-25T09:50:33.000Z</time>
      </trkpt>
      <trkpt lat="47.53112" lon="6.69097">
        <ele>357</ele>
        <time>2015-01-25T09:50:34.000Z</time>
      </trkpt>
      <trkpt lat="47.53112" lon="6.69092">
        <ele>357</ele>
        <time>2015-01-25T09:50:36.000Z</time>
      </trkpt>
      <trkpt lat="47.53111" lon="6.69089">
        <ele>357</ele>
        <time>2015-01-25T09:50:37.000Z</time>
      </trkpt>
      <trkpt lat="47.53111" lon="6.69083">
        <ele>359</ele>
        <time>2015-01-25T09:50:39.000Z</time>
      </trkpt>
      <trkpt lat="47.5311" lon="6.69081">
        <ele>359</ele>
        <time>2015-01-25T09:50:40.000Z</time>
      </trkpt>
      <trkpt lat="47.5311" lon="6.69075">
        <ele>359</ele>
        <time>2015-01-25T09:50:42.000Z</time>
      </trkpt>
      <trkpt lat="47.5311" lon="6.69072">
        <ele>359</ele>
        <time>2015-01-25T09:50:43.000Z</time>
      </trkpt>
      <trkpt lat="47.5311" lon="6.6907">
        <ele>359</ele>
        <time>2015-01-25T09:50:44.000Z</time>
      </trkpt>
      <trkpt lat="47.53109" lon="6.69062">
        <ele>359</ele>
        <time>2015-01-25T09:50:47.000Z</time>
      </trkpt>
      <trkpt lat="47.53109" lon="6.69056">
        <ele>360</ele>
        <time>2015-01-25T09:50:49.000Z</time>
      </trkpt>
      <trkpt lat="47.53109" lon="6.69054">
        <ele>360</ele>
        <time>2015-01-25T09:50:50.000Z</time>
      </trkpt>
      <trkpt lat="47.53108" lon="6.69048">
        <ele>360</ele>
        <time>2015-01-25T09:50:52.000Z</time>
      </trkpt>
      <trkpt lat="47.53108" lon="6.69046">
        <ele>360</ele>
        <time>2015-01-25T09:50:53.000Z</time>
      </trkpt>
      <trkpt lat="47.53108" lon="6.6904">
        <ele>360</ele>
        <time>2015-01-25T09:50:55.000Z</time>
      </trkpt>
      <trkpt lat="47.53108" lon="6.69038">
        <ele>360</ele>
        <time>2015-01-25T09:50:56.000Z</time>
      </trkpt>
      <trkpt lat="47.53107" lon="6.69032">
        <ele>360</ele>
        <time>2015-01-25T09:50:58.000Z</time>
      </trkpt>
      <trkpt lat="47.53107" lon="6.69029">
        <ele>360</ele>
        <time>2015-01-25T09:50:59.000Z</time>
      </trkpt>
      <trkpt lat="47.53107" lon="6.69024">
        <ele>360</ele>
        <time>2015-01-25T09:51:01.000Z</time>
      </trkpt>
      <trkpt lat="47.53107" lon="6.69021">
        <ele>361</ele>
        <time>2015-01-25T09:51:02.000Z</time>
      </trkpt>
      <trkpt lat="47.53106" lon="6.69016">
        <ele>361</ele>
        <time>2015-01-25T09:51:04.000Z</time>
      </trkpt>
      <trkpt lat="47.53106" lon="6.69013">
        <ele>361</ele>
        <time>2015-01-25T09:51:05.000Z</time>
      </trkpt>
      <trkpt lat="47.53106" lon="6.69007">
        <ele>361</ele>
        <time>2015-01-25T09:51:07.000Z</time>
      </trkpt>
      <trkpt lat="47.53106" lon="6.69004">
        <ele>361</ele>
        <time>2015-01-25T09:51:08.000Z</time>
      </trkpt>
      <trkpt lat="47.53105" lon="6.68999">
        <ele>362</ele>
        <time>2015-01-25T09:51:10.000Z</time>
      </trkpt>
      <trkpt lat="47.53105" lon="6.68996">
        <ele>362</ele>
        <time>2015-01-25T09:51:11.000Z</time>
      </trkpt>
      <trkpt lat="47.53105" lon="6.68991">
        <ele>362</ele>
        <time>2015-01-25T09:51:13.000Z</time>
      </trkpt>
      <trkpt lat="47.53105" lon="6.68988">
        <ele>362</ele>
        <time>2015-01-25T09:51:14.000Z</time>
      </trkpt>
      <trkpt lat="47.53105" lon="6.68983">
        <ele>363</ele>
        <time>2015-01-25T09:51:16.000Z</time>
      </trkpt>
      <trkpt lat="47.53105" lon="6.6898">
        <ele>363</ele>
        <time>2015-01-25T09:51:17.000Z</time>
      </trkpt>
      <trkpt lat="47.53105" lon="6.68974">
        <ele>363</ele>
        <time>2015-01-25T09:51:18.998Z</time>
      </trkpt>
      <trkpt lat="47.53104" lon="6.68972">
        <ele>363</ele>
        <time>2015-01-25T09:51:20.000Z</time>
      </trkpt>
      <trkpt lat="47.53104" lon="6.68966">
        <ele>363</ele>
        <time>2015-01-25T09:51:22.000Z</time>
      </trkpt>
      <trkpt lat="47.53104" lon="6.68964">
        <ele>363</ele>
        <time>2015-01-25T09:51:23.000Z</time>
      </trkpt>
      <trkpt lat="47.53103" lon="6.68958">
        <ele>363</ele>
        <time>2015-01-25T09:51:25.000Z</time>
      </trkpt>
      <trkpt lat="47.53103" lon="6.68955">
        <ele>363</ele>
        <time>2015-01-25T09:51:26.000Z</time>
      </trkpt>
      <trkpt lat="47.53102" lon="6.68948">
        <ele>363</ele>
        <time>2015-01-25T09:51:28.000Z</time>
      </trkpt>
      <trkpt lat="47.53102" lon="6.68945">
        <ele>363</ele>
        <time>2015-01-25T09:51:29.000Z</time>
      </trkpt>
      <trkpt lat="47.53102" lon="6.68939">
        <ele>363</ele>
        <time>2015-01-25T09:51:31.000Z</time>
      </trkpt>
      <trkpt lat="47.53102" lon="6.68936">
        <ele>363</ele>
        <time>2015-01-25T09:51:32.000Z</time>
      </trkpt>
      <trkpt lat="47.53101" lon="6.6893">
        <ele>363</ele>
        <time>2015-01-25T09:51:34.000Z</time>
      </trkpt>
      <trkpt lat="47.53101" lon="6.68927">
        <ele>363</ele>
        <time>2015-01-25T09:51:35.000Z</time>
      </trkpt>
      <trkpt lat="47.53101" lon="6.68921">
        <ele>363</ele>
        <time>2015-01-25T09:51:37.000Z</time>
      </trkpt>
      <trkpt lat="47.53101" lon="6.68918">
        <ele>363</ele>
        <time>2015-01-25T09:51:38.000Z</time>
      </trkpt>
      <trkpt lat="47.53101" lon="6.68912">
        <ele>364</ele>
        <time>2015-01-25T09:51:40.000Z</time>
      </trkpt>
      <trkpt lat="47.53101" lon="6.68909">
        <ele>364</ele>
        <time>2015-01-25T09:51:41.000Z</time>
      </trkpt>
      <trkpt lat="47.53101" lon="6.68903">
        <ele>364</ele>
        <time>2015-01-25T09:51:43.000Z</time>
      </trkpt>
      <trkpt lat="47.53101" lon="6.689">
        <ele>364</ele>
        <time>2015-01-25T09:51:44.000Z</time>
      </trkpt>
      <trkpt lat="47.531" lon="6.68878">
        <ele>365</ele>
        <time>2015-01-25T09:51:52.000Z</time>
      </trkpt>
      <trkpt lat="47.53099" lon="6.68872">
        <ele>365</ele>
        <time>2015-01-25T09:51:54.000Z</time>
      </trkpt>
      <trkpt lat="47.53099" lon="6.68868">
        <ele>365</ele>
        <time>2015-01-25T09:51:55.000Z</time>
      </trkpt>
      <trkpt lat="47.53098" lon="6.68862">
        <ele>365</ele>
        <time>2015-01-25T09:51:57.000Z</time>
      </trkpt>
      <trkpt lat="47.53098" lon="6.68859">
        <ele>365</ele>
        <time>2015-01-25T09:51:58.000Z</time>
      </trkpt>
      <trkpt lat="47.53098" lon="6.68852">
        <ele>365</ele>
        <time>2015-01-25T09:52:00.000Z</time>
      </trkpt>
      <trkpt lat="47.53098" lon="6.68849">
        <ele>365</ele>
        <time>2015-01-25T09:52:01.000Z</time>
      </trkpt>
      <trkpt lat="47.53099" lon="6.68846">
        <ele>365</ele>
        <time>2015-01-25T09:52:02.000Z</time>
      </trkpt>
      <trkpt lat="47.53099" lon="6.68842">
        <ele>365</ele>
        <time>2015-01-25T09:52:03.000Z</time>
      </trkpt>
      <trkpt lat="47.531" lon="6.68839">
        <ele>365</ele>
        <time>2015-01-25T09:52:04.000Z</time>
      </trkpt>
      <trkpt lat="47.531" lon="6.68835">
        <ele>365</ele>
        <time>2015-01-25T09:52:05.000Z</time>
      </trkpt>
      <trkpt lat="47.53099" lon="6.68832">
        <ele>366</ele>
        <time>2015-01-25T09:52:06.000Z</time>
      </trkpt>
      <trkpt lat="47.53099" lon="6.68828">
        <ele>366</ele>
        <time>2015-01-25T09:52:07.000Z</time>
      </trkpt>
      <trkpt lat="47.53099" lon="6.68825">
        <ele>366</ele>
        <time>2015-01-25T09:52:08.000Z</time>
      </trkpt>
      <trkpt lat="47.53098" lon="6.68821">
        <ele>366</ele>
        <time>2015-01-25T09:52:09.000Z</time>
      </trkpt>
      <trkpt lat="47.53098" lon="6.68818">
        <ele>366</ele>
        <time>2015-01-25T09:52:10.000Z</time>
      </trkpt>
      <trkpt lat="47.53098" lon="6.68815">
        <ele>366</ele>
        <time>2015-01-25T09:52:11.000Z</time>
      </trkpt>
      <trkpt lat="47.53097" lon="6.68808">
        <ele>366</ele>
        <time>2015-01-25T09:52:13.000Z</time>
      </trkpt>
      <trkpt lat="47.53097" lon="6.68805">
        <ele>366</ele>
        <time>2015-01-25T09:52:14.000Z</time>
      </trkpt>
      <trkpt lat="47.53096" lon="6.68798">
        <ele>366</ele>
        <time>2015-01-25T09:52:16.000Z</time>
      </trkpt>
      <trkpt lat="47.53096" lon="6.68795">
        <ele>366</ele>
        <time>2015-01-25T09:52:17.000Z</time>
      </trkpt>
      <trkpt lat="47.53096" lon="6.68789">
        <ele>366</ele>
        <time>2015-01-25T09:52:19.000Z</time>
      </trkpt>
      <trkpt lat="47.53096" lon="6.68786">
        <ele>366</ele>
        <time>2015-01-25T09:52:20.000Z</time>
      </trkpt>
      <trkpt lat="47.53096" lon="6.6878">
        <ele>366</ele>
        <time>2015-01-25T09:52:22.000Z</time>
      </trkpt>
      <trkpt lat="47.53096" lon="6.68777">
        <ele>366</ele>
        <time>2015-01-25T09:52:23.000Z</time>
      </trkpt>
      <trkpt lat="47.53095" lon="6.68771">
        <ele>367</ele>
        <time>2015-01-25T09:52:25.000Z</time>
      </trkpt>
      <trkpt lat="47.53095" lon="6.68769">
        <ele>367</ele>
        <time>2015-01-25T09:52:26.000Z</time>
      </trkpt>
      <trkpt lat="47.53095" lon="6.68763">
        <ele>367</ele>
        <time>2015-01-25T09:52:28.000Z</time>
      </trkpt>
      <trkpt lat="47.53095" lon="6.6876">
        <ele>367</ele>
        <time>2015-01-25T09:52:29.000Z</time>
      </trkpt>
      <trkpt lat="47.53094" lon="6.68754">
        <ele>367</ele>
        <time>2015-01-25T09:52:31.000Z</time>
      </trkpt>
      <trkpt lat="47.53094" lon="6.68751">
        <ele>367</ele>
        <time>2015-01-25T09:52:32.000Z</time>
      </trkpt>
      <trkpt lat="47.53094" lon="6.68744">
        <ele>368</ele>
        <time>2015-01-25T09:52:34.000Z</time>
      </trkpt>
      <trkpt lat="47.53094" lon="6.68741">
        <ele>368</ele>
        <time>2015-01-25T09:52:35.000Z</time>
      </trkpt>
      <trkpt lat="47.53093" lon="6.68734">
        <ele>368</ele>
        <time>2015-01-25T09:52:37.000Z</time>
      </trkpt>
      <trkpt lat="47.53093" lon="6.68731">
        <ele>368</ele>
        <time>2015-01-25T09:52:38.000Z</time>
      </trkpt>
      <trkpt lat="47.53093" lon="6.68726">
        <ele>368</ele>
        <time>2015-01-25T09:52:40.000Z</time>
      </trkpt>
      <trkpt lat="47.53093" lon="6.68723">
        <ele>368</ele>
        <time>2015-01-25T09:52:41.000Z</time>
      </trkpt>
      <trkpt lat="47.53092" lon="6.68717">
        <ele>368</ele>
        <time>2015-01-25T09:52:43.000Z</time>
      </trkpt>
      <trkpt lat="47.53092" lon="6.68715">
        <ele>368</ele>
        <time>2015-01-25T09:52:44.000Z</time>
      </trkpt>
      <trkpt lat="47.53092" lon="6.68712">
        <ele>368</ele>
        <time>2015-01-25T09:52:45.000Z</time>
      </trkpt>
      <trkpt lat="47.53092" lon="6.68704">
        <ele>369</ele>
        <time>2015-01-25T09:52:48.000Z</time>
      </trkpt>
      <trkpt lat="47.53092" lon="6.68698">
        <ele>369</ele>
        <time>2015-01-25T09:52:51.000Z</time>
      </trkpt>
      <trkpt lat="47.53091" lon="6.68696">
        <ele>369</ele>
        <time>2015-01-25T09:52:52.000Z</time>
      </trkpt>
      <trkpt lat="47.5309" lon="6.68691">
        <ele>369</ele>
        <time>2015-01-25T09:52:54.000Z</time>
      </trkpt>
      <trkpt lat="47.5309" lon="6.68688">
        <ele>369</ele>
        <time>2015-01-25T09:52:55.000Z</time>
      </trkpt>
      <trkpt lat="47.5309" lon="6.68682">
        <ele>369</ele>
        <time>2015-01-25T09:52:57.000Z</time>
      </trkpt>
      <trkpt lat="47.5309" lon="6.68679">
        <ele>369</ele>
        <time>2015-01-25T09:52:58.000Z</time>
      </trkpt>
      <trkpt lat="47.53089" lon="6.68674">
        <ele>370</ele>
        <time>2015-01-25T09:53:00.000Z</time>
      </trkpt>
      <trkpt lat="47.53089" lon="6.68672">
        <ele>370</ele>
        <time>2015-01-25T09:53:01.000Z</time>
      </trkpt>
      <trkpt lat="47.53088" lon="6.68666">
        <ele>370</ele>
        <time>2015-01-25T09:53:03.000Z</time>
      </trkpt>
      <trkpt lat="47.53088" lon="6.68663">
        <ele>371</ele>
        <time>2015-01-25T09:53:04.000Z</time>
      </trkpt>
      <trkpt lat="47.53088" lon="6.68658">
        <ele>371</ele>
        <time>2015-01-25T09:53:06.000Z</time>
      </trkpt>
      <trkpt lat="47.53088" lon="6.68656">
        <ele>371</ele>
        <time>2015-01-25T09:53:07.000Z</time>
      </trkpt>
      <trkpt lat="47.53088" lon="6.68651">
        <ele>371</ele>
        <time>2015-01-25T09:53:09.000Z</time>
      </trkpt>
      <trkpt lat="47.53088" lon="6.68648">
        <ele>371</ele>
        <time>2015-01-25T09:53:10.000Z</time>
      </trkpt>
      <trkpt lat="47.53087" lon="6.68643">
        <ele>372</ele>
        <time>2015-01-25T09:53:12.000Z</time>
      </trkpt>
      <trkpt lat="47.53087" lon="6.6864">
        <ele>372</ele>
        <time>2015-01-25T09:53:13.000Z</time>
      </trkpt>
      <trkpt lat="47.53086" lon="6.68635">
        <ele>372</ele>
        <time>2015-01-25T09:53:15.000Z</time>
      </trkpt>
      <trkpt lat="47.53086" lon="6.68632">
        <ele>372</ele>
        <time>2015-01-25T09:53:16.000Z</time>
      </trkpt>
      <trkpt lat="47.53086" lon="6.68626">
        <ele>372</ele>
        <time>2015-01-25T09:53:18.000Z</time>
      </trkpt>
      <trkpt lat="47.53086" lon="6.68623">
        <ele>372</ele>
        <time>2015-01-25T09:53:19.000Z</time>
      </trkpt>
      <trkpt lat="47.53085" lon="6.68617">
        <ele>373</ele>
        <time>2015-01-25T09:53:21.000Z</time>
      </trkpt>
      <trkpt lat="47.53085" lon="6.68614">
        <ele>373</ele>
        <time>2015-01-25T09:53:22.000Z</time>
      </trkpt>
      <trkpt lat="47.53085" lon="6.68608">
        <ele>373</ele>
        <time>2015-01-25T09:53:24.000Z</time>
      </trkpt>
      <trkpt lat="47.53085" lon="6.68605">
        <ele>373</ele>
        <time>2015-01-25T09:53:25.000Z</time>
      </trkpt>
      <trkpt lat="47.53085" lon="6.68599">
        <ele>373</ele>
        <time>2015-01-25T09:53:27.000Z</time>
      </trkpt>
      <trkpt lat="47.53084" lon="6.68596">
        <ele>373</ele>
        <time>2015-01-25T09:53:28.000Z</time>
      </trkpt>
      <trkpt lat="47.53083" lon="6.6859">
        <ele>374</ele>
        <time>2015-01-25T09:53:30.000Z</time>
      </trkpt>
      <trkpt lat="47.53083" lon="6.68587">
        <ele>374</ele>
        <time>2015-01-25T09:53:31.000Z</time>
      </trkpt>
      <trkpt lat="47.53082" lon="6.68581">
        <ele>374</ele>
        <time>2015-01-25T09:53:33.000Z</time>
      </trkpt>
      <trkpt lat="47.53082" lon="6.68578">
        <ele>374</ele>
        <time>2015-01-25T09:53:34.000Z</time>
      </trkpt>
      <trkpt lat="47.53081" lon="6.68572">
        <ele>375</ele>
        <time>2015-01-25T09:53:36.000Z</time>
      </trkpt>
      <trkpt lat="47.5308" lon="6.68569">
        <ele>375</ele>
        <time>2015-01-25T09:53:37.000Z</time>
      </trkpt>
      <trkpt lat="47.53079" lon="6.68564">
        <ele>375</ele>
        <time>2015-01-25T09:53:39.000Z</time>
      </trkpt>
      <trkpt lat="47.53078" lon="6.68561">
        <ele>375</ele>
        <time>2015-01-25T09:53:40.000Z</time>
      </trkpt>
      <trkpt lat="47.53077" lon="6.68556">
        <ele>375</ele>
        <time>2015-01-25T09:53:42.000Z</time>
      </trkpt>
      <trkpt lat="47.53076" lon="6.68554">
        <ele>375</ele>
        <time>2015-01-25T09:53:43.000Z</time>
      </trkpt>
      <trkpt lat="47.53076" lon="6.68549">
        <ele>375</ele>
        <time>2015-01-25T09:53:45.000Z</time>
      </trkpt>
      <trkpt lat="47.5307" lon="6.68532">
        <ele>375</ele>
        <time>2015-01-25T09:53:53.000Z</time>
      </trkpt>
      <trkpt lat="47.53069" lon="6.68527">
        <ele>376</ele>
        <time>2015-01-25T09:53:55.000Z</time>
      </trkpt>
      <trkpt lat="47.53068" lon="6.68525">
        <ele>376</ele>
        <time>2015-01-25T09:53:56.000Z</time>
      </trkpt>
      <trkpt lat="47.53067" lon="6.6852">
        <ele>376</ele>
        <time>2015-01-25T09:53:58.000Z</time>
      </trkpt>
      <trkpt lat="47.53067" lon="6.68517">
        <ele>376</ele>
        <time>2015-01-25T09:53:59.000Z</time>
      </trkpt>
      <trkpt lat="47.53066" lon="6.68512">
        <ele>376</ele>
        <time>2015-01-25T09:54:01.000Z</time>
      </trkpt>
      <trkpt lat="47.53066" lon="6.68509">
        <ele>376</ele>
        <time>2015-01-25T09:54:02.000Z</time>
      </trkpt>
      <trkpt lat="47.53066" lon="6.68504">
        <ele>376</ele>
        <time>2015-01-25T09:54:04.000Z</time>
      </trkpt>
      <trkpt lat="47.53065" lon="6.68502">
        <ele>376</ele>
        <time>2015-01-25T09:54:05.000Z</time>
      </trkpt>
      <trkpt lat="47.53065" lon="6.68496">
        <ele>377</ele>
        <time>2015-01-25T09:54:07.000Z</time>
      </trkpt>
      <trkpt lat="47.53065" lon="6.68494">
        <ele>377</ele>
        <time>2015-01-25T09:54:08.000Z</time>
      </trkpt>
      <trkpt lat="47.53064" lon="6.68489">
        <ele>377</ele>
        <time>2015-01-25T09:54:10.000Z</time>
      </trkpt>
      <trkpt lat="47.53063" lon="6.68486">
        <ele>377</ele>
        <time>2015-01-25T09:54:11.000Z</time>
      </trkpt>
      <trkpt lat="47.53062" lon="6.68482">
        <ele>377</ele>
        <time>2015-01-25T09:54:13.000Z</time>
      </trkpt>
      <trkpt lat="47.53061" lon="6.68479">
        <ele>377</ele>
        <time>2015-01-25T09:54:14.000Z</time>
      </trkpt>
      <trkpt lat="47.53061" lon="6.68474">
        <ele>377</ele>
        <time>2015-01-25T09:54:16.000Z</time>
      </trkpt>
      <trkpt lat="47.5306" lon="6.68472">
        <ele>377</ele>
        <time>2015-01-25T09:54:17.000Z</time>
      </trkpt>
      <trkpt lat="47.5306" lon="6.68467">
        <ele>377</ele>
        <time>2015-01-25T09:54:19.000Z</time>
      </trkpt>
      <trkpt lat="47.53059" lon="6.68464">
        <ele>377</ele>
        <time>2015-01-25T09:54:20.000Z</time>
      </trkpt>
      <trkpt lat="47.53058" lon="6.6846">
        <ele>377</ele>
        <time>2015-01-25T09:54:22.000Z</time>
      </trkpt>
      <trkpt lat="47.53058" lon="6.68457">
        <ele>378</ele>
        <time>2015-01-25T09:54:23.000Z</time>
      </trkpt>
      <trkpt lat="47.53057" lon="6.68452">
        <ele>378</ele>
        <time>2015-01-25T09:54:25.000Z</time>
      </trkpt>
      <trkpt lat="47.53057" lon="6.6845">
        <ele>378</ele>
        <time>2015-01-25T09:54:26.000Z</time>
      </trkpt>
      <trkpt lat="47.53056" lon="6.68445">
        <ele>378</ele>
        <time>2015-01-25T09:54:28.000Z</time>
      </trkpt>
      <trkpt lat="47.53055" lon="6.68442">
        <ele>378</ele>
        <time>2015-01-25T09:54:29.000Z</time>
      </trkpt>
      <trkpt lat="47.53055" lon="6.68437">
        <ele>378</ele>
        <time>2015-01-25T09:54:31.000Z</time>
      </trkpt>
      <trkpt lat="47.53054" lon="6.68435">
        <ele>378</ele>
        <time>2015-01-25T09:54:32.000Z</time>
      </trkpt>
      <trkpt lat="47.53053" lon="6.6843">
        <ele>378</ele>
        <time>2015-01-25T09:54:34.000Z</time>
      </trkpt>
      <trkpt lat="47.53052" lon="6.68427">
        <ele>378</ele>
        <time>2015-01-25T09:54:35.000Z</time>
      </trkpt>
      <trkpt lat="47.53051" lon="6.68421">
        <ele>378</ele>
        <time>2015-01-25T09:54:37.000Z</time>
      </trkpt>
      <trkpt lat="47.53051" lon="6.68419">
        <ele>378</ele>
        <time>2015-01-25T09:54:38.000Z</time>
      </trkpt>
      <trkpt lat="47.53049" lon="6.68414">
        <ele>379</ele>
        <time>2015-01-25T09:54:40.000Z</time>
      </trkpt>
      <trkpt lat="47.53048" lon="6.68411">
        <ele>379</ele>
        <time>2015-01-25T09:54:41.000Z</time>
      </trkpt>
      <trkpt lat="47.53047" lon="6.68406">
        <ele>379</ele>
        <time>2015-01-25T09:54:43.000Z</time>
      </trkpt>
      <trkpt lat="47.53046" lon="6.68403">
        <ele>379</ele>
        <time>2015-01-25T09:54:44.000Z</time>
      </trkpt>
      <trkpt lat="47.53044" lon="6.68396">
        <ele>379</ele>
        <time>2015-01-25T09:54:47.000Z</time>
      </trkpt>
      <trkpt lat="47.53043" lon="6.68392">
        <ele>380</ele>
        <time>2015-01-25T09:54:49.000Z</time>
      </trkpt>
      <trkpt lat="47.53042" lon="6.68389">
        <ele>380</ele>
        <time>2015-01-25T09:54:50.000Z</time>
      </trkpt>
      <trkpt lat="47.5304" lon="6.68384">
        <ele>380</ele>
        <time>2015-01-25T09:54:53.000Z</time>
      </trkpt>
      <trkpt lat="47.53039" lon="6.68383">
        <ele>380</ele>
        <time>2015-01-25T09:54:54.000Z</time>
      </trkpt>
      <trkpt lat="47.53042" lon="6.68378">
        <ele>380</ele>
        <time>2015-01-25T09:55:00.999Z</time>
      </trkpt>
      <trkpt lat="47.53043" lon="6.68379">
        <ele>380</ele>
        <time>2015-01-25T09:55:02.000Z</time>
      </trkpt>
      <trkpt lat="47.53047" lon="6.68379">
        <ele>380</ele>
        <time>2015-01-25T09:55:05.000Z</time>
      </trkpt>
      <trkpt lat="47.53048" lon="6.68379">
        <ele>380</ele>
        <time>2015-01-25T09:55:06.000Z</time>
      </trkpt>
      <trkpt lat="47.53043" lon="6.68378">
        <ele>380</ele>
        <time>2015-01-25T09:56:13.000Z</time>
      </trkpt>
      <trkpt lat="47.53043" lon="6.68378">
        <ele>380</ele>
        <time>2015-01-25T09:56:14.000Z</time>
      </trkpt>
      <trkpt lat="47.53047" lon="6.68379">
        <ele>380</ele>
        <time>2015-01-25T09:56:54.000Z</time>
      </trkpt>
      <trkpt lat="47.5305" lon="6.68378">
        <ele>380</ele>
        <time>2015-01-25T09:56:55.000Z</time>
      </trkpt>
      <trkpt lat="47.53054" lon="6.68377">
        <ele>380</ele>
        <time>2015-01-25T09:56:57.000Z</time>
      </trkpt>
      <trkpt lat="47.53056" lon="6.68377">
        <ele>380</ele>
        <time>2015-01-25T09:56:58.000Z</time>
      </trkpt>
      <trkpt lat="47.53061" lon="6.68376">
        <ele>380</ele>
        <time>2015-01-25T09:57:00.000Z</time>
      </trkpt>
      <trkpt lat="47.53063" lon="6.68375">
        <ele>380</ele>
        <time>2015-01-25T09:57:01.000Z</time>
      </trkpt>
      <trkpt lat="47.53066" lon="6.68376">
        <ele>380</ele>
        <time>2015-01-25T09:57:03.000Z</time>
      </trkpt>
      <trkpt lat="47.53068" lon="6.68376">
        <ele>380</ele>
        <time>2015-01-25T09:57:03.999Z</time>
      </trkpt>
      <trkpt lat="47.53071" lon="6.68378">
        <ele>380</ele>
        <time>2015-01-25T09:57:06.000Z</time>
      </trkpt>
      <trkpt lat="47.53073" lon="6.68378">
        <ele>380</ele>
        <time>2015-01-25T09:57:07.000Z</time>
      </trkpt>
      <trkpt lat="47.53076" lon="6.68378">
        <ele>380</ele>
        <time>2015-01-25T09:57:09.000Z</time>
      </trkpt>
      <trkpt lat="47.53078" lon="6.68378">
        <ele>380</ele>
        <time>2015-01-25T09:57:10.000Z</time>
      </trkpt>
      <trkpt lat="47.53082" lon="6.68377">
        <ele>380</ele>
        <time>2015-01-25T09:57:12.000Z</time>
      </trkpt>
      <trkpt lat="47.53083" lon="6.68377">
        <ele>380</ele>
        <time>2015-01-25T09:57:13.000Z</time>
      </trkpt>
      <trkpt lat="47.53087" lon="6.68376">
        <ele>381</ele>
        <time>2015-01-25T09:57:16.000Z</time>
      </trkpt>
      <trkpt lat="47.53088" lon="6.68376">
        <ele>381</ele>
        <time>2015-01-25T09:57:17.000Z</time>
      </trkpt>
      <trkpt lat="47.53091" lon="6.68376">
        <ele>381</ele>
        <time>2015-01-25T09:57:18.999Z</time>
      </trkpt>
      <trkpt lat="47.53093" lon="6.68376">
        <ele>381</ele>
        <time>2015-01-25T09:57:20.000Z</time>
      </trkpt>
      <trkpt lat="47.53097" lon="6.68375">
        <ele>381</ele>
        <time>2015-01-25T09:57:22.000Z</time>
      </trkpt>
      <trkpt lat="47.53098" lon="6.68374">
        <ele>381</ele>
        <time>2015-01-25T09:57:23.000Z</time>
      </trkpt>
      <trkpt lat="47.53102" lon="6.68374">
        <ele>381</ele>
        <time>2015-01-25T09:57:25.000Z</time>
      </trkpt>
      <trkpt lat="47.53104" lon="6.68373">
        <ele>381</ele>
        <time>2015-01-25T09:57:26.000Z</time>
      </trkpt>
      <trkpt lat="47.53108" lon="6.68373">
        <ele>381</ele>
        <time>2015-01-25T09:57:28.000Z</time>
      </trkpt>
      <trkpt lat="47.5311" lon="6.68373">
        <ele>381</ele>
        <time>2015-01-25T09:57:29.000Z</time>
      </trkpt>
      <trkpt lat="47.53113" lon="6.68374">
        <ele>381</ele>
        <time>2015-01-25T09:57:31.000Z</time>
      </trkpt>
      <trkpt lat="47.53115" lon="6.68374">
        <ele>381</ele>
        <time>2015-01-25T09:57:32.000Z</time>
      </trkpt>
      <trkpt lat="47.53119" lon="6.68374">
        <ele>381</ele>
        <time>2015-01-25T09:57:34.000Z</time>
      </trkpt>
      <trkpt lat="47.5312" lon="6.68373">
        <ele>381</ele>
        <time>2015-01-25T09:57:35.000Z</time>
      </trkpt>
      <trkpt lat="47.53124" lon="6.68373">
        <ele>382</ele>
        <time>2015-01-25T09:57:37.000Z</time>
      </trkpt>
      <trkpt lat="47.53126" lon="6.68373">
        <ele>382</ele>
        <time>2015-01-25T09:57:38.000Z</time>
      </trkpt>
      <trkpt lat="47.53129" lon="6.68374">
        <ele>382</ele>
        <time>2015-01-25T09:57:40.000Z</time>
      </trkpt>
      <trkpt lat="47.53131" lon="6.68375">
        <ele>382</ele>
        <time>2015-01-25T09:57:41.000Z</time>
      </trkpt>
      <trkpt lat="47.53134" lon="6.68375">
        <ele>382</ele>
        <time>2015-01-25T09:57:42.000Z</time>
      </trkpt>
      <trkpt lat="47.53136" lon="6.68375">
        <ele>382</ele>
        <time>2015-01-25T09:57:43.000Z</time>
      </trkpt>
      <trkpt lat="47.53138" lon="6.68375">
        <ele>382</ele>
        <time>2015-01-25T09:57:44.000Z</time>
      </trkpt>
      <trkpt lat="47.53159" lon="6.68372">
        <ele>382</ele>
        <time>2015-01-25T09:57:52.000Z</time>
      </trkpt>
      <trkpt lat="47.53162" lon="6.68372">
        <ele>382</ele>
        <time>2015-01-25T09:57:53.000Z</time>
      </trkpt>
      <trkpt lat="47.53166" lon="6.68374">
        <ele>382</ele>
        <time>2015-01-25T09:57:54.000Z</time>
      </trkpt>
      <trkpt lat="47.53169" lon="6.68374">
        <ele>378</ele>
        <time>2015-01-25T09:57:54.999Z</time>
      </trkpt>
      <trkpt lat="47.53174" lon="6.68375">
        <ele>378</ele>
        <time>2015-01-25T09:57:56.000Z</time>
      </trkpt>
      <trkpt lat="47.53178" lon="6.68376">
        <ele>378</ele>
        <time>2015-01-25T09:57:57.000Z</time>
      </trkpt>
      <trkpt lat="47.53185" lon="6.68375">
        <ele>377</ele>
        <time>2015-01-25T09:57:58.000Z</time>
      </trkpt>
      <trkpt lat="47.5319" lon="6.68374">
        <ele>377</ele>
        <time>2015-01-25T09:57:59.000Z</time>
      </trkpt>
      <trkpt lat="47.53195" lon="6.68373">
        <ele>377</ele>
        <time>2015-01-25T09:58:00.000Z</time>
      </trkpt>
      <trkpt lat="47.53199" lon="6.68373">
        <ele>376</ele>
        <time>2015-01-25T09:58:01.000Z</time>
      </trkpt>
      <trkpt lat="47.53204" lon="6.68374">
        <ele>376</ele>
        <time>2015-01-25T09:58:02.000Z</time>
      </trkpt>
      <trkpt lat="47.53209" lon="6.68374">
        <ele>375</ele>
        <time>2015-01-25T09:58:03.000Z</time>
      </trkpt>
      <trkpt lat="47.53215" lon="6.68374">
        <ele>375</ele>
        <time>2015-01-25T09:58:04.000Z</time>
      </trkpt>
      <trkpt lat="47.53219" lon="6.68374">
        <ele>375</ele>
        <time>2015-01-25T09:58:05.000Z</time>
      </trkpt>
      <trkpt lat="47.53225" lon="6.68374">
        <ele>374</ele>
        <time>2015-01-25T09:58:06.000Z</time>
      </trkpt>
      <trkpt lat="47.53229" lon="6.68375">
        <ele>374</ele>
        <time>2015-01-25T09:58:07.000Z</time>
      </trkpt>
      <trkpt lat="47.53232" lon="6.68375">
        <ele>374</ele>
        <time>2015-01-25T09:58:08.000Z</time>
      </trkpt>
      <trkpt lat="47.53237" lon="6.68378">
        <ele>373</ele>
        <time>2015-01-25T09:58:09.000Z</time>
      </trkpt>
      <trkpt lat="47.53242" lon="6.68378">
        <ele>373</ele>
        <time>2015-01-25T09:58:10.000Z</time>
      </trkpt>
      <trkpt lat="47.53249" lon="6.68378">
        <ele>373</ele>
        <time>2015-01-25T09:58:11.000Z</time>
      </trkpt>
      <trkpt lat="47.53254" lon="6.68378">
        <ele>366</ele>
        <time>2015-01-25T09:58:12.000Z</time>
      </trkpt>
      <trkpt lat="47.53259" lon="6.68378">
        <ele>366</ele>
        <time>2015-01-25T09:58:13.000Z</time>
      </trkpt>
      <trkpt lat="47.53265" lon="6.68379">
        <ele>366</ele>
        <time>2015-01-25T09:58:14.000Z</time>
      </trkpt>
      <trkpt lat="47.53271" lon="6.68379">
        <ele>366</ele>
        <time>2015-01-25T09:58:15.000Z</time>
      </trkpt>
      <trkpt lat="47.53277" lon="6.68378">
        <ele>366</ele>
        <time>2015-01-25T09:58:16.000Z</time>
      </trkpt>
      <trkpt lat="47.53284" lon="6.68379">
        <ele>366</ele>
        <time>2015-01-25T09:58:17.000Z</time>
      </trkpt>
      <trkpt lat="47.5329" lon="6.68379">
        <ele>365</ele>
        <time>2015-01-25T09:58:18.000Z</time>
      </trkpt>
      <trkpt lat="47.53295" lon="6.6838">
        <ele>365</ele>
        <time>2015-01-25T09:58:19.000Z</time>
      </trkpt>
      <trkpt lat="47.53301" lon="6.68381">
        <ele>365</ele>
        <time>2015-01-25T09:58:20.000Z</time>
      </trkpt>
      <trkpt lat="47.53306" lon="6.68383">
        <ele>365</ele>
        <time>2015-01-25T09:58:21.000Z</time>
      </trkpt>
      <trkpt lat="47.53312" lon="6.68385">
        <ele>364</ele>
        <time>2015-01-25T09:58:22.000Z</time>
      </trkpt>
      <trkpt lat="47.53318" lon="6.68387">
        <ele>364</ele>
        <time>2015-01-25T09:58:23.000Z</time>
      </trkpt>
      <trkpt lat="47.53324" lon="6.68388">
        <ele>364</ele>
        <time>2015-01-25T09:58:24.000Z</time>
      </trkpt>
      <trkpt lat="47.5333" lon="6.68389">
        <ele>364</ele>
        <time>2015-01-25T09:58:25.000Z</time>
      </trkpt>
      <trkpt lat="47.53335" lon="6.6839">
        <ele>366</ele>
        <time>2015-01-25T09:58:26.000Z</time>
      </trkpt>
      <trkpt lat="47.5334" lon="6.68391">
        <ele>366</ele>
        <time>2015-01-25T09:58:27.000Z</time>
      </trkpt>
      <trkpt lat="47.53344" lon="6.68391">
        <ele>366</ele>
        <time>2015-01-25T09:58:28.000Z</time>
      </trkpt>
      <trkpt lat="47.53348" lon="6.68392">
        <ele>366</ele>
        <time>2015-01-25T09:58:29.000Z</time>
      </trkpt>
      <trkpt lat="47.53351" lon="6.68392">
        <ele>367</ele>
        <time>2015-01-25T09:58:30.000Z</time>
      </trkpt>
      <trkpt lat="47.53354" lon="6.68393">
        <ele>367</ele>
        <time>2015-01-25T09:58:31.000Z</time>
      </trkpt>
      <trkpt lat="47.53358" lon="6.68393">
        <ele>367</ele>
        <time>2015-01-25T09:58:33.000Z</time>
      </trkpt>
      <trkpt lat="47.5336" lon="6.68394">
        <ele>367</ele>
        <time>2015-01-25T09:58:34.000Z</time>
      </trkpt>
      <trkpt lat="47.53363" lon="6.68394">
        <ele>368</ele>
        <time>2015-01-25T09:58:36.000Z</time>
      </trkpt>
      <trkpt lat="47.53365" lon="6.68394">
        <ele>368</ele>
        <time>2015-01-25T09:58:37.000Z</time>
      </trkpt>
      <trkpt lat="47.53369" lon="6.68393">
        <ele>368</ele>
        <time>2015-01-25T09:58:42.000Z</time>
      </trkpt>
      <trkpt lat="47.53369" lon="6.68393">
        <ele>368</ele>
        <time>2015-01-25T09:58:43.000Z</time>
      </trkpt>
      <trkpt lat="47.5337" lon="6.68392">
        <ele>368</ele>
        <time>2015-01-25T09:58:44.000Z</time>
      </trkpt>
      <trkpt lat="47.5337" lon="6.68378">
        <ele>368</ele>
        <time>2015-01-25T09:58:51.759Z</time>
      </trkpt>
      <trkpt lat="47.53372" lon="6.68373">
        <ele>368</ele>
        <time>2015-01-25T09:58:55.000Z</time>
      </trkpt>
      <trkpt lat="47.53373" lon="6.68373">
        <ele>368</ele>
        <time>2015-01-25T09:58:56.000Z</time>
      </trkpt>
      <trkpt lat="47.53377" lon="6.68373">
        <ele>369</ele>
        <time>2015-01-25T09:58:59.000Z</time>
      </trkpt>
      <trkpt lat="47.53378" lon="6.68372">
        <ele>369</ele>
        <time>2015-01-25T09:59:00.000Z</time>
      </trkpt>
      <trkpt lat="47.53382" lon="6.68369">
        <ele>369</ele>
        <time>2015-01-25T09:59:04.000Z</time>
      </trkpt>
      <trkpt lat="47.53383" lon="6.68369">
        <ele>369</ele>
        <time>2015-01-25T09:59:05.000Z</time>
      </trkpt>
      <trkpt lat="47.53387" lon="6.68372">
        <ele>369</ele>
        <time>2015-01-25T09:59:08.000Z</time>
      </trkpt>
      <trkpt lat="47.53388" lon="6.68373">
        <ele>369</ele>
        <time>2015-01-25T09:59:09.000Z</time>
      </trkpt>
      <trkpt lat="47.53392" lon="6.68374">
        <ele>370</ele>
        <time>2015-01-25T09:59:13.000Z</time>
      </trkpt>
      <trkpt lat="47.53393" lon="6.68374">
        <ele>370</ele>
        <time>2015-01-25T09:59:14.000Z</time>
      </trkpt>
      <trkpt lat="47.53397" lon="6.68377">
        <ele>370</ele>
        <time>2015-01-25T09:59:18.000Z</time>
      </trkpt>
      <trkpt lat="47.53397" lon="6.68378">
        <ele>370</ele>
        <time>2015-01-25T09:59:19.000Z</time>
      </trkpt>
      <trkpt lat="47.53401" lon="6.68379">
        <ele>370</ele>
        <time>2015-01-25T09:59:23.000Z</time>
      </trkpt>
      <trkpt lat="47.53402" lon="6.68379">
        <ele>371</ele>
        <time>2015-01-25T09:59:24.000Z</time>
      </trkpt>
      <trkpt lat="47.53406" lon="6.68381">
        <ele>371</ele>
        <time>2015-01-25T09:59:28.000Z</time>
      </trkpt>
      <trkpt lat="47.53408" lon="6.68381">
        <ele>371</ele>
        <time>2015-01-25T09:59:29.000Z</time>
      </trkpt>
      <trkpt lat="47.53411" lon="6.68381">
        <ele>371</ele>
        <time>2015-01-25T09:59:32.000Z</time>
      </trkpt>
      <trkpt lat="47.53412" lon="6.68381">
        <ele>371</ele>
        <time>2015-01-25T09:59:33.000Z</time>
      </trkpt>
      <trkpt lat="47.53415" lon="6.68382">
        <ele>371</ele>
        <time>2015-01-25T09:59:36.000Z</time>
      </trkpt>
      <trkpt lat="47.53417" lon="6.68383">
        <ele>371</ele>
        <time>2015-01-25T09:59:37.000Z</time>
      </trkpt>
      <trkpt lat="47.5342" lon="6.68383">
        <ele>377</ele>
        <time>2015-01-25T09:59:39.000Z</time>
      </trkpt>
      <trkpt lat="47.53422" lon="6.68384">
        <ele>377</ele>
        <time>2015-01-25T09:59:40.000Z</time>
      </trkpt>
      <trkpt lat="47.53426" lon="6.68385">
        <ele>377</ele>
        <time>2015-01-25T09:59:42.000Z</time>
      </trkpt>
      <trkpt lat="47.53428" lon="6.68386">
        <ele>377</ele>
        <time>2015-01-25T09:59:43.000Z</time>
      </trkpt>
      <trkpt lat="47.5343" lon="6.68387">
        <ele>377</ele>
        <time>2015-01-25T09:59:44.000Z</time>
      </trkpt>
      <trkpt lat="47.53435" lon="6.68388">
        <ele>377</ele>
        <time>2015-01-25T09:59:47.000Z</time>
      </trkpt>
      <trkpt lat="47.53439" lon="6.68389">
        <ele>377</ele>
        <time>2015-01-25T09:59:49.000Z</time>
      </trkpt>
      <trkpt lat="47.53441" lon="6.68389">
        <ele>377</ele>
        <time>2015-01-25T09:59:50.000Z</time>
      </trkpt>
      <trkpt lat="47.53445" lon="6.68387">
        <ele>377</ele>
        <time>2015-01-25T09:59:52.000Z</time>
      </trkpt>
      <trkpt lat="47.53447" lon="6.68385">
        <ele>377</ele>
        <time>2015-01-25T09:59:53.000Z</time>
      </trkpt>
      <trkpt lat="47.53448" lon="6.68382">
        <ele>377</ele>
        <time>2015-01-25T09:59:54.000Z</time>
      </trkpt>
      <trkpt lat="47.53449" lon="6.68379">
        <ele>377</ele>
        <time>2015-01-25T09:59:55.000Z</time>
      </trkpt>
      <trkpt lat="47.53451" lon="6.68373">
        <ele>377</ele>
        <time>2015-01-25T09:59:57.000Z</time>
      </trkpt>
      <trkpt lat="47.53452" lon="6.68371">
        <ele>377</ele>
        <time>2015-01-25T09:59:58.000Z</time>
      </trkpt>
      <trkpt lat="47.53456" lon="6.68368">
        <ele>377</ele>
        <time>2015-01-25T10:00:00.000Z</time>
      </trkpt>
      <trkpt lat="47.53457" lon="6.68367">
        <ele>377</ele>
        <time>2015-01-25T10:00:01.000Z</time>
      </trkpt>
      <trkpt lat="47.53461" lon="6.68365">
        <ele>377</ele>
        <time>2015-01-25T10:00:03.000Z</time>
      </trkpt>
      <trkpt lat="47.53464" lon="6.68365">
        <ele>377</ele>
        <time>2015-01-25T10:00:04.000Z</time>
      </trkpt>
      <trkpt lat="47.53466" lon="6.68365">
        <ele>377</ele>
        <time>2015-01-25T10:00:05.000Z</time>
      </trkpt>
      <trkpt lat="47.53469" lon="6.68366">
        <ele>377</ele>
        <time>2015-01-25T10:00:06.000Z</time>
      </trkpt>
      <trkpt lat="47.53471" lon="6.68367">
        <ele>378</ele>
        <time>2015-01-25T10:00:07.000Z</time>
      </trkpt>
      <trkpt lat="47.53474" lon="6.68367">
        <ele>378</ele>
        <time>2015-01-25T10:00:08.000Z</time>
      </trkpt>
      <trkpt lat="47.53477" lon="6.68368">
        <ele>378</ele>
        <time>2015-01-25T10:00:09.000Z</time>
      </trkpt>
      <trkpt lat="47.53481" lon="6.68368">
        <ele>378</ele>
        <time>2015-01-25T10:00:10.000Z</time>
      </trkpt>
      <trkpt lat="47.53484" lon="6.68368">
        <ele>378</ele>
        <time>2015-01-25T10:00:11.000Z</time>
      </trkpt>
      <trkpt lat="47.53487" lon="6.68368">
        <ele>378</ele>
        <time>2015-01-25T10:00:12.000Z</time>
      </trkpt>
      <trkpt lat="47.53489" lon="6.68369">
        <ele>378</ele>
        <time>2015-01-25T10:00:13.000Z</time>
      </trkpt>
      <trkpt lat="47.53491" lon="6.68369">
        <ele>378</ele>
        <time>2015-01-25T10:00:14.000Z</time>
      </trkpt>
      <trkpt lat="47.53493" lon="6.68369">
        <ele>378</ele>
        <time>2015-01-25T10:00:15.000Z</time>
      </trkpt>
      <trkpt lat="47.53496" lon="6.6837">
        <ele>378</ele>
        <time>2015-01-25T10:00:16.000Z</time>
      </trkpt>
      <trkpt lat="47.53499" lon="6.6837">
        <ele>378</ele>
        <time>2015-01-25T10:00:17.000Z</time>
      </trkpt>
      <trkpt lat="47.53501" lon="6.6837">
        <ele>380</ele>
        <time>2015-01-25T10:00:18.000Z</time>
      </trkpt>
      <trkpt lat="47.53504" lon="6.6837">
        <ele>380</ele>
        <time>2015-01-25T10:00:19.000Z</time>
      </trkpt>
      <trkpt lat="47.53507" lon="6.6837">
        <ele>380</ele>
        <time>2015-01-25T10:00:20.000Z</time>
      </trkpt>
      <trkpt lat="47.53509" lon="6.68371">
        <ele>380</ele>
        <time>2015-01-25T10:00:21.000Z</time>
      </trkpt>
      <trkpt lat="47.53512" lon="6.68371">
        <ele>380</ele>
        <time>2015-01-25T10:00:22.000Z</time>
      </trkpt>
      <trkpt lat="47.53515" lon="6.68371">
        <ele>380</ele>
        <time>2015-01-25T10:00:23.000Z</time>
      </trkpt>
      <trkpt lat="47.53518" lon="6.68371">
        <ele>380</ele>
        <time>2015-01-25T10:00:24.000Z</time>
      </trkpt>
      <trkpt lat="47.53521" lon="6.68372">
        <ele>380</ele>
        <time>2015-01-25T10:00:25.000Z</time>
      </trkpt>
      <trkpt lat="47.53524" lon="6.68372">
        <ele>380</ele>
        <time>2015-01-25T10:00:26.000Z</time>
      </trkpt>
      <trkpt lat="47.53527" lon="6.68372">
        <ele>380</ele>
        <time>2015-01-25T10:00:27.000Z</time>
      </trkpt>
      <trkpt lat="47.5353" lon="6.68372">
        <ele>381</ele>
        <time>2015-01-25T10:00:28.000Z</time>
      </trkpt>
      <trkpt lat="47.53533" lon="6.68372">
        <ele>381</ele>
        <time>2015-01-25T10:00:29.000Z</time>
      </trkpt>
      <trkpt lat="47.53535" lon="6.68371">
        <ele>381</ele>
        <time>2015-01-25T10:00:30.000Z</time>
      </trkpt>
      <trkpt lat="47.53537" lon="6.68369">
        <ele>381</ele>
        <time>2015-01-25T10:00:31.000Z</time>
      </trkpt>
      <trkpt lat="47.53539" lon="6.68367">
        <ele>381</ele>
        <time>2015-01-25T10:00:32.000Z</time>
      </trkpt>
      <trkpt lat="47.53541" lon="6.68365">
        <ele>380</ele>
        <time>2015-01-25T10:00:33.000Z</time>
      </trkpt>
      <trkpt lat="47.53544" lon="6.68362">
        <ele>380</ele>
        <time>2015-01-25T10:00:34.000Z</time>
      </trkpt>
      <trkpt lat="47.53546" lon="6.68359">
        <ele>380</ele>
        <time>2015-01-25T10:00:35.000Z</time>
      </trkpt>
      <trkpt lat="47.53549" lon="6.68356">
        <ele>380</ele>
        <time>2015-01-25T10:00:36.000Z</time>
      </trkpt>
      <trkpt lat="47.53552" lon="6.68353">
        <ele>380</ele>
        <time>2015-01-25T10:00:37.000Z</time>
      </trkpt>
      <trkpt lat="47.53554" lon="6.6835">
        <ele>380</ele>
        <time>2015-01-25T10:00:38.000Z</time>
      </trkpt>
      <trkpt lat="47.53557" lon="6.68348">
        <ele>381</ele>
        <time>2015-01-25T10:00:39.000Z</time>
      </trkpt>
      <trkpt lat="47.5356" lon="6.68347">
        <ele>381</ele>
        <time>2015-01-25T10:00:40.000Z</time>
      </trkpt>
      <trkpt lat="47.53563" lon="6.68346">
        <ele>381</ele>
        <time>2015-01-25T10:00:41.000Z</time>
      </trkpt>
      <trkpt lat="47.53566" lon="6.68345">
        <ele>381</ele>
        <time>2015-01-25T10:00:42.000Z</time>
      </trkpt>
      <trkpt lat="47.53569" lon="6.68345">
        <ele>381</ele>
        <time>2015-01-25T10:00:43.000Z</time>
      </trkpt>
      <trkpt lat="47.53572" lon="6.68346">
        <ele>381</ele>
        <time>2015-01-25T10:00:44.000Z</time>
      </trkpt>
      <trkpt lat="47.53578" lon="6.68347">
        <ele>381</ele>
        <time>2015-01-25T10:00:47.000Z</time>
      </trkpt>
      <trkpt lat="47.53582" lon="6.68348">
        <ele>381</ele>
        <time>2015-01-25T10:00:49.000Z</time>
      </trkpt>
      <trkpt lat="47.53584" lon="6.68349">
        <ele>381</ele>
        <time>2015-01-25T10:00:50.000Z</time>
      </trkpt>
      <trkpt lat="47.53588" lon="6.68349">
        <ele>381</ele>
        <time>2015-01-25T10:00:52.000Z</time>
      </trkpt>
      <trkpt lat="47.5359" lon="6.68349">
        <ele>381</ele>
        <time>2015-01-25T10:00:53.000Z</time>
      </trkpt>
      <trkpt lat="47.53593" lon="6.68348">
        <ele>381</ele>
        <time>2015-01-25T10:00:54.000Z</time>
      </trkpt>
      <trkpt lat="47.53595" lon="6.68348">
        <ele>381</ele>
        <time>2015-01-25T10:00:55.000Z</time>
      </trkpt>
      <trkpt lat="47.53598" lon="6.68348">
        <ele>381</ele>
        <time>2015-01-25T10:00:56.000Z</time>
      </trkpt>
      <trkpt lat="47.53602" lon="6.68348">
        <ele>381</ele>
        <time>2015-01-25T10:00:57.000Z</time>
      </trkpt>
      <trkpt lat="47.53605" lon="6.68347">
        <ele>381</ele>
        <time>2015-01-25T10:00:58.000Z</time>
      </trkpt>
      <trkpt lat="47.53608" lon="6.68347">
        <ele>381</ele>
        <time>2015-01-25T10:00:59.000Z</time>
      </trkpt>
      <trkpt lat="47.53611" lon="6.68346">
        <ele>381</ele>
        <time>2015-01-25T10:01:00.000Z</time>
      </trkpt>
      <trkpt lat="47.53614" lon="6.68345">
        <ele>381</ele>
        <time>2015-01-25T10:01:01.000Z</time>
      </trkpt>
      <trkpt lat="47.53617" lon="6.68345">
        <ele>381</ele>
        <time>2015-01-25T10:01:02.000Z</time>
      </trkpt>
      <trkpt lat="47.5362" lon="6.68344">
        <ele>381</ele>
        <time>2015-01-25T10:01:03.000Z</time>
      </trkpt>
      <trkpt lat="47.53623" lon="6.68344">
        <ele>381</ele>
        <time>2015-01-25T10:01:04.000Z</time>
      </trkpt>
      <trkpt lat="47.53626" lon="6.68343">
        <ele>381</ele>
        <time>2015-01-25T10:01:05.000Z</time>
      </trkpt>
      <trkpt lat="47.53629" lon="6.68343">
        <ele>381</ele>
        <time>2015-01-25T10:01:06.000Z</time>
      </trkpt>
      <trkpt lat="47.53632" lon="6.68343">
        <ele>381</ele>
        <time>2015-01-25T10:01:07.000Z</time>
      </trkpt>
      <trkpt lat="47.53635" lon="6.68343">
        <ele>381</ele>
        <time>2015-01-25T10:01:08.000Z</time>
      </trkpt>
      <trkpt lat="47.53639" lon="6.68342">
        <ele>381</ele>
        <time>2015-01-25T10:01:09.000Z</time>
      </trkpt>
      <trkpt lat="47.53642" lon="6.68341">
        <ele>381</ele>
        <time>2015-01-25T10:01:10.000Z</time>
      </trkpt>
      <trkpt lat="47.53645" lon="6.68339">
        <ele>382</ele>
        <time>2015-01-25T10:01:11.000Z</time>
      </trkpt>
      <trkpt lat="47.53649" lon="6.68337">
        <ele>382</ele>
        <time>2015-01-25T10:01:12.000Z</time>
      </trkpt>
      <trkpt lat="47.53652" lon="6.68336">
        <ele>382</ele>
        <time>2015-01-25T10:01:13.000Z</time>
      </trkpt>
      <trkpt lat="47.53655" lon="6.68334">
        <ele>382</ele>
        <time>2015-01-25T10:01:14.000Z</time>
      </trkpt>
      <trkpt lat="47.53658" lon="6.68333">
        <ele>383</ele>
        <time>2015-01-25T10:01:15.000Z</time>
      </trkpt>
      <trkpt lat="47.53661" lon="6.68332">
        <ele>383</ele>
        <time>2015-01-25T10:01:16.000Z</time>
      </trkpt>
      <trkpt lat="47.53663" lon="6.68332">
        <ele>383</ele>
        <time>2015-01-25T10:01:17.000Z</time>
      </trkpt>
      <trkpt lat="47.53666" lon="6.68332">
        <ele>383</ele>
        <time>2015-01-25T10:01:18.000Z</time>
      </trkpt>
      <trkpt lat="47.53668" lon="6.68332">
        <ele>383</ele>
        <time>2015-01-25T10:01:19.000Z</time>
      </trkpt>
      <trkpt lat="47.53672" lon="6.68332">
        <ele>383</ele>
        <time>2015-01-25T10:01:21.000Z</time>
      </trkpt>
      <trkpt lat="47.53674" lon="6.68332">
        <ele>384</ele>
        <time>2015-01-25T10:01:22.000Z</time>
      </trkpt>
      <trkpt lat="47.53679" lon="6.68332">
        <ele>384</ele>
        <time>2015-01-25T10:01:24.000Z</time>
      </trkpt>
      <trkpt lat="47.53681" lon="6.68332">
        <ele>384</ele>
        <time>2015-01-25T10:01:25.000Z</time>
      </trkpt>
      <trkpt lat="47.53684" lon="6.68332">
        <ele>384</ele>
        <time>2015-01-25T10:01:27.000Z</time>
      </trkpt>
      <trkpt lat="47.53686" lon="6.68332">
        <ele>384</ele>
        <time>2015-01-25T10:01:28.000Z</time>
      </trkpt>
      <trkpt lat="47.5369" lon="6.68333">
        <ele>384</ele>
        <time>2015-01-25T10:01:30.000Z</time>
      </trkpt>
      <trkpt lat="47.53692" lon="6.68334">
        <ele>382</ele>
        <time>2015-01-25T10:01:31.000Z</time>
      </trkpt>
      <trkpt lat="47.53694" lon="6.68336">
        <ele>382</ele>
        <time>2015-01-25T10:01:32.000Z</time>
      </trkpt>
      <trkpt lat="47.53696" lon="6.68337">
        <ele>382</ele>
        <time>2015-01-25T10:01:33.000Z</time>
      </trkpt>
      <trkpt lat="47.53699" lon="6.68338">
        <ele>382</ele>
        <time>2015-01-25T10:01:34.000Z</time>
      </trkpt>
      <trkpt lat="47.53701" lon="6.68339">
        <ele>382</ele>
        <time>2015-01-25T10:01:35.000Z</time>
      </trkpt>
      <trkpt lat="47.53704" lon="6.68339">
        <ele>382</ele>
        <time>2015-01-25T10:01:36.000Z</time>
      </trkpt>
      <trkpt lat="47.53707" lon="6.68339">
        <ele>382</ele>
        <time>2015-01-25T10:01:37.000Z</time>
      </trkpt>
      <trkpt lat="47.53711" lon="6.68338">
        <ele>382</ele>
        <time>2015-01-25T10:01:39.000Z</time>
      </trkpt>
      <trkpt lat="47.53713" lon="6.68337">
        <ele>383</ele>
        <time>2015-01-25T10:01:40.000Z</time>
      </trkpt>
      <trkpt lat="47.53715" lon="6.68336">
        <ele>383</ele>
        <time>2015-01-25T10:01:41.000Z</time>
      </trkpt>
      <trkpt lat="47.53718" lon="6.68334">
        <ele>383</ele>
        <time>2015-01-25T10:01:42.000Z</time>
      </trkpt>
      <trkpt lat="47.5372" lon="6.68332">
        <ele>385</ele>
        <time>2015-01-25T10:01:43.000Z</time>
      </trkpt>
      <trkpt lat="47.53722" lon="6.68329">
        <ele>385</ele>
        <time>2015-01-25T10:01:44.000Z</time>
      </trkpt>
      <trkpt lat="47.53724" lon="6.68326">
        <ele>386</ele>
        <time>2015-01-25T10:01:45.000Z</time>
      </trkpt>
      <trkpt lat="47.53729" lon="6.6832">
        <ele>386</ele>
        <time>2015-01-25T10:01:48.000Z</time>
      </trkpt>
      <trkpt lat="47.53733" lon="6.68316">
        <ele>386</ele>
        <time>2015-01-25T10:01:50.000Z</time>
      </trkpt>
      <trkpt lat="47.53734" lon="6.68314">
        <ele>386</ele>
        <time>2015-01-25T10:01:51.000Z</time>
      </trkpt>
      <trkpt lat="47.53737" lon="6.68309">
        <ele>386</ele>
        <time>2015-01-25T10:01:53.000Z</time>
      </trkpt>
      <trkpt lat="47.53738" lon="6.68306">
        <ele>386</ele>
        <time>2015-01-25T10:01:54.000Z</time>
      </trkpt>
      <trkpt lat="47.53739" lon="6.68303">
        <ele>386</ele>
        <time>2015-01-25T10:01:55.000Z</time>
      </trkpt>
      <trkpt lat="47.5374" lon="6.68299">
        <ele>386</ele>
        <time>2015-01-25T10:01:56.000Z</time>
      </trkpt>
      <trkpt lat="47.53741" lon="6.68295">
        <ele>386</ele>
        <time>2015-01-25T10:01:57.000Z</time>
      </trkpt>
      <trkpt lat="47.53741" lon="6.6829">
        <ele>386</ele>
        <time>2015-01-25T10:01:58.000Z</time>
      </trkpt>
      <trkpt lat="47.53742" lon="6.68285">
        <ele>386</ele>
        <time>2015-01-25T10:01:59.000Z</time>
      </trkpt>
      <trkpt lat="47.53742" lon="6.68281">
        <ele>387</ele>
        <time>2015-01-25T10:02:00.000Z</time>
      </trkpt>
      <trkpt lat="47.53741" lon="6.68276">
        <ele>387</ele>
        <time>2015-01-25T10:02:01.000Z</time>
      </trkpt>
      <trkpt lat="47.5374" lon="6.68271">
        <ele>387</ele>
        <time>2015-01-25T10:02:02.000Z</time>
      </trkpt>
      <trkpt lat="47.5374" lon="6.68266">
        <ele>387</ele>
        <time>2015-01-25T10:02:03.000Z</time>
      </trkpt>
      <trkpt lat="47.53739" lon="6.68261">
        <ele>387</ele>
        <time>2015-01-25T10:02:04.000Z</time>
      </trkpt>
      <trkpt lat="47.53739" lon="6.68255">
        <ele>388</ele>
        <time>2015-01-25T10:02:05.000Z</time>
      </trkpt>
      <trkpt lat="47.53739" lon="6.6825">
        <ele>388</ele>
        <time>2015-01-25T10:02:06.000Z</time>
      </trkpt>
      <trkpt lat="47.53739" lon="6.68243">
        <ele>388</ele>
        <time>2015-01-25T10:02:07.000Z</time>
      </trkpt>
      <trkpt lat="47.53739" lon="6.68237">
        <ele>388</ele>
        <time>2015-01-25T10:02:08.000Z</time>
      </trkpt>
      <trkpt lat="47.53739" lon="6.68231">
        <ele>388</ele>
        <time>2015-01-25T10:02:09.000Z</time>
      </trkpt>
      <trkpt lat="47.5374" lon="6.68225">
        <ele>388</ele>
        <time>2015-01-25T10:02:10.000Z</time>
      </trkpt>
      <trkpt lat="47.5374" lon="6.6822">
        <ele>388</ele>
        <time>2015-01-25T10:02:11.000Z</time>
      </trkpt>
      <trkpt lat="47.5374" lon="6.68215">
        <ele>387</ele>
        <time>2015-01-25T10:02:12.000Z</time>
      </trkpt>
      <trkpt lat="47.53739" lon="6.6821">
        <ele>387</ele>
        <time>2015-01-25T10:02:13.000Z</time>
      </trkpt>
      <trkpt lat="47.53739" lon="6.68206">
        <ele>387</ele>
        <time>2015-01-25T10:02:14.000Z</time>
      </trkpt>
      <trkpt lat="47.53739" lon="6.68203">
        <ele>387</ele>
        <time>2015-01-25T10:02:15.000Z</time>
      </trkpt>
      <trkpt lat="47.53739" lon="6.68199">
        <ele>388</ele>
        <time>2015-01-25T10:02:16.000Z</time>
      </trkpt>
      <trkpt lat="47.53739" lon="6.68196">
        <ele>388</ele>
        <time>2015-01-25T10:02:17.000Z</time>
      </trkpt>
      <trkpt lat="47.5374" lon="6.68192">
        <ele>388</ele>
        <time>2015-01-25T10:02:18.000Z</time>
      </trkpt>
      <trkpt lat="47.5374" lon="6.68189">
        <ele>388</ele>
        <time>2015-01-25T10:02:19.000Z</time>
      </trkpt>
      <trkpt lat="47.53741" lon="6.68185">
        <ele>388</ele>
        <time>2015-01-25T10:02:20.000Z</time>
      </trkpt>
      <trkpt lat="47.53743" lon="6.68181">
        <ele>388</ele>
        <time>2015-01-25T10:02:21.000Z</time>
      </trkpt>
      <trkpt lat="47.53744" lon="6.68178">
        <ele>388</ele>
        <time>2015-01-25T10:02:22.000Z</time>
      </trkpt>
      <trkpt lat="47.53745" lon="6.68175">
        <ele>388</ele>
        <time>2015-01-25T10:02:23.000Z</time>
      </trkpt>
      <trkpt lat="47.53747" lon="6.68171">
        <ele>389</ele>
        <time>2015-01-25T10:02:24.000Z</time>
      </trkpt>
      <trkpt lat="47.53749" lon="6.68168">
        <ele>389</ele>
        <time>2015-01-25T10:02:25.000Z</time>
      </trkpt>
      <trkpt lat="47.5375" lon="6.68165">
        <ele>389</ele>
        <time>2015-01-25T10:02:26.000Z</time>
      </trkpt>
      <trkpt lat="47.53752" lon="6.68162">
        <ele>388</ele>
        <time>2015-01-25T10:02:27.000Z</time>
      </trkpt>
      <trkpt lat="47.53753" lon="6.68158">
        <ele>388</ele>
        <time>2015-01-25T10:02:28.000Z</time>
      </trkpt>
      <trkpt lat="47.53754" lon="6.68154">
        <ele>387</ele>
        <time>2015-01-25T10:02:29.000Z</time>
      </trkpt>
      <trkpt lat="47.53755" lon="6.68149">
        <ele>387</ele>
        <time>2015-01-25T10:02:30.000Z</time>
      </trkpt>
      <trkpt lat="47.53755" lon="6.68144">
        <ele>387</ele>
        <time>2015-01-25T10:02:31.000Z</time>
      </trkpt>
      <trkpt lat="47.53755" lon="6.68138">
        <ele>386</ele>
        <time>2015-01-25T10:02:32.000Z</time>
      </trkpt>
      <trkpt lat="47.53754" lon="6.68132">
        <ele>386</ele>
        <time>2015-01-25T10:02:33.000Z</time>
      </trkpt>
      <trkpt lat="47.53754" lon="6.68125">
        <ele>386</ele>
        <time>2015-01-25T10:02:34.000Z</time>
      </trkpt>
      <trkpt lat="47.53754" lon="6.68119">
        <ele>386</ele>
        <time>2015-01-25T10:02:35.000Z</time>
      </trkpt>
      <trkpt lat="47.53754" lon="6.68112">
        <ele>386</ele>
        <time>2015-01-25T10:02:36.000Z</time>
      </trkpt>
      <trkpt lat="47.53753" lon="6.68106">
        <ele>386</ele>
        <time>2015-01-25T10:02:37.000Z</time>
      </trkpt>
      <trkpt lat="47.53753" lon="6.68101">
        <ele>386</ele>
        <time>2015-01-25T10:02:38.000Z</time>
      </trkpt>
      <trkpt lat="47.53752" lon="6.68096">
        <ele>386</ele>
        <time>2015-01-25T10:02:39.000Z</time>
      </trkpt>
      <trkpt lat="47.53752" lon="6.68092">
        <ele>386</ele>
        <time>2015-01-25T10:02:40.000Z</time>
      </trkpt>
      <trkpt lat="47.53751" lon="6.68088">
        <ele>386</ele>
        <time>2015-01-25T10:02:41.000Z</time>
      </trkpt>
      <trkpt lat="47.53751" lon="6.68082">
        <ele>386</ele>
        <time>2015-01-25T10:02:43.000Z</time>
      </trkpt>
      <trkpt lat="47.53751" lon="6.68079">
        <ele>385</ele>
        <time>2015-01-25T10:02:44.000Z</time>
      </trkpt>
      <trkpt lat="47.53754" lon="6.68075">
        <ele>384</ele>
        <time>2015-01-25T10:02:48.000Z</time>
      </trkpt>
      <trkpt lat="47.53755" lon="6.68075">
        <ele>384</ele>
        <time>2015-01-25T10:02:49.000Z</time>
      </trkpt>
      <trkpt lat="47.53759" lon="6.68077">
        <ele>384</ele>
        <time>2015-01-25T10:02:52.000Z</time>
      </trkpt>
      <trkpt lat="47.5376" lon="6.68077">
        <ele>383</ele>
        <time>2015-01-25T10:02:53.000Z</time>
      </trkpt>
      <trkpt lat="47.53764" lon="6.68077">
        <ele>383</ele>
        <time>2015-01-25T10:02:55.000Z</time>
      </trkpt>
      <trkpt lat="47.53766" lon="6.68076">
        <ele>382</ele>
        <time>2015-01-25T10:02:56.000Z</time>
      </trkpt>
      <trkpt lat="47.53769" lon="6.68076">
        <ele>382</ele>
        <time>2015-01-25T10:02:57.000Z</time>
      </trkpt>
      <trkpt lat="47.53771" lon="6.68076">
        <ele>382</ele>
        <time>2015-01-25T10:02:58.000Z</time>
      </trkpt>
      <trkpt lat="47.53776" lon="6.68076">
        <ele>381</ele>
        <time>2015-01-25T10:03:00.000Z</time>
      </trkpt>
      <trkpt lat="47.53778" lon="6.68076">
        <ele>381</ele>
        <time>2015-01-25T10:03:01.000Z</time>
      </trkpt>
      <trkpt lat="47.5378" lon="6.68077">
        <ele>381</ele>
        <time>2015-01-25T10:03:02.000Z</time>
      </trkpt>
      <trkpt lat="47.53783" lon="6.68078">
        <ele>381</ele>
        <time>2015-01-25T10:03:03.000Z</time>
      </trkpt>
      <trkpt lat="47.53787" lon="6.68081">
        <ele>381</ele>
        <time>2015-01-25T10:03:05.000Z</time>
      </trkpt>
      <trkpt lat="47.53789" lon="6.68082">
        <ele>381</ele>
        <time>2015-01-25T10:03:06.000Z</time>
      </trkpt>
      <trkpt lat="47.53791" lon="6.68084">
        <ele>384</ele>
        <time>2015-01-25T10:03:07.000Z</time>
      </trkpt>
      <trkpt lat="47.53793" lon="6.68085">
        <ele>384</ele>
        <time>2015-01-25T10:03:08.000Z</time>
      </trkpt>
      <trkpt lat="47.53796" lon="6.68087">
        <ele>384</ele>
        <time>2015-01-25T10:03:09.000Z</time>
      </trkpt>
      <trkpt lat="47.53799" lon="6.68089">
        <ele>384</ele>
        <time>2015-01-25T10:03:10.000Z</time>
      </trkpt>
      <trkpt lat="47.53801" lon="6.68091">
        <ele>384</ele>
        <time>2015-01-25T10:03:11.000Z</time>
      </trkpt>
      <trkpt lat="47.53804" lon="6.68092">
        <ele>384</ele>
        <time>2015-01-25T10:03:12.000Z</time>
      </trkpt>
      <trkpt lat="47.53806" lon="6.68093">
        <ele>384</ele>
        <time>2015-01-25T10:03:13.000Z</time>
      </trkpt>
      <trkpt lat="47.53808" lon="6.68094">
        <ele>383</ele>
        <time>2015-01-25T10:03:14.000Z</time>
      </trkpt>
      <trkpt lat="47.53812" lon="6.68094">
        <ele>383</ele>
        <time>2015-01-25T10:03:16.000Z</time>
      </trkpt>
      <trkpt lat="47.53814" lon="6.68094">
        <ele>383</ele>
        <time>2015-01-25T10:03:17.000Z</time>
      </trkpt>
      <trkpt lat="47.53819" lon="6.68095">
        <ele>383</ele>
        <time>2015-01-25T10:03:19.000Z</time>
      </trkpt>
      <trkpt lat="47.53821" lon="6.68094">
        <ele>382</ele>
        <time>2015-01-25T10:03:20.000Z</time>
      </trkpt>
      <trkpt lat="47.53825" lon="6.68094">
        <ele>382</ele>
        <time>2015-01-25T10:03:22.000Z</time>
      </trkpt>
      <trkpt lat="47.53827" lon="6.68094">
        <ele>382</ele>
        <time>2015-01-25T10:03:23.000Z</time>
      </trkpt>
      <trkpt lat="47.53831" lon="6.68095">
        <ele>382</ele>
        <time>2015-01-25T10:03:24.000Z</time>
      </trkpt>
      <trkpt lat="47.53834" lon="6.68095">
        <ele>379</ele>
        <time>2015-01-25T10:03:25.000Z</time>
      </trkpt>
      <trkpt lat="47.53838" lon="6.68094">
        <ele>379</ele>
        <time>2015-01-25T10:03:26.000Z</time>
      </trkpt>
      <trkpt lat="47.53842" lon="6.68093">
        <ele>379</ele>
        <time>2015-01-25T10:03:27.000Z</time>
      </trkpt>
      <trkpt lat="47.53846" lon="6.68092">
        <ele>379</ele>
        <time>2015-01-25T10:03:28.000Z</time>
      </trkpt>
      <trkpt lat="47.5385" lon="6.6809">
        <ele>379</ele>
        <time>2015-01-25T10:03:29.000Z</time>
      </trkpt>
      <trkpt lat="47.53854" lon="6.68088">
        <ele>379</ele>
        <time>2015-01-25T10:03:30.000Z</time>
      </trkpt>
      <trkpt lat="47.53859" lon="6.68087">
        <ele>378</ele>
        <time>2015-01-25T10:03:31.000Z</time>
      </trkpt>
      <trkpt lat="47.53863" lon="6.68085">
        <ele>378</ele>
        <time>2015-01-25T10:03:32.000Z</time>
      </trkpt>
      <trkpt lat="47.53867" lon="6.68083">
        <ele>377</ele>
        <time>2015-01-25T10:03:33.000Z</time>
      </trkpt>
      <trkpt lat="47.5387" lon="6.68082">
        <ele>376</ele>
        <time>2015-01-25T10:03:34.000Z</time>
      </trkpt>
      <trkpt lat="47.53873" lon="6.6808">
        <ele>376</ele>
        <time>2015-01-25T10:03:35.000Z</time>
      </trkpt>
      <trkpt lat="47.53876" lon="6.68078">
        <ele>376</ele>
        <time>2015-01-25T10:03:36.000Z</time>
      </trkpt>
      <trkpt lat="47.53877" lon="6.68075">
        <ele>376</ele>
        <time>2015-01-25T10:03:37.000Z</time>
      </trkpt>
      <trkpt lat="47.53879" lon="6.6807">
        <ele>376</ele>
        <time>2015-01-25T10:03:39.000Z</time>
      </trkpt>
      <trkpt lat="47.5388" lon="6.68068">
        <ele>376</ele>
        <time>2015-01-25T10:03:40.000Z</time>
      </trkpt>
      <trkpt lat="47.53879" lon="6.68063">
        <ele>376</ele>
        <time>2015-01-25T10:03:44.000Z</time>
      </trkpt>
      <trkpt lat="47.53878" lon="6.6806">
        <ele>376</ele>
        <time>2015-01-25T10:03:45.000Z</time>
      </trkpt>
      <trkpt lat="47.53873" lon="6.68047">
        <ele>376</ele>
        <time>2015-01-25T10:03:48.000Z</time>
      </trkpt>
      <trkpt lat="47.5387" lon="6.68034">
        <ele>376</ele>
        <time>2015-01-25T10:03:49.000Z</time>
      </trkpt>
      <trkpt lat="47.53868" lon="6.68025">
        <ele>375</ele>
        <time>2015-01-25T10:03:50.000Z</time>
      </trkpt>
      <trkpt lat="47.53864" lon="6.68017">
        <ele>375</ele>
        <time>2015-01-25T10:03:51.000Z</time>
      </trkpt>
      <trkpt lat="47.53861" lon="6.68011">
        <ele>375</ele>
        <time>2015-01-25T10:03:52.000Z</time>
      </trkpt>
      <trkpt lat="47.53858" lon="6.68004">
        <ele>375</ele>
        <time>2015-01-25T10:03:53.000Z</time>
      </trkpt>
      <trkpt lat="47.53854" lon="6.67998">
        <ele>373</ele>
        <time>2015-01-25T10:03:54.000Z</time>
      </trkpt>
      <trkpt lat="47.53851" lon="6.67991">
        <ele>373</ele>
        <time>2015-01-25T10:03:55.000Z</time>
      </trkpt>
      <trkpt lat="47.53846" lon="6.67986">
        <ele>373</ele>
        <time>2015-01-25T10:03:56.000Z</time>
      </trkpt>
      <trkpt lat="47.53842" lon="6.67981">
        <ele>373</ele>
        <time>2015-01-25T10:03:57.000Z</time>
      </trkpt>
      <trkpt lat="47.53838" lon="6.67975">
        <ele>373</ele>
        <time>2015-01-25T10:03:58.000Z</time>
      </trkpt>
      <trkpt lat="47.53834" lon="6.67969">
        <ele>373</ele>
        <time>2015-01-25T10:03:59.000Z</time>
      </trkpt>
      <trkpt lat="47.5383" lon="6.67962">
        <ele>371</ele>
        <time>2015-01-25T10:04:00.000Z</time>
      </trkpt>
      <trkpt lat="47.53825" lon="6.67956">
        <ele>371</ele>
        <time>2015-01-25T10:04:01.000Z</time>
      </trkpt>
      <trkpt lat="47.53821" lon="6.67951">
        <ele>371</ele>
        <time>2015-01-25T10:04:02.000Z</time>
      </trkpt>
      <trkpt lat="47.53816" lon="6.67945">
        <ele>371</ele>
        <time>2015-01-25T10:04:03.000Z</time>
      </trkpt>
      <trkpt lat="47.53811" lon="6.6794">
        <ele>371</ele>
        <time>2015-01-25T10:04:04.000Z</time>
      </trkpt>
      <trkpt lat="47.53807" lon="6.67934">
        <ele>371</ele>
        <time>2015-01-25T10:04:05.000Z</time>
      </trkpt>
      <trkpt lat="47.53802" lon="6.67929">
        <ele>370</ele>
        <time>2015-01-25T10:04:06.000Z</time>
      </trkpt>
      <trkpt lat="47.53798" lon="6.67924">
        <ele>370</ele>
        <time>2015-01-25T10:04:07.000Z</time>
      </trkpt>
      <trkpt lat="47.53794" lon="6.67919">
        <ele>370</ele>
        <time>2015-01-25T10:04:08.000Z</time>
      </trkpt>
      <trkpt lat="47.5379" lon="6.67914">
        <ele>368</ele>
        <time>2015-01-25T10:04:09.000Z</time>
      </trkpt>
      <trkpt lat="47.53787" lon="6.67909">
        <ele>368</ele>
        <time>2015-01-25T10:04:10.000Z</time>
      </trkpt>
      <trkpt lat="47.53783" lon="6.67904">
        <ele>368</ele>
        <time>2015-01-25T10:04:11.000Z</time>
      </trkpt>
      <trkpt lat="47.5378" lon="6.67898">
        <ele>368</ele>
        <time>2015-01-25T10:04:12.000Z</time>
      </trkpt>
      <trkpt lat="47.53776" lon="6.67892">
        <ele>368</ele>
        <time>2015-01-25T10:04:13.000Z</time>
      </trkpt>
      <trkpt lat="47.53772" lon="6.67888">
        <ele>368</ele>
        <time>2015-01-25T10:04:14.000Z</time>
      </trkpt>
      <trkpt lat="47.53768" lon="6.67882">
        <ele>368</ele>
        <time>2015-01-25T10:04:15.000Z</time>
      </trkpt>
      <trkpt lat="47.53764" lon="6.67878">
        <ele>367</ele>
        <time>2015-01-25T10:04:16.000Z</time>
      </trkpt>
      <trkpt lat="47.53761" lon="6.67873">
        <ele>367</ele>
        <time>2015-01-25T10:04:17.000Z</time>
      </trkpt>
      <trkpt lat="47.53758" lon="6.67869">
        <ele>367</ele>
        <time>2015-01-25T10:04:18.000Z</time>
      </trkpt>
      <trkpt lat="47.53754" lon="6.67865">
        <ele>367</ele>
        <time>2015-01-25T10:04:19.000Z</time>
      </trkpt>
      <trkpt lat="47.53751" lon="6.6786">
        <ele>367</ele>
        <time>2015-01-25T10:04:20.000Z</time>
      </trkpt>
      <trkpt lat="47.53747" lon="6.67856">
        <ele>366</ele>
        <time>2015-01-25T10:04:21.000Z</time>
      </trkpt>
      <trkpt lat="47.53744" lon="6.67851">
        <ele>366</ele>
        <time>2015-01-25T10:04:22.000Z</time>
      </trkpt>
      <trkpt lat="47.53741" lon="6.67846">
        <ele>366</ele>
        <time>2015-01-25T10:04:23.000Z</time>
      </trkpt>
      <trkpt lat="47.53738" lon="6.67842">
        <ele>365</ele>
        <time>2015-01-25T10:04:24.000Z</time>
      </trkpt>
      <trkpt lat="47.53734" lon="6.67838">
        <ele>365</ele>
        <time>2015-01-25T10:04:25.000Z</time>
      </trkpt>
      <trkpt lat="47.53731" lon="6.67833">
        <ele>367</ele>
        <time>2015-01-25T10:04:26.000Z</time>
      </trkpt>
      <trkpt lat="47.53728" lon="6.67828">
        <ele>367</ele>
        <time>2015-01-25T10:04:27.000Z</time>
      </trkpt>
      <trkpt lat="47.53724" lon="6.67823">
        <ele>367</ele>
        <time>2015-01-25T10:04:28.000Z</time>
      </trkpt>
      <trkpt lat="47.5372" lon="6.67819">
        <ele>367</ele>
        <time>2015-01-25T10:04:29.000Z</time>
      </trkpt>
      <trkpt lat="47.53717" lon="6.67814">
        <ele>368</ele>
        <time>2015-01-25T10:04:30.000Z</time>
      </trkpt>
      <trkpt lat="47.53713" lon="6.67809">
        <ele>368</ele>
        <time>2015-01-25T10:04:31.000Z</time>
      </trkpt>
      <trkpt lat="47.5371" lon="6.67805">
        <ele>368</ele>
        <time>2015-01-25T10:04:32.000Z</time>
      </trkpt>
      <trkpt lat="47.53707" lon="6.678">
        <ele>368</ele>
        <time>2015-01-25T10:04:33.000Z</time>
      </trkpt>
      <trkpt lat="47.53703" lon="6.67796">
        <ele>368</ele>
        <time>2015-01-25T10:04:34.000Z</time>
      </trkpt>
      <trkpt lat="47.53699" lon="6.67792">
        <ele>369</ele>
        <time>2015-01-25T10:04:35.000Z</time>
      </trkpt>
      <trkpt lat="47.53697" lon="6.67787">
        <ele>369</ele>
        <time>2015-01-25T10:04:36.000Z</time>
      </trkpt>
      <trkpt lat="47.53693" lon="6.67783">
        <ele>369</ele>
        <time>2015-01-25T10:04:37.000Z</time>
      </trkpt>
      <trkpt lat="47.5369" lon="6.67779">
        <ele>369</ele>
        <time>2015-01-25T10:04:38.000Z</time>
      </trkpt>
      <trkpt lat="47.53687" lon="6.67775">
        <ele>369</ele>
        <time>2015-01-25T10:04:39.000Z</time>
      </trkpt>
      <trkpt lat="47.53684" lon="6.67771">
        <ele>370</ele>
        <time>2015-01-25T10:04:40.000Z</time>
      </trkpt>
      <trkpt lat="47.5368" lon="6.67768">
        <ele>370</ele>
        <time>2015-01-25T10:04:41.000Z</time>
      </trkpt>
      <trkpt lat="47.53677" lon="6.67764">
        <ele>370</ele>
        <time>2015-01-25T10:04:42.000Z</time>
      </trkpt>
      <trkpt lat="47.53675" lon="6.6776">
        <ele>371</ele>
        <time>2015-01-25T10:04:43.000Z</time>
      </trkpt>
      <trkpt lat="47.53673" lon="6.67756">
        <ele>371</ele>
        <time>2015-01-25T10:04:44.000Z</time>
      </trkpt>
      <trkpt lat="47.5367" lon="6.67745">
        <ele>372</ele>
        <time>2015-01-25T10:04:47.000Z</time>
      </trkpt>
      <trkpt lat="47.53672" lon="6.67743">
        <ele>373</ele>
        <time>2015-01-25T10:04:48.000Z</time>
      </trkpt>
      <trkpt lat="47.53676" lon="6.67743">
        <ele>373</ele>
        <time>2015-01-25T10:04:49.000Z</time>
      </trkpt>
      <trkpt lat="47.53681" lon="6.67744">
        <ele>373</ele>
        <time>2015-01-25T10:04:50.000Z</time>
      </trkpt>
      <trkpt lat="47.53686" lon="6.67746">
        <ele>373</ele>
        <time>2015-01-25T10:04:51.000Z</time>
      </trkpt>
      <trkpt lat="47.53691" lon="6.67747">
        <ele>373</ele>
        <time>2015-01-25T10:04:52.000Z</time>
      </trkpt>
      <trkpt lat="47.53695" lon="6.67748">
        <ele>373</ele>
        <time>2015-01-25T10:04:53.000Z</time>
      </trkpt>
      <trkpt lat="47.537" lon="6.67748">
        <ele>373</ele>
        <time>2015-01-25T10:04:54.000Z</time>
      </trkpt>
      <trkpt lat="47.53703" lon="6.67748">
        <ele>373</ele>
        <time>2015-01-25T10:04:55.000Z</time>
      </trkpt>
      <trkpt lat="47.53707" lon="6.67747">
        <ele>373</ele>
        <time>2015-01-25T10:04:56.000Z</time>
      </trkpt>
      <trkpt lat="47.53711" lon="6.67746">
        <ele>373</ele>
        <time>2015-01-25T10:04:57.000Z</time>
      </trkpt>
      <trkpt lat="47.53714" lon="6.67745">
        <ele>373</ele>
        <time>2015-01-25T10:04:58.000Z</time>
      </trkpt>
      <trkpt lat="47.53717" lon="6.67743">
        <ele>373</ele>
        <time>2015-01-25T10:04:59.000Z</time>
      </trkpt>
      <trkpt lat="47.53721" lon="6.67741">
        <ele>373</ele>
        <time>2015-01-25T10:05:00.000Z</time>
      </trkpt>
      <trkpt lat="47.53724" lon="6.6774">
        <ele>373</ele>
        <time>2015-01-25T10:05:01.000Z</time>
      </trkpt>
      <trkpt lat="47.53727" lon="6.67738">
        <ele>373</ele>
        <time>2015-01-25T10:05:02.000Z</time>
      </trkpt>
      <trkpt lat="47.5373" lon="6.67738">
        <ele>373</ele>
        <time>2015-01-25T10:05:03.000Z</time>
      </trkpt>
      <trkpt lat="47.53734" lon="6.67738">
        <ele>373</ele>
        <time>2015-01-25T10:05:04.000Z</time>
      </trkpt>
      <trkpt lat="47.53737" lon="6.67738">
        <ele>373</ele>
        <time>2015-01-25T10:05:05.000Z</time>
      </trkpt>
      <trkpt lat="47.53741" lon="6.67738">
        <ele>373</ele>
        <time>2015-01-25T10:05:06.000Z</time>
      </trkpt>
      <trkpt lat="47.53744" lon="6.67738">
        <ele>372</ele>
        <time>2015-01-25T10:05:07.000Z</time>
      </trkpt>
      <trkpt lat="47.53748" lon="6.67738">
        <ele>372</ele>
        <time>2015-01-25T10:05:08.000Z</time>
      </trkpt>
      <trkpt lat="47.53752" lon="6.67738">
        <ele>373</ele>
        <time>2015-01-25T10:05:09.000Z</time>
      </trkpt>
      <trkpt lat="47.53756" lon="6.67739">
        <ele>373</ele>
        <time>2015-01-25T10:05:10.000Z</time>
      </trkpt>
      <trkpt lat="47.5376" lon="6.6774">
        <ele>373</ele>
        <time>2015-01-25T10:05:11.000Z</time>
      </trkpt>
      <trkpt lat="47.53764" lon="6.67741">
        <ele>373</ele>
        <time>2015-01-25T10:05:12.000Z</time>
      </trkpt>
      <trkpt lat="47.53768" lon="6.67742">
        <ele>373</ele>
        <time>2015-01-25T10:05:13.000Z</time>
      </trkpt>
      <trkpt lat="47.53773" lon="6.67743">
        <ele>374</ele>
        <time>2015-01-25T10:05:14.000Z</time>
      </trkpt>
      <trkpt lat="47.53777" lon="6.67744">
        <ele>374</ele>
        <time>2015-01-25T10:05:15.000Z</time>
      </trkpt>
      <trkpt lat="47.53781" lon="6.67744">
        <ele>374</ele>
        <time>2015-01-25T10:05:16.000Z</time>
      </trkpt>
      <trkpt lat="47.53785" lon="6.67745">
        <ele>374</ele>
        <time>2015-01-25T10:05:17.000Z</time>
      </trkpt>
      <trkpt lat="47.53789" lon="6.67745">
        <ele>374</ele>
        <time>2015-01-25T10:05:18.000Z</time>
      </trkpt>
      <trkpt lat="47.53793" lon="6.67746">
        <ele>374</ele>
        <time>2015-01-25T10:05:19.000Z</time>
      </trkpt>
      <trkpt lat="47.53796" lon="6.67747">
        <ele>374</ele>
        <time>2015-01-25T10:05:20.000Z</time>
      </trkpt>
      <trkpt lat="47.538" lon="6.67748">
        <ele>374</ele>
        <time>2015-01-25T10:05:21.000Z</time>
      </trkpt>
      <trkpt lat="47.53804" lon="6.67749">
        <ele>374</ele>
        <time>2015-01-25T10:05:22.000Z</time>
      </trkpt>
      <trkpt lat="47.53808" lon="6.67749">
        <ele>374</ele>
        <time>2015-01-25T10:05:23.000Z</time>
      </trkpt>
      <trkpt lat="47.53812" lon="6.6775">
        <ele>374</ele>
        <time>2015-01-25T10:05:24.000Z</time>
      </trkpt>
      <trkpt lat="47.53816" lon="6.6775">
        <ele>372</ele>
        <time>2015-01-25T10:05:25.000Z</time>
      </trkpt>
      <trkpt lat="47.5382" lon="6.67751">
        <ele>373</ele>
        <time>2015-01-25T10:05:26.000Z</time>
      </trkpt>
      <trkpt lat="47.53823" lon="6.67751">
        <ele>373</ele>
        <time>2015-01-25T10:05:27.000Z</time>
      </trkpt>
      <trkpt lat="47.53826" lon="6.67752">
        <ele>373</ele>
        <time>2015-01-25T10:05:28.000Z</time>
      </trkpt>
      <trkpt lat="47.53829" lon="6.67752">
        <ele>373</ele>
        <time>2015-01-25T10:05:29.000Z</time>
      </trkpt>
      <trkpt lat="47.53832" lon="6.67752">
        <ele>374</ele>
        <time>2015-01-25T10:05:30.000Z</time>
      </trkpt>
      <trkpt lat="47.53835" lon="6.67752">
        <ele>374</ele>
        <time>2015-01-25T10:05:31.000Z</time>
      </trkpt>
      <trkpt lat="47.53837" lon="6.67753">
        <ele>374</ele>
        <time>2015-01-25T10:05:32.000Z</time>
      </trkpt>
      <trkpt lat="47.53839" lon="6.67754">
        <ele>374</ele>
        <time>2015-01-25T10:05:33.000Z</time>
      </trkpt>
      <trkpt lat="47.53844" lon="6.67756">
        <ele>374</ele>
        <time>2015-01-25T10:05:35.000Z</time>
      </trkpt>
      <trkpt lat="47.53846" lon="6.67756">
        <ele>374</ele>
        <time>2015-01-25T10:05:36.000Z</time>
      </trkpt>
      <trkpt lat="47.53848" lon="6.67756">
        <ele>374</ele>
        <time>2015-01-25T10:05:37.000Z</time>
      </trkpt>
      <trkpt lat="47.5385" lon="6.67756">
        <ele>374</ele>
        <time>2015-01-25T10:05:38.000Z</time>
      </trkpt>
      <trkpt lat="47.53853" lon="6.67754">
        <ele>374</ele>
        <time>2015-01-25T10:05:39.000Z</time>
      </trkpt>
      <trkpt lat="47.53855" lon="6.67752">
        <ele>374</ele>
        <time>2015-01-25T10:05:40.000Z</time>
      </trkpt>
      <trkpt lat="47.53858" lon="6.6775">
        <ele>374</ele>
        <time>2015-01-25T10:05:41.000Z</time>
      </trkpt>
      <trkpt lat="47.53861" lon="6.67747">
        <ele>374</ele>
        <time>2015-01-25T10:05:42.000Z</time>
      </trkpt>
      <trkpt lat="47.53864" lon="6.67744">
        <ele>374</ele>
        <time>2015-01-25T10:05:43.000Z</time>
      </trkpt>
      <trkpt lat="47.53868" lon="6.67741">
        <ele>374</ele>
        <time>2015-01-25T10:05:44.000Z</time>
      </trkpt>
      <trkpt lat="47.53875" lon="6.67735">
        <ele>374</ele>
        <time>2015-01-25T10:05:45.000Z</time>
      </trkpt>
      <trkpt lat="47.53879" lon="6.67732">
        <ele>374</ele>
        <time>2015-01-25T10:05:46.000Z</time>
      </trkpt>
      <trkpt lat="47.53914" lon="6.67715">
        <ele>374</ele>
        <time>2015-01-25T10:05:54.000Z</time>
      </trkpt>
      <trkpt lat="47.53919" lon="6.67713">
        <ele>374</ele>
        <time>2015-01-25T10:05:55.000Z</time>
      </trkpt>
      <trkpt lat="47.53923" lon="6.67712">
        <ele>375</ele>
        <time>2015-01-25T10:05:56.000Z</time>
      </trkpt>
      <trkpt lat="47.53928" lon="6.6771">
        <ele>375</ele>
        <time>2015-01-25T10:05:57.000Z</time>
      </trkpt>
      <trkpt lat="47.53932" lon="6.67711">
        <ele>375</ele>
        <time>2015-01-25T10:05:58.000Z</time>
      </trkpt>
      <trkpt lat="47.53936" lon="6.6771">
        <ele>375</ele>
        <time>2015-01-25T10:05:59.000Z</time>
      </trkpt>
      <trkpt lat="47.5394" lon="6.67711">
        <ele>375</ele>
        <time>2015-01-25T10:06:00.000Z</time>
      </trkpt>
      <trkpt lat="47.53944" lon="6.6771">
        <ele>375</ele>
        <time>2015-01-25T10:06:01.000Z</time>
      </trkpt>
      <trkpt lat="47.53948" lon="6.67708">
        <ele>375</ele>
        <time>2015-01-25T10:06:02.000Z</time>
      </trkpt>
      <trkpt lat="47.53952" lon="6.67706">
        <ele>375</ele>
        <time>2015-01-25T10:06:03.000Z</time>
      </trkpt>
      <trkpt lat="47.53956" lon="6.67705">
        <ele>375</ele>
        <time>2015-01-25T10:06:04.000Z</time>
      </trkpt>
      <trkpt lat="47.53959" lon="6.67703">
        <ele>375</ele>
        <time>2015-01-25T10:06:05.000Z</time>
      </trkpt>
      <trkpt lat="47.53963" lon="6.67702">
        <ele>375</ele>
        <time>2015-01-25T10:06:06.000Z</time>
      </trkpt>
      <trkpt lat="47.53967" lon="6.67701">
        <ele>375</ele>
        <time>2015-01-25T10:06:07.000Z</time>
      </trkpt>
      <trkpt lat="47.5397" lon="6.67699">
        <ele>375</ele>
        <time>2015-01-25T10:06:08.000Z</time>
      </trkpt>
      <trkpt lat="47.53974" lon="6.67695">
        <ele>375</ele>
        <time>2015-01-25T10:06:09.000Z</time>
      </trkpt>
      <trkpt lat="47.53978" lon="6.67694">
        <ele>375</ele>
        <time>2015-01-25T10:06:10.000Z</time>
      </trkpt>
      <trkpt lat="47.53982" lon="6.67692">
        <ele>375</ele>
        <time>2015-01-25T10:06:11.000Z</time>
      </trkpt>
      <trkpt lat="47.53986" lon="6.67691">
        <ele>375</ele>
        <time>2015-01-25T10:06:12.000Z</time>
      </trkpt>
      <trkpt lat="47.5399" lon="6.67689">
        <ele>375</ele>
        <time>2015-01-25T10:06:13.000Z</time>
      </trkpt>
      <trkpt lat="47.53994" lon="6.67686">
        <ele>375</ele>
        <time>2015-01-25T10:06:14.000Z</time>
      </trkpt>
      <trkpt lat="47.53998" lon="6.67683">
        <ele>375</ele>
        <time>2015-01-25T10:06:15.000Z</time>
      </trkpt>
      <trkpt lat="47.54001" lon="6.6768">
        <ele>378</ele>
        <time>2015-01-25T10:06:16.000Z</time>
      </trkpt>
      <trkpt lat="47.54005" lon="6.67676">
        <ele>378</ele>
        <time>2015-01-25T10:06:17.000Z</time>
      </trkpt>
      <trkpt lat="47.54008" lon="6.67672">
        <ele>378</ele>
        <time>2015-01-25T10:06:18.000Z</time>
      </trkpt>
      <trkpt lat="47.54011" lon="6.67668">
        <ele>378</ele>
        <time>2015-01-25T10:06:19.000Z</time>
      </trkpt>
      <trkpt lat="47.54015" lon="6.67664">
        <ele>378</ele>
        <time>2015-01-25T10:06:20.000Z</time>
      </trkpt>
      <trkpt lat="47.54018" lon="6.67659">
        <ele>378</ele>
        <time>2015-01-25T10:06:21.000Z</time>
      </trkpt>
      <trkpt lat="47.54021" lon="6.67655">
        <ele>379</ele>
        <time>2015-01-25T10:06:22.000Z</time>
      </trkpt>
      <trkpt lat="47.54024" lon="6.6765">
        <ele>379</ele>
        <time>2015-01-25T10:06:23.000Z</time>
      </trkpt>
      <trkpt lat="47.54028" lon="6.67645">
        <ele>380</ele>
        <time>2015-01-25T10:06:24.000Z</time>
      </trkpt>
      <trkpt lat="47.54031" lon="6.67641">
        <ele>380</ele>
        <time>2015-01-25T10:06:25.000Z</time>
      </trkpt>
      <trkpt lat="47.54034" lon="6.67637">
        <ele>380</ele>
        <time>2015-01-25T10:06:26.000Z</time>
      </trkpt>
      <trkpt lat="47.54038" lon="6.67633">
        <ele>381</ele>
        <time>2015-01-25T10:06:27.000Z</time>
      </trkpt>
      <trkpt lat="47.54041" lon="6.67629">
        <ele>381</ele>
        <time>2015-01-25T10:06:28.000Z</time>
      </trkpt>
      <trkpt lat="47.54044" lon="6.67626">
        <ele>381</ele>
        <time>2015-01-25T10:06:29.000Z</time>
      </trkpt>
      <trkpt lat="47.54047" lon="6.67623">
        <ele>381</ele>
        <time>2015-01-25T10:06:30.000Z</time>
      </trkpt>
      <trkpt lat="47.5405" lon="6.67621">
        <ele>381</ele>
        <time>2015-01-25T10:06:31.000Z</time>
      </trkpt>
      <trkpt lat="47.54053" lon="6.6762">
        <ele>381</ele>
        <time>2015-01-25T10:06:32.000Z</time>
      </trkpt>
      <trkpt lat="47.54056" lon="6.67618">
        <ele>382</ele>
        <time>2015-01-25T10:06:33.000Z</time>
      </trkpt>
      <trkpt lat="47.54059" lon="6.67617">
        <ele>382</ele>
        <time>2015-01-25T10:06:34.000Z</time>
      </trkpt>
      <trkpt lat="47.54062" lon="6.67616">
        <ele>382</ele>
        <time>2015-01-25T10:06:35.000Z</time>
      </trkpt>
      <trkpt lat="47.54065" lon="6.67614">
        <ele>382</ele>
        <time>2015-01-25T10:06:36.000Z</time>
      </trkpt>
      <trkpt lat="47.54068" lon="6.67614">
        <ele>382</ele>
        <time>2015-01-25T10:06:37.000Z</time>
      </trkpt>
      <trkpt lat="47.54072" lon="6.67613">
        <ele>383</ele>
        <time>2015-01-25T10:06:38.000Z</time>
      </trkpt>
      <trkpt lat="47.54075" lon="6.67613">
        <ele>383</ele>
        <time>2015-01-25T10:06:39.000Z</time>
      </trkpt>
      <trkpt lat="47.54079" lon="6.67613">
        <ele>383</ele>
        <time>2015-01-25T10:06:40.000Z</time>
      </trkpt>
      <trkpt lat="47.54082" lon="6.67614">
        <ele>383</ele>
        <time>2015-01-25T10:06:41.000Z</time>
      </trkpt>
      <trkpt lat="47.54086" lon="6.67614">
        <ele>387</ele>
        <time>2015-01-25T10:06:42.000Z</time>
      </trkpt>
      <trkpt lat="47.5409" lon="6.67615">
        <ele>387</ele>
        <time>2015-01-25T10:06:43.000Z</time>
      </trkpt>
      <trkpt lat="47.54093" lon="6.67615">
        <ele>387</ele>
        <time>2015-01-25T10:06:44.000Z</time>
      </trkpt>
      <trkpt lat="47.54118" lon="6.67614">
        <ele>388</ele>
        <time>2015-01-25T10:06:53.000Z</time>
      </trkpt>
      <trkpt lat="47.5412" lon="6.67612">
        <ele>388</ele>
        <time>2015-01-25T10:06:55.000Z</time>
      </trkpt>
      <trkpt lat="47.54122" lon="6.6761">
        <ele>388</ele>
        <time>2015-01-25T10:06:56.000Z</time>
      </trkpt>
      <trkpt lat="47.54125" lon="6.67608">
        <ele>388</ele>
        <time>2015-01-25T10:06:57.000Z</time>
      </trkpt>
      <trkpt lat="47.54128" lon="6.67607">
        <ele>387</ele>
        <time>2015-01-25T10:06:58.000Z</time>
      </trkpt>
      <trkpt lat="47.5413" lon="6.67605">
        <ele>387</ele>
        <time>2015-01-25T10:06:59.000Z</time>
      </trkpt>
      <trkpt lat="47.54133" lon="6.67604">
        <ele>387</ele>
        <time>2015-01-25T10:07:00.000Z</time>
      </trkpt>
      <trkpt lat="47.54137" lon="6.67603">
        <ele>387</ele>
        <time>2015-01-25T10:07:01.000Z</time>
      </trkpt>
      <trkpt lat="47.5414" lon="6.67602">
        <ele>387</ele>
        <time>2015-01-25T10:07:02.000Z</time>
      </trkpt>
      <trkpt lat="47.54144" lon="6.67601">
        <ele>387</ele>
        <time>2015-01-25T10:07:03.000Z</time>
      </trkpt>
      <trkpt lat="47.54148" lon="6.67601">
        <ele>387</ele>
        <time>2015-01-25T10:07:04.000Z</time>
      </trkpt>
      <trkpt lat="47.54152" lon="6.676">
        <ele>387</ele>
        <time>2015-01-25T10:07:05.000Z</time>
      </trkpt>
      <trkpt lat="47.54157" lon="6.67599">
        <ele>386</ele>
        <time>2015-01-25T10:07:06.000Z</time>
      </trkpt>
      <trkpt lat="47.54162" lon="6.67599">
        <ele>386</ele>
        <time>2015-01-25T10:07:07.000Z</time>
      </trkpt>
      <trkpt lat="47.54167" lon="6.67598">
        <ele>387</ele>
        <time>2015-01-25T10:07:08.000Z</time>
      </trkpt>
      <trkpt lat="47.54172" lon="6.67598">
        <ele>387</ele>
        <time>2015-01-25T10:07:09.000Z</time>
      </trkpt>
      <trkpt lat="47.54176" lon="6.67597">
        <ele>387</ele>
        <time>2015-01-25T10:07:10.000Z</time>
      </trkpt>
      <trkpt lat="47.5418" lon="6.67596">
        <ele>387</ele>
        <time>2015-01-25T10:07:11.000Z</time>
      </trkpt>
      <trkpt lat="47.54185" lon="6.67595">
        <ele>387</ele>
        <time>2015-01-25T10:07:12.000Z</time>
      </trkpt>
      <trkpt lat="47.5419" lon="6.67595">
        <ele>388</ele>
        <time>2015-01-25T10:07:13.000Z</time>
      </trkpt>
      <trkpt lat="47.54195" lon="6.67595">
        <ele>388</ele>
        <time>2015-01-25T10:07:14.000Z</time>
      </trkpt>
      <trkpt lat="47.542" lon="6.67596">
        <ele>388</ele>
        <time>2015-01-25T10:07:15.000Z</time>
      </trkpt>
      <trkpt lat="47.54205" lon="6.67596">
        <ele>388</ele>
        <time>2015-01-25T10:07:16.000Z</time>
      </trkpt>
      <trkpt lat="47.5421" lon="6.67596">
        <ele>388</ele>
        <time>2015-01-25T10:07:17.000Z</time>
      </trkpt>
      <trkpt lat="47.54216" lon="6.67596">
        <ele>388</ele>
        <time>2015-01-25T10:07:18.000Z</time>
      </trkpt>
      <trkpt lat="47.54221" lon="6.67596">
        <ele>388</ele>
        <time>2015-01-25T10:07:19.000Z</time>
      </trkpt>
      <trkpt lat="47.54226" lon="6.67596">
        <ele>388</ele>
        <time>2015-01-25T10:07:20.000Z</time>
      </trkpt>
      <trkpt lat="47.54231" lon="6.67596">
        <ele>387</ele>
        <time>2015-01-25T10:07:21.000Z</time>
      </trkpt>
      <trkpt lat="47.54236" lon="6.67596">
        <ele>387</ele>
        <time>2015-01-25T10:07:22.000Z</time>
      </trkpt>
      <trkpt lat="47.54242" lon="6.67596">
        <ele>387</ele>
        <time>2015-01-25T10:07:23.000Z</time>
      </trkpt>
      <trkpt lat="47.54248" lon="6.67596">
        <ele>387</ele>
        <time>2015-01-25T10:07:24.000Z</time>
      </trkpt>
      <trkpt lat="47.54254" lon="6.67596">
        <ele>388</ele>
        <time>2015-01-25T10:07:25.000Z</time>
      </trkpt>
      <trkpt lat="47.5426" lon="6.67595">
        <ele>388</ele>
        <time>2015-01-25T10:07:26.000Z</time>
      </trkpt>
      <trkpt lat="47.54266" lon="6.67594">
        <ele>388</ele>
        <time>2015-01-25T10:07:27.000Z</time>
      </trkpt>
      <trkpt lat="47.54271" lon="6.67593">
        <ele>389</ele>
        <time>2015-01-25T10:07:28.000Z</time>
      </trkpt>
      <trkpt lat="47.54277" lon="6.67591">
        <ele>389</ele>
        <time>2015-01-25T10:07:29.000Z</time>
      </trkpt>
      <trkpt lat="47.54283" lon="6.6759">
        <ele>390</ele>
        <time>2015-01-25T10:07:30.000Z</time>
      </trkpt>
      <trkpt lat="47.54288" lon="6.67588">
        <ele>390</ele>
        <time>2015-01-25T10:07:31.000Z</time>
      </trkpt>
      <trkpt lat="47.54293" lon="6.67587">
        <ele>390</ele>
        <time>2015-01-25T10:07:32.000Z</time>
      </trkpt>
      <trkpt lat="47.54297" lon="6.67585">
        <ele>390</ele>
        <time>2015-01-25T10:07:33.000Z</time>
      </trkpt>
      <trkpt lat="47.54302" lon="6.67583">
        <ele>385</ele>
        <time>2015-01-25T10:07:34.000Z</time>
      </trkpt>
      <trkpt lat="47.54307" lon="6.6758">
        <ele>385</ele>
        <time>2015-01-25T10:07:35.000Z</time>
      </trkpt>
      <trkpt lat="47.54312" lon="6.67578">
        <ele>386</ele>
        <time>2015-01-25T10:07:36.000Z</time>
      </trkpt>
      <trkpt lat="47.54316" lon="6.67576">
        <ele>386</ele>
        <time>2015-01-25T10:07:37.000Z</time>
      </trkpt>
      <trkpt lat="47.5432" lon="6.67574">
        <ele>386</ele>
        <time>2015-01-25T10:07:38.000Z</time>
      </trkpt>
      <trkpt lat="47.54324" lon="6.67572">
        <ele>386</ele>
        <time>2015-01-25T10:07:39.000Z</time>
      </trkpt>
      <trkpt lat="47.54328" lon="6.6757">
        <ele>386</ele>
        <time>2015-01-25T10:07:40.000Z</time>
      </trkpt>
      <trkpt lat="47.54332" lon="6.67568">
        <ele>386</ele>
        <time>2015-01-25T10:07:41.000Z</time>
      </trkpt>
      <trkpt lat="47.54336" lon="6.67566">
        <ele>389</ele>
        <time>2015-01-25T10:07:42.000Z</time>
      </trkpt>
      <trkpt lat="47.5434" lon="6.67565">
        <ele>389</ele>
        <time>2015-01-25T10:07:43.000Z</time>
      </trkpt>
      <trkpt lat="47.54344" lon="6.67563">
        <ele>389</ele>
        <time>2015-01-25T10:07:44.000Z</time>
      </trkpt>
      <trkpt lat="47.54355" lon="6.67559">
        <ele>389</ele>
        <time>2015-01-25T10:07:47.000Z</time>
      </trkpt>
      <trkpt lat="47.54359" lon="6.67558">
        <ele>389</ele>
        <time>2015-01-25T10:07:48.000Z</time>
      </trkpt>
      <trkpt lat="47.54363" lon="6.67556">
        <ele>390</ele>
        <time>2015-01-25T10:07:49.000Z</time>
      </trkpt>
      <trkpt lat="47.54368" lon="6.67553">
        <ele>390</ele>
        <time>2015-01-25T10:07:50.000Z</time>
      </trkpt>
      <trkpt lat="47.54372" lon="6.67551">
        <ele>390</ele>
        <time>2015-01-25T10:07:51.000Z</time>
      </trkpt>
      <trkpt lat="47.54377" lon="6.67549">
        <ele>390</ele>
        <time>2015-01-25T10:07:52.000Z</time>
      </trkpt>
      <trkpt lat="47.54381" lon="6.67547">
        <ele>390</ele>
        <time>2015-01-25T10:07:53.000Z</time>
      </trkpt>
      <trkpt lat="47.54385" lon="6.67545">
        <ele>390</ele>
        <time>2015-01-25T10:07:54.000Z</time>
      </trkpt>
      <trkpt lat="47.54388" lon="6.67543">
        <ele>390</ele>
        <time>2015-01-25T10:07:55.000Z</time>
      </trkpt>
      <trkpt lat="47.54392" lon="6.67542">
        <ele>390</ele>
        <time>2015-01-25T10:07:56.000Z</time>
      </trkpt>
      <trkpt lat="47.54395" lon="6.6754">
        <ele>390</ele>
        <time>2015-01-25T10:07:57.000Z</time>
      </trkpt>
      <trkpt lat="47.54397" lon="6.67539">
        <ele>390</ele>
        <time>2015-01-25T10:07:58.000Z</time>
      </trkpt>
      <trkpt lat="47.544" lon="6.67538">
        <ele>390</ele>
        <time>2015-01-25T10:07:59.000Z</time>
      </trkpt>
      <trkpt lat="47.54402" lon="6.67537">
        <ele>390</ele>
        <time>2015-01-25T10:08:00.000Z</time>
      </trkpt>
      <trkpt lat="47.54405" lon="6.67537">
        <ele>390</ele>
        <time>2015-01-25T10:08:01.000Z</time>
      </trkpt>
      <trkpt lat="47.54408" lon="6.67536">
        <ele>390</ele>
        <time>2015-01-25T10:08:02.000Z</time>
      </trkpt>
      <trkpt lat="47.54411" lon="6.67535">
        <ele>390</ele>
        <time>2015-01-25T10:08:03.000Z</time>
      </trkpt>
      <trkpt lat="47.54414" lon="6.67534">
        <ele>390</ele>
        <time>2015-01-25T10:08:04.000Z</time>
      </trkpt>
      <trkpt lat="47.54417" lon="6.67533">
        <ele>394</ele>
        <time>2015-01-25T10:08:05.000Z</time>
      </trkpt>
      <trkpt lat="47.5442" lon="6.67533">
        <ele>394</ele>
        <time>2015-01-25T10:08:06.000Z</time>
      </trkpt>
      <trkpt lat="47.54423" lon="6.67532">
        <ele>394</ele>
        <time>2015-01-25T10:08:07.000Z</time>
      </trkpt>
      <trkpt lat="47.54426" lon="6.67532">
        <ele>394</ele>
        <time>2015-01-25T10:08:08.000Z</time>
      </trkpt>
      <trkpt lat="47.54429" lon="6.67532">
        <ele>394</ele>
        <time>2015-01-25T10:08:09.000Z</time>
      </trkpt>
      <trkpt lat="47.54432" lon="6.67532">
        <ele>394</ele>
        <time>2015-01-25T10:08:10.000Z</time>
      </trkpt>
      <trkpt lat="47.54435" lon="6.67531">
        <ele>394</ele>
        <time>2015-01-25T10:08:11.000Z</time>
      </trkpt>
      <trkpt lat="47.54439" lon="6.67531">
        <ele>394</ele>
        <time>2015-01-25T10:08:12.000Z</time>
      </trkpt>
      <trkpt lat="47.54442" lon="6.6753">
        <ele>394</ele>
        <time>2015-01-25T10:08:13.000Z</time>
      </trkpt>
      <trkpt lat="47.54446" lon="6.67529">
        <ele>394</ele>
        <time>2015-01-25T10:08:14.000Z</time>
      </trkpt>
      <trkpt lat="47.5445" lon="6.67527">
        <ele>394</ele>
        <time>2015-01-25T10:08:15.000Z</time>
      </trkpt>
      <trkpt lat="47.54454" lon="6.67526">
        <ele>394</ele>
        <time>2015-01-25T10:08:16.000Z</time>
      </trkpt>
      <trkpt lat="47.54458" lon="6.67525">
        <ele>394</ele>
        <time>2015-01-25T10:08:17.000Z</time>
      </trkpt>
      <trkpt lat="47.54461" lon="6.67525">
        <ele>394</ele>
        <time>2015-01-25T10:08:18.000Z</time>
      </trkpt>
      <trkpt lat="47.54465" lon="6.67524">
        <ele>394</ele>
        <time>2015-01-25T10:08:19.000Z</time>
      </trkpt>
      <trkpt lat="47.54469" lon="6.67523">
        <ele>394</ele>
        <time>2015-01-25T10:08:20.000Z</time>
      </trkpt>
      <trkpt lat="47.54473" lon="6.67523">
        <ele>394</ele>
        <time>2015-01-25T10:08:21.000Z</time>
      </trkpt>
      <trkpt lat="47.54476" lon="6.67523">
        <ele>394</ele>
        <time>2015-01-25T10:08:22.000Z</time>
      </trkpt>
      <trkpt lat="47.5448" lon="6.67522">
        <ele>394</ele>
        <time>2015-01-25T10:08:23.000Z</time>
      </trkpt>
      <trkpt lat="47.54484" lon="6.67522">
        <ele>394</ele>
        <time>2015-01-25T10:08:24.000Z</time>
      </trkpt>
      <trkpt lat="47.54487" lon="6.67522">
        <ele>394</ele>
        <time>2015-01-25T10:08:25.000Z</time>
      </trkpt>
      <trkpt lat="47.54491" lon="6.67522">
        <ele>394</ele>
        <time>2015-01-25T10:08:26.000Z</time>
      </trkpt>
      <trkpt lat="47.54494" lon="6.67522">
        <ele>394</ele>
        <time>2015-01-25T10:08:27.000Z</time>
      </trkpt>
      <trkpt lat="47.54498" lon="6.67522">
        <ele>394</ele>
        <time>2015-01-25T10:08:28.000Z</time>
      </trkpt>
      <trkpt lat="47.54501" lon="6.67522">
        <ele>396</ele>
        <time>2015-01-25T10:08:29.000Z</time>
      </trkpt>
      <trkpt lat="47.54505" lon="6.67522">
        <ele>396</ele>
        <time>2015-01-25T10:08:30.000Z</time>
      </trkpt>
      <trkpt lat="47.54508" lon="6.67521">
        <ele>396</ele>
        <time>2015-01-25T10:08:31.000Z</time>
      </trkpt>
      <trkpt lat="47.54512" lon="6.6752">
        <ele>396</ele>
        <time>2015-01-25T10:08:32.000Z</time>
      </trkpt>
      <trkpt lat="47.54516" lon="6.6752">
        <ele>396</ele>
        <time>2015-01-25T10:08:33.000Z</time>
      </trkpt>
      <trkpt lat="47.54519" lon="6.67519">
        <ele>396</ele>
        <time>2015-01-25T10:08:34.000Z</time>
      </trkpt>
      <trkpt lat="47.54522" lon="6.67519">
        <ele>396</ele>
        <time>2015-01-25T10:08:35.000Z</time>
      </trkpt>
      <trkpt lat="47.54526" lon="6.67518">
        <ele>396</ele>
        <time>2015-01-25T10:08:36.000Z</time>
      </trkpt>
      <trkpt lat="47.54529" lon="6.67518">
        <ele>397</ele>
        <time>2015-01-25T10:08:37.000Z</time>
      </trkpt>
      <trkpt lat="47.54532" lon="6.67518">
        <ele>397</ele>
        <time>2015-01-25T10:08:38.000Z</time>
      </trkpt>
      <trkpt lat="47.54535" lon="6.67518">
        <ele>397</ele>
        <time>2015-01-25T10:08:39.000Z</time>
      </trkpt>
      <trkpt lat="47.54539" lon="6.67517">
        <ele>397</ele>
        <time>2015-01-25T10:08:40.000Z</time>
      </trkpt>
      <trkpt lat="47.54542" lon="6.67517">
        <ele>397</ele>
        <time>2015-01-25T10:08:41.000Z</time>
      </trkpt>
      <trkpt lat="47.54545" lon="6.67517">
        <ele>397</ele>
        <time>2015-01-25T10:08:42.000Z</time>
      </trkpt>
      <trkpt lat="47.54548" lon="6.67516">
        <ele>397</ele>
        <time>2015-01-25T10:08:43.000Z</time>
      </trkpt>
      <trkpt lat="47.54552" lon="6.67516">
        <ele>397</ele>
        <time>2015-01-25T10:08:44.000Z</time>
      </trkpt>
      <trkpt lat="47.5456" lon="6.67516">
        <ele>397</ele>
        <time>2015-01-25T10:08:47.000Z</time>
      </trkpt>
      <trkpt lat="47.54562" lon="6.67516">
        <ele>397</ele>
        <time>2015-01-25T10:08:48.000Z</time>
      </trkpt>
      <trkpt lat="47.54565" lon="6.67517">
        <ele>397</ele>
        <time>2015-01-25T10:08:49.000Z</time>
      </trkpt>
      <trkpt lat="47.54568" lon="6.67518">
        <ele>397</ele>
        <time>2015-01-25T10:08:50.000Z</time>
      </trkpt>
      <trkpt lat="47.5457" lon="6.67518">
        <ele>396</ele>
        <time>2015-01-25T10:08:51.000Z</time>
      </trkpt>
      <trkpt lat="47.54573" lon="6.67519">
        <ele>396</ele>
        <time>2015-01-25T10:08:52.000Z</time>
      </trkpt>
      <trkpt lat="47.54577" lon="6.67519">
        <ele>396</ele>
        <time>2015-01-25T10:08:53.000Z</time>
      </trkpt>
      <trkpt lat="47.5458" lon="6.67519">
        <ele>396</ele>
        <time>2015-01-25T10:08:54.000Z</time>
      </trkpt>
      <trkpt lat="47.54584" lon="6.67519">
        <ele>397</ele>
        <time>2015-01-25T10:08:55.000Z</time>
      </trkpt>
      <trkpt lat="47.54587" lon="6.67519">
        <ele>397</ele>
        <time>2015-01-25T10:08:56.000Z</time>
      </trkpt>
      <trkpt lat="47.5459" lon="6.67519">
        <ele>397</ele>
        <time>2015-01-25T10:08:57.000Z</time>
      </trkpt>
      <trkpt lat="47.54593" lon="6.6752">
        <ele>397</ele>
        <time>2015-01-25T10:08:58.000Z</time>
      </trkpt>
      <trkpt lat="47.54596" lon="6.67521">
        <ele>398</ele>
        <time>2015-01-25T10:08:59.000Z</time>
      </trkpt>
      <trkpt lat="47.54599" lon="6.67521">
        <ele>398</ele>
        <time>2015-01-25T10:09:00.000Z</time>
      </trkpt>
      <trkpt lat="47.54602" lon="6.67521">
        <ele>398</ele>
        <time>2015-01-25T10:09:01.000Z</time>
      </trkpt>
      <trkpt lat="47.54605" lon="6.67522">
        <ele>399</ele>
        <time>2015-01-25T10:09:02.000Z</time>
      </trkpt>
      <trkpt lat="47.54608" lon="6.67523">
        <ele>399</ele>
        <time>2015-01-25T10:09:03.000Z</time>
      </trkpt>
      <trkpt lat="47.54611" lon="6.67525">
        <ele>399</ele>
        <time>2015-01-25T10:09:04.000Z</time>
      </trkpt>
      <trkpt lat="47.54615" lon="6.67526">
        <ele>399</ele>
        <time>2015-01-25T10:09:05.000Z</time>
      </trkpt>
      <trkpt lat="47.54618" lon="6.67527">
        <ele>399</ele>
        <time>2015-01-25T10:09:06.000Z</time>
      </trkpt>
      <trkpt lat="47.54622" lon="6.67529">
        <ele>400</ele>
        <time>2015-01-25T10:09:07.000Z</time>
      </trkpt>
      <trkpt lat="47.54625" lon="6.6753">
        <ele>400</ele>
        <time>2015-01-25T10:09:08.000Z</time>
      </trkpt>
      <trkpt lat="47.54629" lon="6.67532">
        <ele>400</ele>
        <time>2015-01-25T10:09:09.000Z</time>
      </trkpt>
      <trkpt lat="47.54633" lon="6.67533">
        <ele>400</ele>
        <time>2015-01-25T10:09:10.000Z</time>
      </trkpt>
      <trkpt lat="47.54636" lon="6.67534">
        <ele>400</ele>
        <time>2015-01-25T10:09:11.000Z</time>
      </trkpt>
      <trkpt lat="47.54639" lon="6.67535">
        <ele>400</ele>
        <time>2015-01-25T10:09:12.000Z</time>
      </trkpt>
      <trkpt lat="47.54642" lon="6.67535">
        <ele>400</ele>
        <time>2015-01-25T10:09:13.000Z</time>
      </trkpt>
      <trkpt lat="47.54645" lon="6.67536">
        <ele>400</ele>
        <time>2015-01-25T10:09:14.000Z</time>
      </trkpt>
      <trkpt lat="47.54648" lon="6.67536">
        <ele>400</ele>
        <time>2015-01-25T10:09:15.000Z</time>
      </trkpt>
      <trkpt lat="47.54651" lon="6.67537">
        <ele>400</ele>
        <time>2015-01-25T10:09:16.000Z</time>
      </trkpt>
      <trkpt lat="47.54654" lon="6.67537">
        <ele>401</ele>
        <time>2015-01-25T10:09:17.000Z</time>
      </trkpt>
      <trkpt lat="47.54657" lon="6.67538">
        <ele>401</ele>
        <time>2015-01-25T10:09:18.000Z</time>
      </trkpt>
      <trkpt lat="47.5466" lon="6.67539">
        <ele>401</ele>
        <time>2015-01-25T10:09:19.000Z</time>
      </trkpt>
      <trkpt lat="47.54663" lon="6.6754">
        <ele>401</ele>
        <time>2015-01-25T10:09:20.000Z</time>
      </trkpt>
      <trkpt lat="47.54666" lon="6.6754">
        <ele>401</ele>
        <time>2015-01-25T10:09:21.000Z</time>
      </trkpt>
      <trkpt lat="47.54668" lon="6.67541">
        <ele>404</ele>
        <time>2015-01-25T10:09:22.000Z</time>
      </trkpt>
      <trkpt lat="47.54672" lon="6.67542">
        <ele>404</ele>
        <time>2015-01-25T10:09:23.000Z</time>
      </trkpt>
      <trkpt lat="47.54675" lon="6.67543">
        <ele>404</ele>
        <time>2015-01-25T10:09:24.000Z</time>
      </trkpt>
      <trkpt lat="47.54678" lon="6.67544">
        <ele>404</ele>
        <time>2015-01-25T10:09:25.000Z</time>
      </trkpt>
      <trkpt lat="47.54681" lon="6.67545">
        <ele>404</ele>
        <time>2015-01-25T10:09:26.000Z</time>
      </trkpt>
      <trkpt lat="47.54685" lon="6.67546">
        <ele>405</ele>
        <time>2015-01-25T10:09:27.000Z</time>
      </trkpt>
      <trkpt lat="47.54688" lon="6.67546">
        <ele>405</ele>
        <time>2015-01-25T10:09:28.000Z</time>
      </trkpt>
      <trkpt lat="47.54692" lon="6.67547">
        <ele>405</ele>
        <time>2015-01-25T10:09:29.000Z</time>
      </trkpt>
      <trkpt lat="47.54695" lon="6.67547">
        <ele>405</ele>
        <time>2015-01-25T10:09:30.000Z</time>
      </trkpt>
      <trkpt lat="47.54698" lon="6.67548">
        <ele>405</ele>
        <time>2015-01-25T10:09:31.000Z</time>
      </trkpt>
      <trkpt lat="47.54702" lon="6.67548">
        <ele>405</ele>
        <time>2015-01-25T10:09:32.000Z</time>
      </trkpt>
      <trkpt lat="47.54706" lon="6.67548">
        <ele>406</ele>
        <time>2015-01-25T10:09:33.000Z</time>
      </trkpt>
      <trkpt lat="47.54709" lon="6.67548">
        <ele>406</ele>
        <time>2015-01-25T10:09:34.000Z</time>
      </trkpt>
      <trkpt lat="47.54713" lon="6.67547">
        <ele>406</ele>
        <time>2015-01-25T10:09:35.000Z</time>
      </trkpt>
      <trkpt lat="47.54717" lon="6.67546">
        <ele>406</ele>
        <time>2015-01-25T10:09:36.000Z</time>
      </trkpt>
      <trkpt lat="47.54721" lon="6.67546">
        <ele>406</ele>
        <time>2015-01-25T10:09:37.000Z</time>
      </trkpt>
      <trkpt lat="47.54724" lon="6.67545">
        <ele>406</ele>
        <time>2015-01-25T10:09:38.000Z</time>
      </trkpt>
      <trkpt lat="47.54727" lon="6.67545">
        <ele>406</ele>
        <time>2015-01-25T10:09:39.000Z</time>
      </trkpt>
      <trkpt lat="47.54731" lon="6.67545">
        <ele>406</ele>
        <time>2015-01-25T10:09:40.000Z</time>
      </trkpt>
      <trkpt lat="47.54734" lon="6.67546">
        <ele>407</ele>
        <time>2015-01-25T10:09:41.000Z</time>
      </trkpt>
      <trkpt lat="47.54737" lon="6.67546">
        <ele>407</ele>
        <time>2015-01-25T10:09:42.000Z</time>
      </trkpt>
      <trkpt lat="47.5474" lon="6.67547">
        <ele>407</ele>
        <time>2015-01-25T10:09:43.000Z</time>
      </trkpt>
      <trkpt lat="47.54743" lon="6.67548">
        <ele>407</ele>
        <time>2015-01-25T10:09:44.000Z</time>
      </trkpt>
      <trkpt lat="47.5475" lon="6.6755">
        <ele>408</ele>
        <time>2015-01-25T10:09:47.000Z</time>
      </trkpt>
      <trkpt lat="47.54752" lon="6.67551">
        <ele>413</ele>
        <time>2015-01-25T10:09:48.000Z</time>
      </trkpt>
      <trkpt lat="47.54755" lon="6.67551">
        <ele>413</ele>
        <time>2015-01-25T10:09:49.000Z</time>
      </trkpt>
      <trkpt lat="47.54758" lon="6.67552">
        <ele>413</ele>
        <time>2015-01-25T10:09:50.000Z</time>
      </trkpt>
      <trkpt lat="47.5476" lon="6.67552">
        <ele>413</ele>
        <time>2015-01-25T10:09:51.000Z</time>
      </trkpt>
      <trkpt lat="47.54763" lon="6.67552">
        <ele>413</ele>
        <time>2015-01-25T10:09:52.000Z</time>
      </trkpt>
      <trkpt lat="47.54766" lon="6.67553">
        <ele>413</ele>
        <time>2015-01-25T10:09:53.000Z</time>
      </trkpt>
      <trkpt lat="47.54769" lon="6.67553">
        <ele>413</ele>
        <time>2015-01-25T10:09:54.000Z</time>
      </trkpt>
      <trkpt lat="47.54773" lon="6.67553">
        <ele>413</ele>
        <time>2015-01-25T10:09:55.000Z</time>
      </trkpt>
      <trkpt lat="47.54776" lon="6.67554">
        <ele>413</ele>
        <time>2015-01-25T10:09:56.000Z</time>
      </trkpt>
      <trkpt lat="47.54778" lon="6.67555">
        <ele>414</ele>
        <time>2015-01-25T10:09:57.000Z</time>
      </trkpt>
      <trkpt lat="47.54781" lon="6.67555">
        <ele>414</ele>
        <time>2015-01-25T10:09:58.000Z</time>
      </trkpt>
      <trkpt lat="47.54784" lon="6.67556">
        <ele>414</ele>
        <time>2015-01-25T10:09:59.000Z</time>
      </trkpt>
      <trkpt lat="47.54787" lon="6.67556">
        <ele>414</ele>
        <time>2015-01-25T10:10:00.000Z</time>
      </trkpt>
      <trkpt lat="47.5479" lon="6.67556">
        <ele>414</ele>
        <time>2015-01-25T10:10:01.000Z</time>
      </trkpt>
      <trkpt lat="47.54793" lon="6.67556">
        <ele>415</ele>
        <time>2015-01-25T10:10:02.000Z</time>
      </trkpt>
      <trkpt lat="47.54796" lon="6.67557">
        <ele>415</ele>
        <time>2015-01-25T10:10:03.000Z</time>
      </trkpt>
      <trkpt lat="47.54799" lon="6.67557">
        <ele>415</ele>
        <time>2015-01-25T10:10:04.000Z</time>
      </trkpt>
      <trkpt lat="47.54802" lon="6.67558">
        <ele>415</ele>
        <time>2015-01-25T10:10:05.000Z</time>
      </trkpt>
      <trkpt lat="47.54805" lon="6.67559">
        <ele>416</ele>
        <time>2015-01-25T10:10:06.000Z</time>
      </trkpt>
      <trkpt lat="47.54808" lon="6.67559">
        <ele>416</ele>
        <time>2015-01-25T10:10:07.000Z</time>
      </trkpt>
      <trkpt lat="47.54811" lon="6.6756">
        <ele>416</ele>
        <time>2015-01-25T10:10:08.000Z</time>
      </trkpt>
      <trkpt lat="47.54814" lon="6.6756">
        <ele>417</ele>
        <time>2015-01-25T10:10:09.000Z</time>
      </trkpt>
      <trkpt lat="47.54817" lon="6.6756">
        <ele>417</ele>
        <time>2015-01-25T10:10:10.000Z</time>
      </trkpt>
      <trkpt lat="47.5482" lon="6.67561">
        <ele>417</ele>
        <time>2015-01-25T10:10:11.000Z</time>
      </trkpt>
      <trkpt lat="47.54823" lon="6.67561">
        <ele>418</ele>
        <time>2015-01-25T10:10:12.000Z</time>
      </trkpt>
      <trkpt lat="47.54826" lon="6.67561">
        <ele>418</ele>
        <time>2015-01-25T10:10:13.000Z</time>
      </trkpt>
      <trkpt lat="47.54829" lon="6.67561">
        <ele>418</ele>
        <time>2015-01-25T10:10:14.000Z</time>
      </trkpt>
      <trkpt lat="47.54832" lon="6.67562">
        <ele>418</ele>
        <time>2015-01-25T10:10:15.000Z</time>
      </trkpt>
      <trkpt lat="47.54835" lon="6.67562">
        <ele>422</ele>
        <time>2015-01-25T10:10:16.000Z</time>
      </trkpt>
      <trkpt lat="47.54838" lon="6.67562">
        <ele>422</ele>
        <time>2015-01-25T10:10:17.000Z</time>
      </trkpt>
      <trkpt lat="47.54841" lon="6.67562">
        <ele>422</ele>
        <time>2015-01-25T10:10:18.000Z</time>
      </trkpt>
      <trkpt lat="47.54844" lon="6.67561">
        <ele>422</ele>
        <time>2015-01-25T10:10:19.000Z</time>
      </trkpt>
      <trkpt lat="47.54847" lon="6.67561">
        <ele>422</ele>
        <time>2015-01-25T10:10:20.000Z</time>
      </trkpt>
      <trkpt lat="47.5485" lon="6.67561">
        <ele>422</ele>
        <time>2015-01-25T10:10:21.000Z</time>
      </trkpt>
      <trkpt lat="47.54853" lon="6.67561">
        <ele>422</ele>
        <time>2015-01-25T10:10:22.000Z</time>
      </trkpt>
      <trkpt lat="47.54856" lon="6.67561">
        <ele>422</ele>
        <time>2015-01-25T10:10:23.000Z</time>
      </trkpt>
      <trkpt lat="47.54858" lon="6.67561">
        <ele>421</ele>
        <time>2015-01-25T10:10:24.000Z</time>
      </trkpt>
      <trkpt lat="47.54861" lon="6.67561">
        <ele>421</ele>
        <time>2015-01-25T10:10:25.000Z</time>
      </trkpt>
      <trkpt lat="47.54864" lon="6.67561">
        <ele>421</ele>
        <time>2015-01-25T10:10:26.000Z</time>
      </trkpt>
      <trkpt lat="47.54867" lon="6.67562">
        <ele>422</ele>
        <time>2015-01-25T10:10:27.000Z</time>
      </trkpt>
      <trkpt lat="47.54871" lon="6.67563">
        <ele>422</ele>
        <time>2015-01-25T10:10:28.000Z</time>
      </trkpt>
      <trkpt lat="47.54874" lon="6.67564">
        <ele>422</ele>
        <time>2015-01-25T10:10:29.000Z</time>
      </trkpt>
      <trkpt lat="47.54877" lon="6.67565">
        <ele>422</ele>
        <time>2015-01-25T10:10:30.000Z</time>
      </trkpt>
      <trkpt lat="47.5488" lon="6.67566">
        <ele>422</ele>
        <time>2015-01-25T10:10:31.000Z</time>
      </trkpt>
      <trkpt lat="47.54884" lon="6.67568">
        <ele>422</ele>
        <time>2015-01-25T10:10:32.000Z</time>
      </trkpt>
      <trkpt lat="47.54887" lon="6.67569">
        <ele>423</ele>
        <time>2015-01-25T10:10:33.000Z</time>
      </trkpt>
      <trkpt lat="47.5489" lon="6.6757">
        <ele>423</ele>
        <time>2015-01-25T10:10:34.000Z</time>
      </trkpt>
      <trkpt lat="47.54892" lon="6.67571">
        <ele>423</ele>
        <time>2015-01-25T10:10:35.000Z</time>
      </trkpt>
      <trkpt lat="47.54895" lon="6.67571">
        <ele>424</ele>
        <time>2015-01-25T10:10:36.000Z</time>
      </trkpt>
      <trkpt lat="47.54898" lon="6.67572">
        <ele>424</ele>
        <time>2015-01-25T10:10:37.000Z</time>
      </trkpt>
      <trkpt lat="47.54901" lon="6.67572">
        <ele>424</ele>
        <time>2015-01-25T10:10:38.000Z</time>
      </trkpt>
      <trkpt lat="47.54903" lon="6.67573">
        <ele>425</ele>
        <time>2015-01-25T10:10:39.000Z</time>
      </trkpt>
      <trkpt lat="47.54906" lon="6.67573">
        <ele>425</ele>
        <time>2015-01-25T10:10:40.000Z</time>
      </trkpt>
      <trkpt lat="47.54909" lon="6.67573">
        <ele>425</ele>
        <time>2015-01-25T10:10:41.000Z</time>
      </trkpt>
      <trkpt lat="47.54913" lon="6.67573">
        <ele>426</ele>
        <time>2015-01-25T10:10:42.000Z</time>
      </trkpt>
      <trkpt lat="47.54916" lon="6.67572">
        <ele>426</ele>
        <time>2015-01-25T10:10:43.000Z</time>
      </trkpt>
      <trkpt lat="47.54919" lon="6.67572">
        <ele>427</ele>
        <time>2015-01-25T10:10:44.000Z</time>
      </trkpt>
      <trkpt lat="47.54927" lon="6.67571">
        <ele>427</ele>
        <time>2015-01-25T10:10:47.000Z</time>
      </trkpt>
      <trkpt lat="47.5493" lon="6.67571">
        <ele>426</ele>
        <time>2015-01-25T10:10:48.000Z</time>
      </trkpt>
      <trkpt lat="47.54932" lon="6.67572">
        <ele>426</ele>
        <time>2015-01-25T10:10:49.000Z</time>
      </trkpt>
      <trkpt lat="47.54935" lon="6.67572">
        <ele>426</ele>
        <time>2015-01-25T10:10:50.000Z</time>
      </trkpt>
      <trkpt lat="47.54938" lon="6.67572">
        <ele>426</ele>
        <time>2015-01-25T10:10:51.000Z</time>
      </trkpt>
      <trkpt lat="47.5494" lon="6.67572">
        <ele>426</ele>
        <time>2015-01-25T10:10:52.000Z</time>
      </trkpt>
      <trkpt lat="47.54943" lon="6.67572">
        <ele>426</ele>
        <time>2015-01-25T10:10:53.000Z</time>
      </trkpt>
      <trkpt lat="47.54947" lon="6.67572">
        <ele>426</ele>
        <time>2015-01-25T10:10:54.000Z</time>
      </trkpt>
      <trkpt lat="47.5495" lon="6.67572">
        <ele>426</ele>
        <time>2015-01-25T10:10:55.000Z</time>
      </trkpt>
      <trkpt lat="47.54953" lon="6.67572">
        <ele>426</ele>
        <time>2015-01-25T10:10:56.000Z</time>
      </trkpt>
      <trkpt lat="47.54956" lon="6.67572">
        <ele>426</ele>
        <time>2015-01-25T10:10:57.000Z</time>
      </trkpt>
      <trkpt lat="47.5496" lon="6.67572">
        <ele>426</ele>
        <time>2015-01-25T10:10:58.000Z</time>
      </trkpt>
      <trkpt lat="47.54963" lon="6.67572">
        <ele>426</ele>
        <time>2015-01-25T10:10:59.000Z</time>
      </trkpt>
      <trkpt lat="47.54966" lon="6.67573">
        <ele>426</ele>
        <time>2015-01-25T10:11:00.000Z</time>
      </trkpt>
      <trkpt lat="47.54969" lon="6.67573">
        <ele>427</ele>
        <time>2015-01-25T10:11:01.000Z</time>
      </trkpt>
      <trkpt lat="47.54972" lon="6.67574">
        <ele>427</ele>
        <time>2015-01-25T10:11:02.000Z</time>
      </trkpt>
      <trkpt lat="47.54975" lon="6.67574">
        <ele>427</ele>
        <time>2015-01-25T10:11:03.000Z</time>
      </trkpt>
      <trkpt lat="47.54978" lon="6.67574">
        <ele>427</ele>
        <time>2015-01-25T10:11:04.000Z</time>
      </trkpt>
      <trkpt lat="47.54981" lon="6.67574">
        <ele>428</ele>
        <time>2015-01-25T10:11:05.000Z</time>
      </trkpt>
      <trkpt lat="47.54983" lon="6.67574">
        <ele>428</ele>
        <time>2015-01-25T10:11:06.000Z</time>
      </trkpt>
      <trkpt lat="47.54986" lon="6.67573">
        <ele>428</ele>
        <time>2015-01-25T10:11:07.000Z</time>
      </trkpt>
      <trkpt lat="47.54989" lon="6.67573">
        <ele>429</ele>
        <time>2015-01-25T10:11:08.000Z</time>
      </trkpt>
      <trkpt lat="47.54992" lon="6.67573">
        <ele>429</ele>
        <time>2015-01-25T10:11:09.000Z</time>
      </trkpt>
      <trkpt lat="47.54995" lon="6.67573">
        <ele>430</ele>
        <time>2015-01-25T10:11:10.000Z</time>
      </trkpt>
      <trkpt lat="47.54998" lon="6.67574">
        <ele>430</ele>
        <time>2015-01-25T10:11:11.000Z</time>
      </trkpt>
      <trkpt lat="47.55001" lon="6.67573">
        <ele>431</ele>
        <time>2015-01-25T10:11:12.000Z</time>
      </trkpt>
      <trkpt lat="47.55004" lon="6.67573">
        <ele>431</ele>
        <time>2015-01-25T10:11:13.000Z</time>
      </trkpt>
      <trkpt lat="47.55008" lon="6.67573">
        <ele>431</ele>
        <time>2015-01-25T10:11:14.000Z</time>
      </trkpt>
      <trkpt lat="47.55011" lon="6.67573">
        <ele>431</ele>
        <time>2015-01-25T10:11:15.000Z</time>
      </trkpt>
      <trkpt lat="47.55015" lon="6.67573">
        <ele>430</ele>
        <time>2015-01-25T10:11:16.000Z</time>
      </trkpt>
      <trkpt lat="47.55018" lon="6.67573">
        <ele>430</ele>
        <time>2015-01-25T10:11:17.000Z</time>
      </trkpt>
      <trkpt lat="47.55022" lon="6.67573">
        <ele>430</ele>
        <time>2015-01-25T10:11:18.000Z</time>
      </trkpt>
      <trkpt lat="47.55025" lon="6.67573">
        <ele>430</ele>
        <time>2015-01-25T10:11:19.000Z</time>
      </trkpt>
      <trkpt lat="47.55028" lon="6.67573">
        <ele>430</ele>
        <time>2015-01-25T10:11:20.000Z</time>
      </trkpt>
      <trkpt lat="47.55031" lon="6.67573">
        <ele>430</ele>
        <time>2015-01-25T10:11:21.000Z</time>
      </trkpt>
      <trkpt lat="47.55034" lon="6.67573">
        <ele>430</ele>
        <time>2015-01-25T10:11:22.000Z</time>
      </trkpt>
      <trkpt lat="47.55037" lon="6.67573">
        <ele>430</ele>
        <time>2015-01-25T10:11:23.000Z</time>
      </trkpt>
      <trkpt lat="47.55039" lon="6.67574">
        <ele>430</ele>
        <time>2015-01-25T10:11:24.000Z</time>
      </trkpt>
      <trkpt lat="47.55042" lon="6.67573">
        <ele>430</ele>
        <time>2015-01-25T10:11:25.000Z</time>
      </trkpt>
      <trkpt lat="47.55044" lon="6.67573">
        <ele>430</ele>
        <time>2015-01-25T10:11:26.000Z</time>
      </trkpt>
      <trkpt lat="47.55047" lon="6.67572">
        <ele>430</ele>
        <time>2015-01-25T10:11:27.000Z</time>
      </trkpt>
      <trkpt lat="47.55049" lon="6.67572">
        <ele>430</ele>
        <time>2015-01-25T10:11:28.000Z</time>
      </trkpt>
      <trkpt lat="47.55052" lon="6.67571">
        <ele>430</ele>
        <time>2015-01-25T10:11:29.000Z</time>
      </trkpt>
      <trkpt lat="47.55055" lon="6.6757">
        <ele>430</ele>
        <time>2015-01-25T10:11:30.000Z</time>
      </trkpt>
      <trkpt lat="47.55058" lon="6.6757">
        <ele>431</ele>
        <time>2015-01-25T10:11:31.000Z</time>
      </trkpt>
      <trkpt lat="47.55061" lon="6.67569">
        <ele>431</ele>
        <time>2015-01-25T10:11:32.000Z</time>
      </trkpt>
      <trkpt lat="47.55065" lon="6.67569">
        <ele>431</ele>
        <time>2015-01-25T10:11:33.000Z</time>
      </trkpt>
      <trkpt lat="47.55068" lon="6.6757">
        <ele>431</ele>
        <time>2015-01-25T10:11:34.000Z</time>
      </trkpt>
      <trkpt lat="47.55071" lon="6.6757">
        <ele>432</ele>
        <time>2015-01-25T10:11:35.000Z</time>
      </trkpt>
      <trkpt lat="47.55073" lon="6.6757">
        <ele>432</ele>
        <time>2015-01-25T10:11:36.000Z</time>
      </trkpt>
      <trkpt lat="47.55076" lon="6.67571">
        <ele>432</ele>
        <time>2015-01-25T10:11:37.000Z</time>
      </trkpt>
      <trkpt lat="47.55079" lon="6.67571">
        <ele>433</ele>
        <time>2015-01-25T10:11:38.000Z</time>
      </trkpt>
      <trkpt lat="47.55082" lon="6.67571">
        <ele>433</ele>
        <time>2015-01-25T10:11:39.000Z</time>
      </trkpt>
      <trkpt lat="47.55085" lon="6.67571">
        <ele>435</ele>
        <time>2015-01-25T10:11:40.000Z</time>
      </trkpt>
      <trkpt lat="47.55087" lon="6.67571">
        <ele>435</ele>
        <time>2015-01-25T10:11:41.000Z</time>
      </trkpt>
      <trkpt lat="47.5509" lon="6.67571">
        <ele>435</ele>
        <time>2015-01-25T10:11:42.000Z</time>
      </trkpt>
      <trkpt lat="47.55092" lon="6.67572">
        <ele>435</ele>
        <time>2015-01-25T10:11:43.000Z</time>
      </trkpt>
      <trkpt lat="47.55094" lon="6.67572">
        <ele>435</ele>
        <time>2015-01-25T10:11:44.000Z</time>
      </trkpt>
      <trkpt lat="47.55097" lon="6.67573">
        <ele>435</ele>
        <time>2015-01-25T10:11:45.000Z</time>
      </trkpt>
      <trkpt lat="47.55117" lon="6.67579">
        <ele>435</ele>
        <time>2015-01-25T10:11:53.000Z</time>
      </trkpt>
      <trkpt lat="47.5512" lon="6.6758">
        <ele>435</ele>
        <time>2015-01-25T10:11:55.000Z</time>
      </trkpt>
      <trkpt lat="47.55123" lon="6.67581">
        <ele>435</ele>
        <time>2015-01-25T10:11:56.000Z</time>
      </trkpt>
      <trkpt lat="47.55125" lon="6.67581">
        <ele>435</ele>
        <time>2015-01-25T10:11:57.000Z</time>
      </trkpt>
      <trkpt lat="47.55128" lon="6.67582">
        <ele>435</ele>
        <time>2015-01-25T10:11:58.000Z</time>
      </trkpt>
      <trkpt lat="47.5513" lon="6.67582">
        <ele>435</ele>
        <time>2015-01-25T10:11:59.000Z</time>
      </trkpt>
      <trkpt lat="47.55132" lon="6.67583">
        <ele>436</ele>
        <time>2015-01-25T10:12:00.000Z</time>
      </trkpt>
      <trkpt lat="47.55134" lon="6.67584">
        <ele>444</ele>
        <time>2015-01-25T10:12:01.000Z</time>
      </trkpt>
      <trkpt lat="47.55137" lon="6.67585">
        <ele>444</ele>
        <time>2015-01-25T10:12:02.000Z</time>
      </trkpt>
      <trkpt lat="47.55139" lon="6.67585">
        <ele>444</ele>
        <time>2015-01-25T10:12:03.000Z</time>
      </trkpt>
      <trkpt lat="47.55142" lon="6.67585">
        <ele>443</ele>
        <time>2015-01-25T10:12:04.000Z</time>
      </trkpt>
      <trkpt lat="47.55145" lon="6.67586">
        <ele>443</ele>
        <time>2015-01-25T10:12:05.000Z</time>
      </trkpt>
      <trkpt lat="47.55149" lon="6.67587">
        <ele>443</ele>
        <time>2015-01-25T10:12:06.000Z</time>
      </trkpt>
      <trkpt lat="47.55152" lon="6.67587">
        <ele>443</ele>
        <time>2015-01-25T10:12:07.000Z</time>
      </trkpt>
      <trkpt lat="47.55156" lon="6.67588">
        <ele>442</ele>
        <time>2015-01-25T10:12:08.000Z</time>
      </trkpt>
      <trkpt lat="47.55159" lon="6.67588">
        <ele>442</ele>
        <time>2015-01-25T10:12:09.000Z</time>
      </trkpt>
      <trkpt lat="47.55162" lon="6.67589">
        <ele>442</ele>
        <time>2015-01-25T10:12:10.000Z</time>
      </trkpt>
      <trkpt lat="47.55165" lon="6.67589">
        <ele>441</ele>
        <time>2015-01-25T10:12:11.000Z</time>
      </trkpt>
      <trkpt lat="47.55169" lon="6.67589">
        <ele>442</ele>
        <time>2015-01-25T10:12:12.000Z</time>
      </trkpt>
      <trkpt lat="47.55171" lon="6.67589">
        <ele>442</ele>
        <time>2015-01-25T10:12:13.000Z</time>
      </trkpt>
      <trkpt lat="47.55174" lon="6.67589">
        <ele>443</ele>
        <time>2015-01-25T10:12:14.000Z</time>
      </trkpt>
      <trkpt lat="47.55177" lon="6.67589">
        <ele>444</ele>
        <time>2015-01-25T10:12:15.000Z</time>
      </trkpt>
      <trkpt lat="47.5518" lon="6.6759">
        <ele>444</ele>
        <time>2015-01-25T10:12:16.000Z</time>
      </trkpt>
      <trkpt lat="47.55182" lon="6.6759">
        <ele>445</ele>
        <time>2015-01-25T10:12:17.000Z</time>
      </trkpt>
      <trkpt lat="47.55185" lon="6.67591">
        <ele>445</ele>
        <time>2015-01-25T10:12:18.000Z</time>
      </trkpt>
      <trkpt lat="47.55188" lon="6.67591">
        <ele>445</ele>
        <time>2015-01-25T10:12:19.000Z</time>
      </trkpt>
      <trkpt lat="47.5519" lon="6.67592">
        <ele>446</ele>
        <time>2015-01-25T10:12:20.000Z</time>
      </trkpt>
      <trkpt lat="47.55193" lon="6.67592">
        <ele>446</ele>
        <time>2015-01-25T10:12:21.000Z</time>
      </trkpt>
      <trkpt lat="47.55195" lon="6.67593">
        <ele>446</ele>
        <time>2015-01-25T10:12:22.000Z</time>
      </trkpt>
      <trkpt lat="47.55198" lon="6.67593">
        <ele>446</ele>
        <time>2015-01-25T10:12:23.000Z</time>
      </trkpt>
      <trkpt lat="47.55201" lon="6.67593">
        <ele>447</ele>
        <time>2015-01-25T10:12:24.000Z</time>
      </trkpt>
      <trkpt lat="47.55205" lon="6.67594">
        <ele>447</ele>
        <time>2015-01-25T10:12:25.000Z</time>
      </trkpt>
      <trkpt lat="47.55208" lon="6.67594">
        <ele>447</ele>
        <time>2015-01-25T10:12:26.000Z</time>
      </trkpt>
      <trkpt lat="47.55211" lon="6.67595">
        <ele>447</ele>
        <time>2015-01-25T10:12:27.000Z</time>
      </trkpt>
      <trkpt lat="47.55214" lon="6.67595">
        <ele>447</ele>
        <time>2015-01-25T10:12:28.000Z</time>
      </trkpt>
      <trkpt lat="47.55216" lon="6.67594">
        <ele>447</ele>
        <time>2015-01-25T10:12:29.000Z</time>
      </trkpt>
      <trkpt lat="47.55219" lon="6.67594">
        <ele>447</ele>
        <time>2015-01-25T10:12:30.000Z</time>
      </trkpt>
      <trkpt lat="47.55222" lon="6.67594">
        <ele>447</ele>
        <time>2015-01-25T10:12:31.000Z</time>
      </trkpt>
      <trkpt lat="47.55224" lon="6.67594">
        <ele>446</ele>
        <time>2015-01-25T10:12:32.000Z</time>
      </trkpt>
      <trkpt lat="47.55227" lon="6.67594">
        <ele>446</ele>
        <time>2015-01-25T10:12:33.000Z</time>
      </trkpt>
      <trkpt lat="47.55229" lon="6.67594">
        <ele>446</ele>
        <time>2015-01-25T10:12:34.000Z</time>
      </trkpt>
      <trkpt lat="47.55232" lon="6.67595">
        <ele>446</ele>
        <time>2015-01-25T10:12:35.000Z</time>
      </trkpt>
      <trkpt lat="47.55234" lon="6.67595">
        <ele>446</ele>
        <time>2015-01-25T10:12:36.000Z</time>
      </trkpt>
      <trkpt lat="47.55237" lon="6.67595">
        <ele>445</ele>
        <time>2015-01-25T10:12:37.000Z</time>
      </trkpt>
      <trkpt lat="47.55239" lon="6.67595">
        <ele>445</ele>
        <time>2015-01-25T10:12:38.000Z</time>
      </trkpt>
      <trkpt lat="47.55242" lon="6.67595">
        <ele>445</ele>
        <time>2015-01-25T10:12:40.000Z</time>
      </trkpt>
      <trkpt lat="47.55244" lon="6.67595">
        <ele>445</ele>
        <time>2015-01-25T10:12:41.000Z</time>
      </trkpt>
      <trkpt lat="47.55248" lon="6.67595">
        <ele>444</ele>
        <time>2015-01-25T10:12:43.000Z</time>
      </trkpt>
      <trkpt lat="47.55251" lon="6.67595">
        <ele>444</ele>
        <time>2015-01-25T10:12:44.000Z</time>
      </trkpt>
      <trkpt lat="47.55258" lon="6.67596">
        <ele>445</ele>
        <time>2015-01-25T10:12:47.000Z</time>
      </trkpt>
      <trkpt lat="47.55261" lon="6.67596">
        <ele>445</ele>
        <time>2015-01-25T10:12:48.000Z</time>
      </trkpt>
      <trkpt lat="47.55264" lon="6.67597">
        <ele>446</ele>
        <time>2015-01-25T10:12:49.000Z</time>
      </trkpt>
      <trkpt lat="47.55267" lon="6.67597">
        <ele>446</ele>
        <time>2015-01-25T10:12:50.000Z</time>
      </trkpt>
      <trkpt lat="47.55269" lon="6.67598">
        <ele>446</ele>
        <time>2015-01-25T10:12:51.000Z</time>
      </trkpt>
      <trkpt lat="47.55271" lon="6.67599">
        <ele>446</ele>
        <time>2015-01-25T10:12:52.000Z</time>
      </trkpt>
      <trkpt lat="47.55274" lon="6.67599">
        <ele>446</ele>
        <time>2015-01-25T10:12:53.000Z</time>
      </trkpt>
      <trkpt lat="47.55277" lon="6.676">
        <ele>447</ele>
        <time>2015-01-25T10:12:54.000Z</time>
      </trkpt>
      <trkpt lat="47.55279" lon="6.676">
        <ele>447</ele>
        <time>2015-01-25T10:12:55.000Z</time>
      </trkpt>
      <trkpt lat="47.55282" lon="6.676">
        <ele>447</ele>
        <time>2015-01-25T10:12:56.000Z</time>
      </trkpt>
      <trkpt lat="47.55285" lon="6.676">
        <ele>447</ele>
        <time>2015-01-25T10:12:57.000Z</time>
      </trkpt>
      <trkpt lat="47.55288" lon="6.67601">
        <ele>447</ele>
        <time>2015-01-25T10:12:58.000Z</time>
      </trkpt>
      <trkpt lat="47.55291" lon="6.67601">
        <ele>447</ele>
        <time>2015-01-25T10:12:59.000Z</time>
      </trkpt>
      <trkpt lat="47.55294" lon="6.67601">
        <ele>447</ele>
        <time>2015-01-25T10:13:00.000Z</time>
      </trkpt>
      <trkpt lat="47.55297" lon="6.67601">
        <ele>446</ele>
        <time>2015-01-25T10:13:01.000Z</time>
      </trkpt>
      <trkpt lat="47.553" lon="6.67601">
        <ele>446</ele>
        <time>2015-01-25T10:13:02.000Z</time>
      </trkpt>
      <trkpt lat="47.55302" lon="6.67601">
        <ele>446</ele>
        <time>2015-01-25T10:13:03.000Z</time>
      </trkpt>
      <trkpt lat="47.55305" lon="6.67602">
        <ele>446</ele>
        <time>2015-01-25T10:13:04.000Z</time>
      </trkpt>
      <trkpt lat="47.55307" lon="6.67603">
        <ele>446</ele>
        <time>2015-01-25T10:13:05.000Z</time>
      </trkpt>
      <trkpt lat="47.55311" lon="6.67604">
        <ele>446</ele>
        <time>2015-01-25T10:13:07.000Z</time>
      </trkpt>
      <trkpt lat="47.55314" lon="6.67605">
        <ele>446</ele>
        <time>2015-01-25T10:13:08.000Z</time>
      </trkpt>
      <trkpt lat="47.55318" lon="6.67606">
        <ele>446</ele>
        <time>2015-01-25T10:13:10.000Z</time>
      </trkpt>
      <trkpt lat="47.5532" lon="6.67607">
        <ele>446</ele>
        <time>2015-01-25T10:13:11.000Z</time>
      </trkpt>
      <trkpt lat="47.55324" lon="6.67607">
        <ele>445</ele>
        <time>2015-01-25T10:13:13.000Z</time>
      </trkpt>
      <trkpt lat="47.55326" lon="6.67608">
        <ele>445</ele>
        <time>2015-01-25T10:13:14.000Z</time>
      </trkpt>
      <trkpt lat="47.5533" lon="6.67608">
        <ele>445</ele>
        <time>2015-01-25T10:13:16.000Z</time>
      </trkpt>
      <trkpt lat="47.55332" lon="6.67609">
        <ele>445</ele>
        <time>2015-01-25T10:13:17.000Z</time>
      </trkpt>
      <trkpt lat="47.55334" lon="6.67609">
        <ele>446</ele>
        <time>2015-01-25T10:13:18.000Z</time>
      </trkpt>
      <trkpt lat="47.55337" lon="6.6761">
        <ele>447</ele>
        <time>2015-01-25T10:13:19.000Z</time>
      </trkpt>
      <trkpt lat="47.55339" lon="6.67611">
        <ele>447</ele>
        <time>2015-01-25T10:13:20.000Z</time>
      </trkpt>
      <trkpt lat="47.55341" lon="6.67612">
        <ele>447</ele>
        <time>2015-01-25T10:13:21.000Z</time>
      </trkpt>
      <trkpt lat="47.55346" lon="6.67614">
        <ele>448</ele>
        <time>2015-01-25T10:13:23.000Z</time>
      </trkpt>
      <trkpt lat="47.55348" lon="6.67614">
        <ele>448</ele>
        <time>2015-01-25T10:13:24.000Z</time>
      </trkpt>
      <trkpt lat="47.55352" lon="6.67616">
        <ele>449</ele>
        <time>2015-01-25T10:13:26.000Z</time>
      </trkpt>
      <trkpt lat="47.55354" lon="6.67616">
        <ele>449</ele>
        <time>2015-01-25T10:13:27.000Z</time>
      </trkpt>
      <trkpt lat="47.55358" lon="6.67617">
        <ele>449</ele>
        <time>2015-01-25T10:13:29.000Z</time>
      </trkpt>
      <trkpt lat="47.55361" lon="6.67618">
        <ele>449</ele>
        <time>2015-01-25T10:13:30.000Z</time>
      </trkpt>
      <trkpt lat="47.55363" lon="6.67618">
        <ele>450</ele>
        <time>2015-01-25T10:13:31.000Z</time>
      </trkpt>
      <trkpt lat="47.55366" lon="6.67618">
        <ele>450</ele>
        <time>2015-01-25T10:13:32.000Z</time>
      </trkpt>
      <trkpt lat="47.55369" lon="6.67618">
        <ele>450</ele>
        <time>2015-01-25T10:13:33.000Z</time>
      </trkpt>
      <trkpt lat="47.55371" lon="6.67618">
        <ele>450</ele>
        <time>2015-01-25T10:13:34.000Z</time>
      </trkpt>
      <trkpt lat="47.55374" lon="6.67618">
        <ele>450</ele>
        <time>2015-01-25T10:13:35.000Z</time>
      </trkpt>
      <trkpt lat="47.55376" lon="6.67618">
        <ele>450</ele>
        <time>2015-01-25T10:13:36.000Z</time>
      </trkpt>
      <trkpt lat="47.5538" lon="6.67619">
        <ele>450</ele>
        <time>2015-01-25T10:13:38.000Z</time>
      </trkpt>
      <trkpt lat="47.55382" lon="6.67619">
        <ele>451</ele>
        <time>2015-01-25T10:13:39.000Z</time>
      </trkpt>
      <trkpt lat="47.55386" lon="6.6762">
        <ele>451</ele>
        <time>2015-01-25T10:13:41.000Z</time>
      </trkpt>
      <trkpt lat="47.55388" lon="6.6762">
        <ele>451</ele>
        <time>2015-01-25T10:13:42.000Z</time>
      </trkpt>
      <trkpt lat="47.55392" lon="6.6762">
        <ele>451</ele>
        <time>2015-01-25T10:13:44.000Z</time>
      </trkpt>
      <trkpt lat="47.55393" lon="6.6762">
        <ele>451</ele>
        <time>2015-01-25T10:13:45.000Z</time>
      </trkpt>
      <trkpt lat="47.55412" lon="6.67619">
        <ele>451</ele>
        <time>2015-01-25T10:13:53.000Z</time>
      </trkpt>
      <trkpt lat="47.55416" lon="6.67618">
        <ele>451</ele>
        <time>2015-01-25T10:13:54.000Z</time>
      </trkpt>
      <trkpt lat="47.55419" lon="6.67617">
        <ele>455</ele>
        <time>2015-01-25T10:13:55.000Z</time>
      </trkpt>
      <trkpt lat="47.55422" lon="6.67615">
        <ele>455</ele>
        <time>2015-01-25T10:13:56.000Z</time>
      </trkpt>
      <trkpt lat="47.55426" lon="6.67614">
        <ele>455</ele>
        <time>2015-01-25T10:13:57.000Z</time>
      </trkpt>
      <trkpt lat="47.55429" lon="6.67612">
        <ele>455</ele>
        <time>2015-01-25T10:13:58.000Z</time>
      </trkpt>
      <trkpt lat="47.55433" lon="6.6761">
        <ele>455</ele>
        <time>2015-01-25T10:13:59.000Z</time>
      </trkpt>
      <trkpt lat="47.55436" lon="6.67608">
        <ele>455</ele>
        <time>2015-01-25T10:14:00.000Z</time>
      </trkpt>
      <trkpt lat="47.55439" lon="6.67606">
        <ele>455</ele>
        <time>2015-01-25T10:14:01.000Z</time>
      </trkpt>
      <trkpt lat="47.55441" lon="6.67604">
        <ele>455</ele>
        <time>2015-01-25T10:14:02.000Z</time>
      </trkpt>
      <trkpt lat="47.55444" lon="6.67603">
        <ele>455</ele>
        <time>2015-01-25T10:14:03.000Z</time>
      </trkpt>
      <trkpt lat="47.55446" lon="6.67602">
        <ele>455</ele>
        <time>2015-01-25T10:14:04.000Z</time>
      </trkpt>
      <trkpt lat="47.55449" lon="6.676">
        <ele>456</ele>
        <time>2015-01-25T10:14:05.000Z</time>
      </trkpt>
      <trkpt lat="47.55453" lon="6.67599">
        <ele>456</ele>
        <time>2015-01-25T10:14:07.000Z</time>
      </trkpt>
      <trkpt lat="47.55455" lon="6.67598">
        <ele>456</ele>
        <time>2015-01-25T10:14:08.000Z</time>
      </trkpt>
      <trkpt lat="47.55458" lon="6.67598">
        <ele>456</ele>
        <time>2015-01-25T10:14:10.000Z</time>
      </trkpt>
      <trkpt lat="47.55461" lon="6.67597">
        <ele>457</ele>
        <time>2015-01-25T10:14:11.000Z</time>
      </trkpt>
      <trkpt lat="47.55465" lon="6.67596">
        <ele>457</ele>
        <time>2015-01-25T10:14:13.000Z</time>
      </trkpt>
      <trkpt lat="47.55467" lon="6.67596">
        <ele>457</ele>
        <time>2015-01-25T10:14:14.000Z</time>
      </trkpt>
      <trkpt lat="47.5547" lon="6.67595">
        <ele>457</ele>
        <time>2015-01-25T10:14:15.000Z</time>
      </trkpt>
      <trkpt lat="47.55472" lon="6.67594">
        <ele>457</ele>
        <time>2015-01-25T10:14:16.000Z</time>
      </trkpt>
      <trkpt lat="47.55475" lon="6.67593">
        <ele>457</ele>
        <time>2015-01-25T10:14:17.000Z</time>
      </trkpt>
      <trkpt lat="47.55477" lon="6.67593">
        <ele>458</ele>
        <time>2015-01-25T10:14:18.000Z</time>
      </trkpt>
      <trkpt lat="47.55481" lon="6.67593">
        <ele>458</ele>
        <time>2015-01-25T10:14:20.000Z</time>
      </trkpt>
      <trkpt lat="47.55483" lon="6.67593">
        <ele>458</ele>
        <time>2015-01-25T10:14:21.000Z</time>
      </trkpt>
      <trkpt lat="47.55487" lon="6.67594">
        <ele>458</ele>
        <time>2015-01-25T10:14:23.000Z</time>
      </trkpt>
      <trkpt lat="47.55489" lon="6.67595">
        <ele>458</ele>
        <time>2015-01-25T10:14:24.000Z</time>
      </trkpt>
      <trkpt lat="47.55492" lon="6.67596">
        <ele>458</ele>
        <time>2015-01-25T10:14:25.000Z</time>
      </trkpt>
      <trkpt lat="47.55494" lon="6.67596">
        <ele>458</ele>
        <time>2015-01-25T10:14:26.000Z</time>
      </trkpt>
      <trkpt lat="47.55498" lon="6.67597">
        <ele>458</ele>
        <time>2015-01-25T10:14:28.000Z</time>
      </trkpt>
      <trkpt lat="47.555" lon="6.67597">
        <ele>458</ele>
        <time>2015-01-25T10:14:29.000Z</time>
      </trkpt>
      <trkpt lat="47.55503" lon="6.67596">
        <ele>459</ele>
        <time>2015-01-25T10:14:31.000Z</time>
      </trkpt>
      <trkpt lat="47.55505" lon="6.67595">
        <ele>459</ele>
        <time>2015-01-25T10:14:32.000Z</time>
      </trkpt>
      <trkpt lat="47.55507" lon="6.67593">
        <ele>459</ele>
        <time>2015-01-25T10:14:33.000Z</time>
      </trkpt>
      <trkpt lat="47.55509" lon="6.6759">
        <ele>459</ele>
        <time>2015-01-25T10:14:34.000Z</time>
      </trkpt>
      <trkpt lat="47.5551" lon="6.67587">
        <ele>459</ele>
        <time>2015-01-25T10:14:35.000Z</time>
      </trkpt>
      <trkpt lat="47.55512" lon="6.67584">
        <ele>459</ele>
        <time>2015-01-25T10:14:36.000Z</time>
      </trkpt>
      <trkpt lat="47.55514" lon="6.67581">
        <ele>458</ele>
        <time>2015-01-25T10:14:37.000Z</time>
      </trkpt>
      <trkpt lat="47.55515" lon="6.67578">
        <ele>458</ele>
        <time>2015-01-25T10:14:38.000Z</time>
      </trkpt>
      <trkpt lat="47.55516" lon="6.67575">
        <ele>458</ele>
        <time>2015-01-25T10:14:39.000Z</time>
      </trkpt>
      <trkpt lat="47.55518" lon="6.67572">
        <ele>458</ele>
        <time>2015-01-25T10:14:40.000Z</time>
      </trkpt>
      <trkpt lat="47.5552" lon="6.67567">
        <ele>458</ele>
        <time>2015-01-25T10:14:42.000Z</time>
      </trkpt>
      <trkpt lat="47.55521" lon="6.67565">
        <ele>458</ele>
        <time>2015-01-25T10:14:43.000Z</time>
      </trkpt>
      <trkpt lat="47.55522" lon="6.67563">
        <ele>458</ele>
        <time>2015-01-25T10:14:44.000Z</time>
      </trkpt>
      <trkpt lat="47.55525" lon="6.67557">
        <ele>458</ele>
        <time>2015-01-25T10:14:47.000Z</time>
      </trkpt>
      <trkpt lat="47.55527" lon="6.67552">
        <ele>458</ele>
        <time>2015-01-25T10:14:50.000Z</time>
      </trkpt>
      <trkpt lat="47.55528" lon="6.6755">
        <ele>458</ele>
        <time>2015-01-25T10:14:51.000Z</time>
      </trkpt>
      <trkpt lat="47.5553" lon="6.67545">
        <ele>458</ele>
        <time>2015-01-25T10:14:54.000Z</time>
      </trkpt>
      <trkpt lat="47.5553" lon="6.67544">
        <ele>458</ele>
        <time>2015-01-25T10:14:55.000Z</time>
      </trkpt>
      <trkpt lat="47.55532" lon="6.67538">
        <ele>459</ele>
        <time>2015-01-25T10:14:58.000Z</time>
      </trkpt>
      <trkpt lat="47.55532" lon="6.67535">
        <ele>459</ele>
        <time>2015-01-25T10:14:59.000Z</time>
      </trkpt>
      <trkpt lat="47.55532" lon="6.67529">
        <ele>459</ele>
        <time>2015-01-25T10:15:04.000Z</time>
      </trkpt>
      <trkpt lat="47.55532" lon="6.67527">
        <ele>459</ele>
        <time>2015-01-25T10:15:05.000Z</time>
      </trkpt>
      <trkpt lat="47.55533" lon="6.67523">
        <ele>459</ele>
        <time>2015-01-25T10:15:07.000Z</time>
      </trkpt>
      <trkpt lat="47.55534" lon="6.67521">
        <ele>459</ele>
        <time>2015-01-25T10:15:08.000Z</time>
      </trkpt>
      <trkpt lat="47.55536" lon="6.67515">
        <ele>459</ele>
        <time>2015-01-25T10:15:10.000Z</time>
      </trkpt>
      <trkpt lat="47.55537" lon="6.67512">
        <ele>459</ele>
        <time>2015-01-25T10:15:11.000Z</time>
      </trkpt>
      <trkpt lat="47.55538" lon="6.67509">
        <ele>459</ele>
        <time>2015-01-25T10:15:12.000Z</time>
      </trkpt>
      <trkpt lat="47.55539" lon="6.67505">
        <ele>459</ele>
        <time>2015-01-25T10:15:13.000Z</time>
      </trkpt>
      <trkpt lat="47.55539" lon="6.67502">
        <ele>459</ele>
        <time>2015-01-25T10:15:14.000Z</time>
      </trkpt>
      <trkpt lat="47.5554" lon="6.67498">
        <ele>462</ele>
        <time>2015-01-25T10:15:15.000Z</time>
      </trkpt>
      <trkpt lat="47.55541" lon="6.67495">
        <ele>462</ele>
        <time>2015-01-25T10:15:16.000Z</time>
      </trkpt>
      <trkpt lat="47.55542" lon="6.67491">
        <ele>462</ele>
        <time>2015-01-25T10:15:17.000Z</time>
      </trkpt>
      <trkpt lat="47.55543" lon="6.67488">
        <ele>462</ele>
        <time>2015-01-25T10:15:18.000Z</time>
      </trkpt>
      <trkpt lat="47.55544" lon="6.67485">
        <ele>462</ele>
        <time>2015-01-25T10:15:19.000Z</time>
      </trkpt>
      <trkpt lat="47.55545" lon="6.67479">
        <ele>462</ele>
        <time>2015-01-25T10:15:21.000Z</time>
      </trkpt>
      <trkpt lat="47.55545" lon="6.67476">
        <ele>462</ele>
        <time>2015-01-25T10:15:22.000Z</time>
      </trkpt>
      <trkpt lat="47.55547" lon="6.67472">
        <ele>463</ele>
        <time>2015-01-25T10:15:24.000Z</time>
      </trkpt>
      <trkpt lat="47.55547" lon="6.67469">
        <ele>463</ele>
        <time>2015-01-25T10:15:25.000Z</time>
      </trkpt>
      <trkpt lat="47.55548" lon="6.67465">
        <ele>463</ele>
        <time>2015-01-25T10:15:27.000Z</time>
      </trkpt>
      <trkpt lat="47.55549" lon="6.67462">
        <ele>463</ele>
        <time>2015-01-25T10:15:28.000Z</time>
      </trkpt>
      <trkpt lat="47.55549" lon="6.67456">
        <ele>463</ele>
        <time>2015-01-25T10:15:31.000Z</time>
      </trkpt>
      <trkpt lat="47.5555" lon="6.67454">
        <ele>463</ele>
        <time>2015-01-25T10:15:32.000Z</time>
      </trkpt>
      <trkpt lat="47.55551" lon="6.67449">
        <ele>464</ele>
        <time>2015-01-25T10:15:35.000Z</time>
      </trkpt>
      <trkpt lat="47.55552" lon="6.67448">
        <ele>464</ele>
        <time>2015-01-25T10:15:36.000Z</time>
      </trkpt>
      <trkpt lat="47.55552" lon="6.67443">
        <ele>464</ele>
        <time>2015-01-25T10:15:39.000Z</time>
      </trkpt>
      <trkpt lat="47.55553" lon="6.67441">
        <ele>464</ele>
        <time>2015-01-25T10:15:40.000Z</time>
      </trkpt>
      <trkpt lat="47.55556" lon="6.67436">
        <ele>465</ele>
        <time>2015-01-25T10:16:09.000Z</time>
      </trkpt>
      <trkpt lat="47.55556" lon="6.67435">
        <ele>465</ele>
        <time>2015-01-25T10:16:10.000Z</time>
      </trkpt>
      <trkpt lat="47.55556" lon="6.67429">
        <ele>465</ele>
        <time>2015-01-25T10:16:13.000Z</time>
      </trkpt>
      <trkpt lat="47.55556" lon="6.67428">
        <ele>465</ele>
        <time>2015-01-25T10:16:14.000Z</time>
      </trkpt>
      <trkpt lat="47.55551" lon="6.67427">
        <ele>465</ele>
        <time>2015-01-25T10:16:43.000Z</time>
      </trkpt>
      <trkpt lat="47.55551" lon="6.67427">
        <ele>465</ele>
        <time>2015-01-25T10:16:44.000Z</time>
      </trkpt>
      <trkpt lat="47.55549" lon="6.67421">
        <ele>465</ele>
        <time>2015-01-25T10:17:55.000Z</time>
      </trkpt>
      <trkpt lat="47.55549" lon="6.6742">
        <ele>465</ele>
        <time>2015-01-25T10:17:56.000Z</time>
      </trkpt>
      <trkpt lat="47.55553" lon="6.67419">
        <ele>465</ele>
        <time>2015-01-25T10:20:38.000Z</time>
      </trkpt>
      <trkpt lat="47.55554" lon="6.67419">
        <ele>465</ele>
        <time>2015-01-25T10:20:39.000Z</time>
      </trkpt>
      <trkpt lat="47.55557" lon="6.67422">
        <ele>466</ele>
        <time>2015-01-25T10:20:42.000Z</time>
      </trkpt>
      <trkpt lat="47.55558" lon="6.67423">
        <ele>466</ele>
        <time>2015-01-25T10:20:43.000Z</time>
      </trkpt>
      <trkpt lat="47.55562" lon="6.67423">
        <ele>466</ele>
        <time>2015-01-25T10:20:48.000Z</time>
      </trkpt>
      <trkpt lat="47.55563" lon="6.67423">
        <ele>466</ele>
        <time>2015-01-25T10:20:49.000Z</time>
      </trkpt>
      <trkpt lat="47.55566" lon="6.67422">
        <ele>467</ele>
        <time>2015-01-25T10:20:52.000Z</time>
      </trkpt>
      <trkpt lat="47.55567" lon="6.67421">
        <ele>467</ele>
        <time>2015-01-25T10:20:53.000Z</time>
      </trkpt>
      <trkpt lat="47.55571" lon="6.67418">
        <ele>468</ele>
        <time>2015-01-25T10:20:58.000Z</time>
      </trkpt>
      <trkpt lat="47.55572" lon="6.67417">
        <ele>469</ele>
        <time>2015-01-25T10:20:59.000Z</time>
      </trkpt>
      <trkpt lat="47.55576" lon="6.67415">
        <ele>471</ele>
        <time>2015-01-25T10:21:04.000Z</time>
      </trkpt>
      <trkpt lat="47.55577" lon="6.67415">
        <ele>471</ele>
        <time>2015-01-25T10:21:05.000Z</time>
      </trkpt>
      <trkpt lat="47.55581" lon="6.67414">
        <ele>471</ele>
        <time>2015-01-25T10:21:09.000Z</time>
      </trkpt>
      <trkpt lat="47.55582" lon="6.67413">
        <ele>471</ele>
        <time>2015-01-25T10:21:10.000Z</time>
      </trkpt>
      <trkpt lat="47.55585" lon="6.6741">
        <ele>472</ele>
        <time>2015-01-25T10:21:14.000Z</time>
      </trkpt>
      <trkpt lat="47.55586" lon="6.67409">
        <ele>472</ele>
        <time>2015-01-25T10:21:15.000Z</time>
      </trkpt>
      <trkpt lat="47.55589" lon="6.67405">
        <ele>472</ele>
        <time>2015-01-25T10:21:18.000Z</time>
      </trkpt>
      <trkpt lat="47.5559" lon="6.67404">
        <ele>471</ele>
        <time>2015-01-25T10:21:19.000Z</time>
      </trkpt>
      <trkpt lat="47.55593" lon="6.67401">
        <ele>471</ele>
        <time>2015-01-25T10:21:24.000Z</time>
      </trkpt>
      <trkpt lat="47.55594" lon="6.674">
        <ele>471</ele>
        <time>2015-01-25T10:21:25.000Z</time>
      </trkpt>
      <trkpt lat="47.55597" lon="6.67396">
        <ele>471</ele>
        <time>2015-01-25T10:21:28.000Z</time>
      </trkpt>
      <trkpt lat="47.55597" lon="6.67394">
        <ele>471</ele>
        <time>2015-01-25T10:21:29.000Z</time>
      </trkpt>
      <trkpt lat="47.55599" lon="6.67389">
        <ele>471</ele>
        <time>2015-01-25T10:21:33.000Z</time>
      </trkpt>
      <trkpt lat="47.556" lon="6.67388">
        <ele>472</ele>
        <time>2015-01-25T10:21:34.000Z</time>
      </trkpt>
      <trkpt lat="47.55601" lon="6.67382">
        <ele>472</ele>
        <time>2015-01-25T10:21:37.000Z</time>
      </trkpt>
      <trkpt lat="47.55602" lon="6.67381">
        <ele>472</ele>
        <time>2015-01-25T10:21:38.000Z</time>
      </trkpt>
      <trkpt lat="47.55605" lon="6.67376">
        <ele>472</ele>
        <time>2015-01-25T10:21:41.000Z</time>
      </trkpt>
      <trkpt lat="47.55606" lon="6.67375">
        <ele>472</ele>
        <time>2015-01-25T10:21:42.000Z</time>
      </trkpt>
      <trkpt lat="47.55608" lon="6.67371">
        <ele>472</ele>
        <time>2015-01-25T10:21:45.000Z</time>
      </trkpt>
      <trkpt lat="47.55609" lon="6.67367">
        <ele>472</ele>
        <time>2015-01-25T10:21:48.000Z</time>
      </trkpt>
      <trkpt lat="47.55611" lon="6.67362">
        <ele>473</ele>
        <time>2015-01-25T10:21:51.000Z</time>
      </trkpt>
      <trkpt lat="47.55612" lon="6.6736">
        <ele>473</ele>
        <time>2015-01-25T10:21:52.000Z</time>
      </trkpt>
      <trkpt lat="47.55613" lon="6.67356">
        <ele>473</ele>
        <time>2015-01-25T10:21:54.000Z</time>
      </trkpt>
      <trkpt lat="47.55614" lon="6.67355">
        <ele>473</ele>
        <time>2015-01-25T10:21:55.000Z</time>
      </trkpt>
      <trkpt lat="47.55616" lon="6.6735">
        <ele>473</ele>
        <time>2015-01-25T10:21:58.000Z</time>
      </trkpt>
      <trkpt lat="47.55617" lon="6.67349">
        <ele>473</ele>
        <time>2015-01-25T10:21:59.000Z</time>
      </trkpt>
      <trkpt lat="47.5562" lon="6.67343">
        <ele>473</ele>
        <time>2015-01-25T10:22:03.000Z</time>
      </trkpt>
      <trkpt lat="47.5562" lon="6.67342">
        <ele>474</ele>
        <time>2015-01-25T10:22:04.000Z</time>
      </trkpt>
      <trkpt lat="47.55623" lon="6.67338">
        <ele>474</ele>
        <time>2015-01-25T10:22:09.000Z</time>
      </trkpt>
      <trkpt lat="47.55624" lon="6.67337">
        <ele>474</ele>
        <time>2015-01-25T10:22:10.000Z</time>
      </trkpt>
      <trkpt lat="47.55627" lon="6.67332">
        <ele>480</ele>
        <time>2015-01-25T10:22:14.000Z</time>
      </trkpt>
      <trkpt lat="47.55627" lon="6.67331">
        <ele>480</ele>
        <time>2015-01-25T10:22:15.000Z</time>
      </trkpt>
      <trkpt lat="47.55629" lon="6.67327">
        <ele>480</ele>
        <time>2015-01-25T10:22:18.000Z</time>
      </trkpt>
      <trkpt lat="47.5563" lon="6.67325">
        <ele>480</ele>
        <time>2015-01-25T10:22:19.000Z</time>
      </trkpt>
      <trkpt lat="47.55632" lon="6.67322">
        <ele>481</ele>
        <time>2015-01-25T10:22:22.000Z</time>
      </trkpt>
      <trkpt lat="47.55633" lon="6.6732">
        <ele>481</ele>
        <time>2015-01-25T10:22:23.000Z</time>
      </trkpt>
      <trkpt lat="47.55636" lon="6.67316">
        <ele>481</ele>
        <time>2015-01-25T10:22:27.000Z</time>
      </trkpt>
      <trkpt lat="47.55637" lon="6.67315">
        <ele>481</ele>
        <time>2015-01-25T10:22:28.000Z</time>
      </trkpt>
      <trkpt lat="47.5564" lon="6.67312">
        <ele>481</ele>
        <time>2015-01-25T10:22:32.000Z</time>
      </trkpt>
      <trkpt lat="47.55641" lon="6.67311">
        <ele>481</ele>
        <time>2015-01-25T10:22:33.000Z</time>
      </trkpt>
      <trkpt lat="47.55644" lon="6.67307">
        <ele>481</ele>
        <time>2015-01-25T10:22:36.000Z</time>
      </trkpt>
      <trkpt lat="47.55644" lon="6.67307">
        <ele>481</ele>
        <time>2015-01-25T10:22:37.000Z</time>
      </trkpt>
      <trkpt lat="47.55648" lon="6.67305">
        <ele>481</ele>
        <time>2015-01-25T10:22:44.000Z</time>
      </trkpt>
      <trkpt lat="47.55651" lon="6.67304">
        <ele>481</ele>
        <time>2015-01-25T10:22:47.000Z</time>
      </trkpt>
      <trkpt lat="47.55654" lon="6.67302">
        <ele>482</ele>
        <time>2015-01-25T10:22:51.000Z</time>
      </trkpt>
      <trkpt lat="47.55655" lon="6.67301">
        <ele>482</ele>
        <time>2015-01-25T10:22:52.000Z</time>
      </trkpt>
      <trkpt lat="47.55658" lon="6.67299">
        <ele>482</ele>
        <time>2015-01-25T10:22:55.000Z</time>
      </trkpt>
      <trkpt lat="47.55659" lon="6.67299">
        <ele>482</ele>
        <time>2015-01-25T10:22:56.000Z</time>
      </trkpt>
      <trkpt lat="47.55663" lon="6.67298">
        <ele>482</ele>
        <time>2015-01-25T10:22:59.000Z</time>
      </trkpt>
      <trkpt lat="47.55664" lon="6.67298">
        <ele>482</ele>
        <time>2015-01-25T10:22:59.998Z</time>
      </trkpt>
      <trkpt lat="47.55667" lon="6.67296">
        <ele>483</ele>
        <time>2015-01-25T10:23:02.000Z</time>
      </trkpt>
      <trkpt lat="47.55669" lon="6.67295">
        <ele>483</ele>
        <time>2015-01-25T10:23:03.000Z</time>
      </trkpt>
      <trkpt lat="47.55672" lon="6.67294">
        <ele>483</ele>
        <time>2015-01-25T10:23:05.000Z</time>
      </trkpt>
      <trkpt lat="47.55674" lon="6.67294">
        <ele>483</ele>
        <time>2015-01-25T10:23:06.000Z</time>
      </trkpt>
      <trkpt lat="47.55678" lon="6.67292">
        <ele>483</ele>
        <time>2015-01-25T10:23:11.000Z</time>
      </trkpt>
      <trkpt lat="47.55678" lon="6.67292">
        <ele>483</ele>
        <time>2015-01-25T10:23:11.991Z</time>
      </trkpt>
      <trkpt lat="47.55682" lon="6.6729">
        <ele>483</ele>
        <time>2015-01-25T10:23:15.000Z</time>
      </trkpt>
      <trkpt lat="47.55683" lon="6.6729">
        <ele>483</ele>
        <time>2015-01-25T10:23:15.999Z</time>
      </trkpt>
      <trkpt lat="47.55686" lon="6.67288">
        <ele>484</ele>
        <time>2015-01-25T10:23:19.000Z</time>
      </trkpt>
      <trkpt lat="47.55687" lon="6.67287">
        <ele>484</ele>
        <time>2015-01-25T10:23:20.000Z</time>
      </trkpt>
      <trkpt lat="47.5569" lon="6.67284">
        <ele>484</ele>
        <time>2015-01-25T10:23:22.999Z</time>
      </trkpt>
      <trkpt lat="47.55692" lon="6.67283">
        <ele>484</ele>
        <time>2015-01-25T10:23:24.000Z</time>
      </trkpt>
      <trkpt lat="47.55696" lon="6.6728">
        <ele>484</ele>
        <time>2015-01-25T10:23:28.000Z</time>
      </trkpt>
      <trkpt lat="47.55696" lon="6.67278">
        <ele>484</ele>
        <time>2015-01-25T10:23:29.000Z</time>
      </trkpt>
      <trkpt lat="47.55699" lon="6.67273">
        <ele>485</ele>
        <time>2015-01-25T10:23:33.000Z</time>
      </trkpt>
      <trkpt lat="47.55699" lon="6.67272">
        <ele>485</ele>
        <time>2015-01-25T10:23:34.000Z</time>
      </trkpt>
      <trkpt lat="47.55702" lon="6.67269">
        <ele>485</ele>
        <time>2015-01-25T10:23:54.000Z</time>
      </trkpt>
      <trkpt lat="47.55704" lon="6.67269">
        <ele>485</ele>
        <time>2015-01-25T10:23:55.000Z</time>
      </trkpt>
      <trkpt lat="47.55706" lon="6.67266">
        <ele>485</ele>
        <time>2015-01-25T10:23:57.000Z</time>
      </trkpt>
      <trkpt lat="47.55708" lon="6.67265">
        <ele>486</ele>
        <time>2015-01-25T10:23:58.000Z</time>
      </trkpt>
      <trkpt lat="47.5571" lon="6.67263">
        <ele>486</ele>
        <time>2015-01-25T10:23:59.000Z</time>
      </trkpt>
      <trkpt lat="47.55712" lon="6.67262">
        <ele>486</ele>
        <time>2015-01-25T10:24:00.000Z</time>
      </trkpt>
      <trkpt lat="47.55714" lon="6.6726">
        <ele>486</ele>
        <time>2015-01-25T10:24:01.000Z</time>
      </trkpt>
      <trkpt lat="47.55716" lon="6.67258">
        <ele>486</ele>
        <time>2015-01-25T10:24:02.000Z</time>
      </trkpt>
      <trkpt lat="47.55718" lon="6.67256">
        <ele>487</ele>
        <time>2015-01-25T10:24:03.000Z</time>
      </trkpt>
      <trkpt lat="47.5572" lon="6.67255">
        <ele>487</ele>
        <time>2015-01-25T10:24:04.000Z</time>
      </trkpt>
      <trkpt lat="47.55723" lon="6.67253">
        <ele>487</ele>
        <time>2015-01-25T10:24:05.000Z</time>
      </trkpt>
      <trkpt lat="47.55724" lon="6.67251">
        <ele>488</ele>
        <time>2015-01-25T10:24:06.000Z</time>
      </trkpt>
      <trkpt lat="47.55727" lon="6.67247">
        <ele>496</ele>
        <time>2015-01-25T10:24:08.000Z</time>
      </trkpt>
      <trkpt lat="47.55728" lon="6.67244">
        <ele>496</ele>
        <time>2015-01-25T10:24:09.000Z</time>
      </trkpt>
      <trkpt lat="47.55731" lon="6.67239">
        <ele>496</ele>
        <time>2015-01-25T10:24:11.000Z</time>
      </trkpt>
      <trkpt lat="47.55732" lon="6.67236">
        <ele>496</ele>
        <time>2015-01-25T10:24:12.000Z</time>
      </trkpt>
      <trkpt lat="47.55733" lon="6.67231">
        <ele>496</ele>
        <time>2015-01-25T10:24:14.000Z</time>
      </trkpt>
      <trkpt lat="47.55734" lon="6.67228">
        <ele>497</ele>
        <time>2015-01-25T10:24:15.000Z</time>
      </trkpt>
      <trkpt lat="47.55735" lon="6.67221">
        <ele>497</ele>
        <time>2015-01-25T10:24:17.000Z</time>
      </trkpt>
      <trkpt lat="47.55735" lon="6.67218">
        <ele>497</ele>
        <time>2015-01-25T10:24:18.000Z</time>
      </trkpt>
      <trkpt lat="47.55736" lon="6.67212">
        <ele>498</ele>
        <time>2015-01-25T10:24:20.000Z</time>
      </trkpt>
      <trkpt lat="47.55736" lon="6.6721">
        <ele>498</ele>
        <time>2015-01-25T10:24:21.000Z</time>
      </trkpt>
      <trkpt lat="47.55738" lon="6.67204">
        <ele>499</ele>
        <time>2015-01-25T10:24:24.000Z</time>
      </trkpt>
      <trkpt lat="47.55739" lon="6.67202">
        <ele>499</ele>
        <time>2015-01-25T10:24:25.000Z</time>
      </trkpt>
      <trkpt lat="47.5574" lon="6.67196">
        <ele>499</ele>
        <time>2015-01-25T10:24:28.000Z</time>
      </trkpt>
      <trkpt lat="47.5574" lon="6.67195">
        <ele>500</ele>
        <time>2015-01-25T10:24:29.000Z</time>
      </trkpt>
      <trkpt lat="47.5574" lon="6.67188">
        <ele>500</ele>
        <time>2015-01-25T10:24:33.000Z</time>
      </trkpt>
      <trkpt lat="47.5574" lon="6.67188">
        <ele>501</ele>
        <time>2015-01-25T10:24:34.000Z</time>
      </trkpt>
      <trkpt lat="47.55743" lon="6.67185">
        <ele>501</ele>
        <time>2015-01-25T10:24:44.000Z</time>
      </trkpt>
      <trkpt lat="47.55743" lon="6.67182">
        <ele>502</ele>
        <time>2015-01-25T10:24:52.000Z</time>
      </trkpt>
      <trkpt lat="47.55744" lon="6.67176">
        <ele>503</ele>
        <time>2015-01-25T10:24:58.000Z</time>
      </trkpt>
      <trkpt lat="47.55745" lon="6.67175">
        <ele>503</ele>
        <time>2015-01-25T10:24:59.000Z</time>
      </trkpt>
      <trkpt lat="47.55748" lon="6.67171">
        <ele>504</ele>
        <time>2015-01-25T10:25:03.000Z</time>
      </trkpt>
      <trkpt lat="47.55749" lon="6.6717">
        <ele>505</ele>
        <time>2015-01-25T10:25:04.000Z</time>
      </trkpt>
      <trkpt lat="47.55751" lon="6.67166">
        <ele>506</ele>
        <time>2015-01-25T10:25:08.000Z</time>
      </trkpt>
      <trkpt lat="47.55752" lon="6.67165">
        <ele>506</ele>
        <time>2015-01-25T10:25:09.000Z</time>
      </trkpt>
      <trkpt lat="47.55755" lon="6.67161">
        <ele>506</ele>
        <time>2015-01-25T10:25:12.000Z</time>
      </trkpt>
      <trkpt lat="47.55756" lon="6.67159">
        <ele>506</ele>
        <time>2015-01-25T10:25:13.000Z</time>
      </trkpt>
      <trkpt lat="47.55758" lon="6.67155">
        <ele>506</ele>
        <time>2015-01-25T10:25:15.000Z</time>
      </trkpt>
      <trkpt lat="47.55759" lon="6.67153">
        <ele>506</ele>
        <time>2015-01-25T10:25:16.000Z</time>
      </trkpt>
      <trkpt lat="47.55761" lon="6.6715">
        <ele>506</ele>
        <time>2015-01-25T10:25:18.000Z</time>
      </trkpt>
      <trkpt lat="47.55762" lon="6.67148">
        <ele>506</ele>
        <time>2015-01-25T10:25:19.000Z</time>
      </trkpt>
      <trkpt lat="47.55764" lon="6.67144">
        <ele>506</ele>
        <time>2015-01-25T10:25:22.000Z</time>
      </trkpt>
      <trkpt lat="47.55765" lon="6.67143">
        <ele>506</ele>
        <time>2015-01-25T10:25:23.000Z</time>
      </trkpt>
      <trkpt lat="47.55768" lon="6.6714">
        <ele>506</ele>
        <time>2015-01-25T10:25:26.000Z</time>
      </trkpt>
      <trkpt lat="47.55769" lon="6.67139">
        <ele>506</ele>
        <time>2015-01-25T10:25:27.000Z</time>
      </trkpt>
      <trkpt lat="47.55772" lon="6.67137">
        <ele>506</ele>
        <time>2015-01-25T10:25:29.000Z</time>
      </trkpt>
      <trkpt lat="47.55774" lon="6.67136">
        <ele>506</ele>
        <time>2015-01-25T10:25:30.000Z</time>
      </trkpt>
      <trkpt lat="47.55777" lon="6.67135">
        <ele>506</ele>
        <time>2015-01-25T10:25:32.000Z</time>
      </trkpt>
      <trkpt lat="47.55778" lon="6.67134">
        <ele>506</ele>
        <time>2015-01-25T10:25:33.000Z</time>
      </trkpt>
      <trkpt lat="47.55782" lon="6.67132">
        <ele>506</ele>
        <time>2015-01-25T10:25:37.000Z</time>
      </trkpt>
      <trkpt lat="47.55783" lon="6.67131">
        <ele>506</ele>
        <time>2015-01-25T10:25:38.000Z</time>
      </trkpt>
      <trkpt lat="47.55784" lon="6.67126">
        <ele>506</ele>
        <time>2015-01-25T10:25:42.000Z</time>
      </trkpt>
      <trkpt lat="47.55785" lon="6.67125">
        <ele>506</ele>
        <time>2015-01-25T10:25:43.000Z</time>
      </trkpt>
      <trkpt lat="47.55786" lon="6.67119">
        <ele>506</ele>
        <time>2015-01-25T10:25:47.000Z</time>
      </trkpt>
      <trkpt lat="47.55787" lon="6.67117">
        <ele>506</ele>
        <time>2015-01-25T10:25:48.000Z</time>
      </trkpt>
      <trkpt lat="47.55788" lon="6.67114">
        <ele>506</ele>
        <time>2015-01-25T10:25:50.000Z</time>
      </trkpt>
      <trkpt lat="47.55789" lon="6.67112">
        <ele>506</ele>
        <time>2015-01-25T10:25:51.000Z</time>
      </trkpt>
      <trkpt lat="47.55791" lon="6.67106">
        <ele>506</ele>
        <time>2015-01-25T10:25:53.000Z</time>
      </trkpt>
      <trkpt lat="47.55792" lon="6.67102">
        <ele>506</ele>
        <time>2015-01-25T10:25:54.000Z</time>
      </trkpt>
      <trkpt lat="47.55793" lon="6.67098">
        <ele>506</ele>
        <time>2015-01-25T10:25:55.000Z</time>
      </trkpt>
      <trkpt lat="47.55795" lon="6.67095">
        <ele>506</ele>
        <time>2015-01-25T10:25:56.000Z</time>
      </trkpt>
      <trkpt lat="47.55796" lon="6.67092">
        <ele>506</ele>
        <time>2015-01-25T10:25:57.000Z</time>
      </trkpt>
      <trkpt lat="47.55797" lon="6.67088">
        <ele>505</ele>
        <time>2015-01-25T10:25:58.000Z</time>
      </trkpt>
      <trkpt lat="47.55799" lon="6.67083">
        <ele>503</ele>
        <time>2015-01-25T10:26:00.000Z</time>
      </trkpt>
      <trkpt lat="47.55798" lon="6.6708">
        <ele>503</ele>
        <time>2015-01-25T10:26:01.000Z</time>
      </trkpt>
      <trkpt lat="47.55797" lon="6.67075">
        <ele>503</ele>
        <time>2015-01-25T10:26:03.000Z</time>
      </trkpt>
      <trkpt lat="47.55797" lon="6.67072">
        <ele>503</ele>
        <time>2015-01-25T10:26:04.000Z</time>
      </trkpt>
      <trkpt lat="47.55795" lon="6.67066">
        <ele>503</ele>
        <time>2015-01-25T10:26:07.000Z</time>
      </trkpt>
      <trkpt lat="47.55794" lon="6.67064">
        <ele>503</ele>
        <time>2015-01-25T10:26:08.000Z</time>
      </trkpt>
      <trkpt lat="47.55791" lon="6.6706">
        <ele>503</ele>
        <time>2015-01-25T10:26:11.000Z</time>
      </trkpt>
      <trkpt lat="47.5579" lon="6.67059">
        <ele>503</ele>
        <time>2015-01-25T10:26:12.000Z</time>
      </trkpt>
      <trkpt lat="47.55788" lon="6.67054">
        <ele>502</ele>
        <time>2015-01-25T10:26:15.000Z</time>
      </trkpt>
      <trkpt lat="47.55788" lon="6.67053">
        <ele>502</ele>
        <time>2015-01-25T10:26:16.000Z</time>
      </trkpt>
      <trkpt lat="47.55786" lon="6.67048">
        <ele>502</ele>
        <time>2015-01-25T10:26:19.000Z</time>
      </trkpt>
      <trkpt lat="47.55785" lon="6.67047">
        <ele>502</ele>
        <time>2015-01-25T10:26:20.000Z</time>
      </trkpt>
      <trkpt lat="47.55782" lon="6.67043">
        <ele>502</ele>
        <time>2015-01-25T10:26:24.000Z</time>
      </trkpt>
      <trkpt lat="47.55781" lon="6.67041">
        <ele>502</ele>
        <time>2015-01-25T10:26:25.000Z</time>
      </trkpt>
      <trkpt lat="47.55778" lon="6.67041">
        <ele>502</ele>
        <time>2015-01-25T10:26:27.000Z</time>
      </trkpt>
      <trkpt lat="47.55776" lon="6.6704">
        <ele>503</ele>
        <time>2015-01-25T10:26:28.000Z</time>
      </trkpt>
      <trkpt lat="47.55773" lon="6.67039">
        <ele>503</ele>
        <time>2015-01-25T10:26:30.000Z</time>
      </trkpt>
      <trkpt lat="47.55771" lon="6.67038">
        <ele>503</ele>
        <time>2015-01-25T10:26:31.000Z</time>
      </trkpt>
      <trkpt lat="47.55768" lon="6.67034">
        <ele>503</ele>
        <time>2015-01-25T10:26:33.000Z</time>
      </trkpt>
      <trkpt lat="47.55766" lon="6.67032">
        <ele>503</ele>
        <time>2015-01-25T10:26:34.000Z</time>
      </trkpt>
      <trkpt lat="47.55763" lon="6.67028">
        <ele>503</ele>
        <time>2015-01-25T10:26:36.000Z</time>
      </trkpt>
      <trkpt lat="47.55761" lon="6.67027">
        <ele>503</ele>
        <time>2015-01-25T10:26:37.000Z</time>
      </trkpt>
      <trkpt lat="47.55758" lon="6.67025">
        <ele>503</ele>
        <time>2015-01-25T10:26:39.000Z</time>
      </trkpt>
      <trkpt lat="47.55756" lon="6.67023">
        <ele>503</ele>
        <time>2015-01-25T10:26:40.000Z</time>
      </trkpt>
      <trkpt lat="47.55753" lon="6.6702">
        <ele>503</ele>
        <time>2015-01-25T10:26:42.000Z</time>
      </trkpt>
      <trkpt lat="47.55752" lon="6.67018">
        <ele>503</ele>
        <time>2015-01-25T10:26:43.000Z</time>
      </trkpt>
      <trkpt lat="47.55752" lon="6.67016">
        <ele>504</ele>
        <time>2015-01-25T10:26:44.000Z</time>
      </trkpt>
      <trkpt lat="47.55749" lon="6.67011">
        <ele>506</ele>
        <time>2015-01-25T10:26:47.000Z</time>
      </trkpt>
      <trkpt lat="47.55746" lon="6.67008">
        <ele>506</ele>
        <time>2015-01-25T10:26:50.000Z</time>
      </trkpt>
      <trkpt lat="47.55745" lon="6.67007">
        <ele>506</ele>
        <time>2015-01-25T10:26:51.000Z</time>
      </trkpt>
      <trkpt lat="47.55741" lon="6.67005">
        <ele>506</ele>
        <time>2015-01-25T10:26:55.000Z</time>
      </trkpt>
      <trkpt lat="47.5574" lon="6.67004">
        <ele>506</ele>
        <time>2015-01-25T10:26:56.000Z</time>
      </trkpt>
      <trkpt lat="47.55737" lon="6.66999">
        <ele>503</ele>
        <time>2015-01-25T10:26:59.000Z</time>
      </trkpt>
      <trkpt lat="47.55735" lon="6.66997">
        <ele>503</ele>
        <time>2015-01-25T10:27:00.000Z</time>
      </trkpt>
      <trkpt lat="47.55732" lon="6.66993">
        <ele>503</ele>
        <time>2015-01-25T10:27:02.000Z</time>
      </trkpt>
      <trkpt lat="47.55731" lon="6.66991">
        <ele>503</ele>
        <time>2015-01-25T10:27:03.000Z</time>
      </trkpt>
      <trkpt lat="47.5573" lon="6.66986">
        <ele>502</ele>
        <time>2015-01-25T10:27:05.000Z</time>
      </trkpt>
      <trkpt lat="47.55729" lon="6.66984">
        <ele>502</ele>
        <time>2015-01-25T10:27:06.000Z</time>
      </trkpt>
      <trkpt lat="47.55725" lon="6.66981">
        <ele>502</ele>
        <time>2015-01-25T10:27:08.000Z</time>
      </trkpt>
      <trkpt lat="47.55723" lon="6.6698">
        <ele>502</ele>
        <time>2015-01-25T10:27:09.000Z</time>
      </trkpt>
      <trkpt lat="47.55721" lon="6.66979">
        <ele>502</ele>
        <time>2015-01-25T10:27:10.000Z</time>
      </trkpt>
      <trkpt lat="47.55718" lon="6.66978">
        <ele>502</ele>
        <time>2015-01-25T10:27:11.000Z</time>
      </trkpt>
      <trkpt lat="47.55714" lon="6.66975">
        <ele>502</ele>
        <time>2015-01-25T10:27:13.000Z</time>
      </trkpt>
      <trkpt lat="47.55712" lon="6.66974">
        <ele>502</ele>
        <time>2015-01-25T10:27:14.000Z</time>
      </trkpt>
      <trkpt lat="47.5571" lon="6.66972">
        <ele>502</ele>
        <time>2015-01-25T10:27:15.000Z</time>
      </trkpt>
      <trkpt lat="47.55708" lon="6.66971">
        <ele>502</ele>
        <time>2015-01-25T10:27:16.000Z</time>
      </trkpt>
      <trkpt lat="47.55706" lon="6.66969">
        <ele>502</ele>
        <time>2015-01-25T10:27:17.000Z</time>
      </trkpt>
      <trkpt lat="47.55703" lon="6.66967">
        <ele>502</ele>
        <time>2015-01-25T10:27:18.000Z</time>
      </trkpt>
      <trkpt lat="47.55702" lon="6.66966">
        <ele>502</ele>
        <time>2015-01-25T10:27:18.999Z</time>
      </trkpt>
      <trkpt lat="47.55698" lon="6.66963">
        <ele>502</ele>
        <time>2015-01-25T10:27:20.000Z</time>
      </trkpt>
      <trkpt lat="47.55695" lon="6.66961">
        <ele>502</ele>
        <time>2015-01-25T10:27:21.000Z</time>
      </trkpt>
      <trkpt lat="47.55693" lon="6.66959">
        <ele>502</ele>
        <time>2015-01-25T10:27:22.000Z</time>
      </trkpt>
      <trkpt lat="47.5569" lon="6.66957">
        <ele>502</ele>
        <time>2015-01-25T10:27:23.000Z</time>
      </trkpt>
      <trkpt lat="47.55688" lon="6.66956">
        <ele>502</ele>
        <time>2015-01-25T10:27:24.035Z</time>
      </trkpt>
      <trkpt lat="47.55684" lon="6.66954">
        <ele>502</ele>
        <time>2015-01-25T10:27:25.000Z</time>
      </trkpt>
      <trkpt lat="47.55682" lon="6.66952">
        <ele>502</ele>
        <time>2015-01-25T10:27:25.999Z</time>
      </trkpt>
      <trkpt lat="47.55676" lon="6.66949">
        <ele>502</ele>
        <time>2015-01-25T10:27:27.000Z</time>
      </trkpt>
      <trkpt lat="47.55673" lon="6.66947">
        <ele>502</ele>
        <time>2015-01-25T10:27:28.000Z</time>
      </trkpt>
      <trkpt lat="47.55669" lon="6.66944">
        <ele>502</ele>
        <time>2015-01-25T10:27:29.000Z</time>
      </trkpt>
      <trkpt lat="47.55658" lon="6.66938">
        <ele>503</ele>
        <time>2015-01-25T10:27:30.000Z</time>
      </trkpt>
      <trkpt lat="47.55653" lon="6.66935">
        <ele>503</ele>
        <time>2015-01-25T10:27:31.000Z</time>
      </trkpt>
      <trkpt lat="47.5565" lon="6.66931">
        <ele>503</ele>
        <time>2015-01-25T10:27:32.000Z</time>
      </trkpt>
      <trkpt lat="47.55645" lon="6.66928">
        <ele>503</ele>
        <time>2015-01-25T10:27:33.000Z</time>
      </trkpt>
      <trkpt lat="47.55641" lon="6.66925">
        <ele>503</ele>
        <time>2015-01-25T10:27:34.000Z</time>
      </trkpt>
      <trkpt lat="47.55638" lon="6.66923">
        <ele>503</ele>
        <time>2015-01-25T10:27:34.999Z</time>
      </trkpt>
      <trkpt lat="47.5563" lon="6.66919">
        <ele>503</ele>
        <time>2015-01-25T10:27:36.000Z</time>
      </trkpt>
      <trkpt lat="47.55626" lon="6.66917">
        <ele>503</ele>
        <time>2015-01-25T10:27:37.000Z</time>
      </trkpt>
      <trkpt lat="47.55622" lon="6.66913">
        <ele>500</ele>
        <time>2015-01-25T10:27:38.000Z</time>
      </trkpt>
      <trkpt lat="47.55617" lon="6.6691">
        <ele>501</ele>
        <time>2015-01-25T10:27:39.000Z</time>
      </trkpt>
      <trkpt lat="47.55613" lon="6.66908">
        <ele>501</ele>
        <time>2015-01-25T10:27:40.000Z</time>
      </trkpt>
      <trkpt lat="47.55609" lon="6.669">
        <ele>501</ele>
        <time>2015-01-25T10:27:41.000Z</time>
      </trkpt>
      <trkpt lat="47.55605" lon="6.66896">
        <ele>501</ele>
        <time>2015-01-25T10:27:42.000Z</time>
      </trkpt>
      <trkpt lat="47.55601" lon="6.66889">
        <ele>500</ele>
        <time>2015-01-25T10:27:43.000Z</time>
      </trkpt>
      <trkpt lat="47.55595" lon="6.66881">
        <ele>500</ele>
        <time>2015-01-25T10:27:44.000Z</time>
      </trkpt>
      <trkpt lat="47.55585" lon="6.66865">
        <ele>500</ele>
        <time>2015-01-25T10:27:47.000Z</time>
      </trkpt>
      <trkpt lat="47.55581" lon="6.66858">
        <ele>500</ele>
        <time>2015-01-25T10:27:48.000Z</time>
      </trkpt>
      <trkpt lat="47.55578" lon="6.66852">
        <ele>500</ele>
        <time>2015-01-25T10:27:49.000Z</time>
      </trkpt>
      <trkpt lat="47.55573" lon="6.66846">
        <ele>500</ele>
        <time>2015-01-25T10:27:50.000Z</time>
      </trkpt>
      <trkpt lat="47.55565" lon="6.66843">
        <ele>500</ele>
        <time>2015-01-25T10:27:51.000Z</time>
      </trkpt>
      <trkpt lat="47.55556" lon="6.66835">
        <ele>499</ele>
        <time>2015-01-25T10:27:52.000Z</time>
      </trkpt>
      <trkpt lat="47.55551" lon="6.6683">
        <ele>499</ele>
        <time>2015-01-25T10:27:53.000Z</time>
      </trkpt>
      <trkpt lat="47.55548" lon="6.66824">
        <ele>499</ele>
        <time>2015-01-25T10:27:54.000Z</time>
      </trkpt>
      <trkpt lat="47.55549" lon="6.66815">
        <ele>499</ele>
        <time>2015-01-25T10:27:55.000Z</time>
      </trkpt>
      <trkpt lat="47.55542" lon="6.66808">
        <ele>498</ele>
        <time>2015-01-25T10:27:56.000Z</time>
      </trkpt>
      <trkpt lat="47.55539" lon="6.66803">
        <ele>498</ele>
        <time>2015-01-25T10:27:57.000Z</time>
      </trkpt>
      <trkpt lat="47.55537" lon="6.66802">
        <ele>498</ele>
        <time>2015-01-25T10:27:58.000Z</time>
      </trkpt>
      <trkpt lat="47.55534" lon="6.668">
        <ele>498</ele>
        <time>2015-01-25T10:27:59.000Z</time>
      </trkpt>
      <trkpt lat="47.55531" lon="6.668">
        <ele>499</ele>
        <time>2015-01-25T10:28:00.000Z</time>
      </trkpt>
      <trkpt lat="47.55527" lon="6.66799">
        <ele>499</ele>
        <time>2015-01-25T10:28:09.000Z</time>
      </trkpt>
      <trkpt lat="47.55526" lon="6.66799">
        <ele>499</ele>
        <time>2015-01-25T10:28:10.000Z</time>
      </trkpt>
      <trkpt lat="47.55523" lon="6.66794">
        <ele>499</ele>
        <time>2015-01-25T10:28:21.000Z</time>
      </trkpt>
      <trkpt lat="47.55523" lon="6.66794">
        <ele>499</ele>
        <time>2015-01-25T10:28:22.000Z</time>
      </trkpt>
      <trkpt lat="47.55519" lon="6.66793">
        <ele>499</ele>
        <time>2015-01-25T10:28:35.000Z</time>
      </trkpt>
      <trkpt lat="47.55518" lon="6.66793">
        <ele>499</ele>
        <time>2015-01-25T10:28:36.000Z</time>
      </trkpt>
      <trkpt lat="47.55516" lon="6.66799">
        <ele>499</ele>
        <time>2015-01-25T10:28:54.000Z</time>
      </trkpt>
      <trkpt lat="47.55516" lon="6.668">
        <ele>499</ele>
        <time>2015-01-25T10:28:55.000Z</time>
      </trkpt>
      <trkpt lat="47.55512" lon="6.66797">
        <ele>499</ele>
        <time>2015-01-25T10:30:15.000Z</time>
      </trkpt>
      <trkpt lat="47.55512" lon="6.66797">
        <ele>499</ele>
        <time>2015-01-25T10:30:16.000Z</time>
      </trkpt>
      <trkpt lat="47.55509" lon="6.66794">
        <ele>499</ele>
        <time>2015-01-25T10:30:20.000Z</time>
      </trkpt>
      <trkpt lat="47.55508" lon="6.66793">
        <ele>499</ele>
        <time>2015-01-25T10:30:21.000Z</time>
      </trkpt>
      <trkpt lat="47.55508" lon="6.66789">
        <ele>499</ele>
        <time>2015-01-25T10:30:23.000Z</time>
      </trkpt>
      <trkpt lat="47.55508" lon="6.66786">
        <ele>499</ele>
        <time>2015-01-25T10:30:24.000Z</time>
      </trkpt>
      <trkpt lat="47.55507" lon="6.66779">
        <ele>499</ele>
        <time>2015-01-25T10:30:26.000Z</time>
      </trkpt>
      <trkpt lat="47.55506" lon="6.66776">
        <ele>500</ele>
        <time>2015-01-25T10:30:27.000Z</time>
      </trkpt>
      <trkpt lat="47.55505" lon="6.66772">
        <ele>500</ele>
        <time>2015-01-25T10:30:28.000Z</time>
      </trkpt>
      <trkpt lat="47.55503" lon="6.66768">
        <ele>500</ele>
        <time>2015-01-25T10:30:29.000Z</time>
      </trkpt>
      <trkpt lat="47.555" lon="6.66764">
        <ele>501</ele>
        <time>2015-01-25T10:30:30.000Z</time>
      </trkpt>
      <trkpt lat="47.55498" lon="6.6676">
        <ele>501</ele>
        <time>2015-01-25T10:30:31.000Z</time>
      </trkpt>
      <trkpt lat="47.55495" lon="6.66757">
        <ele>502</ele>
        <time>2015-01-25T10:30:32.000Z</time>
      </trkpt>
      <trkpt lat="47.55493" lon="6.66754">
        <ele>502</ele>
        <time>2015-01-25T10:30:33.000Z</time>
      </trkpt>
      <trkpt lat="47.55491" lon="6.6675">
        <ele>502</ele>
        <time>2015-01-25T10:30:34.000Z</time>
      </trkpt>
      <trkpt lat="47.55489" lon="6.66747">
        <ele>502</ele>
        <time>2015-01-25T10:30:35.000Z</time>
      </trkpt>
      <trkpt lat="47.55487" lon="6.66742">
        <ele>502</ele>
        <time>2015-01-25T10:30:36.000Z</time>
      </trkpt>
      <trkpt lat="47.55485" lon="6.66738">
        <ele>501</ele>
        <time>2015-01-25T10:30:37.000Z</time>
      </trkpt>
      <trkpt lat="47.55482" lon="6.66734">
        <ele>501</ele>
        <time>2015-01-25T10:30:38.000Z</time>
      </trkpt>
      <trkpt lat="47.5548" lon="6.6673">
        <ele>501</ele>
        <time>2015-01-25T10:30:39.000Z</time>
      </trkpt>
      <trkpt lat="47.55478" lon="6.66725">
        <ele>501</ele>
        <time>2015-01-25T10:30:49.000Z</time>
      </trkpt>
      <trkpt lat="47.55478" lon="6.66723">
        <ele>501</ele>
        <time>2015-01-25T10:30:50.000Z</time>
      </trkpt>
      <trkpt lat="47.55476" lon="6.6672">
        <ele>501</ele>
        <time>2015-01-25T10:30:51.000Z</time>
      </trkpt>
      <trkpt lat="47.55474" lon="6.66716">
        <ele>500</ele>
        <time>2015-01-25T10:30:52.000Z</time>
      </trkpt>
      <trkpt lat="47.55472" lon="6.66712">
        <ele>500</ele>
        <time>2015-01-25T10:30:53.000Z</time>
      </trkpt>
      <trkpt lat="47.55469" lon="6.66708">
        <ele>500</ele>
        <time>2015-01-25T10:30:54.000Z</time>
      </trkpt>
      <trkpt lat="47.55466" lon="6.66704">
        <ele>500</ele>
        <time>2015-01-25T10:30:55.000Z</time>
      </trkpt>
      <trkpt lat="47.55464" lon="6.667">
        <ele>500</ele>
        <time>2015-01-25T10:30:56.000Z</time>
      </trkpt>
      <trkpt lat="47.55462" lon="6.66696">
        <ele>500</ele>
        <time>2015-01-25T10:30:57.000Z</time>
      </trkpt>
      <trkpt lat="47.55459" lon="6.66692">
        <ele>500</ele>
        <time>2015-01-25T10:30:58.000Z</time>
      </trkpt>
      <trkpt lat="47.55457" lon="6.66689">
        <ele>500</ele>
        <time>2015-01-25T10:30:59.000Z</time>
      </trkpt>
      <trkpt lat="47.55454" lon="6.66685">
        <ele>500</ele>
        <time>2015-01-25T10:31:00.000Z</time>
      </trkpt>
      <trkpt lat="47.55451" lon="6.6668">
        <ele>500</ele>
        <time>2015-01-25T10:31:01.000Z</time>
      </trkpt>
      <trkpt lat="47.55448" lon="6.66675">
        <ele>500</ele>
        <time>2015-01-25T10:31:02.000Z</time>
      </trkpt>
      <trkpt lat="47.55445" lon="6.6667">
        <ele>500</ele>
        <time>2015-01-25T10:31:03.000Z</time>
      </trkpt>
      <trkpt lat="47.55441" lon="6.66665">
        <ele>499</ele>
        <time>2015-01-25T10:31:04.000Z</time>
      </trkpt>
      <trkpt lat="47.55438" lon="6.6666">
        <ele>499</ele>
        <time>2015-01-25T10:31:05.000Z</time>
      </trkpt>
      <trkpt lat="47.55435" lon="6.66656">
        <ele>499</ele>
        <time>2015-01-25T10:31:06.000Z</time>
      </trkpt>
      <trkpt lat="47.55432" lon="6.66651">
        <ele>499</ele>
        <time>2015-01-25T10:31:07.000Z</time>
      </trkpt>
      <trkpt lat="47.5543" lon="6.66646">
        <ele>499</ele>
        <time>2015-01-25T10:31:08.000Z</time>
      </trkpt>
      <trkpt lat="47.55427" lon="6.66642">
        <ele>499</ele>
        <time>2015-01-25T10:31:09.000Z</time>
      </trkpt>
      <trkpt lat="47.55425" lon="6.66637">
        <ele>499</ele>
        <time>2015-01-25T10:31:10.000Z</time>
      </trkpt>
      <trkpt lat="47.55419" lon="6.6663">
        <ele>499</ele>
        <time>2015-01-25T10:31:11.000Z</time>
      </trkpt>
      <trkpt lat="47.55416" lon="6.66626">
        <ele>501</ele>
        <time>2015-01-25T10:31:12.000Z</time>
      </trkpt>
      <trkpt lat="47.55414" lon="6.66621">
        <ele>501</ele>
        <time>2015-01-25T10:31:13.000Z</time>
      </trkpt>
      <trkpt lat="47.55411" lon="6.66617">
        <ele>501</ele>
        <time>2015-01-25T10:31:14.000Z</time>
      </trkpt>
      <trkpt lat="47.55409" lon="6.66613">
        <ele>501</ele>
        <time>2015-01-25T10:31:15.000Z</time>
      </trkpt>
      <trkpt lat="47.55407" lon="6.66608">
        <ele>501</ele>
        <time>2015-01-25T10:31:16.000Z</time>
      </trkpt>
      <trkpt lat="47.55406" lon="6.66605">
        <ele>501</ele>
        <time>2015-01-25T10:31:17.000Z</time>
      </trkpt>
      <trkpt lat="47.55407" lon="6.66597">
        <ele>502</ele>
        <time>2015-01-25T10:31:18.000Z</time>
      </trkpt>
      <trkpt lat="47.55406" lon="6.66593">
        <ele>502</ele>
        <time>2015-01-25T10:31:19.000Z</time>
      </trkpt>
      <trkpt lat="47.55405" lon="6.66588">
        <ele>502</ele>
        <time>2015-01-25T10:31:20.000Z</time>
      </trkpt>
      <trkpt lat="47.55404" lon="6.66583">
        <ele>502</ele>
        <time>2015-01-25T10:31:21.000Z</time>
      </trkpt>
      <trkpt lat="47.55403" lon="6.66579">
        <ele>502</ele>
        <time>2015-01-25T10:31:22.000Z</time>
      </trkpt>
      <trkpt lat="47.55402" lon="6.66574">
        <ele>502</ele>
        <time>2015-01-25T10:31:23.000Z</time>
      </trkpt>
      <trkpt lat="47.55402" lon="6.6657">
        <ele>502</ele>
        <time>2015-01-25T10:31:24.000Z</time>
      </trkpt>
      <trkpt lat="47.55401" lon="6.66566">
        <ele>501</ele>
        <time>2015-01-25T10:31:25.000Z</time>
      </trkpt>
      <trkpt lat="47.55399" lon="6.66562">
        <ele>501</ele>
        <time>2015-01-25T10:31:26.000Z</time>
      </trkpt>
      <trkpt lat="47.55398" lon="6.66558">
        <ele>501</ele>
        <time>2015-01-25T10:31:27.000Z</time>
      </trkpt>
      <trkpt lat="47.55396" lon="6.66554">
        <ele>501</ele>
        <time>2015-01-25T10:31:28.000Z</time>
      </trkpt>
      <trkpt lat="47.55393" lon="6.6655">
        <ele>501</ele>
        <time>2015-01-25T10:31:29.000Z</time>
      </trkpt>
      <trkpt lat="47.55391" lon="6.66546">
        <ele>501</ele>
        <time>2015-01-25T10:31:30.000Z</time>
      </trkpt>
      <trkpt lat="47.55388" lon="6.66542">
        <ele>501</ele>
        <time>2015-01-25T10:31:31.000Z</time>
      </trkpt>
      <trkpt lat="47.55385" lon="6.66539">
        <ele>501</ele>
        <time>2015-01-25T10:31:32.000Z</time>
      </trkpt>
      <trkpt lat="47.55381" lon="6.66536">
        <ele>501</ele>
        <time>2015-01-25T10:31:33.000Z</time>
      </trkpt>
      <trkpt lat="47.55377" lon="6.66533">
        <ele>501</ele>
        <time>2015-01-25T10:31:34.000Z</time>
      </trkpt>
      <trkpt lat="47.55373" lon="6.66531">
        <ele>501</ele>
        <time>2015-01-25T10:31:35.000Z</time>
      </trkpt>
      <trkpt lat="47.55369" lon="6.66528">
        <ele>501</ele>
        <time>2015-01-25T10:31:36.000Z</time>
      </trkpt>
      <trkpt lat="47.55366" lon="6.66526">
        <ele>501</ele>
        <time>2015-01-25T10:31:37.000Z</time>
      </trkpt>
      <trkpt lat="47.55363" lon="6.66523">
        <ele>502</ele>
        <time>2015-01-25T10:31:38.000Z</time>
      </trkpt>
      <trkpt lat="47.5536" lon="6.6652">
        <ele>502</ele>
        <time>2015-01-25T10:31:39.000Z</time>
      </trkpt>
      <trkpt lat="47.55357" lon="6.66516">
        <ele>502</ele>
        <time>2015-01-25T10:31:40.000Z</time>
      </trkpt>
      <trkpt lat="47.55355" lon="6.66513">
        <ele>503</ele>
        <time>2015-01-25T10:31:41.000Z</time>
      </trkpt>
      <trkpt lat="47.55354" lon="6.6651">
        <ele>503</ele>
        <time>2015-01-25T10:31:42.000Z</time>
      </trkpt>
      <trkpt lat="47.55352" lon="6.66507">
        <ele>503</ele>
        <time>2015-01-25T10:31:43.000Z</time>
      </trkpt>
      <trkpt lat="47.5535" lon="6.66504">
        <ele>504</ele>
        <time>2015-01-25T10:31:44.000Z</time>
      </trkpt>
      <trkpt lat="47.55344" lon="6.66496">
        <ele>504</ele>
        <time>2015-01-25T10:31:47.000Z</time>
      </trkpt>
      <trkpt lat="47.55341" lon="6.66493">
        <ele>504</ele>
        <time>2015-01-25T10:31:48.000Z</time>
      </trkpt>
      <trkpt lat="47.55339" lon="6.6649">
        <ele>504</ele>
        <time>2015-01-25T10:31:49.000Z</time>
      </trkpt>
      <trkpt lat="47.55338" lon="6.66487">
        <ele>503</ele>
        <time>2015-01-25T10:31:50.000Z</time>
      </trkpt>
      <trkpt lat="47.55336" lon="6.66484">
        <ele>503</ele>
        <time>2015-01-25T10:31:51.000Z</time>
      </trkpt>
      <trkpt lat="47.55335" lon="6.66481">
        <ele>503</ele>
        <time>2015-01-25T10:31:52.000Z</time>
      </trkpt>
      <trkpt lat="47.55334" lon="6.66478">
        <ele>502</ele>
        <time>2015-01-25T10:31:53.000Z</time>
      </trkpt>
      <trkpt lat="47.55332" lon="6.66473">
        <ele>508</ele>
        <time>2015-01-25T10:31:55.000Z</time>
      </trkpt>
      <trkpt lat="47.55331" lon="6.6647">
        <ele>508</ele>
        <time>2015-01-25T10:31:56.000Z</time>
      </trkpt>
      <trkpt lat="47.55328" lon="6.66465">
        <ele>508</ele>
        <time>2015-01-25T10:31:58.000Z</time>
      </trkpt>
      <trkpt lat="47.55327" lon="6.66462">
        <ele>508</ele>
        <time>2015-01-25T10:31:59.000Z</time>
      </trkpt>
      <trkpt lat="47.55326" lon="6.66456">
        <ele>508</ele>
        <time>2015-01-25T10:32:01.000Z</time>
      </trkpt>
      <trkpt lat="47.55325" lon="6.66454">
        <ele>508</ele>
        <time>2015-01-25T10:32:02.000Z</time>
      </trkpt>
      <trkpt lat="47.55322" lon="6.66451">
        <ele>508</ele>
        <time>2015-01-25T10:32:04.000Z</time>
      </trkpt>
      <trkpt lat="47.5532" lon="6.66449">
        <ele>508</ele>
        <time>2015-01-25T10:32:05.000Z</time>
      </trkpt>
      <trkpt lat="47.55318" lon="6.66445">
        <ele>508</ele>
        <time>2015-01-25T10:32:07.000Z</time>
      </trkpt>
      <trkpt lat="47.55317" lon="6.66443">
        <ele>508</ele>
        <time>2015-01-25T10:32:08.000Z</time>
      </trkpt>
      <trkpt lat="47.55315" lon="6.66439">
        <ele>508</ele>
        <time>2015-01-25T10:32:10.000Z</time>
      </trkpt>
      <trkpt lat="47.55315" lon="6.66437">
        <ele>508</ele>
        <time>2015-01-25T10:32:11.000Z</time>
      </trkpt>
      <trkpt lat="47.55314" lon="6.66431">
        <ele>508</ele>
        <time>2015-01-25T10:32:14.000Z</time>
      </trkpt>
      <trkpt lat="47.55314" lon="6.6643">
        <ele>508</ele>
        <time>2015-01-25T10:32:15.000Z</time>
      </trkpt>
      <trkpt lat="47.55315" lon="6.66425">
        <ele>508</ele>
        <time>2015-01-25T10:32:17.000Z</time>
      </trkpt>
      <trkpt lat="47.55315" lon="6.66422">
        <ele>508</ele>
        <time>2015-01-25T10:32:18.000Z</time>
      </trkpt>
      <trkpt lat="47.55316" lon="6.66416">
        <ele>507</ele>
        <time>2015-01-25T10:32:20.000Z</time>
      </trkpt>
      <trkpt lat="47.55316" lon="6.66414">
        <ele>507</ele>
        <time>2015-01-25T10:32:21.000Z</time>
      </trkpt>
      <trkpt lat="47.55315" lon="6.66408">
        <ele>507</ele>
        <time>2015-01-25T10:32:24.000Z</time>
      </trkpt>
      <trkpt lat="47.55314" lon="6.66407">
        <ele>507</ele>
        <time>2015-01-25T10:32:25.000Z</time>
      </trkpt>
      <trkpt lat="47.55313" lon="6.66402">
        <ele>507</ele>
        <time>2015-01-25T10:32:28.000Z</time>
      </trkpt>
      <trkpt lat="47.55312" lon="6.664">
        <ele>507</ele>
        <time>2015-01-25T10:32:29.000Z</time>
      </trkpt>
      <trkpt lat="47.5531" lon="6.66396">
        <ele>507</ele>
        <time>2015-01-25T10:32:32.000Z</time>
      </trkpt>
      <trkpt lat="47.55309" lon="6.66394">
        <ele>507</ele>
        <time>2015-01-25T10:32:33.000Z</time>
      </trkpt>
      <trkpt lat="47.55309" lon="6.66388">
        <ele>507</ele>
        <time>2015-01-25T10:32:37.000Z</time>
      </trkpt>
      <trkpt lat="47.55309" lon="6.66387">
        <ele>507</ele>
        <time>2015-01-25T10:32:38.000Z</time>
      </trkpt>
      <trkpt lat="47.55307" lon="6.66384">
        <ele>507</ele>
        <time>2015-01-25T10:32:44.000Z</time>
      </trkpt>
      <trkpt lat="47.55305" lon="6.66382">
        <ele>507</ele>
        <time>2015-01-25T10:32:51.791Z</time>
      </trkpt>
      <trkpt lat="47.55306" lon="6.66377">
        <ele>507</ele>
        <time>2015-01-25T10:32:55.000Z</time>
      </trkpt>
      <trkpt lat="47.55305" lon="6.66374">
        <ele>507</ele>
        <time>2015-01-25T10:32:56.000Z</time>
      </trkpt>
      <trkpt lat="47.55303" lon="6.66369">
        <ele>506</ele>
        <time>2015-01-25T10:32:58.000Z</time>
      </trkpt>
      <trkpt lat="47.55303" lon="6.66366">
        <ele>506</ele>
        <time>2015-01-25T10:32:59.000Z</time>
      </trkpt>
      <trkpt lat="47.55301" lon="6.66363">
        <ele>506</ele>
        <time>2015-01-25T10:33:00.000Z</time>
      </trkpt>
      <trkpt lat="47.55299" lon="6.6636">
        <ele>506</ele>
        <time>2015-01-25T10:33:01.000Z</time>
      </trkpt>
      <trkpt lat="47.55297" lon="6.66358">
        <ele>507</ele>
        <time>2015-01-25T10:33:02.000Z</time>
      </trkpt>
      <trkpt lat="47.55295" lon="6.66356">
        <ele>507</ele>
        <time>2015-01-25T10:33:03.000Z</time>
      </trkpt>
      <trkpt lat="47.55294" lon="6.66354">
        <ele>507</ele>
        <time>2015-01-25T10:33:04.000Z</time>
      </trkpt>
      <trkpt lat="47.55292" lon="6.66352">
        <ele>507</ele>
        <time>2015-01-25T10:33:05.000Z</time>
      </trkpt>
      <trkpt lat="47.5529" lon="6.6635">
        <ele>507</ele>
        <time>2015-01-25T10:33:06.000Z</time>
      </trkpt>
      <trkpt lat="47.55288" lon="6.66347">
        <ele>507</ele>
        <time>2015-01-25T10:33:07.000Z</time>
      </trkpt>
      <trkpt lat="47.55285" lon="6.66345">
        <ele>508</ele>
        <time>2015-01-25T10:33:08.000Z</time>
      </trkpt>
      <trkpt lat="47.55283" lon="6.66342">
        <ele>508</ele>
        <time>2015-01-25T10:33:09.000Z</time>
      </trkpt>
      <trkpt lat="47.55281" lon="6.6634">
        <ele>508</ele>
        <time>2015-01-25T10:33:10.000Z</time>
      </trkpt>
      <trkpt lat="47.55278" lon="6.66338">
        <ele>509</ele>
        <time>2015-01-25T10:33:11.000Z</time>
      </trkpt>
      <trkpt lat="47.55277" lon="6.66336">
        <ele>509</ele>
        <time>2015-01-25T10:33:12.000Z</time>
      </trkpt>
      <trkpt lat="47.55275" lon="6.66333">
        <ele>509</ele>
        <time>2015-01-25T10:33:13.000Z</time>
      </trkpt>
      <trkpt lat="47.55272" lon="6.66331">
        <ele>506</ele>
        <time>2015-01-25T10:33:14.000Z</time>
      </trkpt>
      <trkpt lat="47.5527" lon="6.66329">
        <ele>507</ele>
        <time>2015-01-25T10:33:15.000Z</time>
      </trkpt>
      <trkpt lat="47.55268" lon="6.66327">
        <ele>507</ele>
        <time>2015-01-25T10:33:16.000Z</time>
      </trkpt>
      <trkpt lat="47.55266" lon="6.66326">
        <ele>507</ele>
        <time>2015-01-25T10:33:17.000Z</time>
      </trkpt>
      <trkpt lat="47.55264" lon="6.66324">
        <ele>508</ele>
        <time>2015-01-25T10:33:18.000Z</time>
      </trkpt>
      <trkpt lat="47.55262" lon="6.66322">
        <ele>508</ele>
        <time>2015-01-25T10:33:19.000Z</time>
      </trkpt>
      <trkpt lat="47.55259" lon="6.66319">
        <ele>508</ele>
        <time>2015-01-25T10:33:20.000Z</time>
      </trkpt>
      <trkpt lat="47.55257" lon="6.66317">
        <ele>508</ele>
        <time>2015-01-25T10:33:21.000Z</time>
      </trkpt>
      <trkpt lat="47.55255" lon="6.66315">
        <ele>507</ele>
        <time>2015-01-25T10:33:22.000Z</time>
      </trkpt>
      <trkpt lat="47.55252" lon="6.66313">
        <ele>507</ele>
        <time>2015-01-25T10:33:23.000Z</time>
      </trkpt>
      <trkpt lat="47.5525" lon="6.66311">
        <ele>507</ele>
        <time>2015-01-25T10:33:24.000Z</time>
      </trkpt>
      <trkpt lat="47.55249" lon="6.66308">
        <ele>512</ele>
        <time>2015-01-25T10:33:25.000Z</time>
      </trkpt>
      <trkpt lat="47.55247" lon="6.66305">
        <ele>512</ele>
        <time>2015-01-25T10:33:26.000Z</time>
      </trkpt>
      <trkpt lat="47.55246" lon="6.66301">
        <ele>512</ele>
        <time>2015-01-25T10:33:27.000Z</time>
      </trkpt>
      <trkpt lat="47.55246" lon="6.66297">
        <ele>512</ele>
        <time>2015-01-25T10:33:28.000Z</time>
      </trkpt>
      <trkpt lat="47.55245" lon="6.66293">
        <ele>512</ele>
        <time>2015-01-25T10:33:29.000Z</time>
      </trkpt>
      <trkpt lat="47.55244" lon="6.66287">
        <ele>511</ele>
        <time>2015-01-25T10:33:31.000Z</time>
      </trkpt>
      <trkpt lat="47.55243" lon="6.66285">
        <ele>511</ele>
        <time>2015-01-25T10:33:32.000Z</time>
      </trkpt>
      <trkpt lat="47.55241" lon="6.66282">
        <ele>511</ele>
        <time>2015-01-25T10:33:33.000Z</time>
      </trkpt>
      <trkpt lat="47.55239" lon="6.66281">
        <ele>511</ele>
        <time>2015-01-25T10:33:34.000Z</time>
      </trkpt>
      <trkpt lat="47.55237" lon="6.66278">
        <ele>511</ele>
        <time>2015-01-25T10:33:35.000Z</time>
      </trkpt>
      <trkpt lat="47.55235" lon="6.66275">
        <ele>511</ele>
        <time>2015-01-25T10:33:36.000Z</time>
      </trkpt>
      <trkpt lat="47.55234" lon="6.66272">
        <ele>511</ele>
        <time>2015-01-25T10:33:37.000Z</time>
      </trkpt>
      <trkpt lat="47.55234" lon="6.66269">
        <ele>511</ele>
        <time>2015-01-25T10:33:38.000Z</time>
      </trkpt>
      <trkpt lat="47.55232" lon="6.66263">
        <ele>511</ele>
        <time>2015-01-25T10:33:40.000Z</time>
      </trkpt>
      <trkpt lat="47.55231" lon="6.66261">
        <ele>511</ele>
        <time>2015-01-25T10:33:41.000Z</time>
      </trkpt>
      <trkpt lat="47.55228" lon="6.66259">
        <ele>511</ele>
        <time>2015-01-25T10:33:42.000Z</time>
      </trkpt>
      <trkpt lat="47.55225" lon="6.66258">
        <ele>511</ele>
        <time>2015-01-25T10:33:43.000Z</time>
      </trkpt>
      <trkpt lat="47.55222" lon="6.66256">
        <ele>511</ele>
        <time>2015-01-25T10:33:44.000Z</time>
      </trkpt>
      <trkpt lat="47.55215" lon="6.6625">
        <ele>511</ele>
        <time>2015-01-25T10:33:47.000Z</time>
      </trkpt>
      <trkpt lat="47.55211" lon="6.66247">
        <ele>506</ele>
        <time>2015-01-25T10:33:49.000Z</time>
      </trkpt>
      <trkpt lat="47.5521" lon="6.66245">
        <ele>506</ele>
        <time>2015-01-25T10:33:50.000Z</time>
      </trkpt>
      <trkpt lat="47.55208" lon="6.66243">
        <ele>506</ele>
        <time>2015-01-25T10:33:51.000Z</time>
      </trkpt>
      <trkpt lat="47.55206" lon="6.66242">
        <ele>506</ele>
        <time>2015-01-25T10:33:52.000Z</time>
      </trkpt>
      <trkpt lat="47.55204" lon="6.6624">
        <ele>506</ele>
        <time>2015-01-25T10:33:53.000Z</time>
      </trkpt>
      <trkpt lat="47.55202" lon="6.66238">
        <ele>506</ele>
        <time>2015-01-25T10:33:54.000Z</time>
      </trkpt>
      <trkpt lat="47.55198" lon="6.66234">
        <ele>506</ele>
        <time>2015-01-25T10:33:56.000Z</time>
      </trkpt>
      <trkpt lat="47.55196" lon="6.66233">
        <ele>507</ele>
        <time>2015-01-25T10:33:57.000Z</time>
      </trkpt>
      <trkpt lat="47.55193" lon="6.66229">
        <ele>506</ele>
        <time>2015-01-25T10:33:59.000Z</time>
      </trkpt>
      <trkpt lat="47.55191" lon="6.66227">
        <ele>507</ele>
        <time>2015-01-25T10:34:00.000Z</time>
      </trkpt>
      <trkpt lat="47.55188" lon="6.66226">
        <ele>507</ele>
        <time>2015-01-25T10:34:01.000Z</time>
      </trkpt>
      <trkpt lat="47.55185" lon="6.66225">
        <ele>507</ele>
        <time>2015-01-25T10:34:02.000Z</time>
      </trkpt>
      <trkpt lat="47.55181" lon="6.66224">
        <ele>507</ele>
        <time>2015-01-25T10:34:03.000Z</time>
      </trkpt>
      <trkpt lat="47.55178" lon="6.66224">
        <ele>507</ele>
        <time>2015-01-25T10:34:04.000Z</time>
      </trkpt>
      <trkpt lat="47.55176" lon="6.66223">
        <ele>507</ele>
        <time>2015-01-25T10:34:05.000Z</time>
      </trkpt>
      <trkpt lat="47.55174" lon="6.66222">
        <ele>507</ele>
        <time>2015-01-25T10:34:06.000Z</time>
      </trkpt>
      <trkpt lat="47.55172" lon="6.66216">
        <ele>507</ele>
        <time>2015-01-25T10:34:08.000Z</time>
      </trkpt>
      <trkpt lat="47.55171" lon="6.66213">
        <ele>506</ele>
        <time>2015-01-25T10:34:09.000Z</time>
      </trkpt>
      <trkpt lat="47.55167" lon="6.6621">
        <ele>506</ele>
        <time>2015-01-25T10:34:11.000Z</time>
      </trkpt>
      <trkpt lat="47.55165" lon="6.6621">
        <ele>512</ele>
        <time>2015-01-25T10:34:12.000Z</time>
      </trkpt>
      <trkpt lat="47.5516" lon="6.66211">
        <ele>512</ele>
        <time>2015-01-25T10:34:14.000Z</time>
      </trkpt>
      <trkpt lat="47.55158" lon="6.66211">
        <ele>512</ele>
        <time>2015-01-25T10:34:15.000Z</time>
      </trkpt>
      <trkpt lat="47.55155" lon="6.6621">
        <ele>512</ele>
        <time>2015-01-25T10:34:16.000Z</time>
      </trkpt>
      <trkpt lat="47.55153" lon="6.66209">
        <ele>512</ele>
        <time>2015-01-25T10:34:17.000Z</time>
      </trkpt>
      <trkpt lat="47.55149" lon="6.66207">
        <ele>512</ele>
        <time>2015-01-25T10:34:19.000Z</time>
      </trkpt>
      <trkpt lat="47.55147" lon="6.66204">
        <ele>511</ele>
        <time>2015-01-25T10:34:20.000Z</time>
      </trkpt>
      <trkpt lat="47.55145" lon="6.66201">
        <ele>511</ele>
        <time>2015-01-25T10:34:21.000Z</time>
      </trkpt>
      <trkpt lat="47.55143" lon="6.66198">
        <ele>511</ele>
        <time>2015-01-25T10:34:22.000Z</time>
      </trkpt>
      <trkpt lat="47.55141" lon="6.66196">
        <ele>511</ele>
        <time>2015-01-25T10:34:23.000Z</time>
      </trkpt>
      <trkpt lat="47.55139" lon="6.66195">
        <ele>511</ele>
        <time>2015-01-25T10:34:24.000Z</time>
      </trkpt>
      <trkpt lat="47.55135" lon="6.66192">
        <ele>511</ele>
        <time>2015-01-25T10:34:26.000Z</time>
      </trkpt>
      <trkpt lat="47.55132" lon="6.6619">
        <ele>511</ele>
        <time>2015-01-25T10:34:27.000Z</time>
      </trkpt>
      <trkpt lat="47.55129" lon="6.66189">
        <ele>511</ele>
        <time>2015-01-25T10:34:28.000Z</time>
      </trkpt>
      <trkpt lat="47.55125" lon="6.66188">
        <ele>512</ele>
        <time>2015-01-25T10:34:29.000Z</time>
      </trkpt>
      <trkpt lat="47.55122" lon="6.66187">
        <ele>512</ele>
        <time>2015-01-25T10:34:30.000Z</time>
      </trkpt>
      <trkpt lat="47.55119" lon="6.66185">
        <ele>512</ele>
        <time>2015-01-25T10:34:31.000Z</time>
      </trkpt>
      <trkpt lat="47.55116" lon="6.66183">
        <ele>512</ele>
        <time>2015-01-25T10:34:32.000Z</time>
      </trkpt>
      <trkpt lat="47.55113" lon="6.6618">
        <ele>512</ele>
        <time>2015-01-25T10:34:33.000Z</time>
      </trkpt>
      <trkpt lat="47.55109" lon="6.66178">
        <ele>512</ele>
        <time>2015-01-25T10:34:34.000Z</time>
      </trkpt>
      <trkpt lat="47.55106" lon="6.66176">
        <ele>512</ele>
        <time>2015-01-25T10:34:35.000Z</time>
      </trkpt>
      <trkpt lat="47.55102" lon="6.66175">
        <ele>513</ele>
        <time>2015-01-25T10:34:36.000Z</time>
      </trkpt>
      <trkpt lat="47.55099" lon="6.66175">
        <ele>513</ele>
        <time>2015-01-25T10:34:37.000Z</time>
      </trkpt>
      <trkpt lat="47.55096" lon="6.66174">
        <ele>513</ele>
        <time>2015-01-25T10:34:38.000Z</time>
      </trkpt>
      <trkpt lat="47.55093" lon="6.66172">
        <ele>513</ele>
        <time>2015-01-25T10:34:39.000Z</time>
      </trkpt>
      <trkpt lat="47.5509" lon="6.66171">
        <ele>513</ele>
        <time>2015-01-25T10:34:40.000Z</time>
      </trkpt>
      <trkpt lat="47.55087" lon="6.6617">
        <ele>514</ele>
        <time>2015-01-25T10:34:41.000Z</time>
      </trkpt>
      <trkpt lat="47.55083" lon="6.66168">
        <ele>514</ele>
        <time>2015-01-25T10:34:43.000Z</time>
      </trkpt>
      <trkpt lat="47.55081" lon="6.66167">
        <ele>514</ele>
        <time>2015-01-25T10:34:44.000Z</time>
      </trkpt>
      <trkpt lat="47.55079" lon="6.66166">
        <ele>513</ele>
        <time>2015-01-25T10:34:45.000Z</time>
      </trkpt>
      <trkpt lat="47.55072" lon="6.66158">
        <ele>512</ele>
        <time>2015-01-25T10:34:53.000Z</time>
      </trkpt>
      <trkpt lat="47.5507" lon="6.66155">
        <ele>511</ele>
        <time>2015-01-25T10:34:56.000Z</time>
      </trkpt>
      <trkpt lat="47.55067" lon="6.66152">
        <ele>511</ele>
        <time>2015-01-25T10:34:57.000Z</time>
      </trkpt>
      <trkpt lat="47.55064" lon="6.6615">
        <ele>511</ele>
        <time>2015-01-25T10:34:58.000Z</time>
      </trkpt>
      <trkpt lat="47.55059" lon="6.66149">
        <ele>511</ele>
        <time>2015-01-25T10:34:59.000Z</time>
      </trkpt>
      <trkpt lat="47.55055" lon="6.66148">
        <ele>511</ele>
        <time>2015-01-25T10:35:00.000Z</time>
      </trkpt>
      <trkpt lat="47.55051" lon="6.66148">
        <ele>511</ele>
        <time>2015-01-25T10:35:01.000Z</time>
      </trkpt>
      <trkpt lat="47.55047" lon="6.66147">
        <ele>510</ele>
        <time>2015-01-25T10:35:02.000Z</time>
      </trkpt>
      <trkpt lat="47.55044" lon="6.66147">
        <ele>510</ele>
        <time>2015-01-25T10:35:03.000Z</time>
      </trkpt>
      <trkpt lat="47.55041" lon="6.66146">
        <ele>511</ele>
        <time>2015-01-25T10:35:04.000Z</time>
      </trkpt>
      <trkpt lat="47.55038" lon="6.66145">
        <ele>511</ele>
        <time>2015-01-25T10:35:05.000Z</time>
      </trkpt>
      <trkpt lat="47.55035" lon="6.66144">
        <ele>511</ele>
        <time>2015-01-25T10:35:06.000Z</time>
      </trkpt>
      <trkpt lat="47.55033" lon="6.66142">
        <ele>511</ele>
        <time>2015-01-25T10:35:07.000Z</time>
      </trkpt>
      <trkpt lat="47.55031" lon="6.6614">
        <ele>510</ele>
        <time>2015-01-25T10:35:08.000Z</time>
      </trkpt>
      <trkpt lat="47.55029" lon="6.66138">
        <ele>510</ele>
        <time>2015-01-25T10:35:09.000Z</time>
      </trkpt>
      <trkpt lat="47.55027" lon="6.66135">
        <ele>510</ele>
        <time>2015-01-25T10:35:10.000Z</time>
      </trkpt>
      <trkpt lat="47.55025" lon="6.66132">
        <ele>510</ele>
        <time>2015-01-25T10:35:11.000Z</time>
      </trkpt>
      <trkpt lat="47.55022" lon="6.66129">
        <ele>510</ele>
        <time>2015-01-25T10:35:12.000Z</time>
      </trkpt>
      <trkpt lat="47.55019" lon="6.66125">
        <ele>510</ele>
        <time>2015-01-25T10:35:13.000Z</time>
      </trkpt>
      <trkpt lat="47.55016" lon="6.66123">
        <ele>510</ele>
        <time>2015-01-25T10:35:14.000Z</time>
      </trkpt>
      <trkpt lat="47.55013" lon="6.66121">
        <ele>510</ele>
        <time>2015-01-25T10:35:15.000Z</time>
      </trkpt>
      <trkpt lat="47.55011" lon="6.66119">
        <ele>510</ele>
        <time>2015-01-25T10:35:16.000Z</time>
      </trkpt>
      <trkpt lat="47.55008" lon="6.66117">
        <ele>509</ele>
        <time>2015-01-25T10:35:17.000Z</time>
      </trkpt>
      <trkpt lat="47.55005" lon="6.66115">
        <ele>509</ele>
        <time>2015-01-25T10:35:18.000Z</time>
      </trkpt>
      <trkpt lat="47.55002" lon="6.66112">
        <ele>509</ele>
        <time>2015-01-25T10:35:19.000Z</time>
      </trkpt>
      <trkpt lat="47.54999" lon="6.6611">
        <ele>512</ele>
        <time>2015-01-25T10:35:20.000Z</time>
      </trkpt>
      <trkpt lat="47.54997" lon="6.66109">
        <ele>511</ele>
        <time>2015-01-25T10:35:21.000Z</time>
      </trkpt>
      <trkpt lat="47.54994" lon="6.66105">
        <ele>511</ele>
        <time>2015-01-25T10:35:23.000Z</time>
      </trkpt>
      <trkpt lat="47.54993" lon="6.66103">
        <ele>511</ele>
        <time>2015-01-25T10:35:24.000Z</time>
      </trkpt>
      <trkpt lat="47.54992" lon="6.661">
        <ele>511</ele>
        <time>2015-01-25T10:35:25.000Z</time>
      </trkpt>
      <trkpt lat="47.54991" lon="6.66097">
        <ele>511</ele>
        <time>2015-01-25T10:35:26.000Z</time>
      </trkpt>
      <trkpt lat="47.54989" lon="6.66094">
        <ele>510</ele>
        <time>2015-01-25T10:35:27.000Z</time>
      </trkpt>
      <trkpt lat="47.54986" lon="6.66091">
        <ele>511</ele>
        <time>2015-01-25T10:35:28.000Z</time>
      </trkpt>
      <trkpt lat="47.54983" lon="6.6609">
        <ele>511</ele>
        <time>2015-01-25T10:35:29.000Z</time>
      </trkpt>
      <trkpt lat="47.5498" lon="6.66089">
        <ele>511</ele>
        <time>2015-01-25T10:35:30.000Z</time>
      </trkpt>
      <trkpt lat="47.54976" lon="6.66089">
        <ele>511</ele>
        <time>2015-01-25T10:35:31.000Z</time>
      </trkpt>
      <trkpt lat="47.54973" lon="6.6609">
        <ele>512</ele>
        <time>2015-01-25T10:35:32.000Z</time>
      </trkpt>
      <trkpt lat="47.5497" lon="6.6609">
        <ele>512</ele>
        <time>2015-01-25T10:35:33.000Z</time>
      </trkpt>
      <trkpt lat="47.54968" lon="6.66089">
        <ele>512</ele>
        <time>2015-01-25T10:35:34.000Z</time>
      </trkpt>
      <trkpt lat="47.54964" lon="6.66087">
        <ele>512</ele>
        <time>2015-01-25T10:35:37.000Z</time>
      </trkpt>
      <trkpt lat="47.54963" lon="6.66086">
        <ele>512</ele>
        <time>2015-01-25T10:35:38.000Z</time>
      </trkpt>
      <trkpt lat="47.54962" lon="6.6608">
        <ele>508</ele>
        <time>2015-01-25T10:35:44.000Z</time>
      </trkpt>
      <trkpt lat="47.54962" lon="6.66078">
        <ele>508</ele>
        <time>2015-01-25T10:35:47.000Z</time>
      </trkpt>
      <trkpt lat="47.5496" lon="6.66073">
        <ele>508</ele>
        <time>2015-01-25T10:35:53.000Z</time>
      </trkpt>
      <trkpt lat="47.54958" lon="6.66072">
        <ele>508</ele>
        <time>2015-01-25T10:35:54.000Z</time>
      </trkpt>
      <trkpt lat="47.54955" lon="6.6607">
        <ele>508</ele>
        <time>2015-01-25T10:35:56.000Z</time>
      </trkpt>
      <trkpt lat="47.54953" lon="6.66069">
        <ele>508</ele>
        <time>2015-01-25T10:35:57.000Z</time>
      </trkpt>
      <trkpt lat="47.54951" lon="6.66063">
        <ele>508</ele>
        <time>2015-01-25T10:35:59.000Z</time>
      </trkpt>
      <trkpt lat="47.5495" lon="6.66061">
        <ele>508</ele>
        <time>2015-01-25T10:36:00.000Z</time>
      </trkpt>
      <trkpt lat="47.54948" lon="6.66056">
        <ele>508</ele>
        <time>2015-01-25T10:36:02.000Z</time>
      </trkpt>
      <trkpt lat="47.54946" lon="6.66055">
        <ele>508</ele>
        <time>2015-01-25T10:36:03.000Z</time>
      </trkpt>
      <trkpt lat="47.54943" lon="6.66052">
        <ele>508</ele>
        <time>2015-01-25T10:36:05.000Z</time>
      </trkpt>
      <trkpt lat="47.54942" lon="6.66051">
        <ele>508</ele>
        <time>2015-01-25T10:36:06.000Z</time>
      </trkpt>
      <trkpt lat="47.5494" lon="6.66048">
        <ele>507</ele>
        <time>2015-01-25T10:36:08.000Z</time>
      </trkpt>
      <trkpt lat="47.54938" lon="6.66046">
        <ele>507</ele>
        <time>2015-01-25T10:36:09.000Z</time>
      </trkpt>
      <trkpt lat="47.54935" lon="6.66043">
        <ele>507</ele>
        <time>2015-01-25T10:36:11.000Z</time>
      </trkpt>
      <trkpt lat="47.54933" lon="6.66041">
        <ele>507</ele>
        <time>2015-01-25T10:36:12.000Z</time>
      </trkpt>
      <trkpt lat="47.5493" lon="6.66038">
        <ele>507</ele>
        <time>2015-01-25T10:36:14.000Z</time>
      </trkpt>
      <trkpt lat="47.54928" lon="6.66036">
        <ele>507</ele>
        <time>2015-01-25T10:36:15.000Z</time>
      </trkpt>
      <trkpt lat="47.54924" lon="6.66033">
        <ele>507</ele>
        <time>2015-01-25T10:36:17.000Z</time>
      </trkpt>
      <trkpt lat="47.54922" lon="6.66032">
        <ele>507</ele>
        <time>2015-01-25T10:36:18.000Z</time>
      </trkpt>
      <trkpt lat="47.54919" lon="6.66029">
        <ele>507</ele>
        <time>2015-01-25T10:36:20.000Z</time>
      </trkpt>
      <trkpt lat="47.54918" lon="6.66027">
        <ele>507</ele>
        <time>2015-01-25T10:36:21.000Z</time>
      </trkpt>
      <trkpt lat="47.54916" lon="6.66022">
        <ele>510</ele>
        <time>2015-01-25T10:36:23.000Z</time>
      </trkpt>
      <trkpt lat="47.54914" lon="6.6602">
        <ele>509</ele>
        <time>2015-01-25T10:36:24.000Z</time>
      </trkpt>
      <trkpt lat="47.5491" lon="6.66016">
        <ele>509</ele>
        <time>2015-01-25T10:36:26.000Z</time>
      </trkpt>
      <trkpt lat="47.54908" lon="6.66015">
        <ele>509</ele>
        <time>2015-01-25T10:36:27.000Z</time>
      </trkpt>
      <trkpt lat="47.54904" lon="6.66014">
        <ele>509</ele>
        <time>2015-01-25T10:36:29.000Z</time>
      </trkpt>
      <trkpt lat="47.54902" lon="6.66013">
        <ele>510</ele>
        <time>2015-01-25T10:36:30.000Z</time>
      </trkpt>
      <trkpt lat="47.549" lon="6.66012">
        <ele>510</ele>
        <time>2015-01-25T10:36:31.000Z</time>
      </trkpt>
      <trkpt lat="47.54898" lon="6.6601">
        <ele>510</ele>
        <time>2015-01-25T10:36:32.000Z</time>
      </trkpt>
      <trkpt lat="47.54895" lon="6.66008">
        <ele>510</ele>
        <time>2015-01-25T10:36:33.000Z</time>
      </trkpt>
      <trkpt lat="47.54892" lon="6.66006">
        <ele>510</ele>
        <time>2015-01-25T10:36:34.000Z</time>
      </trkpt>
      <trkpt lat="47.54889" lon="6.66004">
        <ele>510</ele>
        <time>2015-01-25T10:36:35.000Z</time>
      </trkpt>
      <trkpt lat="47.54886" lon="6.66002">
        <ele>510</ele>
        <time>2015-01-25T10:36:36.000Z</time>
      </trkpt>
      <trkpt lat="47.54884" lon="6.66001">
        <ele>511</ele>
        <time>2015-01-25T10:36:37.000Z</time>
      </trkpt>
      <trkpt lat="47.54881" lon="6.66">
        <ele>511</ele>
        <time>2015-01-25T10:36:38.000Z</time>
      </trkpt>
      <trkpt lat="47.54878" lon="6.66">
        <ele>507</ele>
        <time>2015-01-25T10:36:39.000Z</time>
      </trkpt>
      <trkpt lat="47.54875" lon="6.65999">
        <ele>507</ele>
        <time>2015-01-25T10:36:40.000Z</time>
      </trkpt>
      <trkpt lat="47.54872" lon="6.65998">
        <ele>508</ele>
        <time>2015-01-25T10:36:41.000Z</time>
      </trkpt>
      <trkpt lat="47.54869" lon="6.65998">
        <ele>508</ele>
        <time>2015-01-25T10:36:42.000Z</time>
      </trkpt>
      <trkpt lat="47.54867" lon="6.65997">
        <ele>508</ele>
        <time>2015-01-25T10:36:43.000Z</time>
      </trkpt>
      <trkpt lat="47.54865" lon="6.65996">
        <ele>508</ele>
        <time>2015-01-25T10:36:44.000Z</time>
      </trkpt>
      <trkpt lat="47.54859" lon="6.65993">
        <ele>508</ele>
        <time>2015-01-25T10:36:47.000Z</time>
      </trkpt>
      <trkpt lat="47.54856" lon="6.65992">
        <ele>509</ele>
        <time>2015-01-25T10:36:49.000Z</time>
      </trkpt>
      <trkpt lat="47.54855" lon="6.65992">
        <ele>509</ele>
        <time>2015-01-25T10:36:50.000Z</time>
      </trkpt>
      <trkpt lat="47.54852" lon="6.6599">
        <ele>509</ele>
        <time>2015-01-25T10:36:52.000Z</time>
      </trkpt>
      <trkpt lat="47.5485" lon="6.6599">
        <ele>509</ele>
        <time>2015-01-25T10:36:53.000Z</time>
      </trkpt>
      <trkpt lat="47.54847" lon="6.65988">
        <ele>509</ele>
        <time>2015-01-25T10:36:55.000Z</time>
      </trkpt>
      <trkpt lat="47.54845" lon="6.65987">
        <ele>510</ele>
        <time>2015-01-25T10:36:56.000Z</time>
      </trkpt>
      <trkpt lat="47.54841" lon="6.65985">
        <ele>510</ele>
        <time>2015-01-25T10:36:58.000Z</time>
      </trkpt>
      <trkpt lat="47.54838" lon="6.65983">
        <ele>510</ele>
        <time>2015-01-25T10:36:59.000Z</time>
      </trkpt>
      <trkpt lat="47.54835" lon="6.65981">
        <ele>509</ele>
        <time>2015-01-25T10:37:00.000Z</time>
      </trkpt>
      <trkpt lat="47.54831" lon="6.65979">
        <ele>511</ele>
        <time>2015-01-25T10:37:01.000Z</time>
      </trkpt>
      <trkpt lat="47.54828" lon="6.65977">
        <ele>511</ele>
        <time>2015-01-25T10:37:02.000Z</time>
      </trkpt>
      <trkpt lat="47.54825" lon="6.65975">
        <ele>511</ele>
        <time>2015-01-25T10:37:03.000Z</time>
      </trkpt>
      <trkpt lat="47.54822" lon="6.65973">
        <ele>511</ele>
        <time>2015-01-25T10:37:04.000Z</time>
      </trkpt>
      <trkpt lat="47.54819" lon="6.65971">
        <ele>511</ele>
        <time>2015-01-25T10:37:05.000Z</time>
      </trkpt>
      <trkpt lat="47.54816" lon="6.65969">
        <ele>511</ele>
        <time>2015-01-25T10:37:06.000Z</time>
      </trkpt>
      <trkpt lat="47.54813" lon="6.65968">
        <ele>511</ele>
        <time>2015-01-25T10:37:07.000Z</time>
      </trkpt>
      <trkpt lat="47.5481" lon="6.65967">
        <ele>510</ele>
        <time>2015-01-25T10:37:08.000Z</time>
      </trkpt>
      <trkpt lat="47.54808" lon="6.65966">
        <ele>510</ele>
        <time>2015-01-25T10:37:09.000Z</time>
      </trkpt>
      <trkpt lat="47.54805" lon="6.65964">
        <ele>510</ele>
        <time>2015-01-25T10:37:10.000Z</time>
      </trkpt>
      <trkpt lat="47.54803" lon="6.65963">
        <ele>510</ele>
        <time>2015-01-25T10:37:11.000Z</time>
      </trkpt>
      <trkpt lat="47.54799" lon="6.6596">
        <ele>510</ele>
        <time>2015-01-25T10:37:13.000Z</time>
      </trkpt>
      <trkpt lat="47.54797" lon="6.6596">
        <ele>510</ele>
        <time>2015-01-25T10:37:14.000Z</time>
      </trkpt>
      <trkpt lat="47.54794" lon="6.65959">
        <ele>510</ele>
        <time>2015-01-25T10:37:15.000Z</time>
      </trkpt>
      <trkpt lat="47.54792" lon="6.65959">
        <ele>510</ele>
        <time>2015-01-25T10:37:16.000Z</time>
      </trkpt>
      <trkpt lat="47.54789" lon="6.65957">
        <ele>510</ele>
        <time>2015-01-25T10:37:17.000Z</time>
      </trkpt>
      <trkpt lat="47.54786" lon="6.65956">
        <ele>510</ele>
        <time>2015-01-25T10:37:18.000Z</time>
      </trkpt>
      <trkpt lat="47.54784" lon="6.65954">
        <ele>510</ele>
        <time>2015-01-25T10:37:19.000Z</time>
      </trkpt>
      <trkpt lat="47.54781" lon="6.65953">
        <ele>510</ele>
        <time>2015-01-25T10:37:20.000Z</time>
      </trkpt>
      <trkpt lat="47.54779" lon="6.65952">
        <ele>510</ele>
        <time>2015-01-25T10:37:21.000Z</time>
      </trkpt>
      <trkpt lat="47.54776" lon="6.65951">
        <ele>510</ele>
        <time>2015-01-25T10:37:22.000Z</time>
      </trkpt>
      <trkpt lat="47.54773" lon="6.65949">
        <ele>510</ele>
        <time>2015-01-25T10:37:23.000Z</time>
      </trkpt>
      <trkpt lat="47.5477" lon="6.65947">
        <ele>510</ele>
        <time>2015-01-25T10:37:24.000Z</time>
      </trkpt>
      <trkpt lat="47.54767" lon="6.65945">
        <ele>510</ele>
        <time>2015-01-25T10:37:25.000Z</time>
      </trkpt>
      <trkpt lat="47.54764" lon="6.65943">
        <ele>510</ele>
        <time>2015-01-25T10:37:26.000Z</time>
      </trkpt>
      <trkpt lat="47.54762" lon="6.65941">
        <ele>510</ele>
        <time>2015-01-25T10:37:27.000Z</time>
      </trkpt>
      <trkpt lat="47.54759" lon="6.6594">
        <ele>510</ele>
        <time>2015-01-25T10:37:28.000Z</time>
      </trkpt>
      <trkpt lat="47.54756" lon="6.65938">
        <ele>510</ele>
        <time>2015-01-25T10:37:29.000Z</time>
      </trkpt>
      <trkpt lat="47.54754" lon="6.65938">
        <ele>510</ele>
        <time>2015-01-25T10:37:30.000Z</time>
      </trkpt>
      <trkpt lat="47.54751" lon="6.65937">
        <ele>510</ele>
        <time>2015-01-25T10:37:31.000Z</time>
      </trkpt>
      <trkpt lat="47.54749" lon="6.65936">
        <ele>511</ele>
        <time>2015-01-25T10:37:32.000Z</time>
      </trkpt>
      <trkpt lat="47.54746" lon="6.65936">
        <ele>511</ele>
        <time>2015-01-25T10:37:33.000Z</time>
      </trkpt>
      <trkpt lat="47.54744" lon="6.65936">
        <ele>511</ele>
        <time>2015-01-25T10:37:34.000Z</time>
      </trkpt>
      <trkpt lat="47.54741" lon="6.65936">
        <ele>511</ele>
        <time>2015-01-25T10:37:35.000Z</time>
      </trkpt>
      <trkpt lat="47.54738" lon="6.65937">
        <ele>511</ele>
        <time>2015-01-25T10:37:36.000Z</time>
      </trkpt>
      <trkpt lat="47.54736" lon="6.65938">
        <ele>512</ele>
        <time>2015-01-25T10:37:37.000Z</time>
      </trkpt>
      <trkpt lat="47.54733" lon="6.65938">
        <ele>512</ele>
        <time>2015-01-25T10:37:38.000Z</time>
      </trkpt>
      <trkpt lat="47.5473" lon="6.65936">
        <ele>512</ele>
        <time>2015-01-25T10:37:40.000Z</time>
      </trkpt>
      <trkpt lat="47.54728" lon="6.65935">
        <ele>512</ele>
        <time>2015-01-25T10:37:41.000Z</time>
      </trkpt>
      <trkpt lat="47.54726" lon="6.6593">
        <ele>512</ele>
        <time>2015-01-25T10:37:43.000Z</time>
      </trkpt>
      <trkpt lat="47.54725" lon="6.65928">
        <ele>512</ele>
        <time>2015-01-25T10:37:44.000Z</time>
      </trkpt>
      <trkpt lat="47.54723" lon="6.65926">
        <ele>512</ele>
        <time>2015-01-25T10:37:45.000Z</time>
      </trkpt>
      <trkpt lat="47.54711" lon="6.65921">
        <ele>512</ele>
        <time>2015-01-25T10:37:53.000Z</time>
      </trkpt>
      <trkpt lat="47.54708" lon="6.65919">
        <ele>512</ele>
        <time>2015-01-25T10:37:55.000Z</time>
      </trkpt>
      <trkpt lat="47.54706" lon="6.65918">
        <ele>513</ele>
        <time>2015-01-25T10:37:56.000Z</time>
      </trkpt>
      <trkpt lat="47.54702" lon="6.65915">
        <ele>510</ele>
        <time>2015-01-25T10:37:58.000Z</time>
      </trkpt>
      <trkpt lat="47.547" lon="6.65914">
        <ele>510</ele>
        <time>2015-01-25T10:37:59.000Z</time>
      </trkpt>
      <trkpt lat="47.54696" lon="6.65913">
        <ele>510</ele>
        <time>2015-01-25T10:38:01.000Z</time>
      </trkpt>
      <trkpt lat="47.54694" lon="6.65913">
        <ele>510</ele>
        <time>2015-01-25T10:38:02.000Z</time>
      </trkpt>
      <trkpt lat="47.54692" lon="6.65912">
        <ele>510</ele>
        <time>2015-01-25T10:38:03.000Z</time>
      </trkpt>
      <trkpt lat="47.5469" lon="6.65911">
        <ele>511</ele>
        <time>2015-01-25T10:38:04.000Z</time>
      </trkpt>
      <trkpt lat="47.54685" lon="6.6591">
        <ele>511</ele>
        <time>2015-01-25T10:38:06.000Z</time>
      </trkpt>
      <trkpt lat="47.54683" lon="6.65909">
        <ele>511</ele>
        <time>2015-01-25T10:38:07.000Z</time>
      </trkpt>
      <trkpt lat="47.54679" lon="6.65908">
        <ele>511</ele>
        <time>2015-01-25T10:38:09.000Z</time>
      </trkpt>
      <trkpt lat="47.54678" lon="6.65907">
        <ele>511</ele>
        <time>2015-01-25T10:38:10.000Z</time>
      </trkpt>
      <trkpt lat="47.54673" lon="6.65906">
        <ele>512</ele>
        <time>2015-01-25T10:38:12.000Z</time>
      </trkpt>
      <trkpt lat="47.54671" lon="6.65906">
        <ele>512</ele>
        <time>2015-01-25T10:38:13.000Z</time>
      </trkpt>
      <trkpt lat="47.54667" lon="6.65905">
        <ele>512</ele>
        <time>2015-01-25T10:38:15.000Z</time>
      </trkpt>
      <trkpt lat="47.54665" lon="6.65904">
        <ele>513</ele>
        <time>2015-01-25T10:38:16.000Z</time>
      </trkpt>
      <trkpt lat="47.54662" lon="6.65903">
        <ele>513</ele>
        <time>2015-01-25T10:38:17.000Z</time>
      </trkpt>
      <trkpt lat="47.5466" lon="6.65901">
        <ele>512</ele>
        <time>2015-01-25T10:38:18.000Z</time>
      </trkpt>
      <trkpt lat="47.54658" lon="6.659">
        <ele>512</ele>
        <time>2015-01-25T10:38:19.000Z</time>
      </trkpt>
      <trkpt lat="47.54656" lon="6.65899">
        <ele>512</ele>
        <time>2015-01-25T10:38:20.000Z</time>
      </trkpt>
      <trkpt lat="47.54652" lon="6.65896">
        <ele>512</ele>
        <time>2015-01-25T10:38:22.000Z</time>
      </trkpt>
      <trkpt lat="47.5465" lon="6.65895">
        <ele>512</ele>
        <time>2015-01-25T10:38:23.000Z</time>
      </trkpt>
      <trkpt lat="47.54648" lon="6.65894">
        <ele>512</ele>
        <time>2015-01-25T10:38:24.000Z</time>
      </trkpt>
      <trkpt lat="47.54646" lon="6.65892">
        <ele>512</ele>
        <time>2015-01-25T10:38:25.000Z</time>
      </trkpt>
      <trkpt lat="47.54643" lon="6.65891">
        <ele>512</ele>
        <time>2015-01-25T10:38:26.000Z</time>
      </trkpt>
      <trkpt lat="47.5464" lon="6.6589">
        <ele>511</ele>
        <time>2015-01-25T10:38:27.000Z</time>
      </trkpt>
      <trkpt lat="47.54638" lon="6.65889">
        <ele>511</ele>
        <time>2015-01-25T10:38:28.000Z</time>
      </trkpt>
      <trkpt lat="47.54635" lon="6.65888">
        <ele>511</ele>
        <time>2015-01-25T10:38:29.000Z</time>
      </trkpt>
      <trkpt lat="47.54632" lon="6.65887">
        <ele>511</ele>
        <time>2015-01-25T10:38:30.000Z</time>
      </trkpt>
      <trkpt lat="47.54629" lon="6.65886">
        <ele>511</ele>
        <time>2015-01-25T10:38:31.000Z</time>
      </trkpt>
      <trkpt lat="47.54626" lon="6.65884">
        <ele>511</ele>
        <time>2015-01-25T10:38:33.000Z</time>
      </trkpt>
      <trkpt lat="47.54624" lon="6.65883">
        <ele>511</ele>
        <time>2015-01-25T10:38:34.000Z</time>
      </trkpt>
      <trkpt lat="47.54621" lon="6.6588">
        <ele>511</ele>
        <time>2015-01-25T10:38:36.000Z</time>
      </trkpt>
      <trkpt lat="47.54619" lon="6.65879">
        <ele>511</ele>
        <time>2015-01-25T10:38:37.000Z</time>
      </trkpt>
      <trkpt lat="47.54615" lon="6.65877">
        <ele>511</ele>
        <time>2015-01-25T10:38:39.000Z</time>
      </trkpt>
      <trkpt lat="47.54614" lon="6.65876">
        <ele>511</ele>
        <time>2015-01-25T10:38:40.000Z</time>
      </trkpt>
      <trkpt lat="47.5461" lon="6.65875">
        <ele>511</ele>
        <time>2015-01-25T10:38:42.000Z</time>
      </trkpt>
      <trkpt lat="47.54608" lon="6.65874">
        <ele>511</ele>
        <time>2015-01-25T10:38:43.000Z</time>
      </trkpt>
      <trkpt lat="47.54604" lon="6.65874">
        <ele>511</ele>
        <time>2015-01-25T10:38:45.000Z</time>
      </trkpt>
      <trkpt lat="47.54599" lon="6.65872">
        <ele>511</ele>
        <time>2015-01-25T10:38:48.000Z</time>
      </trkpt>
      <trkpt lat="47.54596" lon="6.65869">
        <ele>511</ele>
        <time>2015-01-25T10:38:50.000Z</time>
      </trkpt>
      <trkpt lat="47.54594" lon="6.65868">
        <ele>511</ele>
        <time>2015-01-25T10:38:51.000Z</time>
      </trkpt>
      <trkpt lat="47.5459" lon="6.65865">
        <ele>511</ele>
        <time>2015-01-25T10:38:53.000Z</time>
      </trkpt>
      <trkpt lat="47.54588" lon="6.65863">
        <ele>511</ele>
        <time>2015-01-25T10:38:54.000Z</time>
      </trkpt>
      <trkpt lat="47.54584" lon="6.65861">
        <ele>511</ele>
        <time>2015-01-25T10:38:56.000Z</time>
      </trkpt>
      <trkpt lat="47.54582" lon="6.65859">
        <ele>512</ele>
        <time>2015-01-25T10:38:57.000Z</time>
      </trkpt>
      <trkpt lat="47.54579" lon="6.65856">
        <ele>512</ele>
        <time>2015-01-25T10:38:59.000Z</time>
      </trkpt>
      <trkpt lat="47.54577" lon="6.65854">
        <ele>512</ele>
        <time>2015-01-25T10:39:00.000Z</time>
      </trkpt>
      <trkpt lat="47.54575" lon="6.65852">
        <ele>512</ele>
        <time>2015-01-25T10:39:01.000Z</time>
      </trkpt>
      <trkpt lat="47.54574" lon="6.65849">
        <ele>512</ele>
        <time>2015-01-25T10:39:02.000Z</time>
      </trkpt>
      <trkpt lat="47.54572" lon="6.65847">
        <ele>512</ele>
        <time>2015-01-25T10:39:03.000Z</time>
      </trkpt>
      <trkpt lat="47.5457" lon="6.65844">
        <ele>512</ele>
        <time>2015-01-25T10:39:04.000Z</time>
      </trkpt>
      <trkpt lat="47.54567" lon="6.65841">
        <ele>512</ele>
        <time>2015-01-25T10:39:05.000Z</time>
      </trkpt>
      <trkpt lat="47.54565" lon="6.65839">
        <ele>512</ele>
        <time>2015-01-25T10:39:06.000Z</time>
      </trkpt>
      <trkpt lat="47.54563" lon="6.65836">
        <ele>512</ele>
        <time>2015-01-25T10:39:07.000Z</time>
      </trkpt>
      <trkpt lat="47.54561" lon="6.65834">
        <ele>512</ele>
        <time>2015-01-25T10:39:08.000Z</time>
      </trkpt>
      <trkpt lat="47.54558" lon="6.6583">
        <ele>510</ele>
        <time>2015-01-25T10:39:10.000Z</time>
      </trkpt>
      <trkpt lat="47.54556" lon="6.65828">
        <ele>510</ele>
        <time>2015-01-25T10:39:11.000Z</time>
      </trkpt>
      <trkpt lat="47.54553" lon="6.65824">
        <ele>510</ele>
        <time>2015-01-25T10:39:13.000Z</time>
      </trkpt>
      <trkpt lat="47.54552" lon="6.65823">
        <ele>510</ele>
        <time>2015-01-25T10:39:14.000Z</time>
      </trkpt>
      <trkpt lat="47.54549" lon="6.65819">
        <ele>510</ele>
        <time>2015-01-25T10:39:16.000Z</time>
      </trkpt>
      <trkpt lat="47.54547" lon="6.65816">
        <ele>510</ele>
        <time>2015-01-25T10:39:17.000Z</time>
      </trkpt>
      <trkpt lat="47.54545" lon="6.65813">
        <ele>510</ele>
        <time>2015-01-25T10:39:18.000Z</time>
      </trkpt>
      <trkpt lat="47.54543" lon="6.6581">
        <ele>510</ele>
        <time>2015-01-25T10:39:19.000Z</time>
      </trkpt>
      <trkpt lat="47.54541" lon="6.65807">
        <ele>510</ele>
        <time>2015-01-25T10:39:20.000Z</time>
      </trkpt>
      <trkpt lat="47.54539" lon="6.65803">
        <ele>510</ele>
        <time>2015-01-25T10:39:21.000Z</time>
      </trkpt>
      <trkpt lat="47.54537" lon="6.65799">
        <ele>510</ele>
        <time>2015-01-25T10:39:22.000Z</time>
      </trkpt>
      <trkpt lat="47.54535" lon="6.65796">
        <ele>510</ele>
        <time>2015-01-25T10:39:23.000Z</time>
      </trkpt>
      <trkpt lat="47.54533" lon="6.65792">
        <ele>510</ele>
        <time>2015-01-25T10:39:24.000Z</time>
      </trkpt>
      <trkpt lat="47.5453" lon="6.65789">
        <ele>510</ele>
        <time>2015-01-25T10:39:25.000Z</time>
      </trkpt>
      <trkpt lat="47.54527" lon="6.65786">
        <ele>510</ele>
        <time>2015-01-25T10:39:26.000Z</time>
      </trkpt>
      <trkpt lat="47.54525" lon="6.65782">
        <ele>510</ele>
        <time>2015-01-25T10:39:27.000Z</time>
      </trkpt>
      <trkpt lat="47.54521" lon="6.65778">
        <ele>510</ele>
        <time>2015-01-25T10:39:28.000Z</time>
      </trkpt>
      <trkpt lat="47.54517" lon="6.65774">
        <ele>510</ele>
        <time>2015-01-25T10:39:29.000Z</time>
      </trkpt>
      <trkpt lat="47.54513" lon="6.6577">
        <ele>510</ele>
        <time>2015-01-25T10:39:30.000Z</time>
      </trkpt>
      <trkpt lat="47.54509" lon="6.65766">
        <ele>510</ele>
        <time>2015-01-25T10:39:31.000Z</time>
      </trkpt>
      <trkpt lat="47.54505" lon="6.65762">
        <ele>511</ele>
        <time>2015-01-25T10:39:32.000Z</time>
      </trkpt>
      <trkpt lat="47.54501" lon="6.65759">
        <ele>511</ele>
        <time>2015-01-25T10:39:33.000Z</time>
      </trkpt>
      <trkpt lat="47.54498" lon="6.65756">
        <ele>512</ele>
        <time>2015-01-25T10:39:34.000Z</time>
      </trkpt>
      <trkpt lat="47.54495" lon="6.65754">
        <ele>512</ele>
        <time>2015-01-25T10:39:35.000Z</time>
      </trkpt>
      <trkpt lat="47.54492" lon="6.65752">
        <ele>512</ele>
        <time>2015-01-25T10:39:36.000Z</time>
      </trkpt>
      <trkpt lat="47.5449" lon="6.6575">
        <ele>511</ele>
        <time>2015-01-25T10:39:37.000Z</time>
      </trkpt>
      <trkpt lat="47.54487" lon="6.65748">
        <ele>511</ele>
        <time>2015-01-25T10:39:38.000Z</time>
      </trkpt>
      <trkpt lat="47.54483" lon="6.65745">
        <ele>511</ele>
        <time>2015-01-25T10:39:39.000Z</time>
      </trkpt>
      <trkpt lat="47.5448" lon="6.65742">
        <ele>511</ele>
        <time>2015-01-25T10:39:40.000Z</time>
      </trkpt>
      <trkpt lat="47.54476" lon="6.65739">
        <ele>511</ele>
        <time>2015-01-25T10:39:41.000Z</time>
      </trkpt>
      <trkpt lat="47.54472" lon="6.65736">
        <ele>511</ele>
        <time>2015-01-25T10:39:42.000Z</time>
      </trkpt>
      <trkpt lat="47.54469" lon="6.65733">
        <ele>511</ele>
        <time>2015-01-25T10:39:43.000Z</time>
      </trkpt>
      <trkpt lat="47.54467" lon="6.6573">
        <ele>511</ele>
        <time>2015-01-25T10:39:44.000Z</time>
      </trkpt>
      <trkpt lat="47.54464" lon="6.65726">
        <ele>511</ele>
        <time>2015-01-25T10:39:45.000Z</time>
      </trkpt>
      <trkpt lat="47.54459" lon="6.65717">
        <ele>510</ele>
        <time>2015-01-25T10:39:48.000Z</time>
      </trkpt>
      <trkpt lat="47.54456" lon="6.65714">
        <ele>510</ele>
        <time>2015-01-25T10:39:49.000Z</time>
      </trkpt>
      <trkpt lat="47.54453" lon="6.65711">
        <ele>510</ele>
        <time>2015-01-25T10:39:50.000Z</time>
      </trkpt>
      <trkpt lat="47.5445" lon="6.65708">
        <ele>510</ele>
        <time>2015-01-25T10:39:51.000Z</time>
      </trkpt>
      <trkpt lat="47.54447" lon="6.65705">
        <ele>510</ele>
        <time>2015-01-25T10:39:52.000Z</time>
      </trkpt>
      <trkpt lat="47.54444" lon="6.65702">
        <ele>510</ele>
        <time>2015-01-25T10:39:53.000Z</time>
      </trkpt>
      <trkpt lat="47.54442" lon="6.657">
        <ele>510</ele>
        <time>2015-01-25T10:39:54.000Z</time>
      </trkpt>
      <trkpt lat="47.54439" lon="6.65695">
        <ele>510</ele>
        <time>2015-01-25T10:39:56.000Z</time>
      </trkpt>
      <trkpt lat="47.54438" lon="6.65693">
        <ele>510</ele>
        <time>2015-01-25T10:39:57.000Z</time>
      </trkpt>
      <trkpt lat="47.54436" lon="6.65689">
        <ele>510</ele>
        <time>2015-01-25T10:40:03.000Z</time>
      </trkpt>
      <trkpt lat="47.54435" lon="6.65688">
        <ele>510</ele>
        <time>2015-01-25T10:40:04.000Z</time>
      </trkpt>
      <trkpt lat="47.54433" lon="6.65686">
        <ele>510</ele>
        <time>2015-01-25T10:40:05.000Z</time>
      </trkpt>
      <trkpt lat="47.54431" lon="6.65683">
        <ele>511</ele>
        <time>2015-01-25T10:40:06.000Z</time>
      </trkpt>
      <trkpt lat="47.54428" lon="6.65681">
        <ele>511</ele>
        <time>2015-01-25T10:40:07.000Z</time>
      </trkpt>
      <trkpt lat="47.54425" lon="6.65679">
        <ele>511</ele>
        <time>2015-01-25T10:40:08.000Z</time>
      </trkpt>
      <trkpt lat="47.54423" lon="6.65676">
        <ele>511</ele>
        <time>2015-01-25T10:40:09.000Z</time>
      </trkpt>
      <trkpt lat="47.5442" lon="6.65673">
        <ele>511</ele>
        <time>2015-01-25T10:40:10.000Z</time>
      </trkpt>
      <trkpt lat="47.54417" lon="6.65669">
        <ele>511</ele>
        <time>2015-01-25T10:40:11.000Z</time>
      </trkpt>
      <trkpt lat="47.54415" lon="6.65666">
        <ele>511</ele>
        <time>2015-01-25T10:40:12.000Z</time>
      </trkpt>
      <trkpt lat="47.54412" lon="6.65662">
        <ele>511</ele>
        <time>2015-01-25T10:40:13.000Z</time>
      </trkpt>
      <trkpt lat="47.54409" lon="6.65658">
        <ele>510</ele>
        <time>2015-01-25T10:40:14.000Z</time>
      </trkpt>
      <trkpt lat="47.54406" lon="6.65654">
        <ele>510</ele>
        <time>2015-01-25T10:40:15.000Z</time>
      </trkpt>
      <trkpt lat="47.54403" lon="6.6565">
        <ele>510</ele>
        <time>2015-01-25T10:40:16.000Z</time>
      </trkpt>
      <trkpt lat="47.54401" lon="6.65646">
        <ele>510</ele>
        <time>2015-01-25T10:40:17.000Z</time>
      </trkpt>
      <trkpt lat="47.54398" lon="6.65643">
        <ele>510</ele>
        <time>2015-01-25T10:40:18.000Z</time>
      </trkpt>
      <trkpt lat="47.54396" lon="6.6564">
        <ele>510</ele>
        <time>2015-01-25T10:40:19.000Z</time>
      </trkpt>
      <trkpt lat="47.54393" lon="6.65637">
        <ele>510</ele>
        <time>2015-01-25T10:40:20.000Z</time>
      </trkpt>
      <trkpt lat="47.5439" lon="6.65634">
        <ele>509</ele>
        <time>2015-01-25T10:40:21.000Z</time>
      </trkpt>
      <trkpt lat="47.54388" lon="6.65631">
        <ele>509</ele>
        <time>2015-01-25T10:40:22.000Z</time>
      </trkpt>
      <trkpt lat="47.54386" lon="6.65629">
        <ele>509</ele>
        <time>2015-01-25T10:40:23.000Z</time>
      </trkpt>
      <trkpt lat="47.54384" lon="6.65626">
        <ele>509</ele>
        <time>2015-01-25T10:40:24.000Z</time>
      </trkpt>
      <trkpt lat="47.54382" lon="6.65624">
        <ele>509</ele>
        <time>2015-01-25T10:40:25.000Z</time>
      </trkpt>
      <trkpt lat="47.5438" lon="6.65622">
        <ele>509</ele>
        <time>2015-01-25T10:40:26.000Z</time>
      </trkpt>
      <trkpt lat="47.54377" lon="6.6562">
        <ele>509</ele>
        <time>2015-01-25T10:40:27.000Z</time>
      </trkpt>
      <trkpt lat="47.54374" lon="6.65617">
        <ele>509</ele>
        <time>2015-01-25T10:40:28.000Z</time>
      </trkpt>
      <trkpt lat="47.54371" lon="6.65614">
        <ele>509</ele>
        <time>2015-01-25T10:40:29.000Z</time>
      </trkpt>
      <trkpt lat="47.54368" lon="6.65612">
        <ele>509</ele>
        <time>2015-01-25T10:40:30.000Z</time>
      </trkpt>
      <trkpt lat="47.54365" lon="6.65609">
        <ele>509</ele>
        <time>2015-01-25T10:40:31.000Z</time>
      </trkpt>
      <trkpt lat="47.54362" lon="6.65607">
        <ele>509</ele>
        <time>2015-01-25T10:40:32.000Z</time>
      </trkpt>
      <trkpt lat="47.5436" lon="6.65604">
        <ele>509</ele>
        <time>2015-01-25T10:40:33.000Z</time>
      </trkpt>
      <trkpt lat="47.54357" lon="6.65601">
        <ele>509</ele>
        <time>2015-01-25T10:40:34.000Z</time>
      </trkpt>
      <trkpt lat="47.54354" lon="6.65598">
        <ele>508</ele>
        <time>2015-01-25T10:40:35.000Z</time>
      </trkpt>
      <trkpt lat="47.54351" lon="6.65595">
        <ele>508</ele>
        <time>2015-01-25T10:40:36.000Z</time>
      </trkpt>
      <trkpt lat="47.54347" lon="6.65592">
        <ele>508</ele>
        <time>2015-01-25T10:40:37.000Z</time>
      </trkpt>
      <trkpt lat="47.54344" lon="6.65588">
        <ele>508</ele>
        <time>2015-01-25T10:40:38.000Z</time>
      </trkpt>
      <trkpt lat="47.5434" lon="6.65586">
        <ele>508</ele>
        <time>2015-01-25T10:40:39.000Z</time>
      </trkpt>
      <trkpt lat="47.54335" lon="6.65584">
        <ele>507</ele>
        <time>2015-01-25T10:40:40.000Z</time>
      </trkpt>
      <trkpt lat="47.54331" lon="6.65581">
        <ele>507</ele>
        <time>2015-01-25T10:40:41.000Z</time>
      </trkpt>
      <trkpt lat="47.54327" lon="6.65579">
        <ele>507</ele>
        <time>2015-01-25T10:40:42.000Z</time>
      </trkpt>
      <trkpt lat="47.54324" lon="6.65576">
        <ele>506</ele>
        <time>2015-01-25T10:40:43.000Z</time>
      </trkpt>
      <trkpt lat="47.54315" lon="6.65566">
        <ele>506</ele>
        <time>2015-01-25T10:40:44.000Z</time>
      </trkpt>
      <trkpt lat="47.54305" lon="6.6556">
        <ele>506</ele>
        <time>2015-01-25T10:40:47.000Z</time>
      </trkpt>
      <trkpt lat="47.54304" lon="6.65556">
        <ele>506</ele>
        <time>2015-01-25T10:40:48.000Z</time>
      </trkpt>
      <trkpt lat="47.54303" lon="6.65553">
        <ele>505</ele>
        <time>2015-01-25T10:40:49.000Z</time>
      </trkpt>
      <trkpt lat="47.54303" lon="6.65551">
        <ele>505</ele>
        <time>2015-01-25T10:40:50.000Z</time>
      </trkpt>
      <trkpt lat="47.54301" lon="6.65547">
        <ele>505</ele>
        <time>2015-01-25T10:40:51.000Z</time>
      </trkpt>
      <trkpt lat="47.543" lon="6.65544">
        <ele>505</ele>
        <time>2015-01-25T10:40:52.000Z</time>
      </trkpt>
      <trkpt lat="47.54298" lon="6.6554">
        <ele>505</ele>
        <time>2015-01-25T10:40:53.000Z</time>
      </trkpt>
      <trkpt lat="47.54297" lon="6.65537">
        <ele>505</ele>
        <time>2015-01-25T10:40:54.000Z</time>
      </trkpt>
      <trkpt lat="47.54295" lon="6.65535">
        <ele>505</ele>
        <time>2015-01-25T10:40:55.000Z</time>
      </trkpt>
      <trkpt lat="47.54293" lon="6.65533">
        <ele>505</ele>
        <time>2015-01-25T10:40:56.000Z</time>
      </trkpt>
      <trkpt lat="47.5429" lon="6.65531">
        <ele>505</ele>
        <time>2015-01-25T10:40:57.000Z</time>
      </trkpt>
      <trkpt lat="47.54286" lon="6.65528">
        <ele>505</ele>
        <time>2015-01-25T10:40:58.000Z</time>
      </trkpt>
      <trkpt lat="47.54282" lon="6.65525">
        <ele>505</ele>
        <time>2015-01-25T10:40:59.000Z</time>
      </trkpt>
      <trkpt lat="47.54278" lon="6.65521">
        <ele>505</ele>
        <time>2015-01-25T10:41:00.000Z</time>
      </trkpt>
      <trkpt lat="47.54275" lon="6.65517">
        <ele>505</ele>
        <time>2015-01-25T10:41:01.000Z</time>
      </trkpt>
      <trkpt lat="47.54272" lon="6.65513">
        <ele>505</ele>
        <time>2015-01-25T10:41:02.000Z</time>
      </trkpt>
      <trkpt lat="47.5427" lon="6.65509">
        <ele>505</ele>
        <time>2015-01-25T10:41:03.000Z</time>
      </trkpt>
      <trkpt lat="47.54268" lon="6.65504">
        <ele>504</ele>
        <time>2015-01-25T10:41:04.000Z</time>
      </trkpt>
      <trkpt lat="47.54267" lon="6.65501">
        <ele>504</ele>
        <time>2015-01-25T10:41:05.000Z</time>
      </trkpt>
      <trkpt lat="47.54264" lon="6.65497">
        <ele>502</ele>
        <time>2015-01-25T10:41:06.000Z</time>
      </trkpt>
      <trkpt lat="47.5426" lon="6.65494">
        <ele>502</ele>
        <time>2015-01-25T10:41:07.000Z</time>
      </trkpt>
      <trkpt lat="47.54257" lon="6.6549">
        <ele>502</ele>
        <time>2015-01-25T10:41:08.000Z</time>
      </trkpt>
      <trkpt lat="47.54253" lon="6.65487">
        <ele>502</ele>
        <time>2015-01-25T10:41:09.000Z</time>
      </trkpt>
      <trkpt lat="47.54249" lon="6.65484">
        <ele>502</ele>
        <time>2015-01-25T10:41:10.000Z</time>
      </trkpt>
      <trkpt lat="47.54246" lon="6.65482">
        <ele>502</ele>
        <time>2015-01-25T10:41:11.000Z</time>
      </trkpt>
      <trkpt lat="47.54243" lon="6.65479">
        <ele>502</ele>
        <time>2015-01-25T10:41:12.000Z</time>
      </trkpt>
      <trkpt lat="47.54238" lon="6.65476">
        <ele>502</ele>
        <time>2015-01-25T10:41:13.000Z</time>
      </trkpt>
      <trkpt lat="47.54234" lon="6.65473">
        <ele>502</ele>
        <time>2015-01-25T10:41:14.000Z</time>
      </trkpt>
      <trkpt lat="47.5423" lon="6.65469">
        <ele>501</ele>
        <time>2015-01-25T10:41:15.000Z</time>
      </trkpt>
      <trkpt lat="47.54226" lon="6.65466">
        <ele>501</ele>
        <time>2015-01-25T10:41:16.000Z</time>
      </trkpt>
      <trkpt lat="47.54222" lon="6.65463">
        <ele>501</ele>
        <time>2015-01-25T10:41:17.000Z</time>
      </trkpt>
      <trkpt lat="47.54218" lon="6.65459">
        <ele>501</ele>
        <time>2015-01-25T10:41:18.000Z</time>
      </trkpt>
      <trkpt lat="47.54215" lon="6.65456">
        <ele>501</ele>
        <time>2015-01-25T10:41:19.000Z</time>
      </trkpt>
      <trkpt lat="47.54211" lon="6.65453">
        <ele>501</ele>
        <time>2015-01-25T10:41:20.000Z</time>
      </trkpt>
      <trkpt lat="47.54208" lon="6.65449">
        <ele>501</ele>
        <time>2015-01-25T10:41:21.000Z</time>
      </trkpt>
      <trkpt lat="47.54206" lon="6.65445">
        <ele>501</ele>
        <time>2015-01-25T10:41:22.000Z</time>
      </trkpt>
      <trkpt lat="47.54203" lon="6.65441">
        <ele>501</ele>
        <time>2015-01-25T10:41:23.000Z</time>
      </trkpt>
      <trkpt lat="47.54201" lon="6.65437">
        <ele>500</ele>
        <time>2015-01-25T10:41:24.000Z</time>
      </trkpt>
      <trkpt lat="47.54198" lon="6.65433">
        <ele>500</ele>
        <time>2015-01-25T10:41:25.000Z</time>
      </trkpt>
      <trkpt lat="47.54195" lon="6.65428">
        <ele>500</ele>
        <time>2015-01-25T10:41:26.000Z</time>
      </trkpt>
      <trkpt lat="47.54191" lon="6.65423">
        <ele>500</ele>
        <time>2015-01-25T10:41:27.000Z</time>
      </trkpt>
      <trkpt lat="47.54188" lon="6.65417">
        <ele>500</ele>
        <time>2015-01-25T10:41:28.000Z</time>
      </trkpt>
      <trkpt lat="47.54184" lon="6.65411">
        <ele>497</ele>
        <time>2015-01-25T10:41:29.000Z</time>
      </trkpt>
      <trkpt lat="47.54182" lon="6.65405">
        <ele>497</ele>
        <time>2015-01-25T10:41:30.000Z</time>
      </trkpt>
      <trkpt lat="47.5418" lon="6.654">
        <ele>497</ele>
        <time>2015-01-25T10:41:31.000Z</time>
      </trkpt>
      <trkpt lat="47.54177" lon="6.65396">
        <ele>496</ele>
        <time>2015-01-25T10:41:32.000Z</time>
      </trkpt>
      <trkpt lat="47.54176" lon="6.65392">
        <ele>496</ele>
        <time>2015-01-25T10:41:33.000Z</time>
      </trkpt>
      <trkpt lat="47.54174" lon="6.65387">
        <ele>496</ele>
        <time>2015-01-25T10:41:34.000Z</time>
      </trkpt>
      <trkpt lat="47.54172" lon="6.65383">
        <ele>495</ele>
        <time>2015-01-25T10:41:35.000Z</time>
      </trkpt>
      <trkpt lat="47.54171" lon="6.65379">
        <ele>495</ele>
        <time>2015-01-25T10:41:36.000Z</time>
      </trkpt>
      <trkpt lat="47.54169" lon="6.65374">
        <ele>495</ele>
        <time>2015-01-25T10:41:37.000Z</time>
      </trkpt>
      <trkpt lat="47.54167" lon="6.6537">
        <ele>495</ele>
        <time>2015-01-25T10:41:38.000Z</time>
      </trkpt>
      <trkpt lat="47.54165" lon="6.65366">
        <ele>497</ele>
        <time>2015-01-25T10:41:39.000Z</time>
      </trkpt>
      <trkpt lat="47.54162" lon="6.65364">
        <ele>496</ele>
        <time>2015-01-25T10:41:40.000Z</time>
      </trkpt>
      <trkpt lat="47.5416" lon="6.65363">
        <ele>496</ele>
        <time>2015-01-25T10:41:41.000Z</time>
      </trkpt>
      <trkpt lat="47.54156" lon="6.65361">
        <ele>496</ele>
        <time>2015-01-25T10:41:50.000Z</time>
      </trkpt>
      <trkpt lat="47.54156" lon="6.65361">
        <ele>496</ele>
        <time>2015-01-25T10:41:51.000Z</time>
      </trkpt>
      <trkpt lat="47.54153" lon="6.65358">
        <ele>496</ele>
        <time>2015-01-25T10:42:32.000Z</time>
      </trkpt>
      <trkpt lat="47.54151" lon="6.65356">
        <ele>496</ele>
        <time>2015-01-25T10:42:33.000Z</time>
      </trkpt>
      <trkpt lat="47.54149" lon="6.65351">
        <ele>496</ele>
        <time>2015-01-25T10:42:35.000Z</time>
      </trkpt>
      <trkpt lat="47.54148" lon="6.6535">
        <ele>496</ele>
        <time>2015-01-25T10:42:36.000Z</time>
      </trkpt>
      <trkpt lat="47.54151" lon="6.65345">
        <ele>495</ele>
        <time>2015-01-25T10:42:43.000Z</time>
      </trkpt>
      <trkpt lat="47.54151" lon="6.65345">
        <ele>495</ele>
        <time>2015-01-25T10:42:44.000Z</time>
      </trkpt>
      <trkpt lat="47.5415" lon="6.65342">
        <ele>495</ele>
        <time>2015-01-25T10:42:57.000Z</time>
      </trkpt>
      <trkpt lat="47.54148" lon="6.6534">
        <ele>495</ele>
        <time>2015-01-25T10:42:58.000Z</time>
      </trkpt>
      <trkpt lat="47.54146" lon="6.65337">
        <ele>495</ele>
        <time>2015-01-25T10:43:00.000Z</time>
      </trkpt>
      <trkpt lat="47.54144" lon="6.65333">
        <ele>491</ele>
        <time>2015-01-25T10:43:01.000Z</time>
      </trkpt>
      <trkpt lat="47.54142" lon="6.6533">
        <ele>491</ele>
        <time>2015-01-25T10:43:02.000Z</time>
      </trkpt>
      <trkpt lat="47.54139" lon="6.65326">
        <ele>491</ele>
        <time>2015-01-25T10:43:03.000Z</time>
      </trkpt>
      <trkpt lat="47.54135" lon="6.65321">
        <ele>491</ele>
        <time>2015-01-25T10:43:04.000Z</time>
      </trkpt>
      <trkpt lat="47.54131" lon="6.65317">
        <ele>491</ele>
        <time>2015-01-25T10:43:05.000Z</time>
      </trkpt>
      <trkpt lat="47.54127" lon="6.65314">
        <ele>491</ele>
        <time>2015-01-25T10:43:06.000Z</time>
      </trkpt>
      <trkpt lat="47.54123" lon="6.6531">
        <ele>491</ele>
        <time>2015-01-25T10:43:07.000Z</time>
      </trkpt>
      <trkpt lat="47.54118" lon="6.65306">
        <ele>491</ele>
        <time>2015-01-25T10:43:08.000Z</time>
      </trkpt>
      <trkpt lat="47.54113" lon="6.65301">
        <ele>491</ele>
        <time>2015-01-25T10:43:09.000Z</time>
      </trkpt>
      <trkpt lat="47.54108" lon="6.65298">
        <ele>490</ele>
        <time>2015-01-25T10:43:10.000Z</time>
      </trkpt>
      <trkpt lat="47.54103" lon="6.65294">
        <ele>490</ele>
        <time>2015-01-25T10:43:11.000Z</time>
      </trkpt>
      <trkpt lat="47.54099" lon="6.65289">
        <ele>490</ele>
        <time>2015-01-25T10:43:12.000Z</time>
      </trkpt>
      <trkpt lat="47.54096" lon="6.65284">
        <ele>490</ele>
        <time>2015-01-25T10:43:13.000Z</time>
      </trkpt>
      <trkpt lat="47.54092" lon="6.65279">
        <ele>490</ele>
        <time>2015-01-25T10:43:14.000Z</time>
      </trkpt>
      <trkpt lat="47.54089" lon="6.65273">
        <ele>489</ele>
        <time>2015-01-25T10:43:15.000Z</time>
      </trkpt>
      <trkpt lat="47.54082" lon="6.65262">
        <ele>490</ele>
        <time>2015-01-25T10:43:16.000Z</time>
      </trkpt>
      <trkpt lat="47.54079" lon="6.65256">
        <ele>489</ele>
        <time>2015-01-25T10:43:17.000Z</time>
      </trkpt>
      <trkpt lat="47.54075" lon="6.65251">
        <ele>489</ele>
        <time>2015-01-25T10:43:18.000Z</time>
      </trkpt>
      <trkpt lat="47.54072" lon="6.65246">
        <ele>487</ele>
        <time>2015-01-25T10:43:19.000Z</time>
      </trkpt>
      <trkpt lat="47.54068" lon="6.6524">
        <ele>486</ele>
        <time>2015-01-25T10:43:20.000Z</time>
      </trkpt>
      <trkpt lat="47.54064" lon="6.65235">
        <ele>486</ele>
        <time>2015-01-25T10:43:21.000Z</time>
      </trkpt>
      <trkpt lat="47.54061" lon="6.65231">
        <ele>486</ele>
        <time>2015-01-25T10:43:22.000Z</time>
      </trkpt>
      <trkpt lat="47.54057" lon="6.65226">
        <ele>486</ele>
        <time>2015-01-25T10:43:23.000Z</time>
      </trkpt>
      <trkpt lat="47.54054" lon="6.65222">
        <ele>486</ele>
        <time>2015-01-25T10:43:24.000Z</time>
      </trkpt>
      <trkpt lat="47.5405" lon="6.65215">
        <ele>485</ele>
        <time>2015-01-25T10:43:25.000Z</time>
      </trkpt>
      <trkpt lat="47.54047" lon="6.65209">
        <ele>485</ele>
        <time>2015-01-25T10:43:26.000Z</time>
      </trkpt>
      <trkpt lat="47.54043" lon="6.65202">
        <ele>485</ele>
        <time>2015-01-25T10:43:27.000Z</time>
      </trkpt>
      <trkpt lat="47.54039" lon="6.65196">
        <ele>484</ele>
        <time>2015-01-25T10:43:28.000Z</time>
      </trkpt>
      <trkpt lat="47.54035" lon="6.6519">
        <ele>484</ele>
        <time>2015-01-25T10:43:29.000Z</time>
      </trkpt>
      <trkpt lat="47.54031" lon="6.65185">
        <ele>484</ele>
        <time>2015-01-25T10:43:30.000Z</time>
      </trkpt>
      <trkpt lat="47.54029" lon="6.6518">
        <ele>484</ele>
        <time>2015-01-25T10:43:31.000Z</time>
      </trkpt>
      <trkpt lat="47.54025" lon="6.65174">
        <ele>484</ele>
        <time>2015-01-25T10:43:32.000Z</time>
      </trkpt>
      <trkpt lat="47.54022" lon="6.6517">
        <ele>484</ele>
        <time>2015-01-25T10:43:33.000Z</time>
      </trkpt>
      <trkpt lat="47.54018" lon="6.65165">
        <ele>479</ele>
        <time>2015-01-25T10:43:34.000Z</time>
      </trkpt>
      <trkpt lat="47.54014" lon="6.65162">
        <ele>480</ele>
        <time>2015-01-25T10:43:35.000Z</time>
      </trkpt>
      <trkpt lat="47.54011" lon="6.65157">
        <ele>480</ele>
        <time>2015-01-25T10:43:36.000Z</time>
      </trkpt>
      <trkpt lat="47.54008" lon="6.65153">
        <ele>480</ele>
        <time>2015-01-25T10:43:37.000Z</time>
      </trkpt>
      <trkpt lat="47.54005" lon="6.65149">
        <ele>479</ele>
        <time>2015-01-25T10:43:38.000Z</time>
      </trkpt>
      <trkpt lat="47.54002" lon="6.65145">
        <ele>479</ele>
        <time>2015-01-25T10:43:39.000Z</time>
      </trkpt>
      <trkpt lat="47.54" lon="6.65142">
        <ele>479</ele>
        <time>2015-01-25T10:43:40.000Z</time>
      </trkpt>
      <trkpt lat="47.53999" lon="6.65137">
        <ele>483</ele>
        <time>2015-01-25T10:43:42.000Z</time>
      </trkpt>
      <trkpt lat="47.53997" lon="6.65135">
        <ele>483</ele>
        <time>2015-01-25T10:43:43.000Z</time>
      </trkpt>
      <trkpt lat="47.53994" lon="6.6513">
        <ele>483</ele>
        <time>2015-01-25T10:43:45.000Z</time>
      </trkpt>
      <trkpt lat="47.53981" lon="6.65112">
        <ele>482</ele>
        <time>2015-01-25T10:43:53.000Z</time>
      </trkpt>
      <trkpt lat="47.53978" lon="6.65108">
        <ele>482</ele>
        <time>2015-01-25T10:43:55.000Z</time>
      </trkpt>
      <trkpt lat="47.53977" lon="6.65106">
        <ele>482</ele>
        <time>2015-01-25T10:43:56.000Z</time>
      </trkpt>
      <trkpt lat="47.53975" lon="6.65103">
        <ele>482</ele>
        <time>2015-01-25T10:43:57.000Z</time>
      </trkpt>
      <trkpt lat="47.53973" lon="6.65101">
        <ele>482</ele>
        <time>2015-01-25T10:43:58.000Z</time>
      </trkpt>
      <trkpt lat="47.53971" lon="6.65098">
        <ele>482</ele>
        <time>2015-01-25T10:43:59.000Z</time>
      </trkpt>
      <trkpt lat="47.53968" lon="6.65095">
        <ele>482</ele>
        <time>2015-01-25T10:44:00.000Z</time>
      </trkpt>
      <trkpt lat="47.53966" lon="6.65092">
        <ele>482</ele>
        <time>2015-01-25T10:44:01.000Z</time>
      </trkpt>
      <trkpt lat="47.53964" lon="6.65089">
        <ele>482</ele>
        <time>2015-01-25T10:44:02.000Z</time>
      </trkpt>
      <trkpt lat="47.53962" lon="6.65087">
        <ele>482</ele>
        <time>2015-01-25T10:44:03.000Z</time>
      </trkpt>
      <trkpt lat="47.5396" lon="6.65084">
        <ele>482</ele>
        <time>2015-01-25T10:44:04.000Z</time>
      </trkpt>
      <trkpt lat="47.53958" lon="6.65081">
        <ele>477</ele>
        <time>2015-01-25T10:44:05.000Z</time>
      </trkpt>
      <trkpt lat="47.53956" lon="6.65079">
        <ele>477</ele>
        <time>2015-01-25T10:44:06.000Z</time>
      </trkpt>
      <trkpt lat="47.53953" lon="6.65077">
        <ele>477</ele>
        <time>2015-01-25T10:44:07.000Z</time>
      </trkpt>
      <trkpt lat="47.53951" lon="6.65076">
        <ele>477</ele>
        <time>2015-01-25T10:44:08.000Z</time>
      </trkpt>
      <trkpt lat="47.53947" lon="6.65075">
        <ele>478</ele>
        <time>2015-01-25T10:44:10.000Z</time>
      </trkpt>
      <trkpt lat="47.53945" lon="6.65075">
        <ele>478</ele>
        <time>2015-01-25T10:44:11.000Z</time>
      </trkpt>
      <trkpt lat="47.53942" lon="6.65074">
        <ele>478</ele>
        <time>2015-01-25T10:44:12.000Z</time>
      </trkpt>
      <trkpt lat="47.5394" lon="6.65073">
        <ele>478</ele>
        <time>2015-01-25T10:44:13.000Z</time>
      </trkpt>
      <trkpt lat="47.53937" lon="6.65071">
        <ele>479</ele>
        <time>2015-01-25T10:44:14.000Z</time>
      </trkpt>
      <trkpt lat="47.53935" lon="6.6507">
        <ele>479</ele>
        <time>2015-01-25T10:44:15.000Z</time>
      </trkpt>
      <trkpt lat="47.53932" lon="6.65069">
        <ele>479</ele>
        <time>2015-01-25T10:44:16.000Z</time>
      </trkpt>
      <trkpt lat="47.5393" lon="6.65068">
        <ele>479</ele>
        <time>2015-01-25T10:44:17.000Z</time>
      </trkpt>
      <trkpt lat="47.53928" lon="6.65065">
        <ele>479</ele>
        <time>2015-01-25T10:44:19.000Z</time>
      </trkpt>
      <trkpt lat="47.53927" lon="6.65063">
        <ele>479</ele>
        <time>2015-01-25T10:44:20.000Z</time>
      </trkpt>
      <trkpt lat="47.53924" lon="6.65059">
        <ele>478</ele>
        <time>2015-01-25T10:44:22.000Z</time>
      </trkpt>
      <trkpt lat="47.53922" lon="6.65057">
        <ele>478</ele>
        <time>2015-01-25T10:44:23.000Z</time>
      </trkpt>
      <trkpt lat="47.5392" lon="6.65055">
        <ele>478</ele>
        <time>2015-01-25T10:44:24.000Z</time>
      </trkpt>
      <trkpt lat="47.53917" lon="6.65053">
        <ele>478</ele>
        <time>2015-01-25T10:44:25.000Z</time>
      </trkpt>
      <trkpt lat="47.53914" lon="6.65051">
        <ele>482</ele>
        <time>2015-01-25T10:44:26.000Z</time>
      </trkpt>
      <trkpt lat="47.53911" lon="6.65048">
        <ele>482</ele>
        <time>2015-01-25T10:44:27.000Z</time>
      </trkpt>
      <trkpt lat="47.53908" lon="6.65046">
        <ele>481</ele>
        <time>2015-01-25T10:44:28.000Z</time>
      </trkpt>
      <trkpt lat="47.53906" lon="6.65043">
        <ele>481</ele>
        <time>2015-01-25T10:44:29.000Z</time>
      </trkpt>
      <trkpt lat="47.53903" lon="6.6504">
        <ele>481</ele>
        <time>2015-01-25T10:44:30.000Z</time>
      </trkpt>
      <trkpt lat="47.53901" lon="6.65037">
        <ele>481</ele>
        <time>2015-01-25T10:44:31.000Z</time>
      </trkpt>
      <trkpt lat="47.53899" lon="6.65033">
        <ele>480</ele>
        <time>2015-01-25T10:44:32.000Z</time>
      </trkpt>
      <trkpt lat="47.53898" lon="6.65029">
        <ele>480</ele>
        <time>2015-01-25T10:44:33.000Z</time>
      </trkpt>
      <trkpt lat="47.53897" lon="6.65025">
        <ele>480</ele>
        <time>2015-01-25T10:44:34.000Z</time>
      </trkpt>
      <trkpt lat="47.53895" lon="6.65022">
        <ele>480</ele>
        <time>2015-01-25T10:44:35.000Z</time>
      </trkpt>
      <trkpt lat="47.53892" lon="6.65021">
        <ele>480</ele>
        <time>2015-01-25T10:44:36.000Z</time>
      </trkpt>
      <trkpt lat="47.5389" lon="6.6502">
        <ele>480</ele>
        <time>2015-01-25T10:44:37.000Z</time>
      </trkpt>
      <trkpt lat="47.53887" lon="6.65019">
        <ele>480</ele>
        <time>2015-01-25T10:44:38.000Z</time>
      </trkpt>
      <trkpt lat="47.53883" lon="6.65019">
        <ele>480</ele>
        <time>2015-01-25T10:44:39.000Z</time>
      </trkpt>
      <trkpt lat="47.5388" lon="6.6502">
        <ele>480</ele>
        <time>2015-01-25T10:44:40.000Z</time>
      </trkpt>
      <trkpt lat="47.53877" lon="6.6502">
        <ele>481</ele>
        <time>2015-01-25T10:44:41.000Z</time>
      </trkpt>
      <trkpt lat="47.53874" lon="6.65021">
        <ele>481</ele>
        <time>2015-01-25T10:44:42.000Z</time>
      </trkpt>
      <trkpt lat="47.53872" lon="6.65021">
        <ele>481</ele>
        <time>2015-01-25T10:44:43.000Z</time>
      </trkpt>
      <trkpt lat="47.53869" lon="6.6502">
        <ele>481</ele>
        <time>2015-01-25T10:44:44.000Z</time>
      </trkpt>
      <trkpt lat="47.53865" lon="6.65018">
        <ele>481</ele>
        <time>2015-01-25T10:44:47.000Z</time>
      </trkpt>
      <trkpt lat="47.53862" lon="6.65015">
        <ele>481</ele>
        <time>2015-01-25T10:44:49.000Z</time>
      </trkpt>
      <trkpt lat="47.53859" lon="6.65013">
        <ele>481</ele>
        <time>2015-01-25T10:44:50.000Z</time>
      </trkpt>
      <trkpt lat="47.53856" lon="6.65011">
        <ele>481</ele>
        <time>2015-01-25T10:44:51.000Z</time>
      </trkpt>
      <trkpt lat="47.53853" lon="6.65009">
        <ele>481</ele>
        <time>2015-01-25T10:44:52.000Z</time>
      </trkpt>
      <trkpt lat="47.5385" lon="6.65007">
        <ele>481</ele>
        <time>2015-01-25T10:44:53.000Z</time>
      </trkpt>
      <trkpt lat="47.53847" lon="6.65005">
        <ele>481</ele>
        <time>2015-01-25T10:44:54.000Z</time>
      </trkpt>
      <trkpt lat="47.53843" lon="6.65004">
        <ele>480</ele>
        <time>2015-01-25T10:44:55.000Z</time>
      </trkpt>
      <trkpt lat="47.5384" lon="6.65002">
        <ele>480</ele>
        <time>2015-01-25T10:44:56.000Z</time>
      </trkpt>
      <trkpt lat="47.53837" lon="6.65001">
        <ele>480</ele>
        <time>2015-01-25T10:44:57.000Z</time>
      </trkpt>
      <trkpt lat="47.53835" lon="6.64999">
        <ele>479</ele>
        <time>2015-01-25T10:44:58.000Z</time>
      </trkpt>
      <trkpt lat="47.53831" lon="6.64997">
        <ele>479</ele>
        <time>2015-01-25T10:45:02.000Z</time>
      </trkpt>
      <trkpt lat="47.53831" lon="6.64997">
        <ele>479</ele>
        <time>2015-01-25T10:45:03.000Z</time>
      </trkpt>
      <trkpt lat="47.53828" lon="6.64996">
        <ele>479</ele>
        <time>2015-01-25T10:45:07.000Z</time>
      </trkpt>
      <trkpt lat="47.53826" lon="6.64995">
        <ele>478</ele>
        <time>2015-01-25T10:45:08.000Z</time>
      </trkpt>
      <trkpt lat="47.53823" lon="6.64995">
        <ele>478</ele>
        <time>2015-01-25T10:45:10.000Z</time>
      </trkpt>
      <trkpt lat="47.53821" lon="6.64996">
        <ele>478</ele>
        <time>2015-01-25T10:45:11.000Z</time>
      </trkpt>
      <trkpt lat="47.53816" lon="6.64997">
        <ele>477</ele>
        <time>2015-01-25T10:45:13.000Z</time>
      </trkpt>
      <trkpt lat="47.53814" lon="6.64997">
        <ele>477</ele>
        <time>2015-01-25T10:45:14.000Z</time>
      </trkpt>
      <trkpt lat="47.5381" lon="6.64996">
        <ele>477</ele>
        <time>2015-01-25T10:45:16.000Z</time>
      </trkpt>
      <trkpt lat="47.53809" lon="6.64995">
        <ele>477</ele>
        <time>2015-01-25T10:45:17.000Z</time>
      </trkpt>
      <trkpt lat="47.53806" lon="6.64991">
        <ele>476</ele>
        <time>2015-01-25T10:45:19.000Z</time>
      </trkpt>
      <trkpt lat="47.53806" lon="6.64989">
        <ele>476</ele>
        <time>2015-01-25T10:45:20.000Z</time>
      </trkpt>
      <trkpt lat="47.53804" lon="6.64986">
        <ele>476</ele>
        <time>2015-01-25T10:45:22.000Z</time>
      </trkpt>
      <trkpt lat="47.53803" lon="6.64984">
        <ele>476</ele>
        <time>2015-01-25T10:45:23.000Z</time>
      </trkpt>
      <trkpt lat="47.53801" lon="6.64982">
        <ele>476</ele>
        <time>2015-01-25T10:45:24.000Z</time>
      </trkpt>
      <trkpt lat="47.53798" lon="6.6498">
        <ele>476</ele>
        <time>2015-01-25T10:45:25.000Z</time>
      </trkpt>
      <trkpt lat="47.53796" lon="6.64979">
        <ele>476</ele>
        <time>2015-01-25T10:45:26.000Z</time>
      </trkpt>
      <trkpt lat="47.53793" lon="6.64977">
        <ele>475</ele>
        <time>2015-01-25T10:45:27.000Z</time>
      </trkpt>
      <trkpt lat="47.53791" lon="6.64976">
        <ele>475</ele>
        <time>2015-01-25T10:45:28.000Z</time>
      </trkpt>
      <trkpt lat="47.53788" lon="6.64975">
        <ele>475</ele>
        <time>2015-01-25T10:45:29.000Z</time>
      </trkpt>
      <trkpt lat="47.53785" lon="6.64973">
        <ele>475</ele>
        <time>2015-01-25T10:45:31.000Z</time>
      </trkpt>
      <trkpt lat="47.53783" lon="6.64972">
        <ele>475</ele>
        <time>2015-01-25T10:45:32.000Z</time>
      </trkpt>
      <trkpt lat="47.53781" lon="6.6497">
        <ele>475</ele>
        <time>2015-01-25T10:45:33.000Z</time>
      </trkpt>
      <trkpt lat="47.53778" lon="6.64968">
        <ele>475</ele>
        <time>2015-01-25T10:45:34.000Z</time>
      </trkpt>
      <trkpt lat="47.53775" lon="6.64966">
        <ele>475</ele>
        <time>2015-01-25T10:45:35.000Z</time>
      </trkpt>
      <trkpt lat="47.53772" lon="6.64963">
        <ele>475</ele>
        <time>2015-01-25T10:45:36.000Z</time>
      </trkpt>
      <trkpt lat="47.53769" lon="6.6496">
        <ele>475</ele>
        <time>2015-01-25T10:45:37.000Z</time>
      </trkpt>
      <trkpt lat="47.53766" lon="6.64957">
        <ele>474</ele>
        <time>2015-01-25T10:45:38.000Z</time>
      </trkpt>
      <trkpt lat="47.53762" lon="6.64955">
        <ele>474</ele>
        <time>2015-01-25T10:45:39.000Z</time>
      </trkpt>
      <trkpt lat="47.53759" lon="6.64953">
        <ele>474</ele>
        <time>2015-01-25T10:45:40.000Z</time>
      </trkpt>
      <trkpt lat="47.53756" lon="6.64951">
        <ele>474</ele>
        <time>2015-01-25T10:45:41.000Z</time>
      </trkpt>
      <trkpt lat="47.53753" lon="6.64949">
        <ele>474</ele>
        <time>2015-01-25T10:45:42.000Z</time>
      </trkpt>
      <trkpt lat="47.53749" lon="6.64948">
        <ele>473</ele>
        <time>2015-01-25T10:45:43.000Z</time>
      </trkpt>
      <trkpt lat="47.53745" lon="6.64947">
        <ele>473</ele>
        <time>2015-01-25T10:45:44.000Z</time>
      </trkpt>
      <trkpt lat="47.53737" lon="6.64945">
        <ele>473</ele>
        <time>2015-01-25T10:45:47.000Z</time>
      </trkpt>
      <trkpt lat="47.53735" lon="6.64945">
        <ele>473</ele>
        <time>2015-01-25T10:45:48.000Z</time>
      </trkpt>
      <trkpt lat="47.53732" lon="6.64945">
        <ele>473</ele>
        <time>2015-01-25T10:45:49.000Z</time>
      </trkpt>
      <trkpt lat="47.53729" lon="6.64946">
        <ele>473</ele>
        <time>2015-01-25T10:45:50.000Z</time>
      </trkpt>
      <trkpt lat="47.53727" lon="6.64947">
        <ele>473</ele>
        <time>2015-01-25T10:45:51.000Z</time>
      </trkpt>
      <trkpt lat="47.53722" lon="6.64949">
        <ele>473</ele>
        <time>2015-01-25T10:45:53.000Z</time>
      </trkpt>
      <trkpt lat="47.5372" lon="6.64949">
        <ele>473</ele>
        <time>2015-01-25T10:45:54.000Z</time>
      </trkpt>
      <trkpt lat="47.53716" lon="6.64951">
        <ele>473</ele>
        <time>2015-01-25T10:45:56.000Z</time>
      </trkpt>
      <trkpt lat="47.53715" lon="6.64952">
        <ele>473</ele>
        <time>2015-01-25T10:45:57.000Z</time>
      </trkpt>
      <trkpt lat="47.53711" lon="6.64953">
        <ele>473</ele>
        <time>2015-01-25T10:45:59.000Z</time>
      </trkpt>
      <trkpt lat="47.5371" lon="6.64954">
        <ele>473</ele>
        <time>2015-01-25T10:46:00.000Z</time>
      </trkpt>
      <trkpt lat="47.53707" lon="6.64955">
        <ele>473</ele>
        <time>2015-01-25T10:46:02.000Z</time>
      </trkpt>
      <trkpt lat="47.53706" lon="6.64956">
        <ele>473</ele>
        <time>2015-01-25T10:46:03.000Z</time>
      </trkpt>
      <trkpt lat="47.53704" lon="6.64957">
        <ele>473</ele>
        <time>2015-01-25T10:46:04.000Z</time>
      </trkpt>
      <trkpt lat="47.53701" lon="6.64959">
        <ele>473</ele>
        <time>2015-01-25T10:46:05.000Z</time>
      </trkpt>
      <trkpt lat="47.53699" lon="6.6496">
        <ele>473</ele>
        <time>2015-01-25T10:46:06.000Z</time>
      </trkpt>
      <trkpt lat="47.53697" lon="6.64962">
        <ele>473</ele>
        <time>2015-01-25T10:46:07.000Z</time>
      </trkpt>
      <trkpt lat="47.53694" lon="6.64963">
        <ele>473</ele>
        <time>2015-01-25T10:46:08.000Z</time>
      </trkpt>
      <trkpt lat="47.53692" lon="6.64964">
        <ele>474</ele>
        <time>2015-01-25T10:46:09.000Z</time>
      </trkpt>
      <trkpt lat="47.5369" lon="6.64965">
        <ele>474</ele>
        <time>2015-01-25T10:46:10.000Z</time>
      </trkpt>
      <trkpt lat="47.53688" lon="6.64967">
        <ele>474</ele>
        <time>2015-01-25T10:46:11.000Z</time>
      </trkpt>
      <trkpt lat="47.53685" lon="6.64969">
        <ele>474</ele>
        <time>2015-01-25T10:46:12.000Z</time>
      </trkpt>
      <trkpt lat="47.53683" lon="6.6497">
        <ele>474</ele>
        <time>2015-01-25T10:46:13.000Z</time>
      </trkpt>
      <trkpt lat="47.53681" lon="6.64972">
        <ele>474</ele>
        <time>2015-01-25T10:46:14.000Z</time>
      </trkpt>
      <trkpt lat="47.53678" lon="6.64973">
        <ele>474</ele>
        <time>2015-01-25T10:46:15.000Z</time>
      </trkpt>
      <trkpt lat="47.53675" lon="6.64974">
        <ele>474</ele>
        <time>2015-01-25T10:46:16.000Z</time>
      </trkpt>
      <trkpt lat="47.53673" lon="6.64976">
        <ele>474</ele>
        <time>2015-01-25T10:46:17.000Z</time>
      </trkpt>
      <trkpt lat="47.53671" lon="6.64977">
        <ele>474</ele>
        <time>2015-01-25T10:46:18.000Z</time>
      </trkpt>
      <trkpt lat="47.53668" lon="6.6498">
        <ele>474</ele>
        <time>2015-01-25T10:46:19.000Z</time>
      </trkpt>
      <trkpt lat="47.53666" lon="6.64982">
        <ele>473</ele>
        <time>2015-01-25T10:46:20.000Z</time>
      </trkpt>
      <trkpt lat="47.53663" lon="6.64985">
        <ele>473</ele>
        <time>2015-01-25T10:46:21.000Z</time>
      </trkpt>
      <trkpt lat="47.53661" lon="6.64988">
        <ele>473</ele>
        <time>2015-01-25T10:46:22.000Z</time>
      </trkpt>
      <trkpt lat="47.53659" lon="6.64992">
        <ele>473</ele>
        <time>2015-01-25T10:46:23.000Z</time>
      </trkpt>
      <trkpt lat="47.53657" lon="6.64994">
        <ele>473</ele>
        <time>2015-01-25T10:46:24.000Z</time>
      </trkpt>
      <trkpt lat="47.53654" lon="6.64997">
        <ele>473</ele>
        <time>2015-01-25T10:46:25.000Z</time>
      </trkpt>
      <trkpt lat="47.53652" lon="6.64998">
        <ele>473</ele>
        <time>2015-01-25T10:46:26.000Z</time>
      </trkpt>
      <trkpt lat="47.5365" lon="6.64999">
        <ele>473</ele>
        <time>2015-01-25T10:46:27.000Z</time>
      </trkpt>
      <trkpt lat="47.53647" lon="6.65">
        <ele>475</ele>
        <time>2015-01-25T10:46:28.000Z</time>
      </trkpt>
      <trkpt lat="47.53644" lon="6.65001">
        <ele>474</ele>
        <time>2015-01-25T10:46:29.000Z</time>
      </trkpt>
      <trkpt lat="47.53641" lon="6.65002">
        <ele>474</ele>
        <time>2015-01-25T10:46:30.000Z</time>
      </trkpt>
      <trkpt lat="47.53637" lon="6.65002">
        <ele>474</ele>
        <time>2015-01-25T10:46:31.000Z</time>
      </trkpt>
      <trkpt lat="47.53634" lon="6.65003">
        <ele>474</ele>
        <time>2015-01-25T10:46:32.000Z</time>
      </trkpt>
      <trkpt lat="47.5363" lon="6.65004">
        <ele>474</ele>
        <time>2015-01-25T10:46:33.000Z</time>
      </trkpt>
      <trkpt lat="47.53628" lon="6.65004">
        <ele>474</ele>
        <time>2015-01-25T10:46:34.000Z</time>
      </trkpt>
      <trkpt lat="47.53625" lon="6.65005">
        <ele>474</ele>
        <time>2015-01-25T10:46:35.000Z</time>
      </trkpt>
      <trkpt lat="47.53623" lon="6.65006">
        <ele>474</ele>
        <time>2015-01-25T10:46:36.000Z</time>
      </trkpt>
      <trkpt lat="47.5362" lon="6.65007">
        <ele>474</ele>
        <time>2015-01-25T10:46:37.000Z</time>
      </trkpt>
      <trkpt lat="47.53618" lon="6.65008">
        <ele>473</ele>
        <time>2015-01-25T10:46:38.000Z</time>
      </trkpt>
      <trkpt lat="47.53615" lon="6.6501">
        <ele>473</ele>
        <time>2015-01-25T10:46:39.000Z</time>
      </trkpt>
      <trkpt lat="47.53612" lon="6.65012">
        <ele>473</ele>
        <time>2015-01-25T10:46:40.000Z</time>
      </trkpt>
      <trkpt lat="47.53608" lon="6.65013">
        <ele>473</ele>
        <time>2015-01-25T10:46:41.000Z</time>
      </trkpt>
      <trkpt lat="47.53604" lon="6.65015">
        <ele>473</ele>
        <time>2015-01-25T10:46:42.000Z</time>
      </trkpt>
      <trkpt lat="47.53601" lon="6.65017">
        <ele>473</ele>
        <time>2015-01-25T10:46:43.000Z</time>
      </trkpt>
      <trkpt lat="47.53597" lon="6.65018">
        <ele>473</ele>
        <time>2015-01-25T10:46:44.000Z</time>
      </trkpt>
      <trkpt lat="47.53594" lon="6.6502">
        <ele>473</ele>
        <time>2015-01-25T10:46:45.000Z</time>
      </trkpt>
      <trkpt lat="47.53578" lon="6.65006">
        <ele>469</ele>
        <time>2015-01-25T10:46:53.000Z</time>
      </trkpt>
      <trkpt lat="47.53574" lon="6.65009">
        <ele>469</ele>
        <time>2015-01-25T10:46:55.000Z</time>
      </trkpt>
      <trkpt lat="47.53573" lon="6.65012">
        <ele>469</ele>
        <time>2015-01-25T10:46:56.000Z</time>
      </trkpt>
      <trkpt lat="47.53571" lon="6.65016">
        <ele>469</ele>
        <time>2015-01-25T10:46:57.000Z</time>
      </trkpt>
      <trkpt lat="47.53569" lon="6.6502">
        <ele>469</ele>
        <time>2015-01-25T10:46:58.000Z</time>
      </trkpt>
      <trkpt lat="47.53566" lon="6.65024">
        <ele>469</ele>
        <time>2015-01-25T10:46:59.000Z</time>
      </trkpt>
      <trkpt lat="47.53564" lon="6.65028">
        <ele>468</ele>
        <time>2015-01-25T10:47:00.000Z</time>
      </trkpt>
      <trkpt lat="47.53561" lon="6.65033">
        <ele>468</ele>
        <time>2015-01-25T10:47:01.000Z</time>
      </trkpt>
      <trkpt lat="47.53559" lon="6.65037">
        <ele>468</ele>
        <time>2015-01-25T10:47:02.000Z</time>
      </trkpt>
      <trkpt lat="47.53556" lon="6.65043">
        <ele>468</ele>
        <time>2015-01-25T10:47:03.000Z</time>
      </trkpt>
      <trkpt lat="47.53554" lon="6.65048">
        <ele>468</ele>
        <time>2015-01-25T10:47:04.000Z</time>
      </trkpt>
      <trkpt lat="47.53551" lon="6.65054">
        <ele>468</ele>
        <time>2015-01-25T10:47:05.000Z</time>
      </trkpt>
      <trkpt lat="47.53548" lon="6.65059">
        <ele>468</ele>
        <time>2015-01-25T10:47:06.000Z</time>
      </trkpt>
      <trkpt lat="47.53545" lon="6.65064">
        <ele>468</ele>
        <time>2015-01-25T10:47:07.000Z</time>
      </trkpt>
      <trkpt lat="47.53543" lon="6.65068">
        <ele>468</ele>
        <time>2015-01-25T10:47:08.000Z</time>
      </trkpt>
      <trkpt lat="47.5354" lon="6.65072">
        <ele>468</ele>
        <time>2015-01-25T10:47:09.000Z</time>
      </trkpt>
      <trkpt lat="47.53538" lon="6.65076">
        <ele>468</ele>
        <time>2015-01-25T10:47:10.000Z</time>
      </trkpt>
      <trkpt lat="47.53536" lon="6.6508">
        <ele>468</ele>
        <time>2015-01-25T10:47:11.000Z</time>
      </trkpt>
      <trkpt lat="47.53534" lon="6.65083">
        <ele>469</ele>
        <time>2015-01-25T10:47:12.000Z</time>
      </trkpt>
      <trkpt lat="47.53532" lon="6.65087">
        <ele>469</ele>
        <time>2015-01-25T10:47:13.000Z</time>
      </trkpt>
      <trkpt lat="47.5353" lon="6.6509">
        <ele>469</ele>
        <time>2015-01-25T10:47:14.000Z</time>
      </trkpt>
      <trkpt lat="47.53528" lon="6.65094">
        <ele>469</ele>
        <time>2015-01-25T10:47:15.000Z</time>
      </trkpt>
      <trkpt lat="47.53525" lon="6.65097">
        <ele>469</ele>
        <time>2015-01-25T10:47:16.000Z</time>
      </trkpt>
      <trkpt lat="47.53522" lon="6.65101">
        <ele>469</ele>
        <time>2015-01-25T10:47:17.000Z</time>
      </trkpt>
      <trkpt lat="47.53519" lon="6.65104">
        <ele>469</ele>
        <time>2015-01-25T10:47:18.000Z</time>
      </trkpt>
      <trkpt lat="47.53517" lon="6.65108">
        <ele>469</ele>
        <time>2015-01-25T10:47:19.000Z</time>
      </trkpt>
      <trkpt lat="47.53515" lon="6.65113">
        <ele>469</ele>
        <time>2015-01-25T10:47:20.000Z</time>
      </trkpt>
      <trkpt lat="47.53513" lon="6.65118">
        <ele>469</ele>
        <time>2015-01-25T10:47:21.000Z</time>
      </trkpt>
      <trkpt lat="47.5351" lon="6.65123">
        <ele>469</ele>
        <time>2015-01-25T10:47:22.000Z</time>
      </trkpt>
      <trkpt lat="47.53508" lon="6.65127">
        <ele>469</ele>
        <time>2015-01-25T10:47:23.000Z</time>
      </trkpt>
      <trkpt lat="47.53505" lon="6.65131">
        <ele>469</ele>
        <time>2015-01-25T10:47:24.000Z</time>
      </trkpt>
      <trkpt lat="47.53502" lon="6.65134">
        <ele>469</ele>
        <time>2015-01-25T10:47:25.000Z</time>
      </trkpt>
      <trkpt lat="47.53499" lon="6.65136">
        <ele>464</ele>
        <time>2015-01-25T10:47:26.000Z</time>
      </trkpt>
      <trkpt lat="47.53496" lon="6.65139">
        <ele>464</ele>
        <time>2015-01-25T10:47:27.000Z</time>
      </trkpt>
      <trkpt lat="47.53493" lon="6.65143">
        <ele>464</ele>
        <time>2015-01-25T10:47:28.000Z</time>
      </trkpt>
      <trkpt lat="47.53491" lon="6.65147">
        <ele>464</ele>
        <time>2015-01-25T10:47:29.000Z</time>
      </trkpt>
      <trkpt lat="47.53489" lon="6.65151">
        <ele>464</ele>
        <time>2015-01-25T10:47:30.000Z</time>
      </trkpt>
      <trkpt lat="47.53487" lon="6.65154">
        <ele>465</ele>
        <time>2015-01-25T10:47:31.000Z</time>
      </trkpt>
      <trkpt lat="47.53485" lon="6.65157">
        <ele>465</ele>
        <time>2015-01-25T10:47:32.000Z</time>
      </trkpt>
      <trkpt lat="47.53482" lon="6.65159">
        <ele>464</ele>
        <time>2015-01-25T10:47:33.000Z</time>
      </trkpt>
      <trkpt lat="47.5348" lon="6.65162">
        <ele>464</ele>
        <time>2015-01-25T10:47:34.000Z</time>
      </trkpt>
      <trkpt lat="47.53478" lon="6.65164">
        <ele>464</ele>
        <time>2015-01-25T10:47:35.000Z</time>
      </trkpt>
      <trkpt lat="47.53476" lon="6.65167">
        <ele>464</ele>
        <time>2015-01-25T10:47:36.000Z</time>
      </trkpt>
      <trkpt lat="47.53474" lon="6.6517">
        <ele>464</ele>
        <time>2015-01-25T10:47:37.000Z</time>
      </trkpt>
      <trkpt lat="47.53471" lon="6.65174">
        <ele>464</ele>
        <time>2015-01-25T10:47:38.000Z</time>
      </trkpt>
      <trkpt lat="47.53468" lon="6.65177">
        <ele>464</ele>
        <time>2015-01-25T10:47:39.000Z</time>
      </trkpt>
      <trkpt lat="47.53466" lon="6.65181">
        <ele>464</ele>
        <time>2015-01-25T10:47:40.000Z</time>
      </trkpt>
      <trkpt lat="47.53463" lon="6.65183">
        <ele>463</ele>
        <time>2015-01-25T10:47:41.000Z</time>
      </trkpt>
      <trkpt lat="47.53461" lon="6.65186">
        <ele>463</ele>
        <time>2015-01-25T10:47:42.000Z</time>
      </trkpt>
      <trkpt lat="47.53459" lon="6.65187">
        <ele>463</ele>
        <time>2015-01-25T10:47:43.000Z</time>
      </trkpt>
      <trkpt lat="47.53455" lon="6.65188">
        <ele>463</ele>
        <time>2015-01-25T10:47:44.000Z</time>
      </trkpt>
      <trkpt lat="47.53447" lon="6.65192">
        <ele>463</ele>
        <time>2015-01-25T10:47:47.000Z</time>
      </trkpt>
      <trkpt lat="47.53447" lon="6.65198">
        <ele>463</ele>
        <time>2015-01-25T10:48:18.000Z</time>
      </trkpt>
      <trkpt lat="47.53447" lon="6.65199">
        <ele>463</ele>
        <time>2015-01-25T10:48:19.000Z</time>
      </trkpt>
      <trkpt lat="47.53447" lon="6.65205">
        <ele>463</ele>
        <time>2015-01-25T10:48:22.000Z</time>
      </trkpt>
      <trkpt lat="47.53447" lon="6.65206">
        <ele>463</ele>
        <time>2015-01-25T10:48:23.000Z</time>
      </trkpt>
      <trkpt lat="47.53443" lon="6.65207">
        <ele>463</ele>
        <time>2015-01-25T10:48:43.000Z</time>
      </trkpt>
      <trkpt lat="47.53442" lon="6.65207">
        <ele>463</ele>
        <time>2015-01-25T10:48:44.000Z</time>
      </trkpt>
      <trkpt lat="47.53439" lon="6.65203">
        <ele>462</ele>
        <time>2015-01-25T10:48:47.000Z</time>
      </trkpt>
      <trkpt lat="47.53438" lon="6.65202">
        <ele>462</ele>
        <time>2015-01-25T10:48:48.000Z</time>
      </trkpt>
      <trkpt lat="47.53434" lon="6.65198">
        <ele>462</ele>
        <time>2015-01-25T10:48:50.000Z</time>
      </trkpt>
      <trkpt lat="47.53432" lon="6.65196">
        <ele>462</ele>
        <time>2015-01-25T10:48:51.000Z</time>
      </trkpt>
      <trkpt lat="47.53429" lon="6.65194">
        <ele>462</ele>
        <time>2015-01-25T10:48:52.000Z</time>
      </trkpt>
      <trkpt lat="47.53426" lon="6.65191">
        <ele>462</ele>
        <time>2015-01-25T10:48:53.000Z</time>
      </trkpt>
      <trkpt lat="47.53423" lon="6.65189">
        <ele>461</ele>
        <time>2015-01-25T10:48:54.000Z</time>
      </trkpt>
      <trkpt lat="47.5342" lon="6.65186">
        <ele>461</ele>
        <time>2015-01-25T10:48:55.000Z</time>
      </trkpt>
      <trkpt lat="47.53417" lon="6.65183">
        <ele>461</ele>
        <time>2015-01-25T10:48:56.000Z</time>
      </trkpt>
      <trkpt lat="47.53414" lon="6.6518">
        <ele>458</ele>
        <time>2015-01-25T10:48:57.000Z</time>
      </trkpt>
      <trkpt lat="47.53411" lon="6.65177">
        <ele>458</ele>
        <time>2015-01-25T10:48:58.000Z</time>
      </trkpt>
      <trkpt lat="47.53408" lon="6.65175">
        <ele>458</ele>
        <time>2015-01-25T10:48:59.000Z</time>
      </trkpt>
      <trkpt lat="47.53404" lon="6.65172">
        <ele>458</ele>
        <time>2015-01-25T10:49:00.000Z</time>
      </trkpt>
      <trkpt lat="47.53401" lon="6.65169">
        <ele>458</ele>
        <time>2015-01-25T10:49:01.000Z</time>
      </trkpt>
      <trkpt lat="47.53398" lon="6.65165">
        <ele>457</ele>
        <time>2015-01-25T10:49:02.000Z</time>
      </trkpt>
      <trkpt lat="47.53395" lon="6.65162">
        <ele>456</ele>
        <time>2015-01-25T10:49:03.000Z</time>
      </trkpt>
      <trkpt lat="47.53392" lon="6.65158">
        <ele>456</ele>
        <time>2015-01-25T10:49:04.000Z</time>
      </trkpt>
      <trkpt lat="47.53389" lon="6.65154">
        <ele>456</ele>
        <time>2015-01-25T10:49:05.000Z</time>
      </trkpt>
      <trkpt lat="47.53386" lon="6.65149">
        <ele>456</ele>
        <time>2015-01-25T10:49:06.000Z</time>
      </trkpt>
      <trkpt lat="47.53383" lon="6.65145">
        <ele>455</ele>
        <time>2015-01-25T10:49:07.000Z</time>
      </trkpt>
      <trkpt lat="47.53381" lon="6.65141">
        <ele>455</ele>
        <time>2015-01-25T10:49:08.000Z</time>
      </trkpt>
      <trkpt lat="47.53375" lon="6.65134">
        <ele>455</ele>
        <time>2015-01-25T10:49:09.000Z</time>
      </trkpt>
      <trkpt lat="47.53372" lon="6.6513">
        <ele>455</ele>
        <time>2015-01-25T10:49:10.000Z</time>
      </trkpt>
      <trkpt lat="47.53368" lon="6.65126">
        <ele>454</ele>
        <time>2015-01-25T10:49:11.000Z</time>
      </trkpt>
      <trkpt lat="47.53366" lon="6.65123">
        <ele>454</ele>
        <time>2015-01-25T10:49:12.000Z</time>
      </trkpt>
      <trkpt lat="47.53363" lon="6.65119">
        <ele>454</ele>
        <time>2015-01-25T10:49:13.000Z</time>
      </trkpt>
      <trkpt lat="47.5336" lon="6.65117">
        <ele>454</ele>
        <time>2015-01-25T10:49:14.000Z</time>
      </trkpt>
      <trkpt lat="47.53357" lon="6.65113">
        <ele>454</ele>
        <time>2015-01-25T10:49:15.000Z</time>
      </trkpt>
      <trkpt lat="47.53354" lon="6.65108">
        <ele>454</ele>
        <time>2015-01-25T10:49:16.000Z</time>
      </trkpt>
      <trkpt lat="47.53351" lon="6.65103">
        <ele>453</ele>
        <time>2015-01-25T10:49:17.000Z</time>
      </trkpt>
      <trkpt lat="47.53348" lon="6.65099">
        <ele>453</ele>
        <time>2015-01-25T10:49:18.000Z</time>
      </trkpt>
      <trkpt lat="47.53344" lon="6.65094">
        <ele>453</ele>
        <time>2015-01-25T10:49:19.000Z</time>
      </trkpt>
      <trkpt lat="47.5334" lon="6.65089">
        <ele>452</ele>
        <time>2015-01-25T10:49:20.000Z</time>
      </trkpt>
      <trkpt lat="47.53336" lon="6.65084">
        <ele>451</ele>
        <time>2015-01-25T10:49:21.000Z</time>
      </trkpt>
      <trkpt lat="47.53332" lon="6.6508">
        <ele>450</ele>
        <time>2015-01-25T10:49:22.000Z</time>
      </trkpt>
      <trkpt lat="47.53328" lon="6.65073">
        <ele>449</ele>
        <time>2015-01-25T10:49:23.000Z</time>
      </trkpt>
      <trkpt lat="47.53322" lon="6.65069">
        <ele>448</ele>
        <time>2015-01-25T10:49:24.000Z</time>
      </trkpt>
      <trkpt lat="47.53317" lon="6.65064">
        <ele>448</ele>
        <time>2015-01-25T10:49:25.000Z</time>
      </trkpt>
      <trkpt lat="47.53313" lon="6.65058">
        <ele>447</ele>
        <time>2015-01-25T10:49:26.000Z</time>
      </trkpt>
      <trkpt lat="47.53309" lon="6.65053">
        <ele>447</ele>
        <time>2015-01-25T10:49:27.000Z</time>
      </trkpt>
      <trkpt lat="47.53306" lon="6.65046">
        <ele>446</ele>
        <time>2015-01-25T10:49:28.000Z</time>
      </trkpt>
      <trkpt lat="47.533" lon="6.65041">
        <ele>446</ele>
        <time>2015-01-25T10:49:29.000Z</time>
      </trkpt>
      <trkpt lat="47.53295" lon="6.65036">
        <ele>446</ele>
        <time>2015-01-25T10:49:30.000Z</time>
      </trkpt>
      <trkpt lat="47.53292" lon="6.65031">
        <ele>445</ele>
        <time>2015-01-25T10:49:31.000Z</time>
      </trkpt>
      <trkpt lat="47.53287" lon="6.65026">
        <ele>445</ele>
        <time>2015-01-25T10:49:32.000Z</time>
      </trkpt>
      <trkpt lat="47.53283" lon="6.65021">
        <ele>445</ele>
        <time>2015-01-25T10:49:33.000Z</time>
      </trkpt>
      <trkpt lat="47.5328" lon="6.65017">
        <ele>444</ele>
        <time>2015-01-25T10:49:34.000Z</time>
      </trkpt>
      <trkpt lat="47.53275" lon="6.65014">
        <ele>444</ele>
        <time>2015-01-25T10:49:35.000Z</time>
      </trkpt>
      <trkpt lat="47.53272" lon="6.65011">
        <ele>444</ele>
        <time>2015-01-25T10:49:36.000Z</time>
      </trkpt>
      <trkpt lat="47.53267" lon="6.65009">
        <ele>443</ele>
        <time>2015-01-25T10:49:37.000Z</time>
      </trkpt>
      <trkpt lat="47.53262" lon="6.65008">
        <ele>443</ele>
        <time>2015-01-25T10:49:38.000Z</time>
      </trkpt>
      <trkpt lat="47.53258" lon="6.65009">
        <ele>442</ele>
        <time>2015-01-25T10:49:39.000Z</time>
      </trkpt>
      <trkpt lat="47.53253" lon="6.65009">
        <ele>442</ele>
        <time>2015-01-25T10:49:40.000Z</time>
      </trkpt>
      <trkpt lat="47.53249" lon="6.65009">
        <ele>440</ele>
        <time>2015-01-25T10:49:41.000Z</time>
      </trkpt>
      <trkpt lat="47.53245" lon="6.65011">
        <ele>440</ele>
        <time>2015-01-25T10:49:42.000Z</time>
      </trkpt>
      <trkpt lat="47.53241" lon="6.65011">
        <ele>440</ele>
        <time>2015-01-25T10:49:43.000Z</time>
      </trkpt>
      <trkpt lat="47.5323" lon="6.65006">
        <ele>440</ele>
        <time>2015-01-25T10:49:44.000Z</time>
      </trkpt>
      <trkpt lat="47.53213" lon="6.65001">
        <ele>439</ele>
        <time>2015-01-25T10:49:47.000Z</time>
      </trkpt>
      <trkpt lat="47.53208" lon="6.64996">
        <ele>434</ele>
        <time>2015-01-25T10:49:48.000Z</time>
      </trkpt>
      <trkpt lat="47.53203" lon="6.64991">
        <ele>433</ele>
        <time>2015-01-25T10:49:49.000Z</time>
      </trkpt>
      <trkpt lat="47.53196" lon="6.64993">
        <ele>433</ele>
        <time>2015-01-25T10:49:50.000Z</time>
      </trkpt>
      <trkpt lat="47.53192" lon="6.64992">
        <ele>433</ele>
        <time>2015-01-25T10:49:51.000Z</time>
      </trkpt>
      <trkpt lat="47.53186" lon="6.64992">
        <ele>433</ele>
        <time>2015-01-25T10:49:52.000Z</time>
      </trkpt>
      <trkpt lat="47.53184" lon="6.64997">
        <ele>433</ele>
        <time>2015-01-25T10:49:53.000Z</time>
      </trkpt>
      <trkpt lat="47.53181" lon="6.65002">
        <ele>436</ele>
        <time>2015-01-25T10:49:54.000Z</time>
      </trkpt>
      <trkpt lat="47.53179" lon="6.65005">
        <ele>436</ele>
        <time>2015-01-25T10:49:55.000Z</time>
      </trkpt>
      <trkpt lat="47.53177" lon="6.65008">
        <ele>436</ele>
        <time>2015-01-25T10:49:56.000Z</time>
      </trkpt>
      <trkpt lat="47.53175" lon="6.65011">
        <ele>436</ele>
        <time>2015-01-25T10:49:57.000Z</time>
      </trkpt>
      <trkpt lat="47.53173" lon="6.65014">
        <ele>437</ele>
        <time>2015-01-25T10:49:58.000Z</time>
      </trkpt>
      <trkpt lat="47.5317" lon="6.65016">
        <ele>437</ele>
        <time>2015-01-25T10:49:59.000Z</time>
      </trkpt>
      <trkpt lat="47.53168" lon="6.65018">
        <ele>437</ele>
        <time>2015-01-25T10:50:00.000Z</time>
      </trkpt>
      <trkpt lat="47.53166" lon="6.65019">
        <ele>434</ele>
        <time>2015-01-25T10:50:01.000Z</time>
      </trkpt>
      <trkpt lat="47.53164" lon="6.6502">
        <ele>434</ele>
        <time>2015-01-25T10:50:02.000Z</time>
      </trkpt>
      <trkpt lat="47.53161" lon="6.65019">
        <ele>434</ele>
        <time>2015-01-25T10:50:03.000Z</time>
      </trkpt>
      <trkpt lat="47.53158" lon="6.65018">
        <ele>434</ele>
        <time>2015-01-25T10:50:04.000Z</time>
      </trkpt>
      <trkpt lat="47.53155" lon="6.65016">
        <ele>434</ele>
        <time>2015-01-25T10:50:05.000Z</time>
      </trkpt>
      <trkpt lat="47.53151" lon="6.65014">
        <ele>434</ele>
        <time>2015-01-25T10:50:06.000Z</time>
      </trkpt>
      <trkpt lat="47.53147" lon="6.65012">
        <ele>434</ele>
        <time>2015-01-25T10:50:07.000Z</time>
      </trkpt>
      <trkpt lat="47.53143" lon="6.6501">
        <ele>434</ele>
        <time>2015-01-25T10:50:08.000Z</time>
      </trkpt>
      <trkpt lat="47.5314" lon="6.65009">
        <ele>434</ele>
        <time>2015-01-25T10:50:09.000Z</time>
      </trkpt>
      <trkpt lat="47.53136" lon="6.65009">
        <ele>434</ele>
        <time>2015-01-25T10:50:10.000Z</time>
      </trkpt>
      <trkpt lat="47.53132" lon="6.65009">
        <ele>433</ele>
        <time>2015-01-25T10:50:11.000Z</time>
      </trkpt>
      <trkpt lat="47.53128" lon="6.6501">
        <ele>433</ele>
        <time>2015-01-25T10:50:12.000Z</time>
      </trkpt>
      <trkpt lat="47.53123" lon="6.6501">
        <ele>433</ele>
        <time>2015-01-25T10:50:13.000Z</time>
      </trkpt>
      <trkpt lat="47.53119" lon="6.6501">
        <ele>433</ele>
        <time>2015-01-25T10:50:14.000Z</time>
      </trkpt>
      <trkpt lat="47.53114" lon="6.65011">
        <ele>433</ele>
        <time>2015-01-25T10:50:15.000Z</time>
      </trkpt>
      <trkpt lat="47.53102" lon="6.65013">
        <ele>432</ele>
        <time>2015-01-25T10:50:16.000Z</time>
      </trkpt>
      <trkpt lat="47.53097" lon="6.65015">
        <ele>432</ele>
        <time>2015-01-25T10:50:17.000Z</time>
      </trkpt>
      <trkpt lat="47.53092" lon="6.65017">
        <ele>432</ele>
        <time>2015-01-25T10:50:18.000Z</time>
      </trkpt>
      <trkpt lat="47.53089" lon="6.65019">
        <ele>432</ele>
        <time>2015-01-25T10:50:19.000Z</time>
      </trkpt>
      <trkpt lat="47.53086" lon="6.65022">
        <ele>432</ele>
        <time>2015-01-25T10:50:20.000Z</time>
      </trkpt>
      <trkpt lat="47.53082" lon="6.65024">
        <ele>428</ele>
        <time>2015-01-25T10:50:21.000Z</time>
      </trkpt>
      <trkpt lat="47.53079" lon="6.65027">
        <ele>428</ele>
        <time>2015-01-25T10:50:22.000Z</time>
      </trkpt>
      <trkpt lat="47.53076" lon="6.65027">
        <ele>428</ele>
        <time>2015-01-25T10:50:23.000Z</time>
      </trkpt>
      <trkpt lat="47.53071" lon="6.65028">
        <ele>428</ele>
        <time>2015-01-25T10:50:24.000Z</time>
      </trkpt>
      <trkpt lat="47.53067" lon="6.65028">
        <ele>428</ele>
        <time>2015-01-25T10:50:25.000Z</time>
      </trkpt>
      <trkpt lat="47.53063" lon="6.65029">
        <ele>427</ele>
        <time>2015-01-25T10:50:26.000Z</time>
      </trkpt>
      <trkpt lat="47.53059" lon="6.6503">
        <ele>427</ele>
        <time>2015-01-25T10:50:27.000Z</time>
      </trkpt>
      <trkpt lat="47.53055" lon="6.6503">
        <ele>427</ele>
        <time>2015-01-25T10:50:28.000Z</time>
      </trkpt>
      <trkpt lat="47.53051" lon="6.65031">
        <ele>427</ele>
        <time>2015-01-25T10:50:29.000Z</time>
      </trkpt>
      <trkpt lat="47.53047" lon="6.65032">
        <ele>427</ele>
        <time>2015-01-25T10:50:30.000Z</time>
      </trkpt>
      <trkpt lat="47.53043" lon="6.65034">
        <ele>427</ele>
        <time>2015-01-25T10:50:31.000Z</time>
      </trkpt>
      <trkpt lat="47.53028" lon="6.65041">
        <ele>426</ele>
        <time>2015-01-25T10:50:32.000Z</time>
      </trkpt>
      <trkpt lat="47.53021" lon="6.65045">
        <ele>426</ele>
        <time>2015-01-25T10:50:33.000Z</time>
      </trkpt>
      <trkpt lat="47.53014" lon="6.65048">
        <ele>426</ele>
        <time>2015-01-25T10:50:34.000Z</time>
      </trkpt>
      <trkpt lat="47.53004" lon="6.65048">
        <ele>425</ele>
        <time>2015-01-25T10:50:35.000Z</time>
      </trkpt>
      <trkpt lat="47.52997" lon="6.65049">
        <ele>420</ele>
        <time>2015-01-25T10:50:36.000Z</time>
      </trkpt>
      <trkpt lat="47.52989" lon="6.65052">
        <ele>419</ele>
        <time>2015-01-25T10:50:37.000Z</time>
      </trkpt>
      <trkpt lat="47.52981" lon="6.65055">
        <ele>419</ele>
        <time>2015-01-25T10:50:38.000Z</time>
      </trkpt>
      <trkpt lat="47.52975" lon="6.65055">
        <ele>419</ele>
        <time>2015-01-25T10:50:39.000Z</time>
      </trkpt>
      <trkpt lat="47.52969" lon="6.65057">
        <ele>419</ele>
        <time>2015-01-25T10:50:40.000Z</time>
      </trkpt>
      <trkpt lat="47.52964" lon="6.65059">
        <ele>418</ele>
        <time>2015-01-25T10:50:41.000Z</time>
      </trkpt>
      <trkpt lat="47.52959" lon="6.65062">
        <ele>418</ele>
        <time>2015-01-25T10:50:42.000Z</time>
      </trkpt>
      <trkpt lat="47.52953" lon="6.65065">
        <ele>418</ele>
        <time>2015-01-25T10:50:43.000Z</time>
      </trkpt>
      <trkpt lat="47.52947" lon="6.65067">
        <ele>417</ele>
        <time>2015-01-25T10:50:44.000Z</time>
      </trkpt>
      <trkpt lat="47.5293" lon="6.65068">
        <ele>417</ele>
        <time>2015-01-25T10:50:47.000Z</time>
      </trkpt>
      <trkpt lat="47.52924" lon="6.65071">
        <ele>416</ele>
        <time>2015-01-25T10:50:48.000Z</time>
      </trkpt>
      <trkpt lat="47.52916" lon="6.65072">
        <ele>413</ele>
        <time>2015-01-25T10:50:49.000Z</time>
      </trkpt>
      <trkpt lat="47.52907" lon="6.65076">
        <ele>412</ele>
        <time>2015-01-25T10:50:50.000Z</time>
      </trkpt>
      <trkpt lat="47.52899" lon="6.65082">
        <ele>411</ele>
        <time>2015-01-25T10:50:51.000Z</time>
      </trkpt>
      <trkpt lat="47.52894" lon="6.65085">
        <ele>413</ele>
        <time>2015-01-25T10:50:52.000Z</time>
      </trkpt>
      <trkpt lat="47.52889" lon="6.6509">
        <ele>413</ele>
        <time>2015-01-25T10:50:53.000Z</time>
      </trkpt>
      <trkpt lat="47.52882" lon="6.65095">
        <ele>412</ele>
        <time>2015-01-25T10:50:54.000Z</time>
      </trkpt>
      <trkpt lat="47.52877" lon="6.65098">
        <ele>411</ele>
        <time>2015-01-25T10:50:55.000Z</time>
      </trkpt>
      <trkpt lat="47.52872" lon="6.65103">
        <ele>411</ele>
        <time>2015-01-25T10:50:56.000Z</time>
      </trkpt>
      <trkpt lat="47.52866" lon="6.65108">
        <ele>411</ele>
        <time>2015-01-25T10:50:57.000Z</time>
      </trkpt>
      <trkpt lat="47.52858" lon="6.65113">
        <ele>410</ele>
        <time>2015-01-25T10:50:58.000Z</time>
      </trkpt>
      <trkpt lat="47.52852" lon="6.65118">
        <ele>410</ele>
        <time>2015-01-25T10:50:59.000Z</time>
      </trkpt>
      <trkpt lat="47.52844" lon="6.65122">
        <ele>410</ele>
        <time>2015-01-25T10:51:00.000Z</time>
      </trkpt>
      <trkpt lat="47.52835" lon="6.65124">
        <ele>410</ele>
        <time>2015-01-25T10:51:01.000Z</time>
      </trkpt>
      <trkpt lat="47.52828" lon="6.65131">
        <ele>403</ele>
        <time>2015-01-25T10:51:02.000Z</time>
      </trkpt>
      <trkpt lat="47.52823" lon="6.65138">
        <ele>403</ele>
        <time>2015-01-25T10:51:03.000Z</time>
      </trkpt>
      <trkpt lat="47.52818" lon="6.65147">
        <ele>403</ele>
        <time>2015-01-25T10:51:04.000Z</time>
      </trkpt>
      <trkpt lat="47.52813" lon="6.65154">
        <ele>403</ele>
        <time>2015-01-25T10:51:05.000Z</time>
      </trkpt>
      <trkpt lat="47.52806" lon="6.6516">
        <ele>403</ele>
        <time>2015-01-25T10:51:06.000Z</time>
      </trkpt>
      <trkpt lat="47.52798" lon="6.65163">
        <ele>402</ele>
        <time>2015-01-25T10:51:07.000Z</time>
      </trkpt>
      <trkpt lat="47.52791" lon="6.65168">
        <ele>403</ele>
        <time>2015-01-25T10:51:08.000Z</time>
      </trkpt>
      <trkpt lat="47.52785" lon="6.65165">
        <ele>400</ele>
        <time>2015-01-25T10:51:09.000Z</time>
      </trkpt>
      <trkpt lat="47.52779" lon="6.65167">
        <ele>401</ele>
        <time>2015-01-25T10:51:10.000Z</time>
      </trkpt>
      <trkpt lat="47.52775" lon="6.6517">
        <ele>401</ele>
        <time>2015-01-25T10:51:11.000Z</time>
      </trkpt>
      <trkpt lat="47.52772" lon="6.6517">
        <ele>401</ele>
        <time>2015-01-25T10:51:12.000Z</time>
      </trkpt>
      <trkpt lat="47.52769" lon="6.65169">
        <ele>400</ele>
        <time>2015-01-25T10:51:14.000Z</time>
      </trkpt>
      <trkpt lat="47.52766" lon="6.65166">
        <ele>399</ele>
        <time>2015-01-25T10:51:15.000Z</time>
      </trkpt>
      <trkpt lat="47.52762" lon="6.65166">
        <ele>398</ele>
        <time>2015-01-25T10:51:17.000Z</time>
      </trkpt>
      <trkpt lat="47.5276" lon="6.65165">
        <ele>398</ele>
        <time>2015-01-25T10:51:18.000Z</time>
      </trkpt>
      <trkpt lat="47.52756" lon="6.65165">
        <ele>398</ele>
        <time>2015-01-25T10:51:19.000Z</time>
      </trkpt>
      <trkpt lat="47.52754" lon="6.65165">
        <ele>397</ele>
        <time>2015-01-25T10:51:20.000Z</time>
      </trkpt>
      <trkpt lat="47.52751" lon="6.65167">
        <ele>397</ele>
        <time>2015-01-25T10:51:22.000Z</time>
      </trkpt>
      <trkpt lat="47.5275" lon="6.65168">
        <ele>397</ele>
        <time>2015-01-25T10:51:23.000Z</time>
      </trkpt>
      <trkpt lat="47.52747" lon="6.65172">
        <ele>396</ele>
        <time>2015-01-25T10:51:26.000Z</time>
      </trkpt>
      <trkpt lat="47.52745" lon="6.65173">
        <ele>395</ele>
        <time>2015-01-25T10:51:27.000Z</time>
      </trkpt>
      <trkpt lat="47.52743" lon="6.65174">
        <ele>395</ele>
        <time>2015-01-25T10:51:28.999Z</time>
      </trkpt>
      <trkpt lat="47.52741" lon="6.65177">
        <ele>394</ele>
        <time>2015-01-25T10:51:30.000Z</time>
      </trkpt>
      <trkpt lat="47.52738" lon="6.6518">
        <ele>393</ele>
        <time>2015-01-25T10:51:34.000Z</time>
      </trkpt>
      <trkpt lat="47.52737" lon="6.65181">
        <ele>393</ele>
        <time>2015-01-25T10:51:35.000Z</time>
      </trkpt>
      <trkpt lat="47.52733" lon="6.65184">
        <ele>393</ele>
        <time>2015-01-25T10:51:39.000Z</time>
      </trkpt>
      <trkpt lat="47.52733" lon="6.65185">
        <ele>393</ele>
        <time>2015-01-25T10:51:40.000Z</time>
      </trkpt>
      <trkpt lat="47.5273" lon="6.65189">
        <ele>392</ele>
        <time>2015-01-25T10:51:50.000Z</time>
      </trkpt>
      <trkpt lat="47.52728" lon="6.65192">
        <ele>392</ele>
        <time>2015-01-25T10:51:51.000Z</time>
      </trkpt>
      <trkpt lat="47.52725" lon="6.65194">
        <ele>392</ele>
        <time>2015-01-25T10:51:52.000Z</time>
      </trkpt>
      <trkpt lat="47.52722" lon="6.65197">
        <ele>391</ele>
        <time>2015-01-25T10:51:53.000Z</time>
      </trkpt>
      <trkpt lat="47.52714" lon="6.65208">
        <ele>391</ele>
        <time>2015-01-25T10:51:54.000Z</time>
      </trkpt>
      <trkpt lat="47.52709" lon="6.65214">
        <ele>390</ele>
        <time>2015-01-25T10:51:55.000Z</time>
      </trkpt>
      <trkpt lat="47.52705" lon="6.6522">
        <ele>390</ele>
        <time>2015-01-25T10:51:56.000Z</time>
      </trkpt>
      <trkpt lat="47.527" lon="6.65227">
        <ele>390</ele>
        <time>2015-01-25T10:51:57.000Z</time>
      </trkpt>
      <trkpt lat="47.52696" lon="6.65233">
        <ele>389</ele>
        <time>2015-01-25T10:51:58.000Z</time>
      </trkpt>
      <trkpt lat="47.52692" lon="6.65239">
        <ele>389</ele>
        <time>2015-01-25T10:51:59.000Z</time>
      </trkpt>
      <trkpt lat="47.52687" lon="6.65246">
        <ele>388</ele>
        <time>2015-01-25T10:52:00.000Z</time>
      </trkpt>
      <trkpt lat="47.52683" lon="6.65253">
        <ele>386</ele>
        <time>2015-01-25T10:52:01.000Z</time>
      </trkpt>
      <trkpt lat="47.52678" lon="6.6526">
        <ele>386</ele>
        <time>2015-01-25T10:52:02.000Z</time>
      </trkpt>
      <trkpt lat="47.52673" lon="6.65264">
        <ele>386</ele>
        <time>2015-01-25T10:52:03.000Z</time>
      </trkpt>
      <trkpt lat="47.52667" lon="6.65268">
        <ele>386</ele>
        <time>2015-01-25T10:52:04.000Z</time>
      </trkpt>
      <trkpt lat="47.52661" lon="6.65274">
        <ele>381</ele>
        <time>2015-01-25T10:52:05.000Z</time>
      </trkpt>
      <trkpt lat="47.52656" lon="6.65279">
        <ele>381</ele>
        <time>2015-01-25T10:52:06.000Z</time>
      </trkpt>
      <trkpt lat="47.52649" lon="6.65285">
        <ele>380</ele>
        <time>2015-01-25T10:52:07.000Z</time>
      </trkpt>
      <trkpt lat="47.52643" lon="6.65292">
        <ele>380</ele>
        <time>2015-01-25T10:52:08.000Z</time>
      </trkpt>
      <trkpt lat="47.52637" lon="6.65299">
        <ele>380</ele>
        <time>2015-01-25T10:52:09.000Z</time>
      </trkpt>
      <trkpt lat="47.52632" lon="6.65306">
        <ele>379</ele>
        <time>2015-01-25T10:52:10.000Z</time>
      </trkpt>
      <trkpt lat="47.52627" lon="6.65313">
        <ele>379</ele>
        <time>2015-01-25T10:52:11.000Z</time>
      </trkpt>
      <trkpt lat="47.52621" lon="6.6532">
        <ele>379</ele>
        <time>2015-01-25T10:52:12.000Z</time>
      </trkpt>
      <trkpt lat="47.52616" lon="6.65328">
        <ele>379</ele>
        <time>2015-01-25T10:52:13.000Z</time>
      </trkpt>
      <trkpt lat="47.52611" lon="6.65335">
        <ele>378</ele>
        <time>2015-01-25T10:52:14.000Z</time>
      </trkpt>
      <trkpt lat="47.52606" lon="6.65342">
        <ele>378</ele>
        <time>2015-01-25T10:52:15.000Z</time>
      </trkpt>
      <trkpt lat="47.52601" lon="6.65351">
        <ele>377</ele>
        <time>2015-01-25T10:52:16.000Z</time>
      </trkpt>
      <trkpt lat="47.52597" lon="6.65359">
        <ele>377</ele>
        <time>2015-01-25T10:52:17.000Z</time>
      </trkpt>
      <trkpt lat="47.52592" lon="6.65368">
        <ele>377</ele>
        <time>2015-01-25T10:52:18.000Z</time>
      </trkpt>
      <trkpt lat="47.52589" lon="6.65378">
        <ele>377</ele>
        <time>2015-01-25T10:52:19.000Z</time>
      </trkpt>
      <trkpt lat="47.52584" lon="6.65387">
        <ele>377</ele>
        <time>2015-01-25T10:52:20.000Z</time>
      </trkpt>
      <trkpt lat="47.52581" lon="6.65397">
        <ele>374</ele>
        <time>2015-01-25T10:52:21.000Z</time>
      </trkpt>
      <trkpt lat="47.52577" lon="6.65407">
        <ele>374</ele>
        <time>2015-01-25T10:52:22.000Z</time>
      </trkpt>
      <trkpt lat="47.52573" lon="6.65417">
        <ele>373</ele>
        <time>2015-01-25T10:52:23.000Z</time>
      </trkpt>
      <trkpt lat="47.52569" lon="6.65428">
        <ele>373</ele>
        <time>2015-01-25T10:52:24.000Z</time>
      </trkpt>
      <trkpt lat="47.52566" lon="6.65439">
        <ele>372</ele>
        <time>2015-01-25T10:52:25.000Z</time>
      </trkpt>
      <trkpt lat="47.52562" lon="6.6545">
        <ele>372</ele>
        <time>2015-01-25T10:52:26.000Z</time>
      </trkpt>
      <trkpt lat="47.52559" lon="6.65461">
        <ele>371</ele>
        <time>2015-01-25T10:52:27.000Z</time>
      </trkpt>
      <trkpt lat="47.52556" lon="6.65471">
        <ele>371</ele>
        <time>2015-01-25T10:52:28.000Z</time>
      </trkpt>
      <trkpt lat="47.52553" lon="6.65482">
        <ele>371</ele>
        <time>2015-01-25T10:52:29.000Z</time>
      </trkpt>
      <trkpt lat="47.5255" lon="6.65492">
        <ele>371</ele>
        <time>2015-01-25T10:52:30.000Z</time>
      </trkpt>
      <trkpt lat="47.52547" lon="6.65503">
        <ele>369</ele>
        <time>2015-01-25T10:52:31.000Z</time>
      </trkpt>
      <trkpt lat="47.52544" lon="6.65513">
        <ele>369</ele>
        <time>2015-01-25T10:52:32.000Z</time>
      </trkpt>
      <trkpt lat="47.5254" lon="6.65523">
        <ele>369</ele>
        <time>2015-01-25T10:52:33.000Z</time>
      </trkpt>
      <trkpt lat="47.52534" lon="6.65531">
        <ele>369</ele>
        <time>2015-01-25T10:52:34.000Z</time>
      </trkpt>
      <trkpt lat="47.52529" lon="6.65541">
        <ele>369</ele>
        <time>2015-01-25T10:52:35.000Z</time>
      </trkpt>
      <trkpt lat="47.52525" lon="6.6555">
        <ele>369</ele>
        <time>2015-01-25T10:52:36.000Z</time>
      </trkpt>
      <trkpt lat="47.5252" lon="6.65559">
        <ele>369</ele>
        <time>2015-01-25T10:52:37.000Z</time>
      </trkpt>
      <trkpt lat="47.52516" lon="6.65567">
        <ele>369</ele>
        <time>2015-01-25T10:52:38.000Z</time>
      </trkpt>
      <trkpt lat="47.5251" lon="6.65574">
        <ele>368</ele>
        <time>2015-01-25T10:52:39.000Z</time>
      </trkpt>
      <trkpt lat="47.52507" lon="6.65583">
        <ele>368</ele>
        <time>2015-01-25T10:52:40.000Z</time>
      </trkpt>
      <trkpt lat="47.52503" lon="6.65595">
        <ele>368</ele>
        <time>2015-01-25T10:52:41.000Z</time>
      </trkpt>
      <trkpt lat="47.52498" lon="6.65605">
        <ele>367</ele>
        <time>2015-01-25T10:52:42.000Z</time>
      </trkpt>
      <trkpt lat="47.52495" lon="6.65614">
        <ele>366</ele>
        <time>2015-01-25T10:52:43.000Z</time>
      </trkpt>
      <trkpt lat="47.52491" lon="6.65623">
        <ele>366</ele>
        <time>2015-01-25T10:52:44.000Z</time>
      </trkpt>
      <trkpt lat="47.52482" lon="6.65644">
        <ele>366</ele>
        <time>2015-01-25T10:52:47.000Z</time>
      </trkpt>
      <trkpt lat="47.52478" lon="6.65651">
        <ele>366</ele>
        <time>2015-01-25T10:52:48.000Z</time>
      </trkpt>
      <trkpt lat="47.52475" lon="6.6566">
        <ele>366</ele>
        <time>2015-01-25T10:52:49.000Z</time>
      </trkpt>
      <trkpt lat="47.52471" lon="6.65669">
        <ele>365</ele>
        <time>2015-01-25T10:52:50.000Z</time>
      </trkpt>
      <trkpt lat="47.52468" lon="6.65676">
        <ele>365</ele>
        <time>2015-01-25T10:52:51.000Z</time>
      </trkpt>
      <trkpt lat="47.52465" lon="6.65683">
        <ele>365</ele>
        <time>2015-01-25T10:52:51.999Z</time>
      </trkpt>
      <trkpt lat="47.52462" lon="6.65689">
        <ele>365</ele>
        <time>2015-01-25T10:52:53.000Z</time>
      </trkpt>
      <trkpt lat="47.52459" lon="6.65695">
        <ele>365</ele>
        <time>2015-01-25T10:52:54.000Z</time>
      </trkpt>
      <trkpt lat="47.52456" lon="6.65702">
        <ele>365</ele>
        <time>2015-01-25T10:52:55.000Z</time>
      </trkpt>
      <trkpt lat="47.52452" lon="6.65709">
        <ele>365</ele>
        <time>2015-01-25T10:52:56.000Z</time>
      </trkpt>
      <trkpt lat="47.52449" lon="6.65715">
        <ele>365</ele>
        <time>2015-01-25T10:52:56.999Z</time>
      </trkpt>
      <trkpt lat="47.52448" lon="6.6572">
        <ele>365</ele>
        <time>2015-01-25T10:52:57.999Z</time>
      </trkpt>
      <trkpt lat="47.52445" lon="6.65722">
        <ele>365</ele>
        <time>2015-01-25T10:52:59.000Z</time>
      </trkpt>
      <trkpt lat="47.52442" lon="6.6573">
        <ele>365</ele>
        <time>2015-01-25T10:53:00.000Z</time>
      </trkpt>
      <trkpt lat="47.52437" lon="6.65735">
        <ele>365</ele>
        <time>2015-01-25T10:53:01.000Z</time>
      </trkpt>
      <trkpt lat="47.52435" lon="6.65742">
        <ele>365</ele>
        <time>2015-01-25T10:53:02.000Z</time>
      </trkpt>
      <trkpt lat="47.52432" lon="6.65748">
        <ele>365</ele>
        <time>2015-01-25T10:53:03.000Z</time>
      </trkpt>
      <trkpt lat="47.5243" lon="6.65755">
        <ele>365</ele>
        <time>2015-01-25T10:53:04.000Z</time>
      </trkpt>
      <trkpt lat="47.52427" lon="6.65761">
        <ele>365</ele>
        <time>2015-01-25T10:53:05.000Z</time>
      </trkpt>
      <trkpt lat="47.52423" lon="6.65766">
        <ele>365</ele>
        <time>2015-01-25T10:53:06.000Z</time>
      </trkpt>
      <trkpt lat="47.5242" lon="6.65771">
        <ele>365</ele>
        <time>2015-01-25T10:53:07.000Z</time>
      </trkpt>
      <trkpt lat="47.52417" lon="6.65777">
        <ele>365</ele>
        <time>2015-01-25T10:53:08.000Z</time>
      </trkpt>
      <trkpt lat="47.52414" lon="6.65783">
        <ele>366</ele>
        <time>2015-01-25T10:53:09.000Z</time>
      </trkpt>
      <trkpt lat="47.52411" lon="6.65789">
        <ele>366</ele>
        <time>2015-01-25T10:53:10.000Z</time>
      </trkpt>
      <trkpt lat="47.52408" lon="6.65795">
        <ele>366</ele>
        <time>2015-01-25T10:53:11.000Z</time>
      </trkpt>
      <trkpt lat="47.52406" lon="6.65802">
        <ele>366</ele>
        <time>2015-01-25T10:53:12.000Z</time>
      </trkpt>
      <trkpt lat="47.52403" lon="6.65807">
        <ele>366</ele>
        <time>2015-01-25T10:53:13.000Z</time>
      </trkpt>
      <trkpt lat="47.524" lon="6.65812">
        <ele>366</ele>
        <time>2015-01-25T10:53:14.000Z</time>
      </trkpt>
      <trkpt lat="47.52397" lon="6.65818">
        <ele>366</ele>
        <time>2015-01-25T10:53:15.000Z</time>
      </trkpt>
      <trkpt lat="47.52395" lon="6.65824">
        <ele>366</ele>
        <time>2015-01-25T10:53:16.000Z</time>
      </trkpt>
      <trkpt lat="47.52392" lon="6.6583">
        <ele>366</ele>
        <time>2015-01-25T10:53:17.000Z</time>
      </trkpt>
      <trkpt lat="47.52389" lon="6.65836">
        <ele>367</ele>
        <time>2015-01-25T10:53:18.000Z</time>
      </trkpt>
      <trkpt lat="47.52386" lon="6.65842">
        <ele>367</ele>
        <time>2015-01-25T10:53:19.000Z</time>
      </trkpt>
      <trkpt lat="47.52382" lon="6.65848">
        <ele>367</ele>
        <time>2015-01-25T10:53:20.000Z</time>
      </trkpt>
      <trkpt lat="47.52379" lon="6.65854">
        <ele>367</ele>
        <time>2015-01-25T10:53:21.000Z</time>
      </trkpt>
      <trkpt lat="47.52376" lon="6.6586">
        <ele>367</ele>
        <time>2015-01-25T10:53:22.000Z</time>
      </trkpt>
      <trkpt lat="47.52373" lon="6.65866">
        <ele>367</ele>
        <time>2015-01-25T10:53:23.000Z</time>
      </trkpt>
      <trkpt lat="47.5237" lon="6.65873">
        <ele>367</ele>
        <time>2015-01-25T10:53:24.000Z</time>
      </trkpt>
      <trkpt lat="47.52367" lon="6.65879">
        <ele>367</ele>
        <time>2015-01-25T10:53:25.000Z</time>
      </trkpt>
      <trkpt lat="47.52365" lon="6.65886">
        <ele>367</ele>
        <time>2015-01-25T10:53:26.000Z</time>
      </trkpt>
      <trkpt lat="47.52361" lon="6.65891">
        <ele>367</ele>
        <time>2015-01-25T10:53:27.000Z</time>
      </trkpt>
      <trkpt lat="47.52358" lon="6.65896">
        <ele>367</ele>
        <time>2015-01-25T10:53:28.000Z</time>
      </trkpt>
      <trkpt lat="47.52356" lon="6.65903">
        <ele>367</ele>
        <time>2015-01-25T10:53:29.000Z</time>
      </trkpt>
      <trkpt lat="47.52353" lon="6.65908">
        <ele>367</ele>
        <time>2015-01-25T10:53:30.000Z</time>
      </trkpt>
      <trkpt lat="47.52351" lon="6.65912">
        <ele>367</ele>
        <time>2015-01-25T10:53:31.000Z</time>
      </trkpt>
      <trkpt lat="47.52349" lon="6.65916">
        <ele>367</ele>
        <time>2015-01-25T10:53:32.000Z</time>
      </trkpt>
      <trkpt lat="47.52347" lon="6.6592">
        <ele>368</ele>
        <time>2015-01-25T10:53:33.000Z</time>
      </trkpt>
      <trkpt lat="47.52345" lon="6.65924">
        <ele>368</ele>
        <time>2015-01-25T10:53:34.000Z</time>
      </trkpt>
      <trkpt lat="47.52343" lon="6.65927">
        <ele>368</ele>
        <time>2015-01-25T10:53:35.000Z</time>
      </trkpt>
      <trkpt lat="47.5234" lon="6.65932">
        <ele>368</ele>
        <time>2015-01-25T10:53:36.000Z</time>
      </trkpt>
      <trkpt lat="47.52337" lon="6.65936">
        <ele>368</ele>
        <time>2015-01-25T10:53:37.000Z</time>
      </trkpt>
      <trkpt lat="47.52334" lon="6.65942">
        <ele>368</ele>
        <time>2015-01-25T10:53:38.000Z</time>
      </trkpt>
      <trkpt lat="47.52331" lon="6.65947">
        <ele>368</ele>
        <time>2015-01-25T10:53:39.000Z</time>
      </trkpt>
      <trkpt lat="47.52328" lon="6.65952">
        <ele>368</ele>
        <time>2015-01-25T10:53:40.000Z</time>
      </trkpt>
      <trkpt lat="47.52325" lon="6.65958">
        <ele>368</ele>
        <time>2015-01-25T10:53:41.000Z</time>
      </trkpt>
      <trkpt lat="47.52322" lon="6.65963">
        <ele>368</ele>
        <time>2015-01-25T10:53:42.000Z</time>
      </trkpt>
      <trkpt lat="47.52319" lon="6.65968">
        <ele>368</ele>
        <time>2015-01-25T10:53:43.000Z</time>
      </trkpt>
      <trkpt lat="47.52316" lon="6.65974">
        <ele>368</ele>
        <time>2015-01-25T10:53:44.000Z</time>
      </trkpt>
      <trkpt lat="47.52308" lon="6.65987">
        <ele>369</ele>
        <time>2015-01-25T10:53:47.000Z</time>
      </trkpt>
      <trkpt lat="47.52305" lon="6.65994">
        <ele>369</ele>
        <time>2015-01-25T10:53:48.000Z</time>
      </trkpt>
      <trkpt lat="47.52303" lon="6.65999">
        <ele>369</ele>
        <time>2015-01-25T10:53:49.000Z</time>
      </trkpt>
      <trkpt lat="47.523" lon="6.66005">
        <ele>371</ele>
        <time>2015-01-25T10:53:50.000Z</time>
      </trkpt>
      <trkpt lat="47.52296" lon="6.66011">
        <ele>371</ele>
        <time>2015-01-25T10:53:51.000Z</time>
      </trkpt>
      <trkpt lat="47.52293" lon="6.66018">
        <ele>371</ele>
        <time>2015-01-25T10:53:52.000Z</time>
      </trkpt>
      <trkpt lat="47.5229" lon="6.66024">
        <ele>371</ele>
        <time>2015-01-25T10:53:53.000Z</time>
      </trkpt>
      <trkpt lat="47.52288" lon="6.66029">
        <ele>371</ele>
        <time>2015-01-25T10:53:54.000Z</time>
      </trkpt>
      <trkpt lat="47.52285" lon="6.66034">
        <ele>371</ele>
        <time>2015-01-25T10:53:54.999Z</time>
      </trkpt>
      <trkpt lat="47.52282" lon="6.66039">
        <ele>371</ele>
        <time>2015-01-25T10:53:56.000Z</time>
      </trkpt>
      <trkpt lat="47.52279" lon="6.66043">
        <ele>371</ele>
        <time>2015-01-25T10:53:57.000Z</time>
      </trkpt>
      <trkpt lat="47.52276" lon="6.66046">
        <ele>371</ele>
        <time>2015-01-25T10:53:58.000Z</time>
      </trkpt>
      <trkpt lat="47.52273" lon="6.66051">
        <ele>371</ele>
        <time>2015-01-25T10:53:59.000Z</time>
      </trkpt>
      <trkpt lat="47.52269" lon="6.66055">
        <ele>372</ele>
        <time>2015-01-25T10:54:00.000Z</time>
      </trkpt>
      <trkpt lat="47.52266" lon="6.6606">
        <ele>372</ele>
        <time>2015-01-25T10:54:01.000Z</time>
      </trkpt>
      <trkpt lat="47.52263" lon="6.66065">
        <ele>372</ele>
        <time>2015-01-25T10:54:02.000Z</time>
      </trkpt>
      <trkpt lat="47.52261" lon="6.66069">
        <ele>372</ele>
        <time>2015-01-25T10:54:03.000Z</time>
      </trkpt>
      <trkpt lat="47.52259" lon="6.66072">
        <ele>372</ele>
        <time>2015-01-25T10:54:04.000Z</time>
      </trkpt>
      <trkpt lat="47.52257" lon="6.66075">
        <ele>372</ele>
        <time>2015-01-25T10:54:05.000Z</time>
      </trkpt>
      <trkpt lat="47.52254" lon="6.6608">
        <ele>373</ele>
        <time>2015-01-25T10:54:07.000Z</time>
      </trkpt>
      <trkpt lat="47.52254" lon="6.66081">
        <ele>373</ele>
        <time>2015-01-25T10:54:08.000Z</time>
      </trkpt>
      <trkpt lat="47.52254" lon="6.66086">
        <ele>373</ele>
        <time>2015-01-25T10:54:10.000Z</time>
      </trkpt>
      <trkpt lat="47.52254" lon="6.66089">
        <ele>373</ele>
        <time>2015-01-25T10:54:11.000Z</time>
      </trkpt>
      <trkpt lat="47.52254" lon="6.66092">
        <ele>373</ele>
        <time>2015-01-25T10:54:12.000Z</time>
      </trkpt>
      <trkpt lat="47.52255" lon="6.66095">
        <ele>374</ele>
        <time>2015-01-25T10:54:13.000Z</time>
      </trkpt>
      <trkpt lat="47.52255" lon="6.66099">
        <ele>374</ele>
        <time>2015-01-25T10:54:14.000Z</time>
      </trkpt>
      <trkpt lat="47.52255" lon="6.66102">
        <ele>374</ele>
        <time>2015-01-25T10:54:15.000Z</time>
      </trkpt>
      <trkpt lat="47.52254" lon="6.66105">
        <ele>374</ele>
        <time>2015-01-25T10:54:16.000Z</time>
      </trkpt>
      <trkpt lat="47.52253" lon="6.66109">
        <ele>374</ele>
        <time>2015-01-25T10:54:17.000Z</time>
      </trkpt>
      <trkpt lat="47.52251" lon="6.66112">
        <ele>374</ele>
        <time>2015-01-25T10:54:18.000Z</time>
      </trkpt>
      <trkpt lat="47.52249" lon="6.66116">
        <ele>375</ele>
        <time>2015-01-25T10:54:19.000Z</time>
      </trkpt>
      <trkpt lat="47.52247" lon="6.6612">
        <ele>375</ele>
        <time>2015-01-25T10:54:20.000Z</time>
      </trkpt>
      <trkpt lat="47.52244" lon="6.66124">
        <ele>375</ele>
        <time>2015-01-25T10:54:21.000Z</time>
      </trkpt>
      <trkpt lat="47.52241" lon="6.66128">
        <ele>375</ele>
        <time>2015-01-25T10:54:22.000Z</time>
      </trkpt>
      <trkpt lat="47.52238" lon="6.66131">
        <ele>375</ele>
        <time>2015-01-25T10:54:23.000Z</time>
      </trkpt>
      <trkpt lat="47.52235" lon="6.66135">
        <ele>375</ele>
        <time>2015-01-25T10:54:24.000Z</time>
      </trkpt>
      <trkpt lat="47.52231" lon="6.66138">
        <ele>375</ele>
        <time>2015-01-25T10:54:25.000Z</time>
      </trkpt>
      <trkpt lat="47.52228" lon="6.66142">
        <ele>375</ele>
        <time>2015-01-25T10:54:26.000Z</time>
      </trkpt>
      <trkpt lat="47.52225" lon="6.66146">
        <ele>376</ele>
        <time>2015-01-25T10:54:27.000Z</time>
      </trkpt>
      <trkpt lat="47.52221" lon="6.66151">
        <ele>376</ele>
        <time>2015-01-25T10:54:28.000Z</time>
      </trkpt>
      <trkpt lat="47.52218" lon="6.66155">
        <ele>376</ele>
        <time>2015-01-25T10:54:29.000Z</time>
      </trkpt>
      <trkpt lat="47.52215" lon="6.66158">
        <ele>376</ele>
        <time>2015-01-25T10:54:30.000Z</time>
      </trkpt>
      <trkpt lat="47.52211" lon="6.66162">
        <ele>376</ele>
        <time>2015-01-25T10:54:31.000Z</time>
      </trkpt>
      <trkpt lat="47.52208" lon="6.66164">
        <ele>376</ele>
        <time>2015-01-25T10:54:32.000Z</time>
      </trkpt>
      <trkpt lat="47.52204" lon="6.66167">
        <ele>378</ele>
        <time>2015-01-25T10:54:33.000Z</time>
      </trkpt>
      <trkpt lat="47.52201" lon="6.6617">
        <ele>378</ele>
        <time>2015-01-25T10:54:34.000Z</time>
      </trkpt>
      <trkpt lat="47.52198" lon="6.66174">
        <ele>378</ele>
        <time>2015-01-25T10:54:35.000Z</time>
      </trkpt>
      <trkpt lat="47.52195" lon="6.66178">
        <ele>378</ele>
        <time>2015-01-25T10:54:36.000Z</time>
      </trkpt>
      <trkpt lat="47.52193" lon="6.66182">
        <ele>378</ele>
        <time>2015-01-25T10:54:37.000Z</time>
      </trkpt>
      <trkpt lat="47.5219" lon="6.66186">
        <ele>378</ele>
        <time>2015-01-25T10:54:38.000Z</time>
      </trkpt>
      <trkpt lat="47.52188" lon="6.6619">
        <ele>378</ele>
        <time>2015-01-25T10:54:39.000Z</time>
      </trkpt>
      <trkpt lat="47.52185" lon="6.66194">
        <ele>378</ele>
        <time>2015-01-25T10:54:40.000Z</time>
      </trkpt>
      <trkpt lat="47.52183" lon="6.66198">
        <ele>378</ele>
        <time>2015-01-25T10:54:41.000Z</time>
      </trkpt>
      <trkpt lat="47.52181" lon="6.66203">
        <ele>378</ele>
        <time>2015-01-25T10:54:42.000Z</time>
      </trkpt>
      <trkpt lat="47.52179" lon="6.66207">
        <ele>378</ele>
        <time>2015-01-25T10:54:43.000Z</time>
      </trkpt>
      <trkpt lat="47.52177" lon="6.66212">
        <ele>378</ele>
        <time>2015-01-25T10:54:44.000Z</time>
      </trkpt>
      <trkpt lat="47.5217" lon="6.66222">
        <ele>378</ele>
        <time>2015-01-25T10:54:47.000Z</time>
      </trkpt>
      <trkpt lat="47.52168" lon="6.66225">
        <ele>378</ele>
        <time>2015-01-25T10:54:48.000Z</time>
      </trkpt>
      <trkpt lat="47.52165" lon="6.66229">
        <ele>378</ele>
        <time>2015-01-25T10:54:49.000Z</time>
      </trkpt>
      <trkpt lat="47.52163" lon="6.66232">
        <ele>378</ele>
        <time>2015-01-25T10:54:50.000Z</time>
      </trkpt>
      <trkpt lat="47.5216" lon="6.66235">
        <ele>379</ele>
        <time>2015-01-25T10:54:51.000Z</time>
      </trkpt>
      <trkpt lat="47.52158" lon="6.66239">
        <ele>379</ele>
        <time>2015-01-25T10:54:52.000Z</time>
      </trkpt>
      <trkpt lat="47.52155" lon="6.66242">
        <ele>379</ele>
        <time>2015-01-25T10:54:53.000Z</time>
      </trkpt>
      <trkpt lat="47.52152" lon="6.66245">
        <ele>378</ele>
        <time>2015-01-25T10:54:54.000Z</time>
      </trkpt>
      <trkpt lat="47.52149" lon="6.66248">
        <ele>378</ele>
        <time>2015-01-25T10:54:55.000Z</time>
      </trkpt>
      <trkpt lat="47.52147" lon="6.66251">
        <ele>378</ele>
        <time>2015-01-25T10:54:56.000Z</time>
      </trkpt>
      <trkpt lat="47.52144" lon="6.66255">
        <ele>378</ele>
        <time>2015-01-25T10:54:57.000Z</time>
      </trkpt>
      <trkpt lat="47.52142" lon="6.66259">
        <ele>378</ele>
        <time>2015-01-25T10:54:58.000Z</time>
      </trkpt>
      <trkpt lat="47.5214" lon="6.66263">
        <ele>378</ele>
        <time>2015-01-25T10:54:59.000Z</time>
      </trkpt>
      <trkpt lat="47.52137" lon="6.66268">
        <ele>378</ele>
        <time>2015-01-25T10:55:00.000Z</time>
      </trkpt>
      <trkpt lat="47.52134" lon="6.66272">
        <ele>378</ele>
        <time>2015-01-25T10:55:01.000Z</time>
      </trkpt>
      <trkpt lat="47.52131" lon="6.66277">
        <ele>378</ele>
        <time>2015-01-25T10:55:02.000Z</time>
      </trkpt>
      <trkpt lat="47.52128" lon="6.66282">
        <ele>378</ele>
        <time>2015-01-25T10:55:03.000Z</time>
      </trkpt>
      <trkpt lat="47.52125" lon="6.66286">
        <ele>378</ele>
        <time>2015-01-25T10:55:04.000Z</time>
      </trkpt>
      <trkpt lat="47.52122" lon="6.6629">
        <ele>378</ele>
        <time>2015-01-25T10:55:05.000Z</time>
      </trkpt>
      <trkpt lat="47.52119" lon="6.66294">
        <ele>378</ele>
        <time>2015-01-25T10:55:06.000Z</time>
      </trkpt>
      <trkpt lat="47.52117" lon="6.66298">
        <ele>378</ele>
        <time>2015-01-25T10:55:07.000Z</time>
      </trkpt>
      <trkpt lat="47.52114" lon="6.66301">
        <ele>378</ele>
        <time>2015-01-25T10:55:08.000Z</time>
      </trkpt>
      <trkpt lat="47.52112" lon="6.66305">
        <ele>378</ele>
        <time>2015-01-25T10:55:09.000Z</time>
      </trkpt>
      <trkpt lat="47.5211" lon="6.6631">
        <ele>378</ele>
        <time>2015-01-25T10:55:10.000Z</time>
      </trkpt>
      <trkpt lat="47.52108" lon="6.66314">
        <ele>378</ele>
        <time>2015-01-25T10:55:11.000Z</time>
      </trkpt>
      <trkpt lat="47.52106" lon="6.66318">
        <ele>377</ele>
        <time>2015-01-25T10:55:12.000Z</time>
      </trkpt>
      <trkpt lat="47.52105" lon="6.66322">
        <ele>377</ele>
        <time>2015-01-25T10:55:13.000Z</time>
      </trkpt>
      <trkpt lat="47.52104" lon="6.66326">
        <ele>377</ele>
        <time>2015-01-25T10:55:14.000Z</time>
      </trkpt>
      <trkpt lat="47.52104" lon="6.66331">
        <ele>377</ele>
        <time>2015-01-25T10:55:15.000Z</time>
      </trkpt>
      <trkpt lat="47.52104" lon="6.66336">
        <ele>377</ele>
        <time>2015-01-25T10:55:16.000Z</time>
      </trkpt>
      <trkpt lat="47.52105" lon="6.66342">
        <ele>377</ele>
        <time>2015-01-25T10:55:17.000Z</time>
      </trkpt>
      <trkpt lat="47.52105" lon="6.66347">
        <ele>377</ele>
        <time>2015-01-25T10:55:18.000Z</time>
      </trkpt>
      <trkpt lat="47.52106" lon="6.66353">
        <ele>377</ele>
        <time>2015-01-25T10:55:19.000Z</time>
      </trkpt>
      <trkpt lat="47.52106" lon="6.66359">
        <ele>377</ele>
        <time>2015-01-25T10:55:20.000Z</time>
      </trkpt>
      <trkpt lat="47.52107" lon="6.66365">
        <ele>377</ele>
        <time>2015-01-25T10:55:21.000Z</time>
      </trkpt>
      <trkpt lat="47.52108" lon="6.66372">
        <ele>377</ele>
        <time>2015-01-25T10:55:22.000Z</time>
      </trkpt>
      <trkpt lat="47.52109" lon="6.66378">
        <ele>377</ele>
        <time>2015-01-25T10:55:23.000Z</time>
      </trkpt>
      <trkpt lat="47.5211" lon="6.66384">
        <ele>377</ele>
        <time>2015-01-25T10:55:24.000Z</time>
      </trkpt>
      <trkpt lat="47.52111" lon="6.66391">
        <ele>377</ele>
        <time>2015-01-25T10:55:25.000Z</time>
      </trkpt>
      <trkpt lat="47.52112" lon="6.66397">
        <ele>377</ele>
        <time>2015-01-25T10:55:26.000Z</time>
      </trkpt>
      <trkpt lat="47.52113" lon="6.66402">
        <ele>377</ele>
        <time>2015-01-25T10:55:27.000Z</time>
      </trkpt>
      <trkpt lat="47.52113" lon="6.66408">
        <ele>377</ele>
        <time>2015-01-25T10:55:28.000Z</time>
      </trkpt>
      <trkpt lat="47.52114" lon="6.66414">
        <ele>377</ele>
        <time>2015-01-25T10:55:29.000Z</time>
      </trkpt>
      <trkpt lat="47.52115" lon="6.6642">
        <ele>377</ele>
        <time>2015-01-25T10:55:30.000Z</time>
      </trkpt>
      <trkpt lat="47.52115" lon="6.66426">
        <ele>377</ele>
        <time>2015-01-25T10:55:31.000Z</time>
      </trkpt>
      <trkpt lat="47.52116" lon="6.66432">
        <ele>377</ele>
        <time>2015-01-25T10:55:32.000Z</time>
      </trkpt>
      <trkpt lat="47.52117" lon="6.66438">
        <ele>378</ele>
        <time>2015-01-25T10:55:33.000Z</time>
      </trkpt>
      <trkpt lat="47.52117" lon="6.66445">
        <ele>378</ele>
        <time>2015-01-25T10:55:34.000Z</time>
      </trkpt>
      <trkpt lat="47.52117" lon="6.66451">
        <ele>378</ele>
        <time>2015-01-25T10:55:35.000Z</time>
      </trkpt>
      <trkpt lat="47.52117" lon="6.66457">
        <ele>378</ele>
        <time>2015-01-25T10:55:36.000Z</time>
      </trkpt>
      <trkpt lat="47.52117" lon="6.66462">
        <ele>378</ele>
        <time>2015-01-25T10:55:37.000Z</time>
      </trkpt>
      <trkpt lat="47.52116" lon="6.66468">
        <ele>378</ele>
        <time>2015-01-25T10:55:38.000Z</time>
      </trkpt>
      <trkpt lat="47.52116" lon="6.66474">
        <ele>378</ele>
        <time>2015-01-25T10:55:39.000Z</time>
      </trkpt>
      <trkpt lat="47.52116" lon="6.66479">
        <ele>378</ele>
        <time>2015-01-25T10:55:40.000Z</time>
      </trkpt>
      <trkpt lat="47.52116" lon="6.66485">
        <ele>378</ele>
        <time>2015-01-25T10:55:41.000Z</time>
      </trkpt>
      <trkpt lat="47.52115" lon="6.6649">
        <ele>378</ele>
        <time>2015-01-25T10:55:42.000Z</time>
      </trkpt>
      <trkpt lat="47.52115" lon="6.66496">
        <ele>378</ele>
        <time>2015-01-25T10:55:43.000Z</time>
      </trkpt>
      <trkpt lat="47.52114" lon="6.66502">
        <ele>378</ele>
        <time>2015-01-25T10:55:44.000Z</time>
      </trkpt>
      <trkpt lat="47.52112" lon="6.66518">
        <ele>378</ele>
        <time>2015-01-25T10:55:47.000Z</time>
      </trkpt>
      <trkpt lat="47.52111" lon="6.66523">
        <ele>378</ele>
        <time>2015-01-25T10:55:48.000Z</time>
      </trkpt>
      <trkpt lat="47.52111" lon="6.66529">
        <ele>378</ele>
        <time>2015-01-25T10:55:49.000Z</time>
      </trkpt>
      <trkpt lat="47.52111" lon="6.66535">
        <ele>378</ele>
        <time>2015-01-25T10:55:50.000Z</time>
      </trkpt>
      <trkpt lat="47.52111" lon="6.66541">
        <ele>378</ele>
        <time>2015-01-25T10:55:51.000Z</time>
      </trkpt>
      <trkpt lat="47.52111" lon="6.66549">
        <ele>378</ele>
        <time>2015-01-25T10:55:52.000Z</time>
      </trkpt>
      <trkpt lat="47.5211" lon="6.66555">
        <ele>378</ele>
        <time>2015-01-25T10:55:53.000Z</time>
      </trkpt>
      <trkpt lat="47.5211" lon="6.66561">
        <ele>378</ele>
        <time>2015-01-25T10:55:54.000Z</time>
      </trkpt>
      <trkpt lat="47.5211" lon="6.66568">
        <ele>378</ele>
        <time>2015-01-25T10:55:55.000Z</time>
      </trkpt>
      <trkpt lat="47.52109" lon="6.66574">
        <ele>378</ele>
        <time>2015-01-25T10:55:56.000Z</time>
      </trkpt>
      <trkpt lat="47.52109" lon="6.6658">
        <ele>377</ele>
        <time>2015-01-25T10:55:57.000Z</time>
      </trkpt>
      <trkpt lat="47.52109" lon="6.66586">
        <ele>377</ele>
        <time>2015-01-25T10:55:58.000Z</time>
      </trkpt>
      <trkpt lat="47.52109" lon="6.66593">
        <ele>378</ele>
        <time>2015-01-25T10:55:59.000Z</time>
      </trkpt>
      <trkpt lat="47.52109" lon="6.66599">
        <ele>378</ele>
        <time>2015-01-25T10:56:00.000Z</time>
      </trkpt>
      <trkpt lat="47.52109" lon="6.66605">
        <ele>378</ele>
        <time>2015-01-25T10:56:01.000Z</time>
      </trkpt>
      <trkpt lat="47.52109" lon="6.66612">
        <ele>378</ele>
        <time>2015-01-25T10:56:02.000Z</time>
      </trkpt>
      <trkpt lat="47.52109" lon="6.66618">
        <ele>378</ele>
        <time>2015-01-25T10:56:03.000Z</time>
      </trkpt>
      <trkpt lat="47.52109" lon="6.66625">
        <ele>378</ele>
        <time>2015-01-25T10:56:04.000Z</time>
      </trkpt>
      <trkpt lat="47.52109" lon="6.66631">
        <ele>378</ele>
        <time>2015-01-25T10:56:05.000Z</time>
      </trkpt>
      <trkpt lat="47.5211" lon="6.66638">
        <ele>378</ele>
        <time>2015-01-25T10:56:06.000Z</time>
      </trkpt>
      <trkpt lat="47.5211" lon="6.66645">
        <ele>378</ele>
        <time>2015-01-25T10:56:07.000Z</time>
      </trkpt>
      <trkpt lat="47.5211" lon="6.66651">
        <ele>378</ele>
        <time>2015-01-25T10:56:08.000Z</time>
      </trkpt>
      <trkpt lat="47.5211" lon="6.66658">
        <ele>378</ele>
        <time>2015-01-25T10:56:09.000Z</time>
      </trkpt>
      <trkpt lat="47.5211" lon="6.66665">
        <ele>378</ele>
        <time>2015-01-25T10:56:10.000Z</time>
      </trkpt>
      <trkpt lat="47.5211" lon="6.66671">
        <ele>377</ele>
        <time>2015-01-25T10:56:11.000Z</time>
      </trkpt>
      <trkpt lat="47.5211" lon="6.66678">
        <ele>377</ele>
        <time>2015-01-25T10:56:12.000Z</time>
      </trkpt>
      <trkpt lat="47.52109" lon="6.66685">
        <ele>377</ele>
        <time>2015-01-25T10:56:13.000Z</time>
      </trkpt>
      <trkpt lat="47.52109" lon="6.66693">
        <ele>377</ele>
        <time>2015-01-25T10:56:14.000Z</time>
      </trkpt>
      <trkpt lat="47.52109" lon="6.667">
        <ele>377</ele>
        <time>2015-01-25T10:56:15.000Z</time>
      </trkpt>
      <trkpt lat="47.52109" lon="6.66707">
        <ele>377</ele>
        <time>2015-01-25T10:56:16.000Z</time>
      </trkpt>
      <trkpt lat="47.52109" lon="6.66714">
        <ele>377</ele>
        <time>2015-01-25T10:56:17.000Z</time>
      </trkpt>
      <trkpt lat="47.52109" lon="6.66721">
        <ele>377</ele>
        <time>2015-01-25T10:56:18.000Z</time>
      </trkpt>
      <trkpt lat="47.52109" lon="6.66727">
        <ele>377</ele>
        <time>2015-01-25T10:56:19.000Z</time>
      </trkpt>
      <trkpt lat="47.52108" lon="6.66734">
        <ele>377</ele>
        <time>2015-01-25T10:56:20.000Z</time>
      </trkpt>
      <trkpt lat="47.52108" lon="6.66742">
        <ele>377</ele>
        <time>2015-01-25T10:56:21.000Z</time>
      </trkpt>
      <trkpt lat="47.52108" lon="6.66749">
        <ele>377</ele>
        <time>2015-01-25T10:56:22.000Z</time>
      </trkpt>
      <trkpt lat="47.52107" lon="6.66755">
        <ele>377</ele>
        <time>2015-01-25T10:56:23.000Z</time>
      </trkpt>
      <trkpt lat="47.52107" lon="6.66761">
        <ele>377</ele>
        <time>2015-01-25T10:56:24.000Z</time>
      </trkpt>
      <trkpt lat="47.52107" lon="6.66768">
        <ele>377</ele>
        <time>2015-01-25T10:56:25.000Z</time>
      </trkpt>
      <trkpt lat="47.52107" lon="6.66775">
        <ele>377</ele>
        <time>2015-01-25T10:56:26.000Z</time>
      </trkpt>
      <trkpt lat="47.52106" lon="6.66781">
        <ele>377</ele>
        <time>2015-01-25T10:56:27.000Z</time>
      </trkpt>
      <trkpt lat="47.52106" lon="6.66789">
        <ele>377</ele>
        <time>2015-01-25T10:56:28.000Z</time>
      </trkpt>
      <trkpt lat="47.52106" lon="6.66795">
        <ele>377</ele>
        <time>2015-01-25T10:56:29.000Z</time>
      </trkpt>
      <trkpt lat="47.52106" lon="6.66803">
        <ele>377</ele>
        <time>2015-01-25T10:56:30.000Z</time>
      </trkpt>
      <trkpt lat="47.52106" lon="6.6681">
        <ele>377</ele>
        <time>2015-01-25T10:56:31.000Z</time>
      </trkpt>
      <trkpt lat="47.52106" lon="6.66817">
        <ele>377</ele>
        <time>2015-01-25T10:56:32.000Z</time>
      </trkpt>
      <trkpt lat="47.52106" lon="6.66824">
        <ele>376</ele>
        <time>2015-01-25T10:56:33.000Z</time>
      </trkpt>
      <trkpt lat="47.52107" lon="6.66832">
        <ele>376</ele>
        <time>2015-01-25T10:56:34.000Z</time>
      </trkpt>
      <trkpt lat="47.52107" lon="6.6684">
        <ele>376</ele>
        <time>2015-01-25T10:56:35.000Z</time>
      </trkpt>
      <trkpt lat="47.52107" lon="6.66849">
        <ele>376</ele>
        <time>2015-01-25T10:56:36.000Z</time>
      </trkpt>
      <trkpt lat="47.52107" lon="6.66856">
        <ele>376</ele>
        <time>2015-01-25T10:56:37.000Z</time>
      </trkpt>
      <trkpt lat="47.52107" lon="6.66865">
        <ele>376</ele>
        <time>2015-01-25T10:56:38.000Z</time>
      </trkpt>
      <trkpt lat="47.52108" lon="6.66873">
        <ele>376</ele>
        <time>2015-01-25T10:56:39.000Z</time>
      </trkpt>
      <trkpt lat="47.52108" lon="6.6688">
        <ele>376</ele>
        <time>2015-01-25T10:56:40.000Z</time>
      </trkpt>
      <trkpt lat="47.52108" lon="6.66888">
        <ele>376</ele>
        <time>2015-01-25T10:56:41.000Z</time>
      </trkpt>
      <trkpt lat="47.52109" lon="6.66895">
        <ele>376</ele>
        <time>2015-01-25T10:56:42.000Z</time>
      </trkpt>
      <trkpt lat="47.52109" lon="6.66902">
        <ele>376</ele>
        <time>2015-01-25T10:56:43.000Z</time>
      </trkpt>
      <trkpt lat="47.5211" lon="6.6691">
        <ele>376</ele>
        <time>2015-01-25T10:56:44.000Z</time>
      </trkpt>
      <trkpt lat="47.52111" lon="6.66928">
        <ele>375</ele>
        <time>2015-01-25T10:56:47.000Z</time>
      </trkpt>
      <trkpt lat="47.52111" lon="6.66936">
        <ele>375</ele>
        <time>2015-01-25T10:56:48.000Z</time>
      </trkpt>
      <trkpt lat="47.52111" lon="6.66944">
        <ele>375</ele>
        <time>2015-01-25T10:56:49.000Z</time>
      </trkpt>
      <trkpt lat="47.52111" lon="6.66951">
        <ele>375</ele>
        <time>2015-01-25T10:56:50.000Z</time>
      </trkpt>
      <trkpt lat="47.52111" lon="6.66959">
        <ele>375</ele>
        <time>2015-01-25T10:56:51.000Z</time>
      </trkpt>
      <trkpt lat="47.52112" lon="6.66966">
        <ele>375</ele>
        <time>2015-01-25T10:56:52.000Z</time>
      </trkpt>
      <trkpt lat="47.52113" lon="6.66973">
        <ele>375</ele>
        <time>2015-01-25T10:56:53.000Z</time>
      </trkpt>
      <trkpt lat="47.52114" lon="6.6698">
        <ele>375</ele>
        <time>2015-01-25T10:56:54.000Z</time>
      </trkpt>
      <trkpt lat="47.52115" lon="6.66989">
        <ele>375</ele>
        <time>2015-01-25T10:56:55.000Z</time>
      </trkpt>
      <trkpt lat="47.52116" lon="6.66995">
        <ele>375</ele>
        <time>2015-01-25T10:56:56.000Z</time>
      </trkpt>
      <trkpt lat="47.52118" lon="6.67003">
        <ele>374</ele>
        <time>2015-01-25T10:56:57.000Z</time>
      </trkpt>
      <trkpt lat="47.52119" lon="6.67009">
        <ele>374</ele>
        <time>2015-01-25T10:56:58.000Z</time>
      </trkpt>
      <trkpt lat="47.52121" lon="6.67017">
        <ele>374</ele>
        <time>2015-01-25T10:56:59.000Z</time>
      </trkpt>
      <trkpt lat="47.52122" lon="6.67025">
        <ele>374</ele>
        <time>2015-01-25T10:57:00.000Z</time>
      </trkpt>
      <trkpt lat="47.52124" lon="6.67032">
        <ele>374</ele>
        <time>2015-01-25T10:57:01.000Z</time>
      </trkpt>
      <trkpt lat="47.52126" lon="6.67039">
        <ele>374</ele>
        <time>2015-01-25T10:57:02.000Z</time>
      </trkpt>
      <trkpt lat="47.52127" lon="6.67047">
        <ele>374</ele>
        <time>2015-01-25T10:57:03.000Z</time>
      </trkpt>
      <trkpt lat="47.52128" lon="6.67055">
        <ele>374</ele>
        <time>2015-01-25T10:57:04.000Z</time>
      </trkpt>
      <trkpt lat="47.5213" lon="6.67062">
        <ele>374</ele>
        <time>2015-01-25T10:57:05.000Z</time>
      </trkpt>
      <trkpt lat="47.52131" lon="6.6707">
        <ele>374</ele>
        <time>2015-01-25T10:57:06.000Z</time>
      </trkpt>
      <trkpt lat="47.52133" lon="6.67077">
        <ele>373</ele>
        <time>2015-01-25T10:57:07.000Z</time>
      </trkpt>
      <trkpt lat="47.52134" lon="6.67085">
        <ele>373</ele>
        <time>2015-01-25T10:57:08.000Z</time>
      </trkpt>
      <trkpt lat="47.52136" lon="6.67092">
        <ele>373</ele>
        <time>2015-01-25T10:57:09.000Z</time>
      </trkpt>
      <trkpt lat="47.52138" lon="6.67099">
        <ele>372</ele>
        <time>2015-01-25T10:57:10.000Z</time>
      </trkpt>
      <trkpt lat="47.52139" lon="6.67107">
        <ele>372</ele>
        <time>2015-01-25T10:57:11.000Z</time>
      </trkpt>
      <trkpt lat="47.52141" lon="6.67113">
        <ele>372</ele>
        <time>2015-01-25T10:57:12.000Z</time>
      </trkpt>
      <trkpt lat="47.52142" lon="6.67121">
        <ele>372</ele>
        <time>2015-01-25T10:57:13.000Z</time>
      </trkpt>
      <trkpt lat="47.52144" lon="6.67128">
        <ele>372</ele>
        <time>2015-01-25T10:57:14.000Z</time>
      </trkpt>
      <trkpt lat="47.52145" lon="6.67135">
        <ele>372</ele>
        <time>2015-01-25T10:57:15.000Z</time>
      </trkpt>
      <trkpt lat="47.52146" lon="6.67143">
        <ele>372</ele>
        <time>2015-01-25T10:57:16.000Z</time>
      </trkpt>
      <trkpt lat="47.52148" lon="6.6715">
        <ele>372</ele>
        <time>2015-01-25T10:57:17.000Z</time>
      </trkpt>
      <trkpt lat="47.52149" lon="6.67157">
        <ele>372</ele>
        <time>2015-01-25T10:57:18.000Z</time>
      </trkpt>
      <trkpt lat="47.52151" lon="6.67164">
        <ele>372</ele>
        <time>2015-01-25T10:57:19.000Z</time>
      </trkpt>
      <trkpt lat="47.52153" lon="6.67169">
        <ele>372</ele>
        <time>2015-01-25T10:57:20.000Z</time>
      </trkpt>
      <trkpt lat="47.52154" lon="6.67176">
        <ele>372</ele>
        <time>2015-01-25T10:57:21.000Z</time>
      </trkpt>
      <trkpt lat="47.52156" lon="6.67183">
        <ele>372</ele>
        <time>2015-01-25T10:57:22.000Z</time>
      </trkpt>
      <trkpt lat="47.52157" lon="6.67189">
        <ele>372</ele>
        <time>2015-01-25T10:57:23.000Z</time>
      </trkpt>
      <trkpt lat="47.52158" lon="6.67196">
        <ele>372</ele>
        <time>2015-01-25T10:57:24.000Z</time>
      </trkpt>
      <trkpt lat="47.5216" lon="6.67203">
        <ele>372</ele>
        <time>2015-01-25T10:57:25.000Z</time>
      </trkpt>
      <trkpt lat="47.52161" lon="6.6721">
        <ele>372</ele>
        <time>2015-01-25T10:57:26.000Z</time>
      </trkpt>
      <trkpt lat="47.52162" lon="6.67216">
        <ele>372</ele>
        <time>2015-01-25T10:57:27.000Z</time>
      </trkpt>
      <trkpt lat="47.52163" lon="6.67223">
        <ele>372</ele>
        <time>2015-01-25T10:57:28.000Z</time>
      </trkpt>
      <trkpt lat="47.52165" lon="6.6723">
        <ele>372</ele>
        <time>2015-01-25T10:57:29.000Z</time>
      </trkpt>
      <trkpt lat="47.52166" lon="6.67236">
        <ele>372</ele>
        <time>2015-01-25T10:57:30.000Z</time>
      </trkpt>
      <trkpt lat="47.52167" lon="6.67243">
        <ele>372</ele>
        <time>2015-01-25T10:57:31.000Z</time>
      </trkpt>
      <trkpt lat="47.52167" lon="6.67249">
        <ele>372</ele>
        <time>2015-01-25T10:57:32.000Z</time>
      </trkpt>
      <trkpt lat="47.52168" lon="6.67255">
        <ele>372</ele>
        <time>2015-01-25T10:57:33.000Z</time>
      </trkpt>
      <trkpt lat="47.52169" lon="6.67262">
        <ele>372</ele>
        <time>2015-01-25T10:57:34.000Z</time>
      </trkpt>
      <trkpt lat="47.5217" lon="6.67268">
        <ele>372</ele>
        <time>2015-01-25T10:57:35.000Z</time>
      </trkpt>
      <trkpt lat="47.52171" lon="6.67274">
        <ele>372</ele>
        <time>2015-01-25T10:57:36.000Z</time>
      </trkpt>
      <trkpt lat="47.52171" lon="6.67281">
        <ele>372</ele>
        <time>2015-01-25T10:57:37.000Z</time>
      </trkpt>
      <trkpt lat="47.52172" lon="6.67287">
        <ele>372</ele>
        <time>2015-01-25T10:57:38.000Z</time>
      </trkpt>
      <trkpt lat="47.52172" lon="6.67294">
        <ele>372</ele>
        <time>2015-01-25T10:57:39.000Z</time>
      </trkpt>
      <trkpt lat="47.52172" lon="6.67301">
        <ele>372</ele>
        <time>2015-01-25T10:57:40.000Z</time>
      </trkpt>
      <trkpt lat="47.52173" lon="6.67309">
        <ele>372</ele>
        <time>2015-01-25T10:57:41.000Z</time>
      </trkpt>
      <trkpt lat="47.52173" lon="6.67315">
        <ele>372</ele>
        <time>2015-01-25T10:57:42.000Z</time>
      </trkpt>
      <trkpt lat="47.52173" lon="6.67323">
        <ele>372</ele>
        <time>2015-01-25T10:57:43.000Z</time>
      </trkpt>
      <trkpt lat="47.52173" lon="6.6733">
        <ele>372</ele>
        <time>2015-01-25T10:57:44.000Z</time>
      </trkpt>
      <trkpt lat="47.52174" lon="6.67338">
        <ele>372</ele>
        <time>2015-01-25T10:57:45.000Z</time>
      </trkpt>
      <trkpt lat="47.52176" lon="6.67359">
        <ele>372</ele>
        <time>2015-01-25T10:57:48.000Z</time>
      </trkpt>
      <trkpt lat="47.52177" lon="6.67367">
        <ele>372</ele>
        <time>2015-01-25T10:57:49.000Z</time>
      </trkpt>
      <trkpt lat="47.52179" lon="6.67374">
        <ele>372</ele>
        <time>2015-01-25T10:57:50.000Z</time>
      </trkpt>
      <trkpt lat="47.52181" lon="6.67383">
        <ele>372</ele>
        <time>2015-01-25T10:57:51.000Z</time>
      </trkpt>
      <trkpt lat="47.52184" lon="6.67389">
        <ele>372</ele>
        <time>2015-01-25T10:57:52.000Z</time>
      </trkpt>
      <trkpt lat="47.52185" lon="6.67395">
        <ele>372</ele>
        <time>2015-01-25T10:57:53.000Z</time>
      </trkpt>
      <trkpt lat="47.52187" lon="6.674">
        <ele>372</ele>
        <time>2015-01-25T10:57:54.000Z</time>
      </trkpt>
      <trkpt lat="47.52187" lon="6.67405">
        <ele>371</ele>
        <time>2015-01-25T10:57:55.000Z</time>
      </trkpt>
      <trkpt lat="47.52189" lon="6.6741">
        <ele>371</ele>
        <time>2015-01-25T10:57:56.000Z</time>
      </trkpt>
      <trkpt lat="47.52191" lon="6.67417">
        <ele>371</ele>
        <time>2015-01-25T10:57:57.000Z</time>
      </trkpt>
      <trkpt lat="47.52194" lon="6.67424">
        <ele>371</ele>
        <time>2015-01-25T10:57:58.000Z</time>
      </trkpt>
      <trkpt lat="47.52196" lon="6.6743">
        <ele>371</ele>
        <time>2015-01-25T10:57:59.000Z</time>
      </trkpt>
      <trkpt lat="47.52199" lon="6.67436">
        <ele>371</ele>
        <time>2015-01-25T10:58:00.000Z</time>
      </trkpt>
      <trkpt lat="47.52201" lon="6.67442">
        <ele>371</ele>
        <time>2015-01-25T10:58:01.000Z</time>
      </trkpt>
      <trkpt lat="47.52203" lon="6.67448">
        <ele>371</ele>
        <time>2015-01-25T10:58:02.000Z</time>
      </trkpt>
      <trkpt lat="47.52204" lon="6.67456">
        <ele>371</ele>
        <time>2015-01-25T10:58:03.000Z</time>
      </trkpt>
      <trkpt lat="47.52206" lon="6.67463">
        <ele>371</ele>
        <time>2015-01-25T10:58:04.000Z</time>
      </trkpt>
      <trkpt lat="47.52206" lon="6.67469">
        <ele>371</ele>
        <time>2015-01-25T10:58:05.000Z</time>
      </trkpt>
      <trkpt lat="47.52207" lon="6.67476">
        <ele>371</ele>
        <time>2015-01-25T10:58:06.000Z</time>
      </trkpt>
      <trkpt lat="47.52208" lon="6.67483">
        <ele>371</ele>
        <time>2015-01-25T10:58:07.000Z</time>
      </trkpt>
      <trkpt lat="47.52208" lon="6.6749">
        <ele>371</ele>
        <time>2015-01-25T10:58:08.000Z</time>
      </trkpt>
      <trkpt lat="47.52208" lon="6.67497">
        <ele>371</ele>
        <time>2015-01-25T10:58:09.000Z</time>
      </trkpt>
      <trkpt lat="47.52208" lon="6.67504">
        <ele>371</ele>
        <time>2015-01-25T10:58:10.000Z</time>
      </trkpt>
      <trkpt lat="47.52208" lon="6.67511">
        <ele>371</ele>
        <time>2015-01-25T10:58:11.000Z</time>
      </trkpt>
      <trkpt lat="47.52208" lon="6.67517">
        <ele>371</ele>
        <time>2015-01-25T10:58:12.000Z</time>
      </trkpt>
      <trkpt lat="47.52208" lon="6.67524">
        <ele>371</ele>
        <time>2015-01-25T10:58:13.000Z</time>
      </trkpt>
      <trkpt lat="47.52207" lon="6.67531">
        <ele>371</ele>
        <time>2015-01-25T10:58:14.000Z</time>
      </trkpt>
      <trkpt lat="47.52207" lon="6.67538">
        <ele>371</ele>
        <time>2015-01-25T10:58:15.000Z</time>
      </trkpt>
      <trkpt lat="47.52207" lon="6.67545">
        <ele>371</ele>
        <time>2015-01-25T10:58:16.000Z</time>
      </trkpt>
      <trkpt lat="47.52208" lon="6.67553">
        <ele>371</ele>
        <time>2015-01-25T10:58:17.000Z</time>
      </trkpt>
      <trkpt lat="47.52208" lon="6.6756">
        <ele>371</ele>
        <time>2015-01-25T10:58:18.000Z</time>
      </trkpt>
      <trkpt lat="47.52208" lon="6.67568">
        <ele>371</ele>
        <time>2015-01-25T10:58:19.000Z</time>
      </trkpt>
      <trkpt lat="47.52207" lon="6.67575">
        <ele>370</ele>
        <time>2015-01-25T10:58:20.000Z</time>
      </trkpt>
      <trkpt lat="47.52207" lon="6.67581">
        <ele>370</ele>
        <time>2015-01-25T10:58:21.000Z</time>
      </trkpt>
      <trkpt lat="47.52207" lon="6.67587">
        <ele>369</ele>
        <time>2015-01-25T10:58:22.000Z</time>
      </trkpt>
      <trkpt lat="47.52207" lon="6.67595">
        <ele>369</ele>
        <time>2015-01-25T10:58:23.000Z</time>
      </trkpt>
      <trkpt lat="47.52207" lon="6.67601">
        <ele>369</ele>
        <time>2015-01-25T10:58:24.000Z</time>
      </trkpt>
      <trkpt lat="47.52206" lon="6.67608">
        <ele>369</ele>
        <time>2015-01-25T10:58:25.000Z</time>
      </trkpt>
      <trkpt lat="47.52205" lon="6.67613">
        <ele>369</ele>
        <time>2015-01-25T10:58:26.000Z</time>
      </trkpt>
      <trkpt lat="47.52204" lon="6.6762">
        <ele>369</ele>
        <time>2015-01-25T10:58:27.000Z</time>
      </trkpt>
      <trkpt lat="47.52204" lon="6.67626">
        <ele>369</ele>
        <time>2015-01-25T10:58:28.000Z</time>
      </trkpt>
      <trkpt lat="47.52204" lon="6.67633">
        <ele>369</ele>
        <time>2015-01-25T10:58:29.000Z</time>
      </trkpt>
      <trkpt lat="47.52203" lon="6.6764">
        <ele>369</ele>
        <time>2015-01-25T10:58:30.000Z</time>
      </trkpt>
      <trkpt lat="47.52203" lon="6.67647">
        <ele>368</ele>
        <time>2015-01-25T10:58:31.000Z</time>
      </trkpt>
      <trkpt lat="47.52203" lon="6.67653">
        <ele>368</ele>
        <time>2015-01-25T10:58:32.000Z</time>
      </trkpt>
      <trkpt lat="47.52202" lon="6.67661">
        <ele>368</ele>
        <time>2015-01-25T10:58:33.000Z</time>
      </trkpt>
      <trkpt lat="47.52202" lon="6.67668">
        <ele>367</ele>
        <time>2015-01-25T10:58:34.000Z</time>
      </trkpt>
      <trkpt lat="47.52202" lon="6.67675">
        <ele>367</ele>
        <time>2015-01-25T10:58:35.000Z</time>
      </trkpt>
      <trkpt lat="47.52202" lon="6.67683">
        <ele>367</ele>
        <time>2015-01-25T10:58:36.000Z</time>
      </trkpt>
      <trkpt lat="47.52202" lon="6.6769">
        <ele>367</ele>
        <time>2015-01-25T10:58:37.000Z</time>
      </trkpt>
      <trkpt lat="47.52202" lon="6.67698">
        <ele>367</ele>
        <time>2015-01-25T10:58:38.000Z</time>
      </trkpt>
      <trkpt lat="47.52201" lon="6.67705">
        <ele>367</ele>
        <time>2015-01-25T10:58:39.000Z</time>
      </trkpt>
      <trkpt lat="47.52201" lon="6.67713">
        <ele>367</ele>
        <time>2015-01-25T10:58:40.000Z</time>
      </trkpt>
      <trkpt lat="47.522" lon="6.6772">
        <ele>367</ele>
        <time>2015-01-25T10:58:41.000Z</time>
      </trkpt>
      <trkpt lat="47.52199" lon="6.67729">
        <ele>367</ele>
        <time>2015-01-25T10:58:42.000Z</time>
      </trkpt>
      <trkpt lat="47.52198" lon="6.67737">
        <ele>367</ele>
        <time>2015-01-25T10:58:43.000Z</time>
      </trkpt>
      <trkpt lat="47.52198" lon="6.67744">
        <ele>367</ele>
        <time>2015-01-25T10:58:44.000Z</time>
      </trkpt>
      <trkpt lat="47.52196" lon="6.67763">
        <ele>366</ele>
        <time>2015-01-25T10:58:47.000Z</time>
      </trkpt>
      <trkpt lat="47.52196" lon="6.67772">
        <ele>366</ele>
        <time>2015-01-25T10:58:48.000Z</time>
      </trkpt>
      <trkpt lat="47.52195" lon="6.6778">
        <ele>366</ele>
        <time>2015-01-25T10:58:49.000Z</time>
      </trkpt>
      <trkpt lat="47.52195" lon="6.67788">
        <ele>366</ele>
        <time>2015-01-25T10:58:50.000Z</time>
      </trkpt>
      <trkpt lat="47.52195" lon="6.67796">
        <ele>366</ele>
        <time>2015-01-25T10:58:51.000Z</time>
      </trkpt>
      <trkpt lat="47.52195" lon="6.67804">
        <ele>366</ele>
        <time>2015-01-25T10:58:52.000Z</time>
      </trkpt>
      <trkpt lat="47.52194" lon="6.67811">
        <ele>366</ele>
        <time>2015-01-25T10:58:53.000Z</time>
      </trkpt>
      <trkpt lat="47.52194" lon="6.67817">
        <ele>366</ele>
        <time>2015-01-25T10:58:54.000Z</time>
      </trkpt>
      <trkpt lat="47.52193" lon="6.67824">
        <ele>365</ele>
        <time>2015-01-25T10:58:55.000Z</time>
      </trkpt>
      <trkpt lat="47.52193" lon="6.67831">
        <ele>365</ele>
        <time>2015-01-25T10:58:56.000Z</time>
      </trkpt>
      <trkpt lat="47.52193" lon="6.67838">
        <ele>365</ele>
        <time>2015-01-25T10:58:57.000Z</time>
      </trkpt>
      <trkpt lat="47.52192" lon="6.67846">
        <ele>365</ele>
        <time>2015-01-25T10:58:58.000Z</time>
      </trkpt>
      <trkpt lat="47.52192" lon="6.67854">
        <ele>365</ele>
        <time>2015-01-25T10:58:59.000Z</time>
      </trkpt>
      <trkpt lat="47.52191" lon="6.67861">
        <ele>365</ele>
        <time>2015-01-25T10:59:00.000Z</time>
      </trkpt>
      <trkpt lat="47.52191" lon="6.67869">
        <ele>365</ele>
        <time>2015-01-25T10:59:01.000Z</time>
      </trkpt>
      <trkpt lat="47.5219" lon="6.67876">
        <ele>364</ele>
        <time>2015-01-25T10:59:02.000Z</time>
      </trkpt>
      <trkpt lat="47.52189" lon="6.67884">
        <ele>364</ele>
        <time>2015-01-25T10:59:03.000Z</time>
      </trkpt>
      <trkpt lat="47.52189" lon="6.6789">
        <ele>364</ele>
        <time>2015-01-25T10:59:04.000Z</time>
      </trkpt>
      <trkpt lat="47.52188" lon="6.67898">
        <ele>364</ele>
        <time>2015-01-25T10:59:05.000Z</time>
      </trkpt>
      <trkpt lat="47.52187" lon="6.67906">
        <ele>364</ele>
        <time>2015-01-25T10:59:06.025Z</time>
      </trkpt>
      <trkpt lat="47.52187" lon="6.67914">
        <ele>364</ele>
        <time>2015-01-25T10:59:07.000Z</time>
      </trkpt>
      <trkpt lat="47.52187" lon="6.67922">
        <ele>364</ele>
        <time>2015-01-25T10:59:08.000Z</time>
      </trkpt>
      <trkpt lat="47.52186" lon="6.6793">
        <ele>364</ele>
        <time>2015-01-25T10:59:09.000Z</time>
      </trkpt>
      <trkpt lat="47.52185" lon="6.67938">
        <ele>364</ele>
        <time>2015-01-25T10:59:10.000Z</time>
      </trkpt>
      <trkpt lat="47.52185" lon="6.67946">
        <ele>364</ele>
        <time>2015-01-25T10:59:11.000Z</time>
      </trkpt>
      <trkpt lat="47.52184" lon="6.67953">
        <ele>364</ele>
        <time>2015-01-25T10:59:12.000Z</time>
      </trkpt>
      <trkpt lat="47.52183" lon="6.67961">
        <ele>363</ele>
        <time>2015-01-25T10:59:13.000Z</time>
      </trkpt>
      <trkpt lat="47.52182" lon="6.67968">
        <ele>363</ele>
        <time>2015-01-25T10:59:14.000Z</time>
      </trkpt>
      <trkpt lat="47.52182" lon="6.67975">
        <ele>363</ele>
        <time>2015-01-25T10:59:15.000Z</time>
      </trkpt>
      <trkpt lat="47.52181" lon="6.67982">
        <ele>363</ele>
        <time>2015-01-25T10:59:16.000Z</time>
      </trkpt>
      <trkpt lat="47.5218" lon="6.67989">
        <ele>363</ele>
        <time>2015-01-25T10:59:17.000Z</time>
      </trkpt>
      <trkpt lat="47.5218" lon="6.67996">
        <ele>363</ele>
        <time>2015-01-25T10:59:18.000Z</time>
      </trkpt>
      <trkpt lat="47.5218" lon="6.68003">
        <ele>363</ele>
        <time>2015-01-25T10:59:19.000Z</time>
      </trkpt>
      <trkpt lat="47.52179" lon="6.68009">
        <ele>363</ele>
        <time>2015-01-25T10:59:20.000Z</time>
      </trkpt>
      <trkpt lat="47.52179" lon="6.68015">
        <ele>363</ele>
        <time>2015-01-25T10:59:21.000Z</time>
      </trkpt>
      <trkpt lat="47.52179" lon="6.68022">
        <ele>363</ele>
        <time>2015-01-25T10:59:22.000Z</time>
      </trkpt>
      <trkpt lat="47.52178" lon="6.68027">
        <ele>363</ele>
        <time>2015-01-25T10:59:23.000Z</time>
      </trkpt>
      <trkpt lat="47.52177" lon="6.68034">
        <ele>363</ele>
        <time>2015-01-25T10:59:24.000Z</time>
      </trkpt>
      <trkpt lat="47.52176" lon="6.6804">
        <ele>363</ele>
        <time>2015-01-25T10:59:25.000Z</time>
      </trkpt>
      <trkpt lat="47.52176" lon="6.68047">
        <ele>362</ele>
        <time>2015-01-25T10:59:26.000Z</time>
      </trkpt>
      <trkpt lat="47.52176" lon="6.68053">
        <ele>362</ele>
        <time>2015-01-25T10:59:27.000Z</time>
      </trkpt>
      <trkpt lat="47.52175" lon="6.68059">
        <ele>362</ele>
        <time>2015-01-25T10:59:28.000Z</time>
      </trkpt>
      <trkpt lat="47.52174" lon="6.68066">
        <ele>362</ele>
        <time>2015-01-25T10:59:29.000Z</time>
      </trkpt>
      <trkpt lat="47.52174" lon="6.68073">
        <ele>362</ele>
        <time>2015-01-25T10:59:30.000Z</time>
      </trkpt>
      <trkpt lat="47.52173" lon="6.68079">
        <ele>362</ele>
        <time>2015-01-25T10:59:31.000Z</time>
      </trkpt>
      <trkpt lat="47.52172" lon="6.68085">
        <ele>362</ele>
        <time>2015-01-25T10:59:32.000Z</time>
      </trkpt>
      <trkpt lat="47.52172" lon="6.68091">
        <ele>362</ele>
        <time>2015-01-25T10:59:33.000Z</time>
      </trkpt>
      <trkpt lat="47.52172" lon="6.68096">
        <ele>362</ele>
        <time>2015-01-25T10:59:34.000Z</time>
      </trkpt>
      <trkpt lat="47.52171" lon="6.68102">
        <ele>361</ele>
        <time>2015-01-25T10:59:35.000Z</time>
      </trkpt>
      <trkpt lat="47.52171" lon="6.68107">
        <ele>361</ele>
        <time>2015-01-25T10:59:36.000Z</time>
      </trkpt>
      <trkpt lat="47.5217" lon="6.68112">
        <ele>361</ele>
        <time>2015-01-25T10:59:37.000Z</time>
      </trkpt>
      <trkpt lat="47.5217" lon="6.68116">
        <ele>361</ele>
        <time>2015-01-25T10:59:38.000Z</time>
      </trkpt>
      <trkpt lat="47.5217" lon="6.6812">
        <ele>361</ele>
        <time>2015-01-25T10:59:39.000Z</time>
      </trkpt>
      <trkpt lat="47.52169" lon="6.68124">
        <ele>361</ele>
        <time>2015-01-25T10:59:40.000Z</time>
      </trkpt>
      <trkpt lat="47.52168" lon="6.68127">
        <ele>361</ele>
        <time>2015-01-25T10:59:41.000Z</time>
      </trkpt>
      <trkpt lat="47.52167" lon="6.6813">
        <ele>361</ele>
        <time>2015-01-25T10:59:42.000Z</time>
      </trkpt>
      <trkpt lat="47.52164" lon="6.68135">
        <ele>361</ele>
        <time>2015-01-25T10:59:44.000Z</time>
      </trkpt>
      <trkpt lat="47.52158" lon="6.6814">
        <ele>361</ele>
        <time>2015-01-25T10:59:47.000Z</time>
      </trkpt>
      <trkpt lat="47.52156" lon="6.68142">
        <ele>361</ele>
        <time>2015-01-25T10:59:48.000Z</time>
      </trkpt>
      <trkpt lat="47.52153" lon="6.68143">
        <ele>361</ele>
        <time>2015-01-25T10:59:49.000Z</time>
      </trkpt>
      <trkpt lat="47.5215" lon="6.68143">
        <ele>361</ele>
        <time>2015-01-25T10:59:50.000Z</time>
      </trkpt>
      <trkpt lat="47.52147" lon="6.68144">
        <ele>361</ele>
        <time>2015-01-25T10:59:51.000Z</time>
      </trkpt>
      <trkpt lat="47.52143" lon="6.68144">
        <ele>361</ele>
        <time>2015-01-25T10:59:52.000Z</time>
      </trkpt>
      <trkpt lat="47.5214" lon="6.68145">
        <ele>361</ele>
        <time>2015-01-25T10:59:53.000Z</time>
      </trkpt>
      <trkpt lat="47.52136" lon="6.68146">
        <ele>361</ele>
        <time>2015-01-25T10:59:54.000Z</time>
      </trkpt>
      <trkpt lat="47.52133" lon="6.68146">
        <ele>361</ele>
        <time>2015-01-25T10:59:55.000Z</time>
      </trkpt>
      <trkpt lat="47.52129" lon="6.68147">
        <ele>361</ele>
        <time>2015-01-25T10:59:56.000Z</time>
      </trkpt>
      <trkpt lat="47.52125" lon="6.68148">
        <ele>361</ele>
        <time>2015-01-25T10:59:57.000Z</time>
      </trkpt>
      <trkpt lat="47.52122" lon="6.68148">
        <ele>361</ele>
        <time>2015-01-25T10:59:58.000Z</time>
      </trkpt>
      <trkpt lat="47.52118" lon="6.68149">
        <ele>361</ele>
        <time>2015-01-25T10:59:59.000Z</time>
      </trkpt>
      <trkpt lat="47.52114" lon="6.6815">
        <ele>361</ele>
        <time>2015-01-25T11:00:00.000Z</time>
      </trkpt>
      <trkpt lat="47.5211" lon="6.68151">
        <ele>362</ele>
        <time>2015-01-25T11:00:01.000Z</time>
      </trkpt>
      <trkpt lat="47.52106" lon="6.68152">
        <ele>362</ele>
        <time>2015-01-25T11:00:02.000Z</time>
      </trkpt>
      <trkpt lat="47.52103" lon="6.68153">
        <ele>362</ele>
        <time>2015-01-25T11:00:03.000Z</time>
      </trkpt>
      <trkpt lat="47.52099" lon="6.68153">
        <ele>362</ele>
        <time>2015-01-25T11:00:04.000Z</time>
      </trkpt>
      <trkpt lat="47.52095" lon="6.68154">
        <ele>362</ele>
        <time>2015-01-25T11:00:05.000Z</time>
      </trkpt>
      <trkpt lat="47.52091" lon="6.68156">
        <ele>362</ele>
        <time>2015-01-25T11:00:06.000Z</time>
      </trkpt>
      <trkpt lat="47.52087" lon="6.68157">
        <ele>362</ele>
        <time>2015-01-25T11:00:07.000Z</time>
      </trkpt>
      <trkpt lat="47.52083" lon="6.68158">
        <ele>362</ele>
        <time>2015-01-25T11:00:08.000Z</time>
      </trkpt>
      <trkpt lat="47.52078" lon="6.68159">
        <ele>362</ele>
        <time>2015-01-25T11:00:09.000Z</time>
      </trkpt>
      <trkpt lat="47.52073" lon="6.6816">
        <ele>362</ele>
        <time>2015-01-25T11:00:10.000Z</time>
      </trkpt>
      <trkpt lat="47.52068" lon="6.68161">
        <ele>362</ele>
        <time>2015-01-25T11:00:11.000Z</time>
      </trkpt>
      <trkpt lat="47.52063" lon="6.68161">
        <ele>362</ele>
        <time>2015-01-25T11:00:12.000Z</time>
      </trkpt>
      <trkpt lat="47.52057" lon="6.68162">
        <ele>362</ele>
        <time>2015-01-25T11:00:13.000Z</time>
      </trkpt>
      <trkpt lat="47.52052" lon="6.68163">
        <ele>362</ele>
        <time>2015-01-25T11:00:14.000Z</time>
      </trkpt>
      <trkpt lat="47.52046" lon="6.68165">
        <ele>362</ele>
        <time>2015-01-25T11:00:15.000Z</time>
      </trkpt>
      <trkpt lat="47.5204" lon="6.68168">
        <ele>361</ele>
        <time>2015-01-25T11:00:16.000Z</time>
      </trkpt>
      <trkpt lat="47.52035" lon="6.68171">
        <ele>361</ele>
        <time>2015-01-25T11:00:17.000Z</time>
      </trkpt>
      <trkpt lat="47.52029" lon="6.68174">
        <ele>361</ele>
        <time>2015-01-25T11:00:18.000Z</time>
      </trkpt>
      <trkpt lat="47.52023" lon="6.68178">
        <ele>361</ele>
        <time>2015-01-25T11:00:19.000Z</time>
      </trkpt>
      <trkpt lat="47.52018" lon="6.68182">
        <ele>361</ele>
        <time>2015-01-25T11:00:20.000Z</time>
      </trkpt>
      <trkpt lat="47.52013" lon="6.68185">
        <ele>361</ele>
        <time>2015-01-25T11:00:21.000Z</time>
      </trkpt>
      <trkpt lat="47.52007" lon="6.68189">
        <ele>361</ele>
        <time>2015-01-25T11:00:22.000Z</time>
      </trkpt>
      <trkpt lat="47.52002" lon="6.68192">
        <ele>361</ele>
        <time>2015-01-25T11:00:23.000Z</time>
      </trkpt>
      <trkpt lat="47.51997" lon="6.68195">
        <ele>361</ele>
        <time>2015-01-25T11:00:24.000Z</time>
      </trkpt>
      <trkpt lat="47.51991" lon="6.68199">
        <ele>361</ele>
        <time>2015-01-25T11:00:25.000Z</time>
      </trkpt>
      <trkpt lat="47.51986" lon="6.68203">
        <ele>361</ele>
        <time>2015-01-25T11:00:26.000Z</time>
      </trkpt>
      <trkpt lat="47.51981" lon="6.68206">
        <ele>361</ele>
        <time>2015-01-25T11:00:27.000Z</time>
      </trkpt>
      <trkpt lat="47.51975" lon="6.6821">
        <ele>361</ele>
        <time>2015-01-25T11:00:28.000Z</time>
      </trkpt>
      <trkpt lat="47.5197" lon="6.68213">
        <ele>361</ele>
        <time>2015-01-25T11:00:29.000Z</time>
      </trkpt>
      <trkpt lat="47.51965" lon="6.68217">
        <ele>361</ele>
        <time>2015-01-25T11:00:30.000Z</time>
      </trkpt>
      <trkpt lat="47.5196" lon="6.68221">
        <ele>361</ele>
        <time>2015-01-25T11:00:31.000Z</time>
      </trkpt>
      <trkpt lat="47.51955" lon="6.68223">
        <ele>361</ele>
        <time>2015-01-25T11:00:32.000Z</time>
      </trkpt>
      <trkpt lat="47.51949" lon="6.68226">
        <ele>361</ele>
        <time>2015-01-25T11:00:33.000Z</time>
      </trkpt>
      <trkpt lat="47.51944" lon="6.6823">
        <ele>361</ele>
        <time>2015-01-25T11:00:34.000Z</time>
      </trkpt>
      <trkpt lat="47.5194" lon="6.68233">
        <ele>361</ele>
        <time>2015-01-25T11:00:35.000Z</time>
      </trkpt>
      <trkpt lat="47.51935" lon="6.68236">
        <ele>361</ele>
        <time>2015-01-25T11:00:36.000Z</time>
      </trkpt>
      <trkpt lat="47.51931" lon="6.68239">
        <ele>361</ele>
        <time>2015-01-25T11:00:37.000Z</time>
      </trkpt>
      <trkpt lat="47.51926" lon="6.68244">
        <ele>361</ele>
        <time>2015-01-25T11:00:38.000Z</time>
      </trkpt>
      <trkpt lat="47.51921" lon="6.68247">
        <ele>361</ele>
        <time>2015-01-25T11:00:39.000Z</time>
      </trkpt>
      <trkpt lat="47.51917" lon="6.6825">
        <ele>361</ele>
        <time>2015-01-25T11:00:40.000Z</time>
      </trkpt>
      <trkpt lat="47.51912" lon="6.68252">
        <ele>361</ele>
        <time>2015-01-25T11:00:41.000Z</time>
      </trkpt>
      <trkpt lat="47.51908" lon="6.68255">
        <ele>361</ele>
        <time>2015-01-25T11:00:42.000Z</time>
      </trkpt>
      <trkpt lat="47.51903" lon="6.68259">
        <ele>361</ele>
        <time>2015-01-25T11:00:43.000Z</time>
      </trkpt>
      <trkpt lat="47.51899" lon="6.68262">
        <ele>362</ele>
        <time>2015-01-25T11:00:44.000Z</time>
      </trkpt>
      <trkpt lat="47.51887" lon="6.6827">
        <ele>362</ele>
        <time>2015-01-25T11:00:47.000Z</time>
      </trkpt>
      <trkpt lat="47.51881" lon="6.68273">
        <ele>362</ele>
        <time>2015-01-25T11:00:48.000Z</time>
      </trkpt>
      <trkpt lat="47.51876" lon="6.68276">
        <ele>362</ele>
        <time>2015-01-25T11:00:49.000Z</time>
      </trkpt>
      <trkpt lat="47.51872" lon="6.6828">
        <ele>362</ele>
        <time>2015-01-25T11:00:50.000Z</time>
      </trkpt>
      <trkpt lat="47.51867" lon="6.68284">
        <ele>362</ele>
        <time>2015-01-25T11:00:51.000Z</time>
      </trkpt>
      <trkpt lat="47.51863" lon="6.68287">
        <ele>362</ele>
        <time>2015-01-25T11:00:52.000Z</time>
      </trkpt>
      <trkpt lat="47.51858" lon="6.6829">
        <ele>362</ele>
        <time>2015-01-25T11:00:53.000Z</time>
      </trkpt>
      <trkpt lat="47.51853" lon="6.68293">
        <ele>362</ele>
        <time>2015-01-25T11:00:54.000Z</time>
      </trkpt>
      <trkpt lat="47.51848" lon="6.68296">
        <ele>362</ele>
        <time>2015-01-25T11:00:55.000Z</time>
      </trkpt>
      <trkpt lat="47.51843" lon="6.68299">
        <ele>362</ele>
        <time>2015-01-25T11:00:56.000Z</time>
      </trkpt>
      <trkpt lat="47.51839" lon="6.68301">
        <ele>363</ele>
        <time>2015-01-25T11:00:57.000Z</time>
      </trkpt>
      <trkpt lat="47.51834" lon="6.68305">
        <ele>363</ele>
        <time>2015-01-25T11:00:58.000Z</time>
      </trkpt>
      <trkpt lat="47.51829" lon="6.68308">
        <ele>364</ele>
        <time>2015-01-25T11:00:59.000Z</time>
      </trkpt>
      <trkpt lat="47.51825" lon="6.68311">
        <ele>364</ele>
        <time>2015-01-25T11:01:00.000Z</time>
      </trkpt>
      <trkpt lat="47.5182" lon="6.68314">
        <ele>364</ele>
        <time>2015-01-25T11:01:01.000Z</time>
      </trkpt>
      <trkpt lat="47.51816" lon="6.68317">
        <ele>364</ele>
        <time>2015-01-25T11:01:02.000Z</time>
      </trkpt>
      <trkpt lat="47.51811" lon="6.6832">
        <ele>364</ele>
        <time>2015-01-25T11:01:03.000Z</time>
      </trkpt>
      <trkpt lat="47.51807" lon="6.68322">
        <ele>364</ele>
        <time>2015-01-25T11:01:04.000Z</time>
      </trkpt>
      <trkpt lat="47.51802" lon="6.68325">
        <ele>364</ele>
        <time>2015-01-25T11:01:05.000Z</time>
      </trkpt>
      <trkpt lat="47.51798" lon="6.68328">
        <ele>364</ele>
        <time>2015-01-25T11:01:06.000Z</time>
      </trkpt>
      <trkpt lat="47.51793" lon="6.68331">
        <ele>365</ele>
        <time>2015-01-25T11:01:07.000Z</time>
      </trkpt>
      <trkpt lat="47.51789" lon="6.68334">
        <ele>365</ele>
        <time>2015-01-25T11:01:08.000Z</time>
      </trkpt>
      <trkpt lat="47.51784" lon="6.68337">
        <ele>365</ele>
        <time>2015-01-25T11:01:09.000Z</time>
      </trkpt>
      <trkpt lat="47.5178" lon="6.68339">
        <ele>365</ele>
        <time>2015-01-25T11:01:10.000Z</time>
      </trkpt>
      <trkpt lat="47.51775" lon="6.68339">
        <ele>365</ele>
        <time>2015-01-25T11:01:11.000Z</time>
      </trkpt>
      <trkpt lat="47.51771" lon="6.68344">
        <ele>365</ele>
        <time>2015-01-25T11:01:12.000Z</time>
      </trkpt>
      <trkpt lat="47.51767" lon="6.68348">
        <ele>365</ele>
        <time>2015-01-25T11:01:13.000Z</time>
      </trkpt>
      <trkpt lat="47.51763" lon="6.6835">
        <ele>365</ele>
        <time>2015-01-25T11:01:14.000Z</time>
      </trkpt>
      <trkpt lat="47.5176" lon="6.68354">
        <ele>365</ele>
        <time>2015-01-25T11:01:15.000Z</time>
      </trkpt>
      <trkpt lat="47.51755" lon="6.68357">
        <ele>365</ele>
        <time>2015-01-25T11:01:16.000Z</time>
      </trkpt>
      <trkpt lat="47.51751" lon="6.6836">
        <ele>365</ele>
        <time>2015-01-25T11:01:17.000Z</time>
      </trkpt>
      <trkpt lat="47.51748" lon="6.68364">
        <ele>366</ele>
        <time>2015-01-25T11:01:18.000Z</time>
      </trkpt>
      <trkpt lat="47.51743" lon="6.68367">
        <ele>366</ele>
        <time>2015-01-25T11:01:19.000Z</time>
      </trkpt>
      <trkpt lat="47.51739" lon="6.6837">
        <ele>366</ele>
        <time>2015-01-25T11:01:20.000Z</time>
      </trkpt>
      <trkpt lat="47.51734" lon="6.68374">
        <ele>366</ele>
        <time>2015-01-25T11:01:21.000Z</time>
      </trkpt>
      <trkpt lat="47.51729" lon="6.68377">
        <ele>366</ele>
        <time>2015-01-25T11:01:22.000Z</time>
      </trkpt>
      <trkpt lat="47.51724" lon="6.68382">
        <ele>366</ele>
        <time>2015-01-25T11:01:23.000Z</time>
      </trkpt>
      <trkpt lat="47.51719" lon="6.68387">
        <ele>366</ele>
        <time>2015-01-25T11:01:24.000Z</time>
      </trkpt>
      <trkpt lat="47.51713" lon="6.68391">
        <ele>366</ele>
        <time>2015-01-25T11:01:25.000Z</time>
      </trkpt>
      <trkpt lat="47.51706" lon="6.68396">
        <ele>366</ele>
        <time>2015-01-25T11:01:26.000Z</time>
      </trkpt>
      <trkpt lat="47.51701" lon="6.68402">
        <ele>366</ele>
        <time>2015-01-25T11:01:27.000Z</time>
      </trkpt>
      <trkpt lat="47.51696" lon="6.68408">
        <ele>366</ele>
        <time>2015-01-25T11:01:28.000Z</time>
      </trkpt>
      <trkpt lat="47.51691" lon="6.68415">
        <ele>366</ele>
        <time>2015-01-25T11:01:29.000Z</time>
      </trkpt>
      <trkpt lat="47.51687" lon="6.68421">
        <ele>366</ele>
        <time>2015-01-25T11:01:30.000Z</time>
      </trkpt>
      <trkpt lat="47.51682" lon="6.68428">
        <ele>366</ele>
        <time>2015-01-25T11:01:31.000Z</time>
      </trkpt>
      <trkpt lat="47.51678" lon="6.68434">
        <ele>366</ele>
        <time>2015-01-25T11:01:32.000Z</time>
      </trkpt>
      <trkpt lat="47.51674" lon="6.6844">
        <ele>366</ele>
        <time>2015-01-25T11:01:33.000Z</time>
      </trkpt>
      <trkpt lat="47.5167" lon="6.68446">
        <ele>366</ele>
        <time>2015-01-25T11:01:34.000Z</time>
      </trkpt>
      <trkpt lat="47.51666" lon="6.68451">
        <ele>367</ele>
        <time>2015-01-25T11:01:35.000Z</time>
      </trkpt>
      <trkpt lat="47.51662" lon="6.68454">
        <ele>367</ele>
        <time>2015-01-25T11:01:36.000Z</time>
      </trkpt>
      <trkpt lat="47.51658" lon="6.68456">
        <ele>367</ele>
        <time>2015-01-25T11:01:37.000Z</time>
      </trkpt>
      <trkpt lat="47.51654" lon="6.68458">
        <ele>367</ele>
        <time>2015-01-25T11:01:38.000Z</time>
      </trkpt>
      <trkpt lat="47.5165" lon="6.68461">
        <ele>367</ele>
        <time>2015-01-25T11:01:39.000Z</time>
      </trkpt>
      <trkpt lat="47.51646" lon="6.68463">
        <ele>367</ele>
        <time>2015-01-25T11:01:40.000Z</time>
      </trkpt>
      <trkpt lat="47.51641" lon="6.68465">
        <ele>367</ele>
        <time>2015-01-25T11:01:41.000Z</time>
      </trkpt>
      <trkpt lat="47.51637" lon="6.68466">
        <ele>367</ele>
        <time>2015-01-25T11:01:42.000Z</time>
      </trkpt>
      <trkpt lat="47.51633" lon="6.68467">
        <ele>367</ele>
        <time>2015-01-25T11:01:43.000Z</time>
      </trkpt>
      <trkpt lat="47.51629" lon="6.6847">
        <ele>368</ele>
        <time>2015-01-25T11:01:44.000Z</time>
      </trkpt>
      <trkpt lat="47.51625" lon="6.68473">
        <ele>368</ele>
        <time>2015-01-25T11:01:45.000Z</time>
      </trkpt>
      <trkpt lat="47.51596" lon="6.68492">
        <ele>369</ele>
        <time>2015-01-25T11:01:53.000Z</time>
      </trkpt>
      <trkpt lat="47.51589" lon="6.68498">
        <ele>369</ele>
        <time>2015-01-25T11:01:54.000Z</time>
      </trkpt>
      <trkpt lat="47.51585" lon="6.68502">
        <ele>370</ele>
        <time>2015-01-25T11:01:55.000Z</time>
      </trkpt>
      <trkpt lat="47.51581" lon="6.68507">
        <ele>370</ele>
        <time>2015-01-25T11:01:56.000Z</time>
      </trkpt>
      <trkpt lat="47.51577" lon="6.68512">
        <ele>370</ele>
        <time>2015-01-25T11:01:57.000Z</time>
      </trkpt>
      <trkpt lat="47.51573" lon="6.68516">
        <ele>369</ele>
        <time>2015-01-25T11:01:58.000Z</time>
      </trkpt>
      <trkpt lat="47.51569" lon="6.6852">
        <ele>369</ele>
        <time>2015-01-25T11:01:59.000Z</time>
      </trkpt>
      <trkpt lat="47.51565" lon="6.68523">
        <ele>369</ele>
        <time>2015-01-25T11:02:00.000Z</time>
      </trkpt>
      <trkpt lat="47.51561" lon="6.68526">
        <ele>369</ele>
        <time>2015-01-25T11:02:01.000Z</time>
      </trkpt>
      <trkpt lat="47.51557" lon="6.68532">
        <ele>369</ele>
        <time>2015-01-25T11:02:02.000Z</time>
      </trkpt>
      <trkpt lat="47.51554" lon="6.68536">
        <ele>369</ele>
        <time>2015-01-25T11:02:03.000Z</time>
      </trkpt>
      <trkpt lat="47.5155" lon="6.6854">
        <ele>369</ele>
        <time>2015-01-25T11:02:04.000Z</time>
      </trkpt>
      <trkpt lat="47.51546" lon="6.68544">
        <ele>369</ele>
        <time>2015-01-25T11:02:05.000Z</time>
      </trkpt>
      <trkpt lat="47.51542" lon="6.68549">
        <ele>369</ele>
        <time>2015-01-25T11:02:06.000Z</time>
      </trkpt>
      <trkpt lat="47.51539" lon="6.68554">
        <ele>369</ele>
        <time>2015-01-25T11:02:07.000Z</time>
      </trkpt>
      <trkpt lat="47.51535" lon="6.68558">
        <ele>369</ele>
        <time>2015-01-25T11:02:08.000Z</time>
      </trkpt>
      <trkpt lat="47.5153" lon="6.68562">
        <ele>369</ele>
        <time>2015-01-25T11:02:09.000Z</time>
      </trkpt>
      <trkpt lat="47.51526" lon="6.68565">
        <ele>369</ele>
        <time>2015-01-25T11:02:10.000Z</time>
      </trkpt>
      <trkpt lat="47.51521" lon="6.6857">
        <ele>369</ele>
        <time>2015-01-25T11:02:11.000Z</time>
      </trkpt>
      <trkpt lat="47.51517" lon="6.68575">
        <ele>369</ele>
        <time>2015-01-25T11:02:12.000Z</time>
      </trkpt>
      <trkpt lat="47.51513" lon="6.68579">
        <ele>369</ele>
        <time>2015-01-25T11:02:13.000Z</time>
      </trkpt>
      <trkpt lat="47.51509" lon="6.68584">
        <ele>369</ele>
        <time>2015-01-25T11:02:14.000Z</time>
      </trkpt>
      <trkpt lat="47.51505" lon="6.68587">
        <ele>369</ele>
        <time>2015-01-25T11:02:15.000Z</time>
      </trkpt>
      <trkpt lat="47.51502" lon="6.68591">
        <ele>369</ele>
        <time>2015-01-25T11:02:16.000Z</time>
      </trkpt>
      <trkpt lat="47.51498" lon="6.68595">
        <ele>369</ele>
        <time>2015-01-25T11:02:17.000Z</time>
      </trkpt>
      <trkpt lat="47.51494" lon="6.68598">
        <ele>369</ele>
        <time>2015-01-25T11:02:18.000Z</time>
      </trkpt>
      <trkpt lat="47.5149" lon="6.68601">
        <ele>369</ele>
        <time>2015-01-25T11:02:19.000Z</time>
      </trkpt>
      <trkpt lat="47.51485" lon="6.68603">
        <ele>369</ele>
        <time>2015-01-25T11:02:20.000Z</time>
      </trkpt>
      <trkpt lat="47.51481" lon="6.68605">
        <ele>369</ele>
        <time>2015-01-25T11:02:21.000Z</time>
      </trkpt>
      <trkpt lat="47.51478" lon="6.68607">
        <ele>369</ele>
        <time>2015-01-25T11:02:22.000Z</time>
      </trkpt>
      <trkpt lat="47.51473" lon="6.68608">
        <ele>369</ele>
        <time>2015-01-25T11:02:23.000Z</time>
      </trkpt>
      <trkpt lat="47.51468" lon="6.6861">
        <ele>369</ele>
        <time>2015-01-25T11:02:24.000Z</time>
      </trkpt>
      <trkpt lat="47.51465" lon="6.68612">
        <ele>369</ele>
        <time>2015-01-25T11:02:25.000Z</time>
      </trkpt>
      <trkpt lat="47.51461" lon="6.68614">
        <ele>369</ele>
        <time>2015-01-25T11:02:26.000Z</time>
      </trkpt>
      <trkpt lat="47.51457" lon="6.68615">
        <ele>369</ele>
        <time>2015-01-25T11:02:27.000Z</time>
      </trkpt>
      <trkpt lat="47.51453" lon="6.68618">
        <ele>369</ele>
        <time>2015-01-25T11:02:28.000Z</time>
      </trkpt>
      <trkpt lat="47.5145" lon="6.68619">
        <ele>369</ele>
        <time>2015-01-25T11:02:29.000Z</time>
      </trkpt>
      <trkpt lat="47.51446" lon="6.68621">
        <ele>369</ele>
        <time>2015-01-25T11:02:30.000Z</time>
      </trkpt>
      <trkpt lat="47.51442" lon="6.68624">
        <ele>369</ele>
        <time>2015-01-25T11:02:31.000Z</time>
      </trkpt>
      <trkpt lat="47.51439" lon="6.68626">
        <ele>369</ele>
        <time>2015-01-25T11:02:32.000Z</time>
      </trkpt>
      <trkpt lat="47.51435" lon="6.68628">
        <ele>369</ele>
        <time>2015-01-25T11:02:33.000Z</time>
      </trkpt>
      <trkpt lat="47.5143" lon="6.68631">
        <ele>369</ele>
        <time>2015-01-25T11:02:34.000Z</time>
      </trkpt>
      <trkpt lat="47.51426" lon="6.68633">
        <ele>369</ele>
        <time>2015-01-25T11:02:35.000Z</time>
      </trkpt>
      <trkpt lat="47.51421" lon="6.68636">
        <ele>369</ele>
        <time>2015-01-25T11:02:36.000Z</time>
      </trkpt>
      <trkpt lat="47.51416" lon="6.6864">
        <ele>370</ele>
        <time>2015-01-25T11:02:37.000Z</time>
      </trkpt>
      <trkpt lat="47.51411" lon="6.68643">
        <ele>370</ele>
        <time>2015-01-25T11:02:38.000Z</time>
      </trkpt>
      <trkpt lat="47.51406" lon="6.68646">
        <ele>370</ele>
        <time>2015-01-25T11:02:39.000Z</time>
      </trkpt>
      <trkpt lat="47.51401" lon="6.68648">
        <ele>370</ele>
        <time>2015-01-25T11:02:40.000Z</time>
      </trkpt>
      <trkpt lat="47.51396" lon="6.68651">
        <ele>370</ele>
        <time>2015-01-25T11:02:41.000Z</time>
      </trkpt>
      <trkpt lat="47.51391" lon="6.68654">
        <ele>370</ele>
        <time>2015-01-25T11:02:42.000Z</time>
      </trkpt>
      <trkpt lat="47.51387" lon="6.68657">
        <ele>370</ele>
        <time>2015-01-25T11:02:43.000Z</time>
      </trkpt>
      <trkpt lat="47.51382" lon="6.68659">
        <ele>370</ele>
        <time>2015-01-25T11:02:44.000Z</time>
      </trkpt>
      <trkpt lat="47.51376" lon="6.68661">
        <ele>370</ele>
        <time>2015-01-25T11:02:45.000Z</time>
      </trkpt>
      <trkpt lat="47.51337" lon="6.68672">
        <ele>370</ele>
        <time>2015-01-25T11:02:52.757Z</time>
      </trkpt>
      <trkpt lat="47.5133" lon="6.68672">
        <ele>370</ele>
        <time>2015-01-25T11:02:54.000Z</time>
      </trkpt>
      <trkpt lat="47.51325" lon="6.68672">
        <ele>370</ele>
        <time>2015-01-25T11:02:55.000Z</time>
      </trkpt>
      <trkpt lat="47.5132" lon="6.68671">
        <ele>370</ele>
        <time>2015-01-25T11:02:56.000Z</time>
      </trkpt>
      <trkpt lat="47.51315" lon="6.68671">
        <ele>370</ele>
        <time>2015-01-25T11:02:57.000Z</time>
      </trkpt>
      <trkpt lat="47.51309" lon="6.6867">
        <ele>370</ele>
        <time>2015-01-25T11:02:58.000Z</time>
      </trkpt>
      <trkpt lat="47.51305" lon="6.6867">
        <ele>371</ele>
        <time>2015-01-25T11:02:59.000Z</time>
      </trkpt>
      <trkpt lat="47.513" lon="6.68671">
        <ele>371</ele>
        <time>2015-01-25T11:03:00.000Z</time>
      </trkpt>
      <trkpt lat="47.51294" lon="6.68671">
        <ele>371</ele>
        <time>2015-01-25T11:03:01.000Z</time>
      </trkpt>
      <trkpt lat="47.51289" lon="6.68676">
        <ele>371</ele>
        <time>2015-01-25T11:03:02.000Z</time>
      </trkpt>
      <trkpt lat="47.51284" lon="6.6868">
        <ele>371</ele>
        <time>2015-01-25T11:03:03.000Z</time>
      </trkpt>
      <trkpt lat="47.5128" lon="6.68684">
        <ele>371</ele>
        <time>2015-01-25T11:03:04.000Z</time>
      </trkpt>
      <trkpt lat="47.51277" lon="6.68688">
        <ele>371</ele>
        <time>2015-01-25T11:03:05.000Z</time>
      </trkpt>
      <trkpt lat="47.51273" lon="6.6869">
        <ele>371</ele>
        <time>2015-01-25T11:03:06.000Z</time>
      </trkpt>
      <trkpt lat="47.5127" lon="6.68696">
        <ele>371</ele>
        <time>2015-01-25T11:03:07.000Z</time>
      </trkpt>
      <trkpt lat="47.51266" lon="6.687">
        <ele>371</ele>
        <time>2015-01-25T11:03:08.000Z</time>
      </trkpt>
      <trkpt lat="47.51264" lon="6.68706">
        <ele>371</ele>
        <time>2015-01-25T11:03:09.000Z</time>
      </trkpt>
      <trkpt lat="47.5126" lon="6.68712">
        <ele>371</ele>
        <time>2015-01-25T11:03:10.000Z</time>
      </trkpt>
      <trkpt lat="47.51257" lon="6.68716">
        <ele>371</ele>
        <time>2015-01-25T11:03:11.000Z</time>
      </trkpt>
      <trkpt lat="47.51254" lon="6.68721">
        <ele>371</ele>
        <time>2015-01-25T11:03:12.000Z</time>
      </trkpt>
      <trkpt lat="47.51251" lon="6.68726">
        <ele>371</ele>
        <time>2015-01-25T11:03:13.000Z</time>
      </trkpt>
      <trkpt lat="47.51247" lon="6.68732">
        <ele>372</ele>
        <time>2015-01-25T11:03:14.000Z</time>
      </trkpt>
      <trkpt lat="47.51244" lon="6.68737">
        <ele>372</ele>
        <time>2015-01-25T11:03:15.000Z</time>
      </trkpt>
      <trkpt lat="47.51241" lon="6.68741">
        <ele>372</ele>
        <time>2015-01-25T11:03:16.000Z</time>
      </trkpt>
      <trkpt lat="47.51239" lon="6.68747">
        <ele>372</ele>
        <time>2015-01-25T11:03:17.000Z</time>
      </trkpt>
      <trkpt lat="47.51235" lon="6.68755">
        <ele>373</ele>
        <time>2015-01-25T11:03:18.000Z</time>
      </trkpt>
      <trkpt lat="47.51231" lon="6.68761">
        <ele>373</ele>
        <time>2015-01-25T11:03:19.000Z</time>
      </trkpt>
      <trkpt lat="47.51229" lon="6.68767">
        <ele>373</ele>
        <time>2015-01-25T11:03:20.000Z</time>
      </trkpt>
      <trkpt lat="47.51226" lon="6.68771">
        <ele>373</ele>
        <time>2015-01-25T11:03:21.000Z</time>
      </trkpt>
      <trkpt lat="47.51223" lon="6.68774">
        <ele>373</ele>
        <time>2015-01-25T11:03:22.000Z</time>
      </trkpt>
      <trkpt lat="47.5122" lon="6.68778">
        <ele>373</ele>
        <time>2015-01-25T11:03:23.000Z</time>
      </trkpt>
      <trkpt lat="47.51216" lon="6.6878">
        <ele>373</ele>
        <time>2015-01-25T11:03:24.000Z</time>
      </trkpt>
      <trkpt lat="47.51213" lon="6.68783">
        <ele>373</ele>
        <time>2015-01-25T11:03:25.000Z</time>
      </trkpt>
      <trkpt lat="47.5121" lon="6.68788">
        <ele>373</ele>
        <time>2015-01-25T11:03:26.000Z</time>
      </trkpt>
      <trkpt lat="47.51206" lon="6.68792">
        <ele>373</ele>
        <time>2015-01-25T11:03:27.000Z</time>
      </trkpt>
      <trkpt lat="47.51204" lon="6.68794">
        <ele>373</ele>
        <time>2015-01-25T11:03:28.000Z</time>
      </trkpt>
      <trkpt lat="47.51201" lon="6.68801">
        <ele>373</ele>
        <time>2015-01-25T11:03:29.000Z</time>
      </trkpt>
      <trkpt lat="47.51198" lon="6.68806">
        <ele>373</ele>
        <time>2015-01-25T11:03:30.000Z</time>
      </trkpt>
      <trkpt lat="47.51195" lon="6.68811">
        <ele>373</ele>
        <time>2015-01-25T11:03:31.000Z</time>
      </trkpt>
      <trkpt lat="47.51192" lon="6.68815">
        <ele>373</ele>
        <time>2015-01-25T11:03:32.000Z</time>
      </trkpt>
      <trkpt lat="47.51188" lon="6.68819">
        <ele>374</ele>
        <time>2015-01-25T11:03:33.000Z</time>
      </trkpt>
      <trkpt lat="47.51185" lon="6.68825">
        <ele>374</ele>
        <time>2015-01-25T11:03:34.000Z</time>
      </trkpt>
      <trkpt lat="47.51183" lon="6.68831">
        <ele>374</ele>
        <time>2015-01-25T11:03:35.000Z</time>
      </trkpt>
      <trkpt lat="47.5118" lon="6.68835">
        <ele>374</ele>
        <time>2015-01-25T11:03:36.000Z</time>
      </trkpt>
      <trkpt lat="47.51177" lon="6.68839">
        <ele>374</ele>
        <time>2015-01-25T11:03:37.000Z</time>
      </trkpt>
      <trkpt lat="47.51174" lon="6.68844">
        <ele>374</ele>
        <time>2015-01-25T11:03:38.000Z</time>
      </trkpt>
      <trkpt lat="47.51171" lon="6.6885">
        <ele>374</ele>
        <time>2015-01-25T11:03:39.000Z</time>
      </trkpt>
      <trkpt lat="47.51167" lon="6.68854">
        <ele>373</ele>
        <time>2015-01-25T11:03:40.000Z</time>
      </trkpt>
      <trkpt lat="47.51163" lon="6.68857">
        <ele>373</ele>
        <time>2015-01-25T11:03:41.000Z</time>
      </trkpt>
      <trkpt lat="47.51159" lon="6.68861">
        <ele>373</ele>
        <time>2015-01-25T11:03:42.000Z</time>
      </trkpt>
      <trkpt lat="47.51154" lon="6.68866">
        <ele>373</ele>
        <time>2015-01-25T11:03:43.000Z</time>
      </trkpt>
      <trkpt lat="47.5115" lon="6.68872">
        <ele>373</ele>
        <time>2015-01-25T11:03:44.000Z</time>
      </trkpt>
      <trkpt lat="47.51141" lon="6.68887">
        <ele>373</ele>
        <time>2015-01-25T11:03:47.000Z</time>
      </trkpt>
      <trkpt lat="47.51137" lon="6.68897">
        <ele>373</ele>
        <time>2015-01-25T11:03:48.000Z</time>
      </trkpt>
      <trkpt lat="47.51134" lon="6.68906">
        <ele>373</ele>
        <time>2015-01-25T11:03:49.000Z</time>
      </trkpt>
      <trkpt lat="47.5113" lon="6.68915">
        <ele>373</ele>
        <time>2015-01-25T11:03:50.000Z</time>
      </trkpt>
      <trkpt lat="47.51128" lon="6.68924">
        <ele>371</ele>
        <time>2015-01-25T11:03:51.000Z</time>
      </trkpt>
      <trkpt lat="47.51124" lon="6.68933">
        <ele>371</ele>
        <time>2015-01-25T11:03:52.000Z</time>
      </trkpt>
      <trkpt lat="47.51121" lon="6.68941">
        <ele>371</ele>
        <time>2015-01-25T11:03:53.000Z</time>
      </trkpt>
      <trkpt lat="47.51118" lon="6.6895">
        <ele>371</ele>
        <time>2015-01-25T11:03:54.000Z</time>
      </trkpt>
      <trkpt lat="47.51115" lon="6.68958">
        <ele>371</ele>
        <time>2015-01-25T11:03:55.000Z</time>
      </trkpt>
      <trkpt lat="47.51112" lon="6.68966">
        <ele>370</ele>
        <time>2015-01-25T11:03:56.000Z</time>
      </trkpt>
      <trkpt lat="47.51108" lon="6.68974">
        <ele>370</ele>
        <time>2015-01-25T11:03:57.000Z</time>
      </trkpt>
      <trkpt lat="47.51106" lon="6.68983">
        <ele>370</ele>
        <time>2015-01-25T11:03:58.000Z</time>
      </trkpt>
      <trkpt lat="47.51102" lon="6.6899">
        <ele>370</ele>
        <time>2015-01-25T11:03:59.000Z</time>
      </trkpt>
      <trkpt lat="47.51099" lon="6.68998">
        <ele>369</ele>
        <time>2015-01-25T11:04:00.000Z</time>
      </trkpt>
      <trkpt lat="47.51096" lon="6.69005">
        <ele>369</ele>
        <time>2015-01-25T11:04:01.000Z</time>
      </trkpt>
      <trkpt lat="47.51092" lon="6.69012">
        <ele>369</ele>
        <time>2015-01-25T11:04:02.000Z</time>
      </trkpt>
      <trkpt lat="47.51088" lon="6.69019">
        <ele>369</ele>
        <time>2015-01-25T11:04:03.000Z</time>
      </trkpt>
      <trkpt lat="47.51083" lon="6.69027">
        <ele>368</ele>
        <time>2015-01-25T11:04:04.000Z</time>
      </trkpt>
      <trkpt lat="47.51079" lon="6.69032">
        <ele>368</ele>
        <time>2015-01-25T11:04:05.000Z</time>
      </trkpt>
      <trkpt lat="47.51074" lon="6.69036">
        <ele>368</ele>
        <time>2015-01-25T11:04:06.000Z</time>
      </trkpt>
      <trkpt lat="47.5107" lon="6.69041">
        <ele>368</ele>
        <time>2015-01-25T11:04:07.000Z</time>
      </trkpt>
      <trkpt lat="47.51066" lon="6.69046">
        <ele>368</ele>
        <time>2015-01-25T11:04:08.000Z</time>
      </trkpt>
      <trkpt lat="47.51062" lon="6.69052">
        <ele>368</ele>
        <time>2015-01-25T11:04:09.000Z</time>
      </trkpt>
      <trkpt lat="47.51059" lon="6.69058">
        <ele>368</ele>
        <time>2015-01-25T11:04:10.000Z</time>
      </trkpt>
      <trkpt lat="47.51055" lon="6.69065">
        <ele>368</ele>
        <time>2015-01-25T11:04:11.000Z</time>
      </trkpt>
      <trkpt lat="47.51051" lon="6.69072">
        <ele>368</ele>
        <time>2015-01-25T11:04:12.000Z</time>
      </trkpt>
      <trkpt lat="47.51048" lon="6.69078">
        <ele>368</ele>
        <time>2015-01-25T11:04:13.000Z</time>
      </trkpt>
      <trkpt lat="47.51044" lon="6.69083">
        <ele>369</ele>
        <time>2015-01-25T11:04:14.000Z</time>
      </trkpt>
      <trkpt lat="47.51041" lon="6.6909">
        <ele>369</ele>
        <time>2015-01-25T11:04:15.000Z</time>
      </trkpt>
      <trkpt lat="47.51039" lon="6.69096">
        <ele>369</ele>
        <time>2015-01-25T11:04:16.000Z</time>
      </trkpt>
      <trkpt lat="47.51036" lon="6.69103">
        <ele>369</ele>
        <time>2015-01-25T11:04:17.000Z</time>
      </trkpt>
      <trkpt lat="47.51033" lon="6.69109">
        <ele>369</ele>
        <time>2015-01-25T11:04:18.000Z</time>
      </trkpt>
      <trkpt lat="47.51031" lon="6.69113">
        <ele>369</ele>
        <time>2015-01-25T11:04:19.000Z</time>
      </trkpt>
      <trkpt lat="47.51028" lon="6.69118">
        <ele>369</ele>
        <time>2015-01-25T11:04:20.000Z</time>
      </trkpt>
      <trkpt lat="47.51026" lon="6.69123">
        <ele>369</ele>
        <time>2015-01-25T11:04:21.000Z</time>
      </trkpt>
      <trkpt lat="47.51023" lon="6.69128">
        <ele>369</ele>
        <time>2015-01-25T11:04:22.000Z</time>
      </trkpt>
      <trkpt lat="47.51021" lon="6.69132">
        <ele>369</ele>
        <time>2015-01-25T11:04:23.000Z</time>
      </trkpt>
      <trkpt lat="47.51017" lon="6.69138">
        <ele>370</ele>
        <time>2015-01-25T11:04:24.000Z</time>
      </trkpt>
      <trkpt lat="47.51015" lon="6.69141">
        <ele>370</ele>
        <time>2015-01-25T11:04:25.000Z</time>
      </trkpt>
      <trkpt lat="47.51012" lon="6.69145">
        <ele>370</ele>
        <time>2015-01-25T11:04:26.000Z</time>
      </trkpt>
      <trkpt lat="47.51009" lon="6.69149">
        <ele>370</ele>
        <time>2015-01-25T11:04:27.000Z</time>
      </trkpt>
      <trkpt lat="47.51006" lon="6.69155">
        <ele>370</ele>
        <time>2015-01-25T11:04:28.000Z</time>
      </trkpt>
      <trkpt lat="47.51003" lon="6.69159">
        <ele>370</ele>
        <time>2015-01-25T11:04:29.000Z</time>
      </trkpt>
      <trkpt lat="47.51" lon="6.69164">
        <ele>370</ele>
        <time>2015-01-25T11:04:30.000Z</time>
      </trkpt>
      <trkpt lat="47.50997" lon="6.69168">
        <ele>370</ele>
        <time>2015-01-25T11:04:31.000Z</time>
      </trkpt>
      <trkpt lat="47.50993" lon="6.69173">
        <ele>371</ele>
        <time>2015-01-25T11:04:32.000Z</time>
      </trkpt>
      <trkpt lat="47.50989" lon="6.69178">
        <ele>371</ele>
        <time>2015-01-25T11:04:33.000Z</time>
      </trkpt>
      <trkpt lat="47.50986" lon="6.69184">
        <ele>371</ele>
        <time>2015-01-25T11:04:34.000Z</time>
      </trkpt>
      <trkpt lat="47.50983" lon="6.6919">
        <ele>372</ele>
        <time>2015-01-25T11:04:35.000Z</time>
      </trkpt>
      <trkpt lat="47.5098" lon="6.69195">
        <ele>372</ele>
        <time>2015-01-25T11:04:36.000Z</time>
      </trkpt>
      <trkpt lat="47.50978" lon="6.69199">
        <ele>372</ele>
        <time>2015-01-25T11:04:37.000Z</time>
      </trkpt>
      <trkpt lat="47.50976" lon="6.69205">
        <ele>372</ele>
        <time>2015-01-25T11:04:38.000Z</time>
      </trkpt>
      <trkpt lat="47.50974" lon="6.6921">
        <ele>372</ele>
        <time>2015-01-25T11:04:39.000Z</time>
      </trkpt>
      <trkpt lat="47.50972" lon="6.69215">
        <ele>372</ele>
        <time>2015-01-25T11:04:40.000Z</time>
      </trkpt>
      <trkpt lat="47.5097" lon="6.69219">
        <ele>373</ele>
        <time>2015-01-25T11:04:41.000Z</time>
      </trkpt>
      <trkpt lat="47.50968" lon="6.69223">
        <ele>373</ele>
        <time>2015-01-25T11:04:42.000Z</time>
      </trkpt>
      <trkpt lat="47.50966" lon="6.69228">
        <ele>373</ele>
        <time>2015-01-25T11:04:43.000Z</time>
      </trkpt>
      <trkpt lat="47.50964" lon="6.69232">
        <ele>373</ele>
        <time>2015-01-25T11:04:44.000Z</time>
      </trkpt>
      <trkpt lat="47.50958" lon="6.69244">
        <ele>373</ele>
        <time>2015-01-25T11:04:47.000Z</time>
      </trkpt>
      <trkpt lat="47.50956" lon="6.69248">
        <ele>373</ele>
        <time>2015-01-25T11:04:48.000Z</time>
      </trkpt>
      <trkpt lat="47.50953" lon="6.69253">
        <ele>376</ele>
        <time>2015-01-25T11:04:48.999Z</time>
      </trkpt>
      <trkpt lat="47.50951" lon="6.69257">
        <ele>376</ele>
        <time>2015-01-25T11:04:50.000Z</time>
      </trkpt>
      <trkpt lat="47.50948" lon="6.69262">
        <ele>376</ele>
        <time>2015-01-25T11:04:51.000Z</time>
      </trkpt>
      <trkpt lat="47.50945" lon="6.69266">
        <ele>376</ele>
        <time>2015-01-25T11:04:51.999Z</time>
      </trkpt>
      <trkpt lat="47.50943" lon="6.6927">
        <ele>376</ele>
        <time>2015-01-25T11:04:53.000Z</time>
      </trkpt>
      <trkpt lat="47.5094" lon="6.69274">
        <ele>376</ele>
        <time>2015-01-25T11:04:54.000Z</time>
      </trkpt>
      <trkpt lat="47.50937" lon="6.69279">
        <ele>376</ele>
        <time>2015-01-25T11:04:55.000Z</time>
      </trkpt>
      <trkpt lat="47.50935" lon="6.69283">
        <ele>376</ele>
        <time>2015-01-25T11:04:56.001Z</time>
      </trkpt>
      <trkpt lat="47.50932" lon="6.69287">
        <ele>376</ele>
        <time>2015-01-25T11:04:57.000Z</time>
      </trkpt>
      <trkpt lat="47.50929" lon="6.69291">
        <ele>376</ele>
        <time>2015-01-25T11:04:58.000Z</time>
      </trkpt>
      <trkpt lat="47.50927" lon="6.69295">
        <ele>377</ele>
        <time>2015-01-25T11:04:59.000Z</time>
      </trkpt>
      <trkpt lat="47.50925" lon="6.69299">
        <ele>377</ele>
        <time>2015-01-25T11:05:00.000Z</time>
      </trkpt>
      <trkpt lat="47.50924" lon="6.69303">
        <ele>377</ele>
        <time>2015-01-25T11:05:01.000Z</time>
      </trkpt>
      <trkpt lat="47.50922" lon="6.69307">
        <ele>377</ele>
        <time>2015-01-25T11:05:02.000Z</time>
      </trkpt>
      <trkpt lat="47.50921" lon="6.69311">
        <ele>377</ele>
        <time>2015-01-25T11:05:03.000Z</time>
      </trkpt>
      <trkpt lat="47.50919" lon="6.69316">
        <ele>377</ele>
        <time>2015-01-25T11:05:04.000Z</time>
      </trkpt>
      <trkpt lat="47.50918" lon="6.6932">
        <ele>378</ele>
        <time>2015-01-25T11:05:05.000Z</time>
      </trkpt>
      <trkpt lat="47.50917" lon="6.69324">
        <ele>378</ele>
        <time>2015-01-25T11:05:06.000Z</time>
      </trkpt>
      <trkpt lat="47.50916" lon="6.69329">
        <ele>378</ele>
        <time>2015-01-25T11:05:07.000Z</time>
      </trkpt>
      <trkpt lat="47.50915" lon="6.69334">
        <ele>379</ele>
        <time>2015-01-25T11:05:08.000Z</time>
      </trkpt>
      <trkpt lat="47.50914" lon="6.69339">
        <ele>379</ele>
        <time>2015-01-25T11:05:09.000Z</time>
      </trkpt>
      <trkpt lat="47.50913" lon="6.69343">
        <ele>379</ele>
        <time>2015-01-25T11:05:10.000Z</time>
      </trkpt>
      <trkpt lat="47.50912" lon="6.69348">
        <ele>379</ele>
        <time>2015-01-25T11:05:11.000Z</time>
      </trkpt>
      <trkpt lat="47.50911" lon="6.69352">
        <ele>379</ele>
        <time>2015-01-25T11:05:12.000Z</time>
      </trkpt>
      <trkpt lat="47.5091" lon="6.69356">
        <ele>379</ele>
        <time>2015-01-25T11:05:13.000Z</time>
      </trkpt>
      <trkpt lat="47.50908" lon="6.69361">
        <ele>379</ele>
        <time>2015-01-25T11:05:14.000Z</time>
      </trkpt>
      <trkpt lat="47.50907" lon="6.69365">
        <ele>379</ele>
        <time>2015-01-25T11:05:15.000Z</time>
      </trkpt>
      <trkpt lat="47.50906" lon="6.69369">
        <ele>379</ele>
        <time>2015-01-25T11:05:16.000Z</time>
      </trkpt>
      <trkpt lat="47.50904" lon="6.69372">
        <ele>379</ele>
        <time>2015-01-25T11:05:17.000Z</time>
      </trkpt>
      <trkpt lat="47.50902" lon="6.69375">
        <ele>379</ele>
        <time>2015-01-25T11:05:18.000Z</time>
      </trkpt>
      <trkpt lat="47.509" lon="6.69378">
        <ele>379</ele>
        <time>2015-01-25T11:05:19.000Z</time>
      </trkpt>
      <trkpt lat="47.50898" lon="6.69381">
        <ele>379</ele>
        <time>2015-01-25T11:05:20.000Z</time>
      </trkpt>
      <trkpt lat="47.50897" lon="6.69383">
        <ele>379</ele>
        <time>2015-01-25T11:05:21.000Z</time>
      </trkpt>
      <trkpt lat="47.50896" lon="6.69389">
        <ele>379</ele>
        <time>2015-01-25T11:05:23.000Z</time>
      </trkpt>
      <trkpt lat="47.50896" lon="6.69393">
        <ele>379</ele>
        <time>2015-01-25T11:05:24.000Z</time>
      </trkpt>
      <trkpt lat="47.50895" lon="6.69397">
        <ele>379</ele>
        <time>2015-01-25T11:05:25.000Z</time>
      </trkpt>
      <trkpt lat="47.50894" lon="6.69402">
        <ele>379</ele>
        <time>2015-01-25T11:05:26.000Z</time>
      </trkpt>
      <trkpt lat="47.50893" lon="6.69406">
        <ele>379</ele>
        <time>2015-01-25T11:05:27.000Z</time>
      </trkpt>
      <trkpt lat="47.50891" lon="6.69411">
        <ele>379</ele>
        <time>2015-01-25T11:05:28.000Z</time>
      </trkpt>
      <trkpt lat="47.50889" lon="6.69415">
        <ele>379</ele>
        <time>2015-01-25T11:05:29.000Z</time>
      </trkpt>
      <trkpt lat="47.50887" lon="6.69421">
        <ele>379</ele>
        <time>2015-01-25T11:05:30.000Z</time>
      </trkpt>
      <trkpt lat="47.50886" lon="6.69426">
        <ele>379</ele>
        <time>2015-01-25T11:05:31.000Z</time>
      </trkpt>
      <trkpt lat="47.50885" lon="6.69432">
        <ele>379</ele>
        <time>2015-01-25T11:05:32.000Z</time>
      </trkpt>
      <trkpt lat="47.50885" lon="6.69438">
        <ele>379</ele>
        <time>2015-01-25T11:05:33.000Z</time>
      </trkpt>
      <trkpt lat="47.50886" lon="6.69444">
        <ele>379</ele>
        <time>2015-01-25T11:05:34.000Z</time>
      </trkpt>
      <trkpt lat="47.50886" lon="6.69451">
        <ele>379</ele>
        <time>2015-01-25T11:05:35.000Z</time>
      </trkpt>
      <trkpt lat="47.50887" lon="6.69458">
        <ele>379</ele>
        <time>2015-01-25T11:05:36.000Z</time>
      </trkpt>
      <trkpt lat="47.50888" lon="6.69464">
        <ele>379</ele>
        <time>2015-01-25T11:05:37.000Z</time>
      </trkpt>
      <trkpt lat="47.50889" lon="6.69471">
        <ele>379</ele>
        <time>2015-01-25T11:05:38.000Z</time>
      </trkpt>
      <trkpt lat="47.5089" lon="6.69477">
        <ele>379</ele>
        <time>2015-01-25T11:05:39.000Z</time>
      </trkpt>
      <trkpt lat="47.5089" lon="6.69483">
        <ele>379</ele>
        <time>2015-01-25T11:05:40.000Z</time>
      </trkpt>
      <trkpt lat="47.50891" lon="6.69489">
        <ele>379</ele>
        <time>2015-01-25T11:05:41.000Z</time>
      </trkpt>
      <trkpt lat="47.50891" lon="6.69494">
        <ele>379</ele>
        <time>2015-01-25T11:05:42.000Z</time>
      </trkpt>
      <trkpt lat="47.50891" lon="6.69499">
        <ele>379</ele>
        <time>2015-01-25T11:05:43.000Z</time>
      </trkpt>
      <trkpt lat="47.5089" lon="6.69504">
        <ele>379</ele>
        <time>2015-01-25T11:05:44.000Z</time>
      </trkpt>
      <trkpt lat="47.50889" lon="6.69509">
        <ele>379</ele>
        <time>2015-01-25T11:05:45.000Z</time>
      </trkpt>
      <trkpt lat="47.50865" lon="6.6954">
        <ele>378</ele>
        <time>2015-01-25T11:05:53.000Z</time>
      </trkpt>
      <trkpt lat="47.5086" lon="6.69545">
        <ele>378</ele>
        <time>2015-01-25T11:05:54.000Z</time>
      </trkpt>
      <trkpt lat="47.50855" lon="6.6955">
        <ele>378</ele>
        <time>2015-01-25T11:05:55.000Z</time>
      </trkpt>
      <trkpt lat="47.5085" lon="6.69556">
        <ele>378</ele>
        <time>2015-01-25T11:05:56.000Z</time>
      </trkpt>
      <trkpt lat="47.50846" lon="6.69562">
        <ele>378</ele>
        <time>2015-01-25T11:05:57.000Z</time>
      </trkpt>
      <trkpt lat="47.50841" lon="6.69567">
        <ele>377</ele>
        <time>2015-01-25T11:05:58.000Z</time>
      </trkpt>
      <trkpt lat="47.50837" lon="6.69572">
        <ele>377</ele>
        <time>2015-01-25T11:05:59.000Z</time>
      </trkpt>
      <trkpt lat="47.50833" lon="6.69577">
        <ele>376</ele>
        <time>2015-01-25T11:06:00.000Z</time>
      </trkpt>
      <trkpt lat="47.50829" lon="6.69581">
        <ele>376</ele>
        <time>2015-01-25T11:06:01.000Z</time>
      </trkpt>
      <trkpt lat="47.50825" lon="6.69585">
        <ele>376</ele>
        <time>2015-01-25T11:06:02.000Z</time>
      </trkpt>
      <trkpt lat="47.50821" lon="6.69589">
        <ele>376</ele>
        <time>2015-01-25T11:06:03.000Z</time>
      </trkpt>
      <trkpt lat="47.50816" lon="6.69593">
        <ele>376</ele>
        <time>2015-01-25T11:06:04.000Z</time>
      </trkpt>
      <trkpt lat="47.50812" lon="6.69599">
        <ele>377</ele>
        <time>2015-01-25T11:06:05.000Z</time>
      </trkpt>
      <trkpt lat="47.50808" lon="6.69603">
        <ele>377</ele>
        <time>2015-01-25T11:06:06.000Z</time>
      </trkpt>
      <trkpt lat="47.50804" lon="6.69608">
        <ele>377</ele>
        <time>2015-01-25T11:06:07.000Z</time>
      </trkpt>
      <trkpt lat="47.50801" lon="6.69611">
        <ele>377</ele>
        <time>2015-01-25T11:06:08.000Z</time>
      </trkpt>
      <trkpt lat="47.50798" lon="6.69616">
        <ele>377</ele>
        <time>2015-01-25T11:06:09.000Z</time>
      </trkpt>
      <trkpt lat="47.50795" lon="6.6962">
        <ele>377</ele>
        <time>2015-01-25T11:06:10.000Z</time>
      </trkpt>
      <trkpt lat="47.50791" lon="6.69623">
        <ele>377</ele>
        <time>2015-01-25T11:06:11.000Z</time>
      </trkpt>
      <trkpt lat="47.50787" lon="6.69627">
        <ele>377</ele>
        <time>2015-01-25T11:06:12.000Z</time>
      </trkpt>
      <trkpt lat="47.50785" lon="6.69631">
        <ele>377</ele>
        <time>2015-01-25T11:06:13.000Z</time>
      </trkpt>
      <trkpt lat="47.50781" lon="6.69635">
        <ele>377</ele>
        <time>2015-01-25T11:06:14.000Z</time>
      </trkpt>
      <trkpt lat="47.50779" lon="6.69639">
        <ele>377</ele>
        <time>2015-01-25T11:06:15.000Z</time>
      </trkpt>
      <trkpt lat="47.50776" lon="6.69643">
        <ele>377</ele>
        <time>2015-01-25T11:06:16.000Z</time>
      </trkpt>
      <trkpt lat="47.50771" lon="6.69646">
        <ele>378</ele>
        <time>2015-01-25T11:06:17.000Z</time>
      </trkpt>
      <trkpt lat="47.50768" lon="6.6965">
        <ele>378</ele>
        <time>2015-01-25T11:06:18.000Z</time>
      </trkpt>
      <trkpt lat="47.50766" lon="6.69655">
        <ele>378</ele>
        <time>2015-01-25T11:06:19.000Z</time>
      </trkpt>
      <trkpt lat="47.50762" lon="6.69658">
        <ele>378</ele>
        <time>2015-01-25T11:06:20.000Z</time>
      </trkpt>
      <trkpt lat="47.50759" lon="6.69661">
        <ele>378</ele>
        <time>2015-01-25T11:06:21.000Z</time>
      </trkpt>
      <trkpt lat="47.50756" lon="6.69665">
        <ele>379</ele>
        <time>2015-01-25T11:06:22.000Z</time>
      </trkpt>
      <trkpt lat="47.50753" lon="6.69668">
        <ele>379</ele>
        <time>2015-01-25T11:06:23.000Z</time>
      </trkpt>
      <trkpt lat="47.5075" lon="6.69672">
        <ele>379</ele>
        <time>2015-01-25T11:06:24.000Z</time>
      </trkpt>
      <trkpt lat="47.50747" lon="6.69675">
        <ele>380</ele>
        <time>2015-01-25T11:06:25.000Z</time>
      </trkpt>
      <trkpt lat="47.50744" lon="6.69679">
        <ele>380</ele>
        <time>2015-01-25T11:06:26.000Z</time>
      </trkpt>
      <trkpt lat="47.5074" lon="6.69682">
        <ele>380</ele>
        <time>2015-01-25T11:06:27.000Z</time>
      </trkpt>
      <trkpt lat="47.50737" lon="6.69686">
        <ele>380</ele>
        <time>2015-01-25T11:06:28.000Z</time>
      </trkpt>
      <trkpt lat="47.50733" lon="6.69689">
        <ele>380</ele>
        <time>2015-01-25T11:06:29.000Z</time>
      </trkpt>
      <trkpt lat="47.5073" lon="6.69692">
        <ele>380</ele>
        <time>2015-01-25T11:06:30.000Z</time>
      </trkpt>
      <trkpt lat="47.50727" lon="6.69695">
        <ele>381</ele>
        <time>2015-01-25T11:06:31.000Z</time>
      </trkpt>
      <trkpt lat="47.50724" lon="6.69698">
        <ele>381</ele>
        <time>2015-01-25T11:06:32.000Z</time>
      </trkpt>
      <trkpt lat="47.50722" lon="6.69701">
        <ele>381</ele>
        <time>2015-01-25T11:06:33.000Z</time>
      </trkpt>
      <trkpt lat="47.50719" lon="6.69704">
        <ele>381</ele>
        <time>2015-01-25T11:06:34.000Z</time>
      </trkpt>
      <trkpt lat="47.50717" lon="6.69707">
        <ele>381</ele>
        <time>2015-01-25T11:06:35.000Z</time>
      </trkpt>
      <trkpt lat="47.50714" lon="6.6971">
        <ele>381</ele>
        <time>2015-01-25T11:06:36.000Z</time>
      </trkpt>
      <trkpt lat="47.50711" lon="6.69713">
        <ele>381</ele>
        <time>2015-01-25T11:06:37.000Z</time>
      </trkpt>
      <trkpt lat="47.50709" lon="6.69716">
        <ele>381</ele>
        <time>2015-01-25T11:06:38.000Z</time>
      </trkpt>
      <trkpt lat="47.50706" lon="6.69719">
        <ele>381</ele>
        <time>2015-01-25T11:06:39.000Z</time>
      </trkpt>
      <trkpt lat="47.50703" lon="6.69722">
        <ele>381</ele>
        <time>2015-01-25T11:06:40.000Z</time>
      </trkpt>
      <trkpt lat="47.50701" lon="6.69725">
        <ele>381</ele>
        <time>2015-01-25T11:06:41.000Z</time>
      </trkpt>
      <trkpt lat="47.50698" lon="6.69728">
        <ele>381</ele>
        <time>2015-01-25T11:06:42.000Z</time>
      </trkpt>
      <trkpt lat="47.50695" lon="6.69731">
        <ele>381</ele>
        <time>2015-01-25T11:06:43.000Z</time>
      </trkpt>
      <trkpt lat="47.50692" lon="6.69734">
        <ele>382</ele>
        <time>2015-01-25T11:06:44.000Z</time>
      </trkpt>
      <trkpt lat="47.50689" lon="6.69738">
        <ele>382</ele>
        <time>2015-01-25T11:06:45.000Z</time>
      </trkpt>
      <trkpt lat="47.50664" lon="6.69759">
        <ele>383</ele>
        <time>2015-01-25T11:06:53.000Z</time>
      </trkpt>
      <trkpt lat="47.50661" lon="6.69762">
        <ele>383</ele>
        <time>2015-01-25T11:06:54.000Z</time>
      </trkpt>
      <trkpt lat="47.50656" lon="6.69768">
        <ele>383</ele>
        <time>2015-01-25T11:06:55.000Z</time>
      </trkpt>
      <trkpt lat="47.50653" lon="6.69771">
        <ele>383</ele>
        <time>2015-01-25T11:06:56.000Z</time>
      </trkpt>
      <trkpt lat="47.50649" lon="6.69774">
        <ele>383</ele>
        <time>2015-01-25T11:06:57.000Z</time>
      </trkpt>
      <trkpt lat="47.50646" lon="6.69778">
        <ele>384</ele>
        <time>2015-01-25T11:06:58.000Z</time>
      </trkpt>
      <trkpt lat="47.50642" lon="6.69781">
        <ele>384</ele>
        <time>2015-01-25T11:06:59.000Z</time>
      </trkpt>
      <trkpt lat="47.50639" lon="6.69785">
        <ele>384</ele>
        <time>2015-01-25T11:07:00.000Z</time>
      </trkpt>
      <trkpt lat="47.50635" lon="6.69789">
        <ele>384</ele>
        <time>2015-01-25T11:07:01.000Z</time>
      </trkpt>
      <trkpt lat="47.50632" lon="6.69793">
        <ele>384</ele>
        <time>2015-01-25T11:07:02.000Z</time>
      </trkpt>
      <trkpt lat="47.50629" lon="6.69795">
        <ele>384</ele>
        <time>2015-01-25T11:07:03.000Z</time>
      </trkpt>
      <trkpt lat="47.50625" lon="6.69799">
        <ele>384</ele>
        <time>2015-01-25T11:07:04.000Z</time>
      </trkpt>
      <trkpt lat="47.50622" lon="6.69802">
        <ele>384</ele>
        <time>2015-01-25T11:07:05.000Z</time>
      </trkpt>
      <trkpt lat="47.50618" lon="6.69806">
        <ele>384</ele>
        <time>2015-01-25T11:07:06.000Z</time>
      </trkpt>
      <trkpt lat="47.50615" lon="6.69809">
        <ele>384</ele>
        <time>2015-01-25T11:07:07.000Z</time>
      </trkpt>
      <trkpt lat="47.50611" lon="6.69812">
        <ele>384</ele>
        <time>2015-01-25T11:07:08.000Z</time>
      </trkpt>
      <trkpt lat="47.50608" lon="6.69815">
        <ele>384</ele>
        <time>2015-01-25T11:07:09.000Z</time>
      </trkpt>
      <trkpt lat="47.50604" lon="6.69819">
        <ele>384</ele>
        <time>2015-01-25T11:07:10.000Z</time>
      </trkpt>
      <trkpt lat="47.50601" lon="6.69822">
        <ele>384</ele>
        <time>2015-01-25T11:07:11.000Z</time>
      </trkpt>
      <trkpt lat="47.50598" lon="6.69826">
        <ele>384</ele>
        <time>2015-01-25T11:07:12.000Z</time>
      </trkpt>
      <trkpt lat="47.50594" lon="6.69829">
        <ele>385</ele>
        <time>2015-01-25T11:07:13.000Z</time>
      </trkpt>
      <trkpt lat="47.50591" lon="6.69833">
        <ele>385</ele>
        <time>2015-01-25T11:07:14.000Z</time>
      </trkpt>
      <trkpt lat="47.50588" lon="6.69836">
        <ele>385</ele>
        <time>2015-01-25T11:07:15.000Z</time>
      </trkpt>
      <trkpt lat="47.50584" lon="6.69839">
        <ele>385</ele>
        <time>2015-01-25T11:07:16.000Z</time>
      </trkpt>
      <trkpt lat="47.50581" lon="6.69842">
        <ele>385</ele>
        <time>2015-01-25T11:07:17.000Z</time>
      </trkpt>
      <trkpt lat="47.50577" lon="6.69845">
        <ele>385</ele>
        <time>2015-01-25T11:07:18.000Z</time>
      </trkpt>
      <trkpt lat="47.50574" lon="6.69848">
        <ele>385</ele>
        <time>2015-01-25T11:07:19.000Z</time>
      </trkpt>
      <trkpt lat="47.50571" lon="6.6985">
        <ele>385</ele>
        <time>2015-01-25T11:07:20.000Z</time>
      </trkpt>
      <trkpt lat="47.50568" lon="6.69853">
        <ele>385</ele>
        <time>2015-01-25T11:07:21.000Z</time>
      </trkpt>
      <trkpt lat="47.50565" lon="6.69856">
        <ele>385</ele>
        <time>2015-01-25T11:07:22.000Z</time>
      </trkpt>
      <trkpt lat="47.50562" lon="6.6986">
        <ele>386</ele>
        <time>2015-01-25T11:07:23.000Z</time>
      </trkpt>
      <trkpt lat="47.50559" lon="6.69863">
        <ele>386</ele>
        <time>2015-01-25T11:07:24.000Z</time>
      </trkpt>
      <trkpt lat="47.50556" lon="6.69866">
        <ele>386</ele>
        <time>2015-01-25T11:07:25.000Z</time>
      </trkpt>
      <trkpt lat="47.50553" lon="6.69869">
        <ele>386</ele>
        <time>2015-01-25T11:07:26.000Z</time>
      </trkpt>
      <trkpt lat="47.50549" lon="6.69872">
        <ele>386</ele>
        <time>2015-01-25T11:07:27.000Z</time>
      </trkpt>
      <trkpt lat="47.50546" lon="6.69875">
        <ele>386</ele>
        <time>2015-01-25T11:07:28.000Z</time>
      </trkpt>
      <trkpt lat="47.50543" lon="6.69878">
        <ele>386</ele>
        <time>2015-01-25T11:07:29.000Z</time>
      </trkpt>
      <trkpt lat="47.5054" lon="6.69881">
        <ele>386</ele>
        <time>2015-01-25T11:07:30.000Z</time>
      </trkpt>
      <trkpt lat="47.50536" lon="6.69884">
        <ele>386</ele>
        <time>2015-01-25T11:07:31.000Z</time>
      </trkpt>
      <trkpt lat="47.50533" lon="6.69887">
        <ele>386</ele>
        <time>2015-01-25T11:07:32.000Z</time>
      </trkpt>
      <trkpt lat="47.5053" lon="6.69891">
        <ele>386</ele>
        <time>2015-01-25T11:07:33.000Z</time>
      </trkpt>
      <trkpt lat="47.50528" lon="6.69894">
        <ele>386</ele>
        <time>2015-01-25T11:07:34.000Z</time>
      </trkpt>
      <trkpt lat="47.50525" lon="6.69898">
        <ele>386</ele>
        <time>2015-01-25T11:07:35.000Z</time>
      </trkpt>
      <trkpt lat="47.50523" lon="6.69901">
        <ele>386</ele>
        <time>2015-01-25T11:07:36.000Z</time>
      </trkpt>
      <trkpt lat="47.5052" lon="6.69904">
        <ele>386</ele>
        <time>2015-01-25T11:07:37.000Z</time>
      </trkpt>
      <trkpt lat="47.50518" lon="6.69907">
        <ele>386</ele>
        <time>2015-01-25T11:07:38.000Z</time>
      </trkpt>
      <trkpt lat="47.50515" lon="6.69909">
        <ele>386</ele>
        <time>2015-01-25T11:07:39.000Z</time>
      </trkpt>
      <trkpt lat="47.50512" lon="6.69912">
        <ele>386</ele>
        <time>2015-01-25T11:07:40.000Z</time>
      </trkpt>
      <trkpt lat="47.50509" lon="6.69915">
        <ele>387</ele>
        <time>2015-01-25T11:07:41.000Z</time>
      </trkpt>
      <trkpt lat="47.50506" lon="6.69917">
        <ele>387</ele>
        <time>2015-01-25T11:07:42.000Z</time>
      </trkpt>
      <trkpt lat="47.50503" lon="6.6992">
        <ele>387</ele>
        <time>2015-01-25T11:07:43.000Z</time>
      </trkpt>
      <trkpt lat="47.505" lon="6.69923">
        <ele>387</ele>
        <time>2015-01-25T11:07:44.000Z</time>
      </trkpt>
      <trkpt lat="47.50491" lon="6.69931">
        <ele>387</ele>
        <time>2015-01-25T11:07:47.000Z</time>
      </trkpt>
      <trkpt lat="47.50488" lon="6.69933">
        <ele>387</ele>
        <time>2015-01-25T11:07:48.000Z</time>
      </trkpt>
      <trkpt lat="47.50485" lon="6.69936">
        <ele>386</ele>
        <time>2015-01-25T11:07:49.000Z</time>
      </trkpt>
      <trkpt lat="47.50481" lon="6.69938">
        <ele>386</ele>
        <time>2015-01-25T11:07:50.000Z</time>
      </trkpt>
      <trkpt lat="47.50477" lon="6.69939">
        <ele>386</ele>
        <time>2015-01-25T11:07:51.000Z</time>
      </trkpt>
      <trkpt lat="47.50471" lon="6.69937">
        <ele>386</ele>
        <time>2015-01-25T11:07:52.000Z</time>
      </trkpt>
      <trkpt lat="47.50468" lon="6.69939">
        <ele>386</ele>
        <time>2015-01-25T11:07:53.000Z</time>
      </trkpt>
      <trkpt lat="47.50465" lon="6.69941">
        <ele>386</ele>
        <time>2015-01-25T11:07:54.001Z</time>
      </trkpt>
      <trkpt lat="47.50462" lon="6.69944">
        <ele>386</ele>
        <time>2015-01-25T11:07:55.000Z</time>
      </trkpt>
      <trkpt lat="47.50459" lon="6.69946">
        <ele>386</ele>
        <time>2015-01-25T11:07:56.000Z</time>
      </trkpt>
      <trkpt lat="47.50454" lon="6.69948">
        <ele>386</ele>
        <time>2015-01-25T11:07:57.000Z</time>
      </trkpt>
      <trkpt lat="47.5045" lon="6.6995">
        <ele>386</ele>
        <time>2015-01-25T11:07:58.000Z</time>
      </trkpt>
      <trkpt lat="47.50446" lon="6.69952">
        <ele>386</ele>
        <time>2015-01-25T11:07:59.000Z</time>
      </trkpt>
      <trkpt lat="47.50442" lon="6.69954">
        <ele>386</ele>
        <time>2015-01-25T11:08:00.000Z</time>
      </trkpt>
      <trkpt lat="47.50439" lon="6.69956">
        <ele>386</ele>
        <time>2015-01-25T11:08:01.000Z</time>
      </trkpt>
      <trkpt lat="47.50435" lon="6.69957">
        <ele>386</ele>
        <time>2015-01-25T11:08:02.000Z</time>
      </trkpt>
      <trkpt lat="47.50431" lon="6.69959">
        <ele>386</ele>
        <time>2015-01-25T11:08:03.000Z</time>
      </trkpt>
      <trkpt lat="47.50428" lon="6.6996">
        <ele>386</ele>
        <time>2015-01-25T11:08:04.000Z</time>
      </trkpt>
      <trkpt lat="47.50425" lon="6.69962">
        <ele>386</ele>
        <time>2015-01-25T11:08:05.000Z</time>
      </trkpt>
      <trkpt lat="47.50421" lon="6.69963">
        <ele>386</ele>
        <time>2015-01-25T11:08:06.000Z</time>
      </trkpt>
      <trkpt lat="47.50418" lon="6.69965">
        <ele>386</ele>
        <time>2015-01-25T11:08:07.000Z</time>
      </trkpt>
      <trkpt lat="47.50414" lon="6.69967">
        <ele>386</ele>
        <time>2015-01-25T11:08:08.000Z</time>
      </trkpt>
      <trkpt lat="47.5041" lon="6.69969">
        <ele>386</ele>
        <time>2015-01-25T11:08:09.000Z</time>
      </trkpt>
      <trkpt lat="47.50406" lon="6.69971">
        <ele>386</ele>
        <time>2015-01-25T11:08:10.000Z</time>
      </trkpt>
      <trkpt lat="47.50401" lon="6.69974">
        <ele>386</ele>
        <time>2015-01-25T11:08:11.000Z</time>
      </trkpt>
      <trkpt lat="47.50396" lon="6.69977">
        <ele>386</ele>
        <time>2015-01-25T11:08:12.000Z</time>
      </trkpt>
      <trkpt lat="47.50392" lon="6.69979">
        <ele>386</ele>
        <time>2015-01-25T11:08:13.000Z</time>
      </trkpt>
      <trkpt lat="47.50386" lon="6.69979">
        <ele>386</ele>
        <time>2015-01-25T11:08:14.000Z</time>
      </trkpt>
      <trkpt lat="47.50382" lon="6.69976">
        <ele>386</ele>
        <time>2015-01-25T11:08:15.000Z</time>
      </trkpt>
      <trkpt lat="47.50377" lon="6.6998">
        <ele>386</ele>
        <time>2015-01-25T11:08:16.000Z</time>
      </trkpt>
      <trkpt lat="47.50374" lon="6.69984">
        <ele>386</ele>
        <time>2015-01-25T11:08:17.000Z</time>
      </trkpt>
      <trkpt lat="47.5037" lon="6.69986">
        <ele>386</ele>
        <time>2015-01-25T11:08:18.000Z</time>
      </trkpt>
      <trkpt lat="47.50366" lon="6.69988">
        <ele>386</ele>
        <time>2015-01-25T11:08:19.000Z</time>
      </trkpt>
      <trkpt lat="47.50361" lon="6.69991">
        <ele>386</ele>
        <time>2015-01-25T11:08:20.000Z</time>
      </trkpt>
      <trkpt lat="47.50357" lon="6.69994">
        <ele>386</ele>
        <time>2015-01-25T11:08:21.000Z</time>
      </trkpt>
      <trkpt lat="47.50353" lon="6.69996">
        <ele>386</ele>
        <time>2015-01-25T11:08:22.000Z</time>
      </trkpt>
      <trkpt lat="47.50347" lon="6.69994">
        <ele>386</ele>
        <time>2015-01-25T11:08:23.000Z</time>
      </trkpt>
      <trkpt lat="47.50343" lon="6.69996">
        <ele>386</ele>
        <time>2015-01-25T11:08:24.000Z</time>
      </trkpt>
      <trkpt lat="47.50338" lon="6.69997">
        <ele>386</ele>
        <time>2015-01-25T11:08:25.000Z</time>
      </trkpt>
      <trkpt lat="47.50334" lon="6.69998">
        <ele>386</ele>
        <time>2015-01-25T11:08:26.000Z</time>
      </trkpt>
      <trkpt lat="47.50328" lon="6.7">
        <ele>386</ele>
        <time>2015-01-25T11:08:27.000Z</time>
      </trkpt>
      <trkpt lat="47.50323" lon="6.70001">
        <ele>385</ele>
        <time>2015-01-25T11:08:28.000Z</time>
      </trkpt>
      <trkpt lat="47.50317" lon="6.70004">
        <ele>385</ele>
        <time>2015-01-25T11:08:29.000Z</time>
      </trkpt>
      <trkpt lat="47.50312" lon="6.70003">
        <ele>385</ele>
        <time>2015-01-25T11:08:30.000Z</time>
      </trkpt>
      <trkpt lat="47.50306" lon="6.70005">
        <ele>385</ele>
        <time>2015-01-25T11:08:31.000Z</time>
      </trkpt>
      <trkpt lat="47.503" lon="6.70005">
        <ele>384</ele>
        <time>2015-01-25T11:08:32.000Z</time>
      </trkpt>
      <trkpt lat="47.50294" lon="6.70008">
        <ele>384</ele>
        <time>2015-01-25T11:08:33.000Z</time>
      </trkpt>
      <trkpt lat="47.50288" lon="6.70011">
        <ele>384</ele>
        <time>2015-01-25T11:08:34.000Z</time>
      </trkpt>
      <trkpt lat="47.50282" lon="6.70013">
        <ele>384</ele>
        <time>2015-01-25T11:08:35.000Z</time>
      </trkpt>
      <trkpt lat="47.50277" lon="6.70015">
        <ele>384</ele>
        <time>2015-01-25T11:08:36.000Z</time>
      </trkpt>
      <trkpt lat="47.50272" lon="6.70018">
        <ele>384</ele>
        <time>2015-01-25T11:08:37.000Z</time>
      </trkpt>
      <trkpt lat="47.50266" lon="6.70021">
        <ele>384</ele>
        <time>2015-01-25T11:08:38.000Z</time>
      </trkpt>
      <trkpt lat="47.50261" lon="6.70023">
        <ele>384</ele>
        <time>2015-01-25T11:08:39.000Z</time>
      </trkpt>
      <trkpt lat="47.50255" lon="6.70027">
        <ele>384</ele>
        <time>2015-01-25T11:08:40.000Z</time>
      </trkpt>
      <trkpt lat="47.50251" lon="6.70031">
        <ele>383</ele>
        <time>2015-01-25T11:08:41.000Z</time>
      </trkpt>
      <trkpt lat="47.50246" lon="6.70035">
        <ele>382</ele>
        <time>2015-01-25T11:08:42.000Z</time>
      </trkpt>
      <trkpt lat="47.50242" lon="6.70039">
        <ele>382</ele>
        <time>2015-01-25T11:08:43.000Z</time>
      </trkpt>
      <trkpt lat="47.50237" lon="6.70043">
        <ele>382</ele>
        <time>2015-01-25T11:08:44.000Z</time>
      </trkpt>
      <trkpt lat="47.50226" lon="6.70059">
        <ele>382</ele>
        <time>2015-01-25T11:08:47.000Z</time>
      </trkpt>
      <trkpt lat="47.50221" lon="6.70067">
        <ele>382</ele>
        <time>2015-01-25T11:08:48.000Z</time>
      </trkpt>
      <trkpt lat="47.50217" lon="6.70073">
        <ele>381</ele>
        <time>2015-01-25T11:08:49.000Z</time>
      </trkpt>
      <trkpt lat="47.50212" lon="6.70081">
        <ele>381</ele>
        <time>2015-01-25T11:08:50.000Z</time>
      </trkpt>
      <trkpt lat="47.50208" lon="6.70088">
        <ele>380</ele>
        <time>2015-01-25T11:08:51.000Z</time>
      </trkpt>
      <trkpt lat="47.50201" lon="6.70092">
        <ele>380</ele>
        <time>2015-01-25T11:08:52.000Z</time>
      </trkpt>
      <trkpt lat="47.50197" lon="6.70099">
        <ele>380</ele>
        <time>2015-01-25T11:08:53.000Z</time>
      </trkpt>
      <trkpt lat="47.50192" lon="6.70105">
        <ele>380</ele>
        <time>2015-01-25T11:08:54.000Z</time>
      </trkpt>
      <trkpt lat="47.50188" lon="6.7011">
        <ele>380</ele>
        <time>2015-01-25T11:08:55.000Z</time>
      </trkpt>
      <trkpt lat="47.50181" lon="6.70116">
        <ele>380</ele>
        <time>2015-01-25T11:08:56.000Z</time>
      </trkpt>
      <trkpt lat="47.50175" lon="6.70122">
        <ele>379</ele>
        <time>2015-01-25T11:08:57.000Z</time>
      </trkpt>
      <trkpt lat="47.50169" lon="6.70128">
        <ele>379</ele>
        <time>2015-01-25T11:08:58.000Z</time>
      </trkpt>
      <trkpt lat="47.50163" lon="6.70134">
        <ele>378</ele>
        <time>2015-01-25T11:08:59.000Z</time>
      </trkpt>
      <trkpt lat="47.50156" lon="6.7014">
        <ele>378</ele>
        <time>2015-01-25T11:09:00.000Z</time>
      </trkpt>
      <trkpt lat="47.5015" lon="6.70146">
        <ele>378</ele>
        <time>2015-01-25T11:09:01.000Z</time>
      </trkpt>
      <trkpt lat="47.50143" lon="6.70153">
        <ele>377</ele>
        <time>2015-01-25T11:09:02.000Z</time>
      </trkpt>
      <trkpt lat="47.50136" lon="6.70163">
        <ele>377</ele>
        <time>2015-01-25T11:09:03.000Z</time>
      </trkpt>
      <trkpt lat="47.50131" lon="6.70176">
        <ele>375</ele>
        <time>2015-01-25T11:09:04.000Z</time>
      </trkpt>
      <trkpt lat="47.50124" lon="6.70185">
        <ele>375</ele>
        <time>2015-01-25T11:09:05.000Z</time>
      </trkpt>
      <trkpt lat="47.50117" lon="6.70196">
        <ele>375</ele>
        <time>2015-01-25T11:09:06.000Z</time>
      </trkpt>
      <trkpt lat="47.50109" lon="6.70206">
        <ele>375</ele>
        <time>2015-01-25T11:09:07.000Z</time>
      </trkpt>
      <trkpt lat="47.50102" lon="6.70214">
        <ele>374</ele>
        <time>2015-01-25T11:09:08.000Z</time>
      </trkpt>
      <trkpt lat="47.50094" lon="6.70223">
        <ele>374</ele>
        <time>2015-01-25T11:09:09.000Z</time>
      </trkpt>
      <trkpt lat="47.50086" lon="6.7023">
        <ele>374</ele>
        <time>2015-01-25T11:09:10.000Z</time>
      </trkpt>
      <trkpt lat="47.50078" lon="6.70237">
        <ele>373</ele>
        <time>2015-01-25T11:09:11.000Z</time>
      </trkpt>
      <trkpt lat="47.5007" lon="6.70243">
        <ele>373</ele>
        <time>2015-01-25T11:09:12.000Z</time>
      </trkpt>
      <trkpt lat="47.50063" lon="6.7025">
        <ele>373</ele>
        <time>2015-01-25T11:09:13.000Z</time>
      </trkpt>
      <trkpt lat="47.50056" lon="6.70256">
        <ele>373</ele>
        <time>2015-01-25T11:09:14.000Z</time>
      </trkpt>
      <trkpt lat="47.5005" lon="6.70266">
        <ele>373</ele>
        <time>2015-01-25T11:09:15.000Z</time>
      </trkpt>
      <trkpt lat="47.50045" lon="6.70274">
        <ele>373</ele>
        <time>2015-01-25T11:09:16.000Z</time>
      </trkpt>
      <trkpt lat="47.50039" lon="6.70283">
        <ele>373</ele>
        <time>2015-01-25T11:09:17.000Z</time>
      </trkpt>
      <trkpt lat="47.50034" lon="6.70291">
        <ele>373</ele>
        <time>2015-01-25T11:09:18.000Z</time>
      </trkpt>
      <trkpt lat="47.5003" lon="6.703">
        <ele>373</ele>
        <time>2015-01-25T11:09:19.000Z</time>
      </trkpt>
      <trkpt lat="47.50025" lon="6.70308">
        <ele>373</ele>
        <time>2015-01-25T11:09:20.000Z</time>
      </trkpt>
      <trkpt lat="47.5002" lon="6.70317">
        <ele>373</ele>
        <time>2015-01-25T11:09:21.000Z</time>
      </trkpt>
      <trkpt lat="47.50016" lon="6.70326">
        <ele>373</ele>
        <time>2015-01-25T11:09:22.000Z</time>
      </trkpt>
      <trkpt lat="47.5001" lon="6.70334">
        <ele>373</ele>
        <time>2015-01-25T11:09:23.000Z</time>
      </trkpt>
      <trkpt lat="47.50006" lon="6.7034">
        <ele>373</ele>
        <time>2015-01-25T11:09:24.000Z</time>
      </trkpt>
      <trkpt lat="47.50001" lon="6.70349">
        <ele>373</ele>
        <time>2015-01-25T11:09:25.000Z</time>
      </trkpt>
      <trkpt lat="47.49997" lon="6.70356">
        <ele>374</ele>
        <time>2015-01-25T11:09:26.000Z</time>
      </trkpt>
      <trkpt lat="47.49991" lon="6.70364">
        <ele>374</ele>
        <time>2015-01-25T11:09:27.000Z</time>
      </trkpt>
      <trkpt lat="47.49986" lon="6.70371">
        <ele>374</ele>
        <time>2015-01-25T11:09:28.000Z</time>
      </trkpt>
      <trkpt lat="47.49981" lon="6.70377">
        <ele>374</ele>
        <time>2015-01-25T11:09:29.000Z</time>
      </trkpt>
      <trkpt lat="47.49976" lon="6.70383">
        <ele>374</ele>
        <time>2015-01-25T11:09:30.000Z</time>
      </trkpt>
      <trkpt lat="47.4997" lon="6.7039">
        <ele>374</ele>
        <time>2015-01-25T11:09:31.000Z</time>
      </trkpt>
      <trkpt lat="47.49965" lon="6.70396">
        <ele>374</ele>
        <time>2015-01-25T11:09:32.000Z</time>
      </trkpt>
      <trkpt lat="47.49959" lon="6.70403">
        <ele>374</ele>
        <time>2015-01-25T11:09:33.000Z</time>
      </trkpt>
      <trkpt lat="47.49954" lon="6.7041">
        <ele>374</ele>
        <time>2015-01-25T11:09:34.000Z</time>
      </trkpt>
      <trkpt lat="47.49949" lon="6.70412">
        <ele>374</ele>
        <time>2015-01-25T11:09:35.000Z</time>
      </trkpt>
      <trkpt lat="47.49944" lon="6.70418">
        <ele>375</ele>
        <time>2015-01-25T11:09:36.000Z</time>
      </trkpt>
      <trkpt lat="47.49939" lon="6.70427">
        <ele>375</ele>
        <time>2015-01-25T11:09:37.000Z</time>
      </trkpt>
      <trkpt lat="47.49935" lon="6.70434">
        <ele>375</ele>
        <time>2015-01-25T11:09:38.000Z</time>
      </trkpt>
      <trkpt lat="47.49931" lon="6.7044">
        <ele>375</ele>
        <time>2015-01-25T11:09:39.000Z</time>
      </trkpt>
      <trkpt lat="47.49927" lon="6.70446">
        <ele>375</ele>
        <time>2015-01-25T11:09:40.000Z</time>
      </trkpt>
      <trkpt lat="47.49923" lon="6.70452">
        <ele>375</ele>
        <time>2015-01-25T11:09:41.000Z</time>
      </trkpt>
      <trkpt lat="47.49919" lon="6.70458">
        <ele>375</ele>
        <time>2015-01-25T11:09:42.000Z</time>
      </trkpt>
      <trkpt lat="47.49914" lon="6.70464">
        <ele>374</ele>
        <time>2015-01-25T11:09:43.000Z</time>
      </trkpt>
      <trkpt lat="47.4991" lon="6.70469">
        <ele>374</ele>
        <time>2015-01-25T11:09:44.000Z</time>
      </trkpt>
      <trkpt lat="47.49906" lon="6.70478">
        <ele>374</ele>
        <time>2015-01-25T11:09:45.000Z</time>
      </trkpt>
      <trkpt lat="47.49898" lon="6.70498">
        <ele>374</ele>
        <time>2015-01-25T11:09:48.000Z</time>
      </trkpt>
      <trkpt lat="47.499" lon="6.70512">
        <ele>375</ele>
        <time>2015-01-25T11:09:49.000Z</time>
      </trkpt>
      <trkpt lat="47.49901" lon="6.70523">
        <ele>375</ele>
        <time>2015-01-25T11:09:50.000Z</time>
      </trkpt>
      <trkpt lat="47.49901" lon="6.70536">
        <ele>375</ele>
        <time>2015-01-25T11:09:51.000Z</time>
      </trkpt>
      <trkpt lat="47.499" lon="6.70549">
        <ele>375</ele>
        <time>2015-01-25T11:09:52.000Z</time>
      </trkpt>
      <trkpt lat="47.499" lon="6.70557">
        <ele>375</ele>
        <time>2015-01-25T11:09:53.000Z</time>
      </trkpt>
      <trkpt lat="47.49901" lon="6.70566">
        <ele>375</ele>
        <time>2015-01-25T11:09:54.000Z</time>
      </trkpt>
      <trkpt lat="47.499" lon="6.70576">
        <ele>375</ele>
        <time>2015-01-25T11:09:55.000Z</time>
      </trkpt>
      <trkpt lat="47.499" lon="6.70584">
        <ele>376</ele>
        <time>2015-01-25T11:09:56.000Z</time>
      </trkpt>
      <trkpt lat="47.499" lon="6.70593">
        <ele>376</ele>
        <time>2015-01-25T11:09:57.000Z</time>
      </trkpt>
      <trkpt lat="47.49901" lon="6.70601">
        <ele>375</ele>
        <time>2015-01-25T11:09:58.000Z</time>
      </trkpt>
      <trkpt lat="47.49901" lon="6.70608">
        <ele>375</ele>
        <time>2015-01-25T11:09:59.000Z</time>
      </trkpt>
      <trkpt lat="47.49901" lon="6.70616">
        <ele>375</ele>
        <time>2015-01-25T11:10:00.000Z</time>
      </trkpt>
      <trkpt lat="47.49901" lon="6.70624">
        <ele>375</ele>
        <time>2015-01-25T11:10:01.000Z</time>
      </trkpt>
      <trkpt lat="47.49901" lon="6.7063">
        <ele>375</ele>
        <time>2015-01-25T11:10:02.000Z</time>
      </trkpt>
      <trkpt lat="47.49901" lon="6.70637">
        <ele>376</ele>
        <time>2015-01-25T11:10:03.000Z</time>
      </trkpt>
      <trkpt lat="47.49902" lon="6.70644">
        <ele>376</ele>
        <time>2015-01-25T11:10:04.000Z</time>
      </trkpt>
      <trkpt lat="47.49902" lon="6.7065">
        <ele>376</ele>
        <time>2015-01-25T11:10:05.000Z</time>
      </trkpt>
      <trkpt lat="47.49902" lon="6.70657">
        <ele>376</ele>
        <time>2015-01-25T11:10:06.000Z</time>
      </trkpt>
      <trkpt lat="47.49903" lon="6.70664">
        <ele>376</ele>
        <time>2015-01-25T11:10:07.000Z</time>
      </trkpt>
      <trkpt lat="47.49903" lon="6.7067">
        <ele>376</ele>
        <time>2015-01-25T11:10:08.000Z</time>
      </trkpt>
      <trkpt lat="47.49903" lon="6.70677">
        <ele>376</ele>
        <time>2015-01-25T11:10:09.000Z</time>
      </trkpt>
      <trkpt lat="47.49904" lon="6.70683">
        <ele>376</ele>
        <time>2015-01-25T11:10:10.000Z</time>
      </trkpt>
      <trkpt lat="47.49904" lon="6.70689">
        <ele>376</ele>
        <time>2015-01-25T11:10:11.000Z</time>
      </trkpt>
      <trkpt lat="47.49904" lon="6.70697">
        <ele>376</ele>
        <time>2015-01-25T11:10:12.000Z</time>
      </trkpt>
      <trkpt lat="47.49904" lon="6.70704">
        <ele>376</ele>
        <time>2015-01-25T11:10:13.000Z</time>
      </trkpt>
      <trkpt lat="47.49905" lon="6.70711">
        <ele>376</ele>
        <time>2015-01-25T11:10:14.000Z</time>
      </trkpt>
      <trkpt lat="47.49905" lon="6.70718">
        <ele>376</ele>
        <time>2015-01-25T11:10:15.000Z</time>
      </trkpt>
      <trkpt lat="47.49905" lon="6.70726">
        <ele>376</ele>
        <time>2015-01-25T11:10:16.000Z</time>
      </trkpt>
      <trkpt lat="47.49905" lon="6.70733">
        <ele>376</ele>
        <time>2015-01-25T11:10:17.000Z</time>
      </trkpt>
      <trkpt lat="47.49906" lon="6.7074">
        <ele>376</ele>
        <time>2015-01-25T11:10:18.000Z</time>
      </trkpt>
      <trkpt lat="47.49906" lon="6.70747">
        <ele>376</ele>
        <time>2015-01-25T11:10:19.000Z</time>
      </trkpt>
      <trkpt lat="47.49907" lon="6.70753">
        <ele>376</ele>
        <time>2015-01-25T11:10:20.000Z</time>
      </trkpt>
      <trkpt lat="47.49907" lon="6.70759">
        <ele>376</ele>
        <time>2015-01-25T11:10:21.000Z</time>
      </trkpt>
      <trkpt lat="47.49907" lon="6.70765">
        <ele>376</ele>
        <time>2015-01-25T11:10:22.000Z</time>
      </trkpt>
      <trkpt lat="47.49907" lon="6.70773">
        <ele>376</ele>
        <time>2015-01-25T11:10:23.000Z</time>
      </trkpt>
      <trkpt lat="47.49908" lon="6.7078">
        <ele>376</ele>
        <time>2015-01-25T11:10:24.000Z</time>
      </trkpt>
      <trkpt lat="47.49907" lon="6.70788">
        <ele>376</ele>
        <time>2015-01-25T11:10:25.000Z</time>
      </trkpt>
      <trkpt lat="47.49907" lon="6.70796">
        <ele>376</ele>
        <time>2015-01-25T11:10:26.000Z</time>
      </trkpt>
      <trkpt lat="47.49906" lon="6.70804">
        <ele>376</ele>
        <time>2015-01-25T11:10:27.000Z</time>
      </trkpt>
      <trkpt lat="47.49906" lon="6.70812">
        <ele>376</ele>
        <time>2015-01-25T11:10:28.000Z</time>
      </trkpt>
      <trkpt lat="47.49905" lon="6.70821">
        <ele>375</ele>
        <time>2015-01-25T11:10:29.000Z</time>
      </trkpt>
      <trkpt lat="47.49905" lon="6.70829">
        <ele>375</ele>
        <time>2015-01-25T11:10:30.000Z</time>
      </trkpt>
      <trkpt lat="47.49904" lon="6.70838">
        <ele>375</ele>
        <time>2015-01-25T11:10:31.000Z</time>
      </trkpt>
      <trkpt lat="47.49903" lon="6.70847">
        <ele>375</ele>
        <time>2015-01-25T11:10:32.000Z</time>
      </trkpt>
      <trkpt lat="47.49903" lon="6.70856">
        <ele>375</ele>
        <time>2015-01-25T11:10:33.000Z</time>
      </trkpt>
      <trkpt lat="47.49903" lon="6.70866">
        <ele>375</ele>
        <time>2015-01-25T11:10:34.000Z</time>
      </trkpt>
      <trkpt lat="47.49902" lon="6.70876">
        <ele>375</ele>
        <time>2015-01-25T11:10:35.000Z</time>
      </trkpt>
      <trkpt lat="47.49901" lon="6.70886">
        <ele>374</ele>
        <time>2015-01-25T11:10:36.000Z</time>
      </trkpt>
      <trkpt lat="47.49901" lon="6.70897">
        <ele>374</ele>
        <time>2015-01-25T11:10:37.000Z</time>
      </trkpt>
      <trkpt lat="47.49899" lon="6.70908">
        <ele>374</ele>
        <time>2015-01-25T11:10:38.000Z</time>
      </trkpt>
      <trkpt lat="47.49897" lon="6.7092">
        <ele>373</ele>
        <time>2015-01-25T11:10:39.000Z</time>
      </trkpt>
      <trkpt lat="47.49896" lon="6.70932">
        <ele>373</ele>
        <time>2015-01-25T11:10:40.000Z</time>
      </trkpt>
      <trkpt lat="47.49895" lon="6.70944">
        <ele>373</ele>
        <time>2015-01-25T11:10:41.000Z</time>
      </trkpt>
      <trkpt lat="47.49894" lon="6.70957">
        <ele>373</ele>
        <time>2015-01-25T11:10:42.000Z</time>
      </trkpt>
      <trkpt lat="47.49893" lon="6.7097">
        <ele>373</ele>
        <time>2015-01-25T11:10:43.000Z</time>
      </trkpt>
      <trkpt lat="47.49893" lon="6.70983">
        <ele>373</ele>
        <time>2015-01-25T11:10:44.000Z</time>
      </trkpt>
      <trkpt lat="47.49892" lon="6.70996">
        <ele>372</ele>
        <time>2015-01-25T11:10:45.000Z</time>
      </trkpt>
      <trkpt lat="47.49893" lon="6.71093">
        <ele>371</ele>
        <time>2015-01-25T11:10:53.000Z</time>
      </trkpt>
      <trkpt lat="47.49894" lon="6.71104">
        <ele>371</ele>
        <time>2015-01-25T11:10:54.000Z</time>
      </trkpt>
      <trkpt lat="47.49896" lon="6.71115">
        <ele>371</ele>
        <time>2015-01-25T11:10:55.000Z</time>
      </trkpt>
      <trkpt lat="47.49896" lon="6.71126">
        <ele>371</ele>
        <time>2015-01-25T11:10:56.000Z</time>
      </trkpt>
      <trkpt lat="47.49898" lon="6.71137">
        <ele>370</ele>
        <time>2015-01-25T11:10:57.000Z</time>
      </trkpt>
      <trkpt lat="47.49899" lon="6.71148">
        <ele>370</ele>
        <time>2015-01-25T11:10:58.000Z</time>
      </trkpt>
      <trkpt lat="47.499" lon="6.71159">
        <ele>370</ele>
        <time>2015-01-25T11:10:59.000Z</time>
      </trkpt>
      <trkpt lat="47.499" lon="6.71171">
        <ele>370</ele>
        <time>2015-01-25T11:11:00.000Z</time>
      </trkpt>
      <trkpt lat="47.49901" lon="6.71183">
        <ele>370</ele>
        <time>2015-01-25T11:11:01.000Z</time>
      </trkpt>
      <trkpt lat="47.49902" lon="6.71194">
        <ele>370</ele>
        <time>2015-01-25T11:11:02.000Z</time>
      </trkpt>
      <trkpt lat="47.49902" lon="6.71206">
        <ele>370</ele>
        <time>2015-01-25T11:11:03.000Z</time>
      </trkpt>
      <trkpt lat="47.49903" lon="6.71218">
        <ele>370</ele>
        <time>2015-01-25T11:11:04.000Z</time>
      </trkpt>
      <trkpt lat="47.49903" lon="6.71229">
        <ele>370</ele>
        <time>2015-01-25T11:11:05.000Z</time>
      </trkpt>
      <trkpt lat="47.49904" lon="6.71241">
        <ele>370</ele>
        <time>2015-01-25T11:11:06.000Z</time>
      </trkpt>
      <trkpt lat="47.49905" lon="6.71252">
        <ele>369</ele>
        <time>2015-01-25T11:11:07.000Z</time>
      </trkpt>
      <trkpt lat="47.49905" lon="6.71263">
        <ele>370</ele>
        <time>2015-01-25T11:11:08.000Z</time>
      </trkpt>
      <trkpt lat="47.49906" lon="6.71274">
        <ele>370</ele>
        <time>2015-01-25T11:11:09.000Z</time>
      </trkpt>
      <trkpt lat="47.49907" lon="6.71285">
        <ele>370</ele>
        <time>2015-01-25T11:11:10.000Z</time>
      </trkpt>
      <trkpt lat="47.49906" lon="6.71297">
        <ele>370</ele>
        <time>2015-01-25T11:11:11.000Z</time>
      </trkpt>
      <trkpt lat="47.49907" lon="6.71308">
        <ele>370</ele>
        <time>2015-01-25T11:11:12.000Z</time>
      </trkpt>
      <trkpt lat="47.49908" lon="6.7132">
        <ele>369</ele>
        <time>2015-01-25T11:11:13.000Z</time>
      </trkpt>
      <trkpt lat="47.49909" lon="6.71332">
        <ele>368</ele>
        <time>2015-01-25T11:11:14.000Z</time>
      </trkpt>
      <trkpt lat="47.49909" lon="6.71343">
        <ele>368</ele>
        <time>2015-01-25T11:11:15.000Z</time>
      </trkpt>
      <trkpt lat="47.4991" lon="6.71355">
        <ele>369</ele>
        <time>2015-01-25T11:11:16.000Z</time>
      </trkpt>
      <trkpt lat="47.4991" lon="6.71367">
        <ele>369</ele>
        <time>2015-01-25T11:11:17.000Z</time>
      </trkpt>
      <trkpt lat="47.49909" lon="6.71379">
        <ele>369</ele>
        <time>2015-01-25T11:11:18.000Z</time>
      </trkpt>
      <trkpt lat="47.49909" lon="6.71391">
        <ele>368</ele>
        <time>2015-01-25T11:11:19.000Z</time>
      </trkpt>
      <trkpt lat="47.49908" lon="6.71403">
        <ele>368</ele>
        <time>2015-01-25T11:11:20.000Z</time>
      </trkpt>
      <trkpt lat="47.49908" lon="6.71415">
        <ele>367</ele>
        <time>2015-01-25T11:11:21.000Z</time>
      </trkpt>
      <trkpt lat="47.49907" lon="6.71426">
        <ele>366</ele>
        <time>2015-01-25T11:11:22.000Z</time>
      </trkpt>
      <trkpt lat="47.49907" lon="6.71438">
        <ele>367</ele>
        <time>2015-01-25T11:11:23.000Z</time>
      </trkpt>
      <trkpt lat="47.49906" lon="6.71451">
        <ele>367</ele>
        <time>2015-01-25T11:11:24.000Z</time>
      </trkpt>
      <trkpt lat="47.49905" lon="6.71463">
        <ele>367</ele>
        <time>2015-01-25T11:11:25.000Z</time>
      </trkpt>
      <trkpt lat="47.49904" lon="6.71475">
        <ele>366</ele>
        <time>2015-01-25T11:11:26.000Z</time>
      </trkpt>
      <trkpt lat="47.49903" lon="6.71488">
        <ele>365</ele>
        <time>2015-01-25T11:11:27.000Z</time>
      </trkpt>
      <trkpt lat="47.49901" lon="6.71501">
        <ele>364</ele>
        <time>2015-01-25T11:11:28.000Z</time>
      </trkpt>
      <trkpt lat="47.499" lon="6.71517">
        <ele>364</ele>
        <time>2015-01-25T11:11:29.000Z</time>
      </trkpt>
      <trkpt lat="47.49899" lon="6.71531">
        <ele>365</ele>
        <time>2015-01-25T11:11:30.000Z</time>
      </trkpt>
      <trkpt lat="47.49899" lon="6.71546">
        <ele>365</ele>
        <time>2015-01-25T11:11:31.000Z</time>
      </trkpt>
      <trkpt lat="47.49898" lon="6.71561">
        <ele>365</ele>
        <time>2015-01-25T11:11:32.000Z</time>
      </trkpt>
      <trkpt lat="47.49898" lon="6.71576">
        <ele>364</ele>
        <time>2015-01-25T11:11:33.000Z</time>
      </trkpt>
      <trkpt lat="47.49899" lon="6.71591">
        <ele>364</ele>
        <time>2015-01-25T11:11:34.000Z</time>
      </trkpt>
      <trkpt lat="47.49899" lon="6.71605">
        <ele>364</ele>
        <time>2015-01-25T11:11:35.000Z</time>
      </trkpt>
      <trkpt lat="47.49901" lon="6.71618">
        <ele>364</ele>
        <time>2015-01-25T11:11:36.000Z</time>
      </trkpt>
      <trkpt lat="47.49903" lon="6.71631">
        <ele>364</ele>
        <time>2015-01-25T11:11:37.000Z</time>
      </trkpt>
      <trkpt lat="47.49904" lon="6.71644">
        <ele>364</ele>
        <time>2015-01-25T11:11:38.000Z</time>
      </trkpt>
      <trkpt lat="47.49906" lon="6.71655">
        <ele>363</ele>
        <time>2015-01-25T11:11:39.000Z</time>
      </trkpt>
      <trkpt lat="47.49907" lon="6.71667">
        <ele>362</ele>
        <time>2015-01-25T11:11:40.000Z</time>
      </trkpt>
      <trkpt lat="47.49908" lon="6.71679">
        <ele>362</ele>
        <time>2015-01-25T11:11:41.000Z</time>
      </trkpt>
      <trkpt lat="47.49909" lon="6.71689">
        <ele>363</ele>
        <time>2015-01-25T11:11:42.000Z</time>
      </trkpt>
      <trkpt lat="47.49909" lon="6.717">
        <ele>363</ele>
        <time>2015-01-25T11:11:43.000Z</time>
      </trkpt>
      <trkpt lat="47.4991" lon="6.71711">
        <ele>363</ele>
        <time>2015-01-25T11:11:44.000Z</time>
      </trkpt>
      <trkpt lat="47.49914" lon="6.71741">
        <ele>361</ele>
        <time>2015-01-25T11:11:47.000Z</time>
      </trkpt>
      <trkpt lat="47.49916" lon="6.71751">
        <ele>360</ele>
        <time>2015-01-25T11:11:48.000Z</time>
      </trkpt>
      <trkpt lat="47.49916" lon="6.71762">
        <ele>361</ele>
        <time>2015-01-25T11:11:49.000Z</time>
      </trkpt>
      <trkpt lat="47.49917" lon="6.71773">
        <ele>360</ele>
        <time>2015-01-25T11:11:50.000Z</time>
      </trkpt>
      <trkpt lat="47.49918" lon="6.71783">
        <ele>360</ele>
        <time>2015-01-25T11:11:51.000Z</time>
      </trkpt>
      <trkpt lat="47.49919" lon="6.71794">
        <ele>360</ele>
        <time>2015-01-25T11:11:52.000Z</time>
      </trkpt>
      <trkpt lat="47.4992" lon="6.71806">
        <ele>360</ele>
        <time>2015-01-25T11:11:53.000Z</time>
      </trkpt>
      <trkpt lat="47.49921" lon="6.71816">
        <ele>360</ele>
        <time>2015-01-25T11:11:54.000Z</time>
      </trkpt>
      <trkpt lat="47.49923" lon="6.71827">
        <ele>360</ele>
        <time>2015-01-25T11:11:55.000Z</time>
      </trkpt>
      <trkpt lat="47.49924" lon="6.71838">
        <ele>360</ele>
        <time>2015-01-25T11:11:55.999Z</time>
      </trkpt>
      <trkpt lat="47.49924" lon="6.7185">
        <ele>359</ele>
        <time>2015-01-25T11:11:57.000Z</time>
      </trkpt>
      <trkpt lat="47.49925" lon="6.71861">
        <ele>359</ele>
        <time>2015-01-25T11:11:58.001Z</time>
      </trkpt>
      <trkpt lat="47.49926" lon="6.71872">
        <ele>359</ele>
        <time>2015-01-25T11:11:59.001Z</time>
      </trkpt>
      <trkpt lat="47.49928" lon="6.71882">
        <ele>359</ele>
        <time>2015-01-25T11:12:00.000Z</time>
      </trkpt>
      <trkpt lat="47.4993" lon="6.71894">
        <ele>359</ele>
        <time>2015-01-25T11:12:01.000Z</time>
      </trkpt>
      <trkpt lat="47.49931" lon="6.71907">
        <ele>359</ele>
        <time>2015-01-25T11:12:02.000Z</time>
      </trkpt>
      <trkpt lat="47.49932" lon="6.71919">
        <ele>358</ele>
        <time>2015-01-25T11:12:03.000Z</time>
      </trkpt>
      <trkpt lat="47.49933" lon="6.7193">
        <ele>358</ele>
        <time>2015-01-25T11:12:04.000Z</time>
      </trkpt>
      <trkpt lat="47.49934" lon="6.71941">
        <ele>358</ele>
        <time>2015-01-25T11:12:05.000Z</time>
      </trkpt>
      <trkpt lat="47.49936" lon="6.71953">
        <ele>358</ele>
        <time>2015-01-25T11:12:06.000Z</time>
      </trkpt>
      <trkpt lat="47.49937" lon="6.71966">
        <ele>358</ele>
        <time>2015-01-25T11:12:07.000Z</time>
      </trkpt>
      <trkpt lat="47.49938" lon="6.71978">
        <ele>358</ele>
        <time>2015-01-25T11:12:08.000Z</time>
      </trkpt>
      <trkpt lat="47.4994" lon="6.7199">
        <ele>358</ele>
        <time>2015-01-25T11:12:09.000Z</time>
      </trkpt>
      <trkpt lat="47.49941" lon="6.72002">
        <ele>357</ele>
        <time>2015-01-25T11:12:10.000Z</time>
      </trkpt>
      <trkpt lat="47.49942" lon="6.72015">
        <ele>357</ele>
        <time>2015-01-25T11:12:11.000Z</time>
      </trkpt>
      <trkpt lat="47.49943" lon="6.72026">
        <ele>356</ele>
        <time>2015-01-25T11:12:12.000Z</time>
      </trkpt>
      <trkpt lat="47.49943" lon="6.72038">
        <ele>356</ele>
        <time>2015-01-25T11:12:13.000Z</time>
      </trkpt>
      <trkpt lat="47.49944" lon="6.72051">
        <ele>356</ele>
        <time>2015-01-25T11:12:14.000Z</time>
      </trkpt>
      <trkpt lat="47.49945" lon="6.72064">
        <ele>356</ele>
        <time>2015-01-25T11:12:15.000Z</time>
      </trkpt>
      <trkpt lat="47.49944" lon="6.72077">
        <ele>356</ele>
        <time>2015-01-25T11:12:16.000Z</time>
      </trkpt>
      <trkpt lat="47.49943" lon="6.72091">
        <ele>355</ele>
        <time>2015-01-25T11:12:17.000Z</time>
      </trkpt>
      <trkpt lat="47.49942" lon="6.72103">
        <ele>355</ele>
        <time>2015-01-25T11:12:18.000Z</time>
      </trkpt>
      <trkpt lat="47.4994" lon="6.72114">
        <ele>354</ele>
        <time>2015-01-25T11:12:19.000Z</time>
      </trkpt>
      <trkpt lat="47.49938" lon="6.72126">
        <ele>354</ele>
        <time>2015-01-25T11:12:20.000Z</time>
      </trkpt>
      <trkpt lat="47.49936" lon="6.72138">
        <ele>354</ele>
        <time>2015-01-25T11:12:21.000Z</time>
      </trkpt>
      <trkpt lat="47.49933" lon="6.72149">
        <ele>354</ele>
        <time>2015-01-25T11:12:22.000Z</time>
      </trkpt>
      <trkpt lat="47.49929" lon="6.7216">
        <ele>354</ele>
        <time>2015-01-25T11:12:23.000Z</time>
      </trkpt>
      <trkpt lat="47.49927" lon="6.72172">
        <ele>354</ele>
        <time>2015-01-25T11:12:24.000Z</time>
      </trkpt>
      <trkpt lat="47.49925" lon="6.72183">
        <ele>353</ele>
        <time>2015-01-25T11:12:25.000Z</time>
      </trkpt>
      <trkpt lat="47.49923" lon="6.72195">
        <ele>353</ele>
        <time>2015-01-25T11:12:26.000Z</time>
      </trkpt>
      <trkpt lat="47.49922" lon="6.72208">
        <ele>353</ele>
        <time>2015-01-25T11:12:27.000Z</time>
      </trkpt>
      <trkpt lat="47.49921" lon="6.7222">
        <ele>352</ele>
        <time>2015-01-25T11:12:28.000Z</time>
      </trkpt>
      <trkpt lat="47.49921" lon="6.72232">
        <ele>352</ele>
        <time>2015-01-25T11:12:29.000Z</time>
      </trkpt>
      <trkpt lat="47.49921" lon="6.72244">
        <ele>351</ele>
        <time>2015-01-25T11:12:30.000Z</time>
      </trkpt>
      <trkpt lat="47.49921" lon="6.72256">
        <ele>351</ele>
        <time>2015-01-25T11:12:31.000Z</time>
      </trkpt>
      <trkpt lat="47.49921" lon="6.72268">
        <ele>351</ele>
        <time>2015-01-25T11:12:32.000Z</time>
      </trkpt>
      <trkpt lat="47.49921" lon="6.7228">
        <ele>351</ele>
        <time>2015-01-25T11:12:33.000Z</time>
      </trkpt>
      <trkpt lat="47.49921" lon="6.72292">
        <ele>351</ele>
        <time>2015-01-25T11:12:34.000Z</time>
      </trkpt>
      <trkpt lat="47.49921" lon="6.72304">
        <ele>351</ele>
        <time>2015-01-25T11:12:35.000Z</time>
      </trkpt>
      <trkpt lat="47.49921" lon="6.72315">
        <ele>351</ele>
        <time>2015-01-25T11:12:36.000Z</time>
      </trkpt>
      <trkpt lat="47.49921" lon="6.72327">
        <ele>350</ele>
        <time>2015-01-25T11:12:37.000Z</time>
      </trkpt>
      <trkpt lat="47.4992" lon="6.72338">
        <ele>350</ele>
        <time>2015-01-25T11:12:38.000Z</time>
      </trkpt>
      <trkpt lat="47.4992" lon="6.7235">
        <ele>350</ele>
        <time>2015-01-25T11:12:39.000Z</time>
      </trkpt>
      <trkpt lat="47.49919" lon="6.72362">
        <ele>350</ele>
        <time>2015-01-25T11:12:40.000Z</time>
      </trkpt>
      <trkpt lat="47.49919" lon="6.72374">
        <ele>349</ele>
        <time>2015-01-25T11:12:41.000Z</time>
      </trkpt>
      <trkpt lat="47.49918" lon="6.72386">
        <ele>349</ele>
        <time>2015-01-25T11:12:42.000Z</time>
      </trkpt>
      <trkpt lat="47.49918" lon="6.72398">
        <ele>348</ele>
        <time>2015-01-25T11:12:43.000Z</time>
      </trkpt>
      <trkpt lat="47.49918" lon="6.72408">
        <ele>348</ele>
        <time>2015-01-25T11:12:44.000Z</time>
      </trkpt>
      <trkpt lat="47.49918" lon="6.72434">
        <ele>347</ele>
        <time>2015-01-25T11:12:47.000Z</time>
      </trkpt>
      <trkpt lat="47.49918" lon="6.72445">
        <ele>347</ele>
        <time>2015-01-25T11:12:48.000Z</time>
      </trkpt>
      <trkpt lat="47.49918" lon="6.72455">
        <ele>347</ele>
        <time>2015-01-25T11:12:49.000Z</time>
      </trkpt>
      <trkpt lat="47.49919" lon="6.72465">
        <ele>347</ele>
        <time>2015-01-25T11:12:50.000Z</time>
      </trkpt>
      <trkpt lat="47.4992" lon="6.72475">
        <ele>347</ele>
        <time>2015-01-25T11:12:51.000Z</time>
      </trkpt>
      <trkpt lat="47.4992" lon="6.72485">
        <ele>347</ele>
        <time>2015-01-25T11:12:52.000Z</time>
      </trkpt>
      <trkpt lat="47.49922" lon="6.72495">
        <ele>346</ele>
        <time>2015-01-25T11:12:53.000Z</time>
      </trkpt>
      <trkpt lat="47.49922" lon="6.72504">
        <ele>346</ele>
        <time>2015-01-25T11:12:54.000Z</time>
      </trkpt>
      <trkpt lat="47.49923" lon="6.72513">
        <ele>346</ele>
        <time>2015-01-25T11:12:55.000Z</time>
      </trkpt>
      <trkpt lat="47.49923" lon="6.72522">
        <ele>346</ele>
        <time>2015-01-25T11:12:56.001Z</time>
      </trkpt>
      <trkpt lat="47.49924" lon="6.72532">
        <ele>346</ele>
        <time>2015-01-25T11:12:57.000Z</time>
      </trkpt>
      <trkpt lat="47.49924" lon="6.72542">
        <ele>346</ele>
        <time>2015-01-25T11:12:58.000Z</time>
      </trkpt>
      <trkpt lat="47.49925" lon="6.72552">
        <ele>346</ele>
        <time>2015-01-25T11:12:59.000Z</time>
      </trkpt>
      <trkpt lat="47.49925" lon="6.72562">
        <ele>346</ele>
        <time>2015-01-25T11:13:00.000Z</time>
      </trkpt>
      <trkpt lat="47.49926" lon="6.72572">
        <ele>346</ele>
        <time>2015-01-25T11:13:01.000Z</time>
      </trkpt>
      <trkpt lat="47.49926" lon="6.72582">
        <ele>345</ele>
        <time>2015-01-25T11:13:02.000Z</time>
      </trkpt>
      <trkpt lat="47.49925" lon="6.72592">
        <ele>345</ele>
        <time>2015-01-25T11:13:03.000Z</time>
      </trkpt>
      <trkpt lat="47.49925" lon="6.72601">
        <ele>345</ele>
        <time>2015-01-25T11:13:04.000Z</time>
      </trkpt>
      <trkpt lat="47.49925" lon="6.72612">
        <ele>345</ele>
        <time>2015-01-25T11:13:05.000Z</time>
      </trkpt>
      <trkpt lat="47.49925" lon="6.72621">
        <ele>345</ele>
        <time>2015-01-25T11:13:06.000Z</time>
      </trkpt>
      <trkpt lat="47.49924" lon="6.72632">
        <ele>345</ele>
        <time>2015-01-25T11:13:07.000Z</time>
      </trkpt>
      <trkpt lat="47.49923" lon="6.72642">
        <ele>344</ele>
        <time>2015-01-25T11:13:08.000Z</time>
      </trkpt>
      <trkpt lat="47.49923" lon="6.72652">
        <ele>344</ele>
        <time>2015-01-25T11:13:09.000Z</time>
      </trkpt>
      <trkpt lat="47.49922" lon="6.72662">
        <ele>344</ele>
        <time>2015-01-25T11:13:10.000Z</time>
      </trkpt>
      <trkpt lat="47.49921" lon="6.72671">
        <ele>343</ele>
        <time>2015-01-25T11:13:11.000Z</time>
      </trkpt>
      <trkpt lat="47.4992" lon="6.72681">
        <ele>343</ele>
        <time>2015-01-25T11:13:12.000Z</time>
      </trkpt>
      <trkpt lat="47.4992" lon="6.72691">
        <ele>343</ele>
        <time>2015-01-25T11:13:13.000Z</time>
      </trkpt>
      <trkpt lat="47.4992" lon="6.72701">
        <ele>343</ele>
        <time>2015-01-25T11:13:14.000Z</time>
      </trkpt>
      <trkpt lat="47.49921" lon="6.72713">
        <ele>343</ele>
        <time>2015-01-25T11:13:15.000Z</time>
      </trkpt>
      <trkpt lat="47.49922" lon="6.72723">
        <ele>343</ele>
        <time>2015-01-25T11:13:16.000Z</time>
      </trkpt>
      <trkpt lat="47.49922" lon="6.72732">
        <ele>342</ele>
        <time>2015-01-25T11:13:17.000Z</time>
      </trkpt>
      <trkpt lat="47.49925" lon="6.7274">
        <ele>342</ele>
        <time>2015-01-25T11:13:18.000Z</time>
      </trkpt>
      <trkpt lat="47.49927" lon="6.72749">
        <ele>342</ele>
        <time>2015-01-25T11:13:19.000Z</time>
      </trkpt>
      <trkpt lat="47.49929" lon="6.72759">
        <ele>342</ele>
        <time>2015-01-25T11:13:20.000Z</time>
      </trkpt>
      <trkpt lat="47.4993" lon="6.72769">
        <ele>342</ele>
        <time>2015-01-25T11:13:21.000Z</time>
      </trkpt>
      <trkpt lat="47.4993" lon="6.7278">
        <ele>342</ele>
        <time>2015-01-25T11:13:22.000Z</time>
      </trkpt>
      <trkpt lat="47.4993" lon="6.72791">
        <ele>342</ele>
        <time>2015-01-25T11:13:23.000Z</time>
      </trkpt>
      <trkpt lat="47.4993" lon="6.728">
        <ele>342</ele>
        <time>2015-01-25T11:13:24.000Z</time>
      </trkpt>
      <trkpt lat="47.49929" lon="6.72809">
        <ele>342</ele>
        <time>2015-01-25T11:13:25.000Z</time>
      </trkpt>
      <trkpt lat="47.49931" lon="6.72819">
        <ele>342</ele>
        <time>2015-01-25T11:13:26.000Z</time>
      </trkpt>
      <trkpt lat="47.49934" lon="6.72829">
        <ele>342</ele>
        <time>2015-01-25T11:13:27.000Z</time>
      </trkpt>
      <trkpt lat="47.49936" lon="6.72838">
        <ele>342</ele>
        <time>2015-01-25T11:13:28.000Z</time>
      </trkpt>
      <trkpt lat="47.49938" lon="6.72846">
        <ele>341</ele>
        <time>2015-01-25T11:13:29.000Z</time>
      </trkpt>
      <trkpt lat="47.49937" lon="6.72855">
        <ele>341</ele>
        <time>2015-01-25T11:13:30.000Z</time>
      </trkpt>
      <trkpt lat="47.49939" lon="6.72863">
        <ele>341</ele>
        <time>2015-01-25T11:13:31.000Z</time>
      </trkpt>
      <trkpt lat="47.49939" lon="6.7287">
        <ele>341</ele>
        <time>2015-01-25T11:13:32.000Z</time>
      </trkpt>
      <trkpt lat="47.49938" lon="6.72875">
        <ele>341</ele>
        <time>2015-01-25T11:13:33.000Z</time>
      </trkpt>
      <trkpt lat="47.49937" lon="6.72879">
        <ele>341</ele>
        <time>2015-01-25T11:13:34.000Z</time>
      </trkpt>
      <trkpt lat="47.49939" lon="6.72881">
        <ele>341</ele>
        <time>2015-01-25T11:15:43.000Z</time>
      </trkpt>
      <trkpt lat="47.49941" lon="6.72888">
        <ele>341</ele>
        <time>2015-01-25T11:15:44.000Z</time>
      </trkpt>
      <trkpt lat="47.49946" lon="6.72897">
        <ele>341</ele>
        <time>2015-01-25T11:15:47.000Z</time>
      </trkpt>
      <trkpt lat="47.4995" lon="6.72903">
        <ele>340</ele>
        <time>2015-01-25T11:15:48.000Z</time>
      </trkpt>
      <trkpt lat="47.49954" lon="6.7291">
        <ele>340</ele>
        <time>2015-01-25T11:15:49.000Z</time>
      </trkpt>
      <trkpt lat="47.49957" lon="6.72914">
        <ele>340</ele>
        <time>2015-01-25T11:15:50.000Z</time>
      </trkpt>
      <trkpt lat="47.49961" lon="6.72919">
        <ele>339</ele>
        <time>2015-01-25T11:15:51.000Z</time>
      </trkpt>
      <trkpt lat="47.49965" lon="6.72925">
        <ele>339</ele>
        <time>2015-01-25T11:15:52.000Z</time>
      </trkpt>
      <trkpt lat="47.49969" lon="6.72929">
        <ele>339</ele>
        <time>2015-01-25T11:15:53.000Z</time>
      </trkpt>
      <trkpt lat="47.49974" lon="6.72934">
        <ele>339</ele>
        <time>2015-01-25T11:15:54.000Z</time>
      </trkpt>
      <trkpt lat="47.49976" lon="6.7294">
        <ele>339</ele>
        <time>2015-01-25T11:15:55.000Z</time>
      </trkpt>
      <trkpt lat="47.49978" lon="6.72946">
        <ele>339</ele>
        <time>2015-01-25T11:15:56.000Z</time>
      </trkpt>
      <trkpt lat="47.49978" lon="6.72951">
        <ele>339</ele>
        <time>2015-01-25T11:15:57.000Z</time>
      </trkpt>
      <trkpt lat="47.4998" lon="6.72956">
        <ele>338</ele>
        <time>2015-01-25T11:15:58.000Z</time>
      </trkpt>
      <trkpt lat="47.49982" lon="6.72961">
        <ele>338</ele>
        <time>2015-01-25T11:15:59.000Z</time>
      </trkpt>
      <trkpt lat="47.49984" lon="6.72967">
        <ele>338</ele>
        <time>2015-01-25T11:16:00.000Z</time>
      </trkpt>
      <trkpt lat="47.49986" lon="6.72971">
        <ele>338</ele>
        <time>2015-01-25T11:16:01.000Z</time>
      </trkpt>
      <trkpt lat="47.49988" lon="6.72975">
        <ele>338</ele>
        <time>2015-01-25T11:16:02.000Z</time>
      </trkpt>
      <trkpt lat="47.49988" lon="6.72979">
        <ele>338</ele>
        <time>2015-01-25T11:16:03.000Z</time>
      </trkpt>
      <trkpt lat="47.49989" lon="6.72985">
        <ele>338</ele>
        <time>2015-01-25T11:16:04.000Z</time>
      </trkpt>
      <trkpt lat="47.49991" lon="6.72991">
        <ele>338</ele>
        <time>2015-01-25T11:16:05.000Z</time>
      </trkpt>
      <trkpt lat="47.49993" lon="6.72996">
        <ele>337</ele>
        <time>2015-01-25T11:16:06.000Z</time>
      </trkpt>
      <trkpt lat="47.49995" lon="6.73001">
        <ele>337</ele>
        <time>2015-01-25T11:16:07.000Z</time>
      </trkpt>
      <trkpt lat="47.49998" lon="6.73006">
        <ele>337</ele>
        <time>2015-01-25T11:16:08.000Z</time>
      </trkpt>
      <trkpt lat="47.50001" lon="6.7301">
        <ele>337</ele>
        <time>2015-01-25T11:16:09.000Z</time>
      </trkpt>
      <trkpt lat="47.50003" lon="6.73014">
        <ele>337</ele>
        <time>2015-01-25T11:16:10.000Z</time>
      </trkpt>
      <trkpt lat="47.50005" lon="6.73017">
        <ele>337</ele>
        <time>2015-01-25T11:16:11.000Z</time>
      </trkpt>
      <trkpt lat="47.50007" lon="6.7302">
        <ele>337</ele>
        <time>2015-01-25T11:16:12.000Z</time>
      </trkpt>
      <trkpt lat="47.50009" lon="6.73023">
        <ele>337</ele>
        <time>2015-01-25T11:16:13.000Z</time>
      </trkpt>
      <trkpt lat="47.5001" lon="6.73027">
        <ele>337</ele>
        <time>2015-01-25T11:16:14.000Z</time>
      </trkpt>
      <trkpt lat="47.50012" lon="6.7303">
        <ele>337</ele>
        <time>2015-01-25T11:16:15.000Z</time>
      </trkpt>
      <trkpt lat="47.50014" lon="6.73034">
        <ele>337</ele>
        <time>2015-01-25T11:16:16.000Z</time>
      </trkpt>
      <trkpt lat="47.50017" lon="6.73038">
        <ele>337</ele>
        <time>2015-01-25T11:16:17.000Z</time>
      </trkpt>
      <trkpt lat="47.5002" lon="6.73042">
        <ele>337</ele>
        <time>2015-01-25T11:16:18.000Z</time>
      </trkpt>
      <trkpt lat="47.50023" lon="6.73046">
        <ele>337</ele>
        <time>2015-01-25T11:16:19.000Z</time>
      </trkpt>
      <trkpt lat="47.50027" lon="6.73049">
        <ele>337</ele>
        <time>2015-01-25T11:16:20.000Z</time>
      </trkpt>
      <trkpt lat="47.5003" lon="6.73053">
        <ele>337</ele>
        <time>2015-01-25T11:16:21.000Z</time>
      </trkpt>
      <trkpt lat="47.50033" lon="6.73056">
        <ele>337</ele>
        <time>2015-01-25T11:16:22.000Z</time>
      </trkpt>
      <trkpt lat="47.50036" lon="6.73059">
        <ele>337</ele>
        <time>2015-01-25T11:16:23.000Z</time>
      </trkpt>
      <trkpt lat="47.50039" lon="6.73062">
        <ele>337</ele>
        <time>2015-01-25T11:16:24.000Z</time>
      </trkpt>
      <trkpt lat="47.50041" lon="6.73066">
        <ele>337</ele>
        <time>2015-01-25T11:16:25.000Z</time>
      </trkpt>
      <trkpt lat="47.50044" lon="6.73069">
        <ele>337</ele>
        <time>2015-01-25T11:16:26.000Z</time>
      </trkpt>
      <trkpt lat="47.50046" lon="6.73072">
        <ele>337</ele>
        <time>2015-01-25T11:16:27.000Z</time>
      </trkpt>
      <trkpt lat="47.50049" lon="6.73075">
        <ele>337</ele>
        <time>2015-01-25T11:16:28.000Z</time>
      </trkpt>
      <trkpt lat="47.50052" lon="6.73078">
        <ele>337</ele>
        <time>2015-01-25T11:16:29.000Z</time>
      </trkpt>
      <trkpt lat="47.50055" lon="6.73081">
        <ele>337</ele>
        <time>2015-01-25T11:16:30.000Z</time>
      </trkpt>
      <trkpt lat="47.50058" lon="6.73084">
        <ele>337</ele>
        <time>2015-01-25T11:16:31.000Z</time>
      </trkpt>
      <trkpt lat="47.50061" lon="6.73087">
        <ele>337</ele>
        <time>2015-01-25T11:16:32.000Z</time>
      </trkpt>
      <trkpt lat="47.50064" lon="6.73091">
        <ele>337</ele>
        <time>2015-01-25T11:16:33.000Z</time>
      </trkpt>
      <trkpt lat="47.50067" lon="6.73095">
        <ele>337</ele>
        <time>2015-01-25T11:16:34.000Z</time>
      </trkpt>
      <trkpt lat="47.50071" lon="6.73099">
        <ele>337</ele>
        <time>2015-01-25T11:16:35.000Z</time>
      </trkpt>
      <trkpt lat="47.50075" lon="6.73103">
        <ele>337</ele>
        <time>2015-01-25T11:16:36.000Z</time>
      </trkpt>
      <trkpt lat="47.50079" lon="6.73106">
        <ele>337</ele>
        <time>2015-01-25T11:16:37.000Z</time>
      </trkpt>
      <trkpt lat="47.50083" lon="6.7311">
        <ele>337</ele>
        <time>2015-01-25T11:16:38.000Z</time>
      </trkpt>
      <trkpt lat="47.50087" lon="6.73113">
        <ele>339</ele>
        <time>2015-01-25T11:16:39.000Z</time>
      </trkpt>
      <trkpt lat="47.50091" lon="6.73116">
        <ele>339</ele>
        <time>2015-01-25T11:16:40.000Z</time>
      </trkpt>
      <trkpt lat="47.50097" lon="6.73115">
        <ele>339</ele>
        <time>2015-01-25T11:16:41.000Z</time>
      </trkpt>
      <trkpt lat="47.50102" lon="6.73116">
        <ele>339</ele>
        <time>2015-01-25T11:16:42.000Z</time>
      </trkpt>
      <trkpt lat="47.50105" lon="6.73119">
        <ele>339</ele>
        <time>2015-01-25T11:16:43.000Z</time>
      </trkpt>
      <trkpt lat="47.50108" lon="6.7312">
        <ele>339</ele>
        <time>2015-01-25T11:16:44.000Z</time>
      </trkpt>
      <trkpt lat="47.50118" lon="6.73124">
        <ele>339</ele>
        <time>2015-01-25T11:16:47.000Z</time>
      </trkpt>
      <trkpt lat="47.50121" lon="6.73123">
        <ele>339</ele>
        <time>2015-01-25T11:16:48.000Z</time>
      </trkpt>
      <trkpt lat="47.50125" lon="6.73124">
        <ele>339</ele>
        <time>2015-01-25T11:16:49.000Z</time>
      </trkpt>
      <trkpt lat="47.50128" lon="6.73122">
        <ele>340</ele>
        <time>2015-01-25T11:16:50.000Z</time>
      </trkpt>
      <trkpt lat="47.5013" lon="6.73122">
        <ele>340</ele>
        <time>2015-01-25T11:16:50.999Z</time>
      </trkpt>
      <trkpt lat="47.50134" lon="6.73124">
        <ele>340</ele>
        <time>2015-01-25T11:16:53.000Z</time>
      </trkpt>
      <trkpt lat="47.50139" lon="6.73123">
        <ele>340</ele>
        <time>2015-01-25T11:16:54.000Z</time>
      </trkpt>
      <trkpt lat="47.50141" lon="6.73123">
        <ele>340</ele>
        <time>2015-01-25T11:16:55.000Z</time>
      </trkpt>
      <trkpt lat="47.50144" lon="6.73122">
        <ele>340</ele>
        <time>2015-01-25T11:16:56.000Z</time>
      </trkpt>
      <trkpt lat="47.50148" lon="6.73122">
        <ele>340</ele>
        <time>2015-01-25T11:16:57.000Z</time>
      </trkpt>
      <trkpt lat="47.50151" lon="6.73122">
        <ele>340</ele>
        <time>2015-01-25T11:16:58.000Z</time>
      </trkpt>
      <trkpt lat="47.50154" lon="6.73123">
        <ele>340</ele>
        <time>2015-01-25T11:16:59.000Z</time>
      </trkpt>
      <trkpt lat="47.50158" lon="6.73123">
        <ele>340</ele>
        <time>2015-01-25T11:17:00.000Z</time>
      </trkpt>
      <trkpt lat="47.50161" lon="6.73123">
        <ele>340</ele>
        <time>2015-01-25T11:17:01.000Z</time>
      </trkpt>
      <trkpt lat="47.50163" lon="6.73125">
        <ele>340</ele>
        <time>2015-01-25T11:17:02.000Z</time>
      </trkpt>
      <trkpt lat="47.50164" lon="6.73128">
        <ele>340</ele>
        <time>2015-01-25T11:17:03.000Z</time>
      </trkpt>
      <trkpt lat="47.50165" lon="6.73132">
        <ele>340</ele>
        <time>2015-01-25T11:17:04.000Z</time>
      </trkpt>
      <trkpt lat="47.50165" lon="6.73136">
        <ele>340</ele>
        <time>2015-01-25T11:17:05.000Z</time>
      </trkpt>
      <trkpt lat="47.50164" lon="6.7314">
        <ele>340</ele>
        <time>2015-01-25T11:17:06.000Z</time>
      </trkpt>
      <trkpt lat="47.50164" lon="6.73144">
        <ele>341</ele>
        <time>2015-01-25T11:17:07.000Z</time>
      </trkpt>
      <trkpt lat="47.50163" lon="6.73148">
        <ele>341</ele>
        <time>2015-01-25T11:17:08.000Z</time>
      </trkpt>
      <trkpt lat="47.50162" lon="6.73152">
        <ele>341</ele>
        <time>2015-01-25T11:17:09.000Z</time>
      </trkpt>
      <trkpt lat="47.50161" lon="6.73156">
        <ele>341</ele>
        <time>2015-01-25T11:17:10.000Z</time>
      </trkpt>
      <trkpt lat="47.5016" lon="6.73161">
        <ele>341</ele>
        <time>2015-01-25T11:17:11.000Z</time>
      </trkpt>
      <trkpt lat="47.50159" lon="6.73165">
        <ele>341</ele>
        <time>2015-01-25T11:17:12.000Z</time>
      </trkpt>
      <trkpt lat="47.50158" lon="6.7317">
        <ele>342</ele>
        <time>2015-01-25T11:17:13.000Z</time>
      </trkpt>
      <trkpt lat="47.50157" lon="6.73175">
        <ele>341</ele>
        <time>2015-01-25T11:17:14.000Z</time>
      </trkpt>
      <trkpt lat="47.50157" lon="6.73179">
        <ele>341</ele>
        <time>2015-01-25T11:17:15.000Z</time>
      </trkpt>
      <trkpt lat="47.50156" lon="6.73184">
        <ele>341</ele>
        <time>2015-01-25T11:17:16.000Z</time>
      </trkpt>
      <trkpt lat="47.50156" lon="6.73188">
        <ele>341</ele>
        <time>2015-01-25T11:17:17.000Z</time>
      </trkpt>
      <trkpt lat="47.50156" lon="6.73192">
        <ele>341</ele>
        <time>2015-01-25T11:17:18.000Z</time>
      </trkpt>
      <trkpt lat="47.50156" lon="6.73195">
        <ele>341</ele>
        <time>2015-01-25T11:17:19.000Z</time>
      </trkpt>
      <trkpt lat="47.50156" lon="6.73199">
        <ele>341</ele>
        <time>2015-01-25T11:17:20.000Z</time>
      </trkpt>
      <trkpt lat="47.50156" lon="6.73202">
        <ele>341</ele>
        <time>2015-01-25T11:17:21.000Z</time>
      </trkpt>
      <trkpt lat="47.50156" lon="6.73206">
        <ele>341</ele>
        <time>2015-01-25T11:17:22.000Z</time>
      </trkpt>
      <trkpt lat="47.50155" lon="6.73209">
        <ele>341</ele>
        <time>2015-01-25T11:17:23.000Z</time>
      </trkpt>
      <trkpt lat="47.50154" lon="6.73213">
        <ele>341</ele>
        <time>2015-01-25T11:17:24.000Z</time>
      </trkpt>
      <trkpt lat="47.50153" lon="6.73216">
        <ele>341</ele>
        <time>2015-01-25T11:17:25.000Z</time>
      </trkpt>
      <trkpt lat="47.50152" lon="6.7322">
        <ele>341</ele>
        <time>2015-01-25T11:17:26.000Z</time>
      </trkpt>
      <trkpt lat="47.5015" lon="6.73224">
        <ele>341</ele>
        <time>2015-01-25T11:17:27.000Z</time>
      </trkpt>
      <trkpt lat="47.50149" lon="6.73228">
        <ele>341</ele>
        <time>2015-01-25T11:17:28.000Z</time>
      </trkpt>
      <trkpt lat="47.50148" lon="6.73232">
        <ele>341</ele>
        <time>2015-01-25T11:17:29.000Z</time>
      </trkpt>
      <trkpt lat="47.50146" lon="6.73237">
        <ele>341</ele>
        <time>2015-01-25T11:17:30.000Z</time>
      </trkpt>
      <trkpt lat="47.50145" lon="6.73241">
        <ele>341</ele>
        <time>2015-01-25T11:17:31.000Z</time>
      </trkpt>
      <trkpt lat="47.50144" lon="6.73246">
        <ele>341</ele>
        <time>2015-01-25T11:17:32.000Z</time>
      </trkpt>
      <trkpt lat="47.50142" lon="6.7325">
        <ele>341</ele>
        <time>2015-01-25T11:17:33.000Z</time>
      </trkpt>
      <trkpt lat="47.50141" lon="6.73254">
        <ele>343</ele>
        <time>2015-01-25T11:17:34.000Z</time>
      </trkpt>
      <trkpt lat="47.5014" lon="6.73258">
        <ele>343</ele>
        <time>2015-01-25T11:17:35.000Z</time>
      </trkpt>
      <trkpt lat="47.50138" lon="6.73263">
        <ele>343</ele>
        <time>2015-01-25T11:17:36.000Z</time>
      </trkpt>
      <trkpt lat="47.50137" lon="6.73267">
        <ele>343</ele>
        <time>2015-01-25T11:17:37.000Z</time>
      </trkpt>
      <trkpt lat="47.50135" lon="6.73272">
        <ele>343</ele>
        <time>2015-01-25T11:17:38.000Z</time>
      </trkpt>
      <trkpt lat="47.50134" lon="6.73277">
        <ele>343</ele>
        <time>2015-01-25T11:17:39.000Z</time>
      </trkpt>
      <trkpt lat="47.50132" lon="6.73282">
        <ele>343</ele>
        <time>2015-01-25T11:17:40.000Z</time>
      </trkpt>
      <trkpt lat="47.50131" lon="6.73287">
        <ele>343</ele>
        <time>2015-01-25T11:17:41.000Z</time>
      </trkpt>
      <trkpt lat="47.50129" lon="6.73292">
        <ele>343</ele>
        <time>2015-01-25T11:17:42.000Z</time>
      </trkpt>
      <trkpt lat="47.50128" lon="6.73296">
        <ele>343</ele>
        <time>2015-01-25T11:17:43.000Z</time>
      </trkpt>
      <trkpt lat="47.50126" lon="6.73301">
        <ele>343</ele>
        <time>2015-01-25T11:17:44.000Z</time>
      </trkpt>
      <trkpt lat="47.50115" lon="6.73338">
        <ele>346</ele>
        <time>2015-01-25T11:17:51.768Z</time>
      </trkpt>
      <trkpt lat="47.50113" lon="6.73344">
        <ele>346</ele>
        <time>2015-01-25T11:17:53.000Z</time>
      </trkpt>
      <trkpt lat="47.50111" lon="6.73349">
        <ele>346</ele>
        <time>2015-01-25T11:17:54.000Z</time>
      </trkpt>
      <trkpt lat="47.5011" lon="6.73353">
        <ele>346</ele>
        <time>2015-01-25T11:17:55.000Z</time>
      </trkpt>
      <trkpt lat="47.50109" lon="6.73356">
        <ele>346</ele>
        <time>2015-01-25T11:17:56.000Z</time>
      </trkpt>
      <trkpt lat="47.50107" lon="6.7336">
        <ele>346</ele>
        <time>2015-01-25T11:17:57.000Z</time>
      </trkpt>
      <trkpt lat="47.50106" lon="6.73364">
        <ele>346</ele>
        <time>2015-01-25T11:17:58.000Z</time>
      </trkpt>
      <trkpt lat="47.50104" lon="6.73368">
        <ele>346</ele>
        <time>2015-01-25T11:17:59.000Z</time>
      </trkpt>
      <trkpt lat="47.50103" lon="6.73372">
        <ele>346</ele>
        <time>2015-01-25T11:18:00.000Z</time>
      </trkpt>
      <trkpt lat="47.50101" lon="6.73377">
        <ele>346</ele>
        <time>2015-01-25T11:18:01.000Z</time>
      </trkpt>
      <trkpt lat="47.50099" lon="6.73382">
        <ele>346</ele>
        <time>2015-01-25T11:18:02.000Z</time>
      </trkpt>
      <trkpt lat="47.50097" lon="6.73387">
        <ele>346</ele>
        <time>2015-01-25T11:18:03.000Z</time>
      </trkpt>
      <trkpt lat="47.50095" lon="6.73391">
        <ele>347</ele>
        <time>2015-01-25T11:18:04.000Z</time>
      </trkpt>
      <trkpt lat="47.50093" lon="6.73395">
        <ele>347</ele>
        <time>2015-01-25T11:18:05.000Z</time>
      </trkpt>
      <trkpt lat="47.50092" lon="6.73398">
        <ele>346</ele>
        <time>2015-01-25T11:18:06.000Z</time>
      </trkpt>
      <trkpt lat="47.5009" lon="6.73402">
        <ele>346</ele>
        <time>2015-01-25T11:18:07.000Z</time>
      </trkpt>
      <trkpt lat="47.50089" lon="6.73406">
        <ele>346</ele>
        <time>2015-01-25T11:18:08.000Z</time>
      </trkpt>
      <trkpt lat="47.50088" lon="6.7341">
        <ele>346</ele>
        <time>2015-01-25T11:18:09.000Z</time>
      </trkpt>
      <trkpt lat="47.50086" lon="6.73414">
        <ele>346</ele>
        <time>2015-01-25T11:18:10.000Z</time>
      </trkpt>
      <trkpt lat="47.50085" lon="6.73417">
        <ele>346</ele>
        <time>2015-01-25T11:18:11.000Z</time>
      </trkpt>
      <trkpt lat="47.50084" lon="6.73421">
        <ele>347</ele>
        <time>2015-01-25T11:18:12.000Z</time>
      </trkpt>
      <trkpt lat="47.50083" lon="6.73424">
        <ele>345</ele>
        <time>2015-01-25T11:18:13.000Z</time>
      </trkpt>
      <trkpt lat="47.50082" lon="6.7343">
        <ele>345</ele>
        <time>2015-01-25T11:18:15.000Z</time>
      </trkpt>
      <trkpt lat="47.50081" lon="6.73433">
        <ele>345</ele>
        <time>2015-01-25T11:18:16.000Z</time>
      </trkpt>
      <trkpt lat="47.50081" lon="6.73439">
        <ele>345</ele>
        <time>2015-01-25T11:18:29.000Z</time>
      </trkpt>
      <trkpt lat="47.50081" lon="6.7344">
        <ele>345</ele>
        <time>2015-01-25T11:18:30.000Z</time>
      </trkpt>
      <trkpt lat="47.5008" lon="6.73446">
        <ele>344</ele>
        <time>2015-01-25T11:18:35.000Z</time>
      </trkpt>
      <trkpt lat="47.50079" lon="6.73448">
        <ele>344</ele>
        <time>2015-01-25T11:18:36.000Z</time>
      </trkpt>
      <trkpt lat="47.50077" lon="6.73453">
        <ele>344</ele>
        <time>2015-01-25T11:18:38.000Z</time>
      </trkpt>
      <trkpt lat="47.50076" lon="6.73457">
        <ele>344</ele>
        <time>2015-01-25T11:18:39.000Z</time>
      </trkpt>
      <trkpt lat="47.50075" lon="6.73462">
        <ele>344</ele>
        <time>2015-01-25T11:18:40.000Z</time>
      </trkpt>
      <trkpt lat="47.50074" lon="6.73467">
        <ele>344</ele>
        <time>2015-01-25T11:18:41.000Z</time>
      </trkpt>
      <trkpt lat="47.50072" lon="6.73473">
        <ele>345</ele>
        <time>2015-01-25T11:18:42.000Z</time>
      </trkpt>
      <trkpt lat="47.50071" lon="6.73479">
        <ele>345</ele>
        <time>2015-01-25T11:18:43.000Z</time>
      </trkpt>
      <trkpt lat="47.5007" lon="6.73485">
        <ele>345</ele>
        <time>2015-01-25T11:18:44.000Z</time>
      </trkpt>
      <trkpt lat="47.50066" lon="6.73499">
        <ele>345</ele>
        <time>2015-01-25T11:18:47.000Z</time>
      </trkpt>
      <trkpt lat="47.50064" lon="6.73504">
        <ele>346</ele>
        <time>2015-01-25T11:18:48.000Z</time>
      </trkpt>
      <trkpt lat="47.50063" lon="6.73508">
        <ele>346</ele>
        <time>2015-01-25T11:18:49.000Z</time>
      </trkpt>
      <trkpt lat="47.50061" lon="6.73514">
        <ele>346</ele>
        <time>2015-01-25T11:18:50.000Z</time>
      </trkpt>
      <trkpt lat="47.5006" lon="6.73519">
        <ele>346</ele>
        <time>2015-01-25T11:18:51.000Z</time>
      </trkpt>
      <trkpt lat="47.50058" lon="6.73526">
        <ele>346</ele>
        <time>2015-01-25T11:18:52.000Z</time>
      </trkpt>
      <trkpt lat="47.50057" lon="6.73533">
        <ele>346</ele>
        <time>2015-01-25T11:18:53.000Z</time>
      </trkpt>
      <trkpt lat="47.50058" lon="6.73546">
        <ele>346</ele>
        <time>2015-01-25T11:18:54.000Z</time>
      </trkpt>
      <trkpt lat="47.50057" lon="6.73554">
        <ele>346</ele>
        <time>2015-01-25T11:18:55.000Z</time>
      </trkpt>
      <trkpt lat="47.50057" lon="6.73562">
        <ele>346</ele>
        <time>2015-01-25T11:18:56.000Z</time>
      </trkpt>
      <trkpt lat="47.50057" lon="6.7357">
        <ele>346</ele>
        <time>2015-01-25T11:18:57.000Z</time>
      </trkpt>
      <trkpt lat="47.50057" lon="6.73577">
        <ele>346</ele>
        <time>2015-01-25T11:18:58.000Z</time>
      </trkpt>
      <trkpt lat="47.50057" lon="6.73583">
        <ele>347</ele>
        <time>2015-01-25T11:18:59.000Z</time>
      </trkpt>
      <trkpt lat="47.50056" lon="6.7359">
        <ele>348</ele>
        <time>2015-01-25T11:19:00.000Z</time>
      </trkpt>
      <trkpt lat="47.50056" lon="6.73596">
        <ele>348</ele>
        <time>2015-01-25T11:19:01.000Z</time>
      </trkpt>
      <trkpt lat="47.50056" lon="6.73602">
        <ele>348</ele>
        <time>2015-01-25T11:19:02.000Z</time>
      </trkpt>
      <trkpt lat="47.50056" lon="6.73609">
        <ele>348</ele>
        <time>2015-01-25T11:19:03.000Z</time>
      </trkpt>
      <trkpt lat="47.50056" lon="6.73615">
        <ele>348</ele>
        <time>2015-01-25T11:19:04.000Z</time>
      </trkpt>
      <trkpt lat="47.50056" lon="6.73621">
        <ele>348</ele>
        <time>2015-01-25T11:19:05.000Z</time>
      </trkpt>
      <trkpt lat="47.50056" lon="6.73627">
        <ele>348</ele>
        <time>2015-01-25T11:19:06.000Z</time>
      </trkpt>
      <trkpt lat="47.50055" lon="6.73633">
        <ele>348</ele>
        <time>2015-01-25T11:19:07.000Z</time>
      </trkpt>
      <trkpt lat="47.50055" lon="6.73638">
        <ele>348</ele>
        <time>2015-01-25T11:19:08.000Z</time>
      </trkpt>
      <trkpt lat="47.50055" lon="6.73644">
        <ele>349</ele>
        <time>2015-01-25T11:19:09.000Z</time>
      </trkpt>
      <trkpt lat="47.50055" lon="6.73649">
        <ele>349</ele>
        <time>2015-01-25T11:19:10.000Z</time>
      </trkpt>
      <trkpt lat="47.50055" lon="6.73655">
        <ele>349</ele>
        <time>2015-01-25T11:19:11.000Z</time>
      </trkpt>
      <trkpt lat="47.50055" lon="6.73661">
        <ele>349</ele>
        <time>2015-01-25T11:19:12.000Z</time>
      </trkpt>
      <trkpt lat="47.50055" lon="6.73667">
        <ele>351</ele>
        <time>2015-01-25T11:19:13.000Z</time>
      </trkpt>
      <trkpt lat="47.50055" lon="6.73673">
        <ele>351</ele>
        <time>2015-01-25T11:19:14.000Z</time>
      </trkpt>
      <trkpt lat="47.50055" lon="6.73679">
        <ele>351</ele>
        <time>2015-01-25T11:19:15.000Z</time>
      </trkpt>
      <trkpt lat="47.50055" lon="6.73685">
        <ele>351</ele>
        <time>2015-01-25T11:19:16.000Z</time>
      </trkpt>
      <trkpt lat="47.50055" lon="6.73691">
        <ele>351</ele>
        <time>2015-01-25T11:19:17.000Z</time>
      </trkpt>
      <trkpt lat="47.50055" lon="6.73697">
        <ele>351</ele>
        <time>2015-01-25T11:19:18.000Z</time>
      </trkpt>
      <trkpt lat="47.50055" lon="6.73703">
        <ele>351</ele>
        <time>2015-01-25T11:19:19.000Z</time>
      </trkpt>
      <trkpt lat="47.50055" lon="6.73709">
        <ele>351</ele>
        <time>2015-01-25T11:19:20.000Z</time>
      </trkpt>
      <trkpt lat="47.50055" lon="6.73715">
        <ele>351</ele>
        <time>2015-01-25T11:19:21.000Z</time>
      </trkpt>
      <trkpt lat="47.50055" lon="6.73721">
        <ele>351</ele>
        <time>2015-01-25T11:19:22.000Z</time>
      </trkpt>
      <trkpt lat="47.50056" lon="6.73727">
        <ele>351</ele>
        <time>2015-01-25T11:19:23.000Z</time>
      </trkpt>
      <trkpt lat="47.50056" lon="6.73733">
        <ele>351</ele>
        <time>2015-01-25T11:19:24.000Z</time>
      </trkpt>
      <trkpt lat="47.50056" lon="6.73739">
        <ele>352</ele>
        <time>2015-01-25T11:19:25.000Z</time>
      </trkpt>
      <trkpt lat="47.50057" lon="6.73745">
        <ele>352</ele>
        <time>2015-01-25T11:19:26.000Z</time>
      </trkpt>
      <trkpt lat="47.50057" lon="6.73751">
        <ele>353</ele>
        <time>2015-01-25T11:19:27.000Z</time>
      </trkpt>
      <trkpt lat="47.50058" lon="6.73757">
        <ele>353</ele>
        <time>2015-01-25T11:19:28.000Z</time>
      </trkpt>
      <trkpt lat="47.50058" lon="6.73763">
        <ele>353</ele>
        <time>2015-01-25T11:19:29.000Z</time>
      </trkpt>
      <trkpt lat="47.50059" lon="6.73769">
        <ele>353</ele>
        <time>2015-01-25T11:19:30.000Z</time>
      </trkpt>
      <trkpt lat="47.5006" lon="6.73775">
        <ele>353</ele>
        <time>2015-01-25T11:19:31.000Z</time>
      </trkpt>
      <trkpt lat="47.50061" lon="6.7378">
        <ele>353</ele>
        <time>2015-01-25T11:19:32.000Z</time>
      </trkpt>
      <trkpt lat="47.50062" lon="6.73786">
        <ele>353</ele>
        <time>2015-01-25T11:19:33.000Z</time>
      </trkpt>
      <trkpt lat="47.50062" lon="6.73792">
        <ele>353</ele>
        <time>2015-01-25T11:19:34.000Z</time>
      </trkpt>
      <trkpt lat="47.50063" lon="6.73797">
        <ele>353</ele>
        <time>2015-01-25T11:19:35.000Z</time>
      </trkpt>
      <trkpt lat="47.50064" lon="6.73803">
        <ele>353</ele>
        <time>2015-01-25T11:19:36.000Z</time>
      </trkpt>
      <trkpt lat="47.50065" lon="6.73809">
        <ele>353</ele>
        <time>2015-01-25T11:19:37.000Z</time>
      </trkpt>
      <trkpt lat="47.50065" lon="6.73815">
        <ele>354</ele>
        <time>2015-01-25T11:19:38.000Z</time>
      </trkpt>
      <trkpt lat="47.50066" lon="6.73821">
        <ele>354</ele>
        <time>2015-01-25T11:19:39.000Z</time>
      </trkpt>
      <trkpt lat="47.50067" lon="6.73827">
        <ele>355</ele>
        <time>2015-01-25T11:19:40.000Z</time>
      </trkpt>
      <trkpt lat="47.50068" lon="6.73833">
        <ele>355</ele>
        <time>2015-01-25T11:19:41.000Z</time>
      </trkpt>
      <trkpt lat="47.50069" lon="6.73838">
        <ele>355</ele>
        <time>2015-01-25T11:19:42.000Z</time>
      </trkpt>
      <trkpt lat="47.5007" lon="6.73844">
        <ele>355</ele>
        <time>2015-01-25T11:19:43.000Z</time>
      </trkpt>
      <trkpt lat="47.50071" lon="6.73849">
        <ele>355</ele>
        <time>2015-01-25T11:19:44.000Z</time>
      </trkpt>
      <trkpt lat="47.50072" lon="6.73855">
        <ele>354</ele>
        <time>2015-01-25T11:19:45.000Z</time>
      </trkpt>
      <trkpt lat="47.5008" lon="6.73893">
        <ele>354</ele>
        <time>2015-01-25T11:19:53.000Z</time>
      </trkpt>
      <trkpt lat="47.5008" lon="6.73897">
        <ele>354</ele>
        <time>2015-01-25T11:19:54.000Z</time>
      </trkpt>
      <trkpt lat="47.50081" lon="6.73902">
        <ele>354</ele>
        <time>2015-01-25T11:19:55.000Z</time>
      </trkpt>
      <trkpt lat="47.50082" lon="6.73906">
        <ele>355</ele>
        <time>2015-01-25T11:19:56.000Z</time>
      </trkpt>
      <trkpt lat="47.50083" lon="6.73911">
        <ele>355</ele>
        <time>2015-01-25T11:19:57.000Z</time>
      </trkpt>
      <trkpt lat="47.50083" lon="6.73916">
        <ele>356</ele>
        <time>2015-01-25T11:19:58.000Z</time>
      </trkpt>
      <trkpt lat="47.50084" lon="6.7392">
        <ele>357</ele>
        <time>2015-01-25T11:19:59.000Z</time>
      </trkpt>
      <trkpt lat="47.50084" lon="6.73925">
        <ele>359</ele>
        <time>2015-01-25T11:20:00.000Z</time>
      </trkpt>
      <trkpt lat="47.50084" lon="6.73931">
        <ele>360</ele>
        <time>2015-01-25T11:20:01.000Z</time>
      </trkpt>
      <trkpt lat="47.50085" lon="6.73936">
        <ele>360</ele>
        <time>2015-01-25T11:20:02.000Z</time>
      </trkpt>
      <trkpt lat="47.50085" lon="6.73941">
        <ele>361</ele>
        <time>2015-01-25T11:20:03.000Z</time>
      </trkpt>
      <trkpt lat="47.50086" lon="6.73946">
        <ele>361</ele>
        <time>2015-01-25T11:20:04.000Z</time>
      </trkpt>
      <trkpt lat="47.50086" lon="6.73951">
        <ele>362</ele>
        <time>2015-01-25T11:20:05.000Z</time>
      </trkpt>
      <trkpt lat="47.50087" lon="6.73955">
        <ele>362</ele>
        <time>2015-01-25T11:20:06.000Z</time>
      </trkpt>
      <trkpt lat="47.50087" lon="6.7396">
        <ele>362</ele>
        <time>2015-01-25T11:20:07.000Z</time>
      </trkpt>
      <trkpt lat="47.50087" lon="6.73964">
        <ele>362</ele>
        <time>2015-01-25T11:20:08.000Z</time>
      </trkpt>
      <trkpt lat="47.50086" lon="6.73968">
        <ele>362</ele>
        <time>2015-01-25T11:20:09.000Z</time>
      </trkpt>
      <trkpt lat="47.50086" lon="6.73973">
        <ele>362</ele>
        <time>2015-01-25T11:20:10.000Z</time>
      </trkpt>
      <trkpt lat="47.50088" lon="6.73976">
        <ele>361</ele>
        <time>2015-01-25T11:20:11.000Z</time>
      </trkpt>
      <trkpt lat="47.50089" lon="6.7398">
        <ele>361</ele>
        <time>2015-01-25T11:20:12.000Z</time>
      </trkpt>
      <trkpt lat="47.50091" lon="6.73983">
        <ele>361</ele>
        <time>2015-01-25T11:20:13.000Z</time>
      </trkpt>
      <trkpt lat="47.50093" lon="6.73986">
        <ele>361</ele>
        <time>2015-01-25T11:20:14.000Z</time>
      </trkpt>
      <trkpt lat="47.50094" lon="6.73989">
        <ele>361</ele>
        <time>2015-01-25T11:20:15.000Z</time>
      </trkpt>
      <trkpt lat="47.50095" lon="6.73992">
        <ele>361</ele>
        <time>2015-01-25T11:20:16.000Z</time>
      </trkpt>
      <trkpt lat="47.50096" lon="6.73996">
        <ele>360</ele>
        <time>2015-01-25T11:20:17.000Z</time>
      </trkpt>
      <trkpt lat="47.50097" lon="6.74">
        <ele>360</ele>
        <time>2015-01-25T11:20:18.000Z</time>
      </trkpt>
      <trkpt lat="47.50098" lon="6.74005">
        <ele>362</ele>
        <time>2015-01-25T11:20:19.000Z</time>
      </trkpt>
      <trkpt lat="47.50099" lon="6.74009">
        <ele>363</ele>
        <time>2015-01-25T11:20:20.000Z</time>
      </trkpt>
      <trkpt lat="47.501" lon="6.74013">
        <ele>363</ele>
        <time>2015-01-25T11:20:21.000Z</time>
      </trkpt>
      <trkpt lat="47.50102" lon="6.74019">
        <ele>364</ele>
        <time>2015-01-25T11:20:23.000Z</time>
      </trkpt>
      <trkpt lat="47.50102" lon="6.74021">
        <ele>364</ele>
        <time>2015-01-25T11:20:24.000Z</time>
      </trkpt>
      <trkpt lat="47.50103" lon="6.74027">
        <ele>365</ele>
        <time>2015-01-25T11:20:27.000Z</time>
      </trkpt>
      <trkpt lat="47.50103" lon="6.74029">
        <ele>365</ele>
        <time>2015-01-25T11:20:28.000Z</time>
      </trkpt>
      <trkpt lat="47.50104" lon="6.74034">
        <ele>366</ele>
        <time>2015-01-25T11:20:31.000Z</time>
      </trkpt>
      <trkpt lat="47.50104" lon="6.74036">
        <ele>366</ele>
        <time>2015-01-25T11:20:32.000Z</time>
      </trkpt>
      <trkpt lat="47.50106" lon="6.74042">
        <ele>366</ele>
        <time>2015-01-25T11:20:34.000Z</time>
      </trkpt>
      <trkpt lat="47.50106" lon="6.74045">
        <ele>367</ele>
        <time>2015-01-25T11:20:35.000Z</time>
      </trkpt>
      <trkpt lat="47.50107" lon="6.74048">
        <ele>367</ele>
        <time>2015-01-25T11:20:36.000Z</time>
      </trkpt>
      <trkpt lat="47.50108" lon="6.74052">
        <ele>367</ele>
        <time>2015-01-25T11:20:37.000Z</time>
      </trkpt>
      <trkpt lat="47.50109" lon="6.74055">
        <ele>367</ele>
        <time>2015-01-25T11:20:38.000Z</time>
      </trkpt>
      <trkpt lat="47.5011" lon="6.74059">
        <ele>367</ele>
        <time>2015-01-25T11:20:39.000Z</time>
      </trkpt>
      <trkpt lat="47.50111" lon="6.74063">
        <ele>368</ele>
        <time>2015-01-25T11:20:40.000Z</time>
      </trkpt>
      <trkpt lat="47.50112" lon="6.74067">
        <ele>368</ele>
        <time>2015-01-25T11:20:41.000Z</time>
      </trkpt>
      <trkpt lat="47.50113" lon="6.74071">
        <ele>368</ele>
        <time>2015-01-25T11:20:42.000Z</time>
      </trkpt>
      <trkpt lat="47.50114" lon="6.74075">
        <ele>368</ele>
        <time>2015-01-25T11:20:43.000Z</time>
      </trkpt>
      <trkpt lat="47.50115" lon="6.74079">
        <ele>368</ele>
        <time>2015-01-25T11:20:44.000Z</time>
      </trkpt>
      <trkpt lat="47.50117" lon="6.74083">
        <ele>368</ele>
        <time>2015-01-25T11:20:45.000Z</time>
      </trkpt>
      <trkpt lat="47.50131" lon="6.74119">
        <ele>370</ele>
        <time>2015-01-25T11:20:53.000Z</time>
      </trkpt>
      <trkpt lat="47.50132" lon="6.74123">
        <ele>370</ele>
        <time>2015-01-25T11:20:54.000Z</time>
      </trkpt>
      <trkpt lat="47.50133" lon="6.74128">
        <ele>370</ele>
        <time>2015-01-25T11:20:55.000Z</time>
      </trkpt>
      <trkpt lat="47.50134" lon="6.74132">
        <ele>370</ele>
        <time>2015-01-25T11:20:56.000Z</time>
      </trkpt>
      <trkpt lat="47.50135" lon="6.74136">
        <ele>370</ele>
        <time>2015-01-25T11:20:57.000Z</time>
      </trkpt>
      <trkpt lat="47.50137" lon="6.74139">
        <ele>370</ele>
        <time>2015-01-25T11:20:58.000Z</time>
      </trkpt>
      <trkpt lat="47.50138" lon="6.74142">
        <ele>370</ele>
        <time>2015-01-25T11:20:59.000Z</time>
      </trkpt>
      <trkpt lat="47.50139" lon="6.74149">
        <ele>370</ele>
        <time>2015-01-25T11:21:01.000Z</time>
      </trkpt>
      <trkpt lat="47.50139" lon="6.74152">
        <ele>370</ele>
        <time>2015-01-25T11:21:02.000Z</time>
      </trkpt>
      <trkpt lat="47.5014" lon="6.74156">
        <ele>370</ele>
        <time>2015-01-25T11:21:03.000Z</time>
      </trkpt>
      <trkpt lat="47.50141" lon="6.74159">
        <ele>370</ele>
        <time>2015-01-25T11:21:04.000Z</time>
      </trkpt>
      <trkpt lat="47.50142" lon="6.74162">
        <ele>370</ele>
        <time>2015-01-25T11:21:05.000Z</time>
      </trkpt>
      <trkpt lat="47.50143" lon="6.74165">
        <ele>370</ele>
        <time>2015-01-25T11:21:06.000Z</time>
      </trkpt>
      <trkpt lat="47.50145" lon="6.74168">
        <ele>368</ele>
        <time>2015-01-25T11:21:07.000Z</time>
      </trkpt>
      <trkpt lat="47.50146" lon="6.74171">
        <ele>368</ele>
        <time>2015-01-25T11:21:08.000Z</time>
      </trkpt>
      <trkpt lat="47.50147" lon="6.74174">
        <ele>367</ele>
        <time>2015-01-25T11:21:08.999Z</time>
      </trkpt>
      <trkpt lat="47.50149" lon="6.74178">
        <ele>367</ele>
        <time>2015-01-25T11:21:10.000Z</time>
      </trkpt>
      <trkpt lat="47.5015" lon="6.74182">
        <ele>367</ele>
        <time>2015-01-25T11:21:11.000Z</time>
      </trkpt>
      <trkpt lat="47.50152" lon="6.74187">
        <ele>367</ele>
        <time>2015-01-25T11:21:12.000Z</time>
      </trkpt>
      <trkpt lat="47.50154" lon="6.74191">
        <ele>367</ele>
        <time>2015-01-25T11:21:13.000Z</time>
      </trkpt>
      <trkpt lat="47.50156" lon="6.74196">
        <ele>366</ele>
        <time>2015-01-25T11:21:14.000Z</time>
      </trkpt>
      <trkpt lat="47.50158" lon="6.742">
        <ele>366</ele>
        <time>2015-01-25T11:21:15.000Z</time>
      </trkpt>
      <trkpt lat="47.5016" lon="6.74204">
        <ele>366</ele>
        <time>2015-01-25T11:21:16.000Z</time>
      </trkpt>
      <trkpt lat="47.50163" lon="6.74208">
        <ele>366</ele>
        <time>2015-01-25T11:21:17.000Z</time>
      </trkpt>
      <trkpt lat="47.50165" lon="6.74213">
        <ele>365</ele>
        <time>2015-01-25T11:21:18.000Z</time>
      </trkpt>
      <trkpt lat="47.50167" lon="6.74219">
        <ele>369</ele>
        <time>2015-01-25T11:21:19.000Z</time>
      </trkpt>
      <trkpt lat="47.5017" lon="6.74224">
        <ele>368</ele>
        <time>2015-01-25T11:21:20.000Z</time>
      </trkpt>
      <trkpt lat="47.50174" lon="6.74235">
        <ele>367</ele>
        <time>2015-01-25T11:21:21.000Z</time>
      </trkpt>
      <trkpt lat="47.50176" lon="6.7424">
        <ele>366</ele>
        <time>2015-01-25T11:21:22.000Z</time>
      </trkpt>
      <trkpt lat="47.50179" lon="6.74246">
        <ele>366</ele>
        <time>2015-01-25T11:21:23.000Z</time>
      </trkpt>
      <trkpt lat="47.50182" lon="6.7425">
        <ele>363</ele>
        <time>2015-01-25T11:21:24.000Z</time>
      </trkpt>
      <trkpt lat="47.50184" lon="6.74255">
        <ele>363</ele>
        <time>2015-01-25T11:21:25.000Z</time>
      </trkpt>
      <trkpt lat="47.50187" lon="6.7426">
        <ele>364</ele>
        <time>2015-01-25T11:21:26.000Z</time>
      </trkpt>
      <trkpt lat="47.5019" lon="6.74265">
        <ele>364</ele>
        <time>2015-01-25T11:21:27.000Z</time>
      </trkpt>
      <trkpt lat="47.50192" lon="6.7427">
        <ele>364</ele>
        <time>2015-01-25T11:21:28.000Z</time>
      </trkpt>
      <trkpt lat="47.50194" lon="6.74273">
        <ele>364</ele>
        <time>2015-01-25T11:21:29.000Z</time>
      </trkpt>
      <trkpt lat="47.50196" lon="6.74277">
        <ele>364</ele>
        <time>2015-01-25T11:21:30.000Z</time>
      </trkpt>
      <trkpt lat="47.50198" lon="6.74281">
        <ele>364</ele>
        <time>2015-01-25T11:21:31.000Z</time>
      </trkpt>
      <trkpt lat="47.50201" lon="6.74285">
        <ele>364</ele>
        <time>2015-01-25T11:21:32.000Z</time>
      </trkpt>
      <trkpt lat="47.50203" lon="6.74288">
        <ele>364</ele>
        <time>2015-01-25T11:21:33.000Z</time>
      </trkpt>
      <trkpt lat="47.50205" lon="6.74291">
        <ele>364</ele>
        <time>2015-01-25T11:21:34.000Z</time>
      </trkpt>
      <trkpt lat="47.50207" lon="6.74294">
        <ele>364</ele>
        <time>2015-01-25T11:21:35.000Z</time>
      </trkpt>
      <trkpt lat="47.50209" lon="6.74298">
        <ele>363</ele>
        <time>2015-01-25T11:21:36.000Z</time>
      </trkpt>
      <trkpt lat="47.50212" lon="6.74301">
        <ele>363</ele>
        <time>2015-01-25T11:21:37.000Z</time>
      </trkpt>
      <trkpt lat="47.50214" lon="6.74305">
        <ele>363</ele>
        <time>2015-01-25T11:21:38.000Z</time>
      </trkpt>
      <trkpt lat="47.50217" lon="6.74309">
        <ele>363</ele>
        <time>2015-01-25T11:21:39.000Z</time>
      </trkpt>
      <trkpt lat="47.50219" lon="6.74314">
        <ele>363</ele>
        <time>2015-01-25T11:21:40.000Z</time>
      </trkpt>
      <trkpt lat="47.50222" lon="6.74318">
        <ele>363</ele>
        <time>2015-01-25T11:21:41.000Z</time>
      </trkpt>
      <trkpt lat="47.50225" lon="6.74322">
        <ele>363</ele>
        <time>2015-01-25T11:21:42.000Z</time>
      </trkpt>
      <trkpt lat="47.50228" lon="6.74326">
        <ele>362</ele>
        <time>2015-01-25T11:21:43.000Z</time>
      </trkpt>
      <trkpt lat="47.50231" lon="6.7433">
        <ele>362</ele>
        <time>2015-01-25T11:21:44.000Z</time>
      </trkpt>
      <trkpt lat="47.50237" lon="6.74341">
        <ele>359</ele>
        <time>2015-01-25T11:21:47.000Z</time>
      </trkpt>
      <trkpt lat="47.50239" lon="6.74344">
        <ele>358</ele>
        <time>2015-01-25T11:21:48.000Z</time>
      </trkpt>
      <trkpt lat="47.5024" lon="6.74347">
        <ele>358</ele>
        <time>2015-01-25T11:21:49.000Z</time>
      </trkpt>
      <trkpt lat="47.50242" lon="6.7435">
        <ele>358</ele>
        <time>2015-01-25T11:21:50.000Z</time>
      </trkpt>
      <trkpt lat="47.50243" lon="6.74354">
        <ele>358</ele>
        <time>2015-01-25T11:21:51.000Z</time>
      </trkpt>
      <trkpt lat="47.50245" lon="6.74357">
        <ele>358</ele>
        <time>2015-01-25T11:21:52.000Z</time>
      </trkpt>
      <trkpt lat="47.50246" lon="6.74361">
        <ele>357</ele>
        <time>2015-01-25T11:21:53.000Z</time>
      </trkpt>
      <trkpt lat="47.50248" lon="6.74365">
        <ele>357</ele>
        <time>2015-01-25T11:21:54.000Z</time>
      </trkpt>
      <trkpt lat="47.5025" lon="6.7437">
        <ele>356</ele>
        <time>2015-01-25T11:21:55.000Z</time>
      </trkpt>
      <trkpt lat="47.50252" lon="6.74375">
        <ele>358</ele>
        <time>2015-01-25T11:21:56.000Z</time>
      </trkpt>
      <trkpt lat="47.50254" lon="6.74381">
        <ele>358</ele>
        <time>2015-01-25T11:21:57.000Z</time>
      </trkpt>
      <trkpt lat="47.50256" lon="6.74386">
        <ele>357</ele>
        <time>2015-01-25T11:21:58.000Z</time>
      </trkpt>
      <trkpt lat="47.50258" lon="6.74392">
        <ele>357</ele>
        <time>2015-01-25T11:21:59.000Z</time>
      </trkpt>
      <trkpt lat="47.5026" lon="6.74398">
        <ele>356</ele>
        <time>2015-01-25T11:22:00.000Z</time>
      </trkpt>
      <trkpt lat="47.50262" lon="6.74403">
        <ele>356</ele>
        <time>2015-01-25T11:22:01.000Z</time>
      </trkpt>
      <trkpt lat="47.50264" lon="6.74408">
        <ele>355</ele>
        <time>2015-01-25T11:22:02.000Z</time>
      </trkpt>
      <trkpt lat="47.50265" lon="6.74413">
        <ele>355</ele>
        <time>2015-01-25T11:22:03.000Z</time>
      </trkpt>
      <trkpt lat="47.50266" lon="6.7442">
        <ele>352</ele>
        <time>2015-01-25T11:22:04.000Z</time>
      </trkpt>
      <trkpt lat="47.50268" lon="6.74426">
        <ele>352</ele>
        <time>2015-01-25T11:22:05.000Z</time>
      </trkpt>
      <trkpt lat="47.5027" lon="6.74432">
        <ele>352</ele>
        <time>2015-01-25T11:22:06.000Z</time>
      </trkpt>
      <trkpt lat="47.50271" lon="6.74438">
        <ele>352</ele>
        <time>2015-01-25T11:22:07.000Z</time>
      </trkpt>
      <trkpt lat="47.50272" lon="6.74443">
        <ele>352</ele>
        <time>2015-01-25T11:22:08.000Z</time>
      </trkpt>
      <trkpt lat="47.50273" lon="6.74448">
        <ele>351</ele>
        <time>2015-01-25T11:22:09.000Z</time>
      </trkpt>
      <trkpt lat="47.50274" lon="6.74453">
        <ele>351</ele>
        <time>2015-01-25T11:22:10.000Z</time>
      </trkpt>
      <trkpt lat="47.50274" lon="6.74458">
        <ele>351</ele>
        <time>2015-01-25T11:22:11.000Z</time>
      </trkpt>
      <trkpt lat="47.50275" lon="6.74463">
        <ele>351</ele>
        <time>2015-01-25T11:22:12.000Z</time>
      </trkpt>
      <trkpt lat="47.50276" lon="6.74468">
        <ele>351</ele>
        <time>2015-01-25T11:22:13.000Z</time>
      </trkpt>
      <trkpt lat="47.50277" lon="6.74472">
        <ele>351</ele>
        <time>2015-01-25T11:22:14.000Z</time>
      </trkpt>
      <trkpt lat="47.50278" lon="6.74477">
        <ele>351</ele>
        <time>2015-01-25T11:22:15.000Z</time>
      </trkpt>
      <trkpt lat="47.50278" lon="6.74482">
        <ele>351</ele>
        <time>2015-01-25T11:22:16.000Z</time>
      </trkpt>
      <trkpt lat="47.50278" lon="6.74487">
        <ele>351</ele>
        <time>2015-01-25T11:22:17.000Z</time>
      </trkpt>
      <trkpt lat="47.50279" lon="6.74492">
        <ele>351</ele>
        <time>2015-01-25T11:22:18.000Z</time>
      </trkpt>
      <trkpt lat="47.50279" lon="6.74498">
        <ele>351</ele>
        <time>2015-01-25T11:22:19.000Z</time>
      </trkpt>
      <trkpt lat="47.50279" lon="6.74504">
        <ele>349</ele>
        <time>2015-01-25T11:22:20.000Z</time>
      </trkpt>
      <trkpt lat="47.50279" lon="6.74511">
        <ele>349</ele>
        <time>2015-01-25T11:22:21.000Z</time>
      </trkpt>
      <trkpt lat="47.50279" lon="6.74517">
        <ele>349</ele>
        <time>2015-01-25T11:22:22.000Z</time>
      </trkpt>
      <trkpt lat="47.50278" lon="6.74525">
        <ele>348</ele>
        <time>2015-01-25T11:22:23.000Z</time>
      </trkpt>
      <trkpt lat="47.50279" lon="6.74532">
        <ele>348</ele>
        <time>2015-01-25T11:22:24.000Z</time>
      </trkpt>
      <trkpt lat="47.50278" lon="6.74539">
        <ele>348</ele>
        <time>2015-01-25T11:22:25.000Z</time>
      </trkpt>
      <trkpt lat="47.50278" lon="6.74547">
        <ele>348</ele>
        <time>2015-01-25T11:22:26.000Z</time>
      </trkpt>
      <trkpt lat="47.50278" lon="6.74555">
        <ele>348</ele>
        <time>2015-01-25T11:22:27.000Z</time>
      </trkpt>
      <trkpt lat="47.50278" lon="6.74563">
        <ele>348</ele>
        <time>2015-01-25T11:22:28.000Z</time>
      </trkpt>
      <trkpt lat="47.50279" lon="6.7457">
        <ele>347</ele>
        <time>2015-01-25T11:22:29.000Z</time>
      </trkpt>
      <trkpt lat="47.50279" lon="6.74578">
        <ele>347</ele>
        <time>2015-01-25T11:22:30.000Z</time>
      </trkpt>
      <trkpt lat="47.50279" lon="6.74586">
        <ele>345</ele>
        <time>2015-01-25T11:22:31.000Z</time>
      </trkpt>
      <trkpt lat="47.50279" lon="6.74593">
        <ele>345</ele>
        <time>2015-01-25T11:22:32.000Z</time>
      </trkpt>
      <trkpt lat="47.50279" lon="6.74601">
        <ele>345</ele>
        <time>2015-01-25T11:22:33.000Z</time>
      </trkpt>
      <trkpt lat="47.50279" lon="6.74609">
        <ele>345</ele>
        <time>2015-01-25T11:22:34.000Z</time>
      </trkpt>
      <trkpt lat="47.50279" lon="6.74617">
        <ele>345</ele>
        <time>2015-01-25T11:22:35.000Z</time>
      </trkpt>
      <trkpt lat="47.50279" lon="6.74625">
        <ele>345</ele>
        <time>2015-01-25T11:22:36.000Z</time>
      </trkpt>
      <trkpt lat="47.50279" lon="6.74633">
        <ele>345</ele>
        <time>2015-01-25T11:22:37.000Z</time>
      </trkpt>
      <trkpt lat="47.5028" lon="6.74642">
        <ele>344</ele>
        <time>2015-01-25T11:22:38.000Z</time>
      </trkpt>
      <trkpt lat="47.5028" lon="6.7465">
        <ele>344</ele>
        <time>2015-01-25T11:22:39.000Z</time>
      </trkpt>
      <trkpt lat="47.5028" lon="6.74659">
        <ele>344</ele>
        <time>2015-01-25T11:22:40.000Z</time>
      </trkpt>
      <trkpt lat="47.5028" lon="6.74668">
        <ele>343</ele>
        <time>2015-01-25T11:22:41.000Z</time>
      </trkpt>
      <trkpt lat="47.5028" lon="6.74677">
        <ele>343</ele>
        <time>2015-01-25T11:22:42.000Z</time>
      </trkpt>
      <trkpt lat="47.5028" lon="6.74687">
        <ele>343</ele>
        <time>2015-01-25T11:22:43.000Z</time>
      </trkpt>
      <trkpt lat="47.5028" lon="6.74696">
        <ele>343</ele>
        <time>2015-01-25T11:22:44.000Z</time>
      </trkpt>
      <trkpt lat="47.50278" lon="6.74721">
        <ele>342</ele>
        <time>2015-01-25T11:22:47.000Z</time>
      </trkpt>
      <trkpt lat="47.50275" lon="6.74733">
        <ele>341</ele>
        <time>2015-01-25T11:22:48.000Z</time>
      </trkpt>
      <trkpt lat="47.50272" lon="6.74744">
        <ele>341</ele>
        <time>2015-01-25T11:22:49.000Z</time>
      </trkpt>
      <trkpt lat="47.50271" lon="6.74755">
        <ele>340</ele>
        <time>2015-01-25T11:22:50.000Z</time>
      </trkpt>
      <trkpt lat="47.50268" lon="6.74766">
        <ele>340</ele>
        <time>2015-01-25T11:22:51.000Z</time>
      </trkpt>
      <trkpt lat="47.50265" lon="6.74777">
        <ele>340</ele>
        <time>2015-01-25T11:22:52.000Z</time>
      </trkpt>
      <trkpt lat="47.50263" lon="6.74788">
        <ele>340</ele>
        <time>2015-01-25T11:22:53.000Z</time>
      </trkpt>
      <trkpt lat="47.5026" lon="6.74799">
        <ele>340</ele>
        <time>2015-01-25T11:22:54.000Z</time>
      </trkpt>
      <trkpt lat="47.50257" lon="6.74811">
        <ele>339</ele>
        <time>2015-01-25T11:22:55.000Z</time>
      </trkpt>
      <trkpt lat="47.50254" lon="6.74822">
        <ele>338</ele>
        <time>2015-01-25T11:22:56.000Z</time>
      </trkpt>
      <trkpt lat="47.50251" lon="6.74834">
        <ele>336</ele>
        <time>2015-01-25T11:22:57.000Z</time>
      </trkpt>
      <trkpt lat="47.50248" lon="6.74845">
        <ele>336</ele>
        <time>2015-01-25T11:22:58.000Z</time>
      </trkpt>
      <trkpt lat="47.50245" lon="6.74857">
        <ele>336</ele>
        <time>2015-01-25T11:22:59.000Z</time>
      </trkpt>
      <trkpt lat="47.50243" lon="6.74869">
        <ele>336</ele>
        <time>2015-01-25T11:23:00.000Z</time>
      </trkpt>
      <trkpt lat="47.50241" lon="6.7488">
        <ele>336</ele>
        <time>2015-01-25T11:23:01.000Z</time>
      </trkpt>
      <trkpt lat="47.50239" lon="6.74893">
        <ele>336</ele>
        <time>2015-01-25T11:23:02.000Z</time>
      </trkpt>
      <trkpt lat="47.50237" lon="6.74904">
        <ele>336</ele>
        <time>2015-01-25T11:23:03.000Z</time>
      </trkpt>
      <trkpt lat="47.50236" lon="6.74917">
        <ele>336</ele>
        <time>2015-01-25T11:23:04.000Z</time>
      </trkpt>
      <trkpt lat="47.50233" lon="6.74927">
        <ele>336</ele>
        <time>2015-01-25T11:23:05.000Z</time>
      </trkpt>
      <trkpt lat="47.5023" lon="6.74938">
        <ele>336</ele>
        <time>2015-01-25T11:23:06.000Z</time>
      </trkpt>
      <trkpt lat="47.50225" lon="6.74947">
        <ele>336</ele>
        <time>2015-01-25T11:23:07.000Z</time>
      </trkpt>
      <trkpt lat="47.50221" lon="6.74954">
        <ele>336</ele>
        <time>2015-01-25T11:23:08.000Z</time>
      </trkpt>
      <trkpt lat="47.50215" lon="6.74959">
        <ele>336</ele>
        <time>2015-01-25T11:23:09.000Z</time>
      </trkpt>
      <trkpt lat="47.50209" lon="6.74967">
        <ele>336</ele>
        <time>2015-01-25T11:23:10.000Z</time>
      </trkpt>
      <trkpt lat="47.50205" lon="6.74976">
        <ele>336</ele>
        <time>2015-01-25T11:23:11.000Z</time>
      </trkpt>
      <trkpt lat="47.502" lon="6.74984">
        <ele>335</ele>
        <time>2015-01-25T11:23:12.000Z</time>
      </trkpt>
      <trkpt lat="47.50197" lon="6.74997">
        <ele>335</ele>
        <time>2015-01-25T11:23:13.000Z</time>
      </trkpt>
      <trkpt lat="47.50195" lon="6.75007">
        <ele>334</ele>
        <time>2015-01-25T11:23:14.000Z</time>
      </trkpt>
      <trkpt lat="47.50194" lon="6.75019">
        <ele>334</ele>
        <time>2015-01-25T11:23:15.000Z</time>
      </trkpt>
      <trkpt lat="47.50192" lon="6.7503">
        <ele>333</ele>
        <time>2015-01-25T11:23:16.000Z</time>
      </trkpt>
      <trkpt lat="47.50191" lon="6.7504">
        <ele>333</ele>
        <time>2015-01-25T11:23:17.000Z</time>
      </trkpt>
      <trkpt lat="47.50189" lon="6.75049">
        <ele>333</ele>
        <time>2015-01-25T11:23:18.000Z</time>
      </trkpt>
      <trkpt lat="47.50188" lon="6.75058">
        <ele>332</ele>
        <time>2015-01-25T11:23:19.000Z</time>
      </trkpt>
      <trkpt lat="47.50186" lon="6.75067">
        <ele>332</ele>
        <time>2015-01-25T11:23:20.000Z</time>
      </trkpt>
      <trkpt lat="47.50185" lon="6.75075">
        <ele>331</ele>
        <time>2015-01-25T11:23:21.000Z</time>
      </trkpt>
      <trkpt lat="47.50185" lon="6.75083">
        <ele>331</ele>
        <time>2015-01-25T11:23:22.000Z</time>
      </trkpt>
      <trkpt lat="47.50185" lon="6.75091">
        <ele>329</ele>
        <time>2015-01-25T11:23:23.000Z</time>
      </trkpt>
      <trkpt lat="47.50184" lon="6.75096">
        <ele>329</ele>
        <time>2015-01-25T11:23:24.000Z</time>
      </trkpt>
      <trkpt lat="47.50183" lon="6.75101">
        <ele>329</ele>
        <time>2015-01-25T11:23:25.000Z</time>
      </trkpt>
      <trkpt lat="47.50185" lon="6.75107">
        <ele>329</ele>
        <time>2015-01-25T11:23:26.000Z</time>
      </trkpt>
      <trkpt lat="47.50187" lon="6.75111">
        <ele>329</ele>
        <time>2015-01-25T11:23:27.000Z</time>
      </trkpt>
      <trkpt lat="47.50192" lon="6.75116">
        <ele>329</ele>
        <time>2015-01-25T11:23:28.000Z</time>
      </trkpt>
      <trkpt lat="47.50197" lon="6.75121">
        <ele>329</ele>
        <time>2015-01-25T11:23:29.000Z</time>
      </trkpt>
      <trkpt lat="47.50201" lon="6.75125">
        <ele>329</ele>
        <time>2015-01-25T11:23:30.000Z</time>
      </trkpt>
      <trkpt lat="47.50205" lon="6.75129">
        <ele>329</ele>
        <time>2015-01-25T11:23:31.000Z</time>
      </trkpt>
      <trkpt lat="47.50208" lon="6.75133">
        <ele>329</ele>
        <time>2015-01-25T11:23:32.000Z</time>
      </trkpt>
      <trkpt lat="47.50212" lon="6.75138">
        <ele>329</ele>
        <time>2015-01-25T11:23:33.000Z</time>
      </trkpt>
      <trkpt lat="47.50216" lon="6.75143">
        <ele>329</ele>
        <time>2015-01-25T11:23:34.000Z</time>
      </trkpt>
      <trkpt lat="47.50222" lon="6.75145">
        <ele>329</ele>
        <time>2015-01-25T11:23:35.000Z</time>
      </trkpt>
      <trkpt lat="47.50226" lon="6.75149">
        <ele>330</ele>
        <time>2015-01-25T11:23:36.000Z</time>
      </trkpt>
      <trkpt lat="47.50231" lon="6.75152">
        <ele>330</ele>
        <time>2015-01-25T11:23:37.000Z</time>
      </trkpt>
      <trkpt lat="47.50235" lon="6.75158">
        <ele>330</ele>
        <time>2015-01-25T11:23:38.000Z</time>
      </trkpt>
      <trkpt lat="47.50239" lon="6.75164">
        <ele>330</ele>
        <time>2015-01-25T11:23:39.000Z</time>
      </trkpt>
      <trkpt lat="47.50243" lon="6.75168">
        <ele>329</ele>
        <time>2015-01-25T11:23:40.000Z</time>
      </trkpt>
      <trkpt lat="47.50247" lon="6.75172">
        <ele>329</ele>
        <time>2015-01-25T11:23:41.000Z</time>
      </trkpt>
      <trkpt lat="47.50251" lon="6.75175">
        <ele>330</ele>
        <time>2015-01-25T11:23:42.000Z</time>
      </trkpt>
      <trkpt lat="47.50257" lon="6.75176">
        <ele>330</ele>
        <time>2015-01-25T11:23:43.000Z</time>
      </trkpt>
      <trkpt lat="47.50262" lon="6.75178">
        <ele>330</ele>
        <time>2015-01-25T11:23:44.000Z</time>
      </trkpt>
      <trkpt lat="47.50266" lon="6.7518">
        <ele>330</ele>
        <time>2015-01-25T11:23:45.000Z</time>
      </trkpt>
      <trkpt lat="47.50281" lon="6.75183">
        <ele>330</ele>
        <time>2015-01-25T11:23:48.000Z</time>
      </trkpt>
      <trkpt lat="47.50286" lon="6.75184">
        <ele>330</ele>
        <time>2015-01-25T11:23:49.000Z</time>
      </trkpt>
      <trkpt lat="47.50293" lon="6.75182">
        <ele>330</ele>
        <time>2015-01-25T11:23:50.000Z</time>
      </trkpt>
      <trkpt lat="47.50299" lon="6.7518">
        <ele>331</ele>
        <time>2015-01-25T11:23:51.000Z</time>
      </trkpt>
      <trkpt lat="47.50306" lon="6.75179">
        <ele>332</ele>
        <time>2015-01-25T11:23:52.000Z</time>
      </trkpt>
      <trkpt lat="47.50313" lon="6.75179">
        <ele>333</ele>
        <time>2015-01-25T11:23:53.000Z</time>
      </trkpt>
      <trkpt lat="47.50318" lon="6.7518">
        <ele>333</ele>
        <time>2015-01-25T11:23:54.000Z</time>
      </trkpt>
      <trkpt lat="47.50325" lon="6.75178">
        <ele>334</ele>
        <time>2015-01-25T11:23:55.000Z</time>
      </trkpt>
      <trkpt lat="47.5033" lon="6.75177">
        <ele>335</ele>
        <time>2015-01-25T11:23:56.000Z</time>
      </trkpt>
      <trkpt lat="47.50336" lon="6.75177">
        <ele>336</ele>
        <time>2015-01-25T11:23:57.000Z</time>
      </trkpt>
      <trkpt lat="47.50342" lon="6.75177">
        <ele>335</ele>
        <time>2015-01-25T11:23:58.000Z</time>
      </trkpt>
      <trkpt lat="47.50348" lon="6.75178">
        <ele>334</ele>
        <time>2015-01-25T11:23:59.000Z</time>
      </trkpt>
      <trkpt lat="47.50355" lon="6.75178">
        <ele>333</ele>
        <time>2015-01-25T11:24:00.000Z</time>
      </trkpt>
      <trkpt lat="47.50363" lon="6.75179">
        <ele>332</ele>
        <time>2015-01-25T11:24:01.000Z</time>
      </trkpt>
      <trkpt lat="47.50369" lon="6.75179">
        <ele>332</ele>
        <time>2015-01-25T11:24:02.000Z</time>
      </trkpt>
      <trkpt lat="47.50375" lon="6.75179">
        <ele>331</ele>
        <time>2015-01-25T11:24:03.000Z</time>
      </trkpt>
      <trkpt lat="47.50382" lon="6.75181">
        <ele>331</ele>
        <time>2015-01-25T11:24:04.000Z</time>
      </trkpt>
      <trkpt lat="47.50388" lon="6.75182">
        <ele>331</ele>
        <time>2015-01-25T11:24:05.000Z</time>
      </trkpt>
      <trkpt lat="47.50393" lon="6.75182">
        <ele>331</ele>
        <time>2015-01-25T11:24:06.000Z</time>
      </trkpt>
      <trkpt lat="47.50399" lon="6.75183">
        <ele>331</ele>
        <time>2015-01-25T11:24:07.000Z</time>
      </trkpt>
      <trkpt lat="47.50404" lon="6.75183">
        <ele>331</ele>
        <time>2015-01-25T11:24:08.000Z</time>
      </trkpt>
      <trkpt lat="47.5041" lon="6.75182">
        <ele>331</ele>
        <time>2015-01-25T11:24:09.000Z</time>
      </trkpt>
      <trkpt lat="47.50415" lon="6.75181">
        <ele>331</ele>
        <time>2015-01-25T11:24:10.000Z</time>
      </trkpt>
      <trkpt lat="47.5042" lon="6.75181">
        <ele>330</ele>
        <time>2015-01-25T11:24:11.000Z</time>
      </trkpt>
      <trkpt lat="47.50425" lon="6.7518">
        <ele>330</ele>
        <time>2015-01-25T11:24:12.000Z</time>
      </trkpt>
      <trkpt lat="47.5043" lon="6.75179">
        <ele>329</ele>
        <time>2015-01-25T11:24:13.000Z</time>
      </trkpt>
      <trkpt lat="47.50434" lon="6.75177">
        <ele>329</ele>
        <time>2015-01-25T11:24:14.000Z</time>
      </trkpt>
      <trkpt lat="47.50438" lon="6.75177">
        <ele>329</ele>
        <time>2015-01-25T11:24:15.000Z</time>
      </trkpt>
      <trkpt lat="47.50442" lon="6.75178">
        <ele>329</ele>
        <time>2015-01-25T11:24:16.000Z</time>
      </trkpt>
      <trkpt lat="47.50446" lon="6.75178">
        <ele>328</ele>
        <time>2015-01-25T11:24:17.000Z</time>
      </trkpt>
      <trkpt lat="47.50451" lon="6.75178">
        <ele>328</ele>
        <time>2015-01-25T11:24:18.000Z</time>
      </trkpt>
      <trkpt lat="47.50455" lon="6.75179">
        <ele>328</ele>
        <time>2015-01-25T11:24:19.000Z</time>
      </trkpt>
      <trkpt lat="47.50459" lon="6.75178">
        <ele>328</ele>
        <time>2015-01-25T11:24:20.000Z</time>
      </trkpt>
      <trkpt lat="47.50464" lon="6.75177">
        <ele>328</ele>
        <time>2015-01-25T11:24:21.000Z</time>
      </trkpt>
      <trkpt lat="47.50469" lon="6.75177">
        <ele>328</ele>
        <time>2015-01-25T11:24:22.000Z</time>
      </trkpt>
      <trkpt lat="47.50473" lon="6.75178">
        <ele>328</ele>
        <time>2015-01-25T11:24:23.000Z</time>
      </trkpt>
      <trkpt lat="47.50477" lon="6.75178">
        <ele>328</ele>
        <time>2015-01-25T11:24:24.000Z</time>
      </trkpt>
      <trkpt lat="47.50481" lon="6.7518">
        <ele>328</ele>
        <time>2015-01-25T11:24:25.000Z</time>
      </trkpt>
      <trkpt lat="47.50484" lon="6.75184">
        <ele>328</ele>
        <time>2015-01-25T11:24:26.000Z</time>
      </trkpt>
      <trkpt lat="47.5048" lon="6.75197">
        <ele>327</ele>
        <time>2015-01-25T11:24:27.000Z</time>
      </trkpt>
      <trkpt lat="47.50482" lon="6.75205">
        <ele>327</ele>
        <time>2015-01-25T11:24:28.000Z</time>
      </trkpt>
      <trkpt lat="47.50481" lon="6.75213">
        <ele>327</ele>
        <time>2015-01-25T11:24:29.000Z</time>
      </trkpt>
      <trkpt lat="47.50481" lon="6.75221">
        <ele>326</ele>
        <time>2015-01-25T11:24:30.000Z</time>
      </trkpt>
      <trkpt lat="47.50482" lon="6.75229">
        <ele>326</ele>
        <time>2015-01-25T11:24:31.000Z</time>
      </trkpt>
      <trkpt lat="47.50484" lon="6.75238">
        <ele>326</ele>
        <time>2015-01-25T11:24:32.000Z</time>
      </trkpt>
      <trkpt lat="47.50485" lon="6.75246">
        <ele>326</ele>
        <time>2015-01-25T11:24:33.000Z</time>
      </trkpt>
      <trkpt lat="47.50486" lon="6.75253">
        <ele>325</ele>
        <time>2015-01-25T11:24:34.000Z</time>
      </trkpt>
      <trkpt lat="47.50487" lon="6.75261">
        <ele>325</ele>
        <time>2015-01-25T11:24:35.000Z</time>
      </trkpt>
      <trkpt lat="47.50488" lon="6.75268">
        <ele>325</ele>
        <time>2015-01-25T11:24:36.000Z</time>
      </trkpt>
      <trkpt lat="47.5049" lon="6.75274">
        <ele>325</ele>
        <time>2015-01-25T11:24:37.000Z</time>
      </trkpt>
      <trkpt lat="47.50491" lon="6.75281">
        <ele>325</ele>
        <time>2015-01-25T11:24:38.000Z</time>
      </trkpt>
      <trkpt lat="47.50492" lon="6.75288">
        <ele>325</ele>
        <time>2015-01-25T11:24:39.000Z</time>
      </trkpt>
      <trkpt lat="47.50493" lon="6.75294">
        <ele>325</ele>
        <time>2015-01-25T11:24:40.000Z</time>
      </trkpt>
      <trkpt lat="47.50493" lon="6.75299">
        <ele>325</ele>
        <time>2015-01-25T11:24:41.000Z</time>
      </trkpt>
      <trkpt lat="47.50494" lon="6.75306">
        <ele>325</ele>
        <time>2015-01-25T11:24:42.000Z</time>
      </trkpt>
      <trkpt lat="47.50495" lon="6.75313">
        <ele>325</ele>
        <time>2015-01-25T11:24:43.000Z</time>
      </trkpt>
      <trkpt lat="47.50496" lon="6.7532">
        <ele>326</ele>
        <time>2015-01-25T11:24:44.000Z</time>
      </trkpt>
      <trkpt lat="47.50497" lon="6.75327">
        <ele>326</ele>
        <time>2015-01-25T11:24:45.000Z</time>
      </trkpt>
      <trkpt lat="47.505" lon="6.75346">
        <ele>328</ele>
        <time>2015-01-25T11:24:48.000Z</time>
      </trkpt>
      <trkpt lat="47.50502" lon="6.75352">
        <ele>329</ele>
        <time>2015-01-25T11:24:49.000Z</time>
      </trkpt>
      <trkpt lat="47.50503" lon="6.75358">
        <ele>329</ele>
        <time>2015-01-25T11:24:50.000Z</time>
      </trkpt>
      <trkpt lat="47.50506" lon="6.75363">
        <ele>330</ele>
        <time>2015-01-25T11:24:51.000Z</time>
      </trkpt>
      <trkpt lat="47.50512" lon="6.75366">
        <ele>330</ele>
        <time>2015-01-25T11:24:52.000Z</time>
      </trkpt>
      <trkpt lat="47.50517" lon="6.75368">
        <ele>330</ele>
        <time>2015-01-25T11:24:53.000Z</time>
      </trkpt>
      <trkpt lat="47.50522" lon="6.75371">
        <ele>331</ele>
        <time>2015-01-25T11:24:54.000Z</time>
      </trkpt>
      <trkpt lat="47.50526" lon="6.75373">
        <ele>331</ele>
        <time>2015-01-25T11:24:55.000Z</time>
      </trkpt>
      <trkpt lat="47.50531" lon="6.75376">
        <ele>331</ele>
        <time>2015-01-25T11:24:56.000Z</time>
      </trkpt>
      <trkpt lat="47.50535" lon="6.75379">
        <ele>331</ele>
        <time>2015-01-25T11:24:57.000Z</time>
      </trkpt>
      <trkpt lat="47.50539" lon="6.75381">
        <ele>331</ele>
        <time>2015-01-25T11:24:58.000Z</time>
      </trkpt>
      <trkpt lat="47.50543" lon="6.75384">
        <ele>332</ele>
        <time>2015-01-25T11:24:59.000Z</time>
      </trkpt>
      <trkpt lat="47.50547" lon="6.75385">
        <ele>332</ele>
        <time>2015-01-25T11:25:00.000Z</time>
      </trkpt>
      <trkpt lat="47.50552" lon="6.75386">
        <ele>332</ele>
        <time>2015-01-25T11:25:01.000Z</time>
      </trkpt>
      <trkpt lat="47.50556" lon="6.75387">
        <ele>332</ele>
        <time>2015-01-25T11:25:02.000Z</time>
      </trkpt>
      <trkpt lat="47.50561" lon="6.75389">
        <ele>332</ele>
        <time>2015-01-25T11:25:03.000Z</time>
      </trkpt>
      <trkpt lat="47.50566" lon="6.7539">
        <ele>332</ele>
        <time>2015-01-25T11:25:04.000Z</time>
      </trkpt>
      <trkpt lat="47.5057" lon="6.75391">
        <ele>332</ele>
        <time>2015-01-25T11:25:05.000Z</time>
      </trkpt>
      <trkpt lat="47.50574" lon="6.75391">
        <ele>332</ele>
        <time>2015-01-25T11:25:06.000Z</time>
      </trkpt>
      <trkpt lat="47.50578" lon="6.75392">
        <ele>333</ele>
        <time>2015-01-25T11:25:07.000Z</time>
      </trkpt>
      <trkpt lat="47.50582" lon="6.75393">
        <ele>333</ele>
        <time>2015-01-25T11:25:08.000Z</time>
      </trkpt>
      <trkpt lat="47.50585" lon="6.75393">
        <ele>333</ele>
        <time>2015-01-25T11:25:09.000Z</time>
      </trkpt>
      <trkpt lat="47.50589" lon="6.75395">
        <ele>333</ele>
        <time>2015-01-25T11:25:10.000Z</time>
      </trkpt>
      <trkpt lat="47.50592" lon="6.75396">
        <ele>333</ele>
        <time>2015-01-25T11:25:11.000Z</time>
      </trkpt>
      <trkpt lat="47.50597" lon="6.75398">
        <ele>333</ele>
        <time>2015-01-25T11:25:12.000Z</time>
      </trkpt>
      <trkpt lat="47.506" lon="6.75399">
        <ele>333</ele>
        <time>2015-01-25T11:25:13.000Z</time>
      </trkpt>
      <trkpt lat="47.50604" lon="6.754">
        <ele>333</ele>
        <time>2015-01-25T11:25:14.000Z</time>
      </trkpt>
      <trkpt lat="47.50607" lon="6.75401">
        <ele>332</ele>
        <time>2015-01-25T11:25:15.000Z</time>
      </trkpt>
      <trkpt lat="47.50611" lon="6.75401">
        <ele>332</ele>
        <time>2015-01-25T11:25:16.000Z</time>
      </trkpt>
      <trkpt lat="47.50614" lon="6.75402">
        <ele>332</ele>
        <time>2015-01-25T11:25:17.000Z</time>
      </trkpt>
      <trkpt lat="47.50618" lon="6.75403">
        <ele>332</ele>
        <time>2015-01-25T11:25:18.000Z</time>
      </trkpt>
      <trkpt lat="47.50621" lon="6.75403">
        <ele>332</ele>
        <time>2015-01-25T11:25:19.000Z</time>
      </trkpt>
      <trkpt lat="47.50625" lon="6.75404">
        <ele>332</ele>
        <time>2015-01-25T11:25:20.000Z</time>
      </trkpt>
      <trkpt lat="47.50628" lon="6.75405">
        <ele>332</ele>
        <time>2015-01-25T11:25:21.000Z</time>
      </trkpt>
      <trkpt lat="47.50631" lon="6.75406">
        <ele>332</ele>
        <time>2015-01-25T11:25:22.000Z</time>
      </trkpt>
      <trkpt lat="47.50634" lon="6.75407">
        <ele>332</ele>
        <time>2015-01-25T11:25:23.000Z</time>
      </trkpt>
      <trkpt lat="47.50638" lon="6.75407">
        <ele>332</ele>
        <time>2015-01-25T11:25:24.000Z</time>
      </trkpt>
      <trkpt lat="47.50641" lon="6.75407">
        <ele>332</ele>
        <time>2015-01-25T11:25:25.000Z</time>
      </trkpt>
      <trkpt lat="47.50644" lon="6.75407">
        <ele>332</ele>
        <time>2015-01-25T11:25:26.000Z</time>
      </trkpt>
      <trkpt lat="47.50647" lon="6.75408">
        <ele>332</ele>
        <time>2015-01-25T11:25:27.000Z</time>
      </trkpt>
      <trkpt lat="47.5065" lon="6.75409">
        <ele>332</ele>
        <time>2015-01-25T11:25:28.000Z</time>
      </trkpt>
      <trkpt lat="47.50653" lon="6.7541">
        <ele>333</ele>
        <time>2015-01-25T11:25:29.000Z</time>
      </trkpt>
      <trkpt lat="47.50656" lon="6.75412">
        <ele>333</ele>
        <time>2015-01-25T11:25:30.000Z</time>
      </trkpt>
      <trkpt lat="47.50658" lon="6.75413">
        <ele>333</ele>
        <time>2015-01-25T11:25:31.000Z</time>
      </trkpt>
      <trkpt lat="47.5066" lon="6.75415">
        <ele>333</ele>
        <time>2015-01-25T11:25:32.000Z</time>
      </trkpt>
      <trkpt lat="47.50663" lon="6.75419">
        <ele>335</ele>
        <time>2015-01-25T11:25:34.000Z</time>
      </trkpt>
      <trkpt lat="47.50665" lon="6.75421">
        <ele>335</ele>
        <time>2015-01-25T11:25:35.000Z</time>
      </trkpt>
      <trkpt lat="47.50667" lon="6.75424">
        <ele>335</ele>
        <time>2015-01-25T11:25:36.000Z</time>
      </trkpt>
      <trkpt lat="47.5067" lon="6.75426">
        <ele>336</ele>
        <time>2015-01-25T11:25:37.000Z</time>
      </trkpt>
      <trkpt lat="47.50672" lon="6.75429">
        <ele>336</ele>
        <time>2015-01-25T11:25:38.000Z</time>
      </trkpt>
      <trkpt lat="47.50674" lon="6.75432">
        <ele>337</ele>
        <time>2015-01-25T11:25:39.000Z</time>
      </trkpt>
      <trkpt lat="47.50677" lon="6.75435">
        <ele>337</ele>
        <time>2015-01-25T11:25:40.000Z</time>
      </trkpt>
      <trkpt lat="47.50679" lon="6.75438">
        <ele>338</ele>
        <time>2015-01-25T11:25:41.000Z</time>
      </trkpt>
      <trkpt lat="47.5068" lon="6.75441">
        <ele>338</ele>
        <time>2015-01-25T11:25:42.000Z</time>
      </trkpt>
      <trkpt lat="47.50682" lon="6.75444">
        <ele>338</ele>
        <time>2015-01-25T11:25:43.000Z</time>
      </trkpt>
      <trkpt lat="47.50683" lon="6.75448">
        <ele>339</ele>
        <time>2015-01-25T11:25:44.000Z</time>
      </trkpt>
      <trkpt lat="47.50685" lon="6.75451">
        <ele>339</ele>
        <time>2015-01-25T11:25:45.000Z</time>
      </trkpt>
      <trkpt lat="47.50689" lon="6.75461">
        <ele>340</ele>
        <time>2015-01-25T11:25:48.000Z</time>
      </trkpt>
      <trkpt lat="47.5069" lon="6.75464">
        <ele>340</ele>
        <time>2015-01-25T11:25:49.000Z</time>
      </trkpt>
      <trkpt lat="47.50692" lon="6.75467">
        <ele>340</ele>
        <time>2015-01-25T11:25:50.000Z</time>
      </trkpt>
      <trkpt lat="47.50692" lon="6.7547">
        <ele>340</ele>
        <time>2015-01-25T11:25:51.000Z</time>
      </trkpt>
      <trkpt lat="47.50693" lon="6.75474">
        <ele>340</ele>
        <time>2015-01-25T11:25:52.000Z</time>
      </trkpt>
      <trkpt lat="47.50694" lon="6.75478">
        <ele>341</ele>
        <time>2015-01-25T11:25:53.000Z</time>
      </trkpt>
      <trkpt lat="47.50695" lon="6.75481">
        <ele>341</ele>
        <time>2015-01-25T11:25:54.000Z</time>
      </trkpt>
      <trkpt lat="47.50696" lon="6.75485">
        <ele>341</ele>
        <time>2015-01-25T11:25:54.998Z</time>
      </trkpt>
      <trkpt lat="47.50698" lon="6.75488">
        <ele>341</ele>
        <time>2015-01-25T11:25:56.000Z</time>
      </trkpt>
      <trkpt lat="47.50699" lon="6.75492">
        <ele>341</ele>
        <time>2015-01-25T11:25:56.999Z</time>
      </trkpt>
      <trkpt lat="47.507" lon="6.75495">
        <ele>341</ele>
        <time>2015-01-25T11:25:58.000Z</time>
      </trkpt>
      <trkpt lat="47.50701" lon="6.75498">
        <ele>341</ele>
        <time>2015-01-25T11:25:58.999Z</time>
      </trkpt>
      <trkpt lat="47.50703" lon="6.75502">
        <ele>346</ele>
        <time>2015-01-25T11:26:00.000Z</time>
      </trkpt>
      <trkpt lat="47.50704" lon="6.75506">
        <ele>346</ele>
        <time>2015-01-25T11:26:01.000Z</time>
      </trkpt>
      <trkpt lat="47.50705" lon="6.75509">
        <ele>346</ele>
        <time>2015-01-25T11:26:02.000Z</time>
      </trkpt>
      <trkpt lat="47.50706" lon="6.75513">
        <ele>346</ele>
        <time>2015-01-25T11:26:03.000Z</time>
      </trkpt>
      <trkpt lat="47.50707" lon="6.75516">
        <ele>346</ele>
        <time>2015-01-25T11:26:03.998Z</time>
      </trkpt>
      <trkpt lat="47.50707" lon="6.75519">
        <ele>347</ele>
        <time>2015-01-25T11:26:05.000Z</time>
      </trkpt>
      <trkpt lat="47.50708" lon="6.75523">
        <ele>347</ele>
        <time>2015-01-25T11:26:05.998Z</time>
      </trkpt>
      <trkpt lat="47.50709" lon="6.75527">
        <ele>347</ele>
        <time>2015-01-25T11:26:07.000Z</time>
      </trkpt>
      <trkpt lat="47.50709" lon="6.7553">
        <ele>347</ele>
        <time>2015-01-25T11:26:08.000Z</time>
      </trkpt>
      <trkpt lat="47.5071" lon="6.75534">
        <ele>347</ele>
        <time>2015-01-25T11:26:09.000Z</time>
      </trkpt>
      <trkpt lat="47.50711" lon="6.75537">
        <ele>347</ele>
        <time>2015-01-25T11:26:10.000Z</time>
      </trkpt>
      <trkpt lat="47.50712" lon="6.75541">
        <ele>347</ele>
        <time>2015-01-25T11:26:10.999Z</time>
      </trkpt>
      <trkpt lat="47.50712" lon="6.75544">
        <ele>348</ele>
        <time>2015-01-25T11:26:12.000Z</time>
      </trkpt>
      <trkpt lat="47.50713" lon="6.75548">
        <ele>348</ele>
        <time>2015-01-25T11:26:12.999Z</time>
      </trkpt>
      <trkpt lat="47.50714" lon="6.75551">
        <ele>348</ele>
        <time>2015-01-25T11:26:14.000Z</time>
      </trkpt>
      <trkpt lat="47.50715" lon="6.75554">
        <ele>348</ele>
        <time>2015-01-25T11:26:14.999Z</time>
      </trkpt>
      <trkpt lat="47.50716" lon="6.75558">
        <ele>348</ele>
        <time>2015-01-25T11:26:16.000Z</time>
      </trkpt>
      <trkpt lat="47.50717" lon="6.75562">
        <ele>348</ele>
        <time>2015-01-25T11:26:17.000Z</time>
      </trkpt>
      <trkpt lat="47.50717" lon="6.75565">
        <ele>348</ele>
        <time>2015-01-25T11:26:18.020Z</time>
      </trkpt>
      <trkpt lat="47.50718" lon="6.75568">
        <ele>349</ele>
        <time>2015-01-25T11:26:19.000Z</time>
      </trkpt>
      <trkpt lat="47.50719" lon="6.75571">
        <ele>349</ele>
        <time>2015-01-25T11:26:19.998Z</time>
      </trkpt>
      <trkpt lat="47.50721" lon="6.75577">
        <ele>349</ele>
        <time>2015-01-25T11:26:21.999Z</time>
      </trkpt>
      <trkpt lat="47.50722" lon="6.7558">
        <ele>349</ele>
        <time>2015-01-25T11:26:23.000Z</time>
      </trkpt>
      <trkpt lat="47.50723" lon="6.75583">
        <ele>349</ele>
        <time>2015-01-25T11:26:24.000Z</time>
      </trkpt>
      <trkpt lat="47.50723" lon="6.75586">
        <ele>353</ele>
        <time>2015-01-25T11:26:25.000Z</time>
      </trkpt>
      <trkpt lat="47.50724" lon="6.7559">
        <ele>353</ele>
        <time>2015-01-25T11:26:26.000Z</time>
      </trkpt>
      <trkpt lat="47.50724" lon="6.75593">
        <ele>354</ele>
        <time>2015-01-25T11:26:26.998Z</time>
      </trkpt>
      <trkpt lat="47.50724" lon="6.75597">
        <ele>354</ele>
        <time>2015-01-25T11:26:28.000Z</time>
      </trkpt>
      <trkpt lat="47.50725" lon="6.756">
        <ele>354</ele>
        <time>2015-01-25T11:26:28.998Z</time>
      </trkpt>
      <trkpt lat="47.50724" lon="6.75604">
        <ele>354</ele>
        <time>2015-01-25T11:26:30.000Z</time>
      </trkpt>
      <trkpt lat="47.50725" lon="6.75607">
        <ele>354</ele>
        <time>2015-01-25T11:26:30.998Z</time>
      </trkpt>
      <trkpt lat="47.50725" lon="6.7561">
        <ele>354</ele>
        <time>2015-01-25T11:26:32.000Z</time>
      </trkpt>
      <trkpt lat="47.50725" lon="6.75614">
        <ele>355</ele>
        <time>2015-01-25T11:26:33.000Z</time>
      </trkpt>
      <trkpt lat="47.50725" lon="6.7562">
        <ele>355</ele>
        <time>2015-01-25T11:26:35.000Z</time>
      </trkpt>
      <trkpt lat="47.50725" lon="6.75622">
        <ele>355</ele>
        <time>2015-01-25T11:26:35.998Z</time>
      </trkpt>
      <trkpt lat="47.50726" lon="6.75627">
        <ele>355</ele>
        <time>2015-01-25T11:26:37.998Z</time>
      </trkpt>
      <trkpt lat="47.50726" lon="6.75629">
        <ele>355</ele>
        <time>2015-01-25T11:26:39.000Z</time>
      </trkpt>
      <trkpt lat="47.50725" lon="6.75636">
        <ele>356</ele>
        <time>2015-01-25T11:26:42.000Z</time>
      </trkpt>
      <trkpt lat="47.50725" lon="6.75638">
        <ele>356</ele>
        <time>2015-01-25T11:26:43.000Z</time>
      </trkpt>
      <trkpt lat="47.50725" lon="6.75641">
        <ele>356</ele>
        <time>2015-01-25T11:26:44.000Z</time>
      </trkpt>
      <trkpt lat="47.50724" lon="6.75649">
        <ele>356</ele>
        <time>2015-01-25T11:26:47.000Z</time>
      </trkpt>
      <trkpt lat="47.50724" lon="6.75655">
        <ele>356</ele>
        <time>2015-01-25T11:26:49.000Z</time>
      </trkpt>
      <trkpt lat="47.50725" lon="6.75658">
        <ele>357</ele>
        <time>2015-01-25T11:26:50.000Z</time>
      </trkpt>
      <trkpt lat="47.50726" lon="6.75662">
        <ele>357</ele>
        <time>2015-01-25T11:26:51.000Z</time>
      </trkpt>
      <trkpt lat="47.50727" lon="6.75665">
        <ele>357</ele>
        <time>2015-01-25T11:26:52.000Z</time>
      </trkpt>
      <trkpt lat="47.50727" lon="6.75669">
        <ele>361</ele>
        <time>2015-01-25T11:26:53.000Z</time>
      </trkpt>
      <trkpt lat="47.50727" lon="6.75673">
        <ele>361</ele>
        <time>2015-01-25T11:26:54.000Z</time>
      </trkpt>
      <trkpt lat="47.50727" lon="6.75676">
        <ele>362</ele>
        <time>2015-01-25T11:26:55.000Z</time>
      </trkpt>
      <trkpt lat="47.50726" lon="6.7568">
        <ele>362</ele>
        <time>2015-01-25T11:26:56.000Z</time>
      </trkpt>
      <trkpt lat="47.50725" lon="6.75684">
        <ele>362</ele>
        <time>2015-01-25T11:26:57.000Z</time>
      </trkpt>
      <trkpt lat="47.50725" lon="6.75687">
        <ele>362</ele>
        <time>2015-01-25T11:26:58.000Z</time>
      </trkpt>
      <trkpt lat="47.50724" lon="6.75693">
        <ele>363</ele>
        <time>2015-01-25T11:27:00.000Z</time>
      </trkpt>
      <trkpt lat="47.50724" lon="6.75695">
        <ele>363</ele>
        <time>2015-01-25T11:27:01.000Z</time>
      </trkpt>
      <trkpt lat="47.50724" lon="6.757">
        <ele>363</ele>
        <time>2015-01-25T11:27:03.000Z</time>
      </trkpt>
      <trkpt lat="47.50724" lon="6.75703">
        <ele>363</ele>
        <time>2015-01-25T11:27:04.000Z</time>
      </trkpt>
      <trkpt lat="47.50723" lon="6.75708">
        <ele>363</ele>
        <time>2015-01-25T11:27:06.000Z</time>
      </trkpt>
      <trkpt lat="47.50723" lon="6.7571">
        <ele>364</ele>
        <time>2015-01-25T11:27:07.000Z</time>
      </trkpt>
      <trkpt lat="47.50722" lon="6.75715">
        <ele>364</ele>
        <time>2015-01-25T11:27:09.000Z</time>
      </trkpt>
      <trkpt lat="47.50722" lon="6.75717">
        <ele>364</ele>
        <time>2015-01-25T11:27:10.000Z</time>
      </trkpt>
      <trkpt lat="47.50721" lon="6.75723">
        <ele>364</ele>
        <time>2015-01-25T11:27:12.000Z</time>
      </trkpt>
      <trkpt lat="47.50721" lon="6.75725">
        <ele>364</ele>
        <time>2015-01-25T11:27:13.000Z</time>
      </trkpt>
      <trkpt lat="47.5072" lon="6.7573">
        <ele>365</ele>
        <time>2015-01-25T11:27:15.000Z</time>
      </trkpt>
      <trkpt lat="47.5072" lon="6.75733">
        <ele>365</ele>
        <time>2015-01-25T11:27:16.000Z</time>
      </trkpt>
      <trkpt lat="47.5072" lon="6.75737">
        <ele>365</ele>
        <time>2015-01-25T11:27:18.000Z</time>
      </trkpt>
      <trkpt lat="47.5072" lon="6.7574">
        <ele>365</ele>
        <time>2015-01-25T11:27:19.000Z</time>
      </trkpt>
      <trkpt lat="47.50721" lon="6.75745">
        <ele>365</ele>
        <time>2015-01-25T11:27:21.000Z</time>
      </trkpt>
      <trkpt lat="47.50721" lon="6.75747">
        <ele>365</ele>
        <time>2015-01-25T11:27:22.000Z</time>
      </trkpt>
      <trkpt lat="47.50722" lon="6.75753">
        <ele>369</ele>
        <time>2015-01-25T11:27:24.000Z</time>
      </trkpt>
      <trkpt lat="47.50723" lon="6.75756">
        <ele>369</ele>
        <time>2015-01-25T11:27:25.000Z</time>
      </trkpt>
      <trkpt lat="47.50723" lon="6.75759">
        <ele>370</ele>
        <time>2015-01-25T11:27:26.000Z</time>
      </trkpt>
      <trkpt lat="47.50723" lon="6.75762">
        <ele>370</ele>
        <time>2015-01-25T11:27:27.000Z</time>
      </trkpt>
      <trkpt lat="47.50723" lon="6.75768">
        <ele>370</ele>
        <time>2015-01-25T11:27:29.000Z</time>
      </trkpt>
      <trkpt lat="47.50722" lon="6.75771">
        <ele>370</ele>
        <time>2015-01-25T11:27:30.000Z</time>
      </trkpt>
      <trkpt lat="47.50723" lon="6.75777">
        <ele>371</ele>
        <time>2015-01-25T11:27:32.000Z</time>
      </trkpt>
      <trkpt lat="47.50723" lon="6.7578">
        <ele>371</ele>
        <time>2015-01-25T11:27:33.000Z</time>
      </trkpt>
      <trkpt lat="47.50723" lon="6.75785">
        <ele>371</ele>
        <time>2015-01-25T11:27:35.000Z</time>
      </trkpt>
      <trkpt lat="47.50724" lon="6.75787">
        <ele>371</ele>
        <time>2015-01-25T11:27:36.000Z</time>
      </trkpt>
      <trkpt lat="47.50724" lon="6.75792">
        <ele>371</ele>
        <time>2015-01-25T11:27:38.000Z</time>
      </trkpt>
      <trkpt lat="47.50724" lon="6.75794">
        <ele>371</ele>
        <time>2015-01-25T11:27:39.000Z</time>
      </trkpt>
      <trkpt lat="47.50725" lon="6.75799">
        <ele>372</ele>
        <time>2015-01-25T11:27:41.000Z</time>
      </trkpt>
      <trkpt lat="47.50726" lon="6.75802">
        <ele>372</ele>
        <time>2015-01-25T11:27:42.000Z</time>
      </trkpt>
      <trkpt lat="47.50727" lon="6.75806">
        <ele>372</ele>
        <time>2015-01-25T11:27:43.000Z</time>
      </trkpt>
      <trkpt lat="47.50728" lon="6.7581">
        <ele>372</ele>
        <time>2015-01-25T11:27:44.000Z</time>
      </trkpt>
      <trkpt lat="47.50729" lon="6.75818">
        <ele>372</ele>
        <time>2015-01-25T11:27:47.000Z</time>
      </trkpt>
      <trkpt lat="47.50728" lon="6.75823">
        <ele>372</ele>
        <time>2015-01-25T11:27:49.000Z</time>
      </trkpt>
      <trkpt lat="47.50728" lon="6.75825">
        <ele>372</ele>
        <time>2015-01-25T11:27:50.000Z</time>
      </trkpt>
      <trkpt lat="47.50728" lon="6.75831">
        <ele>372</ele>
        <time>2015-01-25T11:27:52.000Z</time>
      </trkpt>
      <trkpt lat="47.50728" lon="6.75834">
        <ele>376</ele>
        <time>2015-01-25T11:27:53.000Z</time>
      </trkpt>
      <trkpt lat="47.50728" lon="6.75838">
        <ele>376</ele>
        <time>2015-01-25T11:27:54.000Z</time>
      </trkpt>
      <trkpt lat="47.50727" lon="6.75842">
        <ele>376</ele>
        <time>2015-01-25T11:27:55.000Z</time>
      </trkpt>
      <trkpt lat="47.50727" lon="6.75846">
        <ele>376</ele>
        <time>2015-01-25T11:27:56.000Z</time>
      </trkpt>
      <trkpt lat="47.50726" lon="6.75849">
        <ele>376</ele>
        <time>2015-01-25T11:27:57.000Z</time>
      </trkpt>
      <trkpt lat="47.50726" lon="6.75854">
        <ele>376</ele>
        <time>2015-01-25T11:27:58.000Z</time>
      </trkpt>
      <trkpt lat="47.50725" lon="6.75858">
        <ele>377</ele>
        <time>2015-01-25T11:27:59.000Z</time>
      </trkpt>
      <trkpt lat="47.50724" lon="6.75862">
        <ele>377</ele>
        <time>2015-01-25T11:28:00.000Z</time>
      </trkpt>
      <trkpt lat="47.50724" lon="6.75866">
        <ele>377</ele>
        <time>2015-01-25T11:28:01.000Z</time>
      </trkpt>
      <trkpt lat="47.50724" lon="6.7587">
        <ele>377</ele>
        <time>2015-01-25T11:28:02.000Z</time>
      </trkpt>
      <trkpt lat="47.50724" lon="6.75874">
        <ele>377</ele>
        <time>2015-01-25T11:28:03.000Z</time>
      </trkpt>
      <trkpt lat="47.50724" lon="6.7588">
        <ele>378</ele>
        <time>2015-01-25T11:28:05.000Z</time>
      </trkpt>
      <trkpt lat="47.50724" lon="6.75883">
        <ele>378</ele>
        <time>2015-01-25T11:28:06.000Z</time>
      </trkpt>
      <trkpt lat="47.50723" lon="6.75888">
        <ele>378</ele>
        <time>2015-01-25T11:28:08.000Z</time>
      </trkpt>
      <trkpt lat="47.50723" lon="6.7589">
        <ele>378</ele>
        <time>2015-01-25T11:28:09.000Z</time>
      </trkpt>
      <trkpt lat="47.50722" lon="6.75895">
        <ele>378</ele>
        <time>2015-01-25T11:28:11.000Z</time>
      </trkpt>
      <trkpt lat="47.50722" lon="6.75898">
        <ele>378</ele>
        <time>2015-01-25T11:28:12.000Z</time>
      </trkpt>
      <trkpt lat="47.50721" lon="6.75902">
        <ele>378</ele>
        <time>2015-01-25T11:28:14.000Z</time>
      </trkpt>
      <trkpt lat="47.50721" lon="6.75904">
        <ele>378</ele>
        <time>2015-01-25T11:28:15.000Z</time>
      </trkpt>
      <trkpt lat="47.50721" lon="6.75909">
        <ele>378</ele>
        <time>2015-01-25T11:28:17.000Z</time>
      </trkpt>
      <trkpt lat="47.50721" lon="6.75911">
        <ele>378</ele>
        <time>2015-01-25T11:28:18.000Z</time>
      </trkpt>
      <trkpt lat="47.5072" lon="6.75916">
        <ele>378</ele>
        <time>2015-01-25T11:28:20.000Z</time>
      </trkpt>
      <trkpt lat="47.50721" lon="6.75919">
        <ele>381</ele>
        <time>2015-01-25T11:28:21.000Z</time>
      </trkpt>
      <trkpt lat="47.50721" lon="6.75923">
        <ele>381</ele>
        <time>2015-01-25T11:28:22.000Z</time>
      </trkpt>
      <trkpt lat="47.50721" lon="6.75927">
        <ele>382</ele>
        <time>2015-01-25T11:28:23.000Z</time>
      </trkpt>
      <trkpt lat="47.50721" lon="6.75931">
        <ele>382</ele>
        <time>2015-01-25T11:28:24.000Z</time>
      </trkpt>
      <trkpt lat="47.50721" lon="6.75935">
        <ele>382</ele>
        <time>2015-01-25T11:28:25.000Z</time>
      </trkpt>
      <trkpt lat="47.50721" lon="6.75939">
        <ele>382</ele>
        <time>2015-01-25T11:28:26.000Z</time>
      </trkpt>
      <trkpt lat="47.50721" lon="6.75942">
        <ele>382</ele>
        <time>2015-01-25T11:28:27.000Z</time>
      </trkpt>
      <trkpt lat="47.50721" lon="6.75946">
        <ele>382</ele>
        <time>2015-01-25T11:28:28.000Z</time>
      </trkpt>
      <trkpt lat="47.50721" lon="6.75949">
        <ele>382</ele>
        <time>2015-01-25T11:28:29.000Z</time>
      </trkpt>
      <trkpt lat="47.50722" lon="6.75953">
        <ele>382</ele>
        <time>2015-01-25T11:28:30.000Z</time>
      </trkpt>
      <trkpt lat="47.50722" lon="6.75956">
        <ele>382</ele>
        <time>2015-01-25T11:28:31.000Z</time>
      </trkpt>
      <trkpt lat="47.50722" lon="6.7596">
        <ele>382</ele>
        <time>2015-01-25T11:28:32.000Z</time>
      </trkpt>
      <trkpt lat="47.50723" lon="6.75964">
        <ele>383</ele>
        <time>2015-01-25T11:28:33.000Z</time>
      </trkpt>
      <trkpt lat="47.50723" lon="6.75967">
        <ele>383</ele>
        <time>2015-01-25T11:28:34.000Z</time>
      </trkpt>
      <trkpt lat="47.50724" lon="6.75971">
        <ele>383</ele>
        <time>2015-01-25T11:28:35.000Z</time>
      </trkpt>
      <trkpt lat="47.50725" lon="6.75977">
        <ele>383</ele>
        <time>2015-01-25T11:28:37.000Z</time>
      </trkpt>
      <trkpt lat="47.50725" lon="6.7598">
        <ele>383</ele>
        <time>2015-01-25T11:28:38.000Z</time>
      </trkpt>
      <trkpt lat="47.50725" lon="6.75986">
        <ele>383</ele>
        <time>2015-01-25T11:28:40.000Z</time>
      </trkpt>
      <trkpt lat="47.50724" lon="6.7599">
        <ele>383</ele>
        <time>2015-01-25T11:28:41.000Z</time>
      </trkpt>
      <trkpt lat="47.50724" lon="6.75994">
        <ele>383</ele>
        <time>2015-01-25T11:28:42.000Z</time>
      </trkpt>
      <trkpt lat="47.50723" lon="6.75998">
        <ele>383</ele>
        <time>2015-01-25T11:28:43.000Z</time>
      </trkpt>
      <trkpt lat="47.50723" lon="6.76002">
        <ele>385</ele>
        <time>2015-01-25T11:28:44.000Z</time>
      </trkpt>
      <trkpt lat="47.50723" lon="6.7601">
        <ele>385</ele>
        <time>2015-01-25T11:28:47.000Z</time>
      </trkpt>
      <trkpt lat="47.50723" lon="6.76016">
        <ele>385</ele>
        <time>2015-01-25T11:28:49.000Z</time>
      </trkpt>
      <trkpt lat="47.50723" lon="6.7602">
        <ele>385</ele>
        <time>2015-01-25T11:28:50.000Z</time>
      </trkpt>
      <trkpt lat="47.50722" lon="6.76025">
        <ele>386</ele>
        <time>2015-01-25T11:28:51.000Z</time>
      </trkpt>
      <trkpt lat="47.50722" lon="6.76029">
        <ele>386</ele>
        <time>2015-01-25T11:28:52.000Z</time>
      </trkpt>
      <trkpt lat="47.50722" lon="6.76034">
        <ele>386</ele>
        <time>2015-01-25T11:28:53.000Z</time>
      </trkpt>
      <trkpt lat="47.50721" lon="6.76038">
        <ele>386</ele>
        <time>2015-01-25T11:28:54.000Z</time>
      </trkpt>
      <trkpt lat="47.50721" lon="6.76041">
        <ele>386</ele>
        <time>2015-01-25T11:28:55.000Z</time>
      </trkpt>
      <trkpt lat="47.50721" lon="6.76045">
        <ele>386</ele>
        <time>2015-01-25T11:28:56.000Z</time>
      </trkpt>
      <trkpt lat="47.50721" lon="6.76048">
        <ele>386</ele>
        <time>2015-01-25T11:28:57.000Z</time>
      </trkpt>
      <trkpt lat="47.50722" lon="6.76052">
        <ele>386</ele>
        <time>2015-01-25T11:28:58.000Z</time>
      </trkpt>
      <trkpt lat="47.50723" lon="6.76056">
        <ele>386</ele>
        <time>2015-01-25T11:28:59.000Z</time>
      </trkpt>
      <trkpt lat="47.50723" lon="6.7606">
        <ele>386</ele>
        <time>2015-01-25T11:29:00.000Z</time>
      </trkpt>
      <trkpt lat="47.50723" lon="6.76064">
        <ele>386</ele>
        <time>2015-01-25T11:29:01.000Z</time>
      </trkpt>
      <trkpt lat="47.50723" lon="6.76068">
        <ele>386</ele>
        <time>2015-01-25T11:29:02.000Z</time>
      </trkpt>
      <trkpt lat="47.50722" lon="6.76072">
        <ele>386</ele>
        <time>2015-01-25T11:29:03.000Z</time>
      </trkpt>
      <trkpt lat="47.50722" lon="6.76076">
        <ele>386</ele>
        <time>2015-01-25T11:29:04.000Z</time>
      </trkpt>
      <trkpt lat="47.50721" lon="6.7608">
        <ele>386</ele>
        <time>2015-01-25T11:29:05.000Z</time>
      </trkpt>
      <trkpt lat="47.50721" lon="6.76085">
        <ele>388</ele>
        <time>2015-01-25T11:29:06.000Z</time>
      </trkpt>
      <trkpt lat="47.50721" lon="6.7609">
        <ele>388</ele>
        <time>2015-01-25T11:29:07.000Z</time>
      </trkpt>
      <trkpt lat="47.5072" lon="6.76096">
        <ele>388</ele>
        <time>2015-01-25T11:29:08.000Z</time>
      </trkpt>
      <trkpt lat="47.50721" lon="6.76102">
        <ele>388</ele>
        <time>2015-01-25T11:29:09.000Z</time>
      </trkpt>
      <trkpt lat="47.50721" lon="6.76108">
        <ele>388</ele>
        <time>2015-01-25T11:29:10.000Z</time>
      </trkpt>
      <trkpt lat="47.50721" lon="6.76115">
        <ele>388</ele>
        <time>2015-01-25T11:29:11.000Z</time>
      </trkpt>
      <trkpt lat="47.50721" lon="6.7612">
        <ele>389</ele>
        <time>2015-01-25T11:29:12.000Z</time>
      </trkpt>
      <trkpt lat="47.50721" lon="6.76125">
        <ele>389</ele>
        <time>2015-01-25T11:29:12.997Z</time>
      </trkpt>
      <trkpt lat="47.5072" lon="6.76131">
        <ele>389</ele>
        <time>2015-01-25T11:29:14.000Z</time>
      </trkpt>
      <trkpt lat="47.50719" lon="6.76135">
        <ele>389</ele>
        <time>2015-01-25T11:29:15.000Z</time>
      </trkpt>
      <trkpt lat="47.50718" lon="6.76139">
        <ele>389</ele>
        <time>2015-01-25T11:29:16.000Z</time>
      </trkpt>
      <trkpt lat="47.50717" lon="6.76143">
        <ele>389</ele>
        <time>2015-01-25T11:29:17.000Z</time>
      </trkpt>
      <trkpt lat="47.50717" lon="6.76147">
        <ele>389</ele>
        <time>2015-01-25T11:29:18.000Z</time>
      </trkpt>
      <trkpt lat="47.50717" lon="6.76152">
        <ele>389</ele>
        <time>2015-01-25T11:29:19.000Z</time>
      </trkpt>
      <trkpt lat="47.50717" lon="6.76158">
        <ele>389</ele>
        <time>2015-01-25T11:29:20.000Z</time>
      </trkpt>
      <trkpt lat="47.50717" lon="6.76163">
        <ele>389</ele>
        <time>2015-01-25T11:29:21.000Z</time>
      </trkpt>
      <trkpt lat="47.50718" lon="6.76169">
        <ele>389</ele>
        <time>2015-01-25T11:29:22.000Z</time>
      </trkpt>
      <trkpt lat="47.50719" lon="6.76174">
        <ele>389</ele>
        <time>2015-01-25T11:29:23.000Z</time>
      </trkpt>
      <trkpt lat="47.5072" lon="6.76179">
        <ele>389</ele>
        <time>2015-01-25T11:29:24.000Z</time>
      </trkpt>
      <trkpt lat="47.5072" lon="6.76184">
        <ele>388</ele>
        <time>2015-01-25T11:29:25.000Z</time>
      </trkpt>
      <trkpt lat="47.50721" lon="6.76189">
        <ele>388</ele>
        <time>2015-01-25T11:29:26.000Z</time>
      </trkpt>
      <trkpt lat="47.50722" lon="6.76194">
        <ele>388</ele>
        <time>2015-01-25T11:29:27.000Z</time>
      </trkpt>
      <trkpt lat="47.50723" lon="6.762">
        <ele>388</ele>
        <time>2015-01-25T11:29:28.000Z</time>
      </trkpt>
      <trkpt lat="47.50724" lon="6.76205">
        <ele>388</ele>
        <time>2015-01-25T11:29:29.000Z</time>
      </trkpt>
      <trkpt lat="47.50724" lon="6.76209">
        <ele>388</ele>
        <time>2015-01-25T11:29:30.000Z</time>
      </trkpt>
      <trkpt lat="47.50725" lon="6.76214">
        <ele>388</ele>
        <time>2015-01-25T11:29:31.000Z</time>
      </trkpt>
      <trkpt lat="47.50725" lon="6.76218">
        <ele>388</ele>
        <time>2015-01-25T11:29:32.000Z</time>
      </trkpt>
      <trkpt lat="47.50725" lon="6.76223">
        <ele>388</ele>
        <time>2015-01-25T11:29:33.000Z</time>
      </trkpt>
      <trkpt lat="47.50726" lon="6.76228">
        <ele>387</ele>
        <time>2015-01-25T11:29:34.000Z</time>
      </trkpt>
      <trkpt lat="47.50726" lon="6.76232">
        <ele>387</ele>
        <time>2015-01-25T11:29:35.000Z</time>
      </trkpt>
      <trkpt lat="47.50727" lon="6.76236">
        <ele>387</ele>
        <time>2015-01-25T11:29:36.000Z</time>
      </trkpt>
      <trkpt lat="47.50728" lon="6.76242">
        <ele>387</ele>
        <time>2015-01-25T11:29:37.000Z</time>
      </trkpt>
      <trkpt lat="47.50729" lon="6.76247">
        <ele>387</ele>
        <time>2015-01-25T11:29:38.000Z</time>
      </trkpt>
      <trkpt lat="47.5073" lon="6.76252">
        <ele>385</ele>
        <time>2015-01-25T11:29:39.000Z</time>
      </trkpt>
      <trkpt lat="47.50731" lon="6.76257">
        <ele>385</ele>
        <time>2015-01-25T11:29:40.000Z</time>
      </trkpt>
      <trkpt lat="47.50733" lon="6.76262">
        <ele>385</ele>
        <time>2015-01-25T11:29:41.000Z</time>
      </trkpt>
      <trkpt lat="47.50734" lon="6.76266">
        <ele>385</ele>
        <time>2015-01-25T11:29:42.000Z</time>
      </trkpt>
      <trkpt lat="47.50735" lon="6.7627">
        <ele>385</ele>
        <time>2015-01-25T11:29:43.000Z</time>
      </trkpt>
      <trkpt lat="47.50736" lon="6.76274">
        <ele>385</ele>
        <time>2015-01-25T11:29:44.000Z</time>
      </trkpt>
      <trkpt lat="47.50739" lon="6.76286">
        <ele>385</ele>
        <time>2015-01-25T11:29:47.000Z</time>
      </trkpt>
      <trkpt lat="47.50741" lon="6.76291">
        <ele>385</ele>
        <time>2015-01-25T11:29:48.000Z</time>
      </trkpt>
      <trkpt lat="47.50742" lon="6.76296">
        <ele>385</ele>
        <time>2015-01-25T11:29:49.000Z</time>
      </trkpt>
      <trkpt lat="47.50744" lon="6.76301">
        <ele>385</ele>
        <time>2015-01-25T11:29:50.000Z</time>
      </trkpt>
      <trkpt lat="47.50746" lon="6.76306">
        <ele>385</ele>
        <time>2015-01-25T11:29:51.000Z</time>
      </trkpt>
      <trkpt lat="47.50748" lon="6.7631">
        <ele>384</ele>
        <time>2015-01-25T11:29:52.000Z</time>
      </trkpt>
      <trkpt lat="47.50749" lon="6.76314">
        <ele>384</ele>
        <time>2015-01-25T11:29:53.000Z</time>
      </trkpt>
      <trkpt lat="47.50751" lon="6.76318">
        <ele>384</ele>
        <time>2015-01-25T11:29:54.000Z</time>
      </trkpt>
      <trkpt lat="47.50752" lon="6.76323">
        <ele>384</ele>
        <time>2015-01-25T11:29:55.000Z</time>
      </trkpt>
      <trkpt lat="47.50754" lon="6.76328">
        <ele>383</ele>
        <time>2015-01-25T11:29:56.000Z</time>
      </trkpt>
      <trkpt lat="47.50755" lon="6.76333">
        <ele>383</ele>
        <time>2015-01-25T11:29:57.000Z</time>
      </trkpt>
      <trkpt lat="47.50756" lon="6.76337">
        <ele>384</ele>
        <time>2015-01-25T11:29:58.000Z</time>
      </trkpt>
      <trkpt lat="47.50758" lon="6.76342">
        <ele>384</ele>
        <time>2015-01-25T11:29:59.000Z</time>
      </trkpt>
      <trkpt lat="47.50759" lon="6.76346">
        <ele>385</ele>
        <time>2015-01-25T11:30:00.000Z</time>
      </trkpt>
      <trkpt lat="47.50761" lon="6.76349">
        <ele>385</ele>
        <time>2015-01-25T11:30:01.000Z</time>
      </trkpt>
      <trkpt lat="47.50763" lon="6.76353">
        <ele>386</ele>
        <time>2015-01-25T11:30:02.000Z</time>
      </trkpt>
      <trkpt lat="47.50764" lon="6.76358">
        <ele>386</ele>
        <time>2015-01-25T11:30:03.000Z</time>
      </trkpt>
      <trkpt lat="47.50766" lon="6.76361">
        <ele>386</ele>
        <time>2015-01-25T11:30:04.000Z</time>
      </trkpt>
      <trkpt lat="47.50767" lon="6.76365">
        <ele>387</ele>
        <time>2015-01-25T11:30:05.000Z</time>
      </trkpt>
      <trkpt lat="47.50768" lon="6.76369">
        <ele>387</ele>
        <time>2015-01-25T11:30:06.000Z</time>
      </trkpt>
      <trkpt lat="47.50769" lon="6.76372">
        <ele>387</ele>
        <time>2015-01-25T11:30:07.000Z</time>
      </trkpt>
      <trkpt lat="47.5077" lon="6.76376">
        <ele>387</ele>
        <time>2015-01-25T11:30:08.000Z</time>
      </trkpt>
      <trkpt lat="47.50772" lon="6.76379">
        <ele>387</ele>
        <time>2015-01-25T11:30:09.000Z</time>
      </trkpt>
      <trkpt lat="47.50773" lon="6.76383">
        <ele>388</ele>
        <time>2015-01-25T11:30:10.000Z</time>
      </trkpt>
      <trkpt lat="47.50774" lon="6.76387">
        <ele>388</ele>
        <time>2015-01-25T11:30:11.000Z</time>
      </trkpt>
      <trkpt lat="47.50774" lon="6.7639">
        <ele>388</ele>
        <time>2015-01-25T11:30:12.000Z</time>
      </trkpt>
      <trkpt lat="47.50775" lon="6.76394">
        <ele>388</ele>
        <time>2015-01-25T11:30:13.000Z</time>
      </trkpt>
      <trkpt lat="47.50776" lon="6.76398">
        <ele>388</ele>
        <time>2015-01-25T11:30:14.000Z</time>
      </trkpt>
      <trkpt lat="47.50778" lon="6.76402">
        <ele>388</ele>
        <time>2015-01-25T11:30:15.000Z</time>
      </trkpt>
      <trkpt lat="47.50779" lon="6.76405">
        <ele>388</ele>
        <time>2015-01-25T11:30:16.000Z</time>
      </trkpt>
      <trkpt lat="47.5078" lon="6.76409">
        <ele>388</ele>
        <time>2015-01-25T11:30:17.000Z</time>
      </trkpt>
      <trkpt lat="47.50781" lon="6.76413">
        <ele>388</ele>
        <time>2015-01-25T11:30:18.000Z</time>
      </trkpt>
      <trkpt lat="47.50782" lon="6.76416">
        <ele>388</ele>
        <time>2015-01-25T11:30:19.000Z</time>
      </trkpt>
      <trkpt lat="47.50783" lon="6.7642">
        <ele>391</ele>
        <time>2015-01-25T11:30:20.000Z</time>
      </trkpt>
      <trkpt lat="47.50783" lon="6.76423">
        <ele>391</ele>
        <time>2015-01-25T11:30:21.000Z</time>
      </trkpt>
      <trkpt lat="47.50784" lon="6.76429">
        <ele>391</ele>
        <time>2015-01-25T11:30:23.000Z</time>
      </trkpt>
      <trkpt lat="47.50785" lon="6.76432">
        <ele>391</ele>
        <time>2015-01-25T11:30:24.000Z</time>
      </trkpt>
      <trkpt lat="47.50786" lon="6.76439">
        <ele>391</ele>
        <time>2015-01-25T11:30:26.000Z</time>
      </trkpt>
      <trkpt lat="47.50786" lon="6.76442">
        <ele>391</ele>
        <time>2015-01-25T11:30:27.000Z</time>
      </trkpt>
      <trkpt lat="47.50787" lon="6.76448">
        <ele>391</ele>
        <time>2015-01-25T11:30:29.000Z</time>
      </trkpt>
      <trkpt lat="47.50787" lon="6.76451">
        <ele>391</ele>
        <time>2015-01-25T11:30:30.000Z</time>
      </trkpt>
      <trkpt lat="47.50788" lon="6.76457">
        <ele>391</ele>
        <time>2015-01-25T11:30:32.000Z</time>
      </trkpt>
      <trkpt lat="47.50788" lon="6.76461">
        <ele>391</ele>
        <time>2015-01-25T11:30:33.000Z</time>
      </trkpt>
      <trkpt lat="47.50788" lon="6.76465">
        <ele>391</ele>
        <time>2015-01-25T11:30:34.000Z</time>
      </trkpt>
      <trkpt lat="47.50788" lon="6.76468">
        <ele>391</ele>
        <time>2015-01-25T11:30:35.000Z</time>
      </trkpt>
      <trkpt lat="47.50787" lon="6.76472">
        <ele>391</ele>
        <time>2015-01-25T11:30:36.000Z</time>
      </trkpt>
      <trkpt lat="47.50786" lon="6.76475">
        <ele>392</ele>
        <time>2015-01-25T11:30:37.000Z</time>
      </trkpt>
      <trkpt lat="47.50784" lon="6.76479">
        <ele>392</ele>
        <time>2015-01-25T11:30:38.000Z</time>
      </trkpt>
      <trkpt lat="47.50783" lon="6.76484">
        <ele>392</ele>
        <time>2015-01-25T11:30:39.000Z</time>
      </trkpt>
      <trkpt lat="47.50782" lon="6.76489">
        <ele>392</ele>
        <time>2015-01-25T11:30:40.000Z</time>
      </trkpt>
      <trkpt lat="47.50782" lon="6.76494">
        <ele>392</ele>
        <time>2015-01-25T11:30:41.000Z</time>
      </trkpt>
      <trkpt lat="47.50783" lon="6.76499">
        <ele>392</ele>
        <time>2015-01-25T11:30:42.000Z</time>
      </trkpt>
      <trkpt lat="47.50784" lon="6.76504">
        <ele>392</ele>
        <time>2015-01-25T11:30:43.000Z</time>
      </trkpt>
      <trkpt lat="47.50787" lon="6.76509">
        <ele>392</ele>
        <time>2015-01-25T11:30:44.000Z</time>
      </trkpt>
      <trkpt lat="47.50789" lon="6.76513">
        <ele>392</ele>
        <time>2015-01-25T11:30:45.000Z</time>
      </trkpt>
      <trkpt lat="47.50792" lon="6.76517">
        <ele>392</ele>
        <time>2015-01-25T11:30:46.000Z</time>
      </trkpt>
      <trkpt lat="47.508" lon="6.76554">
        <ele>392</ele>
        <time>2015-01-25T11:30:54.000Z</time>
      </trkpt>
      <trkpt lat="47.50801" lon="6.76559">
        <ele>392</ele>
        <time>2015-01-25T11:30:55.000Z</time>
      </trkpt>
      <trkpt lat="47.50802" lon="6.76565">
        <ele>392</ele>
        <time>2015-01-25T11:30:56.000Z</time>
      </trkpt>
      <trkpt lat="47.50809" lon="6.76579">
        <ele>391</ele>
        <time>2015-01-25T11:30:57.000Z</time>
      </trkpt>
      <trkpt lat="47.50811" lon="6.76586">
        <ele>390</ele>
        <time>2015-01-25T11:30:58.000Z</time>
      </trkpt>
      <trkpt lat="47.50814" lon="6.76593">
        <ele>390</ele>
        <time>2015-01-25T11:30:59.000Z</time>
      </trkpt>
      <trkpt lat="47.50816" lon="6.76599">
        <ele>390</ele>
        <time>2015-01-25T11:31:00.000Z</time>
      </trkpt>
      <trkpt lat="47.50819" lon="6.76606">
        <ele>390</ele>
        <time>2015-01-25T11:31:01.000Z</time>
      </trkpt>
      <trkpt lat="47.50821" lon="6.76614">
        <ele>390</ele>
        <time>2015-01-25T11:31:02.000Z</time>
      </trkpt>
      <trkpt lat="47.50823" lon="6.76622">
        <ele>390</ele>
        <time>2015-01-25T11:31:03.000Z</time>
      </trkpt>
      <trkpt lat="47.50827" lon="6.7663">
        <ele>390</ele>
        <time>2015-01-25T11:31:04.000Z</time>
      </trkpt>
      <trkpt lat="47.5083" lon="6.7664">
        <ele>390</ele>
        <time>2015-01-25T11:31:05.000Z</time>
      </trkpt>
      <trkpt lat="47.50834" lon="6.76649">
        <ele>388</ele>
        <time>2015-01-25T11:31:06.000Z</time>
      </trkpt>
      <trkpt lat="47.50838" lon="6.7666">
        <ele>388</ele>
        <time>2015-01-25T11:31:07.000Z</time>
      </trkpt>
      <trkpt lat="47.50842" lon="6.7667">
        <ele>387</ele>
        <time>2015-01-25T11:31:08.000Z</time>
      </trkpt>
      <trkpt lat="47.50847" lon="6.76681">
        <ele>386</ele>
        <time>2015-01-25T11:31:09.000Z</time>
      </trkpt>
      <trkpt lat="47.50849" lon="6.76692">
        <ele>385</ele>
        <time>2015-01-25T11:31:10.000Z</time>
      </trkpt>
      <trkpt lat="47.50852" lon="6.76702">
        <ele>384</ele>
        <time>2015-01-25T11:31:11.000Z</time>
      </trkpt>
      <trkpt lat="47.50855" lon="6.76712">
        <ele>384</ele>
        <time>2015-01-25T11:31:12.000Z</time>
      </trkpt>
      <trkpt lat="47.50859" lon="6.76723">
        <ele>384</ele>
        <time>2015-01-25T11:31:13.000Z</time>
      </trkpt>
      <trkpt lat="47.50863" lon="6.76734">
        <ele>384</ele>
        <time>2015-01-25T11:31:14.000Z</time>
      </trkpt>
      <trkpt lat="47.50866" lon="6.76744">
        <ele>383</ele>
        <time>2015-01-25T11:31:15.000Z</time>
      </trkpt>
      <trkpt lat="47.5087" lon="6.76755">
        <ele>382</ele>
        <time>2015-01-25T11:31:16.000Z</time>
      </trkpt>
      <trkpt lat="47.50875" lon="6.76764">
        <ele>382</ele>
        <time>2015-01-25T11:31:17.000Z</time>
      </trkpt>
      <trkpt lat="47.50878" lon="6.76773">
        <ele>382</ele>
        <time>2015-01-25T11:31:18.000Z</time>
      </trkpt>
      <trkpt lat="47.50882" lon="6.76782">
        <ele>382</ele>
        <time>2015-01-25T11:31:19.000Z</time>
      </trkpt>
      <trkpt lat="47.50885" lon="6.76792">
        <ele>381</ele>
        <time>2015-01-25T11:31:20.000Z</time>
      </trkpt>
      <trkpt lat="47.50889" lon="6.76802">
        <ele>381</ele>
        <time>2015-01-25T11:31:21.000Z</time>
      </trkpt>
      <trkpt lat="47.50893" lon="6.76811">
        <ele>381</ele>
        <time>2015-01-25T11:31:22.000Z</time>
      </trkpt>
      <trkpt lat="47.50897" lon="6.76819">
        <ele>381</ele>
        <time>2015-01-25T11:31:23.000Z</time>
      </trkpt>
      <trkpt lat="47.50901" lon="6.76826">
        <ele>381</ele>
        <time>2015-01-25T11:31:24.000Z</time>
      </trkpt>
      <trkpt lat="47.50905" lon="6.76835">
        <ele>380</ele>
        <time>2015-01-25T11:31:25.000Z</time>
      </trkpt>
      <trkpt lat="47.50909" lon="6.76844">
        <ele>380</ele>
        <time>2015-01-25T11:31:26.000Z</time>
      </trkpt>
      <trkpt lat="47.50912" lon="6.76853">
        <ele>380</ele>
        <time>2015-01-25T11:31:27.000Z</time>
      </trkpt>
      <trkpt lat="47.50917" lon="6.76861">
        <ele>379</ele>
        <time>2015-01-25T11:31:28.000Z</time>
      </trkpt>
      <trkpt lat="47.50921" lon="6.7687">
        <ele>378</ele>
        <time>2015-01-25T11:31:29.000Z</time>
      </trkpt>
      <trkpt lat="47.50925" lon="6.76877">
        <ele>378</ele>
        <time>2015-01-25T11:31:30.000Z</time>
      </trkpt>
      <trkpt lat="47.5093" lon="6.76884">
        <ele>378</ele>
        <time>2015-01-25T11:31:31.000Z</time>
      </trkpt>
      <trkpt lat="47.50934" lon="6.7689">
        <ele>378</ele>
        <time>2015-01-25T11:31:32.000Z</time>
      </trkpt>
      <trkpt lat="47.5094" lon="6.76897">
        <ele>378</ele>
        <time>2015-01-25T11:31:33.000Z</time>
      </trkpt>
      <trkpt lat="47.50944" lon="6.76903">
        <ele>378</ele>
        <time>2015-01-25T11:31:34.000Z</time>
      </trkpt>
      <trkpt lat="47.50949" lon="6.76909">
        <ele>378</ele>
        <time>2015-01-25T11:31:35.000Z</time>
      </trkpt>
      <trkpt lat="47.50953" lon="6.76916">
        <ele>377</ele>
        <time>2015-01-25T11:31:36.000Z</time>
      </trkpt>
      <trkpt lat="47.50957" lon="6.76922">
        <ele>374</ele>
        <time>2015-01-25T11:31:37.000Z</time>
      </trkpt>
      <trkpt lat="47.50962" lon="6.76929">
        <ele>374</ele>
        <time>2015-01-25T11:31:38.000Z</time>
      </trkpt>
      <trkpt lat="47.50965" lon="6.76935">
        <ele>374</ele>
        <time>2015-01-25T11:31:39.000Z</time>
      </trkpt>
      <trkpt lat="47.5097" lon="6.76941">
        <ele>374</ele>
        <time>2015-01-25T11:31:40.000Z</time>
      </trkpt>
      <trkpt lat="47.50975" lon="6.76945">
        <ele>374</ele>
        <time>2015-01-25T11:31:41.000Z</time>
      </trkpt>
      <trkpt lat="47.50981" lon="6.76947">
        <ele>374</ele>
        <time>2015-01-25T11:31:42.000Z</time>
      </trkpt>
      <trkpt lat="47.50987" lon="6.76947">
        <ele>374</ele>
        <time>2015-01-25T11:31:43.000Z</time>
      </trkpt>
      <trkpt lat="47.50993" lon="6.76946">
        <ele>374</ele>
        <time>2015-01-25T11:31:44.000Z</time>
      </trkpt>
      <trkpt lat="47.51009" lon="6.76948">
        <ele>375</ele>
        <time>2015-01-25T11:31:47.000Z</time>
      </trkpt>
      <trkpt lat="47.51016" lon="6.76952">
        <ele>375</ele>
        <time>2015-01-25T11:31:48.000Z</time>
      </trkpt>
      <trkpt lat="47.51022" lon="6.76956">
        <ele>375</ele>
        <time>2015-01-25T11:31:49.000Z</time>
      </trkpt>
      <trkpt lat="47.51027" lon="6.76959">
        <ele>375</ele>
        <time>2015-01-25T11:31:50.000Z</time>
      </trkpt>
      <trkpt lat="47.51033" lon="6.76964">
        <ele>375</ele>
        <time>2015-01-25T11:31:51.000Z</time>
      </trkpt>
      <trkpt lat="47.51037" lon="6.76967">
        <ele>375</ele>
        <time>2015-01-25T11:31:52.000Z</time>
      </trkpt>
      <trkpt lat="47.51042" lon="6.76974">
        <ele>375</ele>
        <time>2015-01-25T11:31:53.000Z</time>
      </trkpt>
      <trkpt lat="47.51047" lon="6.7698">
        <ele>375</ele>
        <time>2015-01-25T11:31:54.000Z</time>
      </trkpt>
      <trkpt lat="47.51052" lon="6.76985">
        <ele>375</ele>
        <time>2015-01-25T11:31:55.000Z</time>
      </trkpt>
      <trkpt lat="47.51057" lon="6.7699">
        <ele>375</ele>
        <time>2015-01-25T11:31:56.000Z</time>
      </trkpt>
      <trkpt lat="47.51063" lon="6.76996">
        <ele>375</ele>
        <time>2015-01-25T11:31:57.000Z</time>
      </trkpt>
      <trkpt lat="47.51069" lon="6.77">
        <ele>373</ele>
        <time>2015-01-25T11:31:58.000Z</time>
      </trkpt>
      <trkpt lat="47.51075" lon="6.77004">
        <ele>374</ele>
        <time>2015-01-25T11:31:59.000Z</time>
      </trkpt>
      <trkpt lat="47.51081" lon="6.7701">
        <ele>374</ele>
        <time>2015-01-25T11:32:00.000Z</time>
      </trkpt>
      <trkpt lat="47.51086" lon="6.77015">
        <ele>375</ele>
        <time>2015-01-25T11:32:01.000Z</time>
      </trkpt>
      <trkpt lat="47.51091" lon="6.77018">
        <ele>375</ele>
        <time>2015-01-25T11:32:02.000Z</time>
      </trkpt>
      <trkpt lat="47.51096" lon="6.77023">
        <ele>375</ele>
        <time>2015-01-25T11:32:03.000Z</time>
      </trkpt>
      <trkpt lat="47.51101" lon="6.77028">
        <ele>375</ele>
        <time>2015-01-25T11:32:04.000Z</time>
      </trkpt>
      <trkpt lat="47.51105" lon="6.77032">
        <ele>375</ele>
        <time>2015-01-25T11:32:05.000Z</time>
      </trkpt>
      <trkpt lat="47.5111" lon="6.77037">
        <ele>375</ele>
        <time>2015-01-25T11:32:06.000Z</time>
      </trkpt>
      <trkpt lat="47.51115" lon="6.77042">
        <ele>375</ele>
        <time>2015-01-25T11:32:07.000Z</time>
      </trkpt>
      <trkpt lat="47.5112" lon="6.77044">
        <ele>375</ele>
        <time>2015-01-25T11:32:08.000Z</time>
      </trkpt>
      <trkpt lat="47.51125" lon="6.77047">
        <ele>375</ele>
        <time>2015-01-25T11:32:09.000Z</time>
      </trkpt>
      <trkpt lat="47.51128" lon="6.77051">
        <ele>375</ele>
        <time>2015-01-25T11:32:10.000Z</time>
      </trkpt>
      <trkpt lat="47.51133" lon="6.77054">
        <ele>375</ele>
        <time>2015-01-25T11:32:11.000Z</time>
      </trkpt>
      <trkpt lat="47.51138" lon="6.77058">
        <ele>376</ele>
        <time>2015-01-25T11:32:12.000Z</time>
      </trkpt>
      <trkpt lat="47.51142" lon="6.77063">
        <ele>376</ele>
        <time>2015-01-25T11:32:13.000Z</time>
      </trkpt>
      <trkpt lat="47.51148" lon="6.77067">
        <ele>376</ele>
        <time>2015-01-25T11:32:14.000Z</time>
      </trkpt>
      <trkpt lat="47.51152" lon="6.77072">
        <ele>376</ele>
        <time>2015-01-25T11:32:15.000Z</time>
      </trkpt>
      <trkpt lat="47.51157" lon="6.77078">
        <ele>377</ele>
        <time>2015-01-25T11:32:16.000Z</time>
      </trkpt>
      <trkpt lat="47.51161" lon="6.77084">
        <ele>377</ele>
        <time>2015-01-25T11:32:17.000Z</time>
      </trkpt>
      <trkpt lat="47.51165" lon="6.77089">
        <ele>377</ele>
        <time>2015-01-25T11:32:18.000Z</time>
      </trkpt>
      <trkpt lat="47.51169" lon="6.77095">
        <ele>378</ele>
        <time>2015-01-25T11:32:19.000Z</time>
      </trkpt>
      <trkpt lat="47.51173" lon="6.77101">
        <ele>378</ele>
        <time>2015-01-25T11:32:20.000Z</time>
      </trkpt>
      <trkpt lat="47.51176" lon="6.77107">
        <ele>378</ele>
        <time>2015-01-25T11:32:21.000Z</time>
      </trkpt>
      <trkpt lat="47.5118" lon="6.77114">
        <ele>378</ele>
        <time>2015-01-25T11:32:22.000Z</time>
      </trkpt>
      <trkpt lat="47.51184" lon="6.7712">
        <ele>378</ele>
        <time>2015-01-25T11:32:23.000Z</time>
      </trkpt>
      <trkpt lat="47.51187" lon="6.77126">
        <ele>378</ele>
        <time>2015-01-25T11:32:24.000Z</time>
      </trkpt>
      <trkpt lat="47.5119" lon="6.77132">
        <ele>378</ele>
        <time>2015-01-25T11:32:25.000Z</time>
      </trkpt>
      <trkpt lat="47.51193" lon="6.77138">
        <ele>378</ele>
        <time>2015-01-25T11:32:26.000Z</time>
      </trkpt>
      <trkpt lat="47.51196" lon="6.77144">
        <ele>378</ele>
        <time>2015-01-25T11:32:27.000Z</time>
      </trkpt>
      <trkpt lat="47.51199" lon="6.77149">
        <ele>378</ele>
        <time>2015-01-25T11:32:28.000Z</time>
      </trkpt>
      <trkpt lat="47.51202" lon="6.77154">
        <ele>378</ele>
        <time>2015-01-25T11:32:29.000Z</time>
      </trkpt>
      <trkpt lat="47.51205" lon="6.77159">
        <ele>378</ele>
        <time>2015-01-25T11:32:30.000Z</time>
      </trkpt>
      <trkpt lat="47.51208" lon="6.77163">
        <ele>378</ele>
        <time>2015-01-25T11:32:31.000Z</time>
      </trkpt>
      <trkpt lat="47.5121" lon="6.77168">
        <ele>376</ele>
        <time>2015-01-25T11:32:32.000Z</time>
      </trkpt>
      <trkpt lat="47.51212" lon="6.77173">
        <ele>376</ele>
        <time>2015-01-25T11:32:33.000Z</time>
      </trkpt>
      <trkpt lat="47.51215" lon="6.77177">
        <ele>376</ele>
        <time>2015-01-25T11:32:34.000Z</time>
      </trkpt>
      <trkpt lat="47.51218" lon="6.77182">
        <ele>376</ele>
        <time>2015-01-25T11:32:35.000Z</time>
      </trkpt>
      <trkpt lat="47.5122" lon="6.77187">
        <ele>376</ele>
        <time>2015-01-25T11:32:36.000Z</time>
      </trkpt>
      <trkpt lat="47.51223" lon="6.77192">
        <ele>376</ele>
        <time>2015-01-25T11:32:37.000Z</time>
      </trkpt>
      <trkpt lat="47.51225" lon="6.77197">
        <ele>376</ele>
        <time>2015-01-25T11:32:38.000Z</time>
      </trkpt>
      <trkpt lat="47.51228" lon="6.77202">
        <ele>376</ele>
        <time>2015-01-25T11:32:39.000Z</time>
      </trkpt>
      <trkpt lat="47.5123" lon="6.77207">
        <ele>376</ele>
        <time>2015-01-25T11:32:40.000Z</time>
      </trkpt>
      <trkpt lat="47.51233" lon="6.77212">
        <ele>376</ele>
        <time>2015-01-25T11:32:41.000Z</time>
      </trkpt>
      <trkpt lat="47.51235" lon="6.77217">
        <ele>376</ele>
        <time>2015-01-25T11:32:42.000Z</time>
      </trkpt>
      <trkpt lat="47.51237" lon="6.77222">
        <ele>376</ele>
        <time>2015-01-25T11:32:43.000Z</time>
      </trkpt>
      <trkpt lat="47.5124" lon="6.77227">
        <ele>376</ele>
        <time>2015-01-25T11:32:44.000Z</time>
      </trkpt>
      <trkpt lat="47.51247" lon="6.77239">
        <ele>377</ele>
        <time>2015-01-25T11:32:47.000Z</time>
      </trkpt>
      <trkpt lat="47.5125" lon="6.77244">
        <ele>378</ele>
        <time>2015-01-25T11:32:48.000Z</time>
      </trkpt>
      <trkpt lat="47.51252" lon="6.77248">
        <ele>379</ele>
        <time>2015-01-25T11:32:49.000Z</time>
      </trkpt>
      <trkpt lat="47.51256" lon="6.77252">
        <ele>378</ele>
        <time>2015-01-25T11:32:50.000Z</time>
      </trkpt>
      <trkpt lat="47.51259" lon="6.77256">
        <ele>378</ele>
        <time>2015-01-25T11:32:51.000Z</time>
      </trkpt>
      <trkpt lat="47.51262" lon="6.7726">
        <ele>378</ele>
        <time>2015-01-25T11:32:52.000Z</time>
      </trkpt>
      <trkpt lat="47.51265" lon="6.77263">
        <ele>377</ele>
        <time>2015-01-25T11:32:53.000Z</time>
      </trkpt>
      <trkpt lat="47.51269" lon="6.77266">
        <ele>377</ele>
        <time>2015-01-25T11:32:54.000Z</time>
      </trkpt>
      <trkpt lat="47.51272" lon="6.77268">
        <ele>377</ele>
        <time>2015-01-25T11:32:55.000Z</time>
      </trkpt>
      <trkpt lat="47.51276" lon="6.77271">
        <ele>377</ele>
        <time>2015-01-25T11:32:56.000Z</time>
      </trkpt>
      <trkpt lat="47.5128" lon="6.77274">
        <ele>377</ele>
        <time>2015-01-25T11:32:57.000Z</time>
      </trkpt>
      <trkpt lat="47.51284" lon="6.77276">
        <ele>377</ele>
        <time>2015-01-25T11:32:58.000Z</time>
      </trkpt>
      <trkpt lat="47.5129" lon="6.77277">
        <ele>377</ele>
        <time>2015-01-25T11:32:59.000Z</time>
      </trkpt>
      <trkpt lat="47.51294" lon="6.7728">
        <ele>377</ele>
        <time>2015-01-25T11:33:00.000Z</time>
      </trkpt>
      <trkpt lat="47.51299" lon="6.77281">
        <ele>377</ele>
        <time>2015-01-25T11:33:01.000Z</time>
      </trkpt>
      <trkpt lat="47.51303" lon="6.77283">
        <ele>377</ele>
        <time>2015-01-25T11:33:02.000Z</time>
      </trkpt>
      <trkpt lat="47.51308" lon="6.77285">
        <ele>377</ele>
        <time>2015-01-25T11:33:03.000Z</time>
      </trkpt>
      <trkpt lat="47.51313" lon="6.77287">
        <ele>377</ele>
        <time>2015-01-25T11:33:04.000Z</time>
      </trkpt>
      <trkpt lat="47.51318" lon="6.77289">
        <ele>377</ele>
        <time>2015-01-25T11:33:05.000Z</time>
      </trkpt>
      <trkpt lat="47.51323" lon="6.77289">
        <ele>378</ele>
        <time>2015-01-25T11:33:06.000Z</time>
      </trkpt>
      <trkpt lat="47.51329" lon="6.77288">
        <ele>378</ele>
        <time>2015-01-25T11:33:07.000Z</time>
      </trkpt>
      <trkpt lat="47.51334" lon="6.77288">
        <ele>378</ele>
        <time>2015-01-25T11:33:08.000Z</time>
      </trkpt>
      <trkpt lat="47.51339" lon="6.77284">
        <ele>378</ele>
        <time>2015-01-25T11:33:09.000Z</time>
      </trkpt>
      <trkpt lat="47.51345" lon="6.77278">
        <ele>378</ele>
        <time>2015-01-25T11:33:10.000Z</time>
      </trkpt>
      <trkpt lat="47.51351" lon="6.77272">
        <ele>378</ele>
        <time>2015-01-25T11:33:11.000Z</time>
      </trkpt>
      <trkpt lat="47.51358" lon="6.77266">
        <ele>378</ele>
        <time>2015-01-25T11:33:12.000Z</time>
      </trkpt>
      <trkpt lat="47.51364" lon="6.77261">
        <ele>378</ele>
        <time>2015-01-25T11:33:13.000Z</time>
      </trkpt>
      <trkpt lat="47.51372" lon="6.77256">
        <ele>378</ele>
        <time>2015-01-25T11:33:14.000Z</time>
      </trkpt>
      <trkpt lat="47.5138" lon="6.77251">
        <ele>377</ele>
        <time>2015-01-25T11:33:15.000Z</time>
      </trkpt>
      <trkpt lat="47.51389" lon="6.77246">
        <ele>376</ele>
        <time>2015-01-25T11:33:16.000Z</time>
      </trkpt>
      <trkpt lat="47.51397" lon="6.77242">
        <ele>376</ele>
        <time>2015-01-25T11:33:17.000Z</time>
      </trkpt>
      <trkpt lat="47.51405" lon="6.77239">
        <ele>376</ele>
        <time>2015-01-25T11:33:18.000Z</time>
      </trkpt>
      <trkpt lat="47.51414" lon="6.77235">
        <ele>376</ele>
        <time>2015-01-25T11:33:19.000Z</time>
      </trkpt>
      <trkpt lat="47.51422" lon="6.7723">
        <ele>375</ele>
        <time>2015-01-25T11:33:20.000Z</time>
      </trkpt>
      <trkpt lat="47.5143" lon="6.77226">
        <ele>375</ele>
        <time>2015-01-25T11:33:21.000Z</time>
      </trkpt>
      <trkpt lat="47.51437" lon="6.77223">
        <ele>375</ele>
        <time>2015-01-25T11:33:22.000Z</time>
      </trkpt>
      <trkpt lat="47.51445" lon="6.7722">
        <ele>375</ele>
        <time>2015-01-25T11:33:23.000Z</time>
      </trkpt>
      <trkpt lat="47.51452" lon="6.77217">
        <ele>375</ele>
        <time>2015-01-25T11:33:24.000Z</time>
      </trkpt>
      <trkpt lat="47.51458" lon="6.77213">
        <ele>375</ele>
        <time>2015-01-25T11:33:25.000Z</time>
      </trkpt>
      <trkpt lat="47.51464" lon="6.77211">
        <ele>375</ele>
        <time>2015-01-25T11:33:26.000Z</time>
      </trkpt>
      <trkpt lat="47.51469" lon="6.77209">
        <ele>375</ele>
        <time>2015-01-25T11:33:27.000Z</time>
      </trkpt>
      <trkpt lat="47.51473" lon="6.77207">
        <ele>375</ele>
        <time>2015-01-25T11:33:28.000Z</time>
      </trkpt>
      <trkpt lat="47.51476" lon="6.77209">
        <ele>375</ele>
        <time>2015-01-25T11:33:29.000Z</time>
      </trkpt>
      <trkpt lat="47.51478" lon="6.77212">
        <ele>375</ele>
        <time>2015-01-25T11:33:30.000Z</time>
      </trkpt>
      <trkpt lat="47.51478" lon="6.77216">
        <ele>375</ele>
        <time>2015-01-25T11:33:31.000Z</time>
      </trkpt>
      <trkpt lat="47.51479" lon="6.77222">
        <ele>375</ele>
        <time>2015-01-25T11:33:32.000Z</time>
      </trkpt>
      <trkpt lat="47.51479" lon="6.77228">
        <ele>375</ele>
        <time>2015-01-25T11:33:33.000Z</time>
      </trkpt>
      <trkpt lat="47.51479" lon="6.77234">
        <ele>375</ele>
        <time>2015-01-25T11:33:34.000Z</time>
      </trkpt>
      <trkpt lat="47.5148" lon="6.7724">
        <ele>375</ele>
        <time>2015-01-25T11:33:35.000Z</time>
      </trkpt>
      <trkpt lat="47.51481" lon="6.77247">
        <ele>376</ele>
        <time>2015-01-25T11:33:36.000Z</time>
      </trkpt>
      <trkpt lat="47.51481" lon="6.77253">
        <ele>376</ele>
        <time>2015-01-25T11:33:37.000Z</time>
      </trkpt>
      <trkpt lat="47.51482" lon="6.7726">
        <ele>376</ele>
        <time>2015-01-25T11:33:38.000Z</time>
      </trkpt>
      <trkpt lat="47.51483" lon="6.77266">
        <ele>376</ele>
        <time>2015-01-25T11:33:39.000Z</time>
      </trkpt>
      <trkpt lat="47.51484" lon="6.77273">
        <ele>377</ele>
        <time>2015-01-25T11:33:40.000Z</time>
      </trkpt>
      <trkpt lat="47.51484" lon="6.77279">
        <ele>377</ele>
        <time>2015-01-25T11:33:41.000Z</time>
      </trkpt>
      <trkpt lat="47.51485" lon="6.77285">
        <ele>377</ele>
        <time>2015-01-25T11:33:42.000Z</time>
      </trkpt>
      <trkpt lat="47.51485" lon="6.77292">
        <ele>377</ele>
        <time>2015-01-25T11:33:43.000Z</time>
      </trkpt>
      <trkpt lat="47.51485" lon="6.77298">
        <ele>377</ele>
        <time>2015-01-25T11:33:44.000Z</time>
      </trkpt>
      <trkpt lat="47.51489" lon="6.77311">
        <ele>377</ele>
        <time>2015-01-25T11:33:47.000Z</time>
      </trkpt>
      <trkpt lat="47.51492" lon="6.77316">
        <ele>377</ele>
        <time>2015-01-25T11:33:48.000Z</time>
      </trkpt>
      <trkpt lat="47.51496" lon="6.77321">
        <ele>377</ele>
        <time>2015-01-25T11:33:49.000Z</time>
      </trkpt>
      <trkpt lat="47.51498" lon="6.77324">
        <ele>378</ele>
        <time>2015-01-25T11:33:50.000Z</time>
      </trkpt>
      <trkpt lat="47.51501" lon="6.77326">
        <ele>378</ele>
        <time>2015-01-25T11:33:51.000Z</time>
      </trkpt>
      <trkpt lat="47.51505" lon="6.7733">
        <ele>378</ele>
        <time>2015-01-25T11:33:52.000Z</time>
      </trkpt>
      <trkpt lat="47.51507" lon="6.77334">
        <ele>379</ele>
        <time>2015-01-25T11:33:53.000Z</time>
      </trkpt>
      <trkpt lat="47.5151" lon="6.77338">
        <ele>379</ele>
        <time>2015-01-25T11:33:54.000Z</time>
      </trkpt>
      <trkpt lat="47.51513" lon="6.77342">
        <ele>379</ele>
        <time>2015-01-25T11:33:55.000Z</time>
      </trkpt>
      <trkpt lat="47.51516" lon="6.77346">
        <ele>379</ele>
        <time>2015-01-25T11:33:56.000Z</time>
      </trkpt>
      <trkpt lat="47.51519" lon="6.7735">
        <ele>380</ele>
        <time>2015-01-25T11:33:57.000Z</time>
      </trkpt>
      <trkpt lat="47.51522" lon="6.77354">
        <ele>380</ele>
        <time>2015-01-25T11:33:58.000Z</time>
      </trkpt>
      <trkpt lat="47.51526" lon="6.77359">
        <ele>380</ele>
        <time>2015-01-25T11:33:59.000Z</time>
      </trkpt>
      <trkpt lat="47.51529" lon="6.77363">
        <ele>380</ele>
        <time>2015-01-25T11:34:00.000Z</time>
      </trkpt>
      <trkpt lat="47.51532" lon="6.77366">
        <ele>380</ele>
        <time>2015-01-25T11:34:01.000Z</time>
      </trkpt>
      <trkpt lat="47.51534" lon="6.77369">
        <ele>380</ele>
        <time>2015-01-25T11:34:02.000Z</time>
      </trkpt>
      <trkpt lat="47.51536" lon="6.77372">
        <ele>380</ele>
        <time>2015-01-25T11:34:03.000Z</time>
      </trkpt>
      <trkpt lat="47.51538" lon="6.77376">
        <ele>380</ele>
        <time>2015-01-25T11:34:04.000Z</time>
      </trkpt>
      <trkpt lat="47.5154" lon="6.77379">
        <ele>381</ele>
        <time>2015-01-25T11:34:05.000Z</time>
      </trkpt>
      <trkpt lat="47.51543" lon="6.77382">
        <ele>381</ele>
        <time>2015-01-25T11:34:06.000Z</time>
      </trkpt>
      <trkpt lat="47.51546" lon="6.77385">
        <ele>381</ele>
        <time>2015-01-25T11:34:07.000Z</time>
      </trkpt>
      <trkpt lat="47.51548" lon="6.77388">
        <ele>381</ele>
        <time>2015-01-25T11:34:08.000Z</time>
      </trkpt>
      <trkpt lat="47.51551" lon="6.77391">
        <ele>381</ele>
        <time>2015-01-25T11:34:09.000Z</time>
      </trkpt>
      <trkpt lat="47.51554" lon="6.77394">
        <ele>381</ele>
        <time>2015-01-25T11:34:10.000Z</time>
      </trkpt>
      <trkpt lat="47.51557" lon="6.77397">
        <ele>381</ele>
        <time>2015-01-25T11:34:11.000Z</time>
      </trkpt>
      <trkpt lat="47.51559" lon="6.774">
        <ele>381</ele>
        <time>2015-01-25T11:34:12.000Z</time>
      </trkpt>
      <trkpt lat="47.51561" lon="6.77402">
        <ele>381</ele>
        <time>2015-01-25T11:34:13.000Z</time>
      </trkpt>
      <trkpt lat="47.51564" lon="6.77405">
        <ele>381</ele>
        <time>2015-01-25T11:34:14.000Z</time>
      </trkpt>
      <trkpt lat="47.51566" lon="6.77408">
        <ele>382</ele>
        <time>2015-01-25T11:34:15.000Z</time>
      </trkpt>
      <trkpt lat="47.51568" lon="6.77411">
        <ele>382</ele>
        <time>2015-01-25T11:34:16.000Z</time>
      </trkpt>
      <trkpt lat="47.5157" lon="6.77414">
        <ele>382</ele>
        <time>2015-01-25T11:34:17.000Z</time>
      </trkpt>
      <trkpt lat="47.51572" lon="6.77417">
        <ele>383</ele>
        <time>2015-01-25T11:34:18.000Z</time>
      </trkpt>
      <trkpt lat="47.51575" lon="6.7742">
        <ele>383</ele>
        <time>2015-01-25T11:34:19.000Z</time>
      </trkpt>
      <trkpt lat="47.51577" lon="6.77423">
        <ele>383</ele>
        <time>2015-01-25T11:34:20.000Z</time>
      </trkpt>
      <trkpt lat="47.5158" lon="6.77426">
        <ele>383</ele>
        <time>2015-01-25T11:34:21.000Z</time>
      </trkpt>
      <trkpt lat="47.51582" lon="6.77429">
        <ele>383</ele>
        <time>2015-01-25T11:34:22.000Z</time>
      </trkpt>
      <trkpt lat="47.51585" lon="6.77431">
        <ele>384</ele>
        <time>2015-01-25T11:34:23.000Z</time>
      </trkpt>
      <trkpt lat="47.51587" lon="6.77434">
        <ele>384</ele>
        <time>2015-01-25T11:34:24.000Z</time>
      </trkpt>
      <trkpt lat="47.5159" lon="6.77437">
        <ele>385</ele>
        <time>2015-01-25T11:34:25.000Z</time>
      </trkpt>
      <trkpt lat="47.51592" lon="6.7744">
        <ele>385</ele>
        <time>2015-01-25T11:34:26.000Z</time>
      </trkpt>
      <trkpt lat="47.51595" lon="6.77442">
        <ele>385</ele>
        <time>2015-01-25T11:34:27.000Z</time>
      </trkpt>
      <trkpt lat="47.51597" lon="6.77445">
        <ele>385</ele>
        <time>2015-01-25T11:34:28.000Z</time>
      </trkpt>
      <trkpt lat="47.51599" lon="6.77447">
        <ele>385</ele>
        <time>2015-01-25T11:34:29.000Z</time>
      </trkpt>
      <trkpt lat="47.51602" lon="6.7745">
        <ele>385</ele>
        <time>2015-01-25T11:34:30.000Z</time>
      </trkpt>
      <trkpt lat="47.51604" lon="6.77453">
        <ele>385</ele>
        <time>2015-01-25T11:34:31.000Z</time>
      </trkpt>
      <trkpt lat="47.51607" lon="6.77456">
        <ele>385</ele>
        <time>2015-01-25T11:34:32.000Z</time>
      </trkpt>
      <trkpt lat="47.5161" lon="6.77459">
        <ele>385</ele>
        <time>2015-01-25T11:34:33.000Z</time>
      </trkpt>
      <trkpt lat="47.51612" lon="6.77461">
        <ele>386</ele>
        <time>2015-01-25T11:34:34.000Z</time>
      </trkpt>
      <trkpt lat="47.51615" lon="6.77464">
        <ele>386</ele>
        <time>2015-01-25T11:34:35.000Z</time>
      </trkpt>
      <trkpt lat="47.51617" lon="6.77467">
        <ele>386</ele>
        <time>2015-01-25T11:34:36.000Z</time>
      </trkpt>
      <trkpt lat="47.51619" lon="6.7747">
        <ele>386</ele>
        <time>2015-01-25T11:34:37.000Z</time>
      </trkpt>
      <trkpt lat="47.51621" lon="6.77472">
        <ele>386</ele>
        <time>2015-01-25T11:34:38.000Z</time>
      </trkpt>
      <trkpt lat="47.51623" lon="6.77475">
        <ele>386</ele>
        <time>2015-01-25T11:34:39.000Z</time>
      </trkpt>
      <trkpt lat="47.51625" lon="6.77478">
        <ele>386</ele>
        <time>2015-01-25T11:34:40.000Z</time>
      </trkpt>
      <trkpt lat="47.51628" lon="6.77482">
        <ele>386</ele>
        <time>2015-01-25T11:34:41.000Z</time>
      </trkpt>
      <trkpt lat="47.5163" lon="6.77485">
        <ele>386</ele>
        <time>2015-01-25T11:34:42.000Z</time>
      </trkpt>
      <trkpt lat="47.51633" lon="6.77488">
        <ele>386</ele>
        <time>2015-01-25T11:34:43.000Z</time>
      </trkpt>
      <trkpt lat="47.51636" lon="6.77492">
        <ele>387</ele>
        <time>2015-01-25T11:34:44.000Z</time>
      </trkpt>
      <trkpt lat="47.51644" lon="6.77501">
        <ele>388</ele>
        <time>2015-01-25T11:34:47.000Z</time>
      </trkpt>
      <trkpt lat="47.51646" lon="6.77504">
        <ele>388</ele>
        <time>2015-01-25T11:34:48.000Z</time>
      </trkpt>
      <trkpt lat="47.51649" lon="6.77507">
        <ele>388</ele>
        <time>2015-01-25T11:34:49.000Z</time>
      </trkpt>
      <trkpt lat="47.51651" lon="6.7751">
        <ele>388</ele>
        <time>2015-01-25T11:34:50.000Z</time>
      </trkpt>
      <trkpt lat="47.51654" lon="6.77513">
        <ele>388</ele>
        <time>2015-01-25T11:34:51.000Z</time>
      </trkpt>
      <trkpt lat="47.51656" lon="6.77517">
        <ele>388</ele>
        <time>2015-01-25T11:34:52.000Z</time>
      </trkpt>
      <trkpt lat="47.51659" lon="6.7752">
        <ele>388</ele>
        <time>2015-01-25T11:34:53.000Z</time>
      </trkpt>
      <trkpt lat="47.51661" lon="6.77523">
        <ele>388</ele>
        <time>2015-01-25T11:34:54.000Z</time>
      </trkpt>
      <trkpt lat="47.51664" lon="6.77526">
        <ele>388</ele>
        <time>2015-01-25T11:34:55.000Z</time>
      </trkpt>
      <trkpt lat="47.51666" lon="6.77529">
        <ele>388</ele>
        <time>2015-01-25T11:34:56.000Z</time>
      </trkpt>
      <trkpt lat="47.51669" lon="6.77531">
        <ele>390</ele>
        <time>2015-01-25T11:34:57.000Z</time>
      </trkpt>
      <trkpt lat="47.51672" lon="6.77533">
        <ele>390</ele>
        <time>2015-01-25T11:34:58.000Z</time>
      </trkpt>
      <trkpt lat="47.51675" lon="6.77535">
        <ele>390</ele>
        <time>2015-01-25T11:34:59.000Z</time>
      </trkpt>
      <trkpt lat="47.51678" lon="6.77537">
        <ele>390</ele>
        <time>2015-01-25T11:35:00.000Z</time>
      </trkpt>
      <trkpt lat="47.51681" lon="6.7754">
        <ele>390</ele>
        <time>2015-01-25T11:35:01.000Z</time>
      </trkpt>
      <trkpt lat="47.51684" lon="6.77543">
        <ele>390</ele>
        <time>2015-01-25T11:35:02.000Z</time>
      </trkpt>
      <trkpt lat="47.51686" lon="6.77546">
        <ele>390</ele>
        <time>2015-01-25T11:35:03.000Z</time>
      </trkpt>
      <trkpt lat="47.51689" lon="6.77549">
        <ele>390</ele>
        <time>2015-01-25T11:35:04.000Z</time>
      </trkpt>
      <trkpt lat="47.51691" lon="6.77552">
        <ele>390</ele>
        <time>2015-01-25T11:35:05.000Z</time>
      </trkpt>
      <trkpt lat="47.51694" lon="6.77555">
        <ele>390</ele>
        <time>2015-01-25T11:35:06.000Z</time>
      </trkpt>
      <trkpt lat="47.51695" lon="6.77558">
        <ele>390</ele>
        <time>2015-01-25T11:35:07.000Z</time>
      </trkpt>
      <trkpt lat="47.51697" lon="6.7756">
        <ele>390</ele>
        <time>2015-01-25T11:35:08.000Z</time>
      </trkpt>
      <trkpt lat="47.51699" lon="6.77562">
        <ele>390</ele>
        <time>2015-01-25T11:35:09.000Z</time>
      </trkpt>
      <trkpt lat="47.51702" lon="6.77563">
        <ele>390</ele>
        <time>2015-01-25T11:35:10.000Z</time>
      </trkpt>
      <trkpt lat="47.51705" lon="6.77562">
        <ele>390</ele>
        <time>2015-01-25T11:35:11.000Z</time>
      </trkpt>
      <trkpt lat="47.51707" lon="6.77559">
        <ele>390</ele>
        <time>2015-01-25T11:35:12.000Z</time>
      </trkpt>
      <trkpt lat="47.5171" lon="6.77555">
        <ele>390</ele>
        <time>2015-01-25T11:35:13.000Z</time>
      </trkpt>
      <trkpt lat="47.51711" lon="6.77551">
        <ele>390</ele>
        <time>2015-01-25T11:35:14.000Z</time>
      </trkpt>
      <trkpt lat="47.51713" lon="6.77546">
        <ele>390</ele>
        <time>2015-01-25T11:35:15.000Z</time>
      </trkpt>
      <trkpt lat="47.51714" lon="6.7754">
        <ele>390</ele>
        <time>2015-01-25T11:35:16.000Z</time>
      </trkpt>
      <trkpt lat="47.51715" lon="6.77535">
        <ele>390</ele>
        <time>2015-01-25T11:35:17.000Z</time>
      </trkpt>
      <trkpt lat="47.51716" lon="6.77529">
        <ele>390</ele>
        <time>2015-01-25T11:35:18.000Z</time>
      </trkpt>
      <trkpt lat="47.51717" lon="6.77524">
        <ele>390</ele>
        <time>2015-01-25T11:35:19.000Z</time>
      </trkpt>
      <trkpt lat="47.51718" lon="6.77519">
        <ele>390</ele>
        <time>2015-01-25T11:35:20.000Z</time>
      </trkpt>
      <trkpt lat="47.51719" lon="6.77514">
        <ele>390</ele>
        <time>2015-01-25T11:35:21.000Z</time>
      </trkpt>
      <trkpt lat="47.5172" lon="6.77509">
        <ele>390</ele>
        <time>2015-01-25T11:35:22.000Z</time>
      </trkpt>
      <trkpt lat="47.51721" lon="6.77505">
        <ele>390</ele>
        <time>2015-01-25T11:35:23.000Z</time>
      </trkpt>
      <trkpt lat="47.51722" lon="6.77501">
        <ele>390</ele>
        <time>2015-01-25T11:35:24.000Z</time>
      </trkpt>
      <trkpt lat="47.51723" lon="6.77496">
        <ele>389</ele>
        <time>2015-01-25T11:35:25.000Z</time>
      </trkpt>
      <trkpt lat="47.51724" lon="6.77491">
        <ele>389</ele>
        <time>2015-01-25T11:35:26.000Z</time>
      </trkpt>
      <trkpt lat="47.51726" lon="6.77487">
        <ele>389</ele>
        <time>2015-01-25T11:35:27.000Z</time>
      </trkpt>
      <trkpt lat="47.51729" lon="6.77483">
        <ele>389</ele>
        <time>2015-01-25T11:35:28.000Z</time>
      </trkpt>
      <trkpt lat="47.51732" lon="6.77481">
        <ele>389</ele>
        <time>2015-01-25T11:35:29.000Z</time>
      </trkpt>
      <trkpt lat="47.51736" lon="6.7748">
        <ele>389</ele>
        <time>2015-01-25T11:35:30.000Z</time>
      </trkpt>
      <trkpt lat="47.51741" lon="6.77481">
        <ele>389</ele>
        <time>2015-01-25T11:35:31.000Z</time>
      </trkpt>
      <trkpt lat="47.51749" lon="6.77483">
        <ele>389</ele>
        <time>2015-01-25T11:35:32.000Z</time>
      </trkpt>
      <trkpt lat="47.51754" lon="6.77483">
        <ele>389</ele>
        <time>2015-01-25T11:35:33.000Z</time>
      </trkpt>
      <trkpt lat="47.51757" lon="6.77483">
        <ele>389</ele>
        <time>2015-01-25T11:35:34.000Z</time>
      </trkpt>
      <trkpt lat="47.51762" lon="6.77484">
        <ele>389</ele>
        <time>2015-01-25T11:35:35.000Z</time>
      </trkpt>
      <trkpt lat="47.51765" lon="6.77485">
        <ele>389</ele>
        <time>2015-01-25T11:35:36.000Z</time>
      </trkpt>
      <trkpt lat="47.51769" lon="6.77486">
        <ele>389</ele>
        <time>2015-01-25T11:35:37.000Z</time>
      </trkpt>
      <trkpt lat="47.51773" lon="6.77487">
        <ele>388</ele>
        <time>2015-01-25T11:35:38.000Z</time>
      </trkpt>
      <trkpt lat="47.51777" lon="6.77488">
        <ele>388</ele>
        <time>2015-01-25T11:35:39.000Z</time>
      </trkpt>
      <trkpt lat="47.51782" lon="6.77489">
        <ele>388</ele>
        <time>2015-01-25T11:35:40.000Z</time>
      </trkpt>
      <trkpt lat="47.51786" lon="6.77491">
        <ele>388</ele>
        <time>2015-01-25T11:35:41.000Z</time>
      </trkpt>
      <trkpt lat="47.5179" lon="6.77491">
        <ele>388</ele>
        <time>2015-01-25T11:35:42.000Z</time>
      </trkpt>
      <trkpt lat="47.51794" lon="6.77492">
        <ele>388</ele>
        <time>2015-01-25T11:35:43.000Z</time>
      </trkpt>
      <trkpt lat="47.51799" lon="6.77493">
        <ele>388</ele>
        <time>2015-01-25T11:35:44.000Z</time>
      </trkpt>
      <trkpt lat="47.51802" lon="6.77494">
        <ele>388</ele>
        <time>2015-01-25T11:35:45.000Z</time>
      </trkpt>
      <trkpt lat="47.51813" lon="6.7749">
        <ele>388</ele>
        <time>2015-01-25T11:35:48.000Z</time>
      </trkpt>
      <trkpt lat="47.51813" lon="6.77486">
        <ele>388</ele>
        <time>2015-01-25T11:35:50.000Z</time>
      </trkpt>
      <trkpt lat="47.51811" lon="6.77481">
        <ele>388</ele>
        <time>2015-01-25T11:35:51.000Z</time>
      </trkpt>
      <trkpt lat="47.51811" lon="6.77478">
        <ele>388</ele>
        <time>2015-01-25T11:35:52.000Z</time>
      </trkpt>
      <trkpt lat="47.5181" lon="6.77474">
        <ele>388</ele>
        <time>2015-01-25T11:35:53.000Z</time>
      </trkpt>
      <trkpt lat="47.5181" lon="6.7747">
        <ele>388</ele>
        <time>2015-01-25T11:35:54.000Z</time>
      </trkpt>
      <trkpt lat="47.51809" lon="6.77467">
        <ele>388</ele>
        <time>2015-01-25T11:35:55.000Z</time>
      </trkpt>
      <trkpt lat="47.51808" lon="6.77461">
        <ele>388</ele>
        <time>2015-01-25T11:35:57.000Z</time>
      </trkpt>
      <trkpt lat="47.51807" lon="6.77459">
        <ele>388</ele>
        <time>2015-01-25T11:35:58.000Z</time>
      </trkpt>
      <trkpt lat="47.51808" lon="6.77464">
        <ele>388</ele>
        <time>2015-01-25T11:36:24.000Z</time>
      </trkpt>
      <trkpt lat="47.51808" lon="6.77466">
        <ele>388</ele>
        <time>2015-01-25T11:36:25.000Z</time>
      </trkpt>
      <trkpt lat="47.51809" lon="6.77472">
        <ele>388</ele>
        <time>2015-01-25T11:36:30.000Z</time>
      </trkpt>
      <trkpt lat="47.51809" lon="6.77474">
        <ele>388</ele>
        <time>2015-01-25T11:36:31.000Z</time>
      </trkpt>
      <trkpt lat="47.51808" lon="6.77479">
        <ele>388</ele>
        <time>2015-01-25T11:36:43.000Z</time>
      </trkpt>
      <trkpt lat="47.51807" lon="6.7748">
        <ele>388</ele>
        <time>2015-01-25T11:36:44.000Z</time>
      </trkpt>
      <trkpt lat="47.51803" lon="6.77478">
        <ele>388</ele>
        <time>2015-01-25T11:36:52.000Z</time>
      </trkpt>
      <trkpt lat="47.51803" lon="6.77477">
        <ele>388</ele>
        <time>2015-01-25T11:36:53.000Z</time>
      </trkpt>
      <trkpt lat="47.51807" lon="6.77478">
        <ele>388</ele>
        <time>2015-01-25T11:38:13.000Z</time>
      </trkpt>
      <trkpt lat="47.51808" lon="6.77478">
        <ele>388</ele>
        <time>2015-01-25T11:38:14.000Z</time>
      </trkpt>
      <trkpt lat="47.51811" lon="6.77483">
        <ele>388</ele>
        <time>2015-01-25T11:38:52.000Z</time>
      </trkpt>
      <trkpt lat="47.51811" lon="6.77483">
        <ele>388</ele>
        <time>2015-01-25T11:38:53.000Z</time>
      </trkpt>
      <trkpt lat="47.51814" lon="6.77486">
        <ele>388</ele>
        <time>2015-01-25T11:47:18.000Z</time>
      </trkpt>
      <trkpt lat="47.51815" lon="6.77487">
        <ele>388</ele>
        <time>2015-01-25T11:47:19.000Z</time>
      </trkpt>
      <trkpt lat="47.51812" lon="6.77485">
        <ele>388</ele>
        <time>2015-01-25T11:47:30.000Z</time>
      </trkpt>
    </trkseg>
  </trk>
</gpx>